<?xml version="1.0" encoding="UTF-8" standalone="no" ?>
<gpx xmlns="http://www.topografix.com/GPX/1/1" xmlns:xsi="http://www.w3.org/2001/XMLSchema-instance" xsi:schemaLocation="http://www.topografix.com/GPX/1/1 http://www.topografix.com/GPX/1/1/gpx.xsd" version="1.1" creator="VisuGPX - https://www.visugpx.com">
  <metadata>
    <name>Mizoën Col de Sarenne</name>
  </metadata>
  <trk>
    <name><![CDATA[Mizoën Col de Sarenne_1]]></name>
    <extensions>
      <line xmlns="http://www.topografix.com/GPX/gpx_style/0/2">
        <color>0000FF</color>
        <width>4</width>
      </line>
    </extensions>
    <trkseg>
      <trkpt lat="45.0527" lon="6.14315">
        <ele>1178.8</ele>
        <time>2026-08-09T07:02:46Z</time>
      </trkpt>
      <trkpt lat="45.05274" lon="6.1432">
        <ele>1179</ele>
        <time>2026-08-09T07:02:48Z</time>
      </trkpt>
      <trkpt lat="45.05277" lon="6.14325">
        <ele>1179.2</ele>
        <time>2026-08-09T07:02:50Z</time>
      </trkpt>
      <trkpt lat="45.05281" lon="6.14331">
        <ele>1179.4</ele>
        <time>2026-08-09T07:02:52Z</time>
      </trkpt>
      <trkpt lat="45.05284" lon="6.14336">
        <ele>1179.4</ele>
        <time>2026-08-09T07:02:54Z</time>
      </trkpt>
      <trkpt lat="45.05288" lon="6.14343">
        <ele>1179.6</ele>
        <time>2026-08-09T07:02:56Z</time>
      </trkpt>
      <trkpt lat="45.0529" lon="6.14351">
        <ele>1180</ele>
        <time>2026-08-09T07:02:58Z</time>
      </trkpt>
      <trkpt lat="45.05294" lon="6.14358">
        <ele>1180</ele>
        <time>2026-08-09T07:03:00Z</time>
      </trkpt>
      <trkpt lat="45.05299" lon="6.14365">
        <ele>1180</ele>
        <time>2026-08-09T07:03:02Z</time>
      </trkpt>
      <trkpt lat="45.053" lon="6.14369">
        <ele>1180.2</ele>
        <time>2026-08-09T07:03:03Z</time>
      </trkpt>
      <trkpt lat="45.05303" lon="6.14373">
        <ele>1180</ele>
        <time>2026-08-09T07:03:04Z</time>
      </trkpt>
      <trkpt lat="45.05308" lon="6.14381">
        <ele>1180.2</ele>
        <time>2026-08-09T07:03:06Z</time>
      </trkpt>
      <trkpt lat="45.05314" lon="6.1439">
        <ele>1180.4</ele>
        <time>2026-08-09T07:03:08Z</time>
      </trkpt>
      <trkpt lat="45.05319" lon="6.14396">
        <ele>1180.8</ele>
        <time>2026-08-09T07:03:10Z</time>
      </trkpt>
      <trkpt lat="45.05321" lon="6.144">
        <ele>1181</ele>
        <time>2026-08-09T07:03:11Z</time>
      </trkpt>
      <trkpt lat="45.05324" lon="6.14403">
        <ele>1181</ele>
        <time>2026-08-09T07:03:12Z</time>
      </trkpt>
      <trkpt lat="45.05329" lon="6.14409">
        <ele>1181.2</ele>
        <time>2026-08-09T07:03:14Z</time>
      </trkpt>
      <trkpt lat="45.05334" lon="6.14414">
        <ele>1181.4</ele>
        <time>2026-08-09T07:03:16Z</time>
      </trkpt>
      <trkpt lat="45.05337" lon="6.14419">
        <ele>1183.6</ele>
        <time>2026-08-09T07:03:18Z</time>
      </trkpt>
      <trkpt lat="45.05341" lon="6.14424">
        <ele>1183.6</ele>
        <time>2026-08-09T07:03:20Z</time>
      </trkpt>
      <trkpt lat="45.05346" lon="6.14428">
        <ele>1184</ele>
        <time>2026-08-09T07:03:22Z</time>
      </trkpt>
      <trkpt lat="45.05351" lon="6.14432">
        <ele>1184.4</ele>
        <time>2026-08-09T07:03:24Z</time>
      </trkpt>
      <trkpt lat="45.05357" lon="6.14434">
        <ele>1184.6</ele>
        <time>2026-08-09T07:03:26Z</time>
      </trkpt>
      <trkpt lat="45.05362" lon="6.14438">
        <ele>1184.8</ele>
        <time>2026-08-09T07:03:28Z</time>
      </trkpt>
      <trkpt lat="45.05368" lon="6.14441">
        <ele>1185</ele>
        <time>2026-08-09T07:03:30Z</time>
      </trkpt>
      <trkpt lat="45.05371" lon="6.14442">
        <ele>1185.2</ele>
        <time>2026-08-09T07:03:31Z</time>
      </trkpt>
      <trkpt lat="45.05374" lon="6.14445">
        <ele>1185.2</ele>
        <time>2026-08-09T07:03:32Z</time>
      </trkpt>
      <trkpt lat="45.0538" lon="6.14449">
        <ele>1185.6</ele>
        <time>2026-08-09T07:03:34Z</time>
      </trkpt>
      <trkpt lat="45.05385" lon="6.14452">
        <ele>1185.4</ele>
        <time>2026-08-09T07:03:36Z</time>
      </trkpt>
      <trkpt lat="45.05388" lon="6.14452">
        <ele>1185.2</ele>
        <time>2026-08-09T07:03:37Z</time>
      </trkpt>
      <trkpt lat="45.05391" lon="6.14453">
        <ele>1185.2</ele>
        <time>2026-08-09T07:03:38Z</time>
      </trkpt>
      <trkpt lat="45.05397" lon="6.14454">
        <ele>1185.2</ele>
        <time>2026-08-09T07:03:40Z</time>
      </trkpt>
      <trkpt lat="45.05403" lon="6.14455">
        <ele>1185.6</ele>
        <time>2026-08-09T07:03:42Z</time>
      </trkpt>
      <trkpt lat="45.05406" lon="6.14457">
        <ele>1185.6</ele>
        <time>2026-08-09T07:03:43Z</time>
      </trkpt>
      <trkpt lat="45.0541" lon="6.14458">
        <ele>1185.8</ele>
        <time>2026-08-09T07:03:44Z</time>
      </trkpt>
      <trkpt lat="45.05416" lon="6.14461">
        <ele>1185.8</ele>
        <time>2026-08-09T07:03:46Z</time>
      </trkpt>
      <trkpt lat="45.05423" lon="6.14463">
        <ele>1186</ele>
        <time>2026-08-09T07:03:48Z</time>
      </trkpt>
      <trkpt lat="45.05428" lon="6.14466">
        <ele>1186.4</ele>
        <time>2026-08-09T07:03:50Z</time>
      </trkpt>
      <trkpt lat="45.05431" lon="6.14467">
        <ele>1186.4</ele>
        <time>2026-08-09T07:03:51Z</time>
      </trkpt>
      <trkpt lat="45.05434" lon="6.14469">
        <ele>1186.6</ele>
        <time>2026-08-09T07:03:52Z</time>
      </trkpt>
      <trkpt lat="45.05439" lon="6.14473">
        <ele>1186.8</ele>
        <time>2026-08-09T07:03:54Z</time>
      </trkpt>
      <trkpt lat="45.05442" lon="6.14479">
        <ele>1187</ele>
        <time>2026-08-09T07:03:56Z</time>
      </trkpt>
      <trkpt lat="45.05443" lon="6.14481">
        <ele>1187</ele>
        <time>2026-08-09T07:03:57Z</time>
      </trkpt>
      <trkpt lat="45.05445" lon="6.14483">
        <ele>1187.2</ele>
        <time>2026-08-09T07:03:58Z</time>
      </trkpt>
      <trkpt lat="45.05449" lon="6.14488">
        <ele>1187.6</ele>
        <time>2026-08-09T07:04:00Z</time>
      </trkpt>
      <trkpt lat="45.05453" lon="6.14493">
        <ele>1188</ele>
        <time>2026-08-09T07:04:02Z</time>
      </trkpt>
      <trkpt lat="45.05458" lon="6.14495">
        <ele>1188.2</ele>
        <time>2026-08-09T07:04:04Z</time>
      </trkpt>
      <trkpt lat="45.0546" lon="6.14497">
        <ele>1188.2</ele>
        <time>2026-08-09T07:04:05Z</time>
      </trkpt>
      <trkpt lat="45.05462" lon="6.14499">
        <ele>1188.4</ele>
        <time>2026-08-09T07:04:06Z</time>
      </trkpt>
      <trkpt lat="45.05467" lon="6.14503">
        <ele>1188.6</ele>
        <time>2026-08-09T07:04:08Z</time>
      </trkpt>
      <trkpt lat="45.05473" lon="6.14507">
        <ele>1188.8</ele>
        <time>2026-08-09T07:04:10Z</time>
      </trkpt>
      <trkpt lat="45.05478" lon="6.1451">
        <ele>1189</ele>
        <time>2026-08-09T07:04:12Z</time>
      </trkpt>
      <trkpt lat="45.05483" lon="6.14512">
        <ele>1189</ele>
        <time>2026-08-09T07:04:14Z</time>
      </trkpt>
      <trkpt lat="45.05491" lon="6.14515">
        <ele>1189</ele>
        <time>2026-08-09T07:04:16Z</time>
      </trkpt>
      <trkpt lat="45.05494" lon="6.14517">
        <ele>1189</ele>
        <time>2026-08-09T07:04:17Z</time>
      </trkpt>
      <trkpt lat="45.05498" lon="6.14521">
        <ele>1189.2</ele>
        <time>2026-08-09T07:04:18Z</time>
      </trkpt>
      <trkpt lat="45.05503" lon="6.14525">
        <ele>1189.2</ele>
        <time>2026-08-09T07:04:20Z</time>
      </trkpt>
      <trkpt lat="45.05508" lon="6.14528">
        <ele>1189.8</ele>
        <time>2026-08-09T07:04:22Z</time>
      </trkpt>
      <trkpt lat="45.05511" lon="6.1453">
        <ele>1190</ele>
        <time>2026-08-09T07:04:23Z</time>
      </trkpt>
      <trkpt lat="45.05516" lon="6.14531">
        <ele>1190.2</ele>
        <time>2026-08-09T07:04:24Z</time>
      </trkpt>
      <trkpt lat="45.05524" lon="6.14535">
        <ele>1190.6</ele>
        <time>2026-08-09T07:04:26Z</time>
      </trkpt>
      <trkpt lat="45.05528" lon="6.14537">
        <ele>1190.8</ele>
        <time>2026-08-09T07:04:27Z</time>
      </trkpt>
      <trkpt lat="45.05532" lon="6.14539">
        <ele>1191.2</ele>
        <time>2026-08-09T07:04:28Z</time>
      </trkpt>
      <trkpt lat="45.05541" lon="6.14542">
        <ele>1191.4</ele>
        <time>2026-08-09T07:04:30Z</time>
      </trkpt>
      <trkpt lat="45.05549" lon="6.14546">
        <ele>1191.6</ele>
        <time>2026-08-09T07:04:32Z</time>
      </trkpt>
      <trkpt lat="45.05559" lon="6.1455">
        <ele>1191.6</ele>
        <time>2026-08-09T07:04:34Z</time>
      </trkpt>
      <trkpt lat="45.0557" lon="6.14555">
        <ele>1191.6</ele>
        <time>2026-08-09T07:04:36Z</time>
      </trkpt>
      <trkpt lat="45.05577" lon="6.14556">
        <ele>1191.6</ele>
        <time>2026-08-09T07:04:37Z</time>
      </trkpt>
      <trkpt lat="45.05584" lon="6.14558">
        <ele>1191.6</ele>
        <time>2026-08-09T07:04:38Z</time>
      </trkpt>
      <trkpt lat="45.05598" lon="6.14561">
        <ele>1191</ele>
        <time>2026-08-09T07:04:40Z</time>
      </trkpt>
      <trkpt lat="45.05615" lon="6.14562">
        <ele>1190.2</ele>
        <time>2026-08-09T07:04:42Z</time>
      </trkpt>
      <trkpt lat="45.05625" lon="6.14563">
        <ele>1189.8</ele>
        <time>2026-08-09T07:04:43Z</time>
      </trkpt>
      <trkpt lat="45.05634" lon="6.14564">
        <ele>1189.4</ele>
        <time>2026-08-09T07:04:44Z</time>
      </trkpt>
      <trkpt lat="45.05643" lon="6.14567">
        <ele>1189.2</ele>
        <time>2026-08-09T07:04:45Z</time>
      </trkpt>
      <trkpt lat="45.05651" lon="6.14571">
        <ele>1188.8</ele>
        <time>2026-08-09T07:04:46Z</time>
      </trkpt>
      <trkpt lat="45.05659" lon="6.14579">
        <ele>1188.2</ele>
        <time>2026-08-09T07:04:47Z</time>
      </trkpt>
      <trkpt lat="45.05666" lon="6.14589">
        <ele>1187.6</ele>
        <time>2026-08-09T07:04:48Z</time>
      </trkpt>
      <trkpt lat="45.05678" lon="6.14613">
        <ele>1186.4</ele>
        <time>2026-08-09T07:04:50Z</time>
      </trkpt>
      <trkpt lat="45.05691" lon="6.14636">
        <ele>1184.6</ele>
        <time>2026-08-09T07:04:52Z</time>
      </trkpt>
      <trkpt lat="45.05698" lon="6.14646">
        <ele>1183.4</ele>
        <time>2026-08-09T07:04:53Z</time>
      </trkpt>
      <trkpt lat="45.05707" lon="6.14656">
        <ele>1182</ele>
        <time>2026-08-09T07:04:54Z</time>
      </trkpt>
      <trkpt lat="45.05716" lon="6.14665">
        <ele>1180.8</ele>
        <time>2026-08-09T07:04:55Z</time>
      </trkpt>
      <trkpt lat="45.05724" lon="6.14677">
        <ele>1179.2</ele>
        <time>2026-08-09T07:04:56Z</time>
      </trkpt>
      <trkpt lat="45.05732" lon="6.1469">
        <ele>1176.2</ele>
        <time>2026-08-09T07:04:57Z</time>
      </trkpt>
      <trkpt lat="45.05741" lon="6.14701">
        <ele>1175.4</ele>
        <time>2026-08-09T07:04:58Z</time>
      </trkpt>
      <trkpt lat="45.0575" lon="6.14711">
        <ele>1174.8</ele>
        <time>2026-08-09T07:04:59Z</time>
      </trkpt>
      <trkpt lat="45.0576" lon="6.14716">
        <ele>1174.4</ele>
        <time>2026-08-09T07:05:00Z</time>
      </trkpt>
      <trkpt lat="45.0577" lon="6.14719">
        <ele>1174</ele>
        <time>2026-08-09T07:05:01Z</time>
      </trkpt>
      <trkpt lat="45.05781" lon="6.14722">
        <ele>1173</ele>
        <time>2026-08-09T07:05:02Z</time>
      </trkpt>
      <trkpt lat="45.05792" lon="6.14728">
        <ele>1171</ele>
        <time>2026-08-09T07:05:03Z</time>
      </trkpt>
      <trkpt lat="45.05802" lon="6.14736">
        <ele>1168.8</ele>
        <time>2026-08-09T07:05:04Z</time>
      </trkpt>
      <trkpt lat="45.05811" lon="6.14748">
        <ele>1167.4</ele>
        <time>2026-08-09T07:05:05Z</time>
      </trkpt>
      <trkpt lat="45.05821" lon="6.14759">
        <ele>1166.8</ele>
        <time>2026-08-09T07:05:06Z</time>
      </trkpt>
      <trkpt lat="45.05831" lon="6.1477">
        <ele>1166.4</ele>
        <time>2026-08-09T07:05:07Z</time>
      </trkpt>
      <trkpt lat="45.05841" lon="6.1478">
        <ele>1166</ele>
        <time>2026-08-09T07:05:08Z</time>
      </trkpt>
      <trkpt lat="45.05861" lon="6.14796">
        <ele>1164.4</ele>
        <time>2026-08-09T07:05:10Z</time>
      </trkpt>
      <trkpt lat="45.05879" lon="6.1481">
        <ele>1162</ele>
        <time>2026-08-09T07:05:12Z</time>
      </trkpt>
      <trkpt lat="45.05892" lon="6.1482">
        <ele>1161</ele>
        <time>2026-08-09T07:05:14Z</time>
      </trkpt>
      <trkpt lat="45.05901" lon="6.14826">
        <ele>1160.6</ele>
        <time>2026-08-09T07:05:16Z</time>
      </trkpt>
      <trkpt lat="45.05904" lon="6.14829">
        <ele>1160.6</ele>
        <time>2026-08-09T07:05:17Z</time>
      </trkpt>
      <trkpt lat="45.05906" lon="6.1483">
        <ele>1160.6</ele>
        <time>2026-08-09T07:05:18Z</time>
      </trkpt>
      <trkpt lat="45.0591" lon="6.14834">
        <ele>1160.6</ele>
        <time>2026-08-09T07:05:20Z</time>
      </trkpt>
      <trkpt lat="45.05913" lon="6.14837">
        <ele>1160.6</ele>
        <time>2026-08-09T07:05:22Z</time>
      </trkpt>
      <trkpt lat="45.05916" lon="6.1484">
        <ele>1163.2</ele>
        <time>2026-08-09T07:05:24Z</time>
      </trkpt>
      <trkpt lat="45.05918" lon="6.14842">
        <ele>1164.8</ele>
        <time>2026-08-09T07:05:25Z</time>
      </trkpt>
      <trkpt lat="45.05919" lon="6.14843">
        <ele>1167.2</ele>
        <time>2026-08-09T07:05:26Z</time>
      </trkpt>
      <trkpt lat="45.05922" lon="6.14846">
        <ele>1168.8</ele>
        <time>2026-08-09T07:05:28Z</time>
      </trkpt>
      <trkpt lat="45.05924" lon="6.14847">
        <ele>1169.2</ele>
        <time>2026-08-09T07:05:29Z</time>
      </trkpt>
      <trkpt lat="45.05925" lon="6.14848">
        <ele>1169.6</ele>
        <time>2026-08-09T07:05:30Z</time>
      </trkpt>
      <trkpt lat="45.05926" lon="6.14849">
        <ele>1170</ele>
        <time>2026-08-09T07:05:31Z</time>
      </trkpt>
      <trkpt lat="45.05927" lon="6.14851">
        <ele>1170.4</ele>
        <time>2026-08-09T07:05:32Z</time>
      </trkpt>
      <trkpt lat="45.0593" lon="6.14853">
        <ele>1171</ele>
        <time>2026-08-09T07:05:34Z</time>
      </trkpt>
      <trkpt lat="45.05931" lon="6.14855">
        <ele>1171.4</ele>
        <time>2026-08-09T07:05:35Z</time>
      </trkpt>
      <trkpt lat="45.05932" lon="6.14856">
        <ele>1171.8</ele>
        <time>2026-08-09T07:05:36Z</time>
      </trkpt>
      <trkpt lat="45.05935" lon="6.14859">
        <ele>1172.2</ele>
        <time>2026-08-09T07:05:38Z</time>
      </trkpt>
      <trkpt lat="45.05936" lon="6.1486">
        <ele>1172.6</ele>
        <time>2026-08-09T07:05:39Z</time>
      </trkpt>
      <trkpt lat="45.05937" lon="6.14861">
        <ele>1172.8</ele>
        <time>2026-08-09T07:05:40Z</time>
      </trkpt>
      <trkpt lat="45.05939" lon="6.14862">
        <ele>1173.2</ele>
        <time>2026-08-09T07:05:41Z</time>
      </trkpt>
      <trkpt lat="45.0594" lon="6.14863">
        <ele>1173.4</ele>
        <time>2026-08-09T07:05:42Z</time>
      </trkpt>
      <trkpt lat="45.05942" lon="6.14866">
        <ele>1173.8</ele>
        <time>2026-08-09T07:05:44Z</time>
      </trkpt>
      <trkpt lat="45.05944" lon="6.14869">
        <ele>1174.2</ele>
        <time>2026-08-09T07:05:46Z</time>
      </trkpt>
      <trkpt lat="45.05946" lon="6.14872">
        <ele>1174.6</ele>
        <time>2026-08-09T07:05:48Z</time>
      </trkpt>
      <trkpt lat="45.05949" lon="6.14875">
        <ele>1175.2</ele>
        <time>2026-08-09T07:05:50Z</time>
      </trkpt>
      <trkpt lat="45.05951" lon="6.14879">
        <ele>1175.6</ele>
        <time>2026-08-09T07:05:52Z</time>
      </trkpt>
      <trkpt lat="45.05952" lon="6.14881">
        <ele>1176.2</ele>
        <time>2026-08-09T07:05:54Z</time>
      </trkpt>
      <trkpt lat="45.05954" lon="6.14884">
        <ele>1176.6</ele>
        <time>2026-08-09T07:05:56Z</time>
      </trkpt>
      <trkpt lat="45.05955" lon="6.14887">
        <ele>1177.2</ele>
        <time>2026-08-09T07:05:58Z</time>
      </trkpt>
      <trkpt lat="45.05957" lon="6.1489">
        <ele>1177.8</ele>
        <time>2026-08-09T07:06:00Z</time>
      </trkpt>
      <trkpt lat="45.05959" lon="6.14893">
        <ele>1178.2</ele>
        <time>2026-08-09T07:06:02Z</time>
      </trkpt>
      <trkpt lat="45.0596" lon="6.14896">
        <ele>1178.6</ele>
        <time>2026-08-09T07:06:04Z</time>
      </trkpt>
      <trkpt lat="45.05962" lon="6.149">
        <ele>1179</ele>
        <time>2026-08-09T07:06:06Z</time>
      </trkpt>
      <trkpt lat="45.05964" lon="6.14903">
        <ele>1179.4</ele>
        <time>2026-08-09T07:06:08Z</time>
      </trkpt>
      <trkpt lat="45.05965" lon="6.14905">
        <ele>1179.6</ele>
        <time>2026-08-09T07:06:09Z</time>
      </trkpt>
      <trkpt lat="45.05966" lon="6.14906">
        <ele>1180</ele>
        <time>2026-08-09T07:06:10Z</time>
      </trkpt>
      <trkpt lat="45.05968" lon="6.14909">
        <ele>1180.2</ele>
        <time>2026-08-09T07:06:12Z</time>
      </trkpt>
      <trkpt lat="45.0597" lon="6.14912">
        <ele>1180.6</ele>
        <time>2026-08-09T07:06:14Z</time>
      </trkpt>
      <trkpt lat="45.05971" lon="6.14914">
        <ele>1180.6</ele>
        <time>2026-08-09T07:06:15Z</time>
      </trkpt>
      <trkpt lat="45.05972" lon="6.14915">
        <ele>1181</ele>
        <time>2026-08-09T07:06:16Z</time>
      </trkpt>
      <trkpt lat="45.05974" lon="6.14918">
        <ele>1181.4</ele>
        <time>2026-08-09T07:06:18Z</time>
      </trkpt>
      <trkpt lat="45.05975" lon="6.14921">
        <ele>1181.8</ele>
        <time>2026-08-09T07:06:20Z</time>
      </trkpt>
      <trkpt lat="45.05976" lon="6.14925">
        <ele>1182</ele>
        <time>2026-08-09T07:06:22Z</time>
      </trkpt>
      <trkpt lat="45.05978" lon="6.14928">
        <ele>1182.6</ele>
        <time>2026-08-09T07:06:24Z</time>
      </trkpt>
      <trkpt lat="45.05979" lon="6.14929">
        <ele>1182.8</ele>
        <time>2026-08-09T07:06:25Z</time>
      </trkpt>
      <trkpt lat="45.05979" lon="6.14931">
        <ele>1183</ele>
        <time>2026-08-09T07:06:26Z</time>
      </trkpt>
      <trkpt lat="45.0598" lon="6.14934">
        <ele>1183.4</ele>
        <time>2026-08-09T07:06:28Z</time>
      </trkpt>
      <trkpt lat="45.0598" lon="6.14936">
        <ele>1183.6</ele>
        <time>2026-08-09T07:06:29Z</time>
      </trkpt>
      <trkpt lat="45.05981" lon="6.14938">
        <ele>1183.8</ele>
        <time>2026-08-09T07:06:30Z</time>
      </trkpt>
      <trkpt lat="45.05982" lon="6.14941">
        <ele>1184.2</ele>
        <time>2026-08-09T07:06:32Z</time>
      </trkpt>
      <trkpt lat="45.05984" lon="6.14944">
        <ele>1184.4</ele>
        <time>2026-08-09T07:06:34Z</time>
      </trkpt>
      <trkpt lat="45.05985" lon="6.14948">
        <ele>1184.6</ele>
        <time>2026-08-09T07:06:36Z</time>
      </trkpt>
      <trkpt lat="45.05986" lon="6.1495">
        <ele>1184.8</ele>
        <time>2026-08-09T07:06:37Z</time>
      </trkpt>
      <trkpt lat="45.05987" lon="6.14952">
        <ele>1185.2</ele>
        <time>2026-08-09T07:06:38Z</time>
      </trkpt>
      <trkpt lat="45.05989" lon="6.14954">
        <ele>1185.6</ele>
        <time>2026-08-09T07:06:40Z</time>
      </trkpt>
      <trkpt lat="45.05993" lon="6.14954">
        <ele>1186</ele>
        <time>2026-08-09T07:06:42Z</time>
      </trkpt>
      <trkpt lat="45.05994" lon="6.14954">
        <ele>1186.2</ele>
        <time>2026-08-09T07:06:43Z</time>
      </trkpt>
      <trkpt lat="45.05995" lon="6.14953">
        <ele>1186.4</ele>
        <time>2026-08-09T07:06:44Z</time>
      </trkpt>
      <trkpt lat="45.05998" lon="6.14951">
        <ele>1186.6</ele>
        <time>2026-08-09T07:06:46Z</time>
      </trkpt>
      <trkpt lat="45.06" lon="6.14949">
        <ele>1187</ele>
        <time>2026-08-09T07:06:48Z</time>
      </trkpt>
      <trkpt lat="45.06001" lon="6.14944">
        <ele>1187.2</ele>
        <time>2026-08-09T07:06:50Z</time>
      </trkpt>
      <trkpt lat="45.06001" lon="6.14939">
        <ele>1187.8</ele>
        <time>2026-08-09T07:06:52Z</time>
      </trkpt>
      <trkpt lat="45.05999" lon="6.14934">
        <ele>1188.2</ele>
        <time>2026-08-09T07:06:54Z</time>
      </trkpt>
      <trkpt lat="45.05998" lon="6.14931">
        <ele>1188.4</ele>
        <time>2026-08-09T07:06:55Z</time>
      </trkpt>
      <trkpt lat="45.05997" lon="6.14929">
        <ele>1188.4</ele>
        <time>2026-08-09T07:06:56Z</time>
      </trkpt>
      <trkpt lat="45.05995" lon="6.14924">
        <ele>1188.8</ele>
        <time>2026-08-09T07:06:58Z</time>
      </trkpt>
      <trkpt lat="45.05994" lon="6.14919">
        <ele>1189</ele>
        <time>2026-08-09T07:07:00Z</time>
      </trkpt>
      <trkpt lat="45.05993" lon="6.14916">
        <ele>1189.2</ele>
        <time>2026-08-09T07:07:01Z</time>
      </trkpt>
      <trkpt lat="45.05992" lon="6.14913">
        <ele>1189.4</ele>
        <time>2026-08-09T07:07:02Z</time>
      </trkpt>
      <trkpt lat="45.0599" lon="6.14907">
        <ele>1189.6</ele>
        <time>2026-08-09T07:07:04Z</time>
      </trkpt>
      <trkpt lat="45.05989" lon="6.14902">
        <ele>1189.8</ele>
        <time>2026-08-09T07:07:06Z</time>
      </trkpt>
      <trkpt lat="45.05987" lon="6.14897">
        <ele>1190.2</ele>
        <time>2026-08-09T07:07:08Z</time>
      </trkpt>
      <trkpt lat="45.05986" lon="6.14895">
        <ele>1190.4</ele>
        <time>2026-08-09T07:07:09Z</time>
      </trkpt>
      <trkpt lat="45.05984" lon="6.14892">
        <ele>1190.4</ele>
        <time>2026-08-09T07:07:10Z</time>
      </trkpt>
      <trkpt lat="45.05982" lon="6.14888">
        <ele>1190.8</ele>
        <time>2026-08-09T07:07:12Z</time>
      </trkpt>
      <trkpt lat="45.0598" lon="6.14884">
        <ele>1191.2</ele>
        <time>2026-08-09T07:07:14Z</time>
      </trkpt>
      <trkpt lat="45.05978" lon="6.14879">
        <ele>1191.4</ele>
        <time>2026-08-09T07:07:16Z</time>
      </trkpt>
      <trkpt lat="45.05976" lon="6.14874">
        <ele>1191.6</ele>
        <time>2026-08-09T07:07:18Z</time>
      </trkpt>
      <trkpt lat="45.05975" lon="6.1487">
        <ele>1192</ele>
        <time>2026-08-09T07:07:20Z</time>
      </trkpt>
      <trkpt lat="45.05974" lon="6.14868">
        <ele>1192.4</ele>
        <time>2026-08-09T07:07:21Z</time>
      </trkpt>
      <trkpt lat="45.05973" lon="6.14865">
        <ele>1192.6</ele>
        <time>2026-08-09T07:07:22Z</time>
      </trkpt>
      <trkpt lat="45.05971" lon="6.1486">
        <ele>1193.2</ele>
        <time>2026-08-09T07:07:24Z</time>
      </trkpt>
      <trkpt lat="45.0597" lon="6.14856">
        <ele>1193.6</ele>
        <time>2026-08-09T07:07:26Z</time>
      </trkpt>
      <trkpt lat="45.05968" lon="6.14851">
        <ele>1194</ele>
        <time>2026-08-09T07:07:28Z</time>
      </trkpt>
      <trkpt lat="45.05967" lon="6.14847">
        <ele>1194.4</ele>
        <time>2026-08-09T07:07:30Z</time>
      </trkpt>
      <trkpt lat="45.05967" lon="6.14845">
        <ele>1194.8</ele>
        <time>2026-08-09T07:07:31Z</time>
      </trkpt>
      <trkpt lat="45.05966" lon="6.14843">
        <ele>1195</ele>
        <time>2026-08-09T07:07:32Z</time>
      </trkpt>
      <trkpt lat="45.05965" lon="6.14838">
        <ele>1195.2</ele>
        <time>2026-08-09T07:07:34Z</time>
      </trkpt>
      <trkpt lat="45.05964" lon="6.14833">
        <ele>1195.6</ele>
        <time>2026-08-09T07:07:36Z</time>
      </trkpt>
      <trkpt lat="45.05964" lon="6.1483">
        <ele>1195.8</ele>
        <time>2026-08-09T07:07:37Z</time>
      </trkpt>
      <trkpt lat="45.05963" lon="6.14828">
        <ele>1196</ele>
        <time>2026-08-09T07:07:38Z</time>
      </trkpt>
      <trkpt lat="45.05962" lon="6.14825">
        <ele>1196</ele>
        <time>2026-08-09T07:07:39Z</time>
      </trkpt>
      <trkpt lat="45.05962" lon="6.14823">
        <ele>1196.2</ele>
        <time>2026-08-09T07:07:40Z</time>
      </trkpt>
      <trkpt lat="45.0596" lon="6.14818">
        <ele>1196.6</ele>
        <time>2026-08-09T07:07:42Z</time>
      </trkpt>
      <trkpt lat="45.0596" lon="6.14815">
        <ele>1196.8</ele>
        <time>2026-08-09T07:07:43Z</time>
      </trkpt>
      <trkpt lat="45.05959" lon="6.14813">
        <ele>1197</ele>
        <time>2026-08-09T07:07:44Z</time>
      </trkpt>
      <trkpt lat="45.05958" lon="6.14808">
        <ele>1197.4</ele>
        <time>2026-08-09T07:07:46Z</time>
      </trkpt>
      <trkpt lat="45.05957" lon="6.14803">
        <ele>1197.6</ele>
        <time>2026-08-09T07:07:48Z</time>
      </trkpt>
      <trkpt lat="45.05957" lon="6.14801">
        <ele>1198</ele>
        <time>2026-08-09T07:07:49Z</time>
      </trkpt>
      <trkpt lat="45.05956" lon="6.14799">
        <ele>1198.4</ele>
        <time>2026-08-09T07:07:50Z</time>
      </trkpt>
      <trkpt lat="45.05956" lon="6.14794">
        <ele>1198.8</ele>
        <time>2026-08-09T07:07:52Z</time>
      </trkpt>
      <trkpt lat="45.05955" lon="6.14789">
        <ele>1199.2</ele>
        <time>2026-08-09T07:07:54Z</time>
      </trkpt>
      <trkpt lat="45.05955" lon="6.14785">
        <ele>1199.4</ele>
        <time>2026-08-09T07:07:56Z</time>
      </trkpt>
      <trkpt lat="45.05954" lon="6.1478">
        <ele>1199.8</ele>
        <time>2026-08-09T07:07:58Z</time>
      </trkpt>
      <trkpt lat="45.05953" lon="6.14775">
        <ele>1200</ele>
        <time>2026-08-09T07:08:00Z</time>
      </trkpt>
      <trkpt lat="45.05952" lon="6.14773">
        <ele>1200</ele>
        <time>2026-08-09T07:08:01Z</time>
      </trkpt>
      <trkpt lat="45.05952" lon="6.14771">
        <ele>1200.2</ele>
        <time>2026-08-09T07:08:02Z</time>
      </trkpt>
      <trkpt lat="45.0595" lon="6.14766">
        <ele>1200.8</ele>
        <time>2026-08-09T07:08:04Z</time>
      </trkpt>
      <trkpt lat="45.05949" lon="6.1476">
        <ele>1201.2</ele>
        <time>2026-08-09T07:08:06Z</time>
      </trkpt>
      <trkpt lat="45.05947" lon="6.14755">
        <ele>1201.6</ele>
        <time>2026-08-09T07:08:08Z</time>
      </trkpt>
      <trkpt lat="45.05946" lon="6.1475">
        <ele>1201.8</ele>
        <time>2026-08-09T07:08:10Z</time>
      </trkpt>
      <trkpt lat="45.05945" lon="6.14746">
        <ele>1202.2</ele>
        <time>2026-08-09T07:08:12Z</time>
      </trkpt>
      <trkpt lat="45.05943" lon="6.14741">
        <ele>1202.6</ele>
        <time>2026-08-09T07:08:14Z</time>
      </trkpt>
      <trkpt lat="45.05942" lon="6.14737">
        <ele>1202.8</ele>
        <time>2026-08-09T07:08:16Z</time>
      </trkpt>
      <trkpt lat="45.05941" lon="6.14734">
        <ele>1203.4</ele>
        <time>2026-08-09T07:08:17Z</time>
      </trkpt>
      <trkpt lat="45.0594" lon="6.14732">
        <ele>1203.4</ele>
        <time>2026-08-09T07:08:18Z</time>
      </trkpt>
      <trkpt lat="45.05938" lon="6.14728">
        <ele>1203.8</ele>
        <time>2026-08-09T07:08:20Z</time>
      </trkpt>
      <trkpt lat="45.05936" lon="6.14723">
        <ele>1204.2</ele>
        <time>2026-08-09T07:08:22Z</time>
      </trkpt>
      <trkpt lat="45.05934" lon="6.14719">
        <ele>1204.4</ele>
        <time>2026-08-09T07:08:24Z</time>
      </trkpt>
      <trkpt lat="45.05933" lon="6.14714">
        <ele>1204.8</ele>
        <time>2026-08-09T07:08:26Z</time>
      </trkpt>
      <trkpt lat="45.05931" lon="6.1471">
        <ele>1205.2</ele>
        <time>2026-08-09T07:08:28Z</time>
      </trkpt>
      <trkpt lat="45.0593" lon="6.14705">
        <ele>1205.4</ele>
        <time>2026-08-09T07:08:30Z</time>
      </trkpt>
      <trkpt lat="45.05929" lon="6.14701">
        <ele>1205.6</ele>
        <time>2026-08-09T07:08:32Z</time>
      </trkpt>
      <trkpt lat="45.05928" lon="6.14699">
        <ele>1206</ele>
        <time>2026-08-09T07:08:33Z</time>
      </trkpt>
      <trkpt lat="45.05927" lon="6.14697">
        <ele>1206.2</ele>
        <time>2026-08-09T07:08:34Z</time>
      </trkpt>
      <trkpt lat="45.05925" lon="6.14693">
        <ele>1206.4</ele>
        <time>2026-08-09T07:08:36Z</time>
      </trkpt>
      <trkpt lat="45.05924" lon="6.14689">
        <ele>1206.8</ele>
        <time>2026-08-09T07:08:38Z</time>
      </trkpt>
      <trkpt lat="45.05922" lon="6.14685">
        <ele>1207.2</ele>
        <time>2026-08-09T07:08:40Z</time>
      </trkpt>
      <trkpt lat="45.0592" lon="6.14681">
        <ele>1207.4</ele>
        <time>2026-08-09T07:08:42Z</time>
      </trkpt>
      <trkpt lat="45.05918" lon="6.14678">
        <ele>1207.8</ele>
        <time>2026-08-09T07:08:44Z</time>
      </trkpt>
      <trkpt lat="45.05916" lon="6.14675">
        <ele>1208.2</ele>
        <time>2026-08-09T07:08:46Z</time>
      </trkpt>
      <trkpt lat="45.05915" lon="6.14673">
        <ele>1208.6</ele>
        <time>2026-08-09T07:08:47Z</time>
      </trkpt>
      <trkpt lat="45.05914" lon="6.14671">
        <ele>1208.6</ele>
        <time>2026-08-09T07:08:48Z</time>
      </trkpt>
      <trkpt lat="45.05912" lon="6.14667">
        <ele>1209</ele>
        <time>2026-08-09T07:08:50Z</time>
      </trkpt>
      <trkpt lat="45.05911" lon="6.14663">
        <ele>1209.2</ele>
        <time>2026-08-09T07:08:52Z</time>
      </trkpt>
      <trkpt lat="45.05909" lon="6.14659">
        <ele>1209.4</ele>
        <time>2026-08-09T07:08:54Z</time>
      </trkpt>
      <trkpt lat="45.0591" lon="6.14656">
        <ele>1209.6</ele>
        <time>2026-08-09T07:08:55Z</time>
      </trkpt>
      <trkpt lat="45.0591" lon="6.14654">
        <ele>1209.8</ele>
        <time>2026-08-09T07:08:56Z</time>
      </trkpt>
      <trkpt lat="45.05911" lon="6.14653">
        <ele>1210</ele>
        <time>2026-08-09T07:08:57Z</time>
      </trkpt>
      <trkpt lat="45.05912" lon="6.14652">
        <ele>1210.2</ele>
        <time>2026-08-09T07:08:58Z</time>
      </trkpt>
      <trkpt lat="45.05914" lon="6.14652">
        <ele>1210.6</ele>
        <time>2026-08-09T07:09:00Z</time>
      </trkpt>
      <trkpt lat="45.05917" lon="6.14655">
        <ele>1211</ele>
        <time>2026-08-09T07:09:02Z</time>
      </trkpt>
      <trkpt lat="45.05919" lon="6.14659">
        <ele>1211.6</ele>
        <time>2026-08-09T07:09:04Z</time>
      </trkpt>
      <trkpt lat="45.0592" lon="6.14661">
        <ele>1211.8</ele>
        <time>2026-08-09T07:09:05Z</time>
      </trkpt>
      <trkpt lat="45.05922" lon="6.14663">
        <ele>1212</ele>
        <time>2026-08-09T07:09:06Z</time>
      </trkpt>
      <trkpt lat="45.05924" lon="6.14667">
        <ele>1212.2</ele>
        <time>2026-08-09T07:09:08Z</time>
      </trkpt>
      <trkpt lat="45.05926" lon="6.14672">
        <ele>1212.4</ele>
        <time>2026-08-09T07:09:10Z</time>
      </trkpt>
      <trkpt lat="45.05928" lon="6.14676">
        <ele>1212.6</ele>
        <time>2026-08-09T07:09:12Z</time>
      </trkpt>
      <trkpt lat="45.0593" lon="6.14678">
        <ele>1212.8</ele>
        <time>2026-08-09T07:09:13Z</time>
      </trkpt>
      <trkpt lat="45.05931" lon="6.1468">
        <ele>1213</ele>
        <time>2026-08-09T07:09:14Z</time>
      </trkpt>
      <trkpt lat="45.05933" lon="6.14683">
        <ele>1213.2</ele>
        <time>2026-08-09T07:09:16Z</time>
      </trkpt>
      <trkpt lat="45.05935" lon="6.14687">
        <ele>1213.4</ele>
        <time>2026-08-09T07:09:18Z</time>
      </trkpt>
      <trkpt lat="45.05937" lon="6.14689">
        <ele>1213.8</ele>
        <time>2026-08-09T07:09:20Z</time>
      </trkpt>
      <trkpt lat="45.0594" lon="6.14692">
        <ele>1213.8</ele>
        <time>2026-08-09T07:09:22Z</time>
      </trkpt>
      <trkpt lat="45.05943" lon="6.14696">
        <ele>1214</ele>
        <time>2026-08-09T07:09:24Z</time>
      </trkpt>
      <trkpt lat="45.05945" lon="6.14699">
        <ele>1214.4</ele>
        <time>2026-08-09T07:09:26Z</time>
      </trkpt>
      <trkpt lat="45.05947" lon="6.147">
        <ele>1214.6</ele>
        <time>2026-08-09T07:09:27Z</time>
      </trkpt>
      <trkpt lat="45.05949" lon="6.14702">
        <ele>1214.8</ele>
        <time>2026-08-09T07:09:28Z</time>
      </trkpt>
      <trkpt lat="45.05951" lon="6.14705">
        <ele>1215</ele>
        <time>2026-08-09T07:09:30Z</time>
      </trkpt>
      <trkpt lat="45.05954" lon="6.14707">
        <ele>1215.2</ele>
        <time>2026-08-09T07:09:32Z</time>
      </trkpt>
      <trkpt lat="45.05955" lon="6.14709">
        <ele>1215.4</ele>
        <time>2026-08-09T07:09:33Z</time>
      </trkpt>
      <trkpt lat="45.05956" lon="6.1471">
        <ele>1215.4</ele>
        <time>2026-08-09T07:09:34Z</time>
      </trkpt>
      <trkpt lat="45.05959" lon="6.14712">
        <ele>1215.8</ele>
        <time>2026-08-09T07:09:36Z</time>
      </trkpt>
      <trkpt lat="45.05962" lon="6.14715">
        <ele>1216</ele>
        <time>2026-08-09T07:09:38Z</time>
      </trkpt>
      <trkpt lat="45.05966" lon="6.14716">
        <ele>1216.4</ele>
        <time>2026-08-09T07:09:40Z</time>
      </trkpt>
      <trkpt lat="45.05969" lon="6.14718">
        <ele>1216.8</ele>
        <time>2026-08-09T07:09:42Z</time>
      </trkpt>
      <trkpt lat="45.05972" lon="6.1472">
        <ele>1217.4</ele>
        <time>2026-08-09T07:09:44Z</time>
      </trkpt>
      <trkpt lat="45.05975" lon="6.14722">
        <ele>1217.8</ele>
        <time>2026-08-09T07:09:46Z</time>
      </trkpt>
      <trkpt lat="45.05977" lon="6.14723">
        <ele>1218</ele>
        <time>2026-08-09T07:09:47Z</time>
      </trkpt>
      <trkpt lat="45.05978" lon="6.14724">
        <ele>1218.2</ele>
        <time>2026-08-09T07:09:48Z</time>
      </trkpt>
      <trkpt lat="45.05979" lon="6.14725">
        <ele>1218.4</ele>
        <time>2026-08-09T07:09:49Z</time>
      </trkpt>
      <trkpt lat="45.05981" lon="6.14726">
        <ele>1218.6</ele>
        <time>2026-08-09T07:09:50Z</time>
      </trkpt>
      <trkpt lat="45.05984" lon="6.14728">
        <ele>1219</ele>
        <time>2026-08-09T07:09:52Z</time>
      </trkpt>
      <trkpt lat="45.05988" lon="6.14731">
        <ele>1219.4</ele>
        <time>2026-08-09T07:09:54Z</time>
      </trkpt>
      <trkpt lat="45.05991" lon="6.14733">
        <ele>1219.6</ele>
        <time>2026-08-09T07:09:56Z</time>
      </trkpt>
      <trkpt lat="45.05993" lon="6.14734">
        <ele>1220</ele>
        <time>2026-08-09T07:09:58Z</time>
      </trkpt>
      <trkpt lat="45.05996" lon="6.14736">
        <ele>1220.2</ele>
        <time>2026-08-09T07:09:59Z</time>
      </trkpt>
      <trkpt lat="45.05997" lon="6.14737">
        <ele>1220.4</ele>
        <time>2026-08-09T07:10:00Z</time>
      </trkpt>
      <trkpt lat="45.06001" lon="6.14739">
        <ele>1221</ele>
        <time>2026-08-09T07:10:02Z</time>
      </trkpt>
      <trkpt lat="45.06002" lon="6.14739">
        <ele>1221.2</ele>
        <time>2026-08-09T07:10:03Z</time>
      </trkpt>
      <trkpt lat="45.06004" lon="6.1474">
        <ele>1221.2</ele>
        <time>2026-08-09T07:10:04Z</time>
      </trkpt>
      <trkpt lat="45.06007" lon="6.14742">
        <ele>1221.4</ele>
        <time>2026-08-09T07:10:06Z</time>
      </trkpt>
      <trkpt lat="45.06009" lon="6.14745">
        <ele>1221.8</ele>
        <time>2026-08-09T07:10:08Z</time>
      </trkpt>
      <trkpt lat="45.06012" lon="6.14747">
        <ele>1221.8</ele>
        <time>2026-08-09T07:10:10Z</time>
      </trkpt>
      <trkpt lat="45.06014" lon="6.14748">
        <ele>1222</ele>
        <time>2026-08-09T07:10:11Z</time>
      </trkpt>
      <trkpt lat="45.06015" lon="6.14749">
        <ele>1222.6</ele>
        <time>2026-08-09T07:10:12Z</time>
      </trkpt>
      <trkpt lat="45.06017" lon="6.14751">
        <ele>1223</ele>
        <time>2026-08-09T07:10:14Z</time>
      </trkpt>
      <trkpt lat="45.06019" lon="6.14754">
        <ele>1223.4</ele>
        <time>2026-08-09T07:10:16Z</time>
      </trkpt>
      <trkpt lat="45.0602" lon="6.14755">
        <ele>1223.4</ele>
        <time>2026-08-09T07:10:17Z</time>
      </trkpt>
      <trkpt lat="45.06022" lon="6.14757">
        <ele>1223.6</ele>
        <time>2026-08-09T07:10:18Z</time>
      </trkpt>
      <trkpt lat="45.06025" lon="6.14759">
        <ele>1224</ele>
        <time>2026-08-09T07:10:20Z</time>
      </trkpt>
      <trkpt lat="45.06027" lon="6.14761">
        <ele>1224.4</ele>
        <time>2026-08-09T07:10:22Z</time>
      </trkpt>
      <trkpt lat="45.06029" lon="6.14762">
        <ele>1224.6</ele>
        <time>2026-08-09T07:10:23Z</time>
      </trkpt>
      <trkpt lat="45.06031" lon="6.14764">
        <ele>1224.8</ele>
        <time>2026-08-09T07:10:24Z</time>
      </trkpt>
      <trkpt lat="45.06034" lon="6.14768">
        <ele>1225</ele>
        <time>2026-08-09T07:10:26Z</time>
      </trkpt>
      <trkpt lat="45.06035" lon="6.14769">
        <ele>1225.2</ele>
        <time>2026-08-09T07:10:27Z</time>
      </trkpt>
      <trkpt lat="45.06037" lon="6.1477">
        <ele>1225.2</ele>
        <time>2026-08-09T07:10:28Z</time>
      </trkpt>
      <trkpt lat="45.06039" lon="6.14773">
        <ele>1225.6</ele>
        <time>2026-08-09T07:10:30Z</time>
      </trkpt>
      <trkpt lat="45.0604" lon="6.14775">
        <ele>1225.8</ele>
        <time>2026-08-09T07:10:31Z</time>
      </trkpt>
      <trkpt lat="45.06041" lon="6.14776">
        <ele>1226</ele>
        <time>2026-08-09T07:10:32Z</time>
      </trkpt>
      <trkpt lat="45.06044" lon="6.14779">
        <ele>1226.2</ele>
        <time>2026-08-09T07:10:34Z</time>
      </trkpt>
      <trkpt lat="45.06047" lon="6.14782">
        <ele>1226.6</ele>
        <time>2026-08-09T07:10:36Z</time>
      </trkpt>
      <trkpt lat="45.06049" lon="6.14786">
        <ele>1227.2</ele>
        <time>2026-08-09T07:10:38Z</time>
      </trkpt>
      <trkpt lat="45.06052" lon="6.14789">
        <ele>1227.8</ele>
        <time>2026-08-09T07:10:40Z</time>
      </trkpt>
      <trkpt lat="45.06053" lon="6.14791">
        <ele>1228</ele>
        <time>2026-08-09T07:10:41Z</time>
      </trkpt>
      <trkpt lat="45.06055" lon="6.14792">
        <ele>1228.2</ele>
        <time>2026-08-09T07:10:42Z</time>
      </trkpt>
      <trkpt lat="45.06057" lon="6.14794">
        <ele>1228.8</ele>
        <time>2026-08-09T07:10:44Z</time>
      </trkpt>
      <trkpt lat="45.0606" lon="6.14796">
        <ele>1229</ele>
        <time>2026-08-09T07:10:46Z</time>
      </trkpt>
      <trkpt lat="45.06064" lon="6.14798">
        <ele>1229.4</ele>
        <time>2026-08-09T07:10:48Z</time>
      </trkpt>
      <trkpt lat="45.06066" lon="6.148">
        <ele>1229.6</ele>
        <time>2026-08-09T07:10:49Z</time>
      </trkpt>
      <trkpt lat="45.06068" lon="6.14802">
        <ele>1229.8</ele>
        <time>2026-08-09T07:10:50Z</time>
      </trkpt>
      <trkpt lat="45.06071" lon="6.14804">
        <ele>1230.2</ele>
        <time>2026-08-09T07:10:52Z</time>
      </trkpt>
      <trkpt lat="45.06074" lon="6.14806">
        <ele>1230.6</ele>
        <time>2026-08-09T07:10:54Z</time>
      </trkpt>
      <trkpt lat="45.06077" lon="6.14808">
        <ele>1231</ele>
        <time>2026-08-09T07:10:56Z</time>
      </trkpt>
      <trkpt lat="45.06079" lon="6.14809">
        <ele>1231.2</ele>
        <time>2026-08-09T07:10:57Z</time>
      </trkpt>
      <trkpt lat="45.0608" lon="6.14811">
        <ele>1231.2</ele>
        <time>2026-08-09T07:10:58Z</time>
      </trkpt>
      <trkpt lat="45.06083" lon="6.14813">
        <ele>1231.8</ele>
        <time>2026-08-09T07:11:00Z</time>
      </trkpt>
      <trkpt lat="45.06086" lon="6.14815">
        <ele>1232</ele>
        <time>2026-08-09T07:11:02Z</time>
      </trkpt>
      <trkpt lat="45.06087" lon="6.14816">
        <ele>1232.2</ele>
        <time>2026-08-09T07:11:03Z</time>
      </trkpt>
      <trkpt lat="45.06089" lon="6.14817">
        <ele>1232.4</ele>
        <time>2026-08-09T07:11:04Z</time>
      </trkpt>
      <trkpt lat="45.06092" lon="6.14819">
        <ele>1232.8</ele>
        <time>2026-08-09T07:11:06Z</time>
      </trkpt>
      <trkpt lat="45.06096" lon="6.14821">
        <ele>1233.2</ele>
        <time>2026-08-09T07:11:08Z</time>
      </trkpt>
      <trkpt lat="45.06097" lon="6.14822">
        <ele>1233.4</ele>
        <time>2026-08-09T07:11:09Z</time>
      </trkpt>
      <trkpt lat="45.06099" lon="6.14823">
        <ele>1233.8</ele>
        <time>2026-08-09T07:11:10Z</time>
      </trkpt>
      <trkpt lat="45.06102" lon="6.14825">
        <ele>1234.2</ele>
        <time>2026-08-09T07:11:12Z</time>
      </trkpt>
      <trkpt lat="45.06103" lon="6.14826">
        <ele>1234.2</ele>
        <time>2026-08-09T07:11:13Z</time>
      </trkpt>
      <trkpt lat="45.06104" lon="6.14827">
        <ele>1234.4</ele>
        <time>2026-08-09T07:11:14Z</time>
      </trkpt>
      <trkpt lat="45.06107" lon="6.14829">
        <ele>1234.6</ele>
        <time>2026-08-09T07:11:16Z</time>
      </trkpt>
      <trkpt lat="45.06109" lon="6.1483">
        <ele>1234.6</ele>
        <time>2026-08-09T07:11:17Z</time>
      </trkpt>
      <trkpt lat="45.0611" lon="6.14831">
        <ele>1234.8</ele>
        <time>2026-08-09T07:11:18Z</time>
      </trkpt>
      <trkpt lat="45.06112" lon="6.14833">
        <ele>1235</ele>
        <time>2026-08-09T07:11:20Z</time>
      </trkpt>
      <trkpt lat="45.06113" lon="6.14833">
        <ele>1235.2</ele>
        <time>2026-08-09T07:11:21Z</time>
      </trkpt>
      <trkpt lat="45.06115" lon="6.14834">
        <ele>1235.4</ele>
        <time>2026-08-09T07:11:22Z</time>
      </trkpt>
      <trkpt lat="45.06117" lon="6.14836">
        <ele>1235.8</ele>
        <time>2026-08-09T07:11:24Z</time>
      </trkpt>
      <trkpt lat="45.06119" lon="6.14836">
        <ele>1236.2</ele>
        <time>2026-08-09T07:11:26Z</time>
      </trkpt>
      <trkpt lat="45.06121" lon="6.14838">
        <ele>1236.2</ele>
        <time>2026-08-09T07:11:27Z</time>
      </trkpt>
      <trkpt lat="45.06123" lon="6.14839">
        <ele>1236.4</ele>
        <time>2026-08-09T07:11:28Z</time>
      </trkpt>
      <trkpt lat="45.06124" lon="6.1484">
        <ele>1236.6</ele>
        <time>2026-08-09T07:11:29Z</time>
      </trkpt>
      <trkpt lat="45.06125" lon="6.1484">
        <ele>1236.8</ele>
        <time>2026-08-09T07:11:30Z</time>
      </trkpt>
      <trkpt lat="45.06129" lon="6.14843">
        <ele>1237.2</ele>
        <time>2026-08-09T07:11:32Z</time>
      </trkpt>
      <trkpt lat="45.06131" lon="6.14844">
        <ele>1237.4</ele>
        <time>2026-08-09T07:11:33Z</time>
      </trkpt>
      <trkpt lat="45.06132" lon="6.14845">
        <ele>1237.6</ele>
        <time>2026-08-09T07:11:34Z</time>
      </trkpt>
      <trkpt lat="45.06135" lon="6.14847">
        <ele>1237.8</ele>
        <time>2026-08-09T07:11:36Z</time>
      </trkpt>
      <trkpt lat="45.06138" lon="6.1485">
        <ele>1238.2</ele>
        <time>2026-08-09T07:11:38Z</time>
      </trkpt>
      <trkpt lat="45.06139" lon="6.14851">
        <ele>1238.6</ele>
        <time>2026-08-09T07:11:39Z</time>
      </trkpt>
      <trkpt lat="45.06141" lon="6.14851">
        <ele>1238.8</ele>
        <time>2026-08-09T07:11:40Z</time>
      </trkpt>
      <trkpt lat="45.06145" lon="6.14853">
        <ele>1239</ele>
        <time>2026-08-09T07:11:42Z</time>
      </trkpt>
      <trkpt lat="45.06147" lon="6.14854">
        <ele>1239.2</ele>
        <time>2026-08-09T07:11:43Z</time>
      </trkpt>
      <trkpt lat="45.06149" lon="6.14855">
        <ele>1239.4</ele>
        <time>2026-08-09T07:11:44Z</time>
      </trkpt>
      <trkpt lat="45.06152" lon="6.14857">
        <ele>1239.6</ele>
        <time>2026-08-09T07:11:46Z</time>
      </trkpt>
      <trkpt lat="45.06155" lon="6.14859">
        <ele>1239.8</ele>
        <time>2026-08-09T07:11:48Z</time>
      </trkpt>
      <trkpt lat="45.06158" lon="6.14861">
        <ele>1240.2</ele>
        <time>2026-08-09T07:11:50Z</time>
      </trkpt>
      <trkpt lat="45.0616" lon="6.14862">
        <ele>1240.4</ele>
        <time>2026-08-09T07:11:51Z</time>
      </trkpt>
      <trkpt lat="45.06161" lon="6.14863">
        <ele>1240.4</ele>
        <time>2026-08-09T07:11:52Z</time>
      </trkpt>
      <trkpt lat="45.06165" lon="6.14865">
        <ele>1241</ele>
        <time>2026-08-09T07:11:54Z</time>
      </trkpt>
      <trkpt lat="45.06169" lon="6.14867">
        <ele>1241.4</ele>
        <time>2026-08-09T07:11:56Z</time>
      </trkpt>
      <trkpt lat="45.0617" lon="6.14867">
        <ele>1241.6</ele>
        <time>2026-08-09T07:11:57Z</time>
      </trkpt>
      <trkpt lat="45.06172" lon="6.14868">
        <ele>1241.8</ele>
        <time>2026-08-09T07:11:58Z</time>
      </trkpt>
      <trkpt lat="45.06175" lon="6.1487">
        <ele>1242.2</ele>
        <time>2026-08-09T07:12:00Z</time>
      </trkpt>
      <trkpt lat="45.06178" lon="6.14872">
        <ele>1242.4</ele>
        <time>2026-08-09T07:12:02Z</time>
      </trkpt>
      <trkpt lat="45.0618" lon="6.14873">
        <ele>1242.6</ele>
        <time>2026-08-09T07:12:03Z</time>
      </trkpt>
      <trkpt lat="45.06181" lon="6.14873">
        <ele>1242.8</ele>
        <time>2026-08-09T07:12:04Z</time>
      </trkpt>
      <trkpt lat="45.06186" lon="6.14874">
        <ele>1243.2</ele>
        <time>2026-08-09T07:12:06Z</time>
      </trkpt>
      <trkpt lat="45.06189" lon="6.14876">
        <ele>1243.8</ele>
        <time>2026-08-09T07:12:08Z</time>
      </trkpt>
      <trkpt lat="45.06191" lon="6.14876">
        <ele>1244</ele>
        <time>2026-08-09T07:12:10Z</time>
      </trkpt>
      <trkpt lat="45.06197" lon="6.14878">
        <ele>1244.4</ele>
        <time>2026-08-09T07:12:12Z</time>
      </trkpt>
      <trkpt lat="45.062" lon="6.1488">
        <ele>1244.8</ele>
        <time>2026-08-09T07:12:14Z</time>
      </trkpt>
      <trkpt lat="45.06204" lon="6.14881">
        <ele>1245.2</ele>
        <time>2026-08-09T07:12:16Z</time>
      </trkpt>
      <trkpt lat="45.06206" lon="6.14882">
        <ele>1245.2</ele>
        <time>2026-08-09T07:12:17Z</time>
      </trkpt>
      <trkpt lat="45.06207" lon="6.14882">
        <ele>1245.4</ele>
        <time>2026-08-09T07:12:18Z</time>
      </trkpt>
      <trkpt lat="45.0621" lon="6.14884">
        <ele>1245.8</ele>
        <time>2026-08-09T07:12:20Z</time>
      </trkpt>
      <trkpt lat="45.06213" lon="6.14885">
        <ele>1246.2</ele>
        <time>2026-08-09T07:12:22Z</time>
      </trkpt>
      <trkpt lat="45.06216" lon="6.14886">
        <ele>1246.4</ele>
        <time>2026-08-09T07:12:24Z</time>
      </trkpt>
      <trkpt lat="45.0622" lon="6.14888">
        <ele>1246.8</ele>
        <time>2026-08-09T07:12:26Z</time>
      </trkpt>
      <trkpt lat="45.06223" lon="6.14889">
        <ele>1247.2</ele>
        <time>2026-08-09T07:12:28Z</time>
      </trkpt>
      <trkpt lat="45.06225" lon="6.1489">
        <ele>1247.4</ele>
        <time>2026-08-09T07:12:29Z</time>
      </trkpt>
      <trkpt lat="45.06226" lon="6.14891">
        <ele>1247.4</ele>
        <time>2026-08-09T07:12:30Z</time>
      </trkpt>
      <trkpt lat="45.06229" lon="6.14894">
        <ele>1247.8</ele>
        <time>2026-08-09T07:12:32Z</time>
      </trkpt>
      <trkpt lat="45.06231" lon="6.14895">
        <ele>1248</ele>
        <time>2026-08-09T07:12:33Z</time>
      </trkpt>
      <trkpt lat="45.06233" lon="6.14897">
        <ele>1248.2</ele>
        <time>2026-08-09T07:12:34Z</time>
      </trkpt>
      <trkpt lat="45.06237" lon="6.149">
        <ele>1248.6</ele>
        <time>2026-08-09T07:12:36Z</time>
      </trkpt>
      <trkpt lat="45.0624" lon="6.14903">
        <ele>1249</ele>
        <time>2026-08-09T07:12:38Z</time>
      </trkpt>
      <trkpt lat="45.06243" lon="6.14907">
        <ele>1249.6</ele>
        <time>2026-08-09T07:12:40Z</time>
      </trkpt>
      <trkpt lat="45.06244" lon="6.14908">
        <ele>1249.8</ele>
        <time>2026-08-09T07:12:41Z</time>
      </trkpt>
      <trkpt lat="45.06246" lon="6.1491">
        <ele>1250</ele>
        <time>2026-08-09T07:12:42Z</time>
      </trkpt>
      <trkpt lat="45.06248" lon="6.14912">
        <ele>1250.2</ele>
        <time>2026-08-09T07:12:43Z</time>
      </trkpt>
      <trkpt lat="45.0625" lon="6.14913">
        <ele>1250.4</ele>
        <time>2026-08-09T07:12:44Z</time>
      </trkpt>
      <trkpt lat="45.06253" lon="6.14915">
        <ele>1250.8</ele>
        <time>2026-08-09T07:12:46Z</time>
      </trkpt>
      <trkpt lat="45.06255" lon="6.14917">
        <ele>1251</ele>
        <time>2026-08-09T07:12:47Z</time>
      </trkpt>
      <trkpt lat="45.06257" lon="6.14918">
        <ele>1251.2</ele>
        <time>2026-08-09T07:12:48Z</time>
      </trkpt>
      <trkpt lat="45.0626" lon="6.14921">
        <ele>1251.6</ele>
        <time>2026-08-09T07:12:50Z</time>
      </trkpt>
      <trkpt lat="45.06264" lon="6.14924">
        <ele>1252</ele>
        <time>2026-08-09T07:12:52Z</time>
      </trkpt>
      <trkpt lat="45.06267" lon="6.14926">
        <ele>1252.2</ele>
        <time>2026-08-09T07:12:54Z</time>
      </trkpt>
      <trkpt lat="45.06268" lon="6.14927">
        <ele>1252.4</ele>
        <time>2026-08-09T07:12:55Z</time>
      </trkpt>
      <trkpt lat="45.0627" lon="6.14928">
        <ele>1252.6</ele>
        <time>2026-08-09T07:12:56Z</time>
      </trkpt>
      <trkpt lat="45.06274" lon="6.1493">
        <ele>1253</ele>
        <time>2026-08-09T07:12:58Z</time>
      </trkpt>
      <trkpt lat="45.06278" lon="6.14932">
        <ele>1253.2</ele>
        <time>2026-08-09T07:13:00Z</time>
      </trkpt>
      <trkpt lat="45.0628" lon="6.14932">
        <ele>1253.4</ele>
        <time>2026-08-09T07:13:01Z</time>
      </trkpt>
      <trkpt lat="45.06281" lon="6.14933">
        <ele>1253.6</ele>
        <time>2026-08-09T07:13:02Z</time>
      </trkpt>
      <trkpt lat="45.06285" lon="6.14934">
        <ele>1253.6</ele>
        <time>2026-08-09T07:13:04Z</time>
      </trkpt>
      <trkpt lat="45.06289" lon="6.14936">
        <ele>1254</ele>
        <time>2026-08-09T07:13:06Z</time>
      </trkpt>
      <trkpt lat="45.06292" lon="6.14937">
        <ele>1254.4</ele>
        <time>2026-08-09T07:13:08Z</time>
      </trkpt>
      <trkpt lat="45.06294" lon="6.14938">
        <ele>1254.6</ele>
        <time>2026-08-09T07:13:09Z</time>
      </trkpt>
      <trkpt lat="45.06295" lon="6.14939">
        <ele>1254.6</ele>
        <time>2026-08-09T07:13:10Z</time>
      </trkpt>
      <trkpt lat="45.06298" lon="6.14941">
        <ele>1254.8</ele>
        <time>2026-08-09T07:13:12Z</time>
      </trkpt>
      <trkpt lat="45.06302" lon="6.14943">
        <ele>1255.4</ele>
        <time>2026-08-09T07:13:14Z</time>
      </trkpt>
      <trkpt lat="45.06303" lon="6.14944">
        <ele>1255.6</ele>
        <time>2026-08-09T07:13:15Z</time>
      </trkpt>
      <trkpt lat="45.06305" lon="6.14945">
        <ele>1255.6</ele>
        <time>2026-08-09T07:13:16Z</time>
      </trkpt>
      <trkpt lat="45.06306" lon="6.14946">
        <ele>1255.8</ele>
        <time>2026-08-09T07:13:17Z</time>
      </trkpt>
      <trkpt lat="45.06307" lon="6.14948">
        <ele>1256</ele>
        <time>2026-08-09T07:13:18Z</time>
      </trkpt>
      <trkpt lat="45.0631" lon="6.1495">
        <ele>1256.2</ele>
        <time>2026-08-09T07:13:20Z</time>
      </trkpt>
      <trkpt lat="45.06313" lon="6.14952">
        <ele>1256.6</ele>
        <time>2026-08-09T07:13:22Z</time>
      </trkpt>
      <trkpt lat="45.06315" lon="6.14953">
        <ele>1256.8</ele>
        <time>2026-08-09T07:13:23Z</time>
      </trkpt>
      <trkpt lat="45.06316" lon="6.14954">
        <ele>1257</ele>
        <time>2026-08-09T07:13:24Z</time>
      </trkpt>
      <trkpt lat="45.06319" lon="6.14956">
        <ele>1257.4</ele>
        <time>2026-08-09T07:13:26Z</time>
      </trkpt>
      <trkpt lat="45.06322" lon="6.14959">
        <ele>1257.8</ele>
        <time>2026-08-09T07:13:28Z</time>
      </trkpt>
      <trkpt lat="45.06325" lon="6.14961">
        <ele>1257.8</ele>
        <time>2026-08-09T07:13:30Z</time>
      </trkpt>
      <trkpt lat="45.06327" lon="6.14964">
        <ele>1258.2</ele>
        <time>2026-08-09T07:13:32Z</time>
      </trkpt>
      <trkpt lat="45.0633" lon="6.14967">
        <ele>1258.8</ele>
        <time>2026-08-09T07:13:34Z</time>
      </trkpt>
      <trkpt lat="45.06332" lon="6.14968">
        <ele>1259.2</ele>
        <time>2026-08-09T07:13:35Z</time>
      </trkpt>
      <trkpt lat="45.06334" lon="6.1497">
        <ele>1259.4</ele>
        <time>2026-08-09T07:13:36Z</time>
      </trkpt>
      <trkpt lat="45.06337" lon="6.14973">
        <ele>1259.8</ele>
        <time>2026-08-09T07:13:38Z</time>
      </trkpt>
      <trkpt lat="45.06338" lon="6.14974">
        <ele>1260</ele>
        <time>2026-08-09T07:13:39Z</time>
      </trkpt>
      <trkpt lat="45.0634" lon="6.14976">
        <ele>1260</ele>
        <time>2026-08-09T07:13:40Z</time>
      </trkpt>
      <trkpt lat="45.06343" lon="6.14979">
        <ele>1260.4</ele>
        <time>2026-08-09T07:13:42Z</time>
      </trkpt>
      <trkpt lat="45.06347" lon="6.14981">
        <ele>1260.8</ele>
        <time>2026-08-09T07:13:44Z</time>
      </trkpt>
      <trkpt lat="45.06349" lon="6.14982">
        <ele>1261</ele>
        <time>2026-08-09T07:13:45Z</time>
      </trkpt>
      <trkpt lat="45.0635" lon="6.14983">
        <ele>1261.2</ele>
        <time>2026-08-09T07:13:46Z</time>
      </trkpt>
      <trkpt lat="45.06353" lon="6.14985">
        <ele>1261.6</ele>
        <time>2026-08-09T07:13:48Z</time>
      </trkpt>
      <trkpt lat="45.06353" lon="6.14985">
        <ele>1261.8</ele>
        <time>2026-08-09T07:13:49Z</time>
      </trkpt>
      <trkpt lat="45.06356" lon="6.14987">
        <ele>1261.8</ele>
        <time>2026-08-09T07:13:50Z</time>
      </trkpt>
      <trkpt lat="45.06359" lon="6.1499">
        <ele>1262.2</ele>
        <time>2026-08-09T07:13:52Z</time>
      </trkpt>
      <trkpt lat="45.06362" lon="6.14993">
        <ele>1262.4</ele>
        <time>2026-08-09T07:13:54Z</time>
      </trkpt>
      <trkpt lat="45.06366" lon="6.14996">
        <ele>1262.6</ele>
        <time>2026-08-09T07:13:56Z</time>
      </trkpt>
      <trkpt lat="45.06369" lon="6.14999">
        <ele>1263</ele>
        <time>2026-08-09T07:13:58Z</time>
      </trkpt>
      <trkpt lat="45.0637" lon="6.15001">
        <ele>1263.2</ele>
        <time>2026-08-09T07:13:59Z</time>
      </trkpt>
      <trkpt lat="45.0637" lon="6.15001">
        <ele>1263.4</ele>
        <time>2026-08-09T07:14:00Z</time>
      </trkpt>
      <trkpt lat="45.06375" lon="6.15006">
        <ele>1263.6</ele>
        <time>2026-08-09T07:14:02Z</time>
      </trkpt>
      <trkpt lat="45.06378" lon="6.15009">
        <ele>1264.2</ele>
        <time>2026-08-09T07:14:04Z</time>
      </trkpt>
      <trkpt lat="45.06379" lon="6.1501">
        <ele>1264.4</ele>
        <time>2026-08-09T07:14:05Z</time>
      </trkpt>
      <trkpt lat="45.0638" lon="6.15011">
        <ele>1264.6</ele>
        <time>2026-08-09T07:14:06Z</time>
      </trkpt>
      <trkpt lat="45.06382" lon="6.15015">
        <ele>1265</ele>
        <time>2026-08-09T07:14:08Z</time>
      </trkpt>
      <trkpt lat="45.06384" lon="6.15018">
        <ele>1265.2</ele>
        <time>2026-08-09T07:14:10Z</time>
      </trkpt>
      <trkpt lat="45.06386" lon="6.15019">
        <ele>1265.4</ele>
        <time>2026-08-09T07:14:11Z</time>
      </trkpt>
      <trkpt lat="45.06387" lon="6.15021">
        <ele>1265.6</ele>
        <time>2026-08-09T07:14:12Z</time>
      </trkpt>
      <trkpt lat="45.06389" lon="6.15022">
        <ele>1265.8</ele>
        <time>2026-08-09T07:14:13Z</time>
      </trkpt>
      <trkpt lat="45.0639" lon="6.15023">
        <ele>1266</ele>
        <time>2026-08-09T07:14:14Z</time>
      </trkpt>
      <trkpt lat="45.06393" lon="6.15026">
        <ele>1266</ele>
        <time>2026-08-09T07:14:16Z</time>
      </trkpt>
      <trkpt lat="45.06394" lon="6.15028">
        <ele>1266.2</ele>
        <time>2026-08-09T07:14:17Z</time>
      </trkpt>
      <trkpt lat="45.06396" lon="6.15029">
        <ele>1266.4</ele>
        <time>2026-08-09T07:14:18Z</time>
      </trkpt>
      <trkpt lat="45.06399" lon="6.15032">
        <ele>1266.8</ele>
        <time>2026-08-09T07:14:20Z</time>
      </trkpt>
      <trkpt lat="45.06402" lon="6.15035">
        <ele>1267.2</ele>
        <time>2026-08-09T07:14:22Z</time>
      </trkpt>
      <trkpt lat="45.06403" lon="6.15036">
        <ele>1267.4</ele>
        <time>2026-08-09T07:14:23Z</time>
      </trkpt>
      <trkpt lat="45.06405" lon="6.15038">
        <ele>1267.6</ele>
        <time>2026-08-09T07:14:24Z</time>
      </trkpt>
      <trkpt lat="45.06408" lon="6.15041">
        <ele>1267.8</ele>
        <time>2026-08-09T07:14:26Z</time>
      </trkpt>
      <trkpt lat="45.06412" lon="6.15044">
        <ele>1268.4</ele>
        <time>2026-08-09T07:14:28Z</time>
      </trkpt>
      <trkpt lat="45.06413" lon="6.15046">
        <ele>1268.6</ele>
        <time>2026-08-09T07:14:29Z</time>
      </trkpt>
      <trkpt lat="45.06415" lon="6.15047">
        <ele>1268.8</ele>
        <time>2026-08-09T07:14:30Z</time>
      </trkpt>
      <trkpt lat="45.06418" lon="6.1505">
        <ele>1269.4</ele>
        <time>2026-08-09T07:14:32Z</time>
      </trkpt>
      <trkpt lat="45.0642" lon="6.15054">
        <ele>1269.6</ele>
        <time>2026-08-09T07:14:34Z</time>
      </trkpt>
      <trkpt lat="45.06423" lon="6.15057">
        <ele>1270</ele>
        <time>2026-08-09T07:14:36Z</time>
      </trkpt>
      <trkpt lat="45.06424" lon="6.15058">
        <ele>1270.2</ele>
        <time>2026-08-09T07:14:37Z</time>
      </trkpt>
      <trkpt lat="45.06425" lon="6.1506">
        <ele>1270.4</ele>
        <time>2026-08-09T07:14:38Z</time>
      </trkpt>
      <trkpt lat="45.06428" lon="6.15062">
        <ele>1270.8</ele>
        <time>2026-08-09T07:14:40Z</time>
      </trkpt>
      <trkpt lat="45.0643" lon="6.15065">
        <ele>1271</ele>
        <time>2026-08-09T07:14:42Z</time>
      </trkpt>
      <trkpt lat="45.06433" lon="6.15067">
        <ele>1271.4</ele>
        <time>2026-08-09T07:14:44Z</time>
      </trkpt>
      <trkpt lat="45.06436" lon="6.1507">
        <ele>1271.4</ele>
        <time>2026-08-09T07:14:46Z</time>
      </trkpt>
      <trkpt lat="45.06438" lon="6.15072">
        <ele>1271.6</ele>
        <time>2026-08-09T07:14:47Z</time>
      </trkpt>
      <trkpt lat="45.06439" lon="6.15073">
        <ele>1271.6</ele>
        <time>2026-08-09T07:14:48Z</time>
      </trkpt>
      <trkpt lat="45.06443" lon="6.15077">
        <ele>1272</ele>
        <time>2026-08-09T07:14:50Z</time>
      </trkpt>
      <trkpt lat="45.06446" lon="6.1508">
        <ele>1272.2</ele>
        <time>2026-08-09T07:14:52Z</time>
      </trkpt>
      <trkpt lat="45.06449" lon="6.15084">
        <ele>1272.4</ele>
        <time>2026-08-09T07:14:54Z</time>
      </trkpt>
      <trkpt lat="45.0645" lon="6.15086">
        <ele>1272.8</ele>
        <time>2026-08-09T07:14:55Z</time>
      </trkpt>
      <trkpt lat="45.06452" lon="6.15088">
        <ele>1272.8</ele>
        <time>2026-08-09T07:14:56Z</time>
      </trkpt>
      <trkpt lat="45.06454" lon="6.15091">
        <ele>1273</ele>
        <time>2026-08-09T07:14:58Z</time>
      </trkpt>
      <trkpt lat="45.06458" lon="6.15095">
        <ele>1273.4</ele>
        <time>2026-08-09T07:15:00Z</time>
      </trkpt>
      <trkpt lat="45.06461" lon="6.15098">
        <ele>1273.8</ele>
        <time>2026-08-09T07:15:02Z</time>
      </trkpt>
      <trkpt lat="45.06464" lon="6.15101">
        <ele>1274</ele>
        <time>2026-08-09T07:15:04Z</time>
      </trkpt>
      <trkpt lat="45.06467" lon="6.15105">
        <ele>1274.4</ele>
        <time>2026-08-09T07:15:06Z</time>
      </trkpt>
      <trkpt lat="45.06469" lon="6.15107">
        <ele>1274.6</ele>
        <time>2026-08-09T07:15:07Z</time>
      </trkpt>
      <trkpt lat="45.0647" lon="6.15108">
        <ele>1274.8</ele>
        <time>2026-08-09T07:15:08Z</time>
      </trkpt>
      <trkpt lat="45.06471" lon="6.1511">
        <ele>1274.8</ele>
        <time>2026-08-09T07:15:09Z</time>
      </trkpt>
      <trkpt lat="45.06473" lon="6.15111">
        <ele>1275</ele>
        <time>2026-08-09T07:15:10Z</time>
      </trkpt>
      <trkpt lat="45.06475" lon="6.15114">
        <ele>1275.2</ele>
        <time>2026-08-09T07:15:12Z</time>
      </trkpt>
      <trkpt lat="45.06476" lon="6.15115">
        <ele>1275.4</ele>
        <time>2026-08-09T07:15:14Z</time>
      </trkpt>
      <trkpt lat="45.06479" lon="6.15116">
        <ele>1275.6</ele>
        <time>2026-08-09T07:15:15Z</time>
      </trkpt>
      <trkpt lat="45.06481" lon="6.15115">
        <ele>1275.8</ele>
        <time>2026-08-09T07:15:16Z</time>
      </trkpt>
      <trkpt lat="45.06481" lon="6.15115">
        <ele>1276</ele>
        <time>2026-08-09T07:15:17Z</time>
      </trkpt>
      <trkpt lat="45.06485" lon="6.15113">
        <ele>1276.2</ele>
        <time>2026-08-09T07:15:18Z</time>
      </trkpt>
      <trkpt lat="45.06488" lon="6.15113">
        <ele>1276.4</ele>
        <time>2026-08-09T07:15:20Z</time>
      </trkpt>
      <trkpt lat="45.06492" lon="6.15114">
        <ele>1276.6</ele>
        <time>2026-08-09T07:15:22Z</time>
      </trkpt>
      <trkpt lat="45.06495" lon="6.15117">
        <ele>1277</ele>
        <time>2026-08-09T07:15:24Z</time>
      </trkpt>
      <trkpt lat="45.06498" lon="6.1512">
        <ele>1277.2</ele>
        <time>2026-08-09T07:15:26Z</time>
      </trkpt>
      <trkpt lat="45.06499" lon="6.15121">
        <ele>1277.4</ele>
        <time>2026-08-09T07:15:28Z</time>
      </trkpt>
      <trkpt lat="45.06502" lon="6.15126">
        <ele>1277.8</ele>
        <time>2026-08-09T07:15:30Z</time>
      </trkpt>
      <trkpt lat="45.06505" lon="6.15129">
        <ele>1278.2</ele>
        <time>2026-08-09T07:15:32Z</time>
      </trkpt>
      <trkpt lat="45.06508" lon="6.15132">
        <ele>1278.4</ele>
        <time>2026-08-09T07:15:34Z</time>
      </trkpt>
      <trkpt lat="45.06512" lon="6.15135">
        <ele>1278.4</ele>
        <time>2026-08-09T07:15:36Z</time>
      </trkpt>
      <trkpt lat="45.06515" lon="6.15138">
        <ele>1278.8</ele>
        <time>2026-08-09T07:15:38Z</time>
      </trkpt>
      <trkpt lat="45.06516" lon="6.1514">
        <ele>1279</ele>
        <time>2026-08-09T07:15:39Z</time>
      </trkpt>
      <trkpt lat="45.06518" lon="6.15141">
        <ele>1279.4</ele>
        <time>2026-08-09T07:15:40Z</time>
      </trkpt>
      <trkpt lat="45.06521" lon="6.15144">
        <ele>1279.8</ele>
        <time>2026-08-09T07:15:42Z</time>
      </trkpt>
      <trkpt lat="45.06525" lon="6.15146">
        <ele>1280.2</ele>
        <time>2026-08-09T07:15:44Z</time>
      </trkpt>
      <trkpt lat="45.06528" lon="6.15149">
        <ele>1280.6</ele>
        <time>2026-08-09T07:15:46Z</time>
      </trkpt>
      <trkpt lat="45.0653" lon="6.15152">
        <ele>1280.8</ele>
        <time>2026-08-09T07:15:48Z</time>
      </trkpt>
      <trkpt lat="45.06532" lon="6.15155">
        <ele>1281.2</ele>
        <time>2026-08-09T07:15:50Z</time>
      </trkpt>
      <trkpt lat="45.06535" lon="6.15158">
        <ele>1281.6</ele>
        <time>2026-08-09T07:15:52Z</time>
      </trkpt>
      <trkpt lat="45.06538" lon="6.15161">
        <ele>1282</ele>
        <time>2026-08-09T07:15:54Z</time>
      </trkpt>
      <trkpt lat="45.0654" lon="6.15163">
        <ele>1282.4</ele>
        <time>2026-08-09T07:15:56Z</time>
      </trkpt>
      <trkpt lat="45.06543" lon="6.15166">
        <ele>1283</ele>
        <time>2026-08-09T07:15:58Z</time>
      </trkpt>
      <trkpt lat="45.06546" lon="6.15168">
        <ele>1283.2</ele>
        <time>2026-08-09T07:16:00Z</time>
      </trkpt>
      <trkpt lat="45.06549" lon="6.15171">
        <ele>1283.4</ele>
        <time>2026-08-09T07:16:02Z</time>
      </trkpt>
      <trkpt lat="45.06551" lon="6.15173">
        <ele>1283.6</ele>
        <time>2026-08-09T07:16:03Z</time>
      </trkpt>
      <trkpt lat="45.06552" lon="6.15174">
        <ele>1283.6</ele>
        <time>2026-08-09T07:16:04Z</time>
      </trkpt>
      <trkpt lat="45.06556" lon="6.15177">
        <ele>1284</ele>
        <time>2026-08-09T07:16:06Z</time>
      </trkpt>
      <trkpt lat="45.06559" lon="6.15179">
        <ele>1284.4</ele>
        <time>2026-08-09T07:16:08Z</time>
      </trkpt>
      <trkpt lat="45.06561" lon="6.15182">
        <ele>1284.4</ele>
        <time>2026-08-09T07:16:10Z</time>
      </trkpt>
      <trkpt lat="45.06564" lon="6.15185">
        <ele>1284.8</ele>
        <time>2026-08-09T07:16:12Z</time>
      </trkpt>
      <trkpt lat="45.06568" lon="6.15189">
        <ele>1285.2</ele>
        <time>2026-08-09T07:16:14Z</time>
      </trkpt>
      <trkpt lat="45.06569" lon="6.1519">
        <ele>1285.4</ele>
        <time>2026-08-09T07:16:15Z</time>
      </trkpt>
      <trkpt lat="45.06571" lon="6.15191">
        <ele>1285.4</ele>
        <time>2026-08-09T07:16:16Z</time>
      </trkpt>
      <trkpt lat="45.06574" lon="6.15194">
        <ele>1285.8</ele>
        <time>2026-08-09T07:16:18Z</time>
      </trkpt>
      <trkpt lat="45.06577" lon="6.15197">
        <ele>1286.2</ele>
        <time>2026-08-09T07:16:20Z</time>
      </trkpt>
      <trkpt lat="45.06579" lon="6.15198">
        <ele>1286.4</ele>
        <time>2026-08-09T07:16:21Z</time>
      </trkpt>
      <trkpt lat="45.0658" lon="6.15199">
        <ele>1286.6</ele>
        <time>2026-08-09T07:16:22Z</time>
      </trkpt>
      <trkpt lat="45.06582" lon="6.15201">
        <ele>1286.8</ele>
        <time>2026-08-09T07:16:23Z</time>
      </trkpt>
      <trkpt lat="45.06583" lon="6.15202">
        <ele>1287</ele>
        <time>2026-08-09T07:16:24Z</time>
      </trkpt>
      <trkpt lat="45.06585" lon="6.15204">
        <ele>1287.2</ele>
        <time>2026-08-09T07:16:26Z</time>
      </trkpt>
      <trkpt lat="45.06586" lon="6.15205">
        <ele>1287.4</ele>
        <time>2026-08-09T07:16:27Z</time>
      </trkpt>
      <trkpt lat="45.06587" lon="6.15206">
        <ele>1287.6</ele>
        <time>2026-08-09T07:16:28Z</time>
      </trkpt>
      <trkpt lat="45.06589" lon="6.15208">
        <ele>1288</ele>
        <time>2026-08-09T07:16:30Z</time>
      </trkpt>
      <trkpt lat="45.06591" lon="6.15209">
        <ele>1288.2</ele>
        <time>2026-08-09T07:16:31Z</time>
      </trkpt>
      <trkpt lat="45.06592" lon="6.1521">
        <ele>1288.4</ele>
        <time>2026-08-09T07:16:32Z</time>
      </trkpt>
      <trkpt lat="45.06594" lon="6.15212">
        <ele>1288.6</ele>
        <time>2026-08-09T07:16:34Z</time>
      </trkpt>
      <trkpt lat="45.06596" lon="6.15215">
        <ele>1289</ele>
        <time>2026-08-09T07:16:36Z</time>
      </trkpt>
      <trkpt lat="45.06599" lon="6.15217">
        <ele>1289.6</ele>
        <time>2026-08-09T07:16:38Z</time>
      </trkpt>
      <trkpt lat="45.06601" lon="6.15219">
        <ele>1289.8</ele>
        <time>2026-08-09T07:16:39Z</time>
      </trkpt>
      <trkpt lat="45.06603" lon="6.15221">
        <ele>1290</ele>
        <time>2026-08-09T07:16:40Z</time>
      </trkpt>
      <trkpt lat="45.06607" lon="6.15223">
        <ele>1290.2</ele>
        <time>2026-08-09T07:16:42Z</time>
      </trkpt>
      <trkpt lat="45.06611" lon="6.15226">
        <ele>1290.6</ele>
        <time>2026-08-09T07:16:44Z</time>
      </trkpt>
      <trkpt lat="45.06613" lon="6.1523">
        <ele>1291</ele>
        <time>2026-08-09T07:16:46Z</time>
      </trkpt>
      <trkpt lat="45.06616" lon="6.15233">
        <ele>1291.2</ele>
        <time>2026-08-09T07:16:48Z</time>
      </trkpt>
      <trkpt lat="45.06618" lon="6.15235">
        <ele>1291.6</ele>
        <time>2026-08-09T07:16:50Z</time>
      </trkpt>
      <trkpt lat="45.06621" lon="6.15238">
        <ele>1291.8</ele>
        <time>2026-08-09T07:16:52Z</time>
      </trkpt>
      <trkpt lat="45.06622" lon="6.15239">
        <ele>1292</ele>
        <time>2026-08-09T07:16:53Z</time>
      </trkpt>
      <trkpt lat="45.06624" lon="6.15241">
        <ele>1292.2</ele>
        <time>2026-08-09T07:16:54Z</time>
      </trkpt>
      <trkpt lat="45.06626" lon="6.15243">
        <ele>1292.6</ele>
        <time>2026-08-09T07:16:56Z</time>
      </trkpt>
      <trkpt lat="45.06629" lon="6.15245">
        <ele>1293</ele>
        <time>2026-08-09T07:16:58Z</time>
      </trkpt>
      <trkpt lat="45.06632" lon="6.15247">
        <ele>1293.4</ele>
        <time>2026-08-09T07:17:00Z</time>
      </trkpt>
      <trkpt lat="45.06636" lon="6.1525">
        <ele>1293.6</ele>
        <time>2026-08-09T07:17:02Z</time>
      </trkpt>
      <trkpt lat="45.0664" lon="6.15252">
        <ele>1293.8</ele>
        <time>2026-08-09T07:17:04Z</time>
      </trkpt>
      <trkpt lat="45.06642" lon="6.15253">
        <ele>1294</ele>
        <time>2026-08-09T07:17:05Z</time>
      </trkpt>
      <trkpt lat="45.06644" lon="6.15254">
        <ele>1294.2</ele>
        <time>2026-08-09T07:17:06Z</time>
      </trkpt>
      <trkpt lat="45.06647" lon="6.15256">
        <ele>1294.4</ele>
        <time>2026-08-09T07:17:08Z</time>
      </trkpt>
      <trkpt lat="45.06651" lon="6.15258">
        <ele>1295</ele>
        <time>2026-08-09T07:17:10Z</time>
      </trkpt>
      <trkpt lat="45.06653" lon="6.15259">
        <ele>1295</ele>
        <time>2026-08-09T07:17:11Z</time>
      </trkpt>
      <trkpt lat="45.06655" lon="6.1526">
        <ele>1295.2</ele>
        <time>2026-08-09T07:17:12Z</time>
      </trkpt>
      <trkpt lat="45.06658" lon="6.15262">
        <ele>1295.6</ele>
        <time>2026-08-09T07:17:14Z</time>
      </trkpt>
      <trkpt lat="45.06661" lon="6.15264">
        <ele>1295.8</ele>
        <time>2026-08-09T07:17:16Z</time>
      </trkpt>
      <trkpt lat="45.06664" lon="6.15266">
        <ele>1296.2</ele>
        <time>2026-08-09T07:17:18Z</time>
      </trkpt>
      <trkpt lat="45.06666" lon="6.15267">
        <ele>1296.4</ele>
        <time>2026-08-09T07:17:19Z</time>
      </trkpt>
      <trkpt lat="45.06667" lon="6.15268">
        <ele>1296.6</ele>
        <time>2026-08-09T07:17:20Z</time>
      </trkpt>
      <trkpt lat="45.0667" lon="6.1527">
        <ele>1297</ele>
        <time>2026-08-09T07:17:22Z</time>
      </trkpt>
      <trkpt lat="45.06672" lon="6.15271">
        <ele>1297.2</ele>
        <time>2026-08-09T07:17:23Z</time>
      </trkpt>
      <trkpt lat="45.06673" lon="6.15272">
        <ele>1297.6</ele>
        <time>2026-08-09T07:17:24Z</time>
      </trkpt>
      <trkpt lat="45.06676" lon="6.15274">
        <ele>1298</ele>
        <time>2026-08-09T07:17:26Z</time>
      </trkpt>
      <trkpt lat="45.06679" lon="6.15276">
        <ele>1298.2</ele>
        <time>2026-08-09T07:17:28Z</time>
      </trkpt>
      <trkpt lat="45.06681" lon="6.15278">
        <ele>1298.2</ele>
        <time>2026-08-09T07:17:29Z</time>
      </trkpt>
      <trkpt lat="45.06682" lon="6.15279">
        <ele>1298.4</ele>
        <time>2026-08-09T07:17:30Z</time>
      </trkpt>
      <trkpt lat="45.06685" lon="6.15281">
        <ele>1298.8</ele>
        <time>2026-08-09T07:17:32Z</time>
      </trkpt>
      <trkpt lat="45.06688" lon="6.15284">
        <ele>1299.6</ele>
        <time>2026-08-09T07:17:34Z</time>
      </trkpt>
      <trkpt lat="45.06689" lon="6.15286">
        <ele>1299.8</ele>
        <time>2026-08-09T07:17:35Z</time>
      </trkpt>
      <trkpt lat="45.06691" lon="6.15287">
        <ele>1300</ele>
        <time>2026-08-09T07:17:36Z</time>
      </trkpt>
      <trkpt lat="45.06693" lon="6.1529">
        <ele>1300.4</ele>
        <time>2026-08-09T07:17:38Z</time>
      </trkpt>
      <trkpt lat="45.06696" lon="6.15293">
        <ele>1300.8</ele>
        <time>2026-08-09T07:17:40Z</time>
      </trkpt>
      <trkpt lat="45.06699" lon="6.15296">
        <ele>1301.2</ele>
        <time>2026-08-09T07:17:42Z</time>
      </trkpt>
      <trkpt lat="45.06701" lon="6.15298">
        <ele>1301.4</ele>
        <time>2026-08-09T07:17:44Z</time>
      </trkpt>
      <trkpt lat="45.06704" lon="6.15301">
        <ele>1301.6</ele>
        <time>2026-08-09T07:17:46Z</time>
      </trkpt>
      <trkpt lat="45.06707" lon="6.15304">
        <ele>1302</ele>
        <time>2026-08-09T07:17:48Z</time>
      </trkpt>
      <trkpt lat="45.0671" lon="6.15307">
        <ele>1302.4</ele>
        <time>2026-08-09T07:17:50Z</time>
      </trkpt>
      <trkpt lat="45.06713" lon="6.1531">
        <ele>1302.8</ele>
        <time>2026-08-09T07:17:52Z</time>
      </trkpt>
      <trkpt lat="45.06715" lon="6.15312">
        <ele>1303.2</ele>
        <time>2026-08-09T07:17:54Z</time>
      </trkpt>
      <trkpt lat="45.06718" lon="6.15315">
        <ele>1303.4</ele>
        <time>2026-08-09T07:17:56Z</time>
      </trkpt>
      <trkpt lat="45.0672" lon="6.15317">
        <ele>1303.8</ele>
        <time>2026-08-09T07:17:58Z</time>
      </trkpt>
      <trkpt lat="45.06723" lon="6.1532">
        <ele>1304</ele>
        <time>2026-08-09T07:18:00Z</time>
      </trkpt>
      <trkpt lat="45.06725" lon="6.15323">
        <ele>1304.4</ele>
        <time>2026-08-09T07:18:02Z</time>
      </trkpt>
      <trkpt lat="45.06727" lon="6.15324">
        <ele>1304.6</ele>
        <time>2026-08-09T07:18:03Z</time>
      </trkpt>
      <trkpt lat="45.06728" lon="6.15325">
        <ele>1304.6</ele>
        <time>2026-08-09T07:18:04Z</time>
      </trkpt>
      <trkpt lat="45.06729" lon="6.15327">
        <ele>1304.8</ele>
        <time>2026-08-09T07:18:05Z</time>
      </trkpt>
      <trkpt lat="45.0673" lon="6.15328">
        <ele>1305</ele>
        <time>2026-08-09T07:18:06Z</time>
      </trkpt>
      <trkpt lat="45.06733" lon="6.15331">
        <ele>1305.4</ele>
        <time>2026-08-09T07:18:08Z</time>
      </trkpt>
      <trkpt lat="45.06737" lon="6.15333">
        <ele>1305.6</ele>
        <time>2026-08-09T07:18:10Z</time>
      </trkpt>
      <trkpt lat="45.0674" lon="6.15335">
        <ele>1305.8</ele>
        <time>2026-08-09T07:18:12Z</time>
      </trkpt>
      <trkpt lat="45.06743" lon="6.15337">
        <ele>1306.2</ele>
        <time>2026-08-09T07:18:14Z</time>
      </trkpt>
      <trkpt lat="45.06746" lon="6.15339">
        <ele>1306.6</ele>
        <time>2026-08-09T07:18:16Z</time>
      </trkpt>
      <trkpt lat="45.06748" lon="6.15341">
        <ele>1306.8</ele>
        <time>2026-08-09T07:18:17Z</time>
      </trkpt>
      <trkpt lat="45.06749" lon="6.15342">
        <ele>1307</ele>
        <time>2026-08-09T07:18:18Z</time>
      </trkpt>
      <trkpt lat="45.06752" lon="6.15343">
        <ele>1307.4</ele>
        <time>2026-08-09T07:18:20Z</time>
      </trkpt>
      <trkpt lat="45.06754" lon="6.15344">
        <ele>1307.6</ele>
        <time>2026-08-09T07:18:21Z</time>
      </trkpt>
      <trkpt lat="45.06755" lon="6.15344">
        <ele>1307.8</ele>
        <time>2026-08-09T07:18:22Z</time>
      </trkpt>
      <trkpt lat="45.06759" lon="6.15345">
        <ele>1308.2</ele>
        <time>2026-08-09T07:18:24Z</time>
      </trkpt>
      <trkpt lat="45.06762" lon="6.15346">
        <ele>1308.4</ele>
        <time>2026-08-09T07:18:26Z</time>
      </trkpt>
      <trkpt lat="45.06764" lon="6.15345">
        <ele>1308.8</ele>
        <time>2026-08-09T07:18:28Z</time>
      </trkpt>
      <trkpt lat="45.06766" lon="6.15345">
        <ele>1309</ele>
        <time>2026-08-09T07:18:29Z</time>
      </trkpt>
      <trkpt lat="45.06767" lon="6.15345">
        <ele>1309.2</ele>
        <time>2026-08-09T07:18:30Z</time>
      </trkpt>
      <trkpt lat="45.06771" lon="6.15344">
        <ele>1309.4</ele>
        <time>2026-08-09T07:18:32Z</time>
      </trkpt>
      <trkpt lat="45.06773" lon="6.15344">
        <ele>1310</ele>
        <time>2026-08-09T07:18:34Z</time>
      </trkpt>
      <trkpt lat="45.06775" lon="6.15344">
        <ele>1310</ele>
        <time>2026-08-09T07:18:35Z</time>
      </trkpt>
      <trkpt lat="45.06775" lon="6.15344">
        <ele>1310.2</ele>
        <time>2026-08-09T07:18:36Z</time>
      </trkpt>
      <trkpt lat="45.06779" lon="6.15345">
        <ele>1310.6</ele>
        <time>2026-08-09T07:18:38Z</time>
      </trkpt>
      <trkpt lat="45.06782" lon="6.15345">
        <ele>1311</ele>
        <time>2026-08-09T07:18:40Z</time>
      </trkpt>
      <trkpt lat="45.06784" lon="6.15345">
        <ele>1311</ele>
        <time>2026-08-09T07:18:41Z</time>
      </trkpt>
      <trkpt lat="45.06786" lon="6.15346">
        <ele>1311.2</ele>
        <time>2026-08-09T07:18:42Z</time>
      </trkpt>
      <trkpt lat="45.06789" lon="6.15346">
        <ele>1311.6</ele>
        <time>2026-08-09T07:18:44Z</time>
      </trkpt>
      <trkpt lat="45.06791" lon="6.15346">
        <ele>1311.8</ele>
        <time>2026-08-09T07:18:46Z</time>
      </trkpt>
      <trkpt lat="45.06795" lon="6.15347">
        <ele>1312.2</ele>
        <time>2026-08-09T07:18:48Z</time>
      </trkpt>
      <trkpt lat="45.06798" lon="6.15347">
        <ele>1312.8</ele>
        <time>2026-08-09T07:18:50Z</time>
      </trkpt>
      <trkpt lat="45.068" lon="6.15347">
        <ele>1313.2</ele>
        <time>2026-08-09T07:18:52Z</time>
      </trkpt>
      <trkpt lat="45.06803" lon="6.15347">
        <ele>1313.6</ele>
        <time>2026-08-09T07:18:54Z</time>
      </trkpt>
      <trkpt lat="45.06805" lon="6.15347">
        <ele>1313.8</ele>
        <time>2026-08-09T07:18:55Z</time>
      </trkpt>
      <trkpt lat="45.06806" lon="6.15347">
        <ele>1314</ele>
        <time>2026-08-09T07:18:56Z</time>
      </trkpt>
      <trkpt lat="45.06809" lon="6.15348">
        <ele>1314.4</ele>
        <time>2026-08-09T07:18:58Z</time>
      </trkpt>
      <trkpt lat="45.06812" lon="6.15348">
        <ele>1314.6</ele>
        <time>2026-08-09T07:19:00Z</time>
      </trkpt>
      <trkpt lat="45.06815" lon="6.15348">
        <ele>1315</ele>
        <time>2026-08-09T07:19:02Z</time>
      </trkpt>
      <trkpt lat="45.06816" lon="6.15348">
        <ele>1315.2</ele>
        <time>2026-08-09T07:19:03Z</time>
      </trkpt>
      <trkpt lat="45.06817" lon="6.15349">
        <ele>1315.4</ele>
        <time>2026-08-09T07:19:04Z</time>
      </trkpt>
      <trkpt lat="45.06818" lon="6.15349">
        <ele>1315.6</ele>
        <time>2026-08-09T07:19:05Z</time>
      </trkpt>
      <trkpt lat="45.0682" lon="6.1535">
        <ele>1315.8</ele>
        <time>2026-08-09T07:19:06Z</time>
      </trkpt>
      <trkpt lat="45.06821" lon="6.1535">
        <ele>1316.2</ele>
        <time>2026-08-09T07:19:08Z</time>
      </trkpt>
      <trkpt lat="45.06827" lon="6.1535">
        <ele>1316.6</ele>
        <time>2026-08-09T07:19:10Z</time>
      </trkpt>
      <trkpt lat="45.06828" lon="6.1535">
        <ele>1316.8</ele>
        <time>2026-08-09T07:19:11Z</time>
      </trkpt>
      <trkpt lat="45.06829" lon="6.15351">
        <ele>1316.8</ele>
        <time>2026-08-09T07:19:12Z</time>
      </trkpt>
      <trkpt lat="45.06832" lon="6.15353">
        <ele>1317.2</ele>
        <time>2026-08-09T07:19:14Z</time>
      </trkpt>
      <trkpt lat="45.06836" lon="6.15354">
        <ele>1317.4</ele>
        <time>2026-08-09T07:19:16Z</time>
      </trkpt>
      <trkpt lat="45.06839" lon="6.15355">
        <ele>1317.6</ele>
        <time>2026-08-09T07:19:18Z</time>
      </trkpt>
      <trkpt lat="45.06839" lon="6.15355">
        <ele>1318</ele>
        <time>2026-08-09T07:19:19Z</time>
      </trkpt>
      <trkpt lat="45.06843" lon="6.15357">
        <ele>1318.2</ele>
        <time>2026-08-09T07:19:20Z</time>
      </trkpt>
      <trkpt lat="45.06846" lon="6.15358">
        <ele>1318.6</ele>
        <time>2026-08-09T07:19:22Z</time>
      </trkpt>
      <trkpt lat="45.0685" lon="6.15359">
        <ele>1318.8</ele>
        <time>2026-08-09T07:19:24Z</time>
      </trkpt>
      <trkpt lat="45.06854" lon="6.1536">
        <ele>1319.2</ele>
        <time>2026-08-09T07:19:26Z</time>
      </trkpt>
      <trkpt lat="45.06857" lon="6.15361">
        <ele>1319.4</ele>
        <time>2026-08-09T07:19:28Z</time>
      </trkpt>
      <trkpt lat="45.06859" lon="6.15361">
        <ele>1320</ele>
        <time>2026-08-09T07:19:30Z</time>
      </trkpt>
      <trkpt lat="45.06864" lon="6.15364">
        <ele>1320.2</ele>
        <time>2026-08-09T07:19:32Z</time>
      </trkpt>
      <trkpt lat="45.06866" lon="6.15366">
        <ele>1320.4</ele>
        <time>2026-08-09T07:19:34Z</time>
      </trkpt>
      <trkpt lat="45.06869" lon="6.15368">
        <ele>1321</ele>
        <time>2026-08-09T07:19:36Z</time>
      </trkpt>
      <trkpt lat="45.06872" lon="6.1537">
        <ele>1321.2</ele>
        <time>2026-08-09T07:19:38Z</time>
      </trkpt>
      <trkpt lat="45.06874" lon="6.15371">
        <ele>1321.6</ele>
        <time>2026-08-09T07:19:40Z</time>
      </trkpt>
      <trkpt lat="45.06874" lon="6.15371">
        <ele>1321.8</ele>
        <time>2026-08-09T07:19:41Z</time>
      </trkpt>
      <trkpt lat="45.06877" lon="6.15373">
        <ele>1321.8</ele>
        <time>2026-08-09T07:19:42Z</time>
      </trkpt>
      <trkpt lat="45.0688" lon="6.15375">
        <ele>1322.2</ele>
        <time>2026-08-09T07:19:44Z</time>
      </trkpt>
      <trkpt lat="45.06884" lon="6.15376">
        <ele>1322.8</ele>
        <time>2026-08-09T07:19:46Z</time>
      </trkpt>
      <trkpt lat="45.06888" lon="6.15378">
        <ele>1323.2</ele>
        <time>2026-08-09T07:19:48Z</time>
      </trkpt>
      <trkpt lat="45.0689" lon="6.15378">
        <ele>1323.4</ele>
        <time>2026-08-09T07:19:49Z</time>
      </trkpt>
      <trkpt lat="45.06891" lon="6.15378">
        <ele>1323.6</ele>
        <time>2026-08-09T07:19:50Z</time>
      </trkpt>
      <trkpt lat="45.06894" lon="6.1538">
        <ele>1323.8</ele>
        <time>2026-08-09T07:19:52Z</time>
      </trkpt>
      <trkpt lat="45.06897" lon="6.15382">
        <ele>1324.4</ele>
        <time>2026-08-09T07:19:54Z</time>
      </trkpt>
      <trkpt lat="45.06899" lon="6.15383">
        <ele>1324.4</ele>
        <time>2026-08-09T07:19:55Z</time>
      </trkpt>
      <trkpt lat="45.069" lon="6.15384">
        <ele>1324.6</ele>
        <time>2026-08-09T07:19:56Z</time>
      </trkpt>
      <trkpt lat="45.06902" lon="6.15385">
        <ele>1325</ele>
        <time>2026-08-09T07:19:58Z</time>
      </trkpt>
      <trkpt lat="45.06907" lon="6.15386">
        <ele>1325.4</ele>
        <time>2026-08-09T07:20:00Z</time>
      </trkpt>
      <trkpt lat="45.06911" lon="6.15386">
        <ele>1325.8</ele>
        <time>2026-08-09T07:20:02Z</time>
      </trkpt>
      <trkpt lat="45.06911" lon="6.15386">
        <ele>1326</ele>
        <time>2026-08-09T07:20:03Z</time>
      </trkpt>
      <trkpt lat="45.06914" lon="6.15387">
        <ele>1326.2</ele>
        <time>2026-08-09T07:20:04Z</time>
      </trkpt>
      <trkpt lat="45.06917" lon="6.15387">
        <ele>1326.4</ele>
        <time>2026-08-09T07:20:06Z</time>
      </trkpt>
      <trkpt lat="45.06921" lon="6.15387">
        <ele>1326.6</ele>
        <time>2026-08-09T07:20:08Z</time>
      </trkpt>
      <trkpt lat="45.06924" lon="6.15386">
        <ele>1326.8</ele>
        <time>2026-08-09T07:20:10Z</time>
      </trkpt>
      <trkpt lat="45.06926" lon="6.15386">
        <ele>1327</ele>
        <time>2026-08-09T07:20:11Z</time>
      </trkpt>
      <trkpt lat="45.06928" lon="6.15385">
        <ele>1327.2</ele>
        <time>2026-08-09T07:20:12Z</time>
      </trkpt>
      <trkpt lat="45.06931" lon="6.15384">
        <ele>1327.6</ele>
        <time>2026-08-09T07:20:14Z</time>
      </trkpt>
      <trkpt lat="45.06932" lon="6.15383">
        <ele>1327.8</ele>
        <time>2026-08-09T07:20:15Z</time>
      </trkpt>
      <trkpt lat="45.06934" lon="6.15383">
        <ele>1328</ele>
        <time>2026-08-09T07:20:16Z</time>
      </trkpt>
      <trkpt lat="45.06937" lon="6.15382">
        <ele>1328.2</ele>
        <time>2026-08-09T07:20:18Z</time>
      </trkpt>
      <trkpt lat="45.06941" lon="6.15381">
        <ele>1328.6</ele>
        <time>2026-08-09T07:20:20Z</time>
      </trkpt>
      <trkpt lat="45.06943" lon="6.1538">
        <ele>1329</ele>
        <time>2026-08-09T07:20:22Z</time>
      </trkpt>
      <trkpt lat="45.06946" lon="6.15379">
        <ele>1329.2</ele>
        <time>2026-08-09T07:20:24Z</time>
      </trkpt>
      <trkpt lat="45.0695" lon="6.15378">
        <ele>1329.8</ele>
        <time>2026-08-09T07:20:26Z</time>
      </trkpt>
      <trkpt lat="45.06952" lon="6.15378">
        <ele>1330</ele>
        <time>2026-08-09T07:20:27Z</time>
      </trkpt>
      <trkpt lat="45.06953" lon="6.15377">
        <ele>1330.2</ele>
        <time>2026-08-09T07:20:28Z</time>
      </trkpt>
      <trkpt lat="45.06956" lon="6.15376">
        <ele>1330.8</ele>
        <time>2026-08-09T07:20:30Z</time>
      </trkpt>
      <trkpt lat="45.06958" lon="6.15375">
        <ele>1331</ele>
        <time>2026-08-09T07:20:31Z</time>
      </trkpt>
      <trkpt lat="45.06959" lon="6.15374">
        <ele>1331.2</ele>
        <time>2026-08-09T07:20:32Z</time>
      </trkpt>
      <trkpt lat="45.06963" lon="6.15373">
        <ele>1331.6</ele>
        <time>2026-08-09T07:20:34Z</time>
      </trkpt>
      <trkpt lat="45.06966" lon="6.15372">
        <ele>1332</ele>
        <time>2026-08-09T07:20:36Z</time>
      </trkpt>
      <trkpt lat="45.06967" lon="6.15371">
        <ele>1331.8</ele>
        <time>2026-08-09T07:20:37Z</time>
      </trkpt>
      <trkpt lat="45.06969" lon="6.15371">
        <ele>1332</ele>
        <time>2026-08-09T07:20:38Z</time>
      </trkpt>
      <trkpt lat="45.06973" lon="6.1537">
        <ele>1332.4</ele>
        <time>2026-08-09T07:20:40Z</time>
      </trkpt>
      <trkpt lat="45.06976" lon="6.15369">
        <ele>1332.6</ele>
        <time>2026-08-09T07:20:42Z</time>
      </trkpt>
      <trkpt lat="45.0698" lon="6.15368">
        <ele>1333</ele>
        <time>2026-08-09T07:20:44Z</time>
      </trkpt>
      <trkpt lat="45.06983" lon="6.15368">
        <ele>1333.6</ele>
        <time>2026-08-09T07:20:46Z</time>
      </trkpt>
      <trkpt lat="45.06986" lon="6.15367">
        <ele>1334</ele>
        <time>2026-08-09T07:20:48Z</time>
      </trkpt>
      <trkpt lat="45.06988" lon="6.15367">
        <ele>1334.4</ele>
        <time>2026-08-09T07:20:50Z</time>
      </trkpt>
      <trkpt lat="45.0699" lon="6.15367">
        <ele>1334.4</ele>
        <time>2026-08-09T07:20:51Z</time>
      </trkpt>
      <trkpt lat="45.0699" lon="6.15367">
        <ele>1334.6</ele>
        <time>2026-08-09T07:20:52Z</time>
      </trkpt>
      <trkpt lat="45.06993" lon="6.15367">
        <ele>1335</ele>
        <time>2026-08-09T07:20:54Z</time>
      </trkpt>
      <trkpt lat="45.06994" lon="6.15367">
        <ele>1335</ele>
        <time>2026-08-09T07:20:55Z</time>
      </trkpt>
      <trkpt lat="45.06995" lon="6.15367">
        <ele>1335.2</ele>
        <time>2026-08-09T07:20:56Z</time>
      </trkpt>
      <trkpt lat="45.06997" lon="6.15367">
        <ele>1335.6</ele>
        <time>2026-08-09T07:20:58Z</time>
      </trkpt>
      <trkpt lat="45.07001" lon="6.15366">
        <ele>1336.2</ele>
        <time>2026-08-09T07:21:00Z</time>
      </trkpt>
      <trkpt lat="45.07002" lon="6.15367">
        <ele>1336.2</ele>
        <time>2026-08-09T07:21:01Z</time>
      </trkpt>
      <trkpt lat="45.07003" lon="6.15367">
        <ele>1336.4</ele>
        <time>2026-08-09T07:21:02Z</time>
      </trkpt>
      <trkpt lat="45.07005" lon="6.15366">
        <ele>1336.8</ele>
        <time>2026-08-09T07:21:04Z</time>
      </trkpt>
      <trkpt lat="45.07008" lon="6.15366">
        <ele>1337.2</ele>
        <time>2026-08-09T07:21:06Z</time>
      </trkpt>
      <trkpt lat="45.07012" lon="6.15366">
        <ele>1337.6</ele>
        <time>2026-08-09T07:21:08Z</time>
      </trkpt>
      <trkpt lat="45.07012" lon="6.15366">
        <ele>1337.6</ele>
        <time>2026-08-09T07:21:09Z</time>
      </trkpt>
      <trkpt lat="45.07015" lon="6.15366">
        <ele>1337.8</ele>
        <time>2026-08-09T07:21:10Z</time>
      </trkpt>
      <trkpt lat="45.07018" lon="6.15366">
        <ele>1338</ele>
        <time>2026-08-09T07:21:12Z</time>
      </trkpt>
      <trkpt lat="45.07021" lon="6.15365">
        <ele>1338.4</ele>
        <time>2026-08-09T07:21:14Z</time>
      </trkpt>
      <trkpt lat="45.07023" lon="6.15365">
        <ele>1338.4</ele>
        <time>2026-08-09T07:21:15Z</time>
      </trkpt>
      <trkpt lat="45.07024" lon="6.15365">
        <ele>1338.4</ele>
        <time>2026-08-09T07:21:16Z</time>
      </trkpt>
      <trkpt lat="45.07028" lon="6.15365">
        <ele>1338.8</ele>
        <time>2026-08-09T07:21:18Z</time>
      </trkpt>
      <trkpt lat="45.07031" lon="6.15364">
        <ele>1339.2</ele>
        <time>2026-08-09T07:21:20Z</time>
      </trkpt>
      <trkpt lat="45.07032" lon="6.15364">
        <ele>1339.2</ele>
        <time>2026-08-09T07:21:21Z</time>
      </trkpt>
      <trkpt lat="45.07034" lon="6.15365">
        <ele>1339.4</ele>
        <time>2026-08-09T07:21:22Z</time>
      </trkpt>
      <trkpt lat="45.07037" lon="6.15365">
        <ele>1339.6</ele>
        <time>2026-08-09T07:21:24Z</time>
      </trkpt>
      <trkpt lat="45.0704" lon="6.15366">
        <ele>1340</ele>
        <time>2026-08-09T07:21:26Z</time>
      </trkpt>
      <trkpt lat="45.07042" lon="6.15366">
        <ele>1340.2</ele>
        <time>2026-08-09T07:21:28Z</time>
      </trkpt>
      <trkpt lat="45.07044" lon="6.15366">
        <ele>1340.4</ele>
        <time>2026-08-09T07:21:29Z</time>
      </trkpt>
      <trkpt lat="45.07045" lon="6.15367">
        <ele>1340.4</ele>
        <time>2026-08-09T07:21:30Z</time>
      </trkpt>
      <trkpt lat="45.07048" lon="6.15368">
        <ele>1340.6</ele>
        <time>2026-08-09T07:21:32Z</time>
      </trkpt>
      <trkpt lat="45.0705" lon="6.15368">
        <ele>1341</ele>
        <time>2026-08-09T07:21:34Z</time>
      </trkpt>
      <trkpt lat="45.07052" lon="6.15369">
        <ele>1341</ele>
        <time>2026-08-09T07:21:35Z</time>
      </trkpt>
      <trkpt lat="45.07053" lon="6.1537">
        <ele>1341.2</ele>
        <time>2026-08-09T07:21:36Z</time>
      </trkpt>
      <trkpt lat="45.07055" lon="6.15371">
        <ele>1341.2</ele>
        <time>2026-08-09T07:21:38Z</time>
      </trkpt>
      <trkpt lat="45.07057" lon="6.15373">
        <ele>1341.6</ele>
        <time>2026-08-09T07:21:40Z</time>
      </trkpt>
      <trkpt lat="45.0706" lon="6.15375">
        <ele>1342.2</ele>
        <time>2026-08-09T07:21:42Z</time>
      </trkpt>
      <trkpt lat="45.07062" lon="6.15376">
        <ele>1342.6</ele>
        <time>2026-08-09T07:21:44Z</time>
      </trkpt>
      <trkpt lat="45.07065" lon="6.15377">
        <ele>1343</ele>
        <time>2026-08-09T07:21:46Z</time>
      </trkpt>
      <trkpt lat="45.07067" lon="6.15379">
        <ele>1343.2</ele>
        <time>2026-08-09T07:21:48Z</time>
      </trkpt>
      <trkpt lat="45.07068" lon="6.15379">
        <ele>1343.4</ele>
        <time>2026-08-09T07:21:49Z</time>
      </trkpt>
      <trkpt lat="45.0707" lon="6.1538">
        <ele>1343.6</ele>
        <time>2026-08-09T07:21:50Z</time>
      </trkpt>
      <trkpt lat="45.07072" lon="6.15382">
        <ele>1343.6</ele>
        <time>2026-08-09T07:21:52Z</time>
      </trkpt>
      <trkpt lat="45.07074" lon="6.15384">
        <ele>1343.8</ele>
        <time>2026-08-09T07:21:54Z</time>
      </trkpt>
      <trkpt lat="45.07076" lon="6.15387">
        <ele>1344</ele>
        <time>2026-08-09T07:21:56Z</time>
      </trkpt>
      <trkpt lat="45.07077" lon="6.15388">
        <ele>1344.2</ele>
        <time>2026-08-09T07:21:57Z</time>
      </trkpt>
      <trkpt lat="45.07078" lon="6.15389">
        <ele>1344.6</ele>
        <time>2026-08-09T07:21:58Z</time>
      </trkpt>
      <trkpt lat="45.07081" lon="6.1539">
        <ele>1344.8</ele>
        <time>2026-08-09T07:22:00Z</time>
      </trkpt>
      <trkpt lat="45.07083" lon="6.15393">
        <ele>1345.2</ele>
        <time>2026-08-09T07:22:02Z</time>
      </trkpt>
      <trkpt lat="45.07084" lon="6.15394">
        <ele>1345.4</ele>
        <time>2026-08-09T07:22:03Z</time>
      </trkpt>
      <trkpt lat="45.07086" lon="6.15394">
        <ele>1345.6</ele>
        <time>2026-08-09T07:22:04Z</time>
      </trkpt>
      <trkpt lat="45.07087" lon="6.15396">
        <ele>1345.6</ele>
        <time>2026-08-09T07:22:05Z</time>
      </trkpt>
      <trkpt lat="45.07088" lon="6.15397">
        <ele>1345.8</ele>
        <time>2026-08-09T07:22:06Z</time>
      </trkpt>
      <trkpt lat="45.07091" lon="6.15399">
        <ele>1345.8</ele>
        <time>2026-08-09T07:22:08Z</time>
      </trkpt>
      <trkpt lat="45.07094" lon="6.15402">
        <ele>1346.2</ele>
        <time>2026-08-09T07:22:10Z</time>
      </trkpt>
      <trkpt lat="45.07097" lon="6.15404">
        <ele>1346.2</ele>
        <time>2026-08-09T07:22:12Z</time>
      </trkpt>
      <trkpt lat="45.07098" lon="6.15406">
        <ele>1346.4</ele>
        <time>2026-08-09T07:22:14Z</time>
      </trkpt>
      <trkpt lat="45.071" lon="6.15407">
        <ele>1346.6</ele>
        <time>2026-08-09T07:22:15Z</time>
      </trkpt>
      <trkpt lat="45.07103" lon="6.15408">
        <ele>1346.8</ele>
        <time>2026-08-09T07:22:16Z</time>
      </trkpt>
      <trkpt lat="45.07104" lon="6.15408">
        <ele>1347.2</ele>
        <time>2026-08-09T07:22:18Z</time>
      </trkpt>
      <trkpt lat="45.07105" lon="6.15408">
        <ele>1347.4</ele>
        <time>2026-08-09T07:22:20Z</time>
      </trkpt>
      <trkpt lat="45.07105" lon="6.15408">
        <ele>1347.6</ele>
        <time>2026-08-09T07:22:21Z</time>
      </trkpt>
      <trkpt lat="45.07105" lon="6.15408">
        <ele>1347.8</ele>
        <time>2026-08-09T07:22:22Z</time>
      </trkpt>
      <trkpt lat="45.07106" lon="6.15408">
        <ele>1348</ele>
        <time>2026-08-09T07:22:24Z</time>
      </trkpt>
      <trkpt lat="45.07106" lon="6.15408">
        <ele>1348.6</ele>
        <time>2026-08-09T07:22:26Z</time>
      </trkpt>
      <trkpt lat="45.07106" lon="6.15408">
        <ele>1348.8</ele>
        <time>2026-08-09T07:22:27Z</time>
      </trkpt>
      <trkpt lat="45.07106" lon="6.15408">
        <ele>1348.8</ele>
        <time>2026-08-09T07:22:28Z</time>
      </trkpt>
      <trkpt lat="45.07106" lon="6.15408">
        <ele>1348.8</ele>
        <time>2026-08-09T07:22:30Z</time>
      </trkpt>
      <trkpt lat="45.07107" lon="6.1541">
        <ele>1349</ele>
        <time>2026-08-09T07:22:32Z</time>
      </trkpt>
      <trkpt lat="45.07108" lon="6.15411">
        <ele>1349</ele>
        <time>2026-08-09T07:22:34Z</time>
      </trkpt>
      <trkpt lat="45.0711" lon="6.15412">
        <ele>1349</ele>
        <time>2026-08-09T07:22:36Z</time>
      </trkpt>
      <trkpt lat="45.07113" lon="6.15414">
        <ele>1349</ele>
        <time>2026-08-09T07:22:38Z</time>
      </trkpt>
      <trkpt lat="45.07115" lon="6.15416">
        <ele>1349</ele>
        <time>2026-08-09T07:22:39Z</time>
      </trkpt>
      <trkpt lat="45.07116" lon="6.15418">
        <ele>1349</ele>
        <time>2026-08-09T07:22:40Z</time>
      </trkpt>
      <trkpt lat="45.0712" lon="6.15421">
        <ele>1349</ele>
        <time>2026-08-09T07:22:42Z</time>
      </trkpt>
      <trkpt lat="45.07122" lon="6.15425">
        <ele>1349.2</ele>
        <time>2026-08-09T07:22:44Z</time>
      </trkpt>
      <trkpt lat="45.07125" lon="6.15429">
        <ele>1349</ele>
        <time>2026-08-09T07:22:46Z</time>
      </trkpt>
      <trkpt lat="45.07128" lon="6.15434">
        <ele>1349.2</ele>
        <time>2026-08-09T07:22:48Z</time>
      </trkpt>
      <trkpt lat="45.0713" lon="6.1544">
        <ele>1349.2</ele>
        <time>2026-08-09T07:22:50Z</time>
      </trkpt>
      <trkpt lat="45.07132" lon="6.15448">
        <ele>1349.4</ele>
        <time>2026-08-09T07:22:52Z</time>
      </trkpt>
      <trkpt lat="45.07134" lon="6.15455">
        <ele>1349.4</ele>
        <time>2026-08-09T07:22:54Z</time>
      </trkpt>
      <trkpt lat="45.07135" lon="6.15462">
        <ele>1349.4</ele>
        <time>2026-08-09T07:22:56Z</time>
      </trkpt>
      <trkpt lat="45.07136" lon="6.15469">
        <ele>1349.2</ele>
        <time>2026-08-09T07:22:58Z</time>
      </trkpt>
      <trkpt lat="45.07138" lon="6.15477">
        <ele>1349</ele>
        <time>2026-08-09T07:23:00Z</time>
      </trkpt>
      <trkpt lat="45.07142" lon="6.15485">
        <ele>1348.8</ele>
        <time>2026-08-09T07:23:02Z</time>
      </trkpt>
      <trkpt lat="45.07144" lon="6.1549">
        <ele>1348.8</ele>
        <time>2026-08-09T07:23:03Z</time>
      </trkpt>
      <trkpt lat="45.07146" lon="6.15495">
        <ele>1348.6</ele>
        <time>2026-08-09T07:23:04Z</time>
      </trkpt>
      <trkpt lat="45.07148" lon="6.15508">
        <ele>1348.6</ele>
        <time>2026-08-09T07:23:06Z</time>
      </trkpt>
      <trkpt lat="45.0715" lon="6.15515">
        <ele>1348.4</ele>
        <time>2026-08-09T07:23:07Z</time>
      </trkpt>
      <trkpt lat="45.07153" lon="6.15522">
        <ele>1348.2</ele>
        <time>2026-08-09T07:23:08Z</time>
      </trkpt>
      <trkpt lat="45.0716" lon="6.15537">
        <ele>1348</ele>
        <time>2026-08-09T07:23:10Z</time>
      </trkpt>
      <trkpt lat="45.07168" lon="6.15549">
        <ele>1347.8</ele>
        <time>2026-08-09T07:23:12Z</time>
      </trkpt>
      <trkpt lat="45.07171" lon="6.15553">
        <ele>1347.6</ele>
        <time>2026-08-09T07:23:13Z</time>
      </trkpt>
      <trkpt lat="45.07174" lon="6.15556">
        <ele>1347.4</ele>
        <time>2026-08-09T07:23:14Z</time>
      </trkpt>
      <trkpt lat="45.07179" lon="6.15561">
        <ele>1347.2</ele>
        <time>2026-08-09T07:23:16Z</time>
      </trkpt>
      <trkpt lat="45.07183" lon="6.15566">
        <ele>1347</ele>
        <time>2026-08-09T07:23:18Z</time>
      </trkpt>
      <trkpt lat="45.07187" lon="6.1557">
        <ele>1347</ele>
        <time>2026-08-09T07:23:20Z</time>
      </trkpt>
      <trkpt lat="45.07187" lon="6.1557">
        <ele>1347</ele>
        <time>2026-08-09T07:23:21Z</time>
      </trkpt>
      <trkpt lat="45.07192" lon="6.15575">
        <ele>1347</ele>
        <time>2026-08-09T07:23:22Z</time>
      </trkpt>
      <trkpt lat="45.07196" lon="6.15579">
        <ele>1347.2</ele>
        <time>2026-08-09T07:23:24Z</time>
      </trkpt>
      <trkpt lat="45.072" lon="6.15583">
        <ele>1347.6</ele>
        <time>2026-08-09T07:23:26Z</time>
      </trkpt>
      <trkpt lat="45.07205" lon="6.15586">
        <ele>1348.2</ele>
        <time>2026-08-09T07:23:28Z</time>
      </trkpt>
      <trkpt lat="45.07207" lon="6.15588">
        <ele>1348.4</ele>
        <time>2026-08-09T07:23:29Z</time>
      </trkpt>
      <trkpt lat="45.07208" lon="6.1559">
        <ele>1348.6</ele>
        <time>2026-08-09T07:23:30Z</time>
      </trkpt>
      <trkpt lat="45.07212" lon="6.15594">
        <ele>1349</ele>
        <time>2026-08-09T07:23:32Z</time>
      </trkpt>
      <trkpt lat="45.07217" lon="6.15598">
        <ele>1349</ele>
        <time>2026-08-09T07:23:34Z</time>
      </trkpt>
      <trkpt lat="45.07219" lon="6.15599">
        <ele>1349.2</ele>
        <time>2026-08-09T07:23:35Z</time>
      </trkpt>
      <trkpt lat="45.07221" lon="6.15601">
        <ele>1349.2</ele>
        <time>2026-08-09T07:23:36Z</time>
      </trkpt>
      <trkpt lat="45.07225" lon="6.15605">
        <ele>1349.6</ele>
        <time>2026-08-09T07:23:38Z</time>
      </trkpt>
      <trkpt lat="45.07229" lon="6.15609">
        <ele>1349.6</ele>
        <time>2026-08-09T07:23:40Z</time>
      </trkpt>
      <trkpt lat="45.07231" lon="6.15611">
        <ele>1349.8</ele>
        <time>2026-08-09T07:23:41Z</time>
      </trkpt>
      <trkpt lat="45.07232" lon="6.15614">
        <ele>1349.8</ele>
        <time>2026-08-09T07:23:42Z</time>
      </trkpt>
      <trkpt lat="45.07236" lon="6.15618">
        <ele>1350</ele>
        <time>2026-08-09T07:23:44Z</time>
      </trkpt>
      <trkpt lat="45.0724" lon="6.15622">
        <ele>1350.2</ele>
        <time>2026-08-09T07:23:46Z</time>
      </trkpt>
      <trkpt lat="45.07243" lon="6.15625">
        <ele>1350.4</ele>
        <time>2026-08-09T07:23:47Z</time>
      </trkpt>
      <trkpt lat="45.07245" lon="6.15627">
        <ele>1350.6</ele>
        <time>2026-08-09T07:23:48Z</time>
      </trkpt>
      <trkpt lat="45.07248" lon="6.15629">
        <ele>1350.6</ele>
        <time>2026-08-09T07:23:49Z</time>
      </trkpt>
      <trkpt lat="45.07251" lon="6.15632">
        <ele>1350.8</ele>
        <time>2026-08-09T07:23:50Z</time>
      </trkpt>
      <trkpt lat="45.07257" lon="6.15637">
        <ele>1351</ele>
        <time>2026-08-09T07:23:52Z</time>
      </trkpt>
      <trkpt lat="45.07264" lon="6.15643">
        <ele>1351</ele>
        <time>2026-08-09T07:23:54Z</time>
      </trkpt>
      <trkpt lat="45.0727" lon="6.15649">
        <ele>1351</ele>
        <time>2026-08-09T07:23:56Z</time>
      </trkpt>
      <trkpt lat="45.07276" lon="6.15653">
        <ele>1351</ele>
        <time>2026-08-09T07:23:58Z</time>
      </trkpt>
      <trkpt lat="45.07283" lon="6.15658">
        <ele>1351.2</ele>
        <time>2026-08-09T07:24:00Z</time>
      </trkpt>
      <trkpt lat="45.0729" lon="6.15663">
        <ele>1351.2</ele>
        <time>2026-08-09T07:24:02Z</time>
      </trkpt>
      <trkpt lat="45.07293" lon="6.15665">
        <ele>1351.4</ele>
        <time>2026-08-09T07:24:04Z</time>
      </trkpt>
      <trkpt lat="45.07304" lon="6.15671">
        <ele>1351.4</ele>
        <time>2026-08-09T07:24:06Z</time>
      </trkpt>
      <trkpt lat="45.07307" lon="6.15674">
        <ele>1351.6</ele>
        <time>2026-08-09T07:24:07Z</time>
      </trkpt>
      <trkpt lat="45.0731" lon="6.15676">
        <ele>1351.6</ele>
        <time>2026-08-09T07:24:08Z</time>
      </trkpt>
      <trkpt lat="45.07314" lon="6.15678">
        <ele>1351.8</ele>
        <time>2026-08-09T07:24:10Z</time>
      </trkpt>
      <trkpt lat="45.07325" lon="6.15685">
        <ele>1352</ele>
        <time>2026-08-09T07:24:12Z</time>
      </trkpt>
      <trkpt lat="45.07332" lon="6.1569">
        <ele>1352.2</ele>
        <time>2026-08-09T07:24:14Z</time>
      </trkpt>
      <trkpt lat="45.07335" lon="6.15692">
        <ele>1352.2</ele>
        <time>2026-08-09T07:24:16Z</time>
      </trkpt>
      <trkpt lat="45.07345" lon="6.157">
        <ele>1352.4</ele>
        <time>2026-08-09T07:24:18Z</time>
      </trkpt>
      <trkpt lat="45.07351" lon="6.15705">
        <ele>1352.2</ele>
        <time>2026-08-09T07:24:20Z</time>
      </trkpt>
      <trkpt lat="45.07356" lon="6.15712">
        <ele>1352.4</ele>
        <time>2026-08-09T07:24:22Z</time>
      </trkpt>
      <trkpt lat="45.07361" lon="6.15718">
        <ele>1352.6</ele>
        <time>2026-08-09T07:24:24Z</time>
      </trkpt>
      <trkpt lat="45.07365" lon="6.15724">
        <ele>1352.6</ele>
        <time>2026-08-09T07:24:26Z</time>
      </trkpt>
      <trkpt lat="45.07369" lon="6.1573">
        <ele>1352.8</ele>
        <time>2026-08-09T07:24:28Z</time>
      </trkpt>
      <trkpt lat="45.07373" lon="6.15736">
        <ele>1353</ele>
        <time>2026-08-09T07:24:30Z</time>
      </trkpt>
      <trkpt lat="45.07378" lon="6.15741">
        <ele>1353</ele>
        <time>2026-08-09T07:24:32Z</time>
      </trkpt>
      <trkpt lat="45.07378" lon="6.15741">
        <ele>1353.2</ele>
        <time>2026-08-09T07:24:33Z</time>
      </trkpt>
      <trkpt lat="45.07385" lon="6.15745">
        <ele>1353.2</ele>
        <time>2026-08-09T07:24:34Z</time>
      </trkpt>
      <trkpt lat="45.07393" lon="6.1575">
        <ele>1353.4</ele>
        <time>2026-08-09T07:24:36Z</time>
      </trkpt>
      <trkpt lat="45.07397" lon="6.15752">
        <ele>1353.8</ele>
        <time>2026-08-09T07:24:38Z</time>
      </trkpt>
      <trkpt lat="45.07406" lon="6.15756">
        <ele>1354</ele>
        <time>2026-08-09T07:24:40Z</time>
      </trkpt>
      <trkpt lat="45.07414" lon="6.15761">
        <ele>1354</ele>
        <time>2026-08-09T07:24:42Z</time>
      </trkpt>
      <trkpt lat="45.07423" lon="6.1577">
        <ele>1354</ele>
        <time>2026-08-09T07:24:44Z</time>
      </trkpt>
      <trkpt lat="45.07429" lon="6.15778">
        <ele>1354.2</ele>
        <time>2026-08-09T07:24:46Z</time>
      </trkpt>
      <trkpt lat="45.07434" lon="6.15785">
        <ele>1354.2</ele>
        <time>2026-08-09T07:24:48Z</time>
      </trkpt>
      <trkpt lat="45.07439" lon="6.15792">
        <ele>1354.2</ele>
        <time>2026-08-09T07:24:50Z</time>
      </trkpt>
      <trkpt lat="45.07444" lon="6.15798">
        <ele>1354.2</ele>
        <time>2026-08-09T07:24:52Z</time>
      </trkpt>
      <trkpt lat="45.07447" lon="6.15801">
        <ele>1354.2</ele>
        <time>2026-08-09T07:24:54Z</time>
      </trkpt>
      <trkpt lat="45.07458" lon="6.15809">
        <ele>1354.2</ele>
        <time>2026-08-09T07:24:56Z</time>
      </trkpt>
      <trkpt lat="45.07462" lon="6.15811">
        <ele>1354.2</ele>
        <time>2026-08-09T07:24:58Z</time>
      </trkpt>
      <trkpt lat="45.0747" lon="6.15814">
        <ele>1354.2</ele>
        <time>2026-08-09T07:24:59Z</time>
      </trkpt>
      <trkpt lat="45.0747" lon="6.15814">
        <ele>1354.4</ele>
        <time>2026-08-09T07:25:00Z</time>
      </trkpt>
      <trkpt lat="45.07482" lon="6.15812">
        <ele>1354.4</ele>
        <time>2026-08-09T07:25:02Z</time>
      </trkpt>
      <trkpt lat="45.07486" lon="6.15811">
        <ele>1354.8</ele>
        <time>2026-08-09T07:25:04Z</time>
      </trkpt>
      <trkpt lat="45.07494" lon="6.15809">
        <ele>1355</ele>
        <time>2026-08-09T07:25:06Z</time>
      </trkpt>
      <trkpt lat="45.07505" lon="6.15805">
        <ele>1355</ele>
        <time>2026-08-09T07:25:08Z</time>
      </trkpt>
      <trkpt lat="45.07508" lon="6.15805">
        <ele>1355.2</ele>
        <time>2026-08-09T07:25:10Z</time>
      </trkpt>
      <trkpt lat="45.07519" lon="6.15805">
        <ele>1355.2</ele>
        <time>2026-08-09T07:25:12Z</time>
      </trkpt>
      <trkpt lat="45.07519" lon="6.15805">
        <ele>1355.2</ele>
        <time>2026-08-09T07:25:13Z</time>
      </trkpt>
      <trkpt lat="45.07523" lon="6.15806">
        <ele>1355.4</ele>
        <time>2026-08-09T07:25:14Z</time>
      </trkpt>
      <trkpt lat="45.0753" lon="6.1581">
        <ele>1355.4</ele>
        <time>2026-08-09T07:25:16Z</time>
      </trkpt>
      <trkpt lat="45.07541" lon="6.15816">
        <ele>1355.4</ele>
        <time>2026-08-09T07:25:18Z</time>
      </trkpt>
      <trkpt lat="45.07544" lon="6.15818">
        <ele>1355.6</ele>
        <time>2026-08-09T07:25:19Z</time>
      </trkpt>
      <trkpt lat="45.07547" lon="6.1582">
        <ele>1355.6</ele>
        <time>2026-08-09T07:25:20Z</time>
      </trkpt>
      <trkpt lat="45.0755" lon="6.15822">
        <ele>1355.6</ele>
        <time>2026-08-09T07:25:22Z</time>
      </trkpt>
      <trkpt lat="45.0756" lon="6.15829">
        <ele>1356</ele>
        <time>2026-08-09T07:25:24Z</time>
      </trkpt>
      <trkpt lat="45.07563" lon="6.15831">
        <ele>1356</ele>
        <time>2026-08-09T07:25:25Z</time>
      </trkpt>
      <trkpt lat="45.07563" lon="6.15831">
        <ele>1356.2</ele>
        <time>2026-08-09T07:25:26Z</time>
      </trkpt>
      <trkpt lat="45.07566" lon="6.15833">
        <ele>1356.4</ele>
        <time>2026-08-09T07:25:27Z</time>
      </trkpt>
      <trkpt lat="45.07572" lon="6.15837">
        <ele>1356.6</ele>
        <time>2026-08-09T07:25:28Z</time>
      </trkpt>
      <trkpt lat="45.0758" lon="6.15841">
        <ele>1356.8</ele>
        <time>2026-08-09T07:25:30Z</time>
      </trkpt>
      <trkpt lat="45.07584" lon="6.15842">
        <ele>1356.8</ele>
        <time>2026-08-09T07:25:31Z</time>
      </trkpt>
      <trkpt lat="45.07588" lon="6.15843">
        <ele>1357</ele>
        <time>2026-08-09T07:25:32Z</time>
      </trkpt>
      <trkpt lat="45.07596" lon="6.15844">
        <ele>1357</ele>
        <time>2026-08-09T07:25:34Z</time>
      </trkpt>
      <trkpt lat="45.07605" lon="6.15845">
        <ele>1357.2</ele>
        <time>2026-08-09T07:25:36Z</time>
      </trkpt>
      <trkpt lat="45.07613" lon="6.15844">
        <ele>1357.4</ele>
        <time>2026-08-09T07:25:38Z</time>
      </trkpt>
      <trkpt lat="45.07622" lon="6.15842">
        <ele>1357.4</ele>
        <time>2026-08-09T07:25:40Z</time>
      </trkpt>
      <trkpt lat="45.0763" lon="6.1584">
        <ele>1357.4</ele>
        <time>2026-08-09T07:25:42Z</time>
      </trkpt>
      <trkpt lat="45.0763" lon="6.1584">
        <ele>1357.6</ele>
        <time>2026-08-09T07:25:43Z</time>
      </trkpt>
      <trkpt lat="45.07635" lon="6.15838">
        <ele>1357.6</ele>
        <time>2026-08-09T07:25:44Z</time>
      </trkpt>
      <trkpt lat="45.07643" lon="6.15834">
        <ele>1357.6</ele>
        <time>2026-08-09T07:25:46Z</time>
      </trkpt>
      <trkpt lat="45.07649" lon="6.1583">
        <ele>1357.8</ele>
        <time>2026-08-09T07:25:48Z</time>
      </trkpt>
      <trkpt lat="45.07651" lon="6.15827">
        <ele>1357.8</ele>
        <time>2026-08-09T07:25:49Z</time>
      </trkpt>
      <trkpt lat="45.07651" lon="6.15827">
        <ele>1358</ele>
        <time>2026-08-09T07:25:50Z</time>
      </trkpt>
      <trkpt lat="45.07658" lon="6.15818">
        <ele>1358.4</ele>
        <time>2026-08-09T07:25:52Z</time>
      </trkpt>
      <trkpt lat="45.0766" lon="6.15816">
        <ele>1358.4</ele>
        <time>2026-08-09T07:25:53Z</time>
      </trkpt>
      <trkpt lat="45.0766" lon="6.15816">
        <ele>1358.6</ele>
        <time>2026-08-09T07:25:54Z</time>
      </trkpt>
      <trkpt lat="45.07668" lon="6.15807">
        <ele>1359</ele>
        <time>2026-08-09T07:25:56Z</time>
      </trkpt>
      <trkpt lat="45.07675" lon="6.15804">
        <ele>1359.2</ele>
        <time>2026-08-09T07:25:58Z</time>
      </trkpt>
      <trkpt lat="45.07683" lon="6.15803">
        <ele>1359.2</ele>
        <time>2026-08-09T07:26:00Z</time>
      </trkpt>
      <trkpt lat="45.07686" lon="6.15803">
        <ele>1359.4</ele>
        <time>2026-08-09T07:26:02Z</time>
      </trkpt>
      <trkpt lat="45.07696" lon="6.15805">
        <ele>1359.6</ele>
        <time>2026-08-09T07:26:04Z</time>
      </trkpt>
      <trkpt lat="45.07701" lon="6.15806">
        <ele>1359.6</ele>
        <time>2026-08-09T07:26:06Z</time>
      </trkpt>
      <trkpt lat="45.07705" lon="6.15808">
        <ele>1359.8</ele>
        <time>2026-08-09T07:26:07Z</time>
      </trkpt>
      <trkpt lat="45.07713" lon="6.1581">
        <ele>1359.8</ele>
        <time>2026-08-09T07:26:08Z</time>
      </trkpt>
      <trkpt lat="45.07716" lon="6.15811">
        <ele>1360.2</ele>
        <time>2026-08-09T07:26:10Z</time>
      </trkpt>
      <trkpt lat="45.07729" lon="6.15812">
        <ele>1360.2</ele>
        <time>2026-08-09T07:26:12Z</time>
      </trkpt>
      <trkpt lat="45.07738" lon="6.15812">
        <ele>1360.2</ele>
        <time>2026-08-09T07:26:14Z</time>
      </trkpt>
      <trkpt lat="45.07742" lon="6.15812">
        <ele>1360.2</ele>
        <time>2026-08-09T07:26:15Z</time>
      </trkpt>
      <trkpt lat="45.07746" lon="6.15811">
        <ele>1360.4</ele>
        <time>2026-08-09T07:26:16Z</time>
      </trkpt>
      <trkpt lat="45.07746" lon="6.15811">
        <ele>1360.4</ele>
        <time>2026-08-09T07:26:17Z</time>
      </trkpt>
      <trkpt lat="45.07753" lon="6.15811">
        <ele>1360.4</ele>
        <time>2026-08-09T07:26:18Z</time>
      </trkpt>
      <trkpt lat="45.07759" lon="6.15811">
        <ele>1360.6</ele>
        <time>2026-08-09T07:26:20Z</time>
      </trkpt>
      <trkpt lat="45.07763" lon="6.15811">
        <ele>1360.6</ele>
        <time>2026-08-09T07:26:21Z</time>
      </trkpt>
      <trkpt lat="45.07766" lon="6.1581">
        <ele>1360.6</ele>
        <time>2026-08-09T07:26:22Z</time>
      </trkpt>
      <trkpt lat="45.07773" lon="6.15809">
        <ele>1360.8</ele>
        <time>2026-08-09T07:26:24Z</time>
      </trkpt>
      <trkpt lat="45.07781" lon="6.15809">
        <ele>1360.8</ele>
        <time>2026-08-09T07:26:26Z</time>
      </trkpt>
      <trkpt lat="45.07786" lon="6.15812">
        <ele>1361</ele>
        <time>2026-08-09T07:26:27Z</time>
      </trkpt>
      <trkpt lat="45.07786" lon="6.15812">
        <ele>1361</ele>
        <time>2026-08-09T07:26:28Z</time>
      </trkpt>
      <trkpt lat="45.07799" lon="6.15818">
        <ele>1361.4</ele>
        <time>2026-08-09T07:26:30Z</time>
      </trkpt>
      <trkpt lat="45.07808" lon="6.15823">
        <ele>1361.4</ele>
        <time>2026-08-09T07:26:32Z</time>
      </trkpt>
      <trkpt lat="45.07815" lon="6.15828">
        <ele>1361.6</ele>
        <time>2026-08-09T07:26:34Z</time>
      </trkpt>
      <trkpt lat="45.07819" lon="6.1583">
        <ele>1361.6</ele>
        <time>2026-08-09T07:26:35Z</time>
      </trkpt>
      <trkpt lat="45.07823" lon="6.15832">
        <ele>1361.8</ele>
        <time>2026-08-09T07:26:36Z</time>
      </trkpt>
      <trkpt lat="45.07829" lon="6.15836">
        <ele>1362</ele>
        <time>2026-08-09T07:26:38Z</time>
      </trkpt>
      <trkpt lat="45.07829" lon="6.15836">
        <ele>1362.2</ele>
        <time>2026-08-09T07:26:39Z</time>
      </trkpt>
      <trkpt lat="45.07836" lon="6.15841">
        <ele>1362.2</ele>
        <time>2026-08-09T07:26:40Z</time>
      </trkpt>
      <trkpt lat="45.07843" lon="6.15846">
        <ele>1362.4</ele>
        <time>2026-08-09T07:26:42Z</time>
      </trkpt>
      <trkpt lat="45.07851" lon="6.15852">
        <ele>1362.6</ele>
        <time>2026-08-09T07:26:44Z</time>
      </trkpt>
      <trkpt lat="45.07855" lon="6.15855">
        <ele>1362.8</ele>
        <time>2026-08-09T07:26:45Z</time>
      </trkpt>
      <trkpt lat="45.07858" lon="6.15857">
        <ele>1362.8</ele>
        <time>2026-08-09T07:26:46Z</time>
      </trkpt>
      <trkpt lat="45.07861" lon="6.15859">
        <ele>1363</ele>
        <time>2026-08-09T07:26:48Z</time>
      </trkpt>
      <trkpt lat="45.07868" lon="6.15864">
        <ele>1363</ele>
        <time>2026-08-09T07:26:50Z</time>
      </trkpt>
      <trkpt lat="45.07878" lon="6.15871">
        <ele>1363</ele>
        <time>2026-08-09T07:26:52Z</time>
      </trkpt>
      <trkpt lat="45.0788" lon="6.15873">
        <ele>1363</ele>
        <time>2026-08-09T07:26:53Z</time>
      </trkpt>
      <trkpt lat="45.07883" lon="6.15875">
        <ele>1363.2</ele>
        <time>2026-08-09T07:26:54Z</time>
      </trkpt>
      <trkpt lat="45.07892" lon="6.1588">
        <ele>1363.2</ele>
        <time>2026-08-09T07:26:56Z</time>
      </trkpt>
      <trkpt lat="45.07902" lon="6.15886">
        <ele>1363.4</ele>
        <time>2026-08-09T07:26:58Z</time>
      </trkpt>
      <trkpt lat="45.07907" lon="6.15888">
        <ele>1363.4</ele>
        <time>2026-08-09T07:26:59Z</time>
      </trkpt>
      <trkpt lat="45.07912" lon="6.1589">
        <ele>1363.6</ele>
        <time>2026-08-09T07:27:00Z</time>
      </trkpt>
      <trkpt lat="45.07922" lon="6.15894">
        <ele>1363.8</ele>
        <time>2026-08-09T07:27:02Z</time>
      </trkpt>
      <trkpt lat="45.07931" lon="6.15897">
        <ele>1363.8</ele>
        <time>2026-08-09T07:27:04Z</time>
      </trkpt>
      <trkpt lat="45.0794" lon="6.15902">
        <ele>1364</ele>
        <time>2026-08-09T07:27:06Z</time>
      </trkpt>
      <trkpt lat="45.07948" lon="6.15906">
        <ele>1363.8</ele>
        <time>2026-08-09T07:27:08Z</time>
      </trkpt>
      <trkpt lat="45.07955" lon="6.15911">
        <ele>1363.8</ele>
        <time>2026-08-09T07:27:10Z</time>
      </trkpt>
      <trkpt lat="45.07957" lon="6.15915">
        <ele>1364</ele>
        <time>2026-08-09T07:27:12Z</time>
      </trkpt>
      <trkpt lat="45.07962" lon="6.15922">
        <ele>1364.2</ele>
        <time>2026-08-09T07:27:13Z</time>
      </trkpt>
      <trkpt lat="45.07966" lon="6.15926">
        <ele>1364.4</ele>
        <time>2026-08-09T07:27:14Z</time>
      </trkpt>
      <trkpt lat="45.07968" lon="6.15929">
        <ele>1364.8</ele>
        <time>2026-08-09T07:27:16Z</time>
      </trkpt>
      <trkpt lat="45.07977" lon="6.15938">
        <ele>1365</ele>
        <time>2026-08-09T07:27:18Z</time>
      </trkpt>
      <trkpt lat="45.07982" lon="6.15944">
        <ele>1365</ele>
        <time>2026-08-09T07:27:20Z</time>
      </trkpt>
      <trkpt lat="45.07989" lon="6.15949">
        <ele>1365.2</ele>
        <time>2026-08-09T07:27:22Z</time>
      </trkpt>
      <trkpt lat="45.07994" lon="6.15955">
        <ele>1365.6</ele>
        <time>2026-08-09T07:27:24Z</time>
      </trkpt>
      <trkpt lat="45.08" lon="6.15959">
        <ele>1365.6</ele>
        <time>2026-08-09T07:27:26Z</time>
      </trkpt>
      <trkpt lat="45.08006" lon="6.15962">
        <ele>1365.8</ele>
        <time>2026-08-09T07:27:28Z</time>
      </trkpt>
      <trkpt lat="45.08012" lon="6.15964">
        <ele>1365.8</ele>
        <time>2026-08-09T07:27:30Z</time>
      </trkpt>
      <trkpt lat="45.08014" lon="6.15966">
        <ele>1366</ele>
        <time>2026-08-09T07:27:32Z</time>
      </trkpt>
      <trkpt lat="45.0802" lon="6.15971">
        <ele>1366</ele>
        <time>2026-08-09T07:27:34Z</time>
      </trkpt>
      <trkpt lat="45.08028" lon="6.15979">
        <ele>1366.4</ele>
        <time>2026-08-09T07:27:36Z</time>
      </trkpt>
      <trkpt lat="45.08031" lon="6.15982">
        <ele>1366.6</ele>
        <time>2026-08-09T07:27:38Z</time>
      </trkpt>
      <trkpt lat="45.08038" lon="6.15988">
        <ele>1366.8</ele>
        <time>2026-08-09T07:27:40Z</time>
      </trkpt>
      <trkpt lat="45.08043" lon="6.15995">
        <ele>1367</ele>
        <time>2026-08-09T07:27:42Z</time>
      </trkpt>
      <trkpt lat="45.08047" lon="6.15999">
        <ele>1367.4</ele>
        <time>2026-08-09T07:27:44Z</time>
      </trkpt>
      <trkpt lat="45.08052" lon="6.16005">
        <ele>1367.6</ele>
        <time>2026-08-09T07:27:45Z</time>
      </trkpt>
      <trkpt lat="45.08055" lon="6.16008">
        <ele>1367.8</ele>
        <time>2026-08-09T07:27:46Z</time>
      </trkpt>
      <trkpt lat="45.0806" lon="6.16014">
        <ele>1368</ele>
        <time>2026-08-09T07:27:48Z</time>
      </trkpt>
      <trkpt lat="45.08065" lon="6.16019">
        <ele>1368.2</ele>
        <time>2026-08-09T07:27:50Z</time>
      </trkpt>
      <trkpt lat="45.08071" lon="6.16024">
        <ele>1368.6</ele>
        <time>2026-08-09T07:27:52Z</time>
      </trkpt>
      <trkpt lat="45.08074" lon="6.16027">
        <ele>1368.6</ele>
        <time>2026-08-09T07:27:53Z</time>
      </trkpt>
      <trkpt lat="45.08077" lon="6.16031">
        <ele>1368.8</ele>
        <time>2026-08-09T07:27:54Z</time>
      </trkpt>
      <trkpt lat="45.08085" lon="6.16038">
        <ele>1369.4</ele>
        <time>2026-08-09T07:27:56Z</time>
      </trkpt>
      <trkpt lat="45.08091" lon="6.16045">
        <ele>1369.6</ele>
        <time>2026-08-09T07:27:58Z</time>
      </trkpt>
      <trkpt lat="45.08094" lon="6.16048">
        <ele>1369.8</ele>
        <time>2026-08-09T07:27:59Z</time>
      </trkpt>
      <trkpt lat="45.08097" lon="6.16051">
        <ele>1370</ele>
        <time>2026-08-09T07:28:00Z</time>
      </trkpt>
      <trkpt lat="45.08103" lon="6.16057">
        <ele>1370</ele>
        <time>2026-08-09T07:28:02Z</time>
      </trkpt>
      <trkpt lat="45.08115" lon="6.16066">
        <ele>1370.2</ele>
        <time>2026-08-09T07:28:04Z</time>
      </trkpt>
      <trkpt lat="45.08124" lon="6.16073">
        <ele>1370.4</ele>
        <time>2026-08-09T07:28:06Z</time>
      </trkpt>
      <trkpt lat="45.08133" lon="6.16082">
        <ele>1370.6</ele>
        <time>2026-08-09T07:28:08Z</time>
      </trkpt>
      <trkpt lat="45.08136" lon="6.16085">
        <ele>1370.8</ele>
        <time>2026-08-09T07:28:09Z</time>
      </trkpt>
      <trkpt lat="45.08141" lon="6.16089">
        <ele>1371</ele>
        <time>2026-08-09T07:28:10Z</time>
      </trkpt>
      <trkpt lat="45.08149" lon="6.16096">
        <ele>1371.4</ele>
        <time>2026-08-09T07:28:12Z</time>
      </trkpt>
      <trkpt lat="45.08156" lon="6.16104">
        <ele>1371.6</ele>
        <time>2026-08-09T07:28:14Z</time>
      </trkpt>
      <trkpt lat="45.0816" lon="6.16107">
        <ele>1372</ele>
        <time>2026-08-09T07:28:15Z</time>
      </trkpt>
      <trkpt lat="45.08164" lon="6.16109">
        <ele>1372</ele>
        <time>2026-08-09T07:28:16Z</time>
      </trkpt>
      <trkpt lat="45.08171" lon="6.16114">
        <ele>1372.4</ele>
        <time>2026-08-09T07:28:18Z</time>
      </trkpt>
      <trkpt lat="45.08177" lon="6.1612">
        <ele>1372.6</ele>
        <time>2026-08-09T07:28:20Z</time>
      </trkpt>
      <trkpt lat="45.08181" lon="6.16122">
        <ele>1372.8</ele>
        <time>2026-08-09T07:28:21Z</time>
      </trkpt>
      <trkpt lat="45.08185" lon="6.16125">
        <ele>1372.8</ele>
        <time>2026-08-09T07:28:22Z</time>
      </trkpt>
      <trkpt lat="45.08188" lon="6.16127">
        <ele>1373</ele>
        <time>2026-08-09T07:28:23Z</time>
      </trkpt>
      <trkpt lat="45.08191" lon="6.1613">
        <ele>1373</ele>
        <time>2026-08-09T07:28:24Z</time>
      </trkpt>
      <trkpt lat="45.08196" lon="6.16135">
        <ele>1373.2</ele>
        <time>2026-08-09T07:28:26Z</time>
      </trkpt>
      <trkpt lat="45.08202" lon="6.16139">
        <ele>1373.4</ele>
        <time>2026-08-09T07:28:28Z</time>
      </trkpt>
      <trkpt lat="45.08208" lon="6.16144">
        <ele>1373.4</ele>
        <time>2026-08-09T07:28:30Z</time>
      </trkpt>
      <trkpt lat="45.08217" lon="6.16148">
        <ele>1373.4</ele>
        <time>2026-08-09T07:28:32Z</time>
      </trkpt>
      <trkpt lat="45.08223" lon="6.16148">
        <ele>1373.6</ele>
        <time>2026-08-09T07:28:34Z</time>
      </trkpt>
      <trkpt lat="45.08231" lon="6.16144">
        <ele>1373.8</ele>
        <time>2026-08-09T07:28:36Z</time>
      </trkpt>
      <trkpt lat="45.08233" lon="6.1614">
        <ele>1374</ele>
        <time>2026-08-09T07:28:37Z</time>
      </trkpt>
      <trkpt lat="45.08234" lon="6.16136">
        <ele>1374.2</ele>
        <time>2026-08-09T07:28:38Z</time>
      </trkpt>
      <trkpt lat="45.08233" lon="6.16133">
        <ele>1374.6</ele>
        <time>2026-08-09T07:28:40Z</time>
      </trkpt>
      <trkpt lat="45.08229" lon="6.16129">
        <ele>1374.6</ele>
        <time>2026-08-09T07:28:41Z</time>
      </trkpt>
      <trkpt lat="45.08228" lon="6.16127">
        <ele>1374.8</ele>
        <time>2026-08-09T07:28:42Z</time>
      </trkpt>
      <trkpt lat="45.08226" lon="6.16125">
        <ele>1375</ele>
        <time>2026-08-09T07:28:43Z</time>
      </trkpt>
      <trkpt lat="45.08224" lon="6.16123">
        <ele>1375.2</ele>
        <time>2026-08-09T07:28:44Z</time>
      </trkpt>
      <trkpt lat="45.0822" lon="6.16119">
        <ele>1375.8</ele>
        <time>2026-08-09T07:28:46Z</time>
      </trkpt>
      <trkpt lat="45.08218" lon="6.16118">
        <ele>1376</ele>
        <time>2026-08-09T07:28:47Z</time>
      </trkpt>
      <trkpt lat="45.08216" lon="6.16116">
        <ele>1376.2</ele>
        <time>2026-08-09T07:28:48Z</time>
      </trkpt>
      <trkpt lat="45.08213" lon="6.16112">
        <ele>1376.6</ele>
        <time>2026-08-09T07:28:50Z</time>
      </trkpt>
      <trkpt lat="45.0821" lon="6.16108">
        <ele>1377</ele>
        <time>2026-08-09T07:28:52Z</time>
      </trkpt>
      <trkpt lat="45.08209" lon="6.16106">
        <ele>1377.4</ele>
        <time>2026-08-09T07:28:53Z</time>
      </trkpt>
      <trkpt lat="45.08208" lon="6.16104">
        <ele>1377.4</ele>
        <time>2026-08-09T07:28:54Z</time>
      </trkpt>
      <trkpt lat="45.08206" lon="6.16102">
        <ele>1377.6</ele>
        <time>2026-08-09T07:28:55Z</time>
      </trkpt>
      <trkpt lat="45.08205" lon="6.161">
        <ele>1377.8</ele>
        <time>2026-08-09T07:28:56Z</time>
      </trkpt>
      <trkpt lat="45.08201" lon="6.16097">
        <ele>1378.2</ele>
        <time>2026-08-09T07:28:58Z</time>
      </trkpt>
      <trkpt lat="45.08197" lon="6.16094">
        <ele>1378.4</ele>
        <time>2026-08-09T07:29:00Z</time>
      </trkpt>
      <trkpt lat="45.08194" lon="6.16089">
        <ele>1378.8</ele>
        <time>2026-08-09T07:29:02Z</time>
      </trkpt>
      <trkpt lat="45.08191" lon="6.16085">
        <ele>1379</ele>
        <time>2026-08-09T07:29:04Z</time>
      </trkpt>
      <trkpt lat="45.08187" lon="6.1608">
        <ele>1379</ele>
        <time>2026-08-09T07:29:06Z</time>
      </trkpt>
      <trkpt lat="45.08184" lon="6.16075">
        <ele>1379.4</ele>
        <time>2026-08-09T07:29:08Z</time>
      </trkpt>
      <trkpt lat="45.08182" lon="6.16071">
        <ele>1380</ele>
        <time>2026-08-09T07:29:10Z</time>
      </trkpt>
      <trkpt lat="45.08179" lon="6.16066">
        <ele>1380.2</ele>
        <time>2026-08-09T07:29:12Z</time>
      </trkpt>
      <trkpt lat="45.08176" lon="6.16062">
        <ele>1380.4</ele>
        <time>2026-08-09T07:29:14Z</time>
      </trkpt>
      <trkpt lat="45.08173" lon="6.16056">
        <ele>1380.8</ele>
        <time>2026-08-09T07:29:16Z</time>
      </trkpt>
      <trkpt lat="45.08171" lon="6.16051">
        <ele>1381</ele>
        <time>2026-08-09T07:29:18Z</time>
      </trkpt>
      <trkpt lat="45.0817" lon="6.16049">
        <ele>1381.2</ele>
        <time>2026-08-09T07:29:19Z</time>
      </trkpt>
      <trkpt lat="45.08168" lon="6.16046">
        <ele>1381.2</ele>
        <time>2026-08-09T07:29:20Z</time>
      </trkpt>
      <trkpt lat="45.08166" lon="6.16041">
        <ele>1381.6</ele>
        <time>2026-08-09T07:29:22Z</time>
      </trkpt>
      <trkpt lat="45.08164" lon="6.16037">
        <ele>1381.8</ele>
        <time>2026-08-09T07:29:24Z</time>
      </trkpt>
      <trkpt lat="45.08162" lon="6.16031">
        <ele>1382.4</ele>
        <time>2026-08-09T07:29:26Z</time>
      </trkpt>
      <trkpt lat="45.08161" lon="6.16029">
        <ele>1382.6</ele>
        <time>2026-08-09T07:29:27Z</time>
      </trkpt>
      <trkpt lat="45.0816" lon="6.16026">
        <ele>1382.8</ele>
        <time>2026-08-09T07:29:28Z</time>
      </trkpt>
      <trkpt lat="45.08158" lon="6.16021">
        <ele>1383.2</ele>
        <time>2026-08-09T07:29:30Z</time>
      </trkpt>
      <trkpt lat="45.08157" lon="6.16016">
        <ele>1383.6</ele>
        <time>2026-08-09T07:29:32Z</time>
      </trkpt>
      <trkpt lat="45.08156" lon="6.16014">
        <ele>1383.8</ele>
        <time>2026-08-09T07:29:33Z</time>
      </trkpt>
      <trkpt lat="45.08155" lon="6.16011">
        <ele>1384</ele>
        <time>2026-08-09T07:29:34Z</time>
      </trkpt>
      <trkpt lat="45.08154" lon="6.16005">
        <ele>1384.4</ele>
        <time>2026-08-09T07:29:36Z</time>
      </trkpt>
      <trkpt lat="45.08152" lon="6.16">
        <ele>1384.8</ele>
        <time>2026-08-09T07:29:38Z</time>
      </trkpt>
      <trkpt lat="45.08151" lon="6.15998">
        <ele>1385</ele>
        <time>2026-08-09T07:29:39Z</time>
      </trkpt>
      <trkpt lat="45.08151" lon="6.15995">
        <ele>1385.2</ele>
        <time>2026-08-09T07:29:40Z</time>
      </trkpt>
      <trkpt lat="45.0815" lon="6.15992">
        <ele>1385.2</ele>
        <time>2026-08-09T07:29:41Z</time>
      </trkpt>
      <trkpt lat="45.08149" lon="6.15989">
        <ele>1385.4</ele>
        <time>2026-08-09T07:29:42Z</time>
      </trkpt>
      <trkpt lat="45.08148" lon="6.15984">
        <ele>1385.8</ele>
        <time>2026-08-09T07:29:44Z</time>
      </trkpt>
      <trkpt lat="45.08145" lon="6.1598">
        <ele>1386</ele>
        <time>2026-08-09T07:29:46Z</time>
      </trkpt>
      <trkpt lat="45.08143" lon="6.15976">
        <ele>1386.4</ele>
        <time>2026-08-09T07:29:48Z</time>
      </trkpt>
      <trkpt lat="45.08141" lon="6.15972">
        <ele>1386.8</ele>
        <time>2026-08-09T07:29:50Z</time>
      </trkpt>
      <trkpt lat="45.08139" lon="6.1597">
        <ele>1387</ele>
        <time>2026-08-09T07:29:51Z</time>
      </trkpt>
      <trkpt lat="45.08138" lon="6.15968">
        <ele>1387.2</ele>
        <time>2026-08-09T07:29:52Z</time>
      </trkpt>
      <trkpt lat="45.08135" lon="6.15964">
        <ele>1387.6</ele>
        <time>2026-08-09T07:29:54Z</time>
      </trkpt>
      <trkpt lat="45.08132" lon="6.15961">
        <ele>1387.8</ele>
        <time>2026-08-09T07:29:56Z</time>
      </trkpt>
      <trkpt lat="45.08131" lon="6.15958">
        <ele>1387.8</ele>
        <time>2026-08-09T07:29:57Z</time>
      </trkpt>
      <trkpt lat="45.08131" lon="6.15956">
        <ele>1388</ele>
        <time>2026-08-09T07:29:58Z</time>
      </trkpt>
      <trkpt lat="45.08132" lon="6.15951">
        <ele>1388.2</ele>
        <time>2026-08-09T07:30:00Z</time>
      </trkpt>
      <trkpt lat="45.08133" lon="6.1595">
        <ele>1388.2</ele>
        <time>2026-08-09T07:30:01Z</time>
      </trkpt>
      <trkpt lat="45.08135" lon="6.1595">
        <ele>1388.4</ele>
        <time>2026-08-09T07:30:02Z</time>
      </trkpt>
      <trkpt lat="45.08138" lon="6.15952">
        <ele>1388.6</ele>
        <time>2026-08-09T07:30:04Z</time>
      </trkpt>
      <trkpt lat="45.08139" lon="6.15953">
        <ele>1388.8</ele>
        <time>2026-08-09T07:30:05Z</time>
      </trkpt>
      <trkpt lat="45.08141" lon="6.15956">
        <ele>1389</ele>
        <time>2026-08-09T07:30:06Z</time>
      </trkpt>
      <trkpt lat="45.08142" lon="6.15958">
        <ele>1389.2</ele>
        <time>2026-08-09T07:30:07Z</time>
      </trkpt>
      <trkpt lat="45.08144" lon="6.1596">
        <ele>1389.4</ele>
        <time>2026-08-09T07:30:08Z</time>
      </trkpt>
      <trkpt lat="45.08147" lon="6.15964">
        <ele>1390</ele>
        <time>2026-08-09T07:30:10Z</time>
      </trkpt>
      <trkpt lat="45.0815" lon="6.15969">
        <ele>1390.2</ele>
        <time>2026-08-09T07:30:12Z</time>
      </trkpt>
      <trkpt lat="45.08152" lon="6.15974">
        <ele>1390.4</ele>
        <time>2026-08-09T07:30:14Z</time>
      </trkpt>
      <trkpt lat="45.08155" lon="6.15979">
        <ele>1390.4</ele>
        <time>2026-08-09T07:30:16Z</time>
      </trkpt>
      <trkpt lat="45.08157" lon="6.15984">
        <ele>1390.8</ele>
        <time>2026-08-09T07:30:18Z</time>
      </trkpt>
      <trkpt lat="45.0816" lon="6.15989">
        <ele>1391</ele>
        <time>2026-08-09T07:30:20Z</time>
      </trkpt>
      <trkpt lat="45.08163" lon="6.15994">
        <ele>1391.2</ele>
        <time>2026-08-09T07:30:22Z</time>
      </trkpt>
      <trkpt lat="45.08165" lon="6.15998">
        <ele>1391.6</ele>
        <time>2026-08-09T07:30:24Z</time>
      </trkpt>
      <trkpt lat="45.08169" lon="6.16003">
        <ele>1391.8</ele>
        <time>2026-08-09T07:30:26Z</time>
      </trkpt>
      <trkpt lat="45.08172" lon="6.16007">
        <ele>1392.2</ele>
        <time>2026-08-09T07:30:28Z</time>
      </trkpt>
      <trkpt lat="45.08173" lon="6.16009">
        <ele>1392.2</ele>
        <time>2026-08-09T07:30:29Z</time>
      </trkpt>
      <trkpt lat="45.08175" lon="6.16011">
        <ele>1392.4</ele>
        <time>2026-08-09T07:30:30Z</time>
      </trkpt>
      <trkpt lat="45.08178" lon="6.16015">
        <ele>1392.6</ele>
        <time>2026-08-09T07:30:32Z</time>
      </trkpt>
      <trkpt lat="45.08182" lon="6.16017">
        <ele>1393.2</ele>
        <time>2026-08-09T07:30:34Z</time>
      </trkpt>
      <trkpt lat="45.08184" lon="6.16018">
        <ele>1393.4</ele>
        <time>2026-08-09T07:30:35Z</time>
      </trkpt>
      <trkpt lat="45.08185" lon="6.1602">
        <ele>1393.4</ele>
        <time>2026-08-09T07:30:36Z</time>
      </trkpt>
      <trkpt lat="45.08187" lon="6.16021">
        <ele>1393.6</ele>
        <time>2026-08-09T07:30:37Z</time>
      </trkpt>
      <trkpt lat="45.08189" lon="6.16022">
        <ele>1393.8</ele>
        <time>2026-08-09T07:30:38Z</time>
      </trkpt>
      <trkpt lat="45.08193" lon="6.16024">
        <ele>1394.2</ele>
        <time>2026-08-09T07:30:40Z</time>
      </trkpt>
      <trkpt lat="45.08197" lon="6.16027">
        <ele>1394.4</ele>
        <time>2026-08-09T07:30:42Z</time>
      </trkpt>
      <trkpt lat="45.082" lon="6.1603">
        <ele>1394.6</ele>
        <time>2026-08-09T07:30:44Z</time>
      </trkpt>
      <trkpt lat="45.08202" lon="6.16031">
        <ele>1395</ele>
        <time>2026-08-09T07:30:45Z</time>
      </trkpt>
      <trkpt lat="45.08204" lon="6.16032">
        <ele>1395.2</ele>
        <time>2026-08-09T07:30:46Z</time>
      </trkpt>
      <trkpt lat="45.08206" lon="6.16033">
        <ele>1395.4</ele>
        <time>2026-08-09T07:30:47Z</time>
      </trkpt>
      <trkpt lat="45.08208" lon="6.16034">
        <ele>1395.6</ele>
        <time>2026-08-09T07:30:48Z</time>
      </trkpt>
      <trkpt lat="45.08212" lon="6.16035">
        <ele>1395.8</ele>
        <time>2026-08-09T07:30:50Z</time>
      </trkpt>
      <trkpt lat="45.08215" lon="6.16036">
        <ele>1396.2</ele>
        <time>2026-08-09T07:30:52Z</time>
      </trkpt>
      <trkpt lat="45.08217" lon="6.16036">
        <ele>1396.4</ele>
        <time>2026-08-09T07:30:53Z</time>
      </trkpt>
      <trkpt lat="45.08219" lon="6.16037">
        <ele>1396.6</ele>
        <time>2026-08-09T07:30:54Z</time>
      </trkpt>
      <trkpt lat="45.08223" lon="6.16038">
        <ele>1396.8</ele>
        <time>2026-08-09T07:30:56Z</time>
      </trkpt>
      <trkpt lat="45.08227" lon="6.16038">
        <ele>1397</ele>
        <time>2026-08-09T07:30:58Z</time>
      </trkpt>
      <trkpt lat="45.08231" lon="6.16038">
        <ele>1397.2</ele>
        <time>2026-08-09T07:31:00Z</time>
      </trkpt>
      <trkpt lat="45.08236" lon="6.16038">
        <ele>1397.4</ele>
        <time>2026-08-09T07:31:02Z</time>
      </trkpt>
      <trkpt lat="45.08239" lon="6.16039">
        <ele>1397.6</ele>
        <time>2026-08-09T07:31:04Z</time>
      </trkpt>
      <trkpt lat="45.08244" lon="6.16038">
        <ele>1398</ele>
        <time>2026-08-09T07:31:06Z</time>
      </trkpt>
      <trkpt lat="45.08248" lon="6.16038">
        <ele>1398.4</ele>
        <time>2026-08-09T07:31:08Z</time>
      </trkpt>
      <trkpt lat="45.0825" lon="6.16039">
        <ele>1398.4</ele>
        <time>2026-08-09T07:31:09Z</time>
      </trkpt>
      <trkpt lat="45.08252" lon="6.16039">
        <ele>1398.8</ele>
        <time>2026-08-09T07:31:10Z</time>
      </trkpt>
      <trkpt lat="45.08254" lon="6.16039">
        <ele>1399</ele>
        <time>2026-08-09T07:31:11Z</time>
      </trkpt>
      <trkpt lat="45.08255" lon="6.16039">
        <ele>1399.2</ele>
        <time>2026-08-09T07:31:12Z</time>
      </trkpt>
      <trkpt lat="45.08259" lon="6.1604">
        <ele>1399.6</ele>
        <time>2026-08-09T07:31:14Z</time>
      </trkpt>
      <trkpt lat="45.08264" lon="6.1604">
        <ele>1400.2</ele>
        <time>2026-08-09T07:31:16Z</time>
      </trkpt>
      <trkpt lat="45.08268" lon="6.1604">
        <ele>1400.6</ele>
        <time>2026-08-09T07:31:18Z</time>
      </trkpt>
      <trkpt lat="45.0827" lon="6.1604">
        <ele>1400.8</ele>
        <time>2026-08-09T07:31:19Z</time>
      </trkpt>
      <trkpt lat="45.08272" lon="6.1604">
        <ele>1401</ele>
        <time>2026-08-09T07:31:20Z</time>
      </trkpt>
      <trkpt lat="45.08275" lon="6.16042">
        <ele>1401.2</ele>
        <time>2026-08-09T07:31:22Z</time>
      </trkpt>
      <trkpt lat="45.08279" lon="6.16043">
        <ele>1401.6</ele>
        <time>2026-08-09T07:31:24Z</time>
      </trkpt>
      <trkpt lat="45.08282" lon="6.16045">
        <ele>1402</ele>
        <time>2026-08-09T07:31:26Z</time>
      </trkpt>
      <trkpt lat="45.08286" lon="6.16047">
        <ele>1402.4</ele>
        <time>2026-08-09T07:31:28Z</time>
      </trkpt>
      <trkpt lat="45.08288" lon="6.16048">
        <ele>1402.4</ele>
        <time>2026-08-09T07:31:29Z</time>
      </trkpt>
      <trkpt lat="45.08289" lon="6.16049">
        <ele>1402.6</ele>
        <time>2026-08-09T07:31:30Z</time>
      </trkpt>
      <trkpt lat="45.08293" lon="6.16051">
        <ele>1403</ele>
        <time>2026-08-09T07:31:32Z</time>
      </trkpt>
      <trkpt lat="45.08297" lon="6.16054">
        <ele>1403.4</ele>
        <time>2026-08-09T07:31:34Z</time>
      </trkpt>
      <trkpt lat="45.083" lon="6.16057">
        <ele>1403.6</ele>
        <time>2026-08-09T07:31:36Z</time>
      </trkpt>
      <trkpt lat="45.08303" lon="6.1606">
        <ele>1403.8</ele>
        <time>2026-08-09T07:31:38Z</time>
      </trkpt>
      <trkpt lat="45.08307" lon="6.16063">
        <ele>1404.2</ele>
        <time>2026-08-09T07:31:40Z</time>
      </trkpt>
      <trkpt lat="45.08311" lon="6.16065">
        <ele>1404.4</ele>
        <time>2026-08-09T07:31:42Z</time>
      </trkpt>
      <trkpt lat="45.08315" lon="6.16068">
        <ele>1405</ele>
        <time>2026-08-09T07:31:44Z</time>
      </trkpt>
      <trkpt lat="45.0832" lon="6.16071">
        <ele>1405.4</ele>
        <time>2026-08-09T07:31:46Z</time>
      </trkpt>
      <trkpt lat="45.08323" lon="6.16074">
        <ele>1405.6</ele>
        <time>2026-08-09T07:31:48Z</time>
      </trkpt>
      <trkpt lat="45.08327" lon="6.16076">
        <ele>1405.8</ele>
        <time>2026-08-09T07:31:50Z</time>
      </trkpt>
      <trkpt lat="45.08328" lon="6.16078">
        <ele>1405.8</ele>
        <time>2026-08-09T07:31:51Z</time>
      </trkpt>
      <trkpt lat="45.0833" lon="6.16079">
        <ele>1406</ele>
        <time>2026-08-09T07:31:52Z</time>
      </trkpt>
      <trkpt lat="45.08334" lon="6.16082">
        <ele>1406.4</ele>
        <time>2026-08-09T07:31:54Z</time>
      </trkpt>
      <trkpt lat="45.08337" lon="6.16086">
        <ele>1406.6</ele>
        <time>2026-08-09T07:31:56Z</time>
      </trkpt>
      <trkpt lat="45.08341" lon="6.16088">
        <ele>1407</ele>
        <time>2026-08-09T07:31:58Z</time>
      </trkpt>
      <trkpt lat="45.08343" lon="6.1609">
        <ele>1407.2</ele>
        <time>2026-08-09T07:31:59Z</time>
      </trkpt>
      <trkpt lat="45.08345" lon="6.16092">
        <ele>1407.2</ele>
        <time>2026-08-09T07:32:00Z</time>
      </trkpt>
      <trkpt lat="45.08349" lon="6.16095">
        <ele>1407.6</ele>
        <time>2026-08-09T07:32:02Z</time>
      </trkpt>
      <trkpt lat="45.08353" lon="6.16099">
        <ele>1407.8</ele>
        <time>2026-08-09T07:32:04Z</time>
      </trkpt>
      <trkpt lat="45.08357" lon="6.16103">
        <ele>1408</ele>
        <time>2026-08-09T07:32:06Z</time>
      </trkpt>
      <trkpt lat="45.0836" lon="6.16107">
        <ele>1408.2</ele>
        <time>2026-08-09T07:32:08Z</time>
      </trkpt>
      <trkpt lat="45.08364" lon="6.16112">
        <ele>1408.4</ele>
        <time>2026-08-09T07:32:10Z</time>
      </trkpt>
      <trkpt lat="45.08368" lon="6.16116">
        <ele>1408.6</ele>
        <time>2026-08-09T07:32:12Z</time>
      </trkpt>
      <trkpt lat="45.08372" lon="6.16119">
        <ele>1408.8</ele>
        <time>2026-08-09T07:32:14Z</time>
      </trkpt>
      <trkpt lat="45.08373" lon="6.16121">
        <ele>1408.8</ele>
        <time>2026-08-09T07:32:15Z</time>
      </trkpt>
      <trkpt lat="45.08375" lon="6.16123">
        <ele>1408.8</ele>
        <time>2026-08-09T07:32:16Z</time>
      </trkpt>
      <trkpt lat="45.08378" lon="6.16126">
        <ele>1409</ele>
        <time>2026-08-09T07:32:18Z</time>
      </trkpt>
      <trkpt lat="45.08382" lon="6.16128">
        <ele>1409.4</ele>
        <time>2026-08-09T07:32:20Z</time>
      </trkpt>
      <trkpt lat="45.08387" lon="6.1613">
        <ele>1409.6</ele>
        <time>2026-08-09T07:32:22Z</time>
      </trkpt>
      <trkpt lat="45.08389" lon="6.16131">
        <ele>1409.6</ele>
        <time>2026-08-09T07:32:23Z</time>
      </trkpt>
      <trkpt lat="45.08391" lon="6.16132">
        <ele>1409.8</ele>
        <time>2026-08-09T07:32:24Z</time>
      </trkpt>
      <trkpt lat="45.08395" lon="6.16133">
        <ele>1410.2</ele>
        <time>2026-08-09T07:32:26Z</time>
      </trkpt>
      <trkpt lat="45.08399" lon="6.16134">
        <ele>1410.4</ele>
        <time>2026-08-09T07:32:28Z</time>
      </trkpt>
      <trkpt lat="45.08403" lon="6.16135">
        <ele>1410.8</ele>
        <time>2026-08-09T07:32:30Z</time>
      </trkpt>
      <trkpt lat="45.08406" lon="6.16136">
        <ele>1411.2</ele>
        <time>2026-08-09T07:32:32Z</time>
      </trkpt>
      <trkpt lat="45.0841" lon="6.16137">
        <ele>1411.6</ele>
        <time>2026-08-09T07:32:34Z</time>
      </trkpt>
      <trkpt lat="45.08413" lon="6.16139">
        <ele>1412</ele>
        <time>2026-08-09T07:32:36Z</time>
      </trkpt>
      <trkpt lat="45.08417" lon="6.1614">
        <ele>1412.2</ele>
        <time>2026-08-09T07:32:38Z</time>
      </trkpt>
      <trkpt lat="45.08419" lon="6.1614">
        <ele>1412.6</ele>
        <time>2026-08-09T07:32:39Z</time>
      </trkpt>
      <trkpt lat="45.08421" lon="6.1614">
        <ele>1412.8</ele>
        <time>2026-08-09T07:32:40Z</time>
      </trkpt>
      <trkpt lat="45.08424" lon="6.16139">
        <ele>1413.2</ele>
        <time>2026-08-09T07:32:42Z</time>
      </trkpt>
      <trkpt lat="45.08431" lon="6.16139">
        <ele>1413.4</ele>
        <time>2026-08-09T07:32:44Z</time>
      </trkpt>
      <trkpt lat="45.08435" lon="6.16139">
        <ele>1413.8</ele>
        <time>2026-08-09T07:32:46Z</time>
      </trkpt>
      <trkpt lat="45.08437" lon="6.16139">
        <ele>1414</ele>
        <time>2026-08-09T07:32:47Z</time>
      </trkpt>
      <trkpt lat="45.08439" lon="6.16139">
        <ele>1414</ele>
        <time>2026-08-09T07:32:48Z</time>
      </trkpt>
      <trkpt lat="45.08443" lon="6.16138">
        <ele>1414.4</ele>
        <time>2026-08-09T07:32:50Z</time>
      </trkpt>
      <trkpt lat="45.08448" lon="6.16137">
        <ele>1414.6</ele>
        <time>2026-08-09T07:32:52Z</time>
      </trkpt>
      <trkpt lat="45.08452" lon="6.16136">
        <ele>1415</ele>
        <time>2026-08-09T07:32:54Z</time>
      </trkpt>
      <trkpt lat="45.08454" lon="6.16135">
        <ele>1415</ele>
        <time>2026-08-09T07:32:55Z</time>
      </trkpt>
      <trkpt lat="45.08457" lon="6.16134">
        <ele>1415.2</ele>
        <time>2026-08-09T07:32:56Z</time>
      </trkpt>
      <trkpt lat="45.08461" lon="6.16134">
        <ele>1415.6</ele>
        <time>2026-08-09T07:32:58Z</time>
      </trkpt>
      <trkpt lat="45.08465" lon="6.16133">
        <ele>1415.8</ele>
        <time>2026-08-09T07:33:00Z</time>
      </trkpt>
      <trkpt lat="45.08469" lon="6.16132">
        <ele>1416.2</ele>
        <time>2026-08-09T07:33:02Z</time>
      </trkpt>
      <trkpt lat="45.08473" lon="6.16131">
        <ele>1416.6</ele>
        <time>2026-08-09T07:33:04Z</time>
      </trkpt>
      <trkpt lat="45.08478" lon="6.1613">
        <ele>1417</ele>
        <time>2026-08-09T07:33:06Z</time>
      </trkpt>
      <trkpt lat="45.08482" lon="6.16129">
        <ele>1417.4</ele>
        <time>2026-08-09T07:33:08Z</time>
      </trkpt>
      <trkpt lat="45.08486" lon="6.16128">
        <ele>1417.8</ele>
        <time>2026-08-09T07:33:10Z</time>
      </trkpt>
      <trkpt lat="45.08491" lon="6.16127">
        <ele>1418.2</ele>
        <time>2026-08-09T07:33:12Z</time>
      </trkpt>
      <trkpt lat="45.08493" lon="6.16126">
        <ele>1418.4</ele>
        <time>2026-08-09T07:33:13Z</time>
      </trkpt>
      <trkpt lat="45.08495" lon="6.16126">
        <ele>1418.4</ele>
        <time>2026-08-09T07:33:14Z</time>
      </trkpt>
      <trkpt lat="45.08498" lon="6.16126">
        <ele>1418.8</ele>
        <time>2026-08-09T07:33:16Z</time>
      </trkpt>
      <trkpt lat="45.08502" lon="6.16125">
        <ele>1419.2</ele>
        <time>2026-08-09T07:33:18Z</time>
      </trkpt>
      <trkpt lat="45.08507" lon="6.16124">
        <ele>1419.6</ele>
        <time>2026-08-09T07:33:20Z</time>
      </trkpt>
      <trkpt lat="45.08509" lon="6.16124">
        <ele>1419.8</ele>
        <time>2026-08-09T07:33:21Z</time>
      </trkpt>
      <trkpt lat="45.08511" lon="6.16123">
        <ele>1420</ele>
        <time>2026-08-09T07:33:22Z</time>
      </trkpt>
      <trkpt lat="45.08515" lon="6.16122">
        <ele>1420.4</ele>
        <time>2026-08-09T07:33:24Z</time>
      </trkpt>
      <trkpt lat="45.08519" lon="6.16121">
        <ele>1420.6</ele>
        <time>2026-08-09T07:33:26Z</time>
      </trkpt>
      <trkpt lat="45.08523" lon="6.16121">
        <ele>1420.8</ele>
        <time>2026-08-09T07:33:28Z</time>
      </trkpt>
      <trkpt lat="45.08527" lon="6.1612">
        <ele>1421</ele>
        <time>2026-08-09T07:33:30Z</time>
      </trkpt>
      <trkpt lat="45.08529" lon="6.1612">
        <ele>1421.2</ele>
        <time>2026-08-09T07:33:31Z</time>
      </trkpt>
      <trkpt lat="45.08531" lon="6.16119">
        <ele>1421.4</ele>
        <time>2026-08-09T07:33:32Z</time>
      </trkpt>
      <trkpt lat="45.08535" lon="6.16119">
        <ele>1421.6</ele>
        <time>2026-08-09T07:33:34Z</time>
      </trkpt>
      <trkpt lat="45.08539" lon="6.16118">
        <ele>1422</ele>
        <time>2026-08-09T07:33:36Z</time>
      </trkpt>
      <trkpt lat="45.08541" lon="6.16118">
        <ele>1422.4</ele>
        <time>2026-08-09T07:33:37Z</time>
      </trkpt>
      <trkpt lat="45.08543" lon="6.16118">
        <ele>1422.6</ele>
        <time>2026-08-09T07:33:38Z</time>
      </trkpt>
      <trkpt lat="45.08547" lon="6.16117">
        <ele>1422.8</ele>
        <time>2026-08-09T07:33:40Z</time>
      </trkpt>
      <trkpt lat="45.08551" lon="6.16118">
        <ele>1423.2</ele>
        <time>2026-08-09T07:33:42Z</time>
      </trkpt>
      <trkpt lat="45.08554" lon="6.16119">
        <ele>1423.6</ele>
        <time>2026-08-09T07:33:44Z</time>
      </trkpt>
      <trkpt lat="45.08556" lon="6.1612">
        <ele>1423.8</ele>
        <time>2026-08-09T07:33:45Z</time>
      </trkpt>
      <trkpt lat="45.08558" lon="6.1612">
        <ele>1423.8</ele>
        <time>2026-08-09T07:33:46Z</time>
      </trkpt>
      <trkpt lat="45.08561" lon="6.16122">
        <ele>1424</ele>
        <time>2026-08-09T07:33:48Z</time>
      </trkpt>
      <trkpt lat="45.08565" lon="6.16123">
        <ele>1424.4</ele>
        <time>2026-08-09T07:33:50Z</time>
      </trkpt>
      <trkpt lat="45.08566" lon="6.16123">
        <ele>1424.6</ele>
        <time>2026-08-09T07:33:51Z</time>
      </trkpt>
      <trkpt lat="45.08568" lon="6.16124">
        <ele>1424.8</ele>
        <time>2026-08-09T07:33:52Z</time>
      </trkpt>
      <trkpt lat="45.08569" lon="6.16125">
        <ele>1424.8</ele>
        <time>2026-08-09T07:33:53Z</time>
      </trkpt>
      <trkpt lat="45.08571" lon="6.16125">
        <ele>1425</ele>
        <time>2026-08-09T07:33:54Z</time>
      </trkpt>
      <trkpt lat="45.08575" lon="6.16126">
        <ele>1425.2</ele>
        <time>2026-08-09T07:33:56Z</time>
      </trkpt>
      <trkpt lat="45.08578" lon="6.16128">
        <ele>1425.6</ele>
        <time>2026-08-09T07:33:58Z</time>
      </trkpt>
      <trkpt lat="45.0858" lon="6.16128">
        <ele>1425.6</ele>
        <time>2026-08-09T07:33:59Z</time>
      </trkpt>
      <trkpt lat="45.08581" lon="6.16129">
        <ele>1425.8</ele>
        <time>2026-08-09T07:34:00Z</time>
      </trkpt>
      <trkpt lat="45.08585" lon="6.16131">
        <ele>1426</ele>
        <time>2026-08-09T07:34:02Z</time>
      </trkpt>
      <trkpt lat="45.08588" lon="6.16133">
        <ele>1426.2</ele>
        <time>2026-08-09T07:34:04Z</time>
      </trkpt>
      <trkpt lat="45.0859" lon="6.16134">
        <ele>1426.6</ele>
        <time>2026-08-09T07:34:05Z</time>
      </trkpt>
      <trkpt lat="45.08591" lon="6.16136">
        <ele>1426.8</ele>
        <time>2026-08-09T07:34:06Z</time>
      </trkpt>
      <trkpt lat="45.08592" lon="6.16137">
        <ele>1427</ele>
        <time>2026-08-09T07:34:07Z</time>
      </trkpt>
      <trkpt lat="45.08593" lon="6.16138">
        <ele>1427.2</ele>
        <time>2026-08-09T07:34:08Z</time>
      </trkpt>
      <trkpt lat="45.08596" lon="6.1614">
        <ele>1427.6</ele>
        <time>2026-08-09T07:34:10Z</time>
      </trkpt>
      <trkpt lat="45.08598" lon="6.16141">
        <ele>1427.8</ele>
        <time>2026-08-09T07:34:11Z</time>
      </trkpt>
      <trkpt lat="45.086" lon="6.16141">
        <ele>1428</ele>
        <time>2026-08-09T07:34:12Z</time>
      </trkpt>
      <trkpt lat="45.08604" lon="6.16143">
        <ele>1428.6</ele>
        <time>2026-08-09T07:34:14Z</time>
      </trkpt>
      <trkpt lat="45.08606" lon="6.16144">
        <ele>1428.8</ele>
        <time>2026-08-09T07:34:15Z</time>
      </trkpt>
      <trkpt lat="45.08608" lon="6.16145">
        <ele>1429</ele>
        <time>2026-08-09T07:34:16Z</time>
      </trkpt>
      <trkpt lat="45.08611" lon="6.16147">
        <ele>1429.6</ele>
        <time>2026-08-09T07:34:18Z</time>
      </trkpt>
      <trkpt lat="45.08614" lon="6.16148">
        <ele>1429.8</ele>
        <time>2026-08-09T07:34:20Z</time>
      </trkpt>
      <trkpt lat="45.08618" lon="6.16149">
        <ele>1430.2</ele>
        <time>2026-08-09T07:34:22Z</time>
      </trkpt>
      <trkpt lat="45.08622" lon="6.16148">
        <ele>1430.4</ele>
        <time>2026-08-09T07:34:24Z</time>
      </trkpt>
      <trkpt lat="45.08625" lon="6.16146">
        <ele>1430.8</ele>
        <time>2026-08-09T07:34:26Z</time>
      </trkpt>
      <trkpt lat="45.08627" lon="6.16145">
        <ele>1431</ele>
        <time>2026-08-09T07:34:27Z</time>
      </trkpt>
      <trkpt lat="45.08628" lon="6.16144">
        <ele>1431.2</ele>
        <time>2026-08-09T07:34:28Z</time>
      </trkpt>
      <trkpt lat="45.08632" lon="6.16142">
        <ele>1431.6</ele>
        <time>2026-08-09T07:34:30Z</time>
      </trkpt>
      <trkpt lat="45.08635" lon="6.1614">
        <ele>1431.8</ele>
        <time>2026-08-09T07:34:32Z</time>
      </trkpt>
      <trkpt lat="45.08637" lon="6.16138">
        <ele>1432</ele>
        <time>2026-08-09T07:34:33Z</time>
      </trkpt>
      <trkpt lat="45.08638" lon="6.16137">
        <ele>1432.4</ele>
        <time>2026-08-09T07:34:34Z</time>
      </trkpt>
      <trkpt lat="45.0864" lon="6.16135">
        <ele>1432.6</ele>
        <time>2026-08-09T07:34:36Z</time>
      </trkpt>
      <trkpt lat="45.08643" lon="6.16133">
        <ele>1433</ele>
        <time>2026-08-09T07:34:38Z</time>
      </trkpt>
      <trkpt lat="45.08644" lon="6.16132">
        <ele>1433.2</ele>
        <time>2026-08-09T07:34:39Z</time>
      </trkpt>
      <trkpt lat="45.08646" lon="6.1613">
        <ele>1433.4</ele>
        <time>2026-08-09T07:34:40Z</time>
      </trkpt>
      <trkpt lat="45.0865" lon="6.16128">
        <ele>1433.6</ele>
        <time>2026-08-09T07:34:42Z</time>
      </trkpt>
      <trkpt lat="45.08655" lon="6.16127">
        <ele>1433.8</ele>
        <time>2026-08-09T07:34:44Z</time>
      </trkpt>
      <trkpt lat="45.0866" lon="6.16127">
        <ele>1434.2</ele>
        <time>2026-08-09T07:34:46Z</time>
      </trkpt>
      <trkpt lat="45.08665" lon="6.16125">
        <ele>1434.6</ele>
        <time>2026-08-09T07:34:48Z</time>
      </trkpt>
      <trkpt lat="45.08669" lon="6.16125">
        <ele>1435</ele>
        <time>2026-08-09T07:34:50Z</time>
      </trkpt>
      <trkpt lat="45.08674" lon="6.16125">
        <ele>1435.4</ele>
        <time>2026-08-09T07:34:52Z</time>
      </trkpt>
      <trkpt lat="45.08676" lon="6.16125">
        <ele>1435.6</ele>
        <time>2026-08-09T07:34:53Z</time>
      </trkpt>
      <trkpt lat="45.08678" lon="6.16126">
        <ele>1435.8</ele>
        <time>2026-08-09T07:34:54Z</time>
      </trkpt>
      <trkpt lat="45.08683" lon="6.16125">
        <ele>1436</ele>
        <time>2026-08-09T07:34:56Z</time>
      </trkpt>
      <trkpt lat="45.08688" lon="6.16125">
        <ele>1436.4</ele>
        <time>2026-08-09T07:34:58Z</time>
      </trkpt>
      <trkpt lat="45.0869" lon="6.16126">
        <ele>1436.6</ele>
        <time>2026-08-09T07:34:59Z</time>
      </trkpt>
      <trkpt lat="45.08692" lon="6.16128">
        <ele>1436.6</ele>
        <time>2026-08-09T07:35:00Z</time>
      </trkpt>
      <trkpt lat="45.08696" lon="6.1613">
        <ele>1437.2</ele>
        <time>2026-08-09T07:35:02Z</time>
      </trkpt>
      <trkpt lat="45.08701" lon="6.16131">
        <ele>1437.4</ele>
        <time>2026-08-09T07:35:04Z</time>
      </trkpt>
      <trkpt lat="45.08703" lon="6.16132">
        <ele>1437.4</ele>
        <time>2026-08-09T07:35:05Z</time>
      </trkpt>
      <trkpt lat="45.08705" lon="6.16134">
        <ele>1437.6</ele>
        <time>2026-08-09T07:35:06Z</time>
      </trkpt>
      <trkpt lat="45.08708" lon="6.16135">
        <ele>1438</ele>
        <time>2026-08-09T07:35:08Z</time>
      </trkpt>
      <trkpt lat="45.08712" lon="6.16137">
        <ele>1438.4</ele>
        <time>2026-08-09T07:35:10Z</time>
      </trkpt>
      <trkpt lat="45.08714" lon="6.16137">
        <ele>1438.6</ele>
        <time>2026-08-09T07:35:11Z</time>
      </trkpt>
      <trkpt lat="45.08716" lon="6.16138">
        <ele>1438.6</ele>
        <time>2026-08-09T07:35:12Z</time>
      </trkpt>
      <trkpt lat="45.08719" lon="6.1614">
        <ele>1439</ele>
        <time>2026-08-09T07:35:14Z</time>
      </trkpt>
      <trkpt lat="45.08722" lon="6.1614">
        <ele>1439.4</ele>
        <time>2026-08-09T07:35:16Z</time>
      </trkpt>
      <trkpt lat="45.08723" lon="6.16141">
        <ele>1439.4</ele>
        <time>2026-08-09T07:35:17Z</time>
      </trkpt>
      <trkpt lat="45.08726" lon="6.16141">
        <ele>1439.4</ele>
        <time>2026-08-09T07:35:18Z</time>
      </trkpt>
      <trkpt lat="45.0873" lon="6.16141">
        <ele>1439.6</ele>
        <time>2026-08-09T07:35:20Z</time>
      </trkpt>
      <trkpt lat="45.08733" lon="6.16143">
        <ele>1439.8</ele>
        <time>2026-08-09T07:35:22Z</time>
      </trkpt>
      <trkpt lat="45.08736" lon="6.16144">
        <ele>1440.2</ele>
        <time>2026-08-09T07:35:24Z</time>
      </trkpt>
      <trkpt lat="45.08739" lon="6.16146">
        <ele>1440.4</ele>
        <time>2026-08-09T07:35:26Z</time>
      </trkpt>
      <trkpt lat="45.08742" lon="6.16147">
        <ele>1440.8</ele>
        <time>2026-08-09T07:35:28Z</time>
      </trkpt>
      <trkpt lat="45.08743" lon="6.16147">
        <ele>1441</ele>
        <time>2026-08-09T07:35:29Z</time>
      </trkpt>
      <trkpt lat="45.08744" lon="6.16148">
        <ele>1441.2</ele>
        <time>2026-08-09T07:35:30Z</time>
      </trkpt>
      <trkpt lat="45.08745" lon="6.1615">
        <ele>1441.8</ele>
        <time>2026-08-09T07:35:31Z</time>
      </trkpt>
      <trkpt lat="45.08747" lon="6.1615">
        <ele>1441.6</ele>
        <time>2026-08-09T07:35:32Z</time>
      </trkpt>
      <trkpt lat="45.08751" lon="6.16153">
        <ele>1442</ele>
        <time>2026-08-09T07:35:34Z</time>
      </trkpt>
      <trkpt lat="45.08757" lon="6.16154">
        <ele>1442.4</ele>
        <time>2026-08-09T07:35:36Z</time>
      </trkpt>
      <trkpt lat="45.08758" lon="6.16155">
        <ele>1442.6</ele>
        <time>2026-08-09T07:35:37Z</time>
      </trkpt>
      <trkpt lat="45.0876" lon="6.16155">
        <ele>1442.8</ele>
        <time>2026-08-09T07:35:38Z</time>
      </trkpt>
      <trkpt lat="45.08764" lon="6.16157">
        <ele>1443.2</ele>
        <time>2026-08-09T07:35:40Z</time>
      </trkpt>
      <trkpt lat="45.08768" lon="6.16159">
        <ele>1443.4</ele>
        <time>2026-08-09T07:35:42Z</time>
      </trkpt>
      <trkpt lat="45.08771" lon="6.1616">
        <ele>1443.6</ele>
        <time>2026-08-09T07:35:44Z</time>
      </trkpt>
      <trkpt lat="45.08775" lon="6.16161">
        <ele>1444</ele>
        <time>2026-08-09T07:35:46Z</time>
      </trkpt>
      <trkpt lat="45.08778" lon="6.16163">
        <ele>1444.4</ele>
        <time>2026-08-09T07:35:48Z</time>
      </trkpt>
      <trkpt lat="45.08782" lon="6.16164">
        <ele>1444.8</ele>
        <time>2026-08-09T07:35:50Z</time>
      </trkpt>
      <trkpt lat="45.08785" lon="6.16167">
        <ele>1445</ele>
        <time>2026-08-09T07:35:52Z</time>
      </trkpt>
      <trkpt lat="45.08788" lon="6.16169">
        <ele>1445.4</ele>
        <time>2026-08-09T07:35:54Z</time>
      </trkpt>
      <trkpt lat="45.0879" lon="6.16172">
        <ele>1445.8</ele>
        <time>2026-08-09T07:35:56Z</time>
      </trkpt>
      <trkpt lat="45.08792" lon="6.16175">
        <ele>1446.2</ele>
        <time>2026-08-09T07:35:58Z</time>
      </trkpt>
      <trkpt lat="45.08796" lon="6.16178">
        <ele>1446.8</ele>
        <time>2026-08-09T07:36:00Z</time>
      </trkpt>
      <trkpt lat="45.08799" lon="6.16179">
        <ele>1446.8</ele>
        <time>2026-08-09T07:36:01Z</time>
      </trkpt>
      <trkpt lat="45.08801" lon="6.16181">
        <ele>1447</ele>
        <time>2026-08-09T07:36:02Z</time>
      </trkpt>
      <trkpt lat="45.08804" lon="6.16183">
        <ele>1447.4</ele>
        <time>2026-08-09T07:36:04Z</time>
      </trkpt>
      <trkpt lat="45.08807" lon="6.16186">
        <ele>1447.6</ele>
        <time>2026-08-09T07:36:06Z</time>
      </trkpt>
      <trkpt lat="45.08809" lon="6.16189">
        <ele>1448</ele>
        <time>2026-08-09T07:36:08Z</time>
      </trkpt>
      <trkpt lat="45.08812" lon="6.16192">
        <ele>1448.4</ele>
        <time>2026-08-09T07:36:10Z</time>
      </trkpt>
      <trkpt lat="45.08814" lon="6.16194">
        <ele>1448.6</ele>
        <time>2026-08-09T07:36:12Z</time>
      </trkpt>
      <trkpt lat="45.08816" lon="6.16197">
        <ele>1449</ele>
        <time>2026-08-09T07:36:14Z</time>
      </trkpt>
      <trkpt lat="45.08817" lon="6.16199">
        <ele>1449.2</ele>
        <time>2026-08-09T07:36:15Z</time>
      </trkpt>
      <trkpt lat="45.08818" lon="6.162">
        <ele>1449.2</ele>
        <time>2026-08-09T07:36:16Z</time>
      </trkpt>
      <trkpt lat="45.08821" lon="6.16202">
        <ele>1449.4</ele>
        <time>2026-08-09T07:36:18Z</time>
      </trkpt>
      <trkpt lat="45.08824" lon="6.16205">
        <ele>1449.8</ele>
        <time>2026-08-09T07:36:20Z</time>
      </trkpt>
      <trkpt lat="45.08828" lon="6.16207">
        <ele>1450.2</ele>
        <time>2026-08-09T07:36:22Z</time>
      </trkpt>
      <trkpt lat="45.08831" lon="6.1621">
        <ele>1450.4</ele>
        <time>2026-08-09T07:36:24Z</time>
      </trkpt>
      <trkpt lat="45.08835" lon="6.16213">
        <ele>1450.4</ele>
        <time>2026-08-09T07:36:26Z</time>
      </trkpt>
      <trkpt lat="45.08838" lon="6.16217">
        <ele>1451</ele>
        <time>2026-08-09T07:36:28Z</time>
      </trkpt>
      <trkpt lat="45.0884" lon="6.1622">
        <ele>1451.2</ele>
        <time>2026-08-09T07:36:29Z</time>
      </trkpt>
      <trkpt lat="45.08842" lon="6.16221">
        <ele>1451.4</ele>
        <time>2026-08-09T07:36:30Z</time>
      </trkpt>
      <trkpt lat="45.08846" lon="6.16225">
        <ele>1451.8</ele>
        <time>2026-08-09T07:36:32Z</time>
      </trkpt>
      <trkpt lat="45.08849" lon="6.16229">
        <ele>1452.2</ele>
        <time>2026-08-09T07:36:34Z</time>
      </trkpt>
      <trkpt lat="45.08853" lon="6.16233">
        <ele>1452.8</ele>
        <time>2026-08-09T07:36:36Z</time>
      </trkpt>
      <trkpt lat="45.08858" lon="6.16237">
        <ele>1453.2</ele>
        <time>2026-08-09T07:36:38Z</time>
      </trkpt>
      <trkpt lat="45.0886" lon="6.16239">
        <ele>1453.4</ele>
        <time>2026-08-09T07:36:39Z</time>
      </trkpt>
      <trkpt lat="45.08862" lon="6.1624">
        <ele>1453.4</ele>
        <time>2026-08-09T07:36:40Z</time>
      </trkpt>
      <trkpt lat="45.08863" lon="6.16242">
        <ele>1453.6</ele>
        <time>2026-08-09T07:36:41Z</time>
      </trkpt>
      <trkpt lat="45.08865" lon="6.16243">
        <ele>1453.8</ele>
        <time>2026-08-09T07:36:42Z</time>
      </trkpt>
      <trkpt lat="45.08867" lon="6.16248">
        <ele>1454</ele>
        <time>2026-08-09T07:36:44Z</time>
      </trkpt>
      <trkpt lat="45.0887" lon="6.16251">
        <ele>1454.4</ele>
        <time>2026-08-09T07:36:46Z</time>
      </trkpt>
      <trkpt lat="45.08872" lon="6.16255">
        <ele>1454.8</ele>
        <time>2026-08-09T07:36:48Z</time>
      </trkpt>
      <trkpt lat="45.08875" lon="6.16259">
        <ele>1455</ele>
        <time>2026-08-09T07:36:50Z</time>
      </trkpt>
      <trkpt lat="45.08877" lon="6.16263">
        <ele>1455.4</ele>
        <time>2026-08-09T07:36:52Z</time>
      </trkpt>
      <trkpt lat="45.08879" lon="6.16265">
        <ele>1455.6</ele>
        <time>2026-08-09T07:36:53Z</time>
      </trkpt>
      <trkpt lat="45.0888" lon="6.16267">
        <ele>1455.6</ele>
        <time>2026-08-09T07:36:54Z</time>
      </trkpt>
      <trkpt lat="45.08882" lon="6.16268">
        <ele>1455.8</ele>
        <time>2026-08-09T07:36:55Z</time>
      </trkpt>
      <trkpt lat="45.08884" lon="6.1627">
        <ele>1456.2</ele>
        <time>2026-08-09T07:36:56Z</time>
      </trkpt>
      <trkpt lat="45.08888" lon="6.16272">
        <ele>1456.6</ele>
        <time>2026-08-09T07:36:58Z</time>
      </trkpt>
      <trkpt lat="45.0889" lon="6.16274">
        <ele>1456.6</ele>
        <time>2026-08-09T07:36:59Z</time>
      </trkpt>
      <trkpt lat="45.08891" lon="6.16275">
        <ele>1457</ele>
        <time>2026-08-09T07:37:00Z</time>
      </trkpt>
      <trkpt lat="45.08894" lon="6.16278">
        <ele>1457.2</ele>
        <time>2026-08-09T07:37:02Z</time>
      </trkpt>
      <trkpt lat="45.08895" lon="6.16279">
        <ele>1457.2</ele>
        <time>2026-08-09T07:37:03Z</time>
      </trkpt>
      <trkpt lat="45.08897" lon="6.16281">
        <ele>1457.4</ele>
        <time>2026-08-09T07:37:04Z</time>
      </trkpt>
      <trkpt lat="45.08899" lon="6.16284">
        <ele>1457.8</ele>
        <time>2026-08-09T07:37:06Z</time>
      </trkpt>
      <trkpt lat="45.08903" lon="6.16286">
        <ele>1458</ele>
        <time>2026-08-09T07:37:08Z</time>
      </trkpt>
      <trkpt lat="45.08905" lon="6.16288">
        <ele>1458.4</ele>
        <time>2026-08-09T07:37:10Z</time>
      </trkpt>
      <trkpt lat="45.08908" lon="6.1629">
        <ele>1458.8</ele>
        <time>2026-08-09T07:37:12Z</time>
      </trkpt>
      <trkpt lat="45.08909" lon="6.16291">
        <ele>1458.8</ele>
        <time>2026-08-09T07:37:13Z</time>
      </trkpt>
      <trkpt lat="45.08911" lon="6.16293">
        <ele>1458.8</ele>
        <time>2026-08-09T07:37:14Z</time>
      </trkpt>
      <trkpt lat="45.08914" lon="6.16295">
        <ele>1459.2</ele>
        <time>2026-08-09T07:37:16Z</time>
      </trkpt>
      <trkpt lat="45.08918" lon="6.16298">
        <ele>1459.4</ele>
        <time>2026-08-09T07:37:18Z</time>
      </trkpt>
      <trkpt lat="45.0892" lon="6.16302">
        <ele>1459.8</ele>
        <time>2026-08-09T07:37:20Z</time>
      </trkpt>
      <trkpt lat="45.08924" lon="6.16305">
        <ele>1460</ele>
        <time>2026-08-09T07:37:22Z</time>
      </trkpt>
      <trkpt lat="45.08927" lon="6.16308">
        <ele>1460.4</ele>
        <time>2026-08-09T07:37:24Z</time>
      </trkpt>
      <trkpt lat="45.0893" lon="6.16311">
        <ele>1460.6</ele>
        <time>2026-08-09T07:37:26Z</time>
      </trkpt>
      <trkpt lat="45.08932" lon="6.16313">
        <ele>1460.8</ele>
        <time>2026-08-09T07:37:27Z</time>
      </trkpt>
      <trkpt lat="45.08933" lon="6.16315">
        <ele>1461</ele>
        <time>2026-08-09T07:37:28Z</time>
      </trkpt>
      <trkpt lat="45.08936" lon="6.16318">
        <ele>1461.2</ele>
        <time>2026-08-09T07:37:30Z</time>
      </trkpt>
      <trkpt lat="45.08939" lon="6.16322">
        <ele>1461.6</ele>
        <time>2026-08-09T07:37:32Z</time>
      </trkpt>
      <trkpt lat="45.08942" lon="6.16325">
        <ele>1462</ele>
        <time>2026-08-09T07:37:34Z</time>
      </trkpt>
      <trkpt lat="45.08945" lon="6.16328">
        <ele>1462.2</ele>
        <time>2026-08-09T07:37:36Z</time>
      </trkpt>
      <trkpt lat="45.08948" lon="6.1633">
        <ele>1462.6</ele>
        <time>2026-08-09T07:37:38Z</time>
      </trkpt>
      <trkpt lat="45.08952" lon="6.16333">
        <ele>1462.8</ele>
        <time>2026-08-09T07:37:40Z</time>
      </trkpt>
      <trkpt lat="45.08953" lon="6.16334">
        <ele>1463</ele>
        <time>2026-08-09T07:37:41Z</time>
      </trkpt>
      <trkpt lat="45.08954" lon="6.16336">
        <ele>1463</ele>
        <time>2026-08-09T07:37:42Z</time>
      </trkpt>
      <trkpt lat="45.08957" lon="6.16338">
        <ele>1463.4</ele>
        <time>2026-08-09T07:37:44Z</time>
      </trkpt>
      <trkpt lat="45.0896" lon="6.16338">
        <ele>1463.6</ele>
        <time>2026-08-09T07:37:46Z</time>
      </trkpt>
      <trkpt lat="45.08962" lon="6.16339">
        <ele>1463.8</ele>
        <time>2026-08-09T07:37:47Z</time>
      </trkpt>
      <trkpt lat="45.08963" lon="6.1634">
        <ele>1464</ele>
        <time>2026-08-09T07:37:48Z</time>
      </trkpt>
      <trkpt lat="45.08966" lon="6.16341">
        <ele>1464.4</ele>
        <time>2026-08-09T07:37:50Z</time>
      </trkpt>
      <trkpt lat="45.0897" lon="6.16342">
        <ele>1464.8</ele>
        <time>2026-08-09T07:37:52Z</time>
      </trkpt>
      <trkpt lat="45.08972" lon="6.16343">
        <ele>1465</ele>
        <time>2026-08-09T07:37:53Z</time>
      </trkpt>
      <trkpt lat="45.08974" lon="6.16344">
        <ele>1465.2</ele>
        <time>2026-08-09T07:37:54Z</time>
      </trkpt>
      <trkpt lat="45.08976" lon="6.16345">
        <ele>1465.4</ele>
        <time>2026-08-09T07:37:55Z</time>
      </trkpt>
      <trkpt lat="45.08978" lon="6.16346">
        <ele>1465.6</ele>
        <time>2026-08-09T07:37:56Z</time>
      </trkpt>
      <trkpt lat="45.08981" lon="6.16349">
        <ele>1465.8</ele>
        <time>2026-08-09T07:37:58Z</time>
      </trkpt>
      <trkpt lat="45.08984" lon="6.16352">
        <ele>1466.2</ele>
        <time>2026-08-09T07:38:00Z</time>
      </trkpt>
      <trkpt lat="45.08987" lon="6.16356">
        <ele>1466.4</ele>
        <time>2026-08-09T07:38:02Z</time>
      </trkpt>
      <trkpt lat="45.0899" lon="6.16359">
        <ele>1466.6</ele>
        <time>2026-08-09T07:38:04Z</time>
      </trkpt>
      <trkpt lat="45.08994" lon="6.16363">
        <ele>1466.8</ele>
        <time>2026-08-09T07:38:06Z</time>
      </trkpt>
      <trkpt lat="45.08997" lon="6.16367">
        <ele>1467</ele>
        <time>2026-08-09T07:38:08Z</time>
      </trkpt>
      <trkpt lat="45.08999" lon="6.16369">
        <ele>1467</ele>
        <time>2026-08-09T07:38:09Z</time>
      </trkpt>
      <trkpt lat="45.09001" lon="6.1637">
        <ele>1467.2</ele>
        <time>2026-08-09T07:38:10Z</time>
      </trkpt>
      <trkpt lat="45.09004" lon="6.16372">
        <ele>1467.2</ele>
        <time>2026-08-09T07:38:11Z</time>
      </trkpt>
      <trkpt lat="45.09006" lon="6.16372">
        <ele>1467.4</ele>
        <time>2026-08-09T07:38:12Z</time>
      </trkpt>
      <trkpt lat="45.0901" lon="6.16373">
        <ele>1467.6</ele>
        <time>2026-08-09T07:38:14Z</time>
      </trkpt>
      <trkpt lat="45.09016" lon="6.16373">
        <ele>1468.2</ele>
        <time>2026-08-09T07:38:16Z</time>
      </trkpt>
      <trkpt lat="45.09018" lon="6.16373">
        <ele>1468.4</ele>
        <time>2026-08-09T07:38:17Z</time>
      </trkpt>
      <trkpt lat="45.0902" lon="6.16372">
        <ele>1468.4</ele>
        <time>2026-08-09T07:38:18Z</time>
      </trkpt>
      <trkpt lat="45.09023" lon="6.16369">
        <ele>1468.8</ele>
        <time>2026-08-09T07:38:20Z</time>
      </trkpt>
      <trkpt lat="45.09025" lon="6.16368">
        <ele>1468.8</ele>
        <time>2026-08-09T07:38:21Z</time>
      </trkpt>
      <trkpt lat="45.09027" lon="6.16366">
        <ele>1469.2</ele>
        <time>2026-08-09T07:38:22Z</time>
      </trkpt>
      <trkpt lat="45.0903" lon="6.16365">
        <ele>1469.4</ele>
        <time>2026-08-09T07:38:23Z</time>
      </trkpt>
      <trkpt lat="45.09032" lon="6.16363">
        <ele>1469.6</ele>
        <time>2026-08-09T07:38:24Z</time>
      </trkpt>
      <trkpt lat="45.09036" lon="6.1636">
        <ele>1469.8</ele>
        <time>2026-08-09T07:38:26Z</time>
      </trkpt>
      <trkpt lat="45.09038" lon="6.16358">
        <ele>1470</ele>
        <time>2026-08-09T07:38:27Z</time>
      </trkpt>
      <trkpt lat="45.0904" lon="6.16357">
        <ele>1470.2</ele>
        <time>2026-08-09T07:38:28Z</time>
      </trkpt>
      <trkpt lat="45.09041" lon="6.16354">
        <ele>1470.4</ele>
        <time>2026-08-09T07:38:29Z</time>
      </trkpt>
      <trkpt lat="45.09043" lon="6.16353">
        <ele>1470.6</ele>
        <time>2026-08-09T07:38:30Z</time>
      </trkpt>
      <trkpt lat="45.09046" lon="6.16349">
        <ele>1471</ele>
        <time>2026-08-09T07:38:32Z</time>
      </trkpt>
      <trkpt lat="45.09047" lon="6.16348">
        <ele>1471.2</ele>
        <time>2026-08-09T07:38:34Z</time>
      </trkpt>
      <trkpt lat="45.09049" lon="6.16344">
        <ele>1471.4</ele>
        <time>2026-08-09T07:38:36Z</time>
      </trkpt>
      <trkpt lat="45.0905" lon="6.16342">
        <ele>1471.6</ele>
        <time>2026-08-09T07:38:38Z</time>
      </trkpt>
      <trkpt lat="45.09052" lon="6.16342">
        <ele>1471.8</ele>
        <time>2026-08-09T07:38:40Z</time>
      </trkpt>
      <trkpt lat="45.09054" lon="6.16342">
        <ele>1472</ele>
        <time>2026-08-09T07:38:42Z</time>
      </trkpt>
      <trkpt lat="45.09057" lon="6.16343">
        <ele>1472.4</ele>
        <time>2026-08-09T07:38:44Z</time>
      </trkpt>
      <trkpt lat="45.0906" lon="6.16344">
        <ele>1472.6</ele>
        <time>2026-08-09T07:38:46Z</time>
      </trkpt>
      <trkpt lat="45.09062" lon="6.16343">
        <ele>1472.6</ele>
        <time>2026-08-09T07:38:47Z</time>
      </trkpt>
      <trkpt lat="45.09064" lon="6.16344">
        <ele>1472.8</ele>
        <time>2026-08-09T07:38:48Z</time>
      </trkpt>
      <trkpt lat="45.09067" lon="6.16344">
        <ele>1473.4</ele>
        <time>2026-08-09T07:38:50Z</time>
      </trkpt>
      <trkpt lat="45.09071" lon="6.16344">
        <ele>1473.6</ele>
        <time>2026-08-09T07:38:52Z</time>
      </trkpt>
      <trkpt lat="45.09072" lon="6.16345">
        <ele>1473.8</ele>
        <time>2026-08-09T07:38:53Z</time>
      </trkpt>
      <trkpt lat="45.09073" lon="6.16345">
        <ele>1474</ele>
        <time>2026-08-09T07:38:54Z</time>
      </trkpt>
      <trkpt lat="45.09074" lon="6.16346">
        <ele>1474.2</ele>
        <time>2026-08-09T07:38:56Z</time>
      </trkpt>
      <trkpt lat="45.09078" lon="6.16349">
        <ele>1474.6</ele>
        <time>2026-08-09T07:38:58Z</time>
      </trkpt>
      <trkpt lat="45.09079" lon="6.16351">
        <ele>1474.8</ele>
        <time>2026-08-09T07:38:59Z</time>
      </trkpt>
      <trkpt lat="45.0908" lon="6.16352">
        <ele>1475</ele>
        <time>2026-08-09T07:39:00Z</time>
      </trkpt>
      <trkpt lat="45.09083" lon="6.16354">
        <ele>1475.4</ele>
        <time>2026-08-09T07:39:02Z</time>
      </trkpt>
      <trkpt lat="45.09085" lon="6.16356">
        <ele>1475.6</ele>
        <time>2026-08-09T07:39:04Z</time>
      </trkpt>
      <trkpt lat="45.09086" lon="6.16357">
        <ele>1476</ele>
        <time>2026-08-09T07:39:05Z</time>
      </trkpt>
      <trkpt lat="45.09088" lon="6.16358">
        <ele>1476.2</ele>
        <time>2026-08-09T07:39:06Z</time>
      </trkpt>
      <trkpt lat="45.09088" lon="6.16358">
        <ele>1476.4</ele>
        <time>2026-08-09T07:39:07Z</time>
      </trkpt>
      <trkpt lat="45.09092" lon="6.1636">
        <ele>1476.6</ele>
        <time>2026-08-09T07:39:08Z</time>
      </trkpt>
      <trkpt lat="45.09095" lon="6.1636">
        <ele>1477</ele>
        <time>2026-08-09T07:39:10Z</time>
      </trkpt>
      <trkpt lat="45.09099" lon="6.16361">
        <ele>1477.4</ele>
        <time>2026-08-09T07:39:12Z</time>
      </trkpt>
      <trkpt lat="45.09101" lon="6.16363">
        <ele>1477.6</ele>
        <time>2026-08-09T07:39:14Z</time>
      </trkpt>
      <trkpt lat="45.09106" lon="6.16364">
        <ele>1478</ele>
        <time>2026-08-09T07:39:16Z</time>
      </trkpt>
      <trkpt lat="45.09107" lon="6.16365">
        <ele>1478.4</ele>
        <time>2026-08-09T07:39:18Z</time>
      </trkpt>
      <trkpt lat="45.0911" lon="6.16365">
        <ele>1478.6</ele>
        <time>2026-08-09T07:39:19Z</time>
      </trkpt>
      <trkpt lat="45.09112" lon="6.16365">
        <ele>1478.8</ele>
        <time>2026-08-09T07:39:20Z</time>
      </trkpt>
      <trkpt lat="45.09115" lon="6.16367">
        <ele>1479.2</ele>
        <time>2026-08-09T07:39:22Z</time>
      </trkpt>
      <trkpt lat="45.09118" lon="6.16369">
        <ele>1479.4</ele>
        <time>2026-08-09T07:39:24Z</time>
      </trkpt>
      <trkpt lat="45.09122" lon="6.1637">
        <ele>1479.6</ele>
        <time>2026-08-09T07:39:26Z</time>
      </trkpt>
      <trkpt lat="45.09124" lon="6.16371">
        <ele>1479.8</ele>
        <time>2026-08-09T07:39:27Z</time>
      </trkpt>
      <trkpt lat="45.09126" lon="6.16371">
        <ele>1480</ele>
        <time>2026-08-09T07:39:28Z</time>
      </trkpt>
      <trkpt lat="45.09128" lon="6.16371">
        <ele>1480.2</ele>
        <time>2026-08-09T07:39:29Z</time>
      </trkpt>
      <trkpt lat="45.09129" lon="6.16372">
        <ele>1480.4</ele>
        <time>2026-08-09T07:39:30Z</time>
      </trkpt>
      <trkpt lat="45.09133" lon="6.16375">
        <ele>1480.6</ele>
        <time>2026-08-09T07:39:32Z</time>
      </trkpt>
      <trkpt lat="45.09135" lon="6.16378">
        <ele>1481.2</ele>
        <time>2026-08-09T07:39:34Z</time>
      </trkpt>
      <trkpt lat="45.09136" lon="6.1638">
        <ele>1481.4</ele>
        <time>2026-08-09T07:39:35Z</time>
      </trkpt>
      <trkpt lat="45.09138" lon="6.16381">
        <ele>1481.6</ele>
        <time>2026-08-09T07:39:36Z</time>
      </trkpt>
      <trkpt lat="45.09141" lon="6.16384">
        <ele>1481.8</ele>
        <time>2026-08-09T07:39:38Z</time>
      </trkpt>
      <trkpt lat="45.09143" lon="6.16385">
        <ele>1482</ele>
        <time>2026-08-09T07:39:39Z</time>
      </trkpt>
      <trkpt lat="45.09143" lon="6.16385">
        <ele>1482.2</ele>
        <time>2026-08-09T07:39:40Z</time>
      </trkpt>
      <trkpt lat="45.09147" lon="6.16385">
        <ele>1482.4</ele>
        <time>2026-08-09T07:39:41Z</time>
      </trkpt>
      <trkpt lat="45.09149" lon="6.16387">
        <ele>1482.6</ele>
        <time>2026-08-09T07:39:42Z</time>
      </trkpt>
      <trkpt lat="45.0915" lon="6.16388">
        <ele>1482.8</ele>
        <time>2026-08-09T07:39:43Z</time>
      </trkpt>
      <trkpt lat="45.0915" lon="6.16388">
        <ele>1482.8</ele>
        <time>2026-08-09T07:39:44Z</time>
      </trkpt>
      <trkpt lat="45.09154" lon="6.1639">
        <ele>1483</ele>
        <time>2026-08-09T07:39:45Z</time>
      </trkpt>
      <trkpt lat="45.09155" lon="6.16392">
        <ele>1483.2</ele>
        <time>2026-08-09T07:39:46Z</time>
      </trkpt>
      <trkpt lat="45.09155" lon="6.16392">
        <ele>1483.4</ele>
        <time>2026-08-09T07:39:47Z</time>
      </trkpt>
      <trkpt lat="45.09158" lon="6.16394">
        <ele>1483.6</ele>
        <time>2026-08-09T07:39:48Z</time>
      </trkpt>
      <trkpt lat="45.09162" lon="6.16395">
        <ele>1483.8</ele>
        <time>2026-08-09T07:39:50Z</time>
      </trkpt>
      <trkpt lat="45.09165" lon="6.16399">
        <ele>1484.2</ele>
        <time>2026-08-09T07:39:52Z</time>
      </trkpt>
      <trkpt lat="45.09167" lon="6.16402">
        <ele>1484.6</ele>
        <time>2026-08-09T07:39:54Z</time>
      </trkpt>
      <trkpt lat="45.09171" lon="6.16407">
        <ele>1485.2</ele>
        <time>2026-08-09T07:39:56Z</time>
      </trkpt>
      <trkpt lat="45.09173" lon="6.16408">
        <ele>1485.4</ele>
        <time>2026-08-09T07:39:57Z</time>
      </trkpt>
      <trkpt lat="45.09174" lon="6.1641">
        <ele>1485.8</ele>
        <time>2026-08-09T07:39:58Z</time>
      </trkpt>
      <trkpt lat="45.09177" lon="6.16416">
        <ele>1486.2</ele>
        <time>2026-08-09T07:40:00Z</time>
      </trkpt>
      <trkpt lat="45.09178" lon="6.16418">
        <ele>1486.2</ele>
        <time>2026-08-09T07:40:01Z</time>
      </trkpt>
      <trkpt lat="45.09178" lon="6.16418">
        <ele>1486.4</ele>
        <time>2026-08-09T07:40:02Z</time>
      </trkpt>
      <trkpt lat="45.09181" lon="6.16422">
        <ele>1486.4</ele>
        <time>2026-08-09T07:40:03Z</time>
      </trkpt>
      <trkpt lat="45.09184" lon="6.16423">
        <ele>1486.6</ele>
        <time>2026-08-09T07:40:04Z</time>
      </trkpt>
      <trkpt lat="45.09186" lon="6.16422">
        <ele>1486.8</ele>
        <time>2026-08-09T07:40:05Z</time>
      </trkpt>
      <trkpt lat="45.09188" lon="6.16423">
        <ele>1487</ele>
        <time>2026-08-09T07:40:06Z</time>
      </trkpt>
      <trkpt lat="45.09191" lon="6.16423">
        <ele>1487</ele>
        <time>2026-08-09T07:40:08Z</time>
      </trkpt>
      <trkpt lat="45.09193" lon="6.16423">
        <ele>1487.2</ele>
        <time>2026-08-09T07:40:09Z</time>
      </trkpt>
      <trkpt lat="45.09195" lon="6.16423">
        <ele>1487.2</ele>
        <time>2026-08-09T07:40:10Z</time>
      </trkpt>
      <trkpt lat="45.09198" lon="6.16422">
        <ele>1487.4</ele>
        <time>2026-08-09T07:40:12Z</time>
      </trkpt>
      <trkpt lat="45.09201" lon="6.16421">
        <ele>1487.6</ele>
        <time>2026-08-09T07:40:14Z</time>
      </trkpt>
      <trkpt lat="45.09203" lon="6.16419">
        <ele>1487.8</ele>
        <time>2026-08-09T07:40:15Z</time>
      </trkpt>
      <trkpt lat="45.09205" lon="6.16419">
        <ele>1488</ele>
        <time>2026-08-09T07:40:16Z</time>
      </trkpt>
      <trkpt lat="45.09206" lon="6.16418">
        <ele>1488.2</ele>
        <time>2026-08-09T07:40:17Z</time>
      </trkpt>
      <trkpt lat="45.09208" lon="6.16418">
        <ele>1488.2</ele>
        <time>2026-08-09T07:40:18Z</time>
      </trkpt>
      <trkpt lat="45.09214" lon="6.16416">
        <ele>1488.4</ele>
        <time>2026-08-09T07:40:20Z</time>
      </trkpt>
      <trkpt lat="45.09217" lon="6.16413">
        <ele>1488.6</ele>
        <time>2026-08-09T07:40:22Z</time>
      </trkpt>
      <trkpt lat="45.09218" lon="6.16412">
        <ele>1488.8</ele>
        <time>2026-08-09T07:40:23Z</time>
      </trkpt>
      <trkpt lat="45.09218" lon="6.16412">
        <ele>1489</ele>
        <time>2026-08-09T07:40:24Z</time>
      </trkpt>
      <trkpt lat="45.09222" lon="6.16407">
        <ele>1489.4</ele>
        <time>2026-08-09T07:40:26Z</time>
      </trkpt>
      <trkpt lat="45.09223" lon="6.16406">
        <ele>1489.8</ele>
        <time>2026-08-09T07:40:28Z</time>
      </trkpt>
      <trkpt lat="45.09226" lon="6.16399">
        <ele>1490</ele>
        <time>2026-08-09T07:40:30Z</time>
      </trkpt>
      <trkpt lat="45.09227" lon="6.16393">
        <ele>1490.4</ele>
        <time>2026-08-09T07:40:32Z</time>
      </trkpt>
      <trkpt lat="45.09228" lon="6.16387">
        <ele>1490.8</ele>
        <time>2026-08-09T07:40:34Z</time>
      </trkpt>
      <trkpt lat="45.0923" lon="6.16381">
        <ele>1491</ele>
        <time>2026-08-09T07:40:36Z</time>
      </trkpt>
      <trkpt lat="45.0923" lon="6.16378">
        <ele>1491.2</ele>
        <time>2026-08-09T07:40:37Z</time>
      </trkpt>
      <trkpt lat="45.09231" lon="6.16376">
        <ele>1491.2</ele>
        <time>2026-08-09T07:40:38Z</time>
      </trkpt>
      <trkpt lat="45.09232" lon="6.1637">
        <ele>1491.4</ele>
        <time>2026-08-09T07:40:40Z</time>
      </trkpt>
      <trkpt lat="45.09233" lon="6.16366">
        <ele>1491.6</ele>
        <time>2026-08-09T07:40:42Z</time>
      </trkpt>
      <trkpt lat="45.09233" lon="6.16363">
        <ele>1491.8</ele>
        <time>2026-08-09T07:40:43Z</time>
      </trkpt>
      <trkpt lat="45.09234" lon="6.1636">
        <ele>1492.2</ele>
        <time>2026-08-09T07:40:44Z</time>
      </trkpt>
      <trkpt lat="45.09235" lon="6.16357">
        <ele>1492.4</ele>
        <time>2026-08-09T07:40:45Z</time>
      </trkpt>
      <trkpt lat="45.09235" lon="6.16357">
        <ele>1492.6</ele>
        <time>2026-08-09T07:40:46Z</time>
      </trkpt>
      <trkpt lat="45.09236" lon="6.16351">
        <ele>1492.6</ele>
        <time>2026-08-09T07:40:47Z</time>
      </trkpt>
      <trkpt lat="45.09236" lon="6.16348">
        <ele>1493</ele>
        <time>2026-08-09T07:40:48Z</time>
      </trkpt>
      <trkpt lat="45.09237" lon="6.16342">
        <ele>1493.2</ele>
        <time>2026-08-09T07:40:50Z</time>
      </trkpt>
      <trkpt lat="45.09237" lon="6.16338">
        <ele>1493.4</ele>
        <time>2026-08-09T07:40:52Z</time>
      </trkpt>
      <trkpt lat="45.09239" lon="6.16329">
        <ele>1493.6</ele>
        <time>2026-08-09T07:40:54Z</time>
      </trkpt>
      <trkpt lat="45.09241" lon="6.16323">
        <ele>1494.2</ele>
        <time>2026-08-09T07:40:56Z</time>
      </trkpt>
      <trkpt lat="45.09241" lon="6.16323">
        <ele>1494.4</ele>
        <time>2026-08-09T07:40:57Z</time>
      </trkpt>
      <trkpt lat="45.09243" lon="6.16318">
        <ele>1494.4</ele>
        <time>2026-08-09T07:40:58Z</time>
      </trkpt>
      <trkpt lat="45.09243" lon="6.16315">
        <ele>1494.6</ele>
        <time>2026-08-09T07:41:00Z</time>
      </trkpt>
      <trkpt lat="45.09244" lon="6.1631">
        <ele>1495</ele>
        <time>2026-08-09T07:41:02Z</time>
      </trkpt>
      <trkpt lat="45.09244" lon="6.16307">
        <ele>1495.2</ele>
        <time>2026-08-09T07:41:03Z</time>
      </trkpt>
      <trkpt lat="45.09245" lon="6.16306">
        <ele>1495</ele>
        <time>2026-08-09T07:41:04Z</time>
      </trkpt>
      <trkpt lat="45.09245" lon="6.16306">
        <ele>1495.4</ele>
        <time>2026-08-09T07:41:06Z</time>
      </trkpt>
      <trkpt lat="45.09246" lon="6.16306">
        <ele>1495.6</ele>
        <time>2026-08-09T07:41:07Z</time>
      </trkpt>
      <trkpt lat="45.09246" lon="6.16306">
        <ele>1495.8</ele>
        <time>2026-08-09T07:41:08Z</time>
      </trkpt>
      <trkpt lat="45.09247" lon="6.16307">
        <ele>1496.2</ele>
        <time>2026-08-09T07:41:10Z</time>
      </trkpt>
      <trkpt lat="45.09249" lon="6.16307">
        <ele>1496.4</ele>
        <time>2026-08-09T07:41:11Z</time>
      </trkpt>
      <trkpt lat="45.0925" lon="6.16309">
        <ele>1496.8</ele>
        <time>2026-08-09T07:41:12Z</time>
      </trkpt>
      <trkpt lat="45.09251" lon="6.16311">
        <ele>1497.4</ele>
        <time>2026-08-09T07:41:14Z</time>
      </trkpt>
      <trkpt lat="45.09253" lon="6.16312">
        <ele>1497.6</ele>
        <time>2026-08-09T07:41:16Z</time>
      </trkpt>
      <trkpt lat="45.09254" lon="6.16315">
        <ele>1498</ele>
        <time>2026-08-09T07:41:18Z</time>
      </trkpt>
      <trkpt lat="45.09255" lon="6.16317">
        <ele>1498.2</ele>
        <time>2026-08-09T07:41:20Z</time>
      </trkpt>
      <trkpt lat="45.09256" lon="6.1632">
        <ele>1498.4</ele>
        <time>2026-08-09T07:41:22Z</time>
      </trkpt>
      <trkpt lat="45.09259" lon="6.16322">
        <ele>1498.6</ele>
        <time>2026-08-09T07:41:24Z</time>
      </trkpt>
      <trkpt lat="45.09261" lon="6.16324">
        <ele>1499</ele>
        <time>2026-08-09T07:41:26Z</time>
      </trkpt>
      <trkpt lat="45.09263" lon="6.16326">
        <ele>1499.2</ele>
        <time>2026-08-09T07:41:27Z</time>
      </trkpt>
      <trkpt lat="45.09264" lon="6.16327">
        <ele>1499.4</ele>
        <time>2026-08-09T07:41:28Z</time>
      </trkpt>
      <trkpt lat="45.09266" lon="6.16331">
        <ele>1499.6</ele>
        <time>2026-08-09T07:41:30Z</time>
      </trkpt>
      <trkpt lat="45.09269" lon="6.16333">
        <ele>1500.2</ele>
        <time>2026-08-09T07:41:32Z</time>
      </trkpt>
      <trkpt lat="45.0927" lon="6.16335">
        <ele>1500.4</ele>
        <time>2026-08-09T07:41:33Z</time>
      </trkpt>
      <trkpt lat="45.09271" lon="6.16336">
        <ele>1500.6</ele>
        <time>2026-08-09T07:41:34Z</time>
      </trkpt>
      <trkpt lat="45.09274" lon="6.16338">
        <ele>1500.8</ele>
        <time>2026-08-09T07:41:36Z</time>
      </trkpt>
      <trkpt lat="45.09278" lon="6.1634">
        <ele>1501.4</ele>
        <time>2026-08-09T07:41:38Z</time>
      </trkpt>
      <trkpt lat="45.0928" lon="6.1634">
        <ele>1501.6</ele>
        <time>2026-08-09T07:41:39Z</time>
      </trkpt>
      <trkpt lat="45.09281" lon="6.16341">
        <ele>1501.6</ele>
        <time>2026-08-09T07:41:40Z</time>
      </trkpt>
      <trkpt lat="45.09284" lon="6.1634">
        <ele>1502</ele>
        <time>2026-08-09T07:41:41Z</time>
      </trkpt>
      <trkpt lat="45.09286" lon="6.1634">
        <ele>1502.2</ele>
        <time>2026-08-09T07:41:42Z</time>
      </trkpt>
      <trkpt lat="45.09289" lon="6.1634">
        <ele>1502.4</ele>
        <time>2026-08-09T07:41:44Z</time>
      </trkpt>
      <trkpt lat="45.09293" lon="6.16341">
        <ele>1502.6</ele>
        <time>2026-08-09T07:41:46Z</time>
      </trkpt>
      <trkpt lat="45.09297" lon="6.16342">
        <ele>1503</ele>
        <time>2026-08-09T07:41:48Z</time>
      </trkpt>
      <trkpt lat="45.09298" lon="6.16342">
        <ele>1503</ele>
        <time>2026-08-09T07:41:49Z</time>
      </trkpt>
      <trkpt lat="45.093" lon="6.16342">
        <ele>1503.2</ele>
        <time>2026-08-09T07:41:50Z</time>
      </trkpt>
      <trkpt lat="45.09304" lon="6.16343">
        <ele>1503.4</ele>
        <time>2026-08-09T07:41:52Z</time>
      </trkpt>
      <trkpt lat="45.09305" lon="6.16343">
        <ele>1503.6</ele>
        <time>2026-08-09T07:41:53Z</time>
      </trkpt>
      <trkpt lat="45.09307" lon="6.16343">
        <ele>1503.8</ele>
        <time>2026-08-09T07:41:54Z</time>
      </trkpt>
      <trkpt lat="45.09308" lon="6.16342">
        <ele>1503.8</ele>
        <time>2026-08-09T07:41:55Z</time>
      </trkpt>
      <trkpt lat="45.0931" lon="6.16342">
        <ele>1503.8</ele>
        <time>2026-08-09T07:41:56Z</time>
      </trkpt>
      <trkpt lat="45.09314" lon="6.16342">
        <ele>1504.2</ele>
        <time>2026-08-09T07:41:58Z</time>
      </trkpt>
      <trkpt lat="45.09317" lon="6.16343">
        <ele>1504.4</ele>
        <time>2026-08-09T07:42:00Z</time>
      </trkpt>
      <trkpt lat="45.09319" lon="6.16343">
        <ele>1504.6</ele>
        <time>2026-08-09T07:42:01Z</time>
      </trkpt>
      <trkpt lat="45.09321" lon="6.16343">
        <ele>1504.6</ele>
        <time>2026-08-09T07:42:02Z</time>
      </trkpt>
      <trkpt lat="45.09323" lon="6.16342">
        <ele>1504.6</ele>
        <time>2026-08-09T07:42:03Z</time>
      </trkpt>
      <trkpt lat="45.09325" lon="6.16342">
        <ele>1504.8</ele>
        <time>2026-08-09T07:42:04Z</time>
      </trkpt>
      <trkpt lat="45.09329" lon="6.16342">
        <ele>1505</ele>
        <time>2026-08-09T07:42:05Z</time>
      </trkpt>
      <trkpt lat="45.09329" lon="6.16342">
        <ele>1505.2</ele>
        <time>2026-08-09T07:42:06Z</time>
      </trkpt>
      <trkpt lat="45.09333" lon="6.16342">
        <ele>1505.6</ele>
        <time>2026-08-09T07:42:08Z</time>
      </trkpt>
      <trkpt lat="45.09335" lon="6.16342">
        <ele>1505.8</ele>
        <time>2026-08-09T07:42:09Z</time>
      </trkpt>
      <trkpt lat="45.09338" lon="6.16342">
        <ele>1506.2</ele>
        <time>2026-08-09T07:42:10Z</time>
      </trkpt>
      <trkpt lat="45.09342" lon="6.16343">
        <ele>1506.6</ele>
        <time>2026-08-09T07:42:12Z</time>
      </trkpt>
      <trkpt lat="45.09344" lon="6.16343">
        <ele>1506.8</ele>
        <time>2026-08-09T07:42:13Z</time>
      </trkpt>
      <trkpt lat="45.09346" lon="6.16343">
        <ele>1507</ele>
        <time>2026-08-09T07:42:14Z</time>
      </trkpt>
      <trkpt lat="45.09348" lon="6.16345">
        <ele>1507.2</ele>
        <time>2026-08-09T07:42:16Z</time>
      </trkpt>
      <trkpt lat="45.09351" lon="6.16348">
        <ele>1507.4</ele>
        <time>2026-08-09T07:42:18Z</time>
      </trkpt>
      <trkpt lat="45.09354" lon="6.16349">
        <ele>1507.8</ele>
        <time>2026-08-09T07:42:20Z</time>
      </trkpt>
      <trkpt lat="45.09358" lon="6.16354">
        <ele>1508</ele>
        <time>2026-08-09T07:42:22Z</time>
      </trkpt>
      <trkpt lat="45.09361" lon="6.16355">
        <ele>1508</ele>
        <time>2026-08-09T07:42:23Z</time>
      </trkpt>
      <trkpt lat="45.09362" lon="6.16357">
        <ele>1508.2</ele>
        <time>2026-08-09T07:42:24Z</time>
      </trkpt>
      <trkpt lat="45.09368" lon="6.1636">
        <ele>1508.6</ele>
        <time>2026-08-09T07:42:26Z</time>
      </trkpt>
      <trkpt lat="45.0937" lon="6.16361">
        <ele>1508.8</ele>
        <time>2026-08-09T07:42:27Z</time>
      </trkpt>
      <trkpt lat="45.09371" lon="6.16361">
        <ele>1509</ele>
        <time>2026-08-09T07:42:28Z</time>
      </trkpt>
      <trkpt lat="45.09374" lon="6.16363">
        <ele>1509.4</ele>
        <time>2026-08-09T07:42:30Z</time>
      </trkpt>
      <trkpt lat="45.09378" lon="6.16362">
        <ele>1509.6</ele>
        <time>2026-08-09T07:42:31Z</time>
      </trkpt>
      <trkpt lat="45.0938" lon="6.16361">
        <ele>1509.8</ele>
        <time>2026-08-09T07:42:32Z</time>
      </trkpt>
      <trkpt lat="45.09383" lon="6.1636">
        <ele>1510.2</ele>
        <time>2026-08-09T07:42:34Z</time>
      </trkpt>
      <trkpt lat="45.09386" lon="6.16358">
        <ele>1510.4</ele>
        <time>2026-08-09T07:42:36Z</time>
      </trkpt>
      <trkpt lat="45.0939" lon="6.16356">
        <ele>1510.6</ele>
        <time>2026-08-09T07:42:38Z</time>
      </trkpt>
      <trkpt lat="45.09394" lon="6.16354">
        <ele>1510.8</ele>
        <time>2026-08-09T07:42:39Z</time>
      </trkpt>
      <trkpt lat="45.09397" lon="6.16352">
        <ele>1510.8</ele>
        <time>2026-08-09T07:42:40Z</time>
      </trkpt>
      <trkpt lat="45.09399" lon="6.1635">
        <ele>1510.8</ele>
        <time>2026-08-09T07:42:41Z</time>
      </trkpt>
      <trkpt lat="45.09401" lon="6.16348">
        <ele>1511</ele>
        <time>2026-08-09T07:42:42Z</time>
      </trkpt>
      <trkpt lat="45.09405" lon="6.16344">
        <ele>1511.2</ele>
        <time>2026-08-09T07:42:44Z</time>
      </trkpt>
      <trkpt lat="45.09409" lon="6.16341">
        <ele>1511.4</ele>
        <time>2026-08-09T07:42:46Z</time>
      </trkpt>
      <trkpt lat="45.09412" lon="6.16337">
        <ele>1511.6</ele>
        <time>2026-08-09T07:42:48Z</time>
      </trkpt>
      <trkpt lat="45.09417" lon="6.16332">
        <ele>1511.6</ele>
        <time>2026-08-09T07:42:50Z</time>
      </trkpt>
      <trkpt lat="45.09421" lon="6.16329">
        <ele>1511.8</ele>
        <time>2026-08-09T07:42:52Z</time>
      </trkpt>
      <trkpt lat="45.09423" lon="6.16328">
        <ele>1512</ele>
        <time>2026-08-09T07:42:53Z</time>
      </trkpt>
      <trkpt lat="45.09425" lon="6.16327">
        <ele>1512</ele>
        <time>2026-08-09T07:42:54Z</time>
      </trkpt>
      <trkpt lat="45.09428" lon="6.16326">
        <ele>1512.2</ele>
        <time>2026-08-09T07:42:56Z</time>
      </trkpt>
      <trkpt lat="45.09432" lon="6.16325">
        <ele>1512.4</ele>
        <time>2026-08-09T07:42:58Z</time>
      </trkpt>
      <trkpt lat="45.09434" lon="6.16324">
        <ele>1512.4</ele>
        <time>2026-08-09T07:42:59Z</time>
      </trkpt>
      <trkpt lat="45.09436" lon="6.16323">
        <ele>1512.6</ele>
        <time>2026-08-09T07:43:00Z</time>
      </trkpt>
      <trkpt lat="45.09438" lon="6.16323">
        <ele>1512.8</ele>
        <time>2026-08-09T07:43:01Z</time>
      </trkpt>
      <trkpt lat="45.0944" lon="6.16322">
        <ele>1513</ele>
        <time>2026-08-09T07:43:02Z</time>
      </trkpt>
      <trkpt lat="45.09443" lon="6.16321">
        <ele>1513.2</ele>
        <time>2026-08-09T07:43:04Z</time>
      </trkpt>
      <trkpt lat="45.09447" lon="6.16319">
        <ele>1513.8</ele>
        <time>2026-08-09T07:43:06Z</time>
      </trkpt>
      <trkpt lat="45.09449" lon="6.16319">
        <ele>1514</ele>
        <time>2026-08-09T07:43:07Z</time>
      </trkpt>
      <trkpt lat="45.09451" lon="6.16319">
        <ele>1514.2</ele>
        <time>2026-08-09T07:43:08Z</time>
      </trkpt>
      <trkpt lat="45.09454" lon="6.16319">
        <ele>1514.6</ele>
        <time>2026-08-09T07:43:10Z</time>
      </trkpt>
      <trkpt lat="45.09456" lon="6.1632">
        <ele>1514.8</ele>
        <time>2026-08-09T07:43:12Z</time>
      </trkpt>
      <trkpt lat="45.09457" lon="6.16319">
        <ele>1514.8</ele>
        <time>2026-08-09T07:43:13Z</time>
      </trkpt>
      <trkpt lat="45.09459" lon="6.16319">
        <ele>1515</ele>
        <time>2026-08-09T07:43:14Z</time>
      </trkpt>
      <trkpt lat="45.09462" lon="6.1632">
        <ele>1515.2</ele>
        <time>2026-08-09T07:43:16Z</time>
      </trkpt>
      <trkpt lat="45.09466" lon="6.1632">
        <ele>1515.8</ele>
        <time>2026-08-09T07:43:18Z</time>
      </trkpt>
      <trkpt lat="45.09468" lon="6.16319">
        <ele>1516</ele>
        <time>2026-08-09T07:43:19Z</time>
      </trkpt>
      <trkpt lat="45.0947" lon="6.1632">
        <ele>1516.2</ele>
        <time>2026-08-09T07:43:20Z</time>
      </trkpt>
      <trkpt lat="45.09474" lon="6.16319">
        <ele>1516.6</ele>
        <time>2026-08-09T07:43:22Z</time>
      </trkpt>
      <trkpt lat="45.09478" lon="6.1632">
        <ele>1516.8</ele>
        <time>2026-08-09T07:43:24Z</time>
      </trkpt>
      <trkpt lat="45.09481" lon="6.1632">
        <ele>1517.2</ele>
        <time>2026-08-09T07:43:26Z</time>
      </trkpt>
      <trkpt lat="45.09483" lon="6.1632">
        <ele>1517.4</ele>
        <time>2026-08-09T07:43:27Z</time>
      </trkpt>
      <trkpt lat="45.09486" lon="6.16319">
        <ele>1517.8</ele>
        <time>2026-08-09T07:43:28Z</time>
      </trkpt>
      <trkpt lat="45.09488" lon="6.16318">
        <ele>1518</ele>
        <time>2026-08-09T07:43:29Z</time>
      </trkpt>
      <trkpt lat="45.09491" lon="6.16318">
        <ele>1518.2</ele>
        <time>2026-08-09T07:43:30Z</time>
      </trkpt>
      <trkpt lat="45.09495" lon="6.16318">
        <ele>1518.6</ele>
        <time>2026-08-09T07:43:32Z</time>
      </trkpt>
      <trkpt lat="45.095" lon="6.16318">
        <ele>1519</ele>
        <time>2026-08-09T07:43:34Z</time>
      </trkpt>
      <trkpt lat="45.09504" lon="6.16319">
        <ele>1519.4</ele>
        <time>2026-08-09T07:43:36Z</time>
      </trkpt>
      <trkpt lat="45.09508" lon="6.16321">
        <ele>1519.8</ele>
        <time>2026-08-09T07:43:38Z</time>
      </trkpt>
      <trkpt lat="45.09512" lon="6.16321">
        <ele>1520</ele>
        <time>2026-08-09T07:43:40Z</time>
      </trkpt>
      <trkpt lat="45.09516" lon="6.16322">
        <ele>1520.4</ele>
        <time>2026-08-09T07:43:42Z</time>
      </trkpt>
      <trkpt lat="45.09523" lon="6.16323">
        <ele>1520.8</ele>
        <time>2026-08-09T07:43:44Z</time>
      </trkpt>
      <trkpt lat="45.09525" lon="6.16324">
        <ele>1520.8</ele>
        <time>2026-08-09T07:43:45Z</time>
      </trkpt>
      <trkpt lat="45.09525" lon="6.16324">
        <ele>1521</ele>
        <time>2026-08-09T07:43:46Z</time>
      </trkpt>
      <trkpt lat="45.09529" lon="6.16324">
        <ele>1521.4</ele>
        <time>2026-08-09T07:43:48Z</time>
      </trkpt>
      <trkpt lat="45.09534" lon="6.16323">
        <ele>1521.8</ele>
        <time>2026-08-09T07:43:50Z</time>
      </trkpt>
      <trkpt lat="45.09537" lon="6.16323">
        <ele>1522.2</ele>
        <time>2026-08-09T07:43:52Z</time>
      </trkpt>
      <trkpt lat="45.09541" lon="6.16323">
        <ele>1522.6</ele>
        <time>2026-08-09T07:43:54Z</time>
      </trkpt>
      <trkpt lat="45.09546" lon="6.16323">
        <ele>1523</ele>
        <time>2026-08-09T07:43:56Z</time>
      </trkpt>
      <trkpt lat="45.09546" lon="6.16323">
        <ele>1523</ele>
        <time>2026-08-09T07:43:57Z</time>
      </trkpt>
      <trkpt lat="45.09548" lon="6.16323">
        <ele>1523.2</ele>
        <time>2026-08-09T07:43:58Z</time>
      </trkpt>
      <trkpt lat="45.09551" lon="6.16323">
        <ele>1523.4</ele>
        <time>2026-08-09T07:44:00Z</time>
      </trkpt>
      <trkpt lat="45.09557" lon="6.16325">
        <ele>1523.8</ele>
        <time>2026-08-09T07:44:02Z</time>
      </trkpt>
      <trkpt lat="45.09559" lon="6.16326">
        <ele>1524.2</ele>
        <time>2026-08-09T07:44:04Z</time>
      </trkpt>
      <trkpt lat="45.09562" lon="6.16326">
        <ele>1524.6</ele>
        <time>2026-08-09T07:44:05Z</time>
      </trkpt>
      <trkpt lat="45.09562" lon="6.16326">
        <ele>1524.8</ele>
        <time>2026-08-09T07:44:06Z</time>
      </trkpt>
      <trkpt lat="45.09565" lon="6.16326">
        <ele>1525</ele>
        <time>2026-08-09T07:44:08Z</time>
      </trkpt>
      <trkpt lat="45.09567" lon="6.16327">
        <ele>1525</ele>
        <time>2026-08-09T07:44:10Z</time>
      </trkpt>
      <trkpt lat="45.09569" lon="6.16328">
        <ele>1525.2</ele>
        <time>2026-08-09T07:44:11Z</time>
      </trkpt>
      <trkpt lat="45.0957" lon="6.16329">
        <ele>1525.4</ele>
        <time>2026-08-09T07:44:12Z</time>
      </trkpt>
      <trkpt lat="45.09573" lon="6.1633">
        <ele>1525.6</ele>
        <time>2026-08-09T07:44:14Z</time>
      </trkpt>
      <trkpt lat="45.09576" lon="6.16333">
        <ele>1526</ele>
        <time>2026-08-09T07:44:16Z</time>
      </trkpt>
      <trkpt lat="45.09578" lon="6.16334">
        <ele>1526.2</ele>
        <time>2026-08-09T07:44:17Z</time>
      </trkpt>
      <trkpt lat="45.0958" lon="6.16335">
        <ele>1526.2</ele>
        <time>2026-08-09T07:44:18Z</time>
      </trkpt>
      <trkpt lat="45.09582" lon="6.16335">
        <ele>1526.4</ele>
        <time>2026-08-09T07:44:19Z</time>
      </trkpt>
      <trkpt lat="45.09583" lon="6.16337">
        <ele>1526.6</ele>
        <time>2026-08-09T07:44:20Z</time>
      </trkpt>
      <trkpt lat="45.09587" lon="6.16341">
        <ele>1527.2</ele>
        <time>2026-08-09T07:44:22Z</time>
      </trkpt>
      <trkpt lat="45.09591" lon="6.16345">
        <ele>1527.4</ele>
        <time>2026-08-09T07:44:23Z</time>
      </trkpt>
      <trkpt lat="45.09591" lon="6.16345">
        <ele>1527.6</ele>
        <time>2026-08-09T07:44:24Z</time>
      </trkpt>
      <trkpt lat="45.09594" lon="6.16346">
        <ele>1527.8</ele>
        <time>2026-08-09T07:44:26Z</time>
      </trkpt>
      <trkpt lat="45.09597" lon="6.16349">
        <ele>1528.2</ele>
        <time>2026-08-09T07:44:28Z</time>
      </trkpt>
      <trkpt lat="45.09602" lon="6.16352">
        <ele>1528.6</ele>
        <time>2026-08-09T07:44:30Z</time>
      </trkpt>
      <trkpt lat="45.09604" lon="6.16353">
        <ele>1529</ele>
        <time>2026-08-09T07:44:31Z</time>
      </trkpt>
      <trkpt lat="45.09606" lon="6.16354">
        <ele>1529.2</ele>
        <time>2026-08-09T07:44:32Z</time>
      </trkpt>
      <trkpt lat="45.0961" lon="6.16356">
        <ele>1529.4</ele>
        <time>2026-08-09T07:44:34Z</time>
      </trkpt>
      <trkpt lat="45.09612" lon="6.16357">
        <ele>1529.6</ele>
        <time>2026-08-09T07:44:35Z</time>
      </trkpt>
      <trkpt lat="45.09614" lon="6.16359">
        <ele>1529.8</ele>
        <time>2026-08-09T07:44:36Z</time>
      </trkpt>
      <trkpt lat="45.09615" lon="6.1636">
        <ele>1530</ele>
        <time>2026-08-09T07:44:37Z</time>
      </trkpt>
      <trkpt lat="45.09616" lon="6.16362">
        <ele>1530.2</ele>
        <time>2026-08-09T07:44:38Z</time>
      </trkpt>
      <trkpt lat="45.09618" lon="6.16365">
        <ele>1530.4</ele>
        <time>2026-08-09T07:44:40Z</time>
      </trkpt>
      <trkpt lat="45.09621" lon="6.16368">
        <ele>1530.8</ele>
        <time>2026-08-09T07:44:42Z</time>
      </trkpt>
      <trkpt lat="45.09623" lon="6.16373">
        <ele>1531.2</ele>
        <time>2026-08-09T07:44:44Z</time>
      </trkpt>
      <trkpt lat="45.09626" lon="6.16375">
        <ele>1531.6</ele>
        <time>2026-08-09T07:44:46Z</time>
      </trkpt>
      <trkpt lat="45.09627" lon="6.16377">
        <ele>1531.8</ele>
        <time>2026-08-09T07:44:47Z</time>
      </trkpt>
      <trkpt lat="45.09628" lon="6.16379">
        <ele>1532</ele>
        <time>2026-08-09T07:44:48Z</time>
      </trkpt>
      <trkpt lat="45.0963" lon="6.16381">
        <ele>1532.4</ele>
        <time>2026-08-09T07:44:50Z</time>
      </trkpt>
      <trkpt lat="45.09631" lon="6.16384">
        <ele>1532.4</ele>
        <time>2026-08-09T07:44:51Z</time>
      </trkpt>
      <trkpt lat="45.09632" lon="6.16386">
        <ele>1532.6</ele>
        <time>2026-08-09T07:44:52Z</time>
      </trkpt>
      <trkpt lat="45.09633" lon="6.16388">
        <ele>1533</ele>
        <time>2026-08-09T07:44:54Z</time>
      </trkpt>
      <trkpt lat="45.09634" lon="6.1639">
        <ele>1533.4</ele>
        <time>2026-08-09T07:44:56Z</time>
      </trkpt>
      <trkpt lat="45.09635" lon="6.1639">
        <ele>1533.8</ele>
        <time>2026-08-09T07:44:58Z</time>
      </trkpt>
      <trkpt lat="45.09635" lon="6.16389">
        <ele>1534.2</ele>
        <time>2026-08-09T07:45:00Z</time>
      </trkpt>
      <trkpt lat="45.09639" lon="6.16391">
        <ele>1534.2</ele>
        <time>2026-08-09T07:45:02Z</time>
      </trkpt>
      <trkpt lat="45.09641" lon="6.16394">
        <ele>1534.2</ele>
        <time>2026-08-09T07:45:04Z</time>
      </trkpt>
      <trkpt lat="45.09643" lon="6.16398">
        <ele>1534.4</ele>
        <time>2026-08-09T07:45:06Z</time>
      </trkpt>
      <trkpt lat="45.09647" lon="6.16401">
        <ele>1534.4</ele>
        <time>2026-08-09T07:45:08Z</time>
      </trkpt>
      <trkpt lat="45.0965" lon="6.16405">
        <ele>1534.4</ele>
        <time>2026-08-09T07:45:10Z</time>
      </trkpt>
      <trkpt lat="45.09653" lon="6.16407">
        <ele>1534.4</ele>
        <time>2026-08-09T07:45:12Z</time>
      </trkpt>
      <trkpt lat="45.09658" lon="6.1641">
        <ele>1534.4</ele>
        <time>2026-08-09T07:45:13Z</time>
      </trkpt>
      <trkpt lat="45.09658" lon="6.1641">
        <ele>1534.4</ele>
        <time>2026-08-09T07:45:14Z</time>
      </trkpt>
      <trkpt lat="45.09662" lon="6.16412">
        <ele>1534.6</ele>
        <time>2026-08-09T07:45:16Z</time>
      </trkpt>
      <trkpt lat="45.09666" lon="6.16412">
        <ele>1534.8</ele>
        <time>2026-08-09T07:45:17Z</time>
      </trkpt>
      <trkpt lat="45.09668" lon="6.16412">
        <ele>1534.8</ele>
        <time>2026-08-09T07:45:18Z</time>
      </trkpt>
      <trkpt lat="45.09671" lon="6.16412">
        <ele>1535.2</ele>
        <time>2026-08-09T07:45:20Z</time>
      </trkpt>
      <trkpt lat="45.09674" lon="6.16411">
        <ele>1535.4</ele>
        <time>2026-08-09T07:45:22Z</time>
      </trkpt>
      <trkpt lat="45.09678" lon="6.16409">
        <ele>1535.8</ele>
        <time>2026-08-09T07:45:24Z</time>
      </trkpt>
      <trkpt lat="45.09678" lon="6.16409">
        <ele>1536</ele>
        <time>2026-08-09T07:45:25Z</time>
      </trkpt>
      <trkpt lat="45.09681" lon="6.16407">
        <ele>1536</ele>
        <time>2026-08-09T07:45:26Z</time>
      </trkpt>
      <trkpt lat="45.09685" lon="6.16403">
        <ele>1536.2</ele>
        <time>2026-08-09T07:45:28Z</time>
      </trkpt>
      <trkpt lat="45.09688" lon="6.16401">
        <ele>1536.4</ele>
        <time>2026-08-09T07:45:30Z</time>
      </trkpt>
      <trkpt lat="45.09689" lon="6.16401">
        <ele>1536.8</ele>
        <time>2026-08-09T07:45:32Z</time>
      </trkpt>
      <trkpt lat="45.09692" lon="6.164">
        <ele>1536.8</ele>
        <time>2026-08-09T07:45:33Z</time>
      </trkpt>
      <trkpt lat="45.09692" lon="6.164">
        <ele>1537</ele>
        <time>2026-08-09T07:45:34Z</time>
      </trkpt>
      <trkpt lat="45.09697" lon="6.16399">
        <ele>1537.4</ele>
        <time>2026-08-09T07:45:36Z</time>
      </trkpt>
      <trkpt lat="45.097" lon="6.16399">
        <ele>1537.6</ele>
        <time>2026-08-09T07:45:38Z</time>
      </trkpt>
      <trkpt lat="45.097" lon="6.16399">
        <ele>1537.8</ele>
        <time>2026-08-09T07:45:39Z</time>
      </trkpt>
      <trkpt lat="45.09703" lon="6.16398">
        <ele>1537.8</ele>
        <time>2026-08-09T07:45:40Z</time>
      </trkpt>
      <trkpt lat="45.09705" lon="6.16398">
        <ele>1538</ele>
        <time>2026-08-09T07:45:41Z</time>
      </trkpt>
      <trkpt lat="45.09706" lon="6.16398">
        <ele>1538.2</ele>
        <time>2026-08-09T07:45:42Z</time>
      </trkpt>
      <trkpt lat="45.0971" lon="6.16397">
        <ele>1538.2</ele>
        <time>2026-08-09T07:45:44Z</time>
      </trkpt>
      <trkpt lat="45.09713" lon="6.16397">
        <ele>1538.4</ele>
        <time>2026-08-09T07:45:46Z</time>
      </trkpt>
      <trkpt lat="45.09716" lon="6.16398">
        <ele>1538.8</ele>
        <time>2026-08-09T07:45:48Z</time>
      </trkpt>
      <trkpt lat="45.09717" lon="6.16399">
        <ele>1538.8</ele>
        <time>2026-08-09T07:45:49Z</time>
      </trkpt>
      <trkpt lat="45.09719" lon="6.164">
        <ele>1539</ele>
        <time>2026-08-09T07:45:50Z</time>
      </trkpt>
      <trkpt lat="45.09722" lon="6.16402">
        <ele>1539.4</ele>
        <time>2026-08-09T07:45:52Z</time>
      </trkpt>
      <trkpt lat="45.09726" lon="6.16403">
        <ele>1539.8</ele>
        <time>2026-08-09T07:45:54Z</time>
      </trkpt>
      <trkpt lat="45.09728" lon="6.16404">
        <ele>1540.2</ele>
        <time>2026-08-09T07:45:56Z</time>
      </trkpt>
      <trkpt lat="45.09732" lon="6.16408">
        <ele>1540.6</ele>
        <time>2026-08-09T07:45:58Z</time>
      </trkpt>
      <trkpt lat="45.09735" lon="6.16411">
        <ele>1541</ele>
        <time>2026-08-09T07:46:00Z</time>
      </trkpt>
      <trkpt lat="45.09737" lon="6.16415">
        <ele>1541.4</ele>
        <time>2026-08-09T07:46:02Z</time>
      </trkpt>
      <trkpt lat="45.09742" lon="6.1642">
        <ele>1541.6</ele>
        <time>2026-08-09T07:46:04Z</time>
      </trkpt>
      <trkpt lat="45.09745" lon="6.16425">
        <ele>1541.8</ele>
        <time>2026-08-09T07:46:06Z</time>
      </trkpt>
      <trkpt lat="45.09748" lon="6.16428">
        <ele>1542.2</ele>
        <time>2026-08-09T07:46:08Z</time>
      </trkpt>
      <trkpt lat="45.09749" lon="6.1643">
        <ele>1542.4</ele>
        <time>2026-08-09T07:46:10Z</time>
      </trkpt>
      <trkpt lat="45.09753" lon="6.16433">
        <ele>1542.6</ele>
        <time>2026-08-09T07:46:12Z</time>
      </trkpt>
      <trkpt lat="45.09754" lon="6.16434">
        <ele>1542.8</ele>
        <time>2026-08-09T07:46:13Z</time>
      </trkpt>
      <trkpt lat="45.09755" lon="6.16435">
        <ele>1543</ele>
        <time>2026-08-09T07:46:14Z</time>
      </trkpt>
      <trkpt lat="45.09756" lon="6.16435">
        <ele>1543.2</ele>
        <time>2026-08-09T07:46:15Z</time>
      </trkpt>
      <trkpt lat="45.09756" lon="6.16435">
        <ele>1543.4</ele>
        <time>2026-08-09T07:46:16Z</time>
      </trkpt>
      <trkpt lat="45.09759" lon="6.16431">
        <ele>1543.6</ele>
        <time>2026-08-09T07:46:17Z</time>
      </trkpt>
      <trkpt lat="45.09761" lon="6.16428">
        <ele>1543.8</ele>
        <time>2026-08-09T07:46:18Z</time>
      </trkpt>
      <trkpt lat="45.09761" lon="6.16426">
        <ele>1544.2</ele>
        <time>2026-08-09T07:46:20Z</time>
      </trkpt>
      <trkpt lat="45.09762" lon="6.16419">
        <ele>1544.4</ele>
        <time>2026-08-09T07:46:22Z</time>
      </trkpt>
      <trkpt lat="45.09761" lon="6.16416">
        <ele>1544.6</ele>
        <time>2026-08-09T07:46:23Z</time>
      </trkpt>
      <trkpt lat="45.09761" lon="6.16414">
        <ele>1544.8</ele>
        <time>2026-08-09T07:46:24Z</time>
      </trkpt>
      <trkpt lat="45.09761" lon="6.16409">
        <ele>1545</ele>
        <time>2026-08-09T07:46:26Z</time>
      </trkpt>
      <trkpt lat="45.09761" lon="6.16404">
        <ele>1545.2</ele>
        <time>2026-08-09T07:46:28Z</time>
      </trkpt>
      <trkpt lat="45.09761" lon="6.16402">
        <ele>1545.2</ele>
        <time>2026-08-09T07:46:29Z</time>
      </trkpt>
      <trkpt lat="45.09761" lon="6.16399">
        <ele>1545.4</ele>
        <time>2026-08-09T07:46:30Z</time>
      </trkpt>
      <trkpt lat="45.09761" lon="6.16399">
        <ele>1545.4</ele>
        <time>2026-08-09T07:46:31Z</time>
      </trkpt>
      <trkpt lat="45.09762" lon="6.16395">
        <ele>1545.6</ele>
        <time>2026-08-09T07:46:32Z</time>
      </trkpt>
      <trkpt lat="45.09761" lon="6.16392">
        <ele>1546</ele>
        <time>2026-08-09T07:46:34Z</time>
      </trkpt>
      <trkpt lat="45.0976" lon="6.16389">
        <ele>1546.4</ele>
        <time>2026-08-09T07:46:36Z</time>
      </trkpt>
      <trkpt lat="45.0976" lon="6.16389">
        <ele>1546.6</ele>
        <time>2026-08-09T07:46:37Z</time>
      </trkpt>
      <trkpt lat="45.0976" lon="6.16387">
        <ele>1546.8</ele>
        <time>2026-08-09T07:46:38Z</time>
      </trkpt>
      <trkpt lat="45.09759" lon="6.1638">
        <ele>1547</ele>
        <time>2026-08-09T07:46:40Z</time>
      </trkpt>
      <trkpt lat="45.09759" lon="6.16375">
        <ele>1547.6</ele>
        <time>2026-08-09T07:46:42Z</time>
      </trkpt>
      <trkpt lat="45.09759" lon="6.16375">
        <ele>1547.8</ele>
        <time>2026-08-09T07:46:43Z</time>
      </trkpt>
      <trkpt lat="45.09759" lon="6.16371">
        <ele>1547.8</ele>
        <time>2026-08-09T07:46:44Z</time>
      </trkpt>
      <trkpt lat="45.09758" lon="6.16365">
        <ele>1548</ele>
        <time>2026-08-09T07:46:46Z</time>
      </trkpt>
      <trkpt lat="45.09757" lon="6.1636">
        <ele>1548.4</ele>
        <time>2026-08-09T07:46:48Z</time>
      </trkpt>
      <trkpt lat="45.09757" lon="6.1636">
        <ele>1548.6</ele>
        <time>2026-08-09T07:46:49Z</time>
      </trkpt>
      <trkpt lat="45.09756" lon="6.16355">
        <ele>1548.6</ele>
        <time>2026-08-09T07:46:50Z</time>
      </trkpt>
      <trkpt lat="45.09754" lon="6.1635">
        <ele>1549</ele>
        <time>2026-08-09T07:46:52Z</time>
      </trkpt>
      <trkpt lat="45.09753" lon="6.16344">
        <ele>1549.4</ele>
        <time>2026-08-09T07:46:54Z</time>
      </trkpt>
      <trkpt lat="45.09751" lon="6.1634">
        <ele>1549.6</ele>
        <time>2026-08-09T07:46:56Z</time>
      </trkpt>
      <trkpt lat="45.0975" lon="6.16335">
        <ele>1550</ele>
        <time>2026-08-09T07:46:58Z</time>
      </trkpt>
      <trkpt lat="45.09746" lon="6.1633">
        <ele>1550.2</ele>
        <time>2026-08-09T07:47:00Z</time>
      </trkpt>
      <trkpt lat="45.09744" lon="6.16325">
        <ele>1550.4</ele>
        <time>2026-08-09T07:47:02Z</time>
      </trkpt>
      <trkpt lat="45.0974" lon="6.1632">
        <ele>1550.8</ele>
        <time>2026-08-09T07:47:04Z</time>
      </trkpt>
      <trkpt lat="45.09739" lon="6.16319">
        <ele>1551</ele>
        <time>2026-08-09T07:47:05Z</time>
      </trkpt>
      <trkpt lat="45.09738" lon="6.16316">
        <ele>1551</ele>
        <time>2026-08-09T07:47:06Z</time>
      </trkpt>
      <trkpt lat="45.09736" lon="6.16312">
        <ele>1551.2</ele>
        <time>2026-08-09T07:47:08Z</time>
      </trkpt>
      <trkpt lat="45.09734" lon="6.16308">
        <ele>1551.4</ele>
        <time>2026-08-09T07:47:10Z</time>
      </trkpt>
      <trkpt lat="45.09732" lon="6.16303">
        <ele>1551.8</ele>
        <time>2026-08-09T07:47:12Z</time>
      </trkpt>
      <trkpt lat="45.0973" lon="6.163">
        <ele>1551.8</ele>
        <time>2026-08-09T07:47:13Z</time>
      </trkpt>
      <trkpt lat="45.09728" lon="6.16297">
        <ele>1552</ele>
        <time>2026-08-09T07:47:14Z</time>
      </trkpt>
      <trkpt lat="45.09723" lon="6.16291">
        <ele>1551.8</ele>
        <time>2026-08-09T07:47:16Z</time>
      </trkpt>
      <trkpt lat="45.09721" lon="6.16289">
        <ele>1552</ele>
        <time>2026-08-09T07:47:17Z</time>
      </trkpt>
      <trkpt lat="45.09719" lon="6.16287">
        <ele>1552.2</ele>
        <time>2026-08-09T07:47:18Z</time>
      </trkpt>
      <trkpt lat="45.09716" lon="6.16283">
        <ele>1552.4</ele>
        <time>2026-08-09T07:47:20Z</time>
      </trkpt>
      <trkpt lat="45.09713" lon="6.16279">
        <ele>1552.8</ele>
        <time>2026-08-09T07:47:22Z</time>
      </trkpt>
      <trkpt lat="45.0971" lon="6.16275">
        <ele>1553</ele>
        <time>2026-08-09T07:47:24Z</time>
      </trkpt>
      <trkpt lat="45.09707" lon="6.16273">
        <ele>1553.2</ele>
        <time>2026-08-09T07:47:25Z</time>
      </trkpt>
      <trkpt lat="45.09706" lon="6.16271">
        <ele>1553.2</ele>
        <time>2026-08-09T07:47:26Z</time>
      </trkpt>
      <trkpt lat="45.09703" lon="6.16266">
        <ele>1553.4</ele>
        <time>2026-08-09T07:47:28Z</time>
      </trkpt>
      <trkpt lat="45.09701" lon="6.16264">
        <ele>1553.6</ele>
        <time>2026-08-09T07:47:29Z</time>
      </trkpt>
      <trkpt lat="45.097" lon="6.16262">
        <ele>1553.8</ele>
        <time>2026-08-09T07:47:30Z</time>
      </trkpt>
      <trkpt lat="45.097" lon="6.16261">
        <ele>1554</ele>
        <time>2026-08-09T07:47:31Z</time>
      </trkpt>
      <trkpt lat="45.097" lon="6.16261">
        <ele>1554</ele>
        <time>2026-08-09T07:47:32Z</time>
      </trkpt>
      <trkpt lat="45.09699" lon="6.16262">
        <ele>1554</ele>
        <time>2026-08-09T07:47:34Z</time>
      </trkpt>
      <trkpt lat="45.097" lon="6.16264">
        <ele>1554.2</ele>
        <time>2026-08-09T07:47:36Z</time>
      </trkpt>
      <trkpt lat="45.09703" lon="6.16266">
        <ele>1554.4</ele>
        <time>2026-08-09T07:47:38Z</time>
      </trkpt>
      <trkpt lat="45.09705" lon="6.16268">
        <ele>1554.8</ele>
        <time>2026-08-09T07:47:40Z</time>
      </trkpt>
      <trkpt lat="45.09706" lon="6.1627">
        <ele>1555</ele>
        <time>2026-08-09T07:47:41Z</time>
      </trkpt>
      <trkpt lat="45.09706" lon="6.16271">
        <ele>1555.2</ele>
        <time>2026-08-09T07:47:42Z</time>
      </trkpt>
      <trkpt lat="45.09709" lon="6.16272">
        <ele>1555.6</ele>
        <time>2026-08-09T07:47:44Z</time>
      </trkpt>
      <trkpt lat="45.09711" lon="6.16275">
        <ele>1556</ele>
        <time>2026-08-09T07:47:46Z</time>
      </trkpt>
      <trkpt lat="45.09712" lon="6.16276">
        <ele>1556.2</ele>
        <time>2026-08-09T07:47:47Z</time>
      </trkpt>
      <trkpt lat="45.09713" lon="6.16278">
        <ele>1556.4</ele>
        <time>2026-08-09T07:47:48Z</time>
      </trkpt>
      <trkpt lat="45.09715" lon="6.16279">
        <ele>1556.8</ele>
        <time>2026-08-09T07:47:49Z</time>
      </trkpt>
      <trkpt lat="45.09716" lon="6.16281">
        <ele>1557</ele>
        <time>2026-08-09T07:47:50Z</time>
      </trkpt>
      <trkpt lat="45.09717" lon="6.16281">
        <ele>1557.2</ele>
        <time>2026-08-09T07:47:51Z</time>
      </trkpt>
      <trkpt lat="45.09719" lon="6.16282">
        <ele>1557.4</ele>
        <time>2026-08-09T07:47:52Z</time>
      </trkpt>
      <trkpt lat="45.09722" lon="6.16286">
        <ele>1557.8</ele>
        <time>2026-08-09T07:47:54Z</time>
      </trkpt>
      <trkpt lat="45.09724" lon="6.1629">
        <ele>1558.2</ele>
        <time>2026-08-09T07:47:56Z</time>
      </trkpt>
      <trkpt lat="45.09726" lon="6.16293">
        <ele>1558.4</ele>
        <time>2026-08-09T07:47:58Z</time>
      </trkpt>
      <trkpt lat="45.09729" lon="6.16296">
        <ele>1558.8</ele>
        <time>2026-08-09T07:48:00Z</time>
      </trkpt>
      <trkpt lat="45.09731" lon="6.16298">
        <ele>1559</ele>
        <time>2026-08-09T07:48:02Z</time>
      </trkpt>
      <trkpt lat="45.09734" lon="6.163">
        <ele>1559.4</ele>
        <time>2026-08-09T07:48:04Z</time>
      </trkpt>
      <trkpt lat="45.09737" lon="6.16302">
        <ele>1559.6</ele>
        <time>2026-08-09T07:48:06Z</time>
      </trkpt>
      <trkpt lat="45.09739" lon="6.16306">
        <ele>1560</ele>
        <time>2026-08-09T07:48:08Z</time>
      </trkpt>
      <trkpt lat="45.0974" lon="6.16308">
        <ele>1560.2</ele>
        <time>2026-08-09T07:48:09Z</time>
      </trkpt>
      <trkpt lat="45.0974" lon="6.16308">
        <ele>1560.4</ele>
        <time>2026-08-09T07:48:10Z</time>
      </trkpt>
      <trkpt lat="45.09743" lon="6.16312">
        <ele>1560.4</ele>
        <time>2026-08-09T07:48:11Z</time>
      </trkpt>
      <trkpt lat="45.09743" lon="6.16312">
        <ele>1560.6</ele>
        <time>2026-08-09T07:48:12Z</time>
      </trkpt>
      <trkpt lat="45.09747" lon="6.16319">
        <ele>1561</ele>
        <time>2026-08-09T07:48:14Z</time>
      </trkpt>
      <trkpt lat="45.09751" lon="6.16323">
        <ele>1561.4</ele>
        <time>2026-08-09T07:48:16Z</time>
      </trkpt>
      <trkpt lat="45.09751" lon="6.16323">
        <ele>1561.6</ele>
        <time>2026-08-09T07:48:17Z</time>
      </trkpt>
      <trkpt lat="45.09753" lon="6.16326">
        <ele>1562</ele>
        <time>2026-08-09T07:48:18Z</time>
      </trkpt>
      <trkpt lat="45.09756" lon="6.1633">
        <ele>1562.4</ele>
        <time>2026-08-09T07:48:20Z</time>
      </trkpt>
      <trkpt lat="45.09757" lon="6.16333">
        <ele>1562.8</ele>
        <time>2026-08-09T07:48:22Z</time>
      </trkpt>
      <trkpt lat="45.0976" lon="6.16337">
        <ele>1563</ele>
        <time>2026-08-09T07:48:24Z</time>
      </trkpt>
      <trkpt lat="45.09762" lon="6.16339">
        <ele>1563.6</ele>
        <time>2026-08-09T07:48:26Z</time>
      </trkpt>
      <trkpt lat="45.09765" lon="6.16342">
        <ele>1563.8</ele>
        <time>2026-08-09T07:48:27Z</time>
      </trkpt>
      <trkpt lat="45.09765" lon="6.16342">
        <ele>1564</ele>
        <time>2026-08-09T07:48:28Z</time>
      </trkpt>
      <trkpt lat="45.09767" lon="6.16346">
        <ele>1564.2</ele>
        <time>2026-08-09T07:48:30Z</time>
      </trkpt>
      <trkpt lat="45.09772" lon="6.16348">
        <ele>1564.4</ele>
        <time>2026-08-09T07:48:32Z</time>
      </trkpt>
      <trkpt lat="45.09773" lon="6.16349">
        <ele>1564.8</ele>
        <time>2026-08-09T07:48:34Z</time>
      </trkpt>
      <trkpt lat="45.09776" lon="6.16351">
        <ele>1565</ele>
        <time>2026-08-09T07:48:35Z</time>
      </trkpt>
      <trkpt lat="45.09777" lon="6.16352">
        <ele>1565</ele>
        <time>2026-08-09T07:48:36Z</time>
      </trkpt>
      <trkpt lat="45.09781" lon="6.16354">
        <ele>1565.4</ele>
        <time>2026-08-09T07:48:38Z</time>
      </trkpt>
      <trkpt lat="45.09781" lon="6.16354">
        <ele>1565.6</ele>
        <time>2026-08-09T07:48:39Z</time>
      </trkpt>
      <trkpt lat="45.09782" lon="6.16356">
        <ele>1565.6</ele>
        <time>2026-08-09T07:48:40Z</time>
      </trkpt>
      <trkpt lat="45.09787" lon="6.1636">
        <ele>1565.8</ele>
        <time>2026-08-09T07:48:42Z</time>
      </trkpt>
      <trkpt lat="45.09787" lon="6.1636">
        <ele>1566</ele>
        <time>2026-08-09T07:48:43Z</time>
      </trkpt>
      <trkpt lat="45.09789" lon="6.16364">
        <ele>1566.2</ele>
        <time>2026-08-09T07:48:44Z</time>
      </trkpt>
      <trkpt lat="45.09789" lon="6.16364">
        <ele>1566.2</ele>
        <time>2026-08-09T07:48:45Z</time>
      </trkpt>
      <trkpt lat="45.09793" lon="6.16368">
        <ele>1566.4</ele>
        <time>2026-08-09T07:48:46Z</time>
      </trkpt>
      <trkpt lat="45.09795" lon="6.16372">
        <ele>1566.6</ele>
        <time>2026-08-09T07:48:48Z</time>
      </trkpt>
      <trkpt lat="45.09796" lon="6.16373">
        <ele>1567</ele>
        <time>2026-08-09T07:48:50Z</time>
      </trkpt>
      <trkpt lat="45.09799" lon="6.16377">
        <ele>1567.2</ele>
        <time>2026-08-09T07:48:51Z</time>
      </trkpt>
      <trkpt lat="45.09801" lon="6.16379">
        <ele>1567.2</ele>
        <time>2026-08-09T07:48:52Z</time>
      </trkpt>
      <trkpt lat="45.09803" lon="6.1638">
        <ele>1567.6</ele>
        <time>2026-08-09T07:48:54Z</time>
      </trkpt>
      <trkpt lat="45.09807" lon="6.16383">
        <ele>1567.8</ele>
        <time>2026-08-09T07:48:56Z</time>
      </trkpt>
      <trkpt lat="45.09812" lon="6.16389">
        <ele>1568</ele>
        <time>2026-08-09T07:48:58Z</time>
      </trkpt>
      <trkpt lat="45.09815" lon="6.16392">
        <ele>1568.2</ele>
        <time>2026-08-09T07:49:00Z</time>
      </trkpt>
      <trkpt lat="45.09815" lon="6.16392">
        <ele>1568.4</ele>
        <time>2026-08-09T07:49:01Z</time>
      </trkpt>
      <trkpt lat="45.09818" lon="6.16396">
        <ele>1568.6</ele>
        <time>2026-08-09T07:49:02Z</time>
      </trkpt>
      <trkpt lat="45.09821" lon="6.16399">
        <ele>1568.8</ele>
        <time>2026-08-09T07:49:04Z</time>
      </trkpt>
      <trkpt lat="45.09824" lon="6.16402">
        <ele>1569</ele>
        <time>2026-08-09T07:49:06Z</time>
      </trkpt>
      <trkpt lat="45.09827" lon="6.16404">
        <ele>1569.2</ele>
        <time>2026-08-09T07:49:07Z</time>
      </trkpt>
      <trkpt lat="45.09828" lon="6.16405">
        <ele>1569.6</ele>
        <time>2026-08-09T07:49:08Z</time>
      </trkpt>
      <trkpt lat="45.09831" lon="6.16408">
        <ele>1570</ele>
        <time>2026-08-09T07:49:10Z</time>
      </trkpt>
      <trkpt lat="45.09833" lon="6.16409">
        <ele>1570.2</ele>
        <time>2026-08-09T07:49:11Z</time>
      </trkpt>
      <trkpt lat="45.09833" lon="6.16409">
        <ele>1570.4</ele>
        <time>2026-08-09T07:49:12Z</time>
      </trkpt>
      <trkpt lat="45.09836" lon="6.16413">
        <ele>1570.6</ele>
        <time>2026-08-09T07:49:14Z</time>
      </trkpt>
      <trkpt lat="45.09842" lon="6.16418">
        <ele>1570.8</ele>
        <time>2026-08-09T07:49:16Z</time>
      </trkpt>
      <trkpt lat="45.09845" lon="6.1642">
        <ele>1571</ele>
        <time>2026-08-09T07:49:18Z</time>
      </trkpt>
      <trkpt lat="45.09849" lon="6.16422">
        <ele>1571.2</ele>
        <time>2026-08-09T07:49:20Z</time>
      </trkpt>
      <trkpt lat="45.09853" lon="6.16425">
        <ele>1571.6</ele>
        <time>2026-08-09T07:49:22Z</time>
      </trkpt>
      <trkpt lat="45.09853" lon="6.16425">
        <ele>1571.8</ele>
        <time>2026-08-09T07:49:23Z</time>
      </trkpt>
      <trkpt lat="45.09857" lon="6.16428">
        <ele>1572</ele>
        <time>2026-08-09T07:49:24Z</time>
      </trkpt>
      <trkpt lat="45.09861" lon="6.16431">
        <ele>1572.2</ele>
        <time>2026-08-09T07:49:26Z</time>
      </trkpt>
      <trkpt lat="45.09861" lon="6.16431">
        <ele>1572.4</ele>
        <time>2026-08-09T07:49:27Z</time>
      </trkpt>
      <trkpt lat="45.09863" lon="6.16432">
        <ele>1572.6</ele>
        <time>2026-08-09T07:49:28Z</time>
      </trkpt>
      <trkpt lat="45.09866" lon="6.16433">
        <ele>1572.8</ele>
        <time>2026-08-09T07:49:29Z</time>
      </trkpt>
      <trkpt lat="45.09868" lon="6.16434">
        <ele>1573</ele>
        <time>2026-08-09T07:49:30Z</time>
      </trkpt>
      <trkpt lat="45.0987" lon="6.16436">
        <ele>1573.4</ele>
        <time>2026-08-09T07:49:32Z</time>
      </trkpt>
      <trkpt lat="45.09872" lon="6.16438">
        <ele>1573.6</ele>
        <time>2026-08-09T07:49:33Z</time>
      </trkpt>
      <trkpt lat="45.09872" lon="6.16438">
        <ele>1573.8</ele>
        <time>2026-08-09T07:49:34Z</time>
      </trkpt>
      <trkpt lat="45.09877" lon="6.16442">
        <ele>1574.2</ele>
        <time>2026-08-09T07:49:36Z</time>
      </trkpt>
      <trkpt lat="45.09879" lon="6.16443">
        <ele>1574.4</ele>
        <time>2026-08-09T07:49:37Z</time>
      </trkpt>
      <trkpt lat="45.0988" lon="6.16445">
        <ele>1574.4</ele>
        <time>2026-08-09T07:49:38Z</time>
      </trkpt>
      <trkpt lat="45.09882" lon="6.16447">
        <ele>1574.8</ele>
        <time>2026-08-09T07:49:40Z</time>
      </trkpt>
      <trkpt lat="45.09886" lon="6.16449">
        <ele>1575.2</ele>
        <time>2026-08-09T07:49:42Z</time>
      </trkpt>
      <trkpt lat="45.09889" lon="6.16453">
        <ele>1575.6</ele>
        <time>2026-08-09T07:49:44Z</time>
      </trkpt>
      <trkpt lat="45.09889" lon="6.16453">
        <ele>1575.8</ele>
        <time>2026-08-09T07:49:45Z</time>
      </trkpt>
      <trkpt lat="45.09892" lon="6.16456">
        <ele>1576</ele>
        <time>2026-08-09T07:49:46Z</time>
      </trkpt>
      <trkpt lat="45.09896" lon="6.16459">
        <ele>1576.4</ele>
        <time>2026-08-09T07:49:48Z</time>
      </trkpt>
      <trkpt lat="45.099" lon="6.16461">
        <ele>1576.8</ele>
        <time>2026-08-09T07:49:50Z</time>
      </trkpt>
      <trkpt lat="45.09903" lon="6.16464">
        <ele>1577</ele>
        <time>2026-08-09T07:49:52Z</time>
      </trkpt>
      <trkpt lat="45.09906" lon="6.16465">
        <ele>1577.4</ele>
        <time>2026-08-09T07:49:54Z</time>
      </trkpt>
      <trkpt lat="45.09907" lon="6.16466">
        <ele>1577.6</ele>
        <time>2026-08-09T07:49:56Z</time>
      </trkpt>
      <trkpt lat="45.09912" lon="6.16469">
        <ele>1577.8</ele>
        <time>2026-08-09T07:49:58Z</time>
      </trkpt>
      <trkpt lat="45.09913" lon="6.1647">
        <ele>1578</ele>
        <time>2026-08-09T07:49:59Z</time>
      </trkpt>
      <trkpt lat="45.09915" lon="6.1647">
        <ele>1578.2</ele>
        <time>2026-08-09T07:50:00Z</time>
      </trkpt>
      <trkpt lat="45.09916" lon="6.16471">
        <ele>1578.6</ele>
        <time>2026-08-09T07:50:02Z</time>
      </trkpt>
      <trkpt lat="45.09918" lon="6.16471">
        <ele>1578.8</ele>
        <time>2026-08-09T07:50:03Z</time>
      </trkpt>
      <trkpt lat="45.09921" lon="6.16473">
        <ele>1578.8</ele>
        <time>2026-08-09T07:50:04Z</time>
      </trkpt>
      <trkpt lat="45.09924" lon="6.16475">
        <ele>1579.2</ele>
        <time>2026-08-09T07:50:06Z</time>
      </trkpt>
      <trkpt lat="45.09928" lon="6.16477">
        <ele>1579.6</ele>
        <time>2026-08-09T07:50:08Z</time>
      </trkpt>
      <trkpt lat="45.0993" lon="6.16477">
        <ele>1580</ele>
        <time>2026-08-09T07:50:10Z</time>
      </trkpt>
      <trkpt lat="45.09934" lon="6.16477">
        <ele>1580.2</ele>
        <time>2026-08-09T07:50:12Z</time>
      </trkpt>
      <trkpt lat="45.09941" lon="6.16477">
        <ele>1580.6</ele>
        <time>2026-08-09T07:50:14Z</time>
      </trkpt>
      <trkpt lat="45.09945" lon="6.16476">
        <ele>1581</ele>
        <time>2026-08-09T07:50:16Z</time>
      </trkpt>
      <trkpt lat="45.09946" lon="6.16476">
        <ele>1581.2</ele>
        <time>2026-08-09T07:50:18Z</time>
      </trkpt>
      <trkpt lat="45.09949" lon="6.16477">
        <ele>1581.4</ele>
        <time>2026-08-09T07:50:19Z</time>
      </trkpt>
      <trkpt lat="45.09949" lon="6.16477">
        <ele>1581.6</ele>
        <time>2026-08-09T07:50:20Z</time>
      </trkpt>
      <trkpt lat="45.09954" lon="6.16476">
        <ele>1581.8</ele>
        <time>2026-08-09T07:50:22Z</time>
      </trkpt>
      <trkpt lat="45.09959" lon="6.16475">
        <ele>1581.8</ele>
        <time>2026-08-09T07:50:24Z</time>
      </trkpt>
      <trkpt lat="45.09959" lon="6.16475">
        <ele>1582</ele>
        <time>2026-08-09T07:50:25Z</time>
      </trkpt>
      <trkpt lat="45.09961" lon="6.16476">
        <ele>1582.2</ele>
        <time>2026-08-09T07:50:26Z</time>
      </trkpt>
      <trkpt lat="45.09967" lon="6.16474">
        <ele>1582.6</ele>
        <time>2026-08-09T07:50:28Z</time>
      </trkpt>
      <trkpt lat="45.09971" lon="6.16473">
        <ele>1583</ele>
        <time>2026-08-09T07:50:30Z</time>
      </trkpt>
      <trkpt lat="45.09975" lon="6.16473">
        <ele>1583.2</ele>
        <time>2026-08-09T07:50:32Z</time>
      </trkpt>
      <trkpt lat="45.0998" lon="6.16472">
        <ele>1583.6</ele>
        <time>2026-08-09T07:50:34Z</time>
      </trkpt>
      <trkpt lat="45.09984" lon="6.16471">
        <ele>1583.8</ele>
        <time>2026-08-09T07:50:36Z</time>
      </trkpt>
      <trkpt lat="45.09988" lon="6.16471">
        <ele>1584.2</ele>
        <time>2026-08-09T07:50:38Z</time>
      </trkpt>
      <trkpt lat="45.09992" lon="6.16471">
        <ele>1584.6</ele>
        <time>2026-08-09T07:50:40Z</time>
      </trkpt>
      <trkpt lat="45.09993" lon="6.16471">
        <ele>1584.8</ele>
        <time>2026-08-09T07:50:41Z</time>
      </trkpt>
      <trkpt lat="45.09995" lon="6.16471">
        <ele>1584.8</ele>
        <time>2026-08-09T07:50:42Z</time>
      </trkpt>
      <trkpt lat="45.09999" lon="6.16471">
        <ele>1585.4</ele>
        <time>2026-08-09T07:50:44Z</time>
      </trkpt>
      <trkpt lat="45.10002" lon="6.16471">
        <ele>1585.8</ele>
        <time>2026-08-09T07:50:46Z</time>
      </trkpt>
      <trkpt lat="45.10004" lon="6.1647">
        <ele>1586.2</ele>
        <time>2026-08-09T07:50:48Z</time>
      </trkpt>
      <trkpt lat="45.10008" lon="6.16467">
        <ele>1586.2</ele>
        <time>2026-08-09T07:50:49Z</time>
      </trkpt>
      <trkpt lat="45.10009" lon="6.16464">
        <ele>1586.4</ele>
        <time>2026-08-09T07:50:50Z</time>
      </trkpt>
      <trkpt lat="45.10009" lon="6.16464">
        <ele>1586.6</ele>
        <time>2026-08-09T07:50:51Z</time>
      </trkpt>
      <trkpt lat="45.10011" lon="6.1646">
        <ele>1586.8</ele>
        <time>2026-08-09T07:50:52Z</time>
      </trkpt>
      <trkpt lat="45.10011" lon="6.16456">
        <ele>1587.2</ele>
        <time>2026-08-09T07:50:54Z</time>
      </trkpt>
      <trkpt lat="45.1001" lon="6.16453">
        <ele>1587.2</ele>
        <time>2026-08-09T07:50:56Z</time>
      </trkpt>
      <trkpt lat="45.10009" lon="6.16451">
        <ele>1587.6</ele>
        <time>2026-08-09T07:50:58Z</time>
      </trkpt>
      <trkpt lat="45.10004" lon="6.16447">
        <ele>1588</ele>
        <time>2026-08-09T07:51:00Z</time>
      </trkpt>
      <trkpt lat="45.10002" lon="6.16446">
        <ele>1588.4</ele>
        <time>2026-08-09T07:51:02Z</time>
      </trkpt>
      <trkpt lat="45.09997" lon="6.16444">
        <ele>1588.8</ele>
        <time>2026-08-09T07:51:04Z</time>
      </trkpt>
      <trkpt lat="45.0999" lon="6.16442">
        <ele>1588.8</ele>
        <time>2026-08-09T07:51:06Z</time>
      </trkpt>
      <trkpt lat="45.09986" lon="6.16441">
        <ele>1589</ele>
        <time>2026-08-09T07:51:08Z</time>
      </trkpt>
      <trkpt lat="45.09984" lon="6.1644">
        <ele>1589.2</ele>
        <time>2026-08-09T07:51:10Z</time>
      </trkpt>
      <trkpt lat="45.09979" lon="6.1644">
        <ele>1589.2</ele>
        <time>2026-08-09T07:51:11Z</time>
      </trkpt>
      <trkpt lat="45.09979" lon="6.1644">
        <ele>1589.4</ele>
        <time>2026-08-09T07:51:12Z</time>
      </trkpt>
      <trkpt lat="45.09974" lon="6.16441">
        <ele>1589.6</ele>
        <time>2026-08-09T07:51:14Z</time>
      </trkpt>
      <trkpt lat="45.09968" lon="6.16443">
        <ele>1589.8</ele>
        <time>2026-08-09T07:51:16Z</time>
      </trkpt>
      <trkpt lat="45.09965" lon="6.16444">
        <ele>1590.2</ele>
        <time>2026-08-09T07:51:18Z</time>
      </trkpt>
      <trkpt lat="45.09963" lon="6.16444">
        <ele>1590.4</ele>
        <time>2026-08-09T07:51:19Z</time>
      </trkpt>
      <trkpt lat="45.09961" lon="6.16444">
        <ele>1590.4</ele>
        <time>2026-08-09T07:51:20Z</time>
      </trkpt>
      <trkpt lat="45.09954" lon="6.16443">
        <ele>1590.6</ele>
        <time>2026-08-09T07:51:22Z</time>
      </trkpt>
      <trkpt lat="45.09952" lon="6.16444">
        <ele>1590.8</ele>
        <time>2026-08-09T07:51:24Z</time>
      </trkpt>
      <trkpt lat="45.09945" lon="6.16442">
        <ele>1590.8</ele>
        <time>2026-08-09T07:51:26Z</time>
      </trkpt>
      <trkpt lat="45.09943" lon="6.16441">
        <ele>1591</ele>
        <time>2026-08-09T07:51:28Z</time>
      </trkpt>
      <trkpt lat="45.09939" lon="6.16439">
        <ele>1591.2</ele>
        <time>2026-08-09T07:51:30Z</time>
      </trkpt>
      <trkpt lat="45.09937" lon="6.16438">
        <ele>1591.2</ele>
        <time>2026-08-09T07:51:31Z</time>
      </trkpt>
      <trkpt lat="45.09934" lon="6.16435">
        <ele>1591.2</ele>
        <time>2026-08-09T07:51:32Z</time>
      </trkpt>
      <trkpt lat="45.09932" lon="6.16434">
        <ele>1591.4</ele>
        <time>2026-08-09T07:51:34Z</time>
      </trkpt>
      <trkpt lat="45.09927" lon="6.1643">
        <ele>1591.4</ele>
        <time>2026-08-09T07:51:36Z</time>
      </trkpt>
      <trkpt lat="45.09926" lon="6.16428">
        <ele>1591.6</ele>
        <time>2026-08-09T07:51:38Z</time>
      </trkpt>
      <trkpt lat="45.09925" lon="6.16428">
        <ele>1591.8</ele>
        <time>2026-08-09T07:51:39Z</time>
      </trkpt>
      <trkpt lat="45.09924" lon="6.16428">
        <ele>1592</ele>
        <time>2026-08-09T07:51:40Z</time>
      </trkpt>
      <trkpt lat="45.09924" lon="6.16428">
        <ele>1592.4</ele>
        <time>2026-08-09T07:51:42Z</time>
      </trkpt>
      <trkpt lat="45.09924" lon="6.16428">
        <ele>1592.6</ele>
        <time>2026-08-09T07:51:43Z</time>
      </trkpt>
      <trkpt lat="45.09924" lon="6.16427">
        <ele>1592.6</ele>
        <time>2026-08-09T07:51:44Z</time>
      </trkpt>
      <trkpt lat="45.09924" lon="6.16428">
        <ele>1592.8</ele>
        <time>2026-08-09T07:51:45Z</time>
      </trkpt>
      <trkpt lat="45.09924" lon="6.16427">
        <ele>1593</ele>
        <time>2026-08-09T07:51:46Z</time>
      </trkpt>
      <trkpt lat="45.09924" lon="6.16427">
        <ele>1593.2</ele>
        <time>2026-08-09T07:51:48Z</time>
      </trkpt>
      <trkpt lat="45.09924" lon="6.16427">
        <ele>1593.4</ele>
        <time>2026-08-09T07:51:50Z</time>
      </trkpt>
      <trkpt lat="45.09923" lon="6.16427">
        <ele>1593.4</ele>
        <time>2026-08-09T07:51:52Z</time>
      </trkpt>
      <trkpt lat="45.09921" lon="6.16426">
        <ele>1593.4</ele>
        <time>2026-08-09T07:51:54Z</time>
      </trkpt>
      <trkpt lat="45.09918" lon="6.16422">
        <ele>1593.4</ele>
        <time>2026-08-09T07:51:56Z</time>
      </trkpt>
      <trkpt lat="45.09916" lon="6.1642">
        <ele>1593.6</ele>
        <time>2026-08-09T07:51:58Z</time>
      </trkpt>
      <trkpt lat="45.09915" lon="6.16419">
        <ele>1593.6</ele>
        <time>2026-08-09T07:51:59Z</time>
      </trkpt>
      <trkpt lat="45.09914" lon="6.16417">
        <ele>1593.6</ele>
        <time>2026-08-09T07:52:00Z</time>
      </trkpt>
      <trkpt lat="45.09911" lon="6.16412">
        <ele>1593.6</ele>
        <time>2026-08-09T07:52:02Z</time>
      </trkpt>
      <trkpt lat="45.09908" lon="6.16405">
        <ele>1593.6</ele>
        <time>2026-08-09T07:52:04Z</time>
      </trkpt>
      <trkpt lat="45.09907" lon="6.16402">
        <ele>1593.6</ele>
        <time>2026-08-09T07:52:05Z</time>
      </trkpt>
      <trkpt lat="45.09907" lon="6.16399">
        <ele>1593.8</ele>
        <time>2026-08-09T07:52:06Z</time>
      </trkpt>
      <trkpt lat="45.09906" lon="6.16396">
        <ele>1594</ele>
        <time>2026-08-09T07:52:07Z</time>
      </trkpt>
      <trkpt lat="45.09906" lon="6.16396">
        <ele>1594.2</ele>
        <time>2026-08-09T07:52:08Z</time>
      </trkpt>
      <trkpt lat="45.09906" lon="6.1639">
        <ele>1594.4</ele>
        <time>2026-08-09T07:52:10Z</time>
      </trkpt>
      <trkpt lat="45.09906" lon="6.16384">
        <ele>1595</ele>
        <time>2026-08-09T07:52:12Z</time>
      </trkpt>
      <trkpt lat="45.09906" lon="6.16378">
        <ele>1595</ele>
        <time>2026-08-09T07:52:13Z</time>
      </trkpt>
      <trkpt lat="45.09906" lon="6.16375">
        <ele>1595.2</ele>
        <time>2026-08-09T07:52:14Z</time>
      </trkpt>
      <trkpt lat="45.09906" lon="6.16375">
        <ele>1595.4</ele>
        <time>2026-08-09T07:52:15Z</time>
      </trkpt>
      <trkpt lat="45.09906" lon="6.16372">
        <ele>1595.4</ele>
        <time>2026-08-09T07:52:16Z</time>
      </trkpt>
      <trkpt lat="45.09905" lon="6.16364">
        <ele>1595.8</ele>
        <time>2026-08-09T07:52:18Z</time>
      </trkpt>
      <trkpt lat="45.09904" lon="6.16358">
        <ele>1596</ele>
        <time>2026-08-09T07:52:20Z</time>
      </trkpt>
      <trkpt lat="45.09904" lon="6.16356">
        <ele>1596.2</ele>
        <time>2026-08-09T07:52:21Z</time>
      </trkpt>
      <trkpt lat="45.09903" lon="6.16353">
        <ele>1596.4</ele>
        <time>2026-08-09T07:52:22Z</time>
      </trkpt>
      <trkpt lat="45.09901" lon="6.16348">
        <ele>1596.8</ele>
        <time>2026-08-09T07:52:24Z</time>
      </trkpt>
      <trkpt lat="45.099" lon="6.16346">
        <ele>1597</ele>
        <time>2026-08-09T07:52:26Z</time>
      </trkpt>
      <trkpt lat="45.09899" lon="6.16344">
        <ele>1597.2</ele>
        <time>2026-08-09T07:52:27Z</time>
      </trkpt>
      <trkpt lat="45.09897" lon="6.16342">
        <ele>1597.4</ele>
        <time>2026-08-09T07:52:28Z</time>
      </trkpt>
      <trkpt lat="45.09895" lon="6.16338">
        <ele>1597.8</ele>
        <time>2026-08-09T07:52:30Z</time>
      </trkpt>
      <trkpt lat="45.09893" lon="6.16337">
        <ele>1598</ele>
        <time>2026-08-09T07:52:31Z</time>
      </trkpt>
      <trkpt lat="45.09892" lon="6.16335">
        <ele>1598.2</ele>
        <time>2026-08-09T07:52:32Z</time>
      </trkpt>
      <trkpt lat="45.09889" lon="6.16331">
        <ele>1598.2</ele>
        <time>2026-08-09T07:52:33Z</time>
      </trkpt>
      <trkpt lat="45.09889" lon="6.16331">
        <ele>1598.4</ele>
        <time>2026-08-09T07:52:34Z</time>
      </trkpt>
      <trkpt lat="45.09884" lon="6.16326">
        <ele>1598.8</ele>
        <time>2026-08-09T07:52:36Z</time>
      </trkpt>
      <trkpt lat="45.09881" lon="6.16322">
        <ele>1599.2</ele>
        <time>2026-08-09T07:52:38Z</time>
      </trkpt>
      <trkpt lat="45.0988" lon="6.1632">
        <ele>1599.4</ele>
        <time>2026-08-09T07:52:40Z</time>
      </trkpt>
      <trkpt lat="45.09877" lon="6.16316">
        <ele>1599.6</ele>
        <time>2026-08-09T07:52:42Z</time>
      </trkpt>
      <trkpt lat="45.09874" lon="6.16312">
        <ele>1599.8</ele>
        <time>2026-08-09T07:52:44Z</time>
      </trkpt>
      <trkpt lat="45.09872" lon="6.16307">
        <ele>1600</ele>
        <time>2026-08-09T07:52:46Z</time>
      </trkpt>
      <trkpt lat="45.0987" lon="6.16305">
        <ele>1600.2</ele>
        <time>2026-08-09T07:52:47Z</time>
      </trkpt>
      <trkpt lat="45.09869" lon="6.16303">
        <ele>1600.4</ele>
        <time>2026-08-09T07:52:48Z</time>
      </trkpt>
      <trkpt lat="45.09867" lon="6.16299">
        <ele>1601</ele>
        <time>2026-08-09T07:52:50Z</time>
      </trkpt>
      <trkpt lat="45.09866" lon="6.16297">
        <ele>1601.2</ele>
        <time>2026-08-09T07:52:51Z</time>
      </trkpt>
      <trkpt lat="45.09864" lon="6.16295">
        <ele>1601.4</ele>
        <time>2026-08-09T07:52:52Z</time>
      </trkpt>
      <trkpt lat="45.09862" lon="6.16291">
        <ele>1602</ele>
        <time>2026-08-09T07:52:54Z</time>
      </trkpt>
      <trkpt lat="45.09859" lon="6.16286">
        <ele>1602.2</ele>
        <time>2026-08-09T07:52:56Z</time>
      </trkpt>
      <trkpt lat="45.09858" lon="6.16284">
        <ele>1602.6</ele>
        <time>2026-08-09T07:52:57Z</time>
      </trkpt>
      <trkpt lat="45.09857" lon="6.16282">
        <ele>1602.8</ele>
        <time>2026-08-09T07:52:58Z</time>
      </trkpt>
      <trkpt lat="45.09854" lon="6.16278">
        <ele>1603</ele>
        <time>2026-08-09T07:53:00Z</time>
      </trkpt>
      <trkpt lat="45.09852" lon="6.16273">
        <ele>1603.4</ele>
        <time>2026-08-09T07:53:02Z</time>
      </trkpt>
      <trkpt lat="45.0985" lon="6.1627">
        <ele>1603.6</ele>
        <time>2026-08-09T07:53:04Z</time>
      </trkpt>
      <trkpt lat="45.09848" lon="6.16266">
        <ele>1604.2</ele>
        <time>2026-08-09T07:53:06Z</time>
      </trkpt>
      <trkpt lat="45.09847" lon="6.16263">
        <ele>1604.4</ele>
        <time>2026-08-09T07:53:07Z</time>
      </trkpt>
      <trkpt lat="45.09846" lon="6.16261">
        <ele>1604.4</ele>
        <time>2026-08-09T07:53:08Z</time>
      </trkpt>
      <trkpt lat="45.09845" lon="6.16259">
        <ele>1604.8</ele>
        <time>2026-08-09T07:53:09Z</time>
      </trkpt>
      <trkpt lat="45.09844" lon="6.16257">
        <ele>1605</ele>
        <time>2026-08-09T07:53:10Z</time>
      </trkpt>
      <trkpt lat="45.09841" lon="6.16253">
        <ele>1605.2</ele>
        <time>2026-08-09T07:53:12Z</time>
      </trkpt>
      <trkpt lat="45.09839" lon="6.16249">
        <ele>1605.6</ele>
        <time>2026-08-09T07:53:14Z</time>
      </trkpt>
      <trkpt lat="45.09837" lon="6.16244">
        <ele>1606</ele>
        <time>2026-08-09T07:53:16Z</time>
      </trkpt>
      <trkpt lat="45.09835" lon="6.16239">
        <ele>1606.4</ele>
        <time>2026-08-09T07:53:18Z</time>
      </trkpt>
      <trkpt lat="45.09832" lon="6.16234">
        <ele>1606.8</ele>
        <time>2026-08-09T07:53:20Z</time>
      </trkpt>
      <trkpt lat="45.0983" lon="6.1623">
        <ele>1607</ele>
        <time>2026-08-09T07:53:22Z</time>
      </trkpt>
      <trkpt lat="45.09828" lon="6.16225">
        <ele>1607.2</ele>
        <time>2026-08-09T07:53:24Z</time>
      </trkpt>
      <trkpt lat="45.09827" lon="6.1622">
        <ele>1607.8</ele>
        <time>2026-08-09T07:53:26Z</time>
      </trkpt>
      <trkpt lat="45.09825" lon="6.16216">
        <ele>1608.2</ele>
        <time>2026-08-09T07:53:28Z</time>
      </trkpt>
      <trkpt lat="45.09824" lon="6.1621">
        <ele>1608.6</ele>
        <time>2026-08-09T07:53:30Z</time>
      </trkpt>
      <trkpt lat="45.09822" lon="6.16205">
        <ele>1608.8</ele>
        <time>2026-08-09T07:53:32Z</time>
      </trkpt>
      <trkpt lat="45.09822" lon="6.16202">
        <ele>1609.2</ele>
        <time>2026-08-09T07:53:33Z</time>
      </trkpt>
      <trkpt lat="45.09821" lon="6.162">
        <ele>1609.2</ele>
        <time>2026-08-09T07:53:34Z</time>
      </trkpt>
      <trkpt lat="45.0982" lon="6.16194">
        <ele>1609.2</ele>
        <time>2026-08-09T07:53:36Z</time>
      </trkpt>
      <trkpt lat="45.09819" lon="6.16189">
        <ele>1609.8</ele>
        <time>2026-08-09T07:53:38Z</time>
      </trkpt>
      <trkpt lat="45.09818" lon="6.16184">
        <ele>1610.2</ele>
        <time>2026-08-09T07:53:40Z</time>
      </trkpt>
      <trkpt lat="45.09817" lon="6.16178">
        <ele>1610.4</ele>
        <time>2026-08-09T07:53:42Z</time>
      </trkpt>
      <trkpt lat="45.09816" lon="6.16173">
        <ele>1610.6</ele>
        <time>2026-08-09T07:53:44Z</time>
      </trkpt>
      <trkpt lat="45.09816" lon="6.16167">
        <ele>1610.8</ele>
        <time>2026-08-09T07:53:46Z</time>
      </trkpt>
      <trkpt lat="45.09814" lon="6.16161">
        <ele>1611.2</ele>
        <time>2026-08-09T07:53:48Z</time>
      </trkpt>
      <trkpt lat="45.09814" lon="6.16158">
        <ele>1611.2</ele>
        <time>2026-08-09T07:53:49Z</time>
      </trkpt>
      <trkpt lat="45.09813" lon="6.16155">
        <ele>1611.4</ele>
        <time>2026-08-09T07:53:50Z</time>
      </trkpt>
      <trkpt lat="45.09811" lon="6.1615">
        <ele>1611.8</ele>
        <time>2026-08-09T07:53:52Z</time>
      </trkpt>
      <trkpt lat="45.09809" lon="6.16144">
        <ele>1611.8</ele>
        <time>2026-08-09T07:53:54Z</time>
      </trkpt>
      <trkpt lat="45.09807" lon="6.16138">
        <ele>1612</ele>
        <time>2026-08-09T07:53:56Z</time>
      </trkpt>
      <trkpt lat="45.09806" lon="6.16133">
        <ele>1612.2</ele>
        <time>2026-08-09T07:53:57Z</time>
      </trkpt>
      <trkpt lat="45.09806" lon="6.16133">
        <ele>1612.2</ele>
        <time>2026-08-09T07:53:58Z</time>
      </trkpt>
      <trkpt lat="45.09805" lon="6.16127">
        <ele>1612.6</ele>
        <time>2026-08-09T07:54:00Z</time>
      </trkpt>
      <trkpt lat="45.09805" lon="6.16121">
        <ele>1612.8</ele>
        <time>2026-08-09T07:54:02Z</time>
      </trkpt>
      <trkpt lat="45.09806" lon="6.16119">
        <ele>1612.8</ele>
        <time>2026-08-09T07:54:03Z</time>
      </trkpt>
      <trkpt lat="45.09807" lon="6.16117">
        <ele>1613</ele>
        <time>2026-08-09T07:54:04Z</time>
      </trkpt>
      <trkpt lat="45.09811" lon="6.16115">
        <ele>1613</ele>
        <time>2026-08-09T07:54:06Z</time>
      </trkpt>
      <trkpt lat="45.09815" lon="6.16116">
        <ele>1613.2</ele>
        <time>2026-08-09T07:54:08Z</time>
      </trkpt>
      <trkpt lat="45.09816" lon="6.16118">
        <ele>1613.4</ele>
        <time>2026-08-09T07:54:09Z</time>
      </trkpt>
      <trkpt lat="45.09818" lon="6.1612">
        <ele>1613.4</ele>
        <time>2026-08-09T07:54:10Z</time>
      </trkpt>
      <trkpt lat="45.0982" lon="6.16124">
        <ele>1613.8</ele>
        <time>2026-08-09T07:54:12Z</time>
      </trkpt>
      <trkpt lat="45.09821" lon="6.1613">
        <ele>1614</ele>
        <time>2026-08-09T07:54:14Z</time>
      </trkpt>
      <trkpt lat="45.09822" lon="6.16132">
        <ele>1614.2</ele>
        <time>2026-08-09T07:54:15Z</time>
      </trkpt>
      <trkpt lat="45.09822" lon="6.16135">
        <ele>1614.4</ele>
        <time>2026-08-09T07:54:16Z</time>
      </trkpt>
      <trkpt lat="45.09823" lon="6.16138">
        <ele>1614.6</ele>
        <time>2026-08-09T07:54:17Z</time>
      </trkpt>
      <trkpt lat="45.09823" lon="6.16141">
        <ele>1614.8</ele>
        <time>2026-08-09T07:54:18Z</time>
      </trkpt>
      <trkpt lat="45.09823" lon="6.16147">
        <ele>1615.2</ele>
        <time>2026-08-09T07:54:20Z</time>
      </trkpt>
      <trkpt lat="45.09824" lon="6.16152">
        <ele>1615.4</ele>
        <time>2026-08-09T07:54:22Z</time>
      </trkpt>
      <trkpt lat="45.09824" lon="6.16155">
        <ele>1615.4</ele>
        <time>2026-08-09T07:54:23Z</time>
      </trkpt>
      <trkpt lat="45.09825" lon="6.16158">
        <ele>1615.6</ele>
        <time>2026-08-09T07:54:24Z</time>
      </trkpt>
      <trkpt lat="45.09826" lon="6.16163">
        <ele>1616</ele>
        <time>2026-08-09T07:54:26Z</time>
      </trkpt>
      <trkpt lat="45.09826" lon="6.16168">
        <ele>1616.2</ele>
        <time>2026-08-09T07:54:28Z</time>
      </trkpt>
      <trkpt lat="45.09828" lon="6.16173">
        <ele>1616.4</ele>
        <time>2026-08-09T07:54:30Z</time>
      </trkpt>
      <trkpt lat="45.09829" lon="6.16176">
        <ele>1617</ele>
        <time>2026-08-09T07:54:31Z</time>
      </trkpt>
      <trkpt lat="45.0983" lon="6.16178">
        <ele>1617</ele>
        <time>2026-08-09T07:54:32Z</time>
      </trkpt>
      <trkpt lat="45.09832" lon="6.16183">
        <ele>1617.4</ele>
        <time>2026-08-09T07:54:34Z</time>
      </trkpt>
      <trkpt lat="45.09834" lon="6.16188">
        <ele>1618</ele>
        <time>2026-08-09T07:54:36Z</time>
      </trkpt>
      <trkpt lat="45.09836" lon="6.1619">
        <ele>1618.2</ele>
        <time>2026-08-09T07:54:37Z</time>
      </trkpt>
      <trkpt lat="45.09838" lon="6.16192">
        <ele>1618.4</ele>
        <time>2026-08-09T07:54:38Z</time>
      </trkpt>
      <trkpt lat="45.09839" lon="6.16194">
        <ele>1618.6</ele>
        <time>2026-08-09T07:54:39Z</time>
      </trkpt>
      <trkpt lat="45.09841" lon="6.16195">
        <ele>1618.8</ele>
        <time>2026-08-09T07:54:40Z</time>
      </trkpt>
      <trkpt lat="45.09844" lon="6.16199">
        <ele>1619</ele>
        <time>2026-08-09T07:54:42Z</time>
      </trkpt>
      <trkpt lat="45.09847" lon="6.16202">
        <ele>1619.4</ele>
        <time>2026-08-09T07:54:44Z</time>
      </trkpt>
      <trkpt lat="45.0985" lon="6.16205">
        <ele>1619.8</ele>
        <time>2026-08-09T07:54:46Z</time>
      </trkpt>
      <trkpt lat="45.09853" lon="6.16208">
        <ele>1620.2</ele>
        <time>2026-08-09T07:54:48Z</time>
      </trkpt>
      <trkpt lat="45.09855" lon="6.16209">
        <ele>1620.4</ele>
        <time>2026-08-09T07:54:49Z</time>
      </trkpt>
      <trkpt lat="45.09857" lon="6.16211">
        <ele>1620.6</ele>
        <time>2026-08-09T07:54:50Z</time>
      </trkpt>
      <trkpt lat="45.09861" lon="6.16213">
        <ele>1621</ele>
        <time>2026-08-09T07:54:52Z</time>
      </trkpt>
      <trkpt lat="45.09864" lon="6.16215">
        <ele>1621.4</ele>
        <time>2026-08-09T07:54:54Z</time>
      </trkpt>
      <trkpt lat="45.09868" lon="6.16216">
        <ele>1622</ele>
        <time>2026-08-09T07:54:56Z</time>
      </trkpt>
      <trkpt lat="45.09872" lon="6.16218">
        <ele>1622.4</ele>
        <time>2026-08-09T07:54:58Z</time>
      </trkpt>
      <trkpt lat="45.09873" lon="6.16219">
        <ele>1622.8</ele>
        <time>2026-08-09T07:54:59Z</time>
      </trkpt>
      <trkpt lat="45.09875" lon="6.16219">
        <ele>1622.8</ele>
        <time>2026-08-09T07:55:00Z</time>
      </trkpt>
      <trkpt lat="45.09879" lon="6.1622">
        <ele>1623.2</ele>
        <time>2026-08-09T07:55:02Z</time>
      </trkpt>
      <trkpt lat="45.09881" lon="6.16221">
        <ele>1623.6</ele>
        <time>2026-08-09T07:55:04Z</time>
      </trkpt>
      <trkpt lat="45.09882" lon="6.16222">
        <ele>1623.8</ele>
        <time>2026-08-09T07:55:05Z</time>
      </trkpt>
      <trkpt lat="45.09883" lon="6.16222">
        <ele>1623.8</ele>
        <time>2026-08-09T07:55:06Z</time>
      </trkpt>
      <trkpt lat="45.09886" lon="6.16221">
        <ele>1624.2</ele>
        <time>2026-08-09T07:55:08Z</time>
      </trkpt>
      <trkpt lat="45.09889" lon="6.16222">
        <ele>1624.6</ele>
        <time>2026-08-09T07:55:10Z</time>
      </trkpt>
      <trkpt lat="45.0989" lon="6.16222">
        <ele>1624.8</ele>
        <time>2026-08-09T07:55:11Z</time>
      </trkpt>
      <trkpt lat="45.09891" lon="6.16222">
        <ele>1625</ele>
        <time>2026-08-09T07:55:12Z</time>
      </trkpt>
      <trkpt lat="45.09894" lon="6.16222">
        <ele>1625.2</ele>
        <time>2026-08-09T07:55:14Z</time>
      </trkpt>
      <trkpt lat="45.09898" lon="6.16222">
        <ele>1625.8</ele>
        <time>2026-08-09T07:55:16Z</time>
      </trkpt>
      <trkpt lat="45.09901" lon="6.16221">
        <ele>1626.2</ele>
        <time>2026-08-09T07:55:18Z</time>
      </trkpt>
      <trkpt lat="45.09904" lon="6.16219">
        <ele>1626.6</ele>
        <time>2026-08-09T07:55:20Z</time>
      </trkpt>
      <trkpt lat="45.09905" lon="6.16218">
        <ele>1626.8</ele>
        <time>2026-08-09T07:55:21Z</time>
      </trkpt>
      <trkpt lat="45.09907" lon="6.16218">
        <ele>1627</ele>
        <time>2026-08-09T07:55:22Z</time>
      </trkpt>
      <trkpt lat="45.09909" lon="6.16216">
        <ele>1627.2</ele>
        <time>2026-08-09T07:55:24Z</time>
      </trkpt>
      <trkpt lat="45.09911" lon="6.16215">
        <ele>1627.8</ele>
        <time>2026-08-09T07:55:26Z</time>
      </trkpt>
      <trkpt lat="45.09912" lon="6.16215">
        <ele>1628</ele>
        <time>2026-08-09T07:55:27Z</time>
      </trkpt>
      <trkpt lat="45.09914" lon="6.16214">
        <ele>1628.4</ele>
        <time>2026-08-09T07:55:28Z</time>
      </trkpt>
      <trkpt lat="45.09916" lon="6.16212">
        <ele>1628.6</ele>
        <time>2026-08-09T07:55:30Z</time>
      </trkpt>
      <trkpt lat="45.09918" lon="6.16211">
        <ele>1628.6</ele>
        <time>2026-08-09T07:55:31Z</time>
      </trkpt>
      <trkpt lat="45.09919" lon="6.1621">
        <ele>1628.6</ele>
        <time>2026-08-09T07:55:32Z</time>
      </trkpt>
      <trkpt lat="45.09921" lon="6.16207">
        <ele>1629</ele>
        <time>2026-08-09T07:55:34Z</time>
      </trkpt>
      <trkpt lat="45.09924" lon="6.16205">
        <ele>1629.2</ele>
        <time>2026-08-09T07:55:36Z</time>
      </trkpt>
      <trkpt lat="45.09926" lon="6.16205">
        <ele>1629.4</ele>
        <time>2026-08-09T07:55:37Z</time>
      </trkpt>
      <trkpt lat="45.09927" lon="6.16204">
        <ele>1629.6</ele>
        <time>2026-08-09T07:55:38Z</time>
      </trkpt>
      <trkpt lat="45.09929" lon="6.16202">
        <ele>1629.8</ele>
        <time>2026-08-09T07:55:40Z</time>
      </trkpt>
      <trkpt lat="45.0993" lon="6.16201">
        <ele>1630</ele>
        <time>2026-08-09T07:55:41Z</time>
      </trkpt>
      <trkpt lat="45.09931" lon="6.16201">
        <ele>1630.2</ele>
        <time>2026-08-09T07:55:42Z</time>
      </trkpt>
      <trkpt lat="45.09933" lon="6.16199">
        <ele>1630.4</ele>
        <time>2026-08-09T07:55:44Z</time>
      </trkpt>
      <trkpt lat="45.09934" lon="6.16198">
        <ele>1630.6</ele>
        <time>2026-08-09T07:55:45Z</time>
      </trkpt>
      <trkpt lat="45.09935" lon="6.16198">
        <ele>1630.6</ele>
        <time>2026-08-09T07:55:46Z</time>
      </trkpt>
      <trkpt lat="45.09937" lon="6.16196">
        <ele>1631</ele>
        <time>2026-08-09T07:55:48Z</time>
      </trkpt>
      <trkpt lat="45.09939" lon="6.16196">
        <ele>1631</ele>
        <time>2026-08-09T07:55:49Z</time>
      </trkpt>
      <trkpt lat="45.0994" lon="6.16195">
        <ele>1631.4</ele>
        <time>2026-08-09T07:55:50Z</time>
      </trkpt>
      <trkpt lat="45.09941" lon="6.16195">
        <ele>1631.6</ele>
        <time>2026-08-09T07:55:51Z</time>
      </trkpt>
      <trkpt lat="45.09942" lon="6.16194">
        <ele>1631.8</ele>
        <time>2026-08-09T07:55:52Z</time>
      </trkpt>
      <trkpt lat="45.09944" lon="6.16192">
        <ele>1632.2</ele>
        <time>2026-08-09T07:55:54Z</time>
      </trkpt>
      <trkpt lat="45.09947" lon="6.16191">
        <ele>1632.2</ele>
        <time>2026-08-09T07:55:56Z</time>
      </trkpt>
      <trkpt lat="45.09949" lon="6.16189">
        <ele>1633</ele>
        <time>2026-08-09T07:55:58Z</time>
      </trkpt>
      <trkpt lat="45.09951" lon="6.16188">
        <ele>1633</ele>
        <time>2026-08-09T07:55:59Z</time>
      </trkpt>
      <trkpt lat="45.09952" lon="6.16187">
        <ele>1633.2</ele>
        <time>2026-08-09T07:56:00Z</time>
      </trkpt>
      <trkpt lat="45.09955" lon="6.16187">
        <ele>1633.4</ele>
        <time>2026-08-09T07:56:02Z</time>
      </trkpt>
      <trkpt lat="45.09958" lon="6.16187">
        <ele>1633.6</ele>
        <time>2026-08-09T07:56:04Z</time>
      </trkpt>
      <trkpt lat="45.0996" lon="6.16188">
        <ele>1634</ele>
        <time>2026-08-09T07:56:06Z</time>
      </trkpt>
      <trkpt lat="45.09962" lon="6.16188">
        <ele>1634.2</ele>
        <time>2026-08-09T07:56:07Z</time>
      </trkpt>
      <trkpt lat="45.09963" lon="6.16189">
        <ele>1634.4</ele>
        <time>2026-08-09T07:56:08Z</time>
      </trkpt>
      <trkpt lat="45.09965" lon="6.1619">
        <ele>1634.8</ele>
        <time>2026-08-09T07:56:10Z</time>
      </trkpt>
      <trkpt lat="45.09968" lon="6.16191">
        <ele>1635.2</ele>
        <time>2026-08-09T07:56:12Z</time>
      </trkpt>
      <trkpt lat="45.09972" lon="6.16192">
        <ele>1635.6</ele>
        <time>2026-08-09T07:56:14Z</time>
      </trkpt>
      <trkpt lat="45.09973" lon="6.16192">
        <ele>1635.8</ele>
        <time>2026-08-09T07:56:15Z</time>
      </trkpt>
      <trkpt lat="45.09975" lon="6.16191">
        <ele>1636.2</ele>
        <time>2026-08-09T07:56:16Z</time>
      </trkpt>
      <trkpt lat="45.09977" lon="6.1619">
        <ele>1636.2</ele>
        <time>2026-08-09T07:56:17Z</time>
      </trkpt>
      <trkpt lat="45.09978" lon="6.16188">
        <ele>1636.4</ele>
        <time>2026-08-09T07:56:18Z</time>
      </trkpt>
      <trkpt lat="45.09979" lon="6.16186">
        <ele>1636.6</ele>
        <time>2026-08-09T07:56:19Z</time>
      </trkpt>
      <trkpt lat="45.0998" lon="6.16183">
        <ele>1636.8</ele>
        <time>2026-08-09T07:56:20Z</time>
      </trkpt>
      <trkpt lat="45.0998" lon="6.16178">
        <ele>1637.2</ele>
        <time>2026-08-09T07:56:22Z</time>
      </trkpt>
      <trkpt lat="45.09979" lon="6.16173">
        <ele>1637.4</ele>
        <time>2026-08-09T07:56:24Z</time>
      </trkpt>
      <trkpt lat="45.09977" lon="6.1617">
        <ele>1637.6</ele>
        <time>2026-08-09T07:56:26Z</time>
      </trkpt>
      <trkpt lat="45.09974" lon="6.16167">
        <ele>1637.8</ele>
        <time>2026-08-09T07:56:28Z</time>
      </trkpt>
      <trkpt lat="45.09971" lon="6.16166">
        <ele>1638</ele>
        <time>2026-08-09T07:56:30Z</time>
      </trkpt>
      <trkpt lat="45.09967" lon="6.16165">
        <ele>1638.2</ele>
        <time>2026-08-09T07:56:32Z</time>
      </trkpt>
      <trkpt lat="45.09964" lon="6.16164">
        <ele>1638.6</ele>
        <time>2026-08-09T07:56:34Z</time>
      </trkpt>
      <trkpt lat="45.0996" lon="6.16162">
        <ele>1638.8</ele>
        <time>2026-08-09T07:56:36Z</time>
      </trkpt>
      <trkpt lat="45.09957" lon="6.16162">
        <ele>1639.2</ele>
        <time>2026-08-09T07:56:38Z</time>
      </trkpt>
      <trkpt lat="45.09956" lon="6.16161">
        <ele>1639.4</ele>
        <time>2026-08-09T07:56:39Z</time>
      </trkpt>
      <trkpt lat="45.09955" lon="6.16161">
        <ele>1639.4</ele>
        <time>2026-08-09T07:56:40Z</time>
      </trkpt>
      <trkpt lat="45.09954" lon="6.1616">
        <ele>1639.6</ele>
        <time>2026-08-09T07:56:41Z</time>
      </trkpt>
      <trkpt lat="45.09953" lon="6.16159">
        <ele>1639.8</ele>
        <time>2026-08-09T07:56:42Z</time>
      </trkpt>
      <trkpt lat="45.0995" lon="6.16157">
        <ele>1640.2</ele>
        <time>2026-08-09T07:56:44Z</time>
      </trkpt>
      <trkpt lat="45.09949" lon="6.16156">
        <ele>1640.6</ele>
        <time>2026-08-09T07:56:45Z</time>
      </trkpt>
      <trkpt lat="45.09948" lon="6.16156">
        <ele>1640.8</ele>
        <time>2026-08-09T07:56:46Z</time>
      </trkpt>
      <trkpt lat="45.09945" lon="6.16153">
        <ele>1641</ele>
        <time>2026-08-09T07:56:48Z</time>
      </trkpt>
      <trkpt lat="45.09943" lon="6.16151">
        <ele>1641.4</ele>
        <time>2026-08-09T07:56:50Z</time>
      </trkpt>
      <trkpt lat="45.09941" lon="6.16149">
        <ele>1641.6</ele>
        <time>2026-08-09T07:56:51Z</time>
      </trkpt>
      <trkpt lat="45.09941" lon="6.16149">
        <ele>1641.8</ele>
        <time>2026-08-09T07:56:52Z</time>
      </trkpt>
      <trkpt lat="45.09939" lon="6.16146">
        <ele>1642.2</ele>
        <time>2026-08-09T07:56:54Z</time>
      </trkpt>
      <trkpt lat="45.09936" lon="6.16144">
        <ele>1642.4</ele>
        <time>2026-08-09T07:56:56Z</time>
      </trkpt>
      <trkpt lat="45.09934" lon="6.16142">
        <ele>1642.8</ele>
        <time>2026-08-09T07:56:58Z</time>
      </trkpt>
      <trkpt lat="45.09932" lon="6.1614">
        <ele>1643</ele>
        <time>2026-08-09T07:57:00Z</time>
      </trkpt>
      <trkpt lat="45.0993" lon="6.16137">
        <ele>1643.4</ele>
        <time>2026-08-09T07:57:02Z</time>
      </trkpt>
      <trkpt lat="45.09927" lon="6.16134">
        <ele>1643.6</ele>
        <time>2026-08-09T07:57:04Z</time>
      </trkpt>
      <trkpt lat="45.09925" lon="6.1613">
        <ele>1643.8</ele>
        <time>2026-08-09T07:57:06Z</time>
      </trkpt>
      <trkpt lat="45.09923" lon="6.16128">
        <ele>1643.8</ele>
        <time>2026-08-09T07:57:07Z</time>
      </trkpt>
      <trkpt lat="45.09922" lon="6.16126">
        <ele>1644</ele>
        <time>2026-08-09T07:57:08Z</time>
      </trkpt>
      <trkpt lat="45.0992" lon="6.16122">
        <ele>1644.2</ele>
        <time>2026-08-09T07:57:10Z</time>
      </trkpt>
      <trkpt lat="45.09917" lon="6.16119">
        <ele>1644.4</ele>
        <time>2026-08-09T07:57:12Z</time>
      </trkpt>
      <trkpt lat="45.09916" lon="6.16117">
        <ele>1644.6</ele>
        <time>2026-08-09T07:57:13Z</time>
      </trkpt>
      <trkpt lat="45.09915" lon="6.16115">
        <ele>1644.8</ele>
        <time>2026-08-09T07:57:14Z</time>
      </trkpt>
      <trkpt lat="45.09914" lon="6.16113">
        <ele>1645</ele>
        <time>2026-08-09T07:57:15Z</time>
      </trkpt>
      <trkpt lat="45.09913" lon="6.16111">
        <ele>1645</ele>
        <time>2026-08-09T07:57:16Z</time>
      </trkpt>
      <trkpt lat="45.09911" lon="6.16106">
        <ele>1645.4</ele>
        <time>2026-08-09T07:57:18Z</time>
      </trkpt>
      <trkpt lat="45.09908" lon="6.16102">
        <ele>1645.8</ele>
        <time>2026-08-09T07:57:20Z</time>
      </trkpt>
      <trkpt lat="45.09906" lon="6.16099">
        <ele>1646.2</ele>
        <time>2026-08-09T07:57:22Z</time>
      </trkpt>
      <trkpt lat="45.09904" lon="6.16095">
        <ele>1646.6</ele>
        <time>2026-08-09T07:57:24Z</time>
      </trkpt>
      <trkpt lat="45.09902" lon="6.16091">
        <ele>1646.6</ele>
        <time>2026-08-09T07:57:26Z</time>
      </trkpt>
      <trkpt lat="45.09899" lon="6.16088">
        <ele>1646.8</ele>
        <time>2026-08-09T07:57:28Z</time>
      </trkpt>
      <trkpt lat="45.09898" lon="6.16087">
        <ele>1647</ele>
        <time>2026-08-09T07:57:29Z</time>
      </trkpt>
      <trkpt lat="45.09896" lon="6.16086">
        <ele>1647.2</ele>
        <time>2026-08-09T07:57:30Z</time>
      </trkpt>
      <trkpt lat="45.09893" lon="6.16083">
        <ele>1647.6</ele>
        <time>2026-08-09T07:57:32Z</time>
      </trkpt>
      <trkpt lat="45.0989" lon="6.16081">
        <ele>1648</ele>
        <time>2026-08-09T07:57:34Z</time>
      </trkpt>
      <trkpt lat="45.09888" lon="6.1608">
        <ele>1648.2</ele>
        <time>2026-08-09T07:57:35Z</time>
      </trkpt>
      <trkpt lat="45.09886" lon="6.1608">
        <ele>1648.4</ele>
        <time>2026-08-09T07:57:36Z</time>
      </trkpt>
      <trkpt lat="45.09882" lon="6.16078">
        <ele>1649</ele>
        <time>2026-08-09T07:57:38Z</time>
      </trkpt>
      <trkpt lat="45.09881" lon="6.16078">
        <ele>1649.2</ele>
        <time>2026-08-09T07:57:39Z</time>
      </trkpt>
      <trkpt lat="45.09879" lon="6.16077">
        <ele>1649.4</ele>
        <time>2026-08-09T07:57:40Z</time>
      </trkpt>
      <trkpt lat="45.09875" lon="6.16076">
        <ele>1649.8</ele>
        <time>2026-08-09T07:57:42Z</time>
      </trkpt>
      <trkpt lat="45.09871" lon="6.16074">
        <ele>1650</ele>
        <time>2026-08-09T07:57:44Z</time>
      </trkpt>
      <trkpt lat="45.09869" lon="6.16073">
        <ele>1650.4</ele>
        <time>2026-08-09T07:57:45Z</time>
      </trkpt>
      <trkpt lat="45.09868" lon="6.16072">
        <ele>1650.4</ele>
        <time>2026-08-09T07:57:46Z</time>
      </trkpt>
      <trkpt lat="45.09864" lon="6.1607">
        <ele>1650.8</ele>
        <time>2026-08-09T07:57:48Z</time>
      </trkpt>
      <trkpt lat="45.09861" lon="6.16068">
        <ele>1651</ele>
        <time>2026-08-09T07:57:50Z</time>
      </trkpt>
      <trkpt lat="45.09859" lon="6.16064">
        <ele>1651.4</ele>
        <time>2026-08-09T07:57:52Z</time>
      </trkpt>
      <trkpt lat="45.09858" lon="6.16059">
        <ele>1651.6</ele>
        <time>2026-08-09T07:57:54Z</time>
      </trkpt>
      <trkpt lat="45.09859" lon="6.16054">
        <ele>1652</ele>
        <time>2026-08-09T07:57:56Z</time>
      </trkpt>
      <trkpt lat="45.09862" lon="6.16053">
        <ele>1652.4</ele>
        <time>2026-08-09T07:57:58Z</time>
      </trkpt>
      <trkpt lat="45.09864" lon="6.16054">
        <ele>1652.4</ele>
        <time>2026-08-09T07:57:59Z</time>
      </trkpt>
      <trkpt lat="45.09866" lon="6.16055">
        <ele>1652.6</ele>
        <time>2026-08-09T07:58:00Z</time>
      </trkpt>
      <trkpt lat="45.09869" lon="6.16057">
        <ele>1652.8</ele>
        <time>2026-08-09T07:58:02Z</time>
      </trkpt>
      <trkpt lat="45.09872" lon="6.1606">
        <ele>1653.2</ele>
        <time>2026-08-09T07:58:04Z</time>
      </trkpt>
      <trkpt lat="45.09874" lon="6.16061">
        <ele>1653.4</ele>
        <time>2026-08-09T07:58:05Z</time>
      </trkpt>
      <trkpt lat="45.09875" lon="6.16062">
        <ele>1653.6</ele>
        <time>2026-08-09T07:58:06Z</time>
      </trkpt>
      <trkpt lat="45.09877" lon="6.16062">
        <ele>1653.8</ele>
        <time>2026-08-09T07:58:07Z</time>
      </trkpt>
      <trkpt lat="45.09879" lon="6.16063">
        <ele>1654</ele>
        <time>2026-08-09T07:58:08Z</time>
      </trkpt>
      <trkpt lat="45.09883" lon="6.16063">
        <ele>1654.4</ele>
        <time>2026-08-09T07:58:10Z</time>
      </trkpt>
      <trkpt lat="45.09887" lon="6.16063">
        <ele>1654.4</ele>
        <time>2026-08-09T07:58:12Z</time>
      </trkpt>
      <trkpt lat="45.09889" lon="6.16062">
        <ele>1654.8</ele>
        <time>2026-08-09T07:58:13Z</time>
      </trkpt>
      <trkpt lat="45.0989" lon="6.16062">
        <ele>1654.8</ele>
        <time>2026-08-09T07:58:14Z</time>
      </trkpt>
      <trkpt lat="45.09894" lon="6.1606">
        <ele>1655.2</ele>
        <time>2026-08-09T07:58:16Z</time>
      </trkpt>
      <trkpt lat="45.09897" lon="6.16058">
        <ele>1655.4</ele>
        <time>2026-08-09T07:58:18Z</time>
      </trkpt>
      <trkpt lat="45.09899" lon="6.16057">
        <ele>1655.4</ele>
        <time>2026-08-09T07:58:19Z</time>
      </trkpt>
      <trkpt lat="45.09901" lon="6.16057">
        <ele>1655.6</ele>
        <time>2026-08-09T07:58:20Z</time>
      </trkpt>
      <trkpt lat="45.09902" lon="6.16056">
        <ele>1655.8</ele>
        <time>2026-08-09T07:58:21Z</time>
      </trkpt>
      <trkpt lat="45.09904" lon="6.16055">
        <ele>1655.8</ele>
        <time>2026-08-09T07:58:22Z</time>
      </trkpt>
      <trkpt lat="45.09906" lon="6.16053">
        <ele>1656.2</ele>
        <time>2026-08-09T07:58:24Z</time>
      </trkpt>
      <trkpt lat="45.09909" lon="6.16052">
        <ele>1656.4</ele>
        <time>2026-08-09T07:58:26Z</time>
      </trkpt>
      <trkpt lat="45.09911" lon="6.1605">
        <ele>1656.8</ele>
        <time>2026-08-09T07:58:28Z</time>
      </trkpt>
      <trkpt lat="45.09913" lon="6.1605">
        <ele>1657</ele>
        <time>2026-08-09T07:58:30Z</time>
      </trkpt>
      <trkpt lat="45.09915" lon="6.16049">
        <ele>1657.4</ele>
        <time>2026-08-09T07:58:32Z</time>
      </trkpt>
      <trkpt lat="45.09916" lon="6.16048">
        <ele>1657.4</ele>
        <time>2026-08-09T07:58:33Z</time>
      </trkpt>
      <trkpt lat="45.09917" lon="6.16048">
        <ele>1657.6</ele>
        <time>2026-08-09T07:58:34Z</time>
      </trkpt>
      <trkpt lat="45.09919" lon="6.16047">
        <ele>1657.8</ele>
        <time>2026-08-09T07:58:35Z</time>
      </trkpt>
      <trkpt lat="45.0992" lon="6.16047">
        <ele>1658</ele>
        <time>2026-08-09T07:58:36Z</time>
      </trkpt>
      <trkpt lat="45.09922" lon="6.16046">
        <ele>1658.4</ele>
        <time>2026-08-09T07:58:38Z</time>
      </trkpt>
      <trkpt lat="45.09925" lon="6.16046">
        <ele>1658.6</ele>
        <time>2026-08-09T07:58:40Z</time>
      </trkpt>
      <trkpt lat="45.09926" lon="6.16045">
        <ele>1658.8</ele>
        <time>2026-08-09T07:58:41Z</time>
      </trkpt>
      <trkpt lat="45.09927" lon="6.16045">
        <ele>1658.8</ele>
        <time>2026-08-09T07:58:42Z</time>
      </trkpt>
      <trkpt lat="45.0993" lon="6.16045">
        <ele>1659</ele>
        <time>2026-08-09T07:58:44Z</time>
      </trkpt>
      <trkpt lat="45.09932" lon="6.16045">
        <ele>1659.4</ele>
        <time>2026-08-09T07:58:46Z</time>
      </trkpt>
      <trkpt lat="45.09935" lon="6.16045">
        <ele>1659.6</ele>
        <time>2026-08-09T07:58:48Z</time>
      </trkpt>
      <trkpt lat="45.09936" lon="6.16045">
        <ele>1659.8</ele>
        <time>2026-08-09T07:58:49Z</time>
      </trkpt>
      <trkpt lat="45.09937" lon="6.16045">
        <ele>1660</ele>
        <time>2026-08-09T07:58:50Z</time>
      </trkpt>
      <trkpt lat="45.0994" lon="6.16046">
        <ele>1660.2</ele>
        <time>2026-08-09T07:58:52Z</time>
      </trkpt>
      <trkpt lat="45.09942" lon="6.16047">
        <ele>1660.6</ele>
        <time>2026-08-09T07:58:54Z</time>
      </trkpt>
      <trkpt lat="45.09945" lon="6.16048">
        <ele>1661</ele>
        <time>2026-08-09T07:58:56Z</time>
      </trkpt>
      <trkpt lat="45.09949" lon="6.16049">
        <ele>1661.2</ele>
        <time>2026-08-09T07:58:58Z</time>
      </trkpt>
      <trkpt lat="45.09952" lon="6.1605">
        <ele>1661.8</ele>
        <time>2026-08-09T07:59:00Z</time>
      </trkpt>
      <trkpt lat="45.09956" lon="6.16051">
        <ele>1662</ele>
        <time>2026-08-09T07:59:02Z</time>
      </trkpt>
      <trkpt lat="45.09958" lon="6.16052">
        <ele>1662</ele>
        <time>2026-08-09T07:59:03Z</time>
      </trkpt>
      <trkpt lat="45.09959" lon="6.16052">
        <ele>1662</ele>
        <time>2026-08-09T07:59:04Z</time>
      </trkpt>
      <trkpt lat="45.09961" lon="6.16053">
        <ele>1662.2</ele>
        <time>2026-08-09T07:59:05Z</time>
      </trkpt>
      <trkpt lat="45.09963" lon="6.16054">
        <ele>1662.2</ele>
        <time>2026-08-09T07:59:06Z</time>
      </trkpt>
      <trkpt lat="45.09966" lon="6.16056">
        <ele>1662.6</ele>
        <time>2026-08-09T07:59:08Z</time>
      </trkpt>
      <trkpt lat="45.09969" lon="6.16058">
        <ele>1662.8</ele>
        <time>2026-08-09T07:59:10Z</time>
      </trkpt>
      <trkpt lat="45.09973" lon="6.1606">
        <ele>1663.2</ele>
        <time>2026-08-09T07:59:12Z</time>
      </trkpt>
      <trkpt lat="45.09977" lon="6.16061">
        <ele>1663.4</ele>
        <time>2026-08-09T07:59:14Z</time>
      </trkpt>
      <trkpt lat="45.0998" lon="6.16064">
        <ele>1663.8</ele>
        <time>2026-08-09T07:59:16Z</time>
      </trkpt>
      <trkpt lat="45.09982" lon="6.16065">
        <ele>1664</ele>
        <time>2026-08-09T07:59:17Z</time>
      </trkpt>
      <trkpt lat="45.09984" lon="6.16066">
        <ele>1664.4</ele>
        <time>2026-08-09T07:59:18Z</time>
      </trkpt>
      <trkpt lat="45.09988" lon="6.16067">
        <ele>1664.6</ele>
        <time>2026-08-09T07:59:20Z</time>
      </trkpt>
      <trkpt lat="45.09992" lon="6.16067">
        <ele>1664.8</ele>
        <time>2026-08-09T07:59:22Z</time>
      </trkpt>
      <trkpt lat="45.09994" lon="6.16065">
        <ele>1665</ele>
        <time>2026-08-09T07:59:23Z</time>
      </trkpt>
      <trkpt lat="45.09996" lon="6.16064">
        <ele>1665</ele>
        <time>2026-08-09T07:59:24Z</time>
      </trkpt>
      <trkpt lat="45.09997" lon="6.16061">
        <ele>1665</ele>
        <time>2026-08-09T07:59:25Z</time>
      </trkpt>
      <trkpt lat="45.09997" lon="6.16058">
        <ele>1665</ele>
        <time>2026-08-09T07:59:26Z</time>
      </trkpt>
      <trkpt lat="45.09996" lon="6.16056">
        <ele>1665.2</ele>
        <time>2026-08-09T07:59:27Z</time>
      </trkpt>
      <trkpt lat="45.09995" lon="6.16053">
        <ele>1665.2</ele>
        <time>2026-08-09T07:59:28Z</time>
      </trkpt>
      <trkpt lat="45.09993" lon="6.16049">
        <ele>1665.6</ele>
        <time>2026-08-09T07:59:30Z</time>
      </trkpt>
      <trkpt lat="45.0999" lon="6.16047">
        <ele>1666</ele>
        <time>2026-08-09T07:59:32Z</time>
      </trkpt>
      <trkpt lat="45.09988" lon="6.16045">
        <ele>1666</ele>
        <time>2026-08-09T07:59:33Z</time>
      </trkpt>
      <trkpt lat="45.09987" lon="6.16044">
        <ele>1666.2</ele>
        <time>2026-08-09T07:59:34Z</time>
      </trkpt>
      <trkpt lat="45.09983" lon="6.16042">
        <ele>1666.6</ele>
        <time>2026-08-09T07:59:36Z</time>
      </trkpt>
      <trkpt lat="45.09979" lon="6.16039">
        <ele>1666.8</ele>
        <time>2026-08-09T07:59:38Z</time>
      </trkpt>
      <trkpt lat="45.09976" lon="6.16038">
        <ele>1667</ele>
        <time>2026-08-09T07:59:40Z</time>
      </trkpt>
      <trkpt lat="45.09974" lon="6.16037">
        <ele>1667.2</ele>
        <time>2026-08-09T07:59:41Z</time>
      </trkpt>
      <trkpt lat="45.09973" lon="6.16036">
        <ele>1667.2</ele>
        <time>2026-08-09T07:59:42Z</time>
      </trkpt>
      <trkpt lat="45.0997" lon="6.16034">
        <ele>1667.6</ele>
        <time>2026-08-09T07:59:44Z</time>
      </trkpt>
      <trkpt lat="45.09967" lon="6.16032">
        <ele>1668</ele>
        <time>2026-08-09T07:59:46Z</time>
      </trkpt>
      <trkpt lat="45.09964" lon="6.16029">
        <ele>1668.2</ele>
        <time>2026-08-09T07:59:48Z</time>
      </trkpt>
      <trkpt lat="45.09961" lon="6.16026">
        <ele>1668.4</ele>
        <time>2026-08-09T07:59:50Z</time>
      </trkpt>
      <trkpt lat="45.09959" lon="6.16023">
        <ele>1668.6</ele>
        <time>2026-08-09T07:59:52Z</time>
      </trkpt>
      <trkpt lat="45.09956" lon="6.1602">
        <ele>1668.8</ele>
        <time>2026-08-09T07:59:54Z</time>
      </trkpt>
      <trkpt lat="45.09955" lon="6.16019">
        <ele>1669</ele>
        <time>2026-08-09T07:59:55Z</time>
      </trkpt>
      <trkpt lat="45.09953" lon="6.16017">
        <ele>1669.2</ele>
        <time>2026-08-09T07:59:56Z</time>
      </trkpt>
      <trkpt lat="45.0995" lon="6.16014">
        <ele>1669.6</ele>
        <time>2026-08-09T07:59:58Z</time>
      </trkpt>
      <trkpt lat="45.09949" lon="6.16013">
        <ele>1669.8</ele>
        <time>2026-08-09T07:59:59Z</time>
      </trkpt>
      <trkpt lat="45.09947" lon="6.16012">
        <ele>1669.8</ele>
        <time>2026-08-09T08:00:00Z</time>
      </trkpt>
      <trkpt lat="45.09944" lon="6.1601">
        <ele>1670.2</ele>
        <time>2026-08-09T08:00:02Z</time>
      </trkpt>
      <trkpt lat="45.0994" lon="6.16008">
        <ele>1670.4</ele>
        <time>2026-08-09T08:00:04Z</time>
      </trkpt>
      <trkpt lat="45.09937" lon="6.16007">
        <ele>1670.6</ele>
        <time>2026-08-09T08:00:06Z</time>
      </trkpt>
      <trkpt lat="45.09933" lon="6.16006">
        <ele>1671</ele>
        <time>2026-08-09T08:00:08Z</time>
      </trkpt>
      <trkpt lat="45.09931" lon="6.16006">
        <ele>1671.2</ele>
        <time>2026-08-09T08:00:09Z</time>
      </trkpt>
      <trkpt lat="45.09929" lon="6.16005">
        <ele>1671.4</ele>
        <time>2026-08-09T08:00:10Z</time>
      </trkpt>
      <trkpt lat="45.09925" lon="6.16002">
        <ele>1671.6</ele>
        <time>2026-08-09T08:00:12Z</time>
      </trkpt>
      <trkpt lat="45.09923" lon="6.15998">
        <ele>1671.8</ele>
        <time>2026-08-09T08:00:14Z</time>
      </trkpt>
      <trkpt lat="45.09923" lon="6.15995">
        <ele>1672</ele>
        <time>2026-08-09T08:00:15Z</time>
      </trkpt>
      <trkpt lat="45.09923" lon="6.15993">
        <ele>1672.4</ele>
        <time>2026-08-09T08:00:16Z</time>
      </trkpt>
      <trkpt lat="45.09923" lon="6.1599">
        <ele>1672.6</ele>
        <time>2026-08-09T08:00:17Z</time>
      </trkpt>
      <trkpt lat="45.09924" lon="6.15988">
        <ele>1672.6</ele>
        <time>2026-08-09T08:00:18Z</time>
      </trkpt>
      <trkpt lat="45.09927" lon="6.15985">
        <ele>1673</ele>
        <time>2026-08-09T08:00:20Z</time>
      </trkpt>
      <trkpt lat="45.0993" lon="6.15983">
        <ele>1673.2</ele>
        <time>2026-08-09T08:00:22Z</time>
      </trkpt>
      <trkpt lat="45.09933" lon="6.15984">
        <ele>1673.6</ele>
        <time>2026-08-09T08:00:24Z</time>
      </trkpt>
      <trkpt lat="45.09935" lon="6.15984">
        <ele>1673.8</ele>
        <time>2026-08-09T08:00:25Z</time>
      </trkpt>
      <trkpt lat="45.09937" lon="6.15985">
        <ele>1674</ele>
        <time>2026-08-09T08:00:26Z</time>
      </trkpt>
      <trkpt lat="45.0994" lon="6.15987">
        <ele>1674.4</ele>
        <time>2026-08-09T08:00:28Z</time>
      </trkpt>
      <trkpt lat="45.09943" lon="6.15989">
        <ele>1674.6</ele>
        <time>2026-08-09T08:00:30Z</time>
      </trkpt>
      <trkpt lat="45.09945" lon="6.1599">
        <ele>1674.6</ele>
        <time>2026-08-09T08:00:31Z</time>
      </trkpt>
      <trkpt lat="45.09947" lon="6.1599">
        <ele>1674.8</ele>
        <time>2026-08-09T08:00:32Z</time>
      </trkpt>
      <trkpt lat="45.0995" lon="6.15992">
        <ele>1675.2</ele>
        <time>2026-08-09T08:00:34Z</time>
      </trkpt>
      <trkpt lat="45.09953" lon="6.15993">
        <ele>1675.4</ele>
        <time>2026-08-09T08:00:36Z</time>
      </trkpt>
      <trkpt lat="45.09955" lon="6.15994">
        <ele>1675.6</ele>
        <time>2026-08-09T08:00:37Z</time>
      </trkpt>
      <trkpt lat="45.09956" lon="6.15995">
        <ele>1676</ele>
        <time>2026-08-09T08:00:38Z</time>
      </trkpt>
      <trkpt lat="45.09959" lon="6.15997">
        <ele>1676.4</ele>
        <time>2026-08-09T08:00:40Z</time>
      </trkpt>
      <trkpt lat="45.09961" lon="6.15998">
        <ele>1676.4</ele>
        <time>2026-08-09T08:00:41Z</time>
      </trkpt>
      <trkpt lat="45.09962" lon="6.15998">
        <ele>1676.6</ele>
        <time>2026-08-09T08:00:42Z</time>
      </trkpt>
      <trkpt lat="45.09966" lon="6.16">
        <ele>1677.2</ele>
        <time>2026-08-09T08:00:44Z</time>
      </trkpt>
      <trkpt lat="45.09969" lon="6.16">
        <ele>1677.6</ele>
        <time>2026-08-09T08:00:46Z</time>
      </trkpt>
      <trkpt lat="45.09972" lon="6.16001">
        <ele>1678</ele>
        <time>2026-08-09T08:00:48Z</time>
      </trkpt>
      <trkpt lat="45.09975" lon="6.16002">
        <ele>1678.4</ele>
        <time>2026-08-09T08:00:50Z</time>
      </trkpt>
      <trkpt lat="45.09977" lon="6.16003">
        <ele>1678.6</ele>
        <time>2026-08-09T08:00:51Z</time>
      </trkpt>
      <trkpt lat="45.09978" lon="6.16003">
        <ele>1678.6</ele>
        <time>2026-08-09T08:00:52Z</time>
      </trkpt>
      <trkpt lat="45.09981" lon="6.16005">
        <ele>1679</ele>
        <time>2026-08-09T08:00:54Z</time>
      </trkpt>
      <trkpt lat="45.09985" lon="6.16007">
        <ele>1679.6</ele>
        <time>2026-08-09T08:00:56Z</time>
      </trkpt>
      <trkpt lat="45.09986" lon="6.16008">
        <ele>1679.6</ele>
        <time>2026-08-09T08:00:57Z</time>
      </trkpt>
      <trkpt lat="45.09988" lon="6.16009">
        <ele>1679.8</ele>
        <time>2026-08-09T08:00:58Z</time>
      </trkpt>
      <trkpt lat="45.09989" lon="6.1601">
        <ele>1680</ele>
        <time>2026-08-09T08:00:59Z</time>
      </trkpt>
      <trkpt lat="45.09991" lon="6.16012">
        <ele>1680</ele>
        <time>2026-08-09T08:01:00Z</time>
      </trkpt>
      <trkpt lat="45.09994" lon="6.16015">
        <ele>1680.2</ele>
        <time>2026-08-09T08:01:02Z</time>
      </trkpt>
      <trkpt lat="45.09997" lon="6.16018">
        <ele>1680.6</ele>
        <time>2026-08-09T08:01:04Z</time>
      </trkpt>
      <trkpt lat="45.1" lon="6.1602">
        <ele>1681.2</ele>
        <time>2026-08-09T08:01:06Z</time>
      </trkpt>
      <trkpt lat="45.10004" lon="6.16021">
        <ele>1681.6</ele>
        <time>2026-08-09T08:01:08Z</time>
      </trkpt>
      <trkpt lat="45.10005" lon="6.16021">
        <ele>1681.8</ele>
        <time>2026-08-09T08:01:09Z</time>
      </trkpt>
      <trkpt lat="45.10007" lon="6.1602">
        <ele>1681.8</ele>
        <time>2026-08-09T08:01:10Z</time>
      </trkpt>
      <trkpt lat="45.10009" lon="6.16017">
        <ele>1682.4</ele>
        <time>2026-08-09T08:01:12Z</time>
      </trkpt>
      <trkpt lat="45.10011" lon="6.16012">
        <ele>1682.8</ele>
        <time>2026-08-09T08:01:14Z</time>
      </trkpt>
      <trkpt lat="45.10012" lon="6.1601">
        <ele>1682.8</ele>
        <time>2026-08-09T08:01:15Z</time>
      </trkpt>
      <trkpt lat="45.10011" lon="6.16008">
        <ele>1683</ele>
        <time>2026-08-09T08:01:16Z</time>
      </trkpt>
      <trkpt lat="45.1001" lon="6.16003">
        <ele>1683.2</ele>
        <time>2026-08-09T08:01:18Z</time>
      </trkpt>
      <trkpt lat="45.1001" lon="6.16">
        <ele>1683.4</ele>
        <time>2026-08-09T08:01:19Z</time>
      </trkpt>
      <trkpt lat="45.10009" lon="6.15998">
        <ele>1683.4</ele>
        <time>2026-08-09T08:01:20Z</time>
      </trkpt>
      <trkpt lat="45.10007" lon="6.15994">
        <ele>1683.6</ele>
        <time>2026-08-09T08:01:22Z</time>
      </trkpt>
      <trkpt lat="45.10005" lon="6.15991">
        <ele>1683.8</ele>
        <time>2026-08-09T08:01:24Z</time>
      </trkpt>
      <trkpt lat="45.10003" lon="6.1599">
        <ele>1684</ele>
        <time>2026-08-09T08:01:25Z</time>
      </trkpt>
      <trkpt lat="45.10002" lon="6.15989">
        <ele>1684.2</ele>
        <time>2026-08-09T08:01:26Z</time>
      </trkpt>
      <trkpt lat="45.09999" lon="6.15987">
        <ele>1684.4</ele>
        <time>2026-08-09T08:01:28Z</time>
      </trkpt>
      <trkpt lat="45.09995" lon="6.15986">
        <ele>1684.8</ele>
        <time>2026-08-09T08:01:30Z</time>
      </trkpt>
      <trkpt lat="45.09994" lon="6.15985">
        <ele>1684.8</ele>
        <time>2026-08-09T08:01:31Z</time>
      </trkpt>
      <trkpt lat="45.09992" lon="6.15984">
        <ele>1685.2</ele>
        <time>2026-08-09T08:01:32Z</time>
      </trkpt>
      <trkpt lat="45.09989" lon="6.15982">
        <ele>1685.4</ele>
        <time>2026-08-09T08:01:34Z</time>
      </trkpt>
      <trkpt lat="45.09987" lon="6.15981">
        <ele>1685.4</ele>
        <time>2026-08-09T08:01:35Z</time>
      </trkpt>
      <trkpt lat="45.09986" lon="6.1598">
        <ele>1685.6</ele>
        <time>2026-08-09T08:01:36Z</time>
      </trkpt>
      <trkpt lat="45.09983" lon="6.15977">
        <ele>1685.8</ele>
        <time>2026-08-09T08:01:38Z</time>
      </trkpt>
      <trkpt lat="45.09982" lon="6.15976">
        <ele>1686</ele>
        <time>2026-08-09T08:01:39Z</time>
      </trkpt>
      <trkpt lat="45.0998" lon="6.15975">
        <ele>1686.4</ele>
        <time>2026-08-09T08:01:40Z</time>
      </trkpt>
      <trkpt lat="45.09977" lon="6.15972">
        <ele>1686.6</ele>
        <time>2026-08-09T08:01:42Z</time>
      </trkpt>
      <trkpt lat="45.09975" lon="6.15969">
        <ele>1687</ele>
        <time>2026-08-09T08:01:44Z</time>
      </trkpt>
      <trkpt lat="45.09973" lon="6.15968">
        <ele>1687</ele>
        <time>2026-08-09T08:01:45Z</time>
      </trkpt>
      <trkpt lat="45.09972" lon="6.15967">
        <ele>1687.2</ele>
        <time>2026-08-09T08:01:46Z</time>
      </trkpt>
      <trkpt lat="45.09969" lon="6.15964">
        <ele>1687.6</ele>
        <time>2026-08-09T08:01:48Z</time>
      </trkpt>
      <trkpt lat="45.09966" lon="6.1596">
        <ele>1687.8</ele>
        <time>2026-08-09T08:01:50Z</time>
      </trkpt>
      <trkpt lat="45.09965" lon="6.15959">
        <ele>1688.2</ele>
        <time>2026-08-09T08:01:51Z</time>
      </trkpt>
      <trkpt lat="45.09964" lon="6.15957">
        <ele>1688.4</ele>
        <time>2026-08-09T08:01:52Z</time>
      </trkpt>
      <trkpt lat="45.09961" lon="6.15953">
        <ele>1688.6</ele>
        <time>2026-08-09T08:01:54Z</time>
      </trkpt>
      <trkpt lat="45.09959" lon="6.1595">
        <ele>1688.8</ele>
        <time>2026-08-09T08:01:56Z</time>
      </trkpt>
      <trkpt lat="45.09956" lon="6.15947">
        <ele>1689</ele>
        <time>2026-08-09T08:01:58Z</time>
      </trkpt>
      <trkpt lat="45.09954" lon="6.15943">
        <ele>1689.4</ele>
        <time>2026-08-09T08:02:00Z</time>
      </trkpt>
      <trkpt lat="45.09953" lon="6.15942">
        <ele>1689.6</ele>
        <time>2026-08-09T08:02:01Z</time>
      </trkpt>
      <trkpt lat="45.09951" lon="6.1594">
        <ele>1689.8</ele>
        <time>2026-08-09T08:02:02Z</time>
      </trkpt>
      <trkpt lat="45.0995" lon="6.15939">
        <ele>1690</ele>
        <time>2026-08-09T08:02:03Z</time>
      </trkpt>
      <trkpt lat="45.09949" lon="6.15937">
        <ele>1690.2</ele>
        <time>2026-08-09T08:02:04Z</time>
      </trkpt>
      <trkpt lat="45.09946" lon="6.15934">
        <ele>1690.4</ele>
        <time>2026-08-09T08:02:06Z</time>
      </trkpt>
      <trkpt lat="45.09944" lon="6.15931">
        <ele>1690.6</ele>
        <time>2026-08-09T08:02:08Z</time>
      </trkpt>
      <trkpt lat="45.09941" lon="6.15928">
        <ele>1691.2</ele>
        <time>2026-08-09T08:02:10Z</time>
      </trkpt>
      <trkpt lat="45.09939" lon="6.15926">
        <ele>1691.4</ele>
        <time>2026-08-09T08:02:11Z</time>
      </trkpt>
      <trkpt lat="45.09938" lon="6.15925">
        <ele>1691.6</ele>
        <time>2026-08-09T08:02:12Z</time>
      </trkpt>
      <trkpt lat="45.09936" lon="6.15921">
        <ele>1692</ele>
        <time>2026-08-09T08:02:14Z</time>
      </trkpt>
      <trkpt lat="45.09934" lon="6.1592">
        <ele>1692.2</ele>
        <time>2026-08-09T08:02:15Z</time>
      </trkpt>
      <trkpt lat="45.09933" lon="6.15919">
        <ele>1692.4</ele>
        <time>2026-08-09T08:02:16Z</time>
      </trkpt>
      <trkpt lat="45.09931" lon="6.15917">
        <ele>1693</ele>
        <time>2026-08-09T08:02:18Z</time>
      </trkpt>
      <trkpt lat="45.0993" lon="6.15915">
        <ele>1693.2</ele>
        <time>2026-08-09T08:02:19Z</time>
      </trkpt>
      <trkpt lat="45.09928" lon="6.15913">
        <ele>1693.4</ele>
        <time>2026-08-09T08:02:20Z</time>
      </trkpt>
      <trkpt lat="45.09926" lon="6.1591">
        <ele>1693.6</ele>
        <time>2026-08-09T08:02:22Z</time>
      </trkpt>
      <trkpt lat="45.09923" lon="6.15907">
        <ele>1694</ele>
        <time>2026-08-09T08:02:24Z</time>
      </trkpt>
      <trkpt lat="45.09921" lon="6.15904">
        <ele>1694.4</ele>
        <time>2026-08-09T08:02:26Z</time>
      </trkpt>
      <trkpt lat="45.09919" lon="6.15903">
        <ele>1694.6</ele>
        <time>2026-08-09T08:02:27Z</time>
      </trkpt>
      <trkpt lat="45.09918" lon="6.15902">
        <ele>1694.8</ele>
        <time>2026-08-09T08:02:28Z</time>
      </trkpt>
      <trkpt lat="45.09915" lon="6.15899">
        <ele>1695</ele>
        <time>2026-08-09T08:02:30Z</time>
      </trkpt>
      <trkpt lat="45.09913" lon="6.15897">
        <ele>1695.4</ele>
        <time>2026-08-09T08:02:32Z</time>
      </trkpt>
      <trkpt lat="45.09911" lon="6.15895">
        <ele>1695.6</ele>
        <time>2026-08-09T08:02:33Z</time>
      </trkpt>
      <trkpt lat="45.0991" lon="6.15894">
        <ele>1695.8</ele>
        <time>2026-08-09T08:02:34Z</time>
      </trkpt>
      <trkpt lat="45.09907" lon="6.15892">
        <ele>1696</ele>
        <time>2026-08-09T08:02:36Z</time>
      </trkpt>
      <trkpt lat="45.09905" lon="6.15892">
        <ele>1696.2</ele>
        <time>2026-08-09T08:02:37Z</time>
      </trkpt>
      <trkpt lat="45.09903" lon="6.15891">
        <ele>1696.4</ele>
        <time>2026-08-09T08:02:38Z</time>
      </trkpt>
      <trkpt lat="45.09902" lon="6.1589">
        <ele>1696.6</ele>
        <time>2026-08-09T08:02:39Z</time>
      </trkpt>
      <trkpt lat="45.099" lon="6.15889">
        <ele>1696.8</ele>
        <time>2026-08-09T08:02:40Z</time>
      </trkpt>
      <trkpt lat="45.09896" lon="6.15888">
        <ele>1697.2</ele>
        <time>2026-08-09T08:02:42Z</time>
      </trkpt>
      <trkpt lat="45.09893" lon="6.15887">
        <ele>1697.4</ele>
        <time>2026-08-09T08:02:44Z</time>
      </trkpt>
      <trkpt lat="45.09891" lon="6.15887">
        <ele>1697.4</ele>
        <time>2026-08-09T08:02:45Z</time>
      </trkpt>
      <trkpt lat="45.0989" lon="6.15886">
        <ele>1697.6</ele>
        <time>2026-08-09T08:02:46Z</time>
      </trkpt>
      <trkpt lat="45.09886" lon="6.15884">
        <ele>1698</ele>
        <time>2026-08-09T08:02:48Z</time>
      </trkpt>
      <trkpt lat="45.09883" lon="6.15882">
        <ele>1698.4</ele>
        <time>2026-08-09T08:02:50Z</time>
      </trkpt>
      <trkpt lat="45.09882" lon="6.1588">
        <ele>1698.6</ele>
        <time>2026-08-09T08:02:51Z</time>
      </trkpt>
      <trkpt lat="45.0988" lon="6.15879">
        <ele>1699</ele>
        <time>2026-08-09T08:02:52Z</time>
      </trkpt>
      <trkpt lat="45.09878" lon="6.15875">
        <ele>1699.2</ele>
        <time>2026-08-09T08:02:54Z</time>
      </trkpt>
      <trkpt lat="45.09875" lon="6.15871">
        <ele>1699.6</ele>
        <time>2026-08-09T08:02:56Z</time>
      </trkpt>
      <trkpt lat="45.09874" lon="6.15869">
        <ele>1699.8</ele>
        <time>2026-08-09T08:02:57Z</time>
      </trkpt>
      <trkpt lat="45.09874" lon="6.15867">
        <ele>1699.8</ele>
        <time>2026-08-09T08:02:58Z</time>
      </trkpt>
      <trkpt lat="45.09872" lon="6.15863">
        <ele>1700</ele>
        <time>2026-08-09T08:03:00Z</time>
      </trkpt>
      <trkpt lat="45.09871" lon="6.15858">
        <ele>1700.2</ele>
        <time>2026-08-09T08:03:02Z</time>
      </trkpt>
      <trkpt lat="45.0987" lon="6.15854">
        <ele>1700.6</ele>
        <time>2026-08-09T08:03:04Z</time>
      </trkpt>
      <trkpt lat="45.09869" lon="6.15851">
        <ele>1700.8</ele>
        <time>2026-08-09T08:03:05Z</time>
      </trkpt>
      <trkpt lat="45.09868" lon="6.15849">
        <ele>1701.2</ele>
        <time>2026-08-09T08:03:06Z</time>
      </trkpt>
      <trkpt lat="45.09867" lon="6.15844">
        <ele>1701.6</ele>
        <time>2026-08-09T08:03:08Z</time>
      </trkpt>
      <trkpt lat="45.09866" lon="6.1584">
        <ele>1701.8</ele>
        <time>2026-08-09T08:03:10Z</time>
      </trkpt>
      <trkpt lat="45.09865" lon="6.15836">
        <ele>1702.2</ele>
        <time>2026-08-09T08:03:12Z</time>
      </trkpt>
      <trkpt lat="45.09864" lon="6.15832">
        <ele>1702.4</ele>
        <time>2026-08-09T08:03:14Z</time>
      </trkpt>
      <trkpt lat="45.09863" lon="6.15829">
        <ele>1702.6</ele>
        <time>2026-08-09T08:03:16Z</time>
      </trkpt>
      <trkpt lat="45.09863" lon="6.15827">
        <ele>1702.8</ele>
        <time>2026-08-09T08:03:17Z</time>
      </trkpt>
      <trkpt lat="45.09863" lon="6.15825">
        <ele>1703</ele>
        <time>2026-08-09T08:03:18Z</time>
      </trkpt>
      <trkpt lat="45.09862" lon="6.15821">
        <ele>1703.4</ele>
        <time>2026-08-09T08:03:20Z</time>
      </trkpt>
      <trkpt lat="45.0986" lon="6.15818">
        <ele>1703.8</ele>
        <time>2026-08-09T08:03:22Z</time>
      </trkpt>
      <trkpt lat="45.09859" lon="6.15814">
        <ele>1704</ele>
        <time>2026-08-09T08:03:24Z</time>
      </trkpt>
      <trkpt lat="45.09857" lon="6.1581">
        <ele>1704.4</ele>
        <time>2026-08-09T08:03:26Z</time>
      </trkpt>
      <trkpt lat="45.09855" lon="6.15807">
        <ele>1704.8</ele>
        <time>2026-08-09T08:03:28Z</time>
      </trkpt>
      <trkpt lat="45.09853" lon="6.15805">
        <ele>1704.8</ele>
        <time>2026-08-09T08:03:29Z</time>
      </trkpt>
      <trkpt lat="45.09852" lon="6.15803">
        <ele>1705.2</ele>
        <time>2026-08-09T08:03:30Z</time>
      </trkpt>
      <trkpt lat="45.09851" lon="6.15801">
        <ele>1705.4</ele>
        <time>2026-08-09T08:03:31Z</time>
      </trkpt>
      <trkpt lat="45.09849" lon="6.15799">
        <ele>1705.6</ele>
        <time>2026-08-09T08:03:32Z</time>
      </trkpt>
      <trkpt lat="45.09847" lon="6.15795">
        <ele>1706</ele>
        <time>2026-08-09T08:03:34Z</time>
      </trkpt>
      <trkpt lat="45.09844" lon="6.15792">
        <ele>1706.4</ele>
        <time>2026-08-09T08:03:36Z</time>
      </trkpt>
      <trkpt lat="45.09842" lon="6.15789">
        <ele>1706.8</ele>
        <time>2026-08-09T08:03:38Z</time>
      </trkpt>
      <trkpt lat="45.09841" lon="6.15788">
        <ele>1707</ele>
        <time>2026-08-09T08:03:39Z</time>
      </trkpt>
      <trkpt lat="45.0984" lon="6.15786">
        <ele>1707.2</ele>
        <time>2026-08-09T08:03:40Z</time>
      </trkpt>
      <trkpt lat="45.09837" lon="6.15783">
        <ele>1707.4</ele>
        <time>2026-08-09T08:03:42Z</time>
      </trkpt>
      <trkpt lat="45.09834" lon="6.15781">
        <ele>1707.8</ele>
        <time>2026-08-09T08:03:44Z</time>
      </trkpt>
      <trkpt lat="45.09832" lon="6.15778">
        <ele>1708</ele>
        <time>2026-08-09T08:03:46Z</time>
      </trkpt>
      <trkpt lat="45.0983" lon="6.15777">
        <ele>1708.2</ele>
        <time>2026-08-09T08:03:47Z</time>
      </trkpt>
      <trkpt lat="45.09829" lon="6.15776">
        <ele>1708.4</ele>
        <time>2026-08-09T08:03:48Z</time>
      </trkpt>
      <trkpt lat="45.09826" lon="6.15773">
        <ele>1709</ele>
        <time>2026-08-09T08:03:50Z</time>
      </trkpt>
      <trkpt lat="45.09825" lon="6.15772">
        <ele>1709.2</ele>
        <time>2026-08-09T08:03:51Z</time>
      </trkpt>
      <trkpt lat="45.09824" lon="6.15771">
        <ele>1709.4</ele>
        <time>2026-08-09T08:03:52Z</time>
      </trkpt>
      <trkpt lat="45.09821" lon="6.15769">
        <ele>1709.8</ele>
        <time>2026-08-09T08:03:54Z</time>
      </trkpt>
      <trkpt lat="45.0982" lon="6.15768">
        <ele>1710</ele>
        <time>2026-08-09T08:03:55Z</time>
      </trkpt>
      <trkpt lat="45.09819" lon="6.15767">
        <ele>1710.2</ele>
        <time>2026-08-09T08:03:56Z</time>
      </trkpt>
      <trkpt lat="45.09817" lon="6.15765">
        <ele>1710.4</ele>
        <time>2026-08-09T08:03:57Z</time>
      </trkpt>
      <trkpt lat="45.09816" lon="6.15764">
        <ele>1710.4</ele>
        <time>2026-08-09T08:03:58Z</time>
      </trkpt>
      <trkpt lat="45.09814" lon="6.15761">
        <ele>1710.8</ele>
        <time>2026-08-09T08:04:00Z</time>
      </trkpt>
      <trkpt lat="45.09811" lon="6.15759">
        <ele>1711</ele>
        <time>2026-08-09T08:04:02Z</time>
      </trkpt>
      <trkpt lat="45.0981" lon="6.15757">
        <ele>1711.2</ele>
        <time>2026-08-09T08:04:03Z</time>
      </trkpt>
      <trkpt lat="45.09808" lon="6.15756">
        <ele>1711.4</ele>
        <time>2026-08-09T08:04:04Z</time>
      </trkpt>
      <trkpt lat="45.09807" lon="6.15754">
        <ele>1711.6</ele>
        <time>2026-08-09T08:04:05Z</time>
      </trkpt>
      <trkpt lat="45.09806" lon="6.15753">
        <ele>1711.8</ele>
        <time>2026-08-09T08:04:06Z</time>
      </trkpt>
      <trkpt lat="45.09803" lon="6.1575">
        <ele>1712</ele>
        <time>2026-08-09T08:04:08Z</time>
      </trkpt>
      <trkpt lat="45.098" lon="6.15747">
        <ele>1712.4</ele>
        <time>2026-08-09T08:04:10Z</time>
      </trkpt>
      <trkpt lat="45.09798" lon="6.15744">
        <ele>1712.8</ele>
        <time>2026-08-09T08:04:12Z</time>
      </trkpt>
      <trkpt lat="45.09795" lon="6.1574">
        <ele>1713.2</ele>
        <time>2026-08-09T08:04:14Z</time>
      </trkpt>
      <trkpt lat="45.09793" lon="6.15737">
        <ele>1713.4</ele>
        <time>2026-08-09T08:04:16Z</time>
      </trkpt>
      <trkpt lat="45.0979" lon="6.15733">
        <ele>1713.8</ele>
        <time>2026-08-09T08:04:18Z</time>
      </trkpt>
      <trkpt lat="45.09788" lon="6.1573">
        <ele>1714.2</ele>
        <time>2026-08-09T08:04:20Z</time>
      </trkpt>
      <trkpt lat="45.09786" lon="6.15726">
        <ele>1714.6</ele>
        <time>2026-08-09T08:04:22Z</time>
      </trkpt>
      <trkpt lat="45.09783" lon="6.15723">
        <ele>1714.8</ele>
        <time>2026-08-09T08:04:24Z</time>
      </trkpt>
      <trkpt lat="45.09781" lon="6.1572">
        <ele>1715.2</ele>
        <time>2026-08-09T08:04:26Z</time>
      </trkpt>
      <trkpt lat="45.09778" lon="6.15716">
        <ele>1715.6</ele>
        <time>2026-08-09T08:04:28Z</time>
      </trkpt>
      <trkpt lat="45.09776" lon="6.15713">
        <ele>1715.8</ele>
        <time>2026-08-09T08:04:30Z</time>
      </trkpt>
      <trkpt lat="45.09773" lon="6.1571">
        <ele>1716.4</ele>
        <time>2026-08-09T08:04:32Z</time>
      </trkpt>
      <trkpt lat="45.09772" lon="6.15708">
        <ele>1716.4</ele>
        <time>2026-08-09T08:04:33Z</time>
      </trkpt>
      <trkpt lat="45.0977" lon="6.15707">
        <ele>1716.6</ele>
        <time>2026-08-09T08:04:34Z</time>
      </trkpt>
      <trkpt lat="45.09768" lon="6.15704">
        <ele>1717</ele>
        <time>2026-08-09T08:04:36Z</time>
      </trkpt>
      <trkpt lat="45.09765" lon="6.15701">
        <ele>1717.2</ele>
        <time>2026-08-09T08:04:38Z</time>
      </trkpt>
      <trkpt lat="45.09763" lon="6.15698">
        <ele>1717.6</ele>
        <time>2026-08-09T08:04:40Z</time>
      </trkpt>
      <trkpt lat="45.0976" lon="6.15695">
        <ele>1718</ele>
        <time>2026-08-09T08:04:42Z</time>
      </trkpt>
      <trkpt lat="45.09759" lon="6.15693">
        <ele>1718.2</ele>
        <time>2026-08-09T08:04:43Z</time>
      </trkpt>
      <trkpt lat="45.09757" lon="6.15692">
        <ele>1718.2</ele>
        <time>2026-08-09T08:04:44Z</time>
      </trkpt>
      <trkpt lat="45.09755" lon="6.15689">
        <ele>1718.4</ele>
        <time>2026-08-09T08:04:46Z</time>
      </trkpt>
      <trkpt lat="45.09752" lon="6.15686">
        <ele>1719</ele>
        <time>2026-08-09T08:04:48Z</time>
      </trkpt>
      <trkpt lat="45.09748" lon="6.15684">
        <ele>1719.2</ele>
        <time>2026-08-09T08:04:50Z</time>
      </trkpt>
      <trkpt lat="45.09746" lon="6.15681">
        <ele>1719.4</ele>
        <time>2026-08-09T08:04:52Z</time>
      </trkpt>
      <trkpt lat="45.09744" lon="6.1568">
        <ele>1719.6</ele>
        <time>2026-08-09T08:04:53Z</time>
      </trkpt>
      <trkpt lat="45.09743" lon="6.15679">
        <ele>1719.8</ele>
        <time>2026-08-09T08:04:54Z</time>
      </trkpt>
      <trkpt lat="45.09739" lon="6.15677">
        <ele>1720.2</ele>
        <time>2026-08-09T08:04:56Z</time>
      </trkpt>
      <trkpt lat="45.09736" lon="6.15675">
        <ele>1720.6</ele>
        <time>2026-08-09T08:04:58Z</time>
      </trkpt>
      <trkpt lat="45.09735" lon="6.15674">
        <ele>1720.8</ele>
        <time>2026-08-09T08:04:59Z</time>
      </trkpt>
      <trkpt lat="45.09733" lon="6.15674">
        <ele>1721</ele>
        <time>2026-08-09T08:05:00Z</time>
      </trkpt>
      <trkpt lat="45.0973" lon="6.15672">
        <ele>1721.4</ele>
        <time>2026-08-09T08:05:02Z</time>
      </trkpt>
      <trkpt lat="45.09727" lon="6.1567">
        <ele>1721.6</ele>
        <time>2026-08-09T08:05:04Z</time>
      </trkpt>
      <trkpt lat="45.09724" lon="6.15668">
        <ele>1721.8</ele>
        <time>2026-08-09T08:05:06Z</time>
      </trkpt>
      <trkpt lat="45.09721" lon="6.15666">
        <ele>1722.2</ele>
        <time>2026-08-09T08:05:08Z</time>
      </trkpt>
      <trkpt lat="45.09719" lon="6.15665">
        <ele>1722.4</ele>
        <time>2026-08-09T08:05:09Z</time>
      </trkpt>
      <trkpt lat="45.09718" lon="6.15664">
        <ele>1722.6</ele>
        <time>2026-08-09T08:05:10Z</time>
      </trkpt>
      <trkpt lat="45.09715" lon="6.15662">
        <ele>1722.8</ele>
        <time>2026-08-09T08:05:12Z</time>
      </trkpt>
      <trkpt lat="45.09713" lon="6.1566">
        <ele>1723</ele>
        <time>2026-08-09T08:05:14Z</time>
      </trkpt>
      <trkpt lat="45.0971" lon="6.15658">
        <ele>1723.4</ele>
        <time>2026-08-09T08:05:16Z</time>
      </trkpt>
      <trkpt lat="45.09707" lon="6.15655">
        <ele>1723.4</ele>
        <time>2026-08-09T08:05:18Z</time>
      </trkpt>
      <trkpt lat="45.09704" lon="6.15654">
        <ele>1723.8</ele>
        <time>2026-08-09T08:05:20Z</time>
      </trkpt>
      <trkpt lat="45.097" lon="6.15652">
        <ele>1724</ele>
        <time>2026-08-09T08:05:22Z</time>
      </trkpt>
      <trkpt lat="45.09697" lon="6.1565">
        <ele>1724.4</ele>
        <time>2026-08-09T08:05:24Z</time>
      </trkpt>
      <trkpt lat="45.09695" lon="6.15648">
        <ele>1724.8</ele>
        <time>2026-08-09T08:05:26Z</time>
      </trkpt>
      <trkpt lat="45.09692" lon="6.15646">
        <ele>1725.2</ele>
        <time>2026-08-09T08:05:28Z</time>
      </trkpt>
      <trkpt lat="45.09691" lon="6.15645">
        <ele>1725.4</ele>
        <time>2026-08-09T08:05:29Z</time>
      </trkpt>
      <trkpt lat="45.09689" lon="6.15644">
        <ele>1725.6</ele>
        <time>2026-08-09T08:05:30Z</time>
      </trkpt>
      <trkpt lat="45.09687" lon="6.15643">
        <ele>1726</ele>
        <time>2026-08-09T08:05:32Z</time>
      </trkpt>
      <trkpt lat="45.09684" lon="6.15642">
        <ele>1726.2</ele>
        <time>2026-08-09T08:05:34Z</time>
      </trkpt>
      <trkpt lat="45.0968" lon="6.15641">
        <ele>1726.4</ele>
        <time>2026-08-09T08:05:36Z</time>
      </trkpt>
      <trkpt lat="45.09679" lon="6.1564">
        <ele>1726.8</ele>
        <time>2026-08-09T08:05:37Z</time>
      </trkpt>
      <trkpt lat="45.09677" lon="6.1564">
        <ele>1727</ele>
        <time>2026-08-09T08:05:38Z</time>
      </trkpt>
      <trkpt lat="45.09674" lon="6.15639">
        <ele>1727.2</ele>
        <time>2026-08-09T08:05:40Z</time>
      </trkpt>
      <trkpt lat="45.0967" lon="6.15638">
        <ele>1727.6</ele>
        <time>2026-08-09T08:05:42Z</time>
      </trkpt>
      <trkpt lat="45.09667" lon="6.15637">
        <ele>1728</ele>
        <time>2026-08-09T08:05:44Z</time>
      </trkpt>
      <trkpt lat="45.09665" lon="6.15636">
        <ele>1728.2</ele>
        <time>2026-08-09T08:05:45Z</time>
      </trkpt>
      <trkpt lat="45.09663" lon="6.15636">
        <ele>1728.2</ele>
        <time>2026-08-09T08:05:46Z</time>
      </trkpt>
      <trkpt lat="45.09659" lon="6.15635">
        <ele>1728.6</ele>
        <time>2026-08-09T08:05:48Z</time>
      </trkpt>
      <trkpt lat="45.09656" lon="6.15635">
        <ele>1728.8</ele>
        <time>2026-08-09T08:05:50Z</time>
      </trkpt>
      <trkpt lat="45.09653" lon="6.15634">
        <ele>1729</ele>
        <time>2026-08-09T08:05:52Z</time>
      </trkpt>
      <trkpt lat="45.09651" lon="6.15633">
        <ele>1729.2</ele>
        <time>2026-08-09T08:05:53Z</time>
      </trkpt>
      <trkpt lat="45.09649" lon="6.15632">
        <ele>1729.4</ele>
        <time>2026-08-09T08:05:54Z</time>
      </trkpt>
      <trkpt lat="45.09646" lon="6.15631">
        <ele>1729.4</ele>
        <time>2026-08-09T08:05:56Z</time>
      </trkpt>
      <trkpt lat="45.09643" lon="6.1563">
        <ele>1730</ele>
        <time>2026-08-09T08:05:58Z</time>
      </trkpt>
      <trkpt lat="45.0964" lon="6.15628">
        <ele>1730.2</ele>
        <time>2026-08-09T08:06:00Z</time>
      </trkpt>
      <trkpt lat="45.09637" lon="6.15627">
        <ele>1730.6</ele>
        <time>2026-08-09T08:06:02Z</time>
      </trkpt>
      <trkpt lat="45.09635" lon="6.15626">
        <ele>1730.8</ele>
        <time>2026-08-09T08:06:03Z</time>
      </trkpt>
      <trkpt lat="45.09633" lon="6.15625">
        <ele>1730.8</ele>
        <time>2026-08-09T08:06:04Z</time>
      </trkpt>
      <trkpt lat="45.09632" lon="6.15624">
        <ele>1731.2</ele>
        <time>2026-08-09T08:06:05Z</time>
      </trkpt>
      <trkpt lat="45.0963" lon="6.15623">
        <ele>1731.4</ele>
        <time>2026-08-09T08:06:06Z</time>
      </trkpt>
      <trkpt lat="45.09627" lon="6.15621">
        <ele>1731.6</ele>
        <time>2026-08-09T08:06:08Z</time>
      </trkpt>
      <trkpt lat="45.09624" lon="6.1562">
        <ele>1732</ele>
        <time>2026-08-09T08:06:10Z</time>
      </trkpt>
      <trkpt lat="45.09623" lon="6.15618">
        <ele>1732.2</ele>
        <time>2026-08-09T08:06:11Z</time>
      </trkpt>
      <trkpt lat="45.09622" lon="6.15618">
        <ele>1732.2</ele>
        <time>2026-08-09T08:06:12Z</time>
      </trkpt>
      <trkpt lat="45.09619" lon="6.15615">
        <ele>1732.4</ele>
        <time>2026-08-09T08:06:14Z</time>
      </trkpt>
      <trkpt lat="45.09616" lon="6.15613">
        <ele>1732.8</ele>
        <time>2026-08-09T08:06:16Z</time>
      </trkpt>
      <trkpt lat="45.09613" lon="6.1561">
        <ele>1733.2</ele>
        <time>2026-08-09T08:06:18Z</time>
      </trkpt>
      <trkpt lat="45.0961" lon="6.15607">
        <ele>1733.4</ele>
        <time>2026-08-09T08:06:20Z</time>
      </trkpt>
      <trkpt lat="45.09609" lon="6.15606">
        <ele>1733.6</ele>
        <time>2026-08-09T08:06:21Z</time>
      </trkpt>
      <trkpt lat="45.09608" lon="6.15604">
        <ele>1733.8</ele>
        <time>2026-08-09T08:06:22Z</time>
      </trkpt>
      <trkpt lat="45.09605" lon="6.15601">
        <ele>1734</ele>
        <time>2026-08-09T08:06:24Z</time>
      </trkpt>
      <trkpt lat="45.09604" lon="6.15599">
        <ele>1734.2</ele>
        <time>2026-08-09T08:06:25Z</time>
      </trkpt>
      <trkpt lat="45.09602" lon="6.15597">
        <ele>1734.4</ele>
        <time>2026-08-09T08:06:26Z</time>
      </trkpt>
      <trkpt lat="45.096" lon="6.15594">
        <ele>1734.8</ele>
        <time>2026-08-09T08:06:28Z</time>
      </trkpt>
      <trkpt lat="45.09598" lon="6.1559">
        <ele>1735.2</ele>
        <time>2026-08-09T08:06:30Z</time>
      </trkpt>
      <trkpt lat="45.09595" lon="6.15587">
        <ele>1735.6</ele>
        <time>2026-08-09T08:06:32Z</time>
      </trkpt>
      <trkpt lat="45.09594" lon="6.15583">
        <ele>1736</ele>
        <time>2026-08-09T08:06:34Z</time>
      </trkpt>
      <trkpt lat="45.09592" lon="6.1558">
        <ele>1736.4</ele>
        <time>2026-08-09T08:06:36Z</time>
      </trkpt>
      <trkpt lat="45.0959" lon="6.15576">
        <ele>1736.8</ele>
        <time>2026-08-09T08:06:38Z</time>
      </trkpt>
      <trkpt lat="45.09588" lon="6.15573">
        <ele>1737</ele>
        <time>2026-08-09T08:06:40Z</time>
      </trkpt>
      <trkpt lat="45.09587" lon="6.1557">
        <ele>1737.2</ele>
        <time>2026-08-09T08:06:42Z</time>
      </trkpt>
      <trkpt lat="45.09586" lon="6.15568">
        <ele>1737.4</ele>
        <time>2026-08-09T08:06:43Z</time>
      </trkpt>
      <trkpt lat="45.09585" lon="6.15566">
        <ele>1737.6</ele>
        <time>2026-08-09T08:06:44Z</time>
      </trkpt>
      <trkpt lat="45.09583" lon="6.15562">
        <ele>1738</ele>
        <time>2026-08-09T08:06:46Z</time>
      </trkpt>
      <trkpt lat="45.09581" lon="6.15559">
        <ele>1738</ele>
        <time>2026-08-09T08:06:48Z</time>
      </trkpt>
      <trkpt lat="45.0958" lon="6.15555">
        <ele>1738.4</ele>
        <time>2026-08-09T08:06:50Z</time>
      </trkpt>
      <trkpt lat="45.09579" lon="6.15551">
        <ele>1738.8</ele>
        <time>2026-08-09T08:06:52Z</time>
      </trkpt>
      <trkpt lat="45.09577" lon="6.15547">
        <ele>1739.2</ele>
        <time>2026-08-09T08:06:54Z</time>
      </trkpt>
      <trkpt lat="45.09576" lon="6.15546">
        <ele>1739.4</ele>
        <time>2026-08-09T08:06:55Z</time>
      </trkpt>
      <trkpt lat="45.09575" lon="6.15544">
        <ele>1739.6</ele>
        <time>2026-08-09T08:06:56Z</time>
      </trkpt>
      <trkpt lat="45.09574" lon="6.15542">
        <ele>1739.8</ele>
        <time>2026-08-09T08:06:57Z</time>
      </trkpt>
      <trkpt lat="45.09573" lon="6.15541">
        <ele>1740</ele>
        <time>2026-08-09T08:06:58Z</time>
      </trkpt>
      <trkpt lat="45.09571" lon="6.15537">
        <ele>1740.4</ele>
        <time>2026-08-09T08:07:00Z</time>
      </trkpt>
      <trkpt lat="45.0957" lon="6.15536">
        <ele>1740.6</ele>
        <time>2026-08-09T08:07:01Z</time>
      </trkpt>
      <trkpt lat="45.09569" lon="6.15534">
        <ele>1740.8</ele>
        <time>2026-08-09T08:07:02Z</time>
      </trkpt>
      <trkpt lat="45.09567" lon="6.15531">
        <ele>1741.2</ele>
        <time>2026-08-09T08:07:04Z</time>
      </trkpt>
      <trkpt lat="45.09565" lon="6.15528">
        <ele>1741.2</ele>
        <time>2026-08-09T08:07:06Z</time>
      </trkpt>
      <trkpt lat="45.09564" lon="6.15526">
        <ele>1741.4</ele>
        <time>2026-08-09T08:07:07Z</time>
      </trkpt>
      <trkpt lat="45.09563" lon="6.15524">
        <ele>1741.6</ele>
        <time>2026-08-09T08:07:08Z</time>
      </trkpt>
      <trkpt lat="45.09561" lon="6.15522">
        <ele>1742</ele>
        <time>2026-08-09T08:07:10Z</time>
      </trkpt>
      <trkpt lat="45.09559" lon="6.15519">
        <ele>1742.4</ele>
        <time>2026-08-09T08:07:12Z</time>
      </trkpt>
      <trkpt lat="45.09557" lon="6.15516">
        <ele>1742.6</ele>
        <time>2026-08-09T08:07:14Z</time>
      </trkpt>
      <trkpt lat="45.09556" lon="6.15515">
        <ele>1742.8</ele>
        <time>2026-08-09T08:07:15Z</time>
      </trkpt>
      <trkpt lat="45.09554" lon="6.15514">
        <ele>1743</ele>
        <time>2026-08-09T08:07:16Z</time>
      </trkpt>
      <trkpt lat="45.09552" lon="6.15511">
        <ele>1743.6</ele>
        <time>2026-08-09T08:07:18Z</time>
      </trkpt>
      <trkpt lat="45.09551" lon="6.15509">
        <ele>1743.8</ele>
        <time>2026-08-09T08:07:19Z</time>
      </trkpt>
      <trkpt lat="45.0955" lon="6.15508">
        <ele>1744</ele>
        <time>2026-08-09T08:07:20Z</time>
      </trkpt>
      <trkpt lat="45.09548" lon="6.15505">
        <ele>1744.4</ele>
        <time>2026-08-09T08:07:22Z</time>
      </trkpt>
      <trkpt lat="45.09545" lon="6.15503">
        <ele>1744.8</ele>
        <time>2026-08-09T08:07:24Z</time>
      </trkpt>
      <trkpt lat="45.09544" lon="6.15502">
        <ele>1745</ele>
        <time>2026-08-09T08:07:25Z</time>
      </trkpt>
      <trkpt lat="45.09543" lon="6.15501">
        <ele>1744.8</ele>
        <time>2026-08-09T08:07:26Z</time>
      </trkpt>
      <trkpt lat="45.0954" lon="6.15498">
        <ele>1745.2</ele>
        <time>2026-08-09T08:07:28Z</time>
      </trkpt>
      <trkpt lat="45.09537" lon="6.15496">
        <ele>1745.4</ele>
        <time>2026-08-09T08:07:30Z</time>
      </trkpt>
      <trkpt lat="45.09535" lon="6.15494">
        <ele>1745.8</ele>
        <time>2026-08-09T08:07:32Z</time>
      </trkpt>
      <trkpt lat="45.09534" lon="6.15493">
        <ele>1745.8</ele>
        <time>2026-08-09T08:07:33Z</time>
      </trkpt>
      <trkpt lat="45.09532" lon="6.15492">
        <ele>1746</ele>
        <time>2026-08-09T08:07:34Z</time>
      </trkpt>
      <trkpt lat="45.09529" lon="6.15489">
        <ele>1746.4</ele>
        <time>2026-08-09T08:07:36Z</time>
      </trkpt>
      <trkpt lat="45.09526" lon="6.15486">
        <ele>1746.6</ele>
        <time>2026-08-09T08:07:38Z</time>
      </trkpt>
      <trkpt lat="45.09524" lon="6.15484">
        <ele>1747</ele>
        <time>2026-08-09T08:07:40Z</time>
      </trkpt>
      <trkpt lat="45.09521" lon="6.15483">
        <ele>1747</ele>
        <time>2026-08-09T08:07:42Z</time>
      </trkpt>
      <trkpt lat="45.09518" lon="6.15481">
        <ele>1747.4</ele>
        <time>2026-08-09T08:07:44Z</time>
      </trkpt>
      <trkpt lat="45.09516" lon="6.15479">
        <ele>1747.8</ele>
        <time>2026-08-09T08:07:46Z</time>
      </trkpt>
      <trkpt lat="45.09513" lon="6.15477">
        <ele>1748.2</ele>
        <time>2026-08-09T08:07:48Z</time>
      </trkpt>
      <trkpt lat="45.09511" lon="6.15475">
        <ele>1748.4</ele>
        <time>2026-08-09T08:07:50Z</time>
      </trkpt>
      <trkpt lat="45.09508" lon="6.15473">
        <ele>1748.8</ele>
        <time>2026-08-09T08:07:52Z</time>
      </trkpt>
      <trkpt lat="45.09505" lon="6.1547">
        <ele>1749.2</ele>
        <time>2026-08-09T08:07:54Z</time>
      </trkpt>
      <trkpt lat="45.09502" lon="6.15468">
        <ele>1749.6</ele>
        <time>2026-08-09T08:07:56Z</time>
      </trkpt>
      <trkpt lat="45.09499" lon="6.15466">
        <ele>1750</ele>
        <time>2026-08-09T08:07:58Z</time>
      </trkpt>
      <trkpt lat="45.09498" lon="6.15464">
        <ele>1750</ele>
        <time>2026-08-09T08:07:59Z</time>
      </trkpt>
      <trkpt lat="45.09497" lon="6.15463">
        <ele>1750</ele>
        <time>2026-08-09T08:08:00Z</time>
      </trkpt>
      <trkpt lat="45.09494" lon="6.1546">
        <ele>1750.4</ele>
        <time>2026-08-09T08:08:02Z</time>
      </trkpt>
      <trkpt lat="45.09492" lon="6.15458">
        <ele>1750.8</ele>
        <time>2026-08-09T08:08:04Z</time>
      </trkpt>
      <trkpt lat="45.09489" lon="6.15455">
        <ele>1751.2</ele>
        <time>2026-08-09T08:08:06Z</time>
      </trkpt>
      <trkpt lat="45.09486" lon="6.15452">
        <ele>1751.4</ele>
        <time>2026-08-09T08:08:08Z</time>
      </trkpt>
      <trkpt lat="45.09484" lon="6.15449">
        <ele>1751.6</ele>
        <time>2026-08-09T08:08:10Z</time>
      </trkpt>
      <trkpt lat="45.09481" lon="6.15446">
        <ele>1752</ele>
        <time>2026-08-09T08:08:12Z</time>
      </trkpt>
      <trkpt lat="45.09479" lon="6.15444">
        <ele>1752.2</ele>
        <time>2026-08-09T08:08:14Z</time>
      </trkpt>
      <trkpt lat="45.09476" lon="6.15441">
        <ele>1752.4</ele>
        <time>2026-08-09T08:08:16Z</time>
      </trkpt>
      <trkpt lat="45.09474" lon="6.15439">
        <ele>1752.8</ele>
        <time>2026-08-09T08:08:18Z</time>
      </trkpt>
      <trkpt lat="45.09472" lon="6.15438">
        <ele>1752.8</ele>
        <time>2026-08-09T08:08:19Z</time>
      </trkpt>
      <trkpt lat="45.09471" lon="6.15436">
        <ele>1753.2</ele>
        <time>2026-08-09T08:08:20Z</time>
      </trkpt>
      <trkpt lat="45.09469" lon="6.15434">
        <ele>1753.4</ele>
        <time>2026-08-09T08:08:22Z</time>
      </trkpt>
      <trkpt lat="45.09466" lon="6.15431">
        <ele>1753.6</ele>
        <time>2026-08-09T08:08:24Z</time>
      </trkpt>
      <trkpt lat="45.09464" lon="6.15429">
        <ele>1754</ele>
        <time>2026-08-09T08:08:26Z</time>
      </trkpt>
      <trkpt lat="45.09462" lon="6.15427">
        <ele>1754</ele>
        <time>2026-08-09T08:08:27Z</time>
      </trkpt>
      <trkpt lat="45.09461" lon="6.15426">
        <ele>1754.2</ele>
        <time>2026-08-09T08:08:28Z</time>
      </trkpt>
      <trkpt lat="45.09458" lon="6.15423">
        <ele>1754.4</ele>
        <time>2026-08-09T08:08:30Z</time>
      </trkpt>
      <trkpt lat="45.09456" lon="6.1542">
        <ele>1754.8</ele>
        <time>2026-08-09T08:08:32Z</time>
      </trkpt>
      <trkpt lat="45.09453" lon="6.15418">
        <ele>1754.8</ele>
        <time>2026-08-09T08:08:34Z</time>
      </trkpt>
      <trkpt lat="45.09452" lon="6.15416">
        <ele>1755</ele>
        <time>2026-08-09T08:08:35Z</time>
      </trkpt>
      <trkpt lat="45.09451" lon="6.15415">
        <ele>1755.2</ele>
        <time>2026-08-09T08:08:36Z</time>
      </trkpt>
      <trkpt lat="45.09449" lon="6.15414">
        <ele>1755.2</ele>
        <time>2026-08-09T08:08:37Z</time>
      </trkpt>
      <trkpt lat="45.09448" lon="6.15412">
        <ele>1755.2</ele>
        <time>2026-08-09T08:08:38Z</time>
      </trkpt>
      <trkpt lat="45.09446" lon="6.1541">
        <ele>1755.6</ele>
        <time>2026-08-09T08:08:40Z</time>
      </trkpt>
      <trkpt lat="45.09443" lon="6.15407">
        <ele>1756</ele>
        <time>2026-08-09T08:08:42Z</time>
      </trkpt>
      <trkpt lat="45.09441" lon="6.15403">
        <ele>1756.4</ele>
        <time>2026-08-09T08:08:44Z</time>
      </trkpt>
      <trkpt lat="45.0944" lon="6.15402">
        <ele>1756.6</ele>
        <time>2026-08-09T08:08:45Z</time>
      </trkpt>
      <trkpt lat="45.09439" lon="6.154">
        <ele>1756.6</ele>
        <time>2026-08-09T08:08:46Z</time>
      </trkpt>
      <trkpt lat="45.09437" lon="6.15397">
        <ele>1757</ele>
        <time>2026-08-09T08:08:48Z</time>
      </trkpt>
      <trkpt lat="45.09436" lon="6.15395">
        <ele>1757.2</ele>
        <time>2026-08-09T08:08:49Z</time>
      </trkpt>
      <trkpt lat="45.09434" lon="6.15394">
        <ele>1757.4</ele>
        <time>2026-08-09T08:08:50Z</time>
      </trkpt>
      <trkpt lat="45.09433" lon="6.1539">
        <ele>1757.8</ele>
        <time>2026-08-09T08:08:52Z</time>
      </trkpt>
      <trkpt lat="45.09431" lon="6.15387">
        <ele>1758</ele>
        <time>2026-08-09T08:08:54Z</time>
      </trkpt>
      <trkpt lat="45.0943" lon="6.15385">
        <ele>1758.4</ele>
        <time>2026-08-09T08:08:55Z</time>
      </trkpt>
      <trkpt lat="45.09429" lon="6.15383">
        <ele>1758.6</ele>
        <time>2026-08-09T08:08:56Z</time>
      </trkpt>
      <trkpt lat="45.09427" lon="6.1538">
        <ele>1758.6</ele>
        <time>2026-08-09T08:08:58Z</time>
      </trkpt>
      <trkpt lat="45.09425" lon="6.15376">
        <ele>1759</ele>
        <time>2026-08-09T08:09:00Z</time>
      </trkpt>
      <trkpt lat="45.09424" lon="6.15374">
        <ele>1759.2</ele>
        <time>2026-08-09T08:09:01Z</time>
      </trkpt>
      <trkpt lat="45.09422" lon="6.15372">
        <ele>1759.4</ele>
        <time>2026-08-09T08:09:02Z</time>
      </trkpt>
      <trkpt lat="45.0942" lon="6.15369">
        <ele>1759.6</ele>
        <time>2026-08-09T08:09:04Z</time>
      </trkpt>
      <trkpt lat="45.09418" lon="6.15366">
        <ele>1760</ele>
        <time>2026-08-09T08:09:06Z</time>
      </trkpt>
      <trkpt lat="45.09417" lon="6.15364">
        <ele>1760.2</ele>
        <time>2026-08-09T08:09:07Z</time>
      </trkpt>
      <trkpt lat="45.09416" lon="6.15362">
        <ele>1760.4</ele>
        <time>2026-08-09T08:09:08Z</time>
      </trkpt>
      <trkpt lat="45.09414" lon="6.15358">
        <ele>1760.8</ele>
        <time>2026-08-09T08:09:10Z</time>
      </trkpt>
      <trkpt lat="45.09412" lon="6.15355">
        <ele>1761.2</ele>
        <time>2026-08-09T08:09:12Z</time>
      </trkpt>
      <trkpt lat="45.09411" lon="6.15354">
        <ele>1761.4</ele>
        <time>2026-08-09T08:09:13Z</time>
      </trkpt>
      <trkpt lat="45.0941" lon="6.15353">
        <ele>1761.6</ele>
        <time>2026-08-09T08:09:14Z</time>
      </trkpt>
      <trkpt lat="45.09409" lon="6.1535">
        <ele>1761.8</ele>
        <time>2026-08-09T08:09:16Z</time>
      </trkpt>
      <trkpt lat="45.09408" lon="6.15349">
        <ele>1762</ele>
        <time>2026-08-09T08:09:17Z</time>
      </trkpt>
      <trkpt lat="45.09407" lon="6.15348">
        <ele>1762.2</ele>
        <time>2026-08-09T08:09:18Z</time>
      </trkpt>
      <trkpt lat="45.09406" lon="6.15346">
        <ele>1762.4</ele>
        <time>2026-08-09T08:09:19Z</time>
      </trkpt>
      <trkpt lat="45.09406" lon="6.15345">
        <ele>1762.6</ele>
        <time>2026-08-09T08:09:20Z</time>
      </trkpt>
      <trkpt lat="45.09404" lon="6.15342">
        <ele>1763</ele>
        <time>2026-08-09T08:09:22Z</time>
      </trkpt>
      <trkpt lat="45.09402" lon="6.15339">
        <ele>1763.4</ele>
        <time>2026-08-09T08:09:24Z</time>
      </trkpt>
      <trkpt lat="45.09401" lon="6.15338">
        <ele>1763.4</ele>
        <time>2026-08-09T08:09:25Z</time>
      </trkpt>
      <trkpt lat="45.094" lon="6.15336">
        <ele>1763.6</ele>
        <time>2026-08-09T08:09:26Z</time>
      </trkpt>
      <trkpt lat="45.09398" lon="6.15333">
        <ele>1763.8</ele>
        <time>2026-08-09T08:09:28Z</time>
      </trkpt>
      <trkpt lat="45.09397" lon="6.1533">
        <ele>1764</ele>
        <time>2026-08-09T08:09:30Z</time>
      </trkpt>
      <trkpt lat="45.09394" lon="6.15328">
        <ele>1764.4</ele>
        <time>2026-08-09T08:09:32Z</time>
      </trkpt>
      <trkpt lat="45.09393" lon="6.15326">
        <ele>1764.6</ele>
        <time>2026-08-09T08:09:34Z</time>
      </trkpt>
      <trkpt lat="45.09391" lon="6.15324">
        <ele>1765.2</ele>
        <time>2026-08-09T08:09:36Z</time>
      </trkpt>
      <trkpt lat="45.0939" lon="6.15323">
        <ele>1765.4</ele>
        <time>2026-08-09T08:09:37Z</time>
      </trkpt>
      <trkpt lat="45.09389" lon="6.15322">
        <ele>1765.6</ele>
        <time>2026-08-09T08:09:38Z</time>
      </trkpt>
      <trkpt lat="45.09387" lon="6.1532">
        <ele>1766</ele>
        <time>2026-08-09T08:09:40Z</time>
      </trkpt>
      <trkpt lat="45.09386" lon="6.15318">
        <ele>1766.2</ele>
        <time>2026-08-09T08:09:41Z</time>
      </trkpt>
      <trkpt lat="45.09386" lon="6.15317">
        <ele>1766</ele>
        <time>2026-08-09T08:09:42Z</time>
      </trkpt>
      <trkpt lat="45.09384" lon="6.15315">
        <ele>1766.4</ele>
        <time>2026-08-09T08:09:44Z</time>
      </trkpt>
      <trkpt lat="45.09381" lon="6.15313">
        <ele>1766.8</ele>
        <time>2026-08-09T08:09:46Z</time>
      </trkpt>
      <trkpt lat="45.0938" lon="6.15312">
        <ele>1767</ele>
        <time>2026-08-09T08:09:47Z</time>
      </trkpt>
      <trkpt lat="45.09379" lon="6.15312">
        <ele>1767</ele>
        <time>2026-08-09T08:09:48Z</time>
      </trkpt>
      <trkpt lat="45.09376" lon="6.1531">
        <ele>1767.2</ele>
        <time>2026-08-09T08:09:50Z</time>
      </trkpt>
      <trkpt lat="45.09374" lon="6.15309">
        <ele>1767.4</ele>
        <time>2026-08-09T08:09:51Z</time>
      </trkpt>
      <trkpt lat="45.09373" lon="6.15307">
        <ele>1767.6</ele>
        <time>2026-08-09T08:09:52Z</time>
      </trkpt>
      <trkpt lat="45.0937" lon="6.15305">
        <ele>1768</ele>
        <time>2026-08-09T08:09:54Z</time>
      </trkpt>
      <trkpt lat="45.09367" lon="6.15303">
        <ele>1768.2</ele>
        <time>2026-08-09T08:09:56Z</time>
      </trkpt>
      <trkpt lat="45.09365" lon="6.15301">
        <ele>1768.4</ele>
        <time>2026-08-09T08:09:58Z</time>
      </trkpt>
      <trkpt lat="45.09361" lon="6.15299">
        <ele>1768.8</ele>
        <time>2026-08-09T08:10:00Z</time>
      </trkpt>
      <trkpt lat="45.0936" lon="6.15298">
        <ele>1768.8</ele>
        <time>2026-08-09T08:10:01Z</time>
      </trkpt>
      <trkpt lat="45.09359" lon="6.15298">
        <ele>1769.2</ele>
        <time>2026-08-09T08:10:02Z</time>
      </trkpt>
      <trkpt lat="45.09356" lon="6.15296">
        <ele>1769.4</ele>
        <time>2026-08-09T08:10:04Z</time>
      </trkpt>
      <trkpt lat="45.09355" lon="6.15295">
        <ele>1769.2</ele>
        <time>2026-08-09T08:10:05Z</time>
      </trkpt>
      <trkpt lat="45.09353" lon="6.15294">
        <ele>1769.4</ele>
        <time>2026-08-09T08:10:06Z</time>
      </trkpt>
      <trkpt lat="45.09351" lon="6.15291">
        <ele>1769.6</ele>
        <time>2026-08-09T08:10:08Z</time>
      </trkpt>
      <trkpt lat="45.09348" lon="6.15289">
        <ele>1770.2</ele>
        <time>2026-08-09T08:10:10Z</time>
      </trkpt>
      <trkpt lat="45.09346" lon="6.15288">
        <ele>1770.4</ele>
        <time>2026-08-09T08:10:11Z</time>
      </trkpt>
      <trkpt lat="45.09345" lon="6.15286">
        <ele>1770.6</ele>
        <time>2026-08-09T08:10:12Z</time>
      </trkpt>
      <trkpt lat="45.09342" lon="6.15284">
        <ele>1771</ele>
        <time>2026-08-09T08:10:14Z</time>
      </trkpt>
      <trkpt lat="45.09339" lon="6.15282">
        <ele>1771.2</ele>
        <time>2026-08-09T08:10:16Z</time>
      </trkpt>
      <trkpt lat="45.09335" lon="6.15281">
        <ele>1771.2</ele>
        <time>2026-08-09T08:10:18Z</time>
      </trkpt>
      <trkpt lat="45.09332" lon="6.1528">
        <ele>1771.4</ele>
        <time>2026-08-09T08:10:20Z</time>
      </trkpt>
      <trkpt lat="45.09328" lon="6.15279">
        <ele>1771.4</ele>
        <time>2026-08-09T08:10:22Z</time>
      </trkpt>
      <trkpt lat="45.09324" lon="6.15279">
        <ele>1771.8</ele>
        <time>2026-08-09T08:10:24Z</time>
      </trkpt>
      <trkpt lat="45.0932" lon="6.15279">
        <ele>1772</ele>
        <time>2026-08-09T08:10:26Z</time>
      </trkpt>
      <trkpt lat="45.09316" lon="6.15277">
        <ele>1772.2</ele>
        <time>2026-08-09T08:10:28Z</time>
      </trkpt>
      <trkpt lat="45.09312" lon="6.15276">
        <ele>1772.6</ele>
        <time>2026-08-09T08:10:30Z</time>
      </trkpt>
      <trkpt lat="45.0931" lon="6.15275">
        <ele>1772.8</ele>
        <time>2026-08-09T08:10:31Z</time>
      </trkpt>
      <trkpt lat="45.09308" lon="6.15274">
        <ele>1773</ele>
        <time>2026-08-09T08:10:32Z</time>
      </trkpt>
      <trkpt lat="45.09304" lon="6.15273">
        <ele>1773.4</ele>
        <time>2026-08-09T08:10:34Z</time>
      </trkpt>
      <trkpt lat="45.09301" lon="6.1527">
        <ele>1773.6</ele>
        <time>2026-08-09T08:10:36Z</time>
      </trkpt>
      <trkpt lat="45.093" lon="6.15268">
        <ele>1773.6</ele>
        <time>2026-08-09T08:10:37Z</time>
      </trkpt>
      <trkpt lat="45.093" lon="6.15265">
        <ele>1773.6</ele>
        <time>2026-08-09T08:10:38Z</time>
      </trkpt>
      <trkpt lat="45.09302" lon="6.15261">
        <ele>1773.8</ele>
        <time>2026-08-09T08:10:40Z</time>
      </trkpt>
      <trkpt lat="45.09304" lon="6.1526">
        <ele>1773.8</ele>
        <time>2026-08-09T08:10:41Z</time>
      </trkpt>
      <trkpt lat="45.09305" lon="6.1526">
        <ele>1774</ele>
        <time>2026-08-09T08:10:42Z</time>
      </trkpt>
      <trkpt lat="45.09309" lon="6.15261">
        <ele>1774.2</ele>
        <time>2026-08-09T08:10:44Z</time>
      </trkpt>
      <trkpt lat="45.0931" lon="6.15262">
        <ele>1774.4</ele>
        <time>2026-08-09T08:10:45Z</time>
      </trkpt>
      <trkpt lat="45.09312" lon="6.15263">
        <ele>1774.6</ele>
        <time>2026-08-09T08:10:46Z</time>
      </trkpt>
      <trkpt lat="45.09315" lon="6.15264">
        <ele>1775</ele>
        <time>2026-08-09T08:10:48Z</time>
      </trkpt>
      <trkpt lat="45.09318" lon="6.15265">
        <ele>1775.6</ele>
        <time>2026-08-09T08:10:50Z</time>
      </trkpt>
      <trkpt lat="45.09321" lon="6.15265">
        <ele>1775.8</ele>
        <time>2026-08-09T08:10:52Z</time>
      </trkpt>
      <trkpt lat="45.09324" lon="6.15266">
        <ele>1776.2</ele>
        <time>2026-08-09T08:10:54Z</time>
      </trkpt>
      <trkpt lat="45.09326" lon="6.15266">
        <ele>1776.4</ele>
        <time>2026-08-09T08:10:55Z</time>
      </trkpt>
      <trkpt lat="45.09328" lon="6.15267">
        <ele>1776.6</ele>
        <time>2026-08-09T08:10:56Z</time>
      </trkpt>
      <trkpt lat="45.09331" lon="6.15268">
        <ele>1776.8</ele>
        <time>2026-08-09T08:10:58Z</time>
      </trkpt>
      <trkpt lat="45.09334" lon="6.15269">
        <ele>1777.2</ele>
        <time>2026-08-09T08:11:00Z</time>
      </trkpt>
      <trkpt lat="45.09337" lon="6.1527">
        <ele>1777.4</ele>
        <time>2026-08-09T08:11:02Z</time>
      </trkpt>
      <trkpt lat="45.0934" lon="6.15271">
        <ele>1777.8</ele>
        <time>2026-08-09T08:11:04Z</time>
      </trkpt>
      <trkpt lat="45.09343" lon="6.15272">
        <ele>1778</ele>
        <time>2026-08-09T08:11:06Z</time>
      </trkpt>
      <trkpt lat="45.09346" lon="6.15272">
        <ele>1778.4</ele>
        <time>2026-08-09T08:11:08Z</time>
      </trkpt>
      <trkpt lat="45.09348" lon="6.15273">
        <ele>1778.4</ele>
        <time>2026-08-09T08:11:09Z</time>
      </trkpt>
      <trkpt lat="45.09349" lon="6.15274">
        <ele>1778.6</ele>
        <time>2026-08-09T08:11:10Z</time>
      </trkpt>
      <trkpt lat="45.0935" lon="6.15274">
        <ele>1779</ele>
        <time>2026-08-09T08:11:11Z</time>
      </trkpt>
      <trkpt lat="45.09352" lon="6.15274">
        <ele>1779</ele>
        <time>2026-08-09T08:11:12Z</time>
      </trkpt>
      <trkpt lat="45.09355" lon="6.15275">
        <ele>1779.4</ele>
        <time>2026-08-09T08:11:14Z</time>
      </trkpt>
      <trkpt lat="45.09356" lon="6.15276">
        <ele>1779.6</ele>
        <time>2026-08-09T08:11:15Z</time>
      </trkpt>
      <trkpt lat="45.09358" lon="6.15276">
        <ele>1779.6</ele>
        <time>2026-08-09T08:11:16Z</time>
      </trkpt>
      <trkpt lat="45.0936" lon="6.15277">
        <ele>1779.8</ele>
        <time>2026-08-09T08:11:18Z</time>
      </trkpt>
      <trkpt lat="45.09363" lon="6.15277">
        <ele>1780</ele>
        <time>2026-08-09T08:11:20Z</time>
      </trkpt>
      <trkpt lat="45.09366" lon="6.15277">
        <ele>1780.2</ele>
        <time>2026-08-09T08:11:22Z</time>
      </trkpt>
      <trkpt lat="45.09367" lon="6.15278">
        <ele>1780.4</ele>
        <time>2026-08-09T08:11:23Z</time>
      </trkpt>
      <trkpt lat="45.09368" lon="6.15278">
        <ele>1780.6</ele>
        <time>2026-08-09T08:11:24Z</time>
      </trkpt>
      <trkpt lat="45.09371" lon="6.15279">
        <ele>1781</ele>
        <time>2026-08-09T08:11:26Z</time>
      </trkpt>
      <trkpt lat="45.09373" lon="6.1528">
        <ele>1781.4</ele>
        <time>2026-08-09T08:11:28Z</time>
      </trkpt>
      <trkpt lat="45.09375" lon="6.1528">
        <ele>1781.4</ele>
        <time>2026-08-09T08:11:29Z</time>
      </trkpt>
      <trkpt lat="45.09376" lon="6.1528">
        <ele>1781.6</ele>
        <time>2026-08-09T08:11:30Z</time>
      </trkpt>
      <trkpt lat="45.09379" lon="6.15281">
        <ele>1782</ele>
        <time>2026-08-09T08:11:32Z</time>
      </trkpt>
      <trkpt lat="45.09382" lon="6.15281">
        <ele>1782.4</ele>
        <time>2026-08-09T08:11:34Z</time>
      </trkpt>
      <trkpt lat="45.09385" lon="6.15282">
        <ele>1782.6</ele>
        <time>2026-08-09T08:11:36Z</time>
      </trkpt>
      <trkpt lat="45.09387" lon="6.15282">
        <ele>1782.6</ele>
        <time>2026-08-09T08:11:38Z</time>
      </trkpt>
      <trkpt lat="45.0939" lon="6.15282">
        <ele>1783.2</ele>
        <time>2026-08-09T08:11:40Z</time>
      </trkpt>
      <trkpt lat="45.09392" lon="6.15283">
        <ele>1783.6</ele>
        <time>2026-08-09T08:11:42Z</time>
      </trkpt>
      <trkpt lat="45.09393" lon="6.15284">
        <ele>1784.2</ele>
        <time>2026-08-09T08:11:44Z</time>
      </trkpt>
      <trkpt lat="45.09394" lon="6.15285">
        <ele>1784.4</ele>
        <time>2026-08-09T08:11:45Z</time>
      </trkpt>
      <trkpt lat="45.09395" lon="6.15285">
        <ele>1784.4</ele>
        <time>2026-08-09T08:11:46Z</time>
      </trkpt>
      <trkpt lat="45.09398" lon="6.15285">
        <ele>1784.6</ele>
        <time>2026-08-09T08:11:48Z</time>
      </trkpt>
      <trkpt lat="45.094" lon="6.15287">
        <ele>1785</ele>
        <time>2026-08-09T08:11:50Z</time>
      </trkpt>
      <trkpt lat="45.09402" lon="6.15287">
        <ele>1785.2</ele>
        <time>2026-08-09T08:11:52Z</time>
      </trkpt>
      <trkpt lat="45.09403" lon="6.15288">
        <ele>1785.4</ele>
        <time>2026-08-09T08:11:53Z</time>
      </trkpt>
      <trkpt lat="45.09405" lon="6.15288">
        <ele>1785.6</ele>
        <time>2026-08-09T08:11:54Z</time>
      </trkpt>
      <trkpt lat="45.09407" lon="6.15289">
        <ele>1785.8</ele>
        <time>2026-08-09T08:11:56Z</time>
      </trkpt>
      <trkpt lat="45.09409" lon="6.1529">
        <ele>1786</ele>
        <time>2026-08-09T08:11:58Z</time>
      </trkpt>
      <trkpt lat="45.09411" lon="6.15291">
        <ele>1786.4</ele>
        <time>2026-08-09T08:12:00Z</time>
      </trkpt>
      <trkpt lat="45.09412" lon="6.15291">
        <ele>1786.4</ele>
        <time>2026-08-09T08:12:01Z</time>
      </trkpt>
      <trkpt lat="45.09413" lon="6.15291">
        <ele>1786.6</ele>
        <time>2026-08-09T08:12:02Z</time>
      </trkpt>
      <trkpt lat="45.09414" lon="6.15292">
        <ele>1786.6</ele>
        <time>2026-08-09T08:12:04Z</time>
      </trkpt>
      <trkpt lat="45.09416" lon="6.15293">
        <ele>1786.8</ele>
        <time>2026-08-09T08:12:06Z</time>
      </trkpt>
      <trkpt lat="45.09418" lon="6.15293">
        <ele>1787</ele>
        <time>2026-08-09T08:12:08Z</time>
      </trkpt>
      <trkpt lat="45.09419" lon="6.15293">
        <ele>1787.2</ele>
        <time>2026-08-09T08:12:09Z</time>
      </trkpt>
      <trkpt lat="45.09421" lon="6.15293">
        <ele>1787.4</ele>
        <time>2026-08-09T08:12:10Z</time>
      </trkpt>
      <trkpt lat="45.09424" lon="6.15294">
        <ele>1787.6</ele>
        <time>2026-08-09T08:12:12Z</time>
      </trkpt>
      <trkpt lat="45.09425" lon="6.15295">
        <ele>1787.6</ele>
        <time>2026-08-09T08:12:13Z</time>
      </trkpt>
      <trkpt lat="45.09426" lon="6.15295">
        <ele>1787.8</ele>
        <time>2026-08-09T08:12:14Z</time>
      </trkpt>
      <trkpt lat="45.09428" lon="6.15297">
        <ele>1788</ele>
        <time>2026-08-09T08:12:16Z</time>
      </trkpt>
      <trkpt lat="45.0943" lon="6.15297">
        <ele>1788.4</ele>
        <time>2026-08-09T08:12:18Z</time>
      </trkpt>
      <trkpt lat="45.09432" lon="6.15298">
        <ele>1788.8</ele>
        <time>2026-08-09T08:12:20Z</time>
      </trkpt>
      <trkpt lat="45.09435" lon="6.15298">
        <ele>1789</ele>
        <time>2026-08-09T08:12:22Z</time>
      </trkpt>
      <trkpt lat="45.09438" lon="6.15299">
        <ele>1789.2</ele>
        <time>2026-08-09T08:12:24Z</time>
      </trkpt>
      <trkpt lat="45.0944" lon="6.15299">
        <ele>1789.4</ele>
        <time>2026-08-09T08:12:26Z</time>
      </trkpt>
      <trkpt lat="45.09441" lon="6.15301">
        <ele>1789.8</ele>
        <time>2026-08-09T08:12:28Z</time>
      </trkpt>
      <trkpt lat="45.09443" lon="6.15302">
        <ele>1790</ele>
        <time>2026-08-09T08:12:30Z</time>
      </trkpt>
      <trkpt lat="45.09445" lon="6.15303">
        <ele>1790</ele>
        <time>2026-08-09T08:12:32Z</time>
      </trkpt>
      <trkpt lat="45.09446" lon="6.15304">
        <ele>1790.2</ele>
        <time>2026-08-09T08:12:34Z</time>
      </trkpt>
      <trkpt lat="45.09447" lon="6.15305">
        <ele>1790.4</ele>
        <time>2026-08-09T08:12:36Z</time>
      </trkpt>
      <trkpt lat="45.09448" lon="6.15305">
        <ele>1790.6</ele>
        <time>2026-08-09T08:12:37Z</time>
      </trkpt>
      <trkpt lat="45.09449" lon="6.15306">
        <ele>1790.8</ele>
        <time>2026-08-09T08:12:38Z</time>
      </trkpt>
      <trkpt lat="45.0945" lon="6.15307">
        <ele>1791</ele>
        <time>2026-08-09T08:12:40Z</time>
      </trkpt>
      <trkpt lat="45.09452" lon="6.15308">
        <ele>1791.2</ele>
        <time>2026-08-09T08:12:42Z</time>
      </trkpt>
      <trkpt lat="45.09453" lon="6.15309">
        <ele>1791.6</ele>
        <time>2026-08-09T08:12:44Z</time>
      </trkpt>
      <trkpt lat="45.09454" lon="6.1531">
        <ele>1791.6</ele>
        <time>2026-08-09T08:12:45Z</time>
      </trkpt>
      <trkpt lat="45.09455" lon="6.15311">
        <ele>1792</ele>
        <time>2026-08-09T08:12:46Z</time>
      </trkpt>
      <trkpt lat="45.09457" lon="6.15312">
        <ele>1792.4</ele>
        <time>2026-08-09T08:12:48Z</time>
      </trkpt>
      <trkpt lat="45.09459" lon="6.15313">
        <ele>1792.6</ele>
        <time>2026-08-09T08:12:50Z</time>
      </trkpt>
      <trkpt lat="45.0946" lon="6.15313">
        <ele>1792.8</ele>
        <time>2026-08-09T08:12:51Z</time>
      </trkpt>
      <trkpt lat="45.09461" lon="6.15314">
        <ele>1792.8</ele>
        <time>2026-08-09T08:12:52Z</time>
      </trkpt>
      <trkpt lat="45.09463" lon="6.15315">
        <ele>1793</ele>
        <time>2026-08-09T08:12:54Z</time>
      </trkpt>
      <trkpt lat="45.09466" lon="6.15316">
        <ele>1793.4</ele>
        <time>2026-08-09T08:12:56Z</time>
      </trkpt>
      <trkpt lat="45.09468" lon="6.15318">
        <ele>1793.6</ele>
        <time>2026-08-09T08:12:58Z</time>
      </trkpt>
      <trkpt lat="45.09469" lon="6.15318">
        <ele>1793.6</ele>
        <time>2026-08-09T08:12:59Z</time>
      </trkpt>
      <trkpt lat="45.09471" lon="6.15318">
        <ele>1793.6</ele>
        <time>2026-08-09T08:13:00Z</time>
      </trkpt>
      <trkpt lat="45.09474" lon="6.15321">
        <ele>1793.8</ele>
        <time>2026-08-09T08:13:02Z</time>
      </trkpt>
      <trkpt lat="45.09477" lon="6.15323">
        <ele>1794.2</ele>
        <time>2026-08-09T08:13:04Z</time>
      </trkpt>
      <trkpt lat="45.0948" lon="6.15325">
        <ele>1794.4</ele>
        <time>2026-08-09T08:13:06Z</time>
      </trkpt>
      <trkpt lat="45.09481" lon="6.15325">
        <ele>1794.4</ele>
        <time>2026-08-09T08:13:07Z</time>
      </trkpt>
      <trkpt lat="45.09483" lon="6.15326">
        <ele>1794.6</ele>
        <time>2026-08-09T08:13:08Z</time>
      </trkpt>
      <trkpt lat="45.09486" lon="6.15326">
        <ele>1795</ele>
        <time>2026-08-09T08:13:10Z</time>
      </trkpt>
      <trkpt lat="45.09488" lon="6.15327">
        <ele>1795</ele>
        <time>2026-08-09T08:13:11Z</time>
      </trkpt>
      <trkpt lat="45.09489" lon="6.15327">
        <ele>1795.4</ele>
        <time>2026-08-09T08:13:12Z</time>
      </trkpt>
      <trkpt lat="45.09491" lon="6.15328">
        <ele>1795.4</ele>
        <time>2026-08-09T08:13:13Z</time>
      </trkpt>
      <trkpt lat="45.09492" lon="6.15329">
        <ele>1795.6</ele>
        <time>2026-08-09T08:13:14Z</time>
      </trkpt>
      <trkpt lat="45.09495" lon="6.15331">
        <ele>1795.8</ele>
        <time>2026-08-09T08:13:16Z</time>
      </trkpt>
      <trkpt lat="45.09496" lon="6.15331">
        <ele>1796</ele>
        <time>2026-08-09T08:13:17Z</time>
      </trkpt>
      <trkpt lat="45.09497" lon="6.15332">
        <ele>1796.2</ele>
        <time>2026-08-09T08:13:18Z</time>
      </trkpt>
      <trkpt lat="45.095" lon="6.15333">
        <ele>1796.4</ele>
        <time>2026-08-09T08:13:20Z</time>
      </trkpt>
      <trkpt lat="45.09503" lon="6.15334">
        <ele>1796.6</ele>
        <time>2026-08-09T08:13:22Z</time>
      </trkpt>
      <trkpt lat="45.09505" lon="6.15335">
        <ele>1796.8</ele>
        <time>2026-08-09T08:13:24Z</time>
      </trkpt>
      <trkpt lat="45.09508" lon="6.15337">
        <ele>1797</ele>
        <time>2026-08-09T08:13:26Z</time>
      </trkpt>
      <trkpt lat="45.0951" lon="6.15338">
        <ele>1797.4</ele>
        <time>2026-08-09T08:13:28Z</time>
      </trkpt>
      <trkpt lat="45.09513" lon="6.15339">
        <ele>1797.8</ele>
        <time>2026-08-09T08:13:30Z</time>
      </trkpt>
      <trkpt lat="45.09514" lon="6.1534">
        <ele>1798</ele>
        <time>2026-08-09T08:13:31Z</time>
      </trkpt>
      <trkpt lat="45.09515" lon="6.15341">
        <ele>1798</ele>
        <time>2026-08-09T08:13:32Z</time>
      </trkpt>
      <trkpt lat="45.09518" lon="6.15342">
        <ele>1798.4</ele>
        <time>2026-08-09T08:13:34Z</time>
      </trkpt>
      <trkpt lat="45.0952" lon="6.15343">
        <ele>1799</ele>
        <time>2026-08-09T08:13:36Z</time>
      </trkpt>
      <trkpt lat="45.09522" lon="6.15344">
        <ele>1799</ele>
        <time>2026-08-09T08:13:37Z</time>
      </trkpt>
      <trkpt lat="45.09523" lon="6.15345">
        <ele>1799.2</ele>
        <time>2026-08-09T08:13:38Z</time>
      </trkpt>
      <trkpt lat="45.09524" lon="6.15345">
        <ele>1799.4</ele>
        <time>2026-08-09T08:13:39Z</time>
      </trkpt>
      <trkpt lat="45.09526" lon="6.15346">
        <ele>1799.6</ele>
        <time>2026-08-09T08:13:40Z</time>
      </trkpt>
      <trkpt lat="45.09528" lon="6.15347">
        <ele>1799.6</ele>
        <time>2026-08-09T08:13:42Z</time>
      </trkpt>
      <trkpt lat="45.09531" lon="6.15348">
        <ele>1800</ele>
        <time>2026-08-09T08:13:44Z</time>
      </trkpt>
      <trkpt lat="45.09533" lon="6.15349">
        <ele>1800.4</ele>
        <time>2026-08-09T08:13:46Z</time>
      </trkpt>
      <trkpt lat="45.09534" lon="6.15349">
        <ele>1800.6</ele>
        <time>2026-08-09T08:13:47Z</time>
      </trkpt>
      <trkpt lat="45.09536" lon="6.15349">
        <ele>1800.8</ele>
        <time>2026-08-09T08:13:48Z</time>
      </trkpt>
      <trkpt lat="45.09538" lon="6.1535">
        <ele>1801</ele>
        <time>2026-08-09T08:13:50Z</time>
      </trkpt>
      <trkpt lat="45.09541" lon="6.15351">
        <ele>1801.4</ele>
        <time>2026-08-09T08:13:52Z</time>
      </trkpt>
      <trkpt lat="45.09544" lon="6.15352">
        <ele>1801.6</ele>
        <time>2026-08-09T08:13:54Z</time>
      </trkpt>
      <trkpt lat="45.09547" lon="6.15353">
        <ele>1802</ele>
        <time>2026-08-09T08:13:56Z</time>
      </trkpt>
      <trkpt lat="45.09549" lon="6.15354">
        <ele>1802.4</ele>
        <time>2026-08-09T08:13:58Z</time>
      </trkpt>
      <trkpt lat="45.09552" lon="6.15355">
        <ele>1802.6</ele>
        <time>2026-08-09T08:14:00Z</time>
      </trkpt>
      <trkpt lat="45.09554" lon="6.15356">
        <ele>1803</ele>
        <time>2026-08-09T08:14:02Z</time>
      </trkpt>
      <trkpt lat="45.09556" lon="6.15357">
        <ele>1803.2</ele>
        <time>2026-08-09T08:14:03Z</time>
      </trkpt>
      <trkpt lat="45.09557" lon="6.15357">
        <ele>1803.4</ele>
        <time>2026-08-09T08:14:04Z</time>
      </trkpt>
      <trkpt lat="45.09558" lon="6.15358">
        <ele>1803.6</ele>
        <time>2026-08-09T08:14:05Z</time>
      </trkpt>
      <trkpt lat="45.0956" lon="6.15358">
        <ele>1803.8</ele>
        <time>2026-08-09T08:14:06Z</time>
      </trkpt>
      <trkpt lat="45.09562" lon="6.15359">
        <ele>1804</ele>
        <time>2026-08-09T08:14:08Z</time>
      </trkpt>
      <trkpt lat="45.09563" lon="6.1536">
        <ele>1804.2</ele>
        <time>2026-08-09T08:14:09Z</time>
      </trkpt>
      <trkpt lat="45.09564" lon="6.15361">
        <ele>1804.4</ele>
        <time>2026-08-09T08:14:10Z</time>
      </trkpt>
      <trkpt lat="45.09567" lon="6.15362">
        <ele>1804.4</ele>
        <time>2026-08-09T08:14:12Z</time>
      </trkpt>
      <trkpt lat="45.09568" lon="6.15363">
        <ele>1804.6</ele>
        <time>2026-08-09T08:14:13Z</time>
      </trkpt>
      <trkpt lat="45.0957" lon="6.15363">
        <ele>1804.6</ele>
        <time>2026-08-09T08:14:14Z</time>
      </trkpt>
      <trkpt lat="45.09572" lon="6.15364">
        <ele>1805</ele>
        <time>2026-08-09T08:14:16Z</time>
      </trkpt>
      <trkpt lat="45.09573" lon="6.15365">
        <ele>1805.2</ele>
        <time>2026-08-09T08:14:17Z</time>
      </trkpt>
      <trkpt lat="45.09574" lon="6.15366">
        <ele>1805.4</ele>
        <time>2026-08-09T08:14:18Z</time>
      </trkpt>
      <trkpt lat="45.09576" lon="6.15367">
        <ele>1805.6</ele>
        <time>2026-08-09T08:14:20Z</time>
      </trkpt>
      <trkpt lat="45.09577" lon="6.15368">
        <ele>1806</ele>
        <time>2026-08-09T08:14:22Z</time>
      </trkpt>
      <trkpt lat="45.09579" lon="6.15369">
        <ele>1806.2</ele>
        <time>2026-08-09T08:14:24Z</time>
      </trkpt>
      <trkpt lat="45.09581" lon="6.15369">
        <ele>1806.6</ele>
        <time>2026-08-09T08:14:26Z</time>
      </trkpt>
      <trkpt lat="45.09584" lon="6.1537">
        <ele>1807</ele>
        <time>2026-08-09T08:14:28Z</time>
      </trkpt>
      <trkpt lat="45.09587" lon="6.15371">
        <ele>1807.4</ele>
        <time>2026-08-09T08:14:30Z</time>
      </trkpt>
      <trkpt lat="45.09589" lon="6.15372">
        <ele>1807.6</ele>
        <time>2026-08-09T08:14:32Z</time>
      </trkpt>
      <trkpt lat="45.09591" lon="6.15373">
        <ele>1807.8</ele>
        <time>2026-08-09T08:14:34Z</time>
      </trkpt>
      <trkpt lat="45.09594" lon="6.15373">
        <ele>1808</ele>
        <time>2026-08-09T08:14:36Z</time>
      </trkpt>
      <trkpt lat="45.09597" lon="6.15375">
        <ele>1808.2</ele>
        <time>2026-08-09T08:14:38Z</time>
      </trkpt>
      <trkpt lat="45.096" lon="6.15376">
        <ele>1808.6</ele>
        <time>2026-08-09T08:14:40Z</time>
      </trkpt>
      <trkpt lat="45.09603" lon="6.15378">
        <ele>1808.8</ele>
        <time>2026-08-09T08:14:42Z</time>
      </trkpt>
      <trkpt lat="45.09605" lon="6.1538">
        <ele>1809.2</ele>
        <time>2026-08-09T08:14:44Z</time>
      </trkpt>
      <trkpt lat="45.09607" lon="6.15381">
        <ele>1809.2</ele>
        <time>2026-08-09T08:14:45Z</time>
      </trkpt>
      <trkpt lat="45.09608" lon="6.15382">
        <ele>1809.4</ele>
        <time>2026-08-09T08:14:46Z</time>
      </trkpt>
      <trkpt lat="45.09611" lon="6.15383">
        <ele>1809.6</ele>
        <time>2026-08-09T08:14:48Z</time>
      </trkpt>
      <trkpt lat="45.09614" lon="6.15385">
        <ele>1810</ele>
        <time>2026-08-09T08:14:50Z</time>
      </trkpt>
      <trkpt lat="45.09616" lon="6.15386">
        <ele>1810.4</ele>
        <time>2026-08-09T08:14:52Z</time>
      </trkpt>
      <trkpt lat="45.09617" lon="6.15387">
        <ele>1810.6</ele>
        <time>2026-08-09T08:14:53Z</time>
      </trkpt>
      <trkpt lat="45.09618" lon="6.15388">
        <ele>1810.8</ele>
        <time>2026-08-09T08:14:54Z</time>
      </trkpt>
      <trkpt lat="45.09621" lon="6.1539">
        <ele>1810.8</ele>
        <time>2026-08-09T08:14:56Z</time>
      </trkpt>
      <trkpt lat="45.09623" lon="6.15392">
        <ele>1811.2</ele>
        <time>2026-08-09T08:14:58Z</time>
      </trkpt>
      <trkpt lat="45.09625" lon="6.15393">
        <ele>1811.4</ele>
        <time>2026-08-09T08:15:00Z</time>
      </trkpt>
      <trkpt lat="45.09628" lon="6.15395">
        <ele>1812</ele>
        <time>2026-08-09T08:15:02Z</time>
      </trkpt>
      <trkpt lat="45.0963" lon="6.15396">
        <ele>1812.2</ele>
        <time>2026-08-09T08:15:04Z</time>
      </trkpt>
      <trkpt lat="45.09632" lon="6.15397">
        <ele>1812.4</ele>
        <time>2026-08-09T08:15:06Z</time>
      </trkpt>
      <trkpt lat="45.09635" lon="6.15399">
        <ele>1812.8</ele>
        <time>2026-08-09T08:15:08Z</time>
      </trkpt>
      <trkpt lat="45.09636" lon="6.15399">
        <ele>1812.8</ele>
        <time>2026-08-09T08:15:09Z</time>
      </trkpt>
      <trkpt lat="45.09637" lon="6.154">
        <ele>1812.8</ele>
        <time>2026-08-09T08:15:10Z</time>
      </trkpt>
      <trkpt lat="45.09639" lon="6.15401">
        <ele>1813.2</ele>
        <time>2026-08-09T08:15:12Z</time>
      </trkpt>
      <trkpt lat="45.09641" lon="6.15402">
        <ele>1813.4</ele>
        <time>2026-08-09T08:15:14Z</time>
      </trkpt>
      <trkpt lat="45.09642" lon="6.15403">
        <ele>1813.8</ele>
        <time>2026-08-09T08:15:16Z</time>
      </trkpt>
      <trkpt lat="45.09644" lon="6.15405">
        <ele>1814</ele>
        <time>2026-08-09T08:15:18Z</time>
      </trkpt>
      <trkpt lat="45.09645" lon="6.15405">
        <ele>1814</ele>
        <time>2026-08-09T08:15:19Z</time>
      </trkpt>
      <trkpt lat="45.09646" lon="6.15406">
        <ele>1814.2</ele>
        <time>2026-08-09T08:15:20Z</time>
      </trkpt>
      <trkpt lat="45.09648" lon="6.15407">
        <ele>1814.4</ele>
        <time>2026-08-09T08:15:22Z</time>
      </trkpt>
      <trkpt lat="45.0965" lon="6.15409">
        <ele>1814.6</ele>
        <time>2026-08-09T08:15:24Z</time>
      </trkpt>
      <trkpt lat="45.09652" lon="6.1541">
        <ele>1815</ele>
        <time>2026-08-09T08:15:26Z</time>
      </trkpt>
      <trkpt lat="45.09654" lon="6.15412">
        <ele>1815.2</ele>
        <time>2026-08-09T08:15:28Z</time>
      </trkpt>
      <trkpt lat="45.09656" lon="6.15414">
        <ele>1815.6</ele>
        <time>2026-08-09T08:15:30Z</time>
      </trkpt>
      <trkpt lat="45.09657" lon="6.15415">
        <ele>1815.6</ele>
        <time>2026-08-09T08:15:31Z</time>
      </trkpt>
      <trkpt lat="45.09658" lon="6.15416">
        <ele>1815.8</ele>
        <time>2026-08-09T08:15:32Z</time>
      </trkpt>
      <trkpt lat="45.09661" lon="6.15418">
        <ele>1816.2</ele>
        <time>2026-08-09T08:15:34Z</time>
      </trkpt>
      <trkpt lat="45.09663" lon="6.15419">
        <ele>1816.2</ele>
        <time>2026-08-09T08:15:35Z</time>
      </trkpt>
      <trkpt lat="45.09664" lon="6.1542">
        <ele>1816.2</ele>
        <time>2026-08-09T08:15:36Z</time>
      </trkpt>
      <trkpt lat="45.09665" lon="6.15421">
        <ele>1816.4</ele>
        <time>2026-08-09T08:15:37Z</time>
      </trkpt>
      <trkpt lat="45.09666" lon="6.15422">
        <ele>1816.2</ele>
        <time>2026-08-09T08:15:38Z</time>
      </trkpt>
      <trkpt lat="45.09669" lon="6.15423">
        <ele>1816.6</ele>
        <time>2026-08-09T08:15:40Z</time>
      </trkpt>
      <trkpt lat="45.09672" lon="6.15425">
        <ele>1816.8</ele>
        <time>2026-08-09T08:15:42Z</time>
      </trkpt>
      <trkpt lat="45.09675" lon="6.15426">
        <ele>1817.2</ele>
        <time>2026-08-09T08:15:44Z</time>
      </trkpt>
      <trkpt lat="45.09676" lon="6.15427">
        <ele>1817.4</ele>
        <time>2026-08-09T08:15:45Z</time>
      </trkpt>
      <trkpt lat="45.09678" lon="6.15428">
        <ele>1817.8</ele>
        <time>2026-08-09T08:15:46Z</time>
      </trkpt>
      <trkpt lat="45.09681" lon="6.15429">
        <ele>1818</ele>
        <time>2026-08-09T08:15:48Z</time>
      </trkpt>
      <trkpt lat="45.09682" lon="6.1543">
        <ele>1818.4</ele>
        <time>2026-08-09T08:15:49Z</time>
      </trkpt>
      <trkpt lat="45.09684" lon="6.15431">
        <ele>1818.6</ele>
        <time>2026-08-09T08:15:50Z</time>
      </trkpt>
      <trkpt lat="45.09687" lon="6.15433">
        <ele>1818.8</ele>
        <time>2026-08-09T08:15:52Z</time>
      </trkpt>
      <trkpt lat="45.0969" lon="6.15434">
        <ele>1819.2</ele>
        <time>2026-08-09T08:15:54Z</time>
      </trkpt>
      <trkpt lat="45.09693" lon="6.15435">
        <ele>1819.4</ele>
        <time>2026-08-09T08:15:56Z</time>
      </trkpt>
      <trkpt lat="45.09696" lon="6.15437">
        <ele>1819.8</ele>
        <time>2026-08-09T08:15:58Z</time>
      </trkpt>
      <trkpt lat="45.09699" lon="6.15438">
        <ele>1820.2</ele>
        <time>2026-08-09T08:16:00Z</time>
      </trkpt>
      <trkpt lat="45.097" lon="6.15439">
        <ele>1820.4</ele>
        <time>2026-08-09T08:16:01Z</time>
      </trkpt>
      <trkpt lat="45.09701" lon="6.1544">
        <ele>1820.6</ele>
        <time>2026-08-09T08:16:02Z</time>
      </trkpt>
      <trkpt lat="45.09704" lon="6.15441">
        <ele>1820.6</ele>
        <time>2026-08-09T08:16:04Z</time>
      </trkpt>
      <trkpt lat="45.09707" lon="6.15442">
        <ele>1821</ele>
        <time>2026-08-09T08:16:06Z</time>
      </trkpt>
      <trkpt lat="45.0971" lon="6.15445">
        <ele>1821.2</ele>
        <time>2026-08-09T08:16:08Z</time>
      </trkpt>
      <trkpt lat="45.09712" lon="6.15447">
        <ele>1821.6</ele>
        <time>2026-08-09T08:16:10Z</time>
      </trkpt>
      <trkpt lat="45.09715" lon="6.15449">
        <ele>1822</ele>
        <time>2026-08-09T08:16:12Z</time>
      </trkpt>
      <trkpt lat="45.09718" lon="6.15451">
        <ele>1822.4</ele>
        <time>2026-08-09T08:16:14Z</time>
      </trkpt>
      <trkpt lat="45.0972" lon="6.15454">
        <ele>1822.6</ele>
        <time>2026-08-09T08:16:16Z</time>
      </trkpt>
      <trkpt lat="45.09722" lon="6.15455">
        <ele>1822.8</ele>
        <time>2026-08-09T08:16:17Z</time>
      </trkpt>
      <trkpt lat="45.09723" lon="6.15456">
        <ele>1822.8</ele>
        <time>2026-08-09T08:16:18Z</time>
      </trkpt>
      <trkpt lat="45.09726" lon="6.15456">
        <ele>1823.2</ele>
        <time>2026-08-09T08:16:20Z</time>
      </trkpt>
      <trkpt lat="45.09729" lon="6.15455">
        <ele>1823.4</ele>
        <time>2026-08-09T08:16:22Z</time>
      </trkpt>
      <trkpt lat="45.0973" lon="6.15454">
        <ele>1823.4</ele>
        <time>2026-08-09T08:16:23Z</time>
      </trkpt>
      <trkpt lat="45.09731" lon="6.15454">
        <ele>1823.4</ele>
        <time>2026-08-09T08:16:24Z</time>
      </trkpt>
      <trkpt lat="45.09732" lon="6.15452">
        <ele>1823.6</ele>
        <time>2026-08-09T08:16:25Z</time>
      </trkpt>
      <trkpt lat="45.09732" lon="6.1545">
        <ele>1823.8</ele>
        <time>2026-08-09T08:16:26Z</time>
      </trkpt>
      <trkpt lat="45.09732" lon="6.15446">
        <ele>1824.2</ele>
        <time>2026-08-09T08:16:28Z</time>
      </trkpt>
      <trkpt lat="45.09731" lon="6.15443">
        <ele>1824.2</ele>
        <time>2026-08-09T08:16:30Z</time>
      </trkpt>
      <trkpt lat="45.0973" lon="6.15439">
        <ele>1824.6</ele>
        <time>2026-08-09T08:16:32Z</time>
      </trkpt>
      <trkpt lat="45.09728" lon="6.15435">
        <ele>1824.8</ele>
        <time>2026-08-09T08:16:34Z</time>
      </trkpt>
      <trkpt lat="45.09727" lon="6.15434">
        <ele>1824.8</ele>
        <time>2026-08-09T08:16:35Z</time>
      </trkpt>
      <trkpt lat="45.09725" lon="6.15433">
        <ele>1825</ele>
        <time>2026-08-09T08:16:36Z</time>
      </trkpt>
      <trkpt lat="45.09722" lon="6.15431">
        <ele>1825.2</ele>
        <time>2026-08-09T08:16:38Z</time>
      </trkpt>
      <trkpt lat="45.09719" lon="6.1543">
        <ele>1825.4</ele>
        <time>2026-08-09T08:16:40Z</time>
      </trkpt>
      <trkpt lat="45.09716" lon="6.15428">
        <ele>1825.6</ele>
        <time>2026-08-09T08:16:42Z</time>
      </trkpt>
      <trkpt lat="45.09714" lon="6.15425">
        <ele>1825.8</ele>
        <time>2026-08-09T08:16:44Z</time>
      </trkpt>
      <trkpt lat="45.09711" lon="6.15423">
        <ele>1826.2</ele>
        <time>2026-08-09T08:16:46Z</time>
      </trkpt>
      <trkpt lat="45.09708" lon="6.1542">
        <ele>1826.4</ele>
        <time>2026-08-09T08:16:48Z</time>
      </trkpt>
      <trkpt lat="45.09706" lon="6.15417">
        <ele>1826.6</ele>
        <time>2026-08-09T08:16:50Z</time>
      </trkpt>
      <trkpt lat="45.09703" lon="6.15415">
        <ele>1826.8</ele>
        <time>2026-08-09T08:16:52Z</time>
      </trkpt>
      <trkpt lat="45.09701" lon="6.15412">
        <ele>1827.2</ele>
        <time>2026-08-09T08:16:54Z</time>
      </trkpt>
      <trkpt lat="45.09698" lon="6.1541">
        <ele>1827.6</ele>
        <time>2026-08-09T08:16:56Z</time>
      </trkpt>
      <trkpt lat="45.09696" lon="6.15407">
        <ele>1828</ele>
        <time>2026-08-09T08:16:58Z</time>
      </trkpt>
      <trkpt lat="45.09693" lon="6.15405">
        <ele>1828.2</ele>
        <time>2026-08-09T08:17:00Z</time>
      </trkpt>
      <trkpt lat="45.09692" lon="6.15404">
        <ele>1828.4</ele>
        <time>2026-08-09T08:17:01Z</time>
      </trkpt>
      <trkpt lat="45.09691" lon="6.15403">
        <ele>1828.4</ele>
        <time>2026-08-09T08:17:02Z</time>
      </trkpt>
      <trkpt lat="45.09688" lon="6.15401">
        <ele>1828.6</ele>
        <time>2026-08-09T08:17:04Z</time>
      </trkpt>
      <trkpt lat="45.09687" lon="6.15399">
        <ele>1828.8</ele>
        <time>2026-08-09T08:17:05Z</time>
      </trkpt>
      <trkpt lat="45.09686" lon="6.15398">
        <ele>1829.2</ele>
        <time>2026-08-09T08:17:06Z</time>
      </trkpt>
      <trkpt lat="45.09684" lon="6.15397">
        <ele>1829.2</ele>
        <time>2026-08-09T08:17:07Z</time>
      </trkpt>
      <trkpt lat="45.09683" lon="6.15396">
        <ele>1829.4</ele>
        <time>2026-08-09T08:17:08Z</time>
      </trkpt>
      <trkpt lat="45.09681" lon="6.15393">
        <ele>1829.6</ele>
        <time>2026-08-09T08:17:10Z</time>
      </trkpt>
      <trkpt lat="45.09678" lon="6.1539">
        <ele>1829.8</ele>
        <time>2026-08-09T08:17:12Z</time>
      </trkpt>
      <trkpt lat="45.09676" lon="6.15387">
        <ele>1830.2</ele>
        <time>2026-08-09T08:17:14Z</time>
      </trkpt>
      <trkpt lat="45.09675" lon="6.15386">
        <ele>1830.4</ele>
        <time>2026-08-09T08:17:15Z</time>
      </trkpt>
      <trkpt lat="45.09673" lon="6.15385">
        <ele>1830.4</ele>
        <time>2026-08-09T08:17:16Z</time>
      </trkpt>
      <trkpt lat="45.09672" lon="6.15383">
        <ele>1830.8</ele>
        <time>2026-08-09T08:17:18Z</time>
      </trkpt>
      <trkpt lat="45.0967" lon="6.1538">
        <ele>1831</ele>
        <time>2026-08-09T08:17:20Z</time>
      </trkpt>
      <trkpt lat="45.09669" lon="6.15378">
        <ele>1831.2</ele>
        <time>2026-08-09T08:17:21Z</time>
      </trkpt>
      <trkpt lat="45.09668" lon="6.15376">
        <ele>1831.4</ele>
        <time>2026-08-09T08:17:22Z</time>
      </trkpt>
      <trkpt lat="45.09666" lon="6.15373">
        <ele>1831.6</ele>
        <time>2026-08-09T08:17:24Z</time>
      </trkpt>
      <trkpt lat="45.09664" lon="6.1537">
        <ele>1831.8</ele>
        <time>2026-08-09T08:17:26Z</time>
      </trkpt>
      <trkpt lat="45.09661" lon="6.15367">
        <ele>1832</ele>
        <time>2026-08-09T08:17:28Z</time>
      </trkpt>
      <trkpt lat="45.0966" lon="6.15366">
        <ele>1832</ele>
        <time>2026-08-09T08:17:29Z</time>
      </trkpt>
      <trkpt lat="45.09659" lon="6.15365">
        <ele>1832.2</ele>
        <time>2026-08-09T08:17:30Z</time>
      </trkpt>
      <trkpt lat="45.09657" lon="6.15365">
        <ele>1832.2</ele>
        <time>2026-08-09T08:17:31Z</time>
      </trkpt>
      <trkpt lat="45.09656" lon="6.15364">
        <ele>1832.4</ele>
        <time>2026-08-09T08:17:32Z</time>
      </trkpt>
      <trkpt lat="45.09653" lon="6.15362">
        <ele>1832.6</ele>
        <time>2026-08-09T08:17:34Z</time>
      </trkpt>
      <trkpt lat="45.09651" lon="6.15361">
        <ele>1833</ele>
        <time>2026-08-09T08:17:36Z</time>
      </trkpt>
      <trkpt lat="45.09648" lon="6.15359">
        <ele>1833.2</ele>
        <time>2026-08-09T08:17:38Z</time>
      </trkpt>
      <trkpt lat="45.09647" lon="6.15358">
        <ele>1833.2</ele>
        <time>2026-08-09T08:17:39Z</time>
      </trkpt>
      <trkpt lat="45.09645" lon="6.15357">
        <ele>1833.4</ele>
        <time>2026-08-09T08:17:40Z</time>
      </trkpt>
      <trkpt lat="45.09643" lon="6.15355">
        <ele>1833.4</ele>
        <time>2026-08-09T08:17:42Z</time>
      </trkpt>
      <trkpt lat="45.09641" lon="6.15352">
        <ele>1833.4</ele>
        <time>2026-08-09T08:17:44Z</time>
      </trkpt>
      <trkpt lat="45.09638" lon="6.1535">
        <ele>1833.6</ele>
        <time>2026-08-09T08:17:46Z</time>
      </trkpt>
      <trkpt lat="45.09636" lon="6.15347">
        <ele>1834</ele>
        <time>2026-08-09T08:17:48Z</time>
      </trkpt>
      <trkpt lat="45.09635" lon="6.15346">
        <ele>1834</ele>
        <time>2026-08-09T08:17:49Z</time>
      </trkpt>
      <trkpt lat="45.09634" lon="6.15345">
        <ele>1834.4</ele>
        <time>2026-08-09T08:17:50Z</time>
      </trkpt>
      <trkpt lat="45.09632" lon="6.15343">
        <ele>1834.6</ele>
        <time>2026-08-09T08:17:52Z</time>
      </trkpt>
      <trkpt lat="45.09629" lon="6.1534">
        <ele>1834.6</ele>
        <time>2026-08-09T08:17:54Z</time>
      </trkpt>
      <trkpt lat="45.09627" lon="6.15338">
        <ele>1835.2</ele>
        <time>2026-08-09T08:17:56Z</time>
      </trkpt>
      <trkpt lat="45.09625" lon="6.15336">
        <ele>1835.4</ele>
        <time>2026-08-09T08:17:58Z</time>
      </trkpt>
      <trkpt lat="45.09624" lon="6.15334">
        <ele>1835.4</ele>
        <time>2026-08-09T08:17:59Z</time>
      </trkpt>
      <trkpt lat="45.09623" lon="6.15333">
        <ele>1835.6</ele>
        <time>2026-08-09T08:18:00Z</time>
      </trkpt>
      <trkpt lat="45.0962" lon="6.15331">
        <ele>1835.8</ele>
        <time>2026-08-09T08:18:02Z</time>
      </trkpt>
      <trkpt lat="45.09618" lon="6.15329">
        <ele>1836.2</ele>
        <time>2026-08-09T08:18:04Z</time>
      </trkpt>
      <trkpt lat="45.09615" lon="6.15326">
        <ele>1836.4</ele>
        <time>2026-08-09T08:18:06Z</time>
      </trkpt>
      <trkpt lat="45.09613" lon="6.15324">
        <ele>1836.6</ele>
        <time>2026-08-09T08:18:08Z</time>
      </trkpt>
      <trkpt lat="45.09612" lon="6.15322">
        <ele>1836.8</ele>
        <time>2026-08-09T08:18:09Z</time>
      </trkpt>
      <trkpt lat="45.09611" lon="6.15321">
        <ele>1837</ele>
        <time>2026-08-09T08:18:10Z</time>
      </trkpt>
      <trkpt lat="45.09609" lon="6.1532">
        <ele>1837</ele>
        <time>2026-08-09T08:18:12Z</time>
      </trkpt>
      <trkpt lat="45.09608" lon="6.15318">
        <ele>1837.2</ele>
        <time>2026-08-09T08:18:14Z</time>
      </trkpt>
      <trkpt lat="45.09607" lon="6.15317">
        <ele>1837.4</ele>
        <time>2026-08-09T08:18:15Z</time>
      </trkpt>
      <trkpt lat="45.09606" lon="6.15315">
        <ele>1837.4</ele>
        <time>2026-08-09T08:18:16Z</time>
      </trkpt>
      <trkpt lat="45.09604" lon="6.15313">
        <ele>1837.8</ele>
        <time>2026-08-09T08:18:18Z</time>
      </trkpt>
      <trkpt lat="45.09603" lon="6.15311">
        <ele>1838</ele>
        <time>2026-08-09T08:18:20Z</time>
      </trkpt>
      <trkpt lat="45.09602" lon="6.15309">
        <ele>1838.2</ele>
        <time>2026-08-09T08:18:22Z</time>
      </trkpt>
      <trkpt lat="45.09601" lon="6.15308">
        <ele>1838.4</ele>
        <time>2026-08-09T08:18:23Z</time>
      </trkpt>
      <trkpt lat="45.096" lon="6.15307">
        <ele>1838.6</ele>
        <time>2026-08-09T08:18:24Z</time>
      </trkpt>
      <trkpt lat="45.09599" lon="6.15304">
        <ele>1838.8</ele>
        <time>2026-08-09T08:18:26Z</time>
      </trkpt>
      <trkpt lat="45.09597" lon="6.15302">
        <ele>1839</ele>
        <time>2026-08-09T08:18:28Z</time>
      </trkpt>
      <trkpt lat="45.09596" lon="6.15299">
        <ele>1839.2</ele>
        <time>2026-08-09T08:18:30Z</time>
      </trkpt>
      <trkpt lat="45.09595" lon="6.15298">
        <ele>1839.4</ele>
        <time>2026-08-09T08:18:31Z</time>
      </trkpt>
      <trkpt lat="45.09595" lon="6.15297">
        <ele>1839.6</ele>
        <time>2026-08-09T08:18:32Z</time>
      </trkpt>
      <trkpt lat="45.09594" lon="6.15296">
        <ele>1839.6</ele>
        <time>2026-08-09T08:18:33Z</time>
      </trkpt>
      <trkpt lat="45.09593" lon="6.15294">
        <ele>1839.8</ele>
        <time>2026-08-09T08:18:34Z</time>
      </trkpt>
      <trkpt lat="45.09592" lon="6.15292">
        <ele>1840.2</ele>
        <time>2026-08-09T08:18:36Z</time>
      </trkpt>
      <trkpt lat="45.09591" lon="6.15289">
        <ele>1840.6</ele>
        <time>2026-08-09T08:18:38Z</time>
      </trkpt>
      <trkpt lat="45.09589" lon="6.15286">
        <ele>1840.8</ele>
        <time>2026-08-09T08:18:40Z</time>
      </trkpt>
      <trkpt lat="45.09589" lon="6.15285">
        <ele>1841</ele>
        <time>2026-08-09T08:18:41Z</time>
      </trkpt>
      <trkpt lat="45.09588" lon="6.15284">
        <ele>1841</ele>
        <time>2026-08-09T08:18:42Z</time>
      </trkpt>
      <trkpt lat="45.09587" lon="6.15281">
        <ele>1841</ele>
        <time>2026-08-09T08:18:44Z</time>
      </trkpt>
      <trkpt lat="45.09585" lon="6.15279">
        <ele>1841.6</ele>
        <time>2026-08-09T08:18:46Z</time>
      </trkpt>
      <trkpt lat="45.09584" lon="6.15277">
        <ele>1841.8</ele>
        <time>2026-08-09T08:18:48Z</time>
      </trkpt>
      <trkpt lat="45.09583" lon="6.15275">
        <ele>1842</ele>
        <time>2026-08-09T08:18:50Z</time>
      </trkpt>
      <trkpt lat="45.09581" lon="6.15272">
        <ele>1842.4</ele>
        <time>2026-08-09T08:18:52Z</time>
      </trkpt>
      <trkpt lat="45.09581" lon="6.15272">
        <ele>1842.4</ele>
        <time>2026-08-09T08:18:53Z</time>
      </trkpt>
      <trkpt lat="45.0958" lon="6.1527">
        <ele>1842.6</ele>
        <time>2026-08-09T08:18:54Z</time>
      </trkpt>
      <trkpt lat="45.0958" lon="6.15269">
        <ele>1842.8</ele>
        <time>2026-08-09T08:18:55Z</time>
      </trkpt>
      <trkpt lat="45.09579" lon="6.15268">
        <ele>1842.8</ele>
        <time>2026-08-09T08:18:56Z</time>
      </trkpt>
      <trkpt lat="45.09577" lon="6.15265">
        <ele>1843.2</ele>
        <time>2026-08-09T08:18:58Z</time>
      </trkpt>
      <trkpt lat="45.09575" lon="6.15262">
        <ele>1843.4</ele>
        <time>2026-08-09T08:19:00Z</time>
      </trkpt>
      <trkpt lat="45.09574" lon="6.15261">
        <ele>1843.6</ele>
        <time>2026-08-09T08:19:01Z</time>
      </trkpt>
      <trkpt lat="45.09573" lon="6.1526">
        <ele>1843.6</ele>
        <time>2026-08-09T08:19:02Z</time>
      </trkpt>
      <trkpt lat="45.09572" lon="6.15258">
        <ele>1844</ele>
        <time>2026-08-09T08:19:04Z</time>
      </trkpt>
      <trkpt lat="45.0957" lon="6.15256">
        <ele>1844.2</ele>
        <time>2026-08-09T08:19:06Z</time>
      </trkpt>
      <trkpt lat="45.09568" lon="6.15254">
        <ele>1844.6</ele>
        <time>2026-08-09T08:19:08Z</time>
      </trkpt>
      <trkpt lat="45.09566" lon="6.15252">
        <ele>1844.8</ele>
        <time>2026-08-09T08:19:10Z</time>
      </trkpt>
      <trkpt lat="45.09564" lon="6.15251">
        <ele>1845</ele>
        <time>2026-08-09T08:19:12Z</time>
      </trkpt>
      <trkpt lat="45.09563" lon="6.15248">
        <ele>1845.2</ele>
        <time>2026-08-09T08:19:14Z</time>
      </trkpt>
      <trkpt lat="45.09561" lon="6.15246">
        <ele>1845.2</ele>
        <time>2026-08-09T08:19:16Z</time>
      </trkpt>
      <trkpt lat="45.09559" lon="6.15244">
        <ele>1845.6</ele>
        <time>2026-08-09T08:19:18Z</time>
      </trkpt>
      <trkpt lat="45.09557" lon="6.15242">
        <ele>1846</ele>
        <time>2026-08-09T08:19:20Z</time>
      </trkpt>
      <trkpt lat="45.09555" lon="6.15239">
        <ele>1846.4</ele>
        <time>2026-08-09T08:19:22Z</time>
      </trkpt>
      <trkpt lat="45.09553" lon="6.15237">
        <ele>1846.6</ele>
        <time>2026-08-09T08:19:24Z</time>
      </trkpt>
      <trkpt lat="45.09552" lon="6.15236">
        <ele>1846.8</ele>
        <time>2026-08-09T08:19:25Z</time>
      </trkpt>
      <trkpt lat="45.09551" lon="6.15234">
        <ele>1847</ele>
        <time>2026-08-09T08:19:26Z</time>
      </trkpt>
      <trkpt lat="45.09549" lon="6.15231">
        <ele>1847.4</ele>
        <time>2026-08-09T08:19:28Z</time>
      </trkpt>
      <trkpt lat="45.09546" lon="6.15228">
        <ele>1847.6</ele>
        <time>2026-08-09T08:19:30Z</time>
      </trkpt>
      <trkpt lat="45.09544" lon="6.15225">
        <ele>1848</ele>
        <time>2026-08-09T08:19:32Z</time>
      </trkpt>
      <trkpt lat="45.09543" lon="6.15224">
        <ele>1848</ele>
        <time>2026-08-09T08:19:33Z</time>
      </trkpt>
      <trkpt lat="45.09542" lon="6.15222">
        <ele>1848</ele>
        <time>2026-08-09T08:19:34Z</time>
      </trkpt>
      <trkpt lat="45.0954" lon="6.1522">
        <ele>1848.4</ele>
        <time>2026-08-09T08:19:36Z</time>
      </trkpt>
      <trkpt lat="45.09538" lon="6.15217">
        <ele>1848.8</ele>
        <time>2026-08-09T08:19:38Z</time>
      </trkpt>
      <trkpt lat="45.09537" lon="6.15216">
        <ele>1849</ele>
        <time>2026-08-09T08:19:39Z</time>
      </trkpt>
      <trkpt lat="45.09536" lon="6.15214">
        <ele>1849</ele>
        <time>2026-08-09T08:19:40Z</time>
      </trkpt>
      <trkpt lat="45.09534" lon="6.1521">
        <ele>1849.2</ele>
        <time>2026-08-09T08:19:42Z</time>
      </trkpt>
      <trkpt lat="45.09533" lon="6.15209">
        <ele>1849.2</ele>
        <time>2026-08-09T08:19:43Z</time>
      </trkpt>
      <trkpt lat="45.09532" lon="6.15207">
        <ele>1849.6</ele>
        <time>2026-08-09T08:19:44Z</time>
      </trkpt>
      <trkpt lat="45.09529" lon="6.15204">
        <ele>1850</ele>
        <time>2026-08-09T08:19:46Z</time>
      </trkpt>
      <trkpt lat="45.09527" lon="6.15202">
        <ele>1850.4</ele>
        <time>2026-08-09T08:19:48Z</time>
      </trkpt>
      <trkpt lat="45.09525" lon="6.15199">
        <ele>1850.8</ele>
        <time>2026-08-09T08:19:50Z</time>
      </trkpt>
      <trkpt lat="45.09523" lon="6.15196">
        <ele>1851</ele>
        <time>2026-08-09T08:19:52Z</time>
      </trkpt>
      <trkpt lat="45.09522" lon="6.15195">
        <ele>1851</ele>
        <time>2026-08-09T08:19:53Z</time>
      </trkpt>
      <trkpt lat="45.09521" lon="6.15194">
        <ele>1851.2</ele>
        <time>2026-08-09T08:19:54Z</time>
      </trkpt>
      <trkpt lat="45.09518" lon="6.15191">
        <ele>1851.8</ele>
        <time>2026-08-09T08:19:56Z</time>
      </trkpt>
      <trkpt lat="45.09516" lon="6.15189">
        <ele>1852</ele>
        <time>2026-08-09T08:19:58Z</time>
      </trkpt>
      <trkpt lat="45.09513" lon="6.15187">
        <ele>1852.2</ele>
        <time>2026-08-09T08:20:00Z</time>
      </trkpt>
      <trkpt lat="45.09511" lon="6.15186">
        <ele>1852.4</ele>
        <time>2026-08-09T08:20:02Z</time>
      </trkpt>
      <trkpt lat="45.09508" lon="6.15184">
        <ele>1852.8</ele>
        <time>2026-08-09T08:20:04Z</time>
      </trkpt>
      <trkpt lat="45.09505" lon="6.15183">
        <ele>1853</ele>
        <time>2026-08-09T08:20:06Z</time>
      </trkpt>
      <trkpt lat="45.09503" lon="6.15182">
        <ele>1853.4</ele>
        <time>2026-08-09T08:20:08Z</time>
      </trkpt>
      <trkpt lat="45.095" lon="6.15181">
        <ele>1853.8</ele>
        <time>2026-08-09T08:20:10Z</time>
      </trkpt>
      <trkpt lat="45.09497" lon="6.15181">
        <ele>1853.8</ele>
        <time>2026-08-09T08:20:12Z</time>
      </trkpt>
      <trkpt lat="45.09495" lon="6.1518">
        <ele>1854.4</ele>
        <time>2026-08-09T08:20:14Z</time>
      </trkpt>
      <trkpt lat="45.09492" lon="6.15179">
        <ele>1854.4</ele>
        <time>2026-08-09T08:20:16Z</time>
      </trkpt>
      <trkpt lat="45.09489" lon="6.15178">
        <ele>1854.6</ele>
        <time>2026-08-09T08:20:18Z</time>
      </trkpt>
      <trkpt lat="45.09488" lon="6.15178">
        <ele>1854.8</ele>
        <time>2026-08-09T08:20:19Z</time>
      </trkpt>
      <trkpt lat="45.09487" lon="6.15177">
        <ele>1855</ele>
        <time>2026-08-09T08:20:20Z</time>
      </trkpt>
      <trkpt lat="45.09486" lon="6.15177">
        <ele>1855.2</ele>
        <time>2026-08-09T08:20:21Z</time>
      </trkpt>
      <trkpt lat="45.09484" lon="6.15176">
        <ele>1855.4</ele>
        <time>2026-08-09T08:20:22Z</time>
      </trkpt>
      <trkpt lat="45.09481" lon="6.15175">
        <ele>1855.8</ele>
        <time>2026-08-09T08:20:24Z</time>
      </trkpt>
      <trkpt lat="45.09479" lon="6.15173">
        <ele>1856</ele>
        <time>2026-08-09T08:20:26Z</time>
      </trkpt>
      <trkpt lat="45.09478" lon="6.15172">
        <ele>1856.2</ele>
        <time>2026-08-09T08:20:27Z</time>
      </trkpt>
      <trkpt lat="45.09477" lon="6.15171">
        <ele>1856.2</ele>
        <time>2026-08-09T08:20:28Z</time>
      </trkpt>
      <trkpt lat="45.09475" lon="6.1517">
        <ele>1856.2</ele>
        <time>2026-08-09T08:20:29Z</time>
      </trkpt>
      <trkpt lat="45.09474" lon="6.15169">
        <ele>1856.4</ele>
        <time>2026-08-09T08:20:30Z</time>
      </trkpt>
      <trkpt lat="45.09472" lon="6.15167">
        <ele>1856.4</ele>
        <time>2026-08-09T08:20:32Z</time>
      </trkpt>
      <trkpt lat="45.09469" lon="6.15165">
        <ele>1856.6</ele>
        <time>2026-08-09T08:20:34Z</time>
      </trkpt>
      <trkpt lat="45.09468" lon="6.15164">
        <ele>1856.8</ele>
        <time>2026-08-09T08:20:35Z</time>
      </trkpt>
      <trkpt lat="45.09467" lon="6.15163">
        <ele>1857</ele>
        <time>2026-08-09T08:20:36Z</time>
      </trkpt>
      <trkpt lat="45.09465" lon="6.1516">
        <ele>1857.6</ele>
        <time>2026-08-09T08:20:38Z</time>
      </trkpt>
      <trkpt lat="45.09463" lon="6.15158">
        <ele>1857.8</ele>
        <time>2026-08-09T08:20:40Z</time>
      </trkpt>
      <trkpt lat="45.09462" lon="6.15157">
        <ele>1858</ele>
        <time>2026-08-09T08:20:41Z</time>
      </trkpt>
      <trkpt lat="45.09461" lon="6.15156">
        <ele>1858.2</ele>
        <time>2026-08-09T08:20:42Z</time>
      </trkpt>
      <trkpt lat="45.09458" lon="6.15154">
        <ele>1858.6</ele>
        <time>2026-08-09T08:20:44Z</time>
      </trkpt>
      <trkpt lat="45.09455" lon="6.15153">
        <ele>1858.8</ele>
        <time>2026-08-09T08:20:46Z</time>
      </trkpt>
      <trkpt lat="45.09452" lon="6.15153">
        <ele>1859</ele>
        <time>2026-08-09T08:20:48Z</time>
      </trkpt>
      <trkpt lat="45.09451" lon="6.15152">
        <ele>1859.4</ele>
        <time>2026-08-09T08:20:49Z</time>
      </trkpt>
      <trkpt lat="45.09449" lon="6.15152">
        <ele>1859.6</ele>
        <time>2026-08-09T08:20:50Z</time>
      </trkpt>
      <trkpt lat="45.09446" lon="6.15152">
        <ele>1859.8</ele>
        <time>2026-08-09T08:20:52Z</time>
      </trkpt>
      <trkpt lat="45.09444" lon="6.15151">
        <ele>1859.8</ele>
        <time>2026-08-09T08:20:54Z</time>
      </trkpt>
      <trkpt lat="45.09441" lon="6.1515">
        <ele>1860</ele>
        <time>2026-08-09T08:20:56Z</time>
      </trkpt>
      <trkpt lat="45.0944" lon="6.1515">
        <ele>1860.2</ele>
        <time>2026-08-09T08:20:57Z</time>
      </trkpt>
      <trkpt lat="45.09438" lon="6.15149">
        <ele>1860.2</ele>
        <time>2026-08-09T08:20:58Z</time>
      </trkpt>
      <trkpt lat="45.09435" lon="6.15148">
        <ele>1860.4</ele>
        <time>2026-08-09T08:21:00Z</time>
      </trkpt>
      <trkpt lat="45.09434" lon="6.15148">
        <ele>1860.6</ele>
        <time>2026-08-09T08:21:01Z</time>
      </trkpt>
      <trkpt lat="45.09433" lon="6.15147">
        <ele>1860.8</ele>
        <time>2026-08-09T08:21:02Z</time>
      </trkpt>
      <trkpt lat="45.0943" lon="6.15146">
        <ele>1861.2</ele>
        <time>2026-08-09T08:21:04Z</time>
      </trkpt>
      <trkpt lat="45.09429" lon="6.15145">
        <ele>1861.2</ele>
        <time>2026-08-09T08:21:05Z</time>
      </trkpt>
      <trkpt lat="45.09428" lon="6.15145">
        <ele>1861.4</ele>
        <time>2026-08-09T08:21:06Z</time>
      </trkpt>
      <trkpt lat="45.09425" lon="6.15144">
        <ele>1861.6</ele>
        <time>2026-08-09T08:21:08Z</time>
      </trkpt>
      <trkpt lat="45.09424" lon="6.15143">
        <ele>1861.6</ele>
        <time>2026-08-09T08:21:09Z</time>
      </trkpt>
      <trkpt lat="45.09423" lon="6.15142">
        <ele>1861.8</ele>
        <time>2026-08-09T08:21:10Z</time>
      </trkpt>
      <trkpt lat="45.09421" lon="6.15141">
        <ele>1862.2</ele>
        <time>2026-08-09T08:21:11Z</time>
      </trkpt>
      <trkpt lat="45.0942" lon="6.1514">
        <ele>1862.4</ele>
        <time>2026-08-09T08:21:12Z</time>
      </trkpt>
      <trkpt lat="45.09418" lon="6.15138">
        <ele>1862.8</ele>
        <time>2026-08-09T08:21:14Z</time>
      </trkpt>
      <trkpt lat="45.09415" lon="6.15136">
        <ele>1863</ele>
        <time>2026-08-09T08:21:16Z</time>
      </trkpt>
      <trkpt lat="45.09414" lon="6.15135">
        <ele>1863.2</ele>
        <time>2026-08-09T08:21:17Z</time>
      </trkpt>
      <trkpt lat="45.09413" lon="6.15134">
        <ele>1863.2</ele>
        <time>2026-08-09T08:21:18Z</time>
      </trkpt>
      <trkpt lat="45.09411" lon="6.15131">
        <ele>1863.6</ele>
        <time>2026-08-09T08:21:20Z</time>
      </trkpt>
      <trkpt lat="45.09409" lon="6.15128">
        <ele>1863.8</ele>
        <time>2026-08-09T08:21:22Z</time>
      </trkpt>
      <trkpt lat="45.09407" lon="6.15125">
        <ele>1864.2</ele>
        <time>2026-08-09T08:21:24Z</time>
      </trkpt>
      <trkpt lat="45.09406" lon="6.15123">
        <ele>1864.2</ele>
        <time>2026-08-09T08:21:25Z</time>
      </trkpt>
      <trkpt lat="45.09405" lon="6.15122">
        <ele>1864.4</ele>
        <time>2026-08-09T08:21:26Z</time>
      </trkpt>
      <trkpt lat="45.09403" lon="6.15119">
        <ele>1864.6</ele>
        <time>2026-08-09T08:21:28Z</time>
      </trkpt>
      <trkpt lat="45.09401" lon="6.15116">
        <ele>1864.8</ele>
        <time>2026-08-09T08:21:30Z</time>
      </trkpt>
      <trkpt lat="45.09399" lon="6.15113">
        <ele>1865.2</ele>
        <time>2026-08-09T08:21:32Z</time>
      </trkpt>
      <trkpt lat="45.09397" lon="6.15112">
        <ele>1865.4</ele>
        <time>2026-08-09T08:21:33Z</time>
      </trkpt>
      <trkpt lat="45.09396" lon="6.15111">
        <ele>1865.4</ele>
        <time>2026-08-09T08:21:34Z</time>
      </trkpt>
      <trkpt lat="45.09394" lon="6.15109">
        <ele>1865.6</ele>
        <time>2026-08-09T08:21:36Z</time>
      </trkpt>
      <trkpt lat="45.09391" lon="6.15107">
        <ele>1866</ele>
        <time>2026-08-09T08:21:38Z</time>
      </trkpt>
      <trkpt lat="45.09388" lon="6.15107">
        <ele>1866.2</ele>
        <time>2026-08-09T08:21:40Z</time>
      </trkpt>
      <trkpt lat="45.09385" lon="6.15107">
        <ele>1866.6</ele>
        <time>2026-08-09T08:21:42Z</time>
      </trkpt>
      <trkpt lat="45.09382" lon="6.15108">
        <ele>1866.8</ele>
        <time>2026-08-09T08:21:44Z</time>
      </trkpt>
      <trkpt lat="45.09379" lon="6.15108">
        <ele>1867</ele>
        <time>2026-08-09T08:21:46Z</time>
      </trkpt>
      <trkpt lat="45.09375" lon="6.15111">
        <ele>1867.4</ele>
        <time>2026-08-09T08:21:48Z</time>
      </trkpt>
      <trkpt lat="45.09372" lon="6.15113">
        <ele>1867.6</ele>
        <time>2026-08-09T08:21:50Z</time>
      </trkpt>
      <trkpt lat="45.09368" lon="6.15116">
        <ele>1867.8</ele>
        <time>2026-08-09T08:21:52Z</time>
      </trkpt>
      <trkpt lat="45.09364" lon="6.15117">
        <ele>1868</ele>
        <time>2026-08-09T08:21:54Z</time>
      </trkpt>
      <trkpt lat="45.0936" lon="6.15116">
        <ele>1868</ele>
        <time>2026-08-09T08:21:56Z</time>
      </trkpt>
      <trkpt lat="45.09357" lon="6.15115">
        <ele>1868.2</ele>
        <time>2026-08-09T08:21:58Z</time>
      </trkpt>
      <trkpt lat="45.09354" lon="6.15113">
        <ele>1868.2</ele>
        <time>2026-08-09T08:22:00Z</time>
      </trkpt>
      <trkpt lat="45.09351" lon="6.1511">
        <ele>1868.2</ele>
        <time>2026-08-09T08:22:02Z</time>
      </trkpt>
      <trkpt lat="45.09349" lon="6.15107">
        <ele>1868.2</ele>
        <time>2026-08-09T08:22:04Z</time>
      </trkpt>
      <trkpt lat="45.09348" lon="6.15106">
        <ele>1868.2</ele>
        <time>2026-08-09T08:22:05Z</time>
      </trkpt>
      <trkpt lat="45.09347" lon="6.15104">
        <ele>1868.4</ele>
        <time>2026-08-09T08:22:06Z</time>
      </trkpt>
      <trkpt lat="45.09345" lon="6.15101">
        <ele>1868.8</ele>
        <time>2026-08-09T08:22:08Z</time>
      </trkpt>
      <trkpt lat="45.09344" lon="6.15097">
        <ele>1869</ele>
        <time>2026-08-09T08:22:10Z</time>
      </trkpt>
      <trkpt lat="45.09341" lon="6.15093">
        <ele>1869.4</ele>
        <time>2026-08-09T08:22:12Z</time>
      </trkpt>
      <trkpt lat="45.09339" lon="6.15089">
        <ele>1869.6</ele>
        <time>2026-08-09T08:22:14Z</time>
      </trkpt>
      <trkpt lat="45.09337" lon="6.15087">
        <ele>1870</ele>
        <time>2026-08-09T08:22:16Z</time>
      </trkpt>
      <trkpt lat="45.09334" lon="6.15085">
        <ele>1870.4</ele>
        <time>2026-08-09T08:22:18Z</time>
      </trkpt>
      <trkpt lat="45.09332" lon="6.15085">
        <ele>1870.4</ele>
        <time>2026-08-09T08:22:19Z</time>
      </trkpt>
      <trkpt lat="45.09331" lon="6.15085">
        <ele>1870.8</ele>
        <time>2026-08-09T08:22:20Z</time>
      </trkpt>
      <trkpt lat="45.09327" lon="6.15084">
        <ele>1871.2</ele>
        <time>2026-08-09T08:22:22Z</time>
      </trkpt>
      <trkpt lat="45.09324" lon="6.15084">
        <ele>1871.2</ele>
        <time>2026-08-09T08:22:24Z</time>
      </trkpt>
      <trkpt lat="45.09321" lon="6.15085">
        <ele>1871.4</ele>
        <time>2026-08-09T08:22:26Z</time>
      </trkpt>
      <trkpt lat="45.09318" lon="6.15085">
        <ele>1871.6</ele>
        <time>2026-08-09T08:22:28Z</time>
      </trkpt>
      <trkpt lat="45.09315" lon="6.15086">
        <ele>1871.8</ele>
        <time>2026-08-09T08:22:30Z</time>
      </trkpt>
      <trkpt lat="45.09312" lon="6.15087">
        <ele>1872</ele>
        <time>2026-08-09T08:22:32Z</time>
      </trkpt>
      <trkpt lat="45.0931" lon="6.15087">
        <ele>1872.2</ele>
        <time>2026-08-09T08:22:33Z</time>
      </trkpt>
      <trkpt lat="45.09308" lon="6.15087">
        <ele>1872.2</ele>
        <time>2026-08-09T08:22:34Z</time>
      </trkpt>
      <trkpt lat="45.09307" lon="6.15086">
        <ele>1872.4</ele>
        <time>2026-08-09T08:22:35Z</time>
      </trkpt>
      <trkpt lat="45.09305" lon="6.15085">
        <ele>1872.4</ele>
        <time>2026-08-09T08:22:36Z</time>
      </trkpt>
      <trkpt lat="45.09303" lon="6.15083">
        <ele>1873</ele>
        <time>2026-08-09T08:22:38Z</time>
      </trkpt>
      <trkpt lat="45.09302" lon="6.15082">
        <ele>1873.4</ele>
        <time>2026-08-09T08:22:39Z</time>
      </trkpt>
      <trkpt lat="45.09301" lon="6.1508">
        <ele>1873.6</ele>
        <time>2026-08-09T08:22:40Z</time>
      </trkpt>
      <trkpt lat="45.09299" lon="6.15077">
        <ele>1874</ele>
        <time>2026-08-09T08:22:42Z</time>
      </trkpt>
      <trkpt lat="45.09297" lon="6.15074">
        <ele>1874.2</ele>
        <time>2026-08-09T08:22:44Z</time>
      </trkpt>
      <trkpt lat="45.09296" lon="6.15073">
        <ele>1874.4</ele>
        <time>2026-08-09T08:22:45Z</time>
      </trkpt>
      <trkpt lat="45.09295" lon="6.15071">
        <ele>1874.6</ele>
        <time>2026-08-09T08:22:46Z</time>
      </trkpt>
      <trkpt lat="45.09294" lon="6.15069">
        <ele>1874.6</ele>
        <time>2026-08-09T08:22:47Z</time>
      </trkpt>
      <trkpt lat="45.09293" lon="6.15068">
        <ele>1874.8</ele>
        <time>2026-08-09T08:22:48Z</time>
      </trkpt>
      <trkpt lat="45.0929" lon="6.15066">
        <ele>1875.2</ele>
        <time>2026-08-09T08:22:50Z</time>
      </trkpt>
      <trkpt lat="45.09288" lon="6.15065">
        <ele>1875.4</ele>
        <time>2026-08-09T08:22:51Z</time>
      </trkpt>
      <trkpt lat="45.09287" lon="6.15063">
        <ele>1875.8</ele>
        <time>2026-08-09T08:22:52Z</time>
      </trkpt>
      <trkpt lat="45.09284" lon="6.15061">
        <ele>1876.4</ele>
        <time>2026-08-09T08:22:54Z</time>
      </trkpt>
      <trkpt lat="45.09282" lon="6.15061">
        <ele>1876.6</ele>
        <time>2026-08-09T08:22:55Z</time>
      </trkpt>
      <trkpt lat="45.09281" lon="6.1506">
        <ele>1876.8</ele>
        <time>2026-08-09T08:22:56Z</time>
      </trkpt>
      <trkpt lat="45.09277" lon="6.1506">
        <ele>1877.2</ele>
        <time>2026-08-09T08:22:58Z</time>
      </trkpt>
      <trkpt lat="45.09273" lon="6.15059">
        <ele>1877.6</ele>
        <time>2026-08-09T08:23:00Z</time>
      </trkpt>
      <trkpt lat="45.0927" lon="6.15059">
        <ele>1878</ele>
        <time>2026-08-09T08:23:02Z</time>
      </trkpt>
      <trkpt lat="45.09266" lon="6.1506">
        <ele>1878.2</ele>
        <time>2026-08-09T08:23:04Z</time>
      </trkpt>
      <trkpt lat="45.09263" lon="6.15061">
        <ele>1878.4</ele>
        <time>2026-08-09T08:23:06Z</time>
      </trkpt>
      <trkpt lat="45.09259" lon="6.15063">
        <ele>1878.4</ele>
        <time>2026-08-09T08:23:08Z</time>
      </trkpt>
      <trkpt lat="45.09256" lon="6.15064">
        <ele>1878.6</ele>
        <time>2026-08-09T08:23:10Z</time>
      </trkpt>
      <trkpt lat="45.09253" lon="6.15065">
        <ele>1879</ele>
        <time>2026-08-09T08:23:12Z</time>
      </trkpt>
      <trkpt lat="45.09249" lon="6.15066">
        <ele>1879.2</ele>
        <time>2026-08-09T08:23:14Z</time>
      </trkpt>
      <trkpt lat="45.09246" lon="6.15066">
        <ele>1879.2</ele>
        <time>2026-08-09T08:23:16Z</time>
      </trkpt>
      <trkpt lat="45.09242" lon="6.15065">
        <ele>1879.6</ele>
        <time>2026-08-09T08:23:18Z</time>
      </trkpt>
      <trkpt lat="45.09239" lon="6.15065">
        <ele>1879.8</ele>
        <time>2026-08-09T08:23:20Z</time>
      </trkpt>
      <trkpt lat="45.09236" lon="6.15064">
        <ele>1880.2</ele>
        <time>2026-08-09T08:23:22Z</time>
      </trkpt>
      <trkpt lat="45.09233" lon="6.15062">
        <ele>1880.6</ele>
        <time>2026-08-09T08:23:24Z</time>
      </trkpt>
      <trkpt lat="45.09232" lon="6.1506">
        <ele>1880.8</ele>
        <time>2026-08-09T08:23:25Z</time>
      </trkpt>
      <trkpt lat="45.0923" lon="6.15059">
        <ele>1880.8</ele>
        <time>2026-08-09T08:23:26Z</time>
      </trkpt>
      <trkpt lat="45.09228" lon="6.15057">
        <ele>1881</ele>
        <time>2026-08-09T08:23:28Z</time>
      </trkpt>
      <trkpt lat="45.09225" lon="6.15054">
        <ele>1881.2</ele>
        <time>2026-08-09T08:23:30Z</time>
      </trkpt>
      <trkpt lat="45.09222" lon="6.15052">
        <ele>1881.6</ele>
        <time>2026-08-09T08:23:32Z</time>
      </trkpt>
      <trkpt lat="45.09221" lon="6.15051">
        <ele>1881.8</ele>
        <time>2026-08-09T08:23:33Z</time>
      </trkpt>
      <trkpt lat="45.09219" lon="6.1505">
        <ele>1882</ele>
        <time>2026-08-09T08:23:34Z</time>
      </trkpt>
      <trkpt lat="45.09215" lon="6.15049">
        <ele>1882.4</ele>
        <time>2026-08-09T08:23:36Z</time>
      </trkpt>
      <trkpt lat="45.09213" lon="6.15048">
        <ele>1882.6</ele>
        <time>2026-08-09T08:23:37Z</time>
      </trkpt>
      <trkpt lat="45.09211" lon="6.15048">
        <ele>1882.8</ele>
        <time>2026-08-09T08:23:38Z</time>
      </trkpt>
      <trkpt lat="45.09208" lon="6.15048">
        <ele>1883.2</ele>
        <time>2026-08-09T08:23:40Z</time>
      </trkpt>
      <trkpt lat="45.09204" lon="6.15047">
        <ele>1883.2</ele>
        <time>2026-08-09T08:23:42Z</time>
      </trkpt>
      <trkpt lat="45.09201" lon="6.15045">
        <ele>1883.6</ele>
        <time>2026-08-09T08:23:44Z</time>
      </trkpt>
      <trkpt lat="45.09198" lon="6.15042">
        <ele>1884</ele>
        <time>2026-08-09T08:23:46Z</time>
      </trkpt>
      <trkpt lat="45.09196" lon="6.15039">
        <ele>1884.2</ele>
        <time>2026-08-09T08:23:48Z</time>
      </trkpt>
      <trkpt lat="45.09195" lon="6.15036">
        <ele>1884.2</ele>
        <time>2026-08-09T08:23:49Z</time>
      </trkpt>
      <trkpt lat="45.09195" lon="6.15034">
        <ele>1884.4</ele>
        <time>2026-08-09T08:23:50Z</time>
      </trkpt>
      <trkpt lat="45.09193" lon="6.1503">
        <ele>1884.8</ele>
        <time>2026-08-09T08:23:52Z</time>
      </trkpt>
      <trkpt lat="45.09192" lon="6.15028">
        <ele>1885</ele>
        <time>2026-08-09T08:23:53Z</time>
      </trkpt>
      <trkpt lat="45.09191" lon="6.15026">
        <ele>1885</ele>
        <time>2026-08-09T08:23:54Z</time>
      </trkpt>
      <trkpt lat="45.0919" lon="6.15021">
        <ele>1885.4</ele>
        <time>2026-08-09T08:23:56Z</time>
      </trkpt>
      <trkpt lat="45.09189" lon="6.15019">
        <ele>1885.4</ele>
        <time>2026-08-09T08:23:57Z</time>
      </trkpt>
      <trkpt lat="45.09189" lon="6.15017">
        <ele>1885.6</ele>
        <time>2026-08-09T08:23:58Z</time>
      </trkpt>
      <trkpt lat="45.09188" lon="6.15012">
        <ele>1885.8</ele>
        <time>2026-08-09T08:24:00Z</time>
      </trkpt>
      <trkpt lat="45.09187" lon="6.1501">
        <ele>1886</ele>
        <time>2026-08-09T08:24:01Z</time>
      </trkpt>
      <trkpt lat="45.09187" lon="6.15009">
        <ele>1886.2</ele>
        <time>2026-08-09T08:24:02Z</time>
      </trkpt>
      <trkpt lat="45.09186" lon="6.15005">
        <ele>1886.6</ele>
        <time>2026-08-09T08:24:04Z</time>
      </trkpt>
      <trkpt lat="45.09185" lon="6.15003">
        <ele>1886.8</ele>
        <time>2026-08-09T08:24:05Z</time>
      </trkpt>
      <trkpt lat="45.09185" lon="6.15001">
        <ele>1887</ele>
        <time>2026-08-09T08:24:06Z</time>
      </trkpt>
      <trkpt lat="45.09183" lon="6.14997">
        <ele>1887.4</ele>
        <time>2026-08-09T08:24:08Z</time>
      </trkpt>
      <trkpt lat="45.09182" lon="6.14994">
        <ele>1887.6</ele>
        <time>2026-08-09T08:24:10Z</time>
      </trkpt>
      <trkpt lat="45.0918" lon="6.1499">
        <ele>1887.8</ele>
        <time>2026-08-09T08:24:12Z</time>
      </trkpt>
      <trkpt lat="45.09179" lon="6.14988">
        <ele>1887.8</ele>
        <time>2026-08-09T08:24:13Z</time>
      </trkpt>
      <trkpt lat="45.09179" lon="6.14986">
        <ele>1888</ele>
        <time>2026-08-09T08:24:14Z</time>
      </trkpt>
      <trkpt lat="45.09178" lon="6.14985">
        <ele>1888.2</ele>
        <time>2026-08-09T08:24:15Z</time>
      </trkpt>
      <trkpt lat="45.09177" lon="6.14983">
        <ele>1888.4</ele>
        <time>2026-08-09T08:24:16Z</time>
      </trkpt>
      <trkpt lat="45.09176" lon="6.14979">
        <ele>1888.6</ele>
        <time>2026-08-09T08:24:18Z</time>
      </trkpt>
      <trkpt lat="45.09174" lon="6.14976">
        <ele>1889</ele>
        <time>2026-08-09T08:24:20Z</time>
      </trkpt>
      <trkpt lat="45.09173" lon="6.14974">
        <ele>1889</ele>
        <time>2026-08-09T08:24:21Z</time>
      </trkpt>
      <trkpt lat="45.09172" lon="6.14973">
        <ele>1889.2</ele>
        <time>2026-08-09T08:24:22Z</time>
      </trkpt>
      <trkpt lat="45.0917" lon="6.14969">
        <ele>1889.6</ele>
        <time>2026-08-09T08:24:24Z</time>
      </trkpt>
      <trkpt lat="45.09168" lon="6.14966">
        <ele>1890</ele>
        <time>2026-08-09T08:24:26Z</time>
      </trkpt>
      <trkpt lat="45.09168" lon="6.14964">
        <ele>1890.2</ele>
        <time>2026-08-09T08:24:27Z</time>
      </trkpt>
      <trkpt lat="45.09167" lon="6.14962">
        <ele>1890.4</ele>
        <time>2026-08-09T08:24:28Z</time>
      </trkpt>
      <trkpt lat="45.09166" lon="6.14961">
        <ele>1890.6</ele>
        <time>2026-08-09T08:24:29Z</time>
      </trkpt>
      <trkpt lat="45.09164" lon="6.14959">
        <ele>1891</ele>
        <time>2026-08-09T08:24:30Z</time>
      </trkpt>
      <trkpt lat="45.09163" lon="6.14958">
        <ele>1891.2</ele>
        <time>2026-08-09T08:24:31Z</time>
      </trkpt>
      <trkpt lat="45.09162" lon="6.14957">
        <ele>1891.4</ele>
        <time>2026-08-09T08:24:32Z</time>
      </trkpt>
      <trkpt lat="45.09159" lon="6.14954">
        <ele>1891.6</ele>
        <time>2026-08-09T08:24:34Z</time>
      </trkpt>
      <trkpt lat="45.09157" lon="6.14952">
        <ele>1892.2</ele>
        <time>2026-08-09T08:24:36Z</time>
      </trkpt>
      <trkpt lat="45.09155" lon="6.14951">
        <ele>1892.4</ele>
        <time>2026-08-09T08:24:37Z</time>
      </trkpt>
      <trkpt lat="45.09154" lon="6.1495">
        <ele>1892.6</ele>
        <time>2026-08-09T08:24:38Z</time>
      </trkpt>
      <trkpt lat="45.09152" lon="6.14949">
        <ele>1893</ele>
        <time>2026-08-09T08:24:40Z</time>
      </trkpt>
      <trkpt lat="45.09149" lon="6.14947">
        <ele>1893.2</ele>
        <time>2026-08-09T08:24:42Z</time>
      </trkpt>
      <trkpt lat="45.09147" lon="6.14944">
        <ele>1893.4</ele>
        <time>2026-08-09T08:24:44Z</time>
      </trkpt>
      <trkpt lat="45.09145" lon="6.14943">
        <ele>1893.6</ele>
        <time>2026-08-09T08:24:45Z</time>
      </trkpt>
      <trkpt lat="45.09144" lon="6.14942">
        <ele>1894</ele>
        <time>2026-08-09T08:24:46Z</time>
      </trkpt>
      <trkpt lat="45.09143" lon="6.14939">
        <ele>1894.4</ele>
        <time>2026-08-09T08:24:48Z</time>
      </trkpt>
      <trkpt lat="45.09142" lon="6.14937">
        <ele>1894.6</ele>
        <time>2026-08-09T08:24:49Z</time>
      </trkpt>
      <trkpt lat="45.09141" lon="6.14936">
        <ele>1894.8</ele>
        <time>2026-08-09T08:24:50Z</time>
      </trkpt>
      <trkpt lat="45.09139" lon="6.14935">
        <ele>1895</ele>
        <time>2026-08-09T08:24:51Z</time>
      </trkpt>
      <trkpt lat="45.09138" lon="6.14934">
        <ele>1895.4</ele>
        <time>2026-08-09T08:24:52Z</time>
      </trkpt>
      <trkpt lat="45.09137" lon="6.14931">
        <ele>1895.6</ele>
        <time>2026-08-09T08:24:54Z</time>
      </trkpt>
      <trkpt lat="45.09136" lon="6.14929">
        <ele>1895.8</ele>
        <time>2026-08-09T08:24:55Z</time>
      </trkpt>
      <trkpt lat="45.09135" lon="6.14928">
        <ele>1896.2</ele>
        <time>2026-08-09T08:24:56Z</time>
      </trkpt>
      <trkpt lat="45.09133" lon="6.14925">
        <ele>1896.6</ele>
        <time>2026-08-09T08:24:58Z</time>
      </trkpt>
      <trkpt lat="45.09132" lon="6.14923">
        <ele>1896.8</ele>
        <time>2026-08-09T08:24:59Z</time>
      </trkpt>
      <trkpt lat="45.09131" lon="6.14922">
        <ele>1896.8</ele>
        <time>2026-08-09T08:25:00Z</time>
      </trkpt>
      <trkpt lat="45.0913" lon="6.14919">
        <ele>1897.4</ele>
        <time>2026-08-09T08:25:02Z</time>
      </trkpt>
      <trkpt lat="45.09127" lon="6.14917">
        <ele>1897.6</ele>
        <time>2026-08-09T08:25:04Z</time>
      </trkpt>
      <trkpt lat="45.09126" lon="6.14916">
        <ele>1897.8</ele>
        <time>2026-08-09T08:25:05Z</time>
      </trkpt>
      <trkpt lat="45.09125" lon="6.14915">
        <ele>1898</ele>
        <time>2026-08-09T08:25:06Z</time>
      </trkpt>
      <trkpt lat="45.09123" lon="6.14912">
        <ele>1898.4</ele>
        <time>2026-08-09T08:25:08Z</time>
      </trkpt>
      <trkpt lat="45.09121" lon="6.1491">
        <ele>1898.8</ele>
        <time>2026-08-09T08:25:10Z</time>
      </trkpt>
      <trkpt lat="45.0912" lon="6.14909">
        <ele>1898.6</ele>
        <time>2026-08-09T08:25:11Z</time>
      </trkpt>
      <trkpt lat="45.09119" lon="6.14909">
        <ele>1898.8</ele>
        <time>2026-08-09T08:25:12Z</time>
      </trkpt>
      <trkpt lat="45.09118" lon="6.14908">
        <ele>1899</ele>
        <time>2026-08-09T08:25:13Z</time>
      </trkpt>
      <trkpt lat="45.09117" lon="6.14907">
        <ele>1899</ele>
        <time>2026-08-09T08:25:14Z</time>
      </trkpt>
      <trkpt lat="45.09115" lon="6.14905">
        <ele>1899.6</ele>
        <time>2026-08-09T08:25:16Z</time>
      </trkpt>
      <trkpt lat="45.09113" lon="6.14904">
        <ele>1899.6</ele>
        <time>2026-08-09T08:25:17Z</time>
      </trkpt>
      <trkpt lat="45.09112" lon="6.14903">
        <ele>1899.8</ele>
        <time>2026-08-09T08:25:18Z</time>
      </trkpt>
      <trkpt lat="45.09109" lon="6.14901">
        <ele>1900.2</ele>
        <time>2026-08-09T08:25:20Z</time>
      </trkpt>
      <trkpt lat="45.09107" lon="6.149">
        <ele>1900.4</ele>
        <time>2026-08-09T08:25:21Z</time>
      </trkpt>
      <trkpt lat="45.09106" lon="6.14899">
        <ele>1900.4</ele>
        <time>2026-08-09T08:25:22Z</time>
      </trkpt>
      <trkpt lat="45.09103" lon="6.14897">
        <ele>1900.6</ele>
        <time>2026-08-09T08:25:24Z</time>
      </trkpt>
      <trkpt lat="45.09102" lon="6.14896">
        <ele>1900.8</ele>
        <time>2026-08-09T08:25:25Z</time>
      </trkpt>
      <trkpt lat="45.091" lon="6.14895">
        <ele>1900.6</ele>
        <time>2026-08-09T08:25:26Z</time>
      </trkpt>
      <trkpt lat="45.09096" lon="6.14894">
        <ele>1901</ele>
        <time>2026-08-09T08:25:28Z</time>
      </trkpt>
      <trkpt lat="45.09093" lon="6.14894">
        <ele>1901.4</ele>
        <time>2026-08-09T08:25:30Z</time>
      </trkpt>
      <trkpt lat="45.0909" lon="6.14893">
        <ele>1901.6</ele>
        <time>2026-08-09T08:25:32Z</time>
      </trkpt>
      <trkpt lat="45.09086" lon="6.14893">
        <ele>1901.8</ele>
        <time>2026-08-09T08:25:34Z</time>
      </trkpt>
      <trkpt lat="45.09084" lon="6.14894">
        <ele>1901.8</ele>
        <time>2026-08-09T08:25:35Z</time>
      </trkpt>
      <trkpt lat="45.09083" lon="6.14895">
        <ele>1901.8</ele>
        <time>2026-08-09T08:25:36Z</time>
      </trkpt>
      <trkpt lat="45.09079" lon="6.14897">
        <ele>1902</ele>
        <time>2026-08-09T08:25:38Z</time>
      </trkpt>
      <trkpt lat="45.09076" lon="6.14899">
        <ele>1902.2</ele>
        <time>2026-08-09T08:25:40Z</time>
      </trkpt>
      <trkpt lat="45.09073" lon="6.14901">
        <ele>1902.4</ele>
        <time>2026-08-09T08:25:42Z</time>
      </trkpt>
      <trkpt lat="45.09071" lon="6.14902">
        <ele>1902.4</ele>
        <time>2026-08-09T08:25:43Z</time>
      </trkpt>
      <trkpt lat="45.09069" lon="6.14903">
        <ele>1902.6</ele>
        <time>2026-08-09T08:25:44Z</time>
      </trkpt>
      <trkpt lat="45.09066" lon="6.14905">
        <ele>1902.8</ele>
        <time>2026-08-09T08:25:46Z</time>
      </trkpt>
      <trkpt lat="45.09063" lon="6.14907">
        <ele>1903</ele>
        <time>2026-08-09T08:25:48Z</time>
      </trkpt>
      <trkpt lat="45.09059" lon="6.14908">
        <ele>1903</ele>
        <time>2026-08-09T08:25:50Z</time>
      </trkpt>
      <trkpt lat="45.09056" lon="6.14909">
        <ele>1903.2</ele>
        <time>2026-08-09T08:25:52Z</time>
      </trkpt>
      <trkpt lat="45.09054" lon="6.1491">
        <ele>1903.2</ele>
        <time>2026-08-09T08:25:53Z</time>
      </trkpt>
      <trkpt lat="45.09053" lon="6.1491">
        <ele>1903.4</ele>
        <time>2026-08-09T08:25:54Z</time>
      </trkpt>
      <trkpt lat="45.09049" lon="6.14911">
        <ele>1903.8</ele>
        <time>2026-08-09T08:25:56Z</time>
      </trkpt>
      <trkpt lat="45.09046" lon="6.14912">
        <ele>1904.2</ele>
        <time>2026-08-09T08:25:58Z</time>
      </trkpt>
      <trkpt lat="45.09042" lon="6.14913">
        <ele>1904.2</ele>
        <time>2026-08-09T08:26:00Z</time>
      </trkpt>
      <trkpt lat="45.09038" lon="6.14913">
        <ele>1904.6</ele>
        <time>2026-08-09T08:26:02Z</time>
      </trkpt>
      <trkpt lat="45.09035" lon="6.14914">
        <ele>1905</ele>
        <time>2026-08-09T08:26:04Z</time>
      </trkpt>
      <trkpt lat="45.09033" lon="6.14914">
        <ele>1905.2</ele>
        <time>2026-08-09T08:26:05Z</time>
      </trkpt>
      <trkpt lat="45.09032" lon="6.14915">
        <ele>1905.4</ele>
        <time>2026-08-09T08:26:06Z</time>
      </trkpt>
      <trkpt lat="45.09029" lon="6.14917">
        <ele>1905.8</ele>
        <time>2026-08-09T08:26:08Z</time>
      </trkpt>
      <trkpt lat="45.09025" lon="6.14919">
        <ele>1906</ele>
        <time>2026-08-09T08:26:10Z</time>
      </trkpt>
      <trkpt lat="45.09022" lon="6.14921">
        <ele>1906.2</ele>
        <time>2026-08-09T08:26:12Z</time>
      </trkpt>
      <trkpt lat="45.09021" lon="6.14923">
        <ele>1906.2</ele>
        <time>2026-08-09T08:26:13Z</time>
      </trkpt>
      <trkpt lat="45.09019" lon="6.14924">
        <ele>1906.4</ele>
        <time>2026-08-09T08:26:14Z</time>
      </trkpt>
      <trkpt lat="45.09017" lon="6.14927">
        <ele>1906.6</ele>
        <time>2026-08-09T08:26:16Z</time>
      </trkpt>
      <trkpt lat="45.09015" lon="6.14931">
        <ele>1906.8</ele>
        <time>2026-08-09T08:26:18Z</time>
      </trkpt>
      <trkpt lat="45.09013" lon="6.14935">
        <ele>1907.2</ele>
        <time>2026-08-09T08:26:20Z</time>
      </trkpt>
      <trkpt lat="45.09012" lon="6.14936">
        <ele>1907.2</ele>
        <time>2026-08-09T08:26:21Z</time>
      </trkpt>
      <trkpt lat="45.09011" lon="6.14938">
        <ele>1907.4</ele>
        <time>2026-08-09T08:26:22Z</time>
      </trkpt>
      <trkpt lat="45.09009" lon="6.14941">
        <ele>1907.8</ele>
        <time>2026-08-09T08:26:24Z</time>
      </trkpt>
      <trkpt lat="45.09008" lon="6.14944">
        <ele>1908.2</ele>
        <time>2026-08-09T08:26:26Z</time>
      </trkpt>
      <trkpt lat="45.09007" lon="6.14945">
        <ele>1908.2</ele>
        <time>2026-08-09T08:26:27Z</time>
      </trkpt>
      <trkpt lat="45.09007" lon="6.14946">
        <ele>1908.6</ele>
        <time>2026-08-09T08:26:28Z</time>
      </trkpt>
      <trkpt lat="45.09004" lon="6.14949">
        <ele>1909.2</ele>
        <time>2026-08-09T08:26:30Z</time>
      </trkpt>
      <trkpt lat="45.09003" lon="6.1495">
        <ele>1909.4</ele>
        <time>2026-08-09T08:26:31Z</time>
      </trkpt>
      <trkpt lat="45.09002" lon="6.1495">
        <ele>1909.6</ele>
        <time>2026-08-09T08:26:32Z</time>
      </trkpt>
      <trkpt lat="45.08999" lon="6.14951">
        <ele>1910</ele>
        <time>2026-08-09T08:26:34Z</time>
      </trkpt>
      <trkpt lat="45.08998" lon="6.14951">
        <ele>1910</ele>
        <time>2026-08-09T08:26:35Z</time>
      </trkpt>
      <trkpt lat="45.08997" lon="6.14951">
        <ele>1910</ele>
        <time>2026-08-09T08:26:36Z</time>
      </trkpt>
      <trkpt lat="45.08995" lon="6.14949">
        <ele>1910.4</ele>
        <time>2026-08-09T08:26:38Z</time>
      </trkpt>
      <trkpt lat="45.08993" lon="6.14945">
        <ele>1910.8</ele>
        <time>2026-08-09T08:26:40Z</time>
      </trkpt>
      <trkpt lat="45.08993" lon="6.14941">
        <ele>1911.2</ele>
        <time>2026-08-09T08:26:42Z</time>
      </trkpt>
      <trkpt lat="45.08993" lon="6.14937">
        <ele>1911.6</ele>
        <time>2026-08-09T08:26:44Z</time>
      </trkpt>
      <trkpt lat="45.08994" lon="6.14935">
        <ele>1911.6</ele>
        <time>2026-08-09T08:26:45Z</time>
      </trkpt>
      <trkpt lat="45.08994" lon="6.14933">
        <ele>1911.8</ele>
        <time>2026-08-09T08:26:46Z</time>
      </trkpt>
      <trkpt lat="45.08995" lon="6.14929">
        <ele>1912.4</ele>
        <time>2026-08-09T08:26:48Z</time>
      </trkpt>
      <trkpt lat="45.08996" lon="6.14926">
        <ele>1913</ele>
        <time>2026-08-09T08:26:50Z</time>
      </trkpt>
      <trkpt lat="45.08997" lon="6.14925">
        <ele>1913.4</ele>
        <time>2026-08-09T08:26:51Z</time>
      </trkpt>
      <trkpt lat="45.08998" lon="6.14923">
        <ele>1913.6</ele>
        <time>2026-08-09T08:26:52Z</time>
      </trkpt>
      <trkpt lat="45.09" lon="6.14919">
        <ele>1914.2</ele>
        <time>2026-08-09T08:26:54Z</time>
      </trkpt>
      <trkpt lat="45.09002" lon="6.14917">
        <ele>1914.8</ele>
        <time>2026-08-09T08:26:56Z</time>
      </trkpt>
      <trkpt lat="45.09003" lon="6.14915">
        <ele>1915</ele>
        <time>2026-08-09T08:26:58Z</time>
      </trkpt>
      <trkpt lat="45.09005" lon="6.14912">
        <ele>1915.6</ele>
        <time>2026-08-09T08:27:00Z</time>
      </trkpt>
      <trkpt lat="45.09006" lon="6.14911">
        <ele>1915.8</ele>
        <time>2026-08-09T08:27:01Z</time>
      </trkpt>
      <trkpt lat="45.09006" lon="6.1491">
        <ele>1915.8</ele>
        <time>2026-08-09T08:27:02Z</time>
      </trkpt>
      <trkpt lat="45.09008" lon="6.14908">
        <ele>1916.2</ele>
        <time>2026-08-09T08:27:04Z</time>
      </trkpt>
      <trkpt lat="45.09009" lon="6.14906">
        <ele>1916.4</ele>
        <time>2026-08-09T08:27:06Z</time>
      </trkpt>
      <trkpt lat="45.0901" lon="6.14905">
        <ele>1916.6</ele>
        <time>2026-08-09T08:27:07Z</time>
      </trkpt>
      <trkpt lat="45.09011" lon="6.14904">
        <ele>1916.8</ele>
        <time>2026-08-09T08:27:08Z</time>
      </trkpt>
      <trkpt lat="45.09013" lon="6.14902">
        <ele>1917</ele>
        <time>2026-08-09T08:27:10Z</time>
      </trkpt>
      <trkpt lat="45.09014" lon="6.14899">
        <ele>1917.2</ele>
        <time>2026-08-09T08:27:12Z</time>
      </trkpt>
      <trkpt lat="45.09015" lon="6.14897">
        <ele>1917.2</ele>
        <time>2026-08-09T08:27:13Z</time>
      </trkpt>
      <trkpt lat="45.09017" lon="6.14896">
        <ele>1917.2</ele>
        <time>2026-08-09T08:27:14Z</time>
      </trkpt>
      <trkpt lat="45.0902" lon="6.14893">
        <ele>1917.6</ele>
        <time>2026-08-09T08:27:16Z</time>
      </trkpt>
      <trkpt lat="45.09021" lon="6.14892">
        <ele>1917.8</ele>
        <time>2026-08-09T08:27:17Z</time>
      </trkpt>
      <trkpt lat="45.09022" lon="6.14891">
        <ele>1918</ele>
        <time>2026-08-09T08:27:18Z</time>
      </trkpt>
      <trkpt lat="45.09024" lon="6.14889">
        <ele>1918.4</ele>
        <time>2026-08-09T08:27:20Z</time>
      </trkpt>
      <trkpt lat="45.09027" lon="6.14888">
        <ele>1918.8</ele>
        <time>2026-08-09T08:27:22Z</time>
      </trkpt>
      <trkpt lat="45.09028" lon="6.14887">
        <ele>1919</ele>
        <time>2026-08-09T08:27:23Z</time>
      </trkpt>
      <trkpt lat="45.09029" lon="6.14886">
        <ele>1919.2</ele>
        <time>2026-08-09T08:27:24Z</time>
      </trkpt>
      <trkpt lat="45.09032" lon="6.14884">
        <ele>1919.4</ele>
        <time>2026-08-09T08:27:26Z</time>
      </trkpt>
      <trkpt lat="45.09034" lon="6.14882">
        <ele>1919.6</ele>
        <time>2026-08-09T08:27:28Z</time>
      </trkpt>
      <trkpt lat="45.09036" lon="6.1488">
        <ele>1919.8</ele>
        <time>2026-08-09T08:27:30Z</time>
      </trkpt>
      <trkpt lat="45.09039" lon="6.14878">
        <ele>1920</ele>
        <time>2026-08-09T08:27:32Z</time>
      </trkpt>
      <trkpt lat="45.09041" lon="6.14875">
        <ele>1920.2</ele>
        <time>2026-08-09T08:27:34Z</time>
      </trkpt>
      <trkpt lat="45.09042" lon="6.14871">
        <ele>1920.6</ele>
        <time>2026-08-09T08:27:36Z</time>
      </trkpt>
      <trkpt lat="45.09041" lon="6.14869">
        <ele>1920.6</ele>
        <time>2026-08-09T08:27:37Z</time>
      </trkpt>
      <trkpt lat="45.09041" lon="6.14867">
        <ele>1920.8</ele>
        <time>2026-08-09T08:27:38Z</time>
      </trkpt>
      <trkpt lat="45.0904" lon="6.14865">
        <ele>1921</ele>
        <time>2026-08-09T08:27:39Z</time>
      </trkpt>
      <trkpt lat="45.09038" lon="6.14864">
        <ele>1921.2</ele>
        <time>2026-08-09T08:27:40Z</time>
      </trkpt>
      <trkpt lat="45.09035" lon="6.14863">
        <ele>1921.4</ele>
        <time>2026-08-09T08:27:42Z</time>
      </trkpt>
      <trkpt lat="45.09032" lon="6.14863">
        <ele>1921.4</ele>
        <time>2026-08-09T08:27:44Z</time>
      </trkpt>
      <trkpt lat="45.09031" lon="6.14864">
        <ele>1921.4</ele>
        <time>2026-08-09T08:27:45Z</time>
      </trkpt>
      <trkpt lat="45.09029" lon="6.14865">
        <ele>1921.6</ele>
        <time>2026-08-09T08:27:46Z</time>
      </trkpt>
      <trkpt lat="45.09026" lon="6.14867">
        <ele>1921.6</ele>
        <time>2026-08-09T08:27:48Z</time>
      </trkpt>
      <trkpt lat="45.09023" lon="6.14869">
        <ele>1921.8</ele>
        <time>2026-08-09T08:27:50Z</time>
      </trkpt>
      <trkpt lat="45.09022" lon="6.14871">
        <ele>1921.8</ele>
        <time>2026-08-09T08:27:51Z</time>
      </trkpt>
      <trkpt lat="45.0902" lon="6.14871">
        <ele>1922</ele>
        <time>2026-08-09T08:27:52Z</time>
      </trkpt>
      <trkpt lat="45.09017" lon="6.14874">
        <ele>1922.6</ele>
        <time>2026-08-09T08:27:54Z</time>
      </trkpt>
      <trkpt lat="45.09015" lon="6.14877">
        <ele>1922.8</ele>
        <time>2026-08-09T08:27:56Z</time>
      </trkpt>
      <trkpt lat="45.09013" lon="6.14878">
        <ele>1923</ele>
        <time>2026-08-09T08:27:57Z</time>
      </trkpt>
      <trkpt lat="45.09011" lon="6.14879">
        <ele>1923.2</ele>
        <time>2026-08-09T08:27:58Z</time>
      </trkpt>
      <trkpt lat="45.09008" lon="6.14881">
        <ele>1923.6</ele>
        <time>2026-08-09T08:28:00Z</time>
      </trkpt>
      <trkpt lat="45.09004" lon="6.14883">
        <ele>1924</ele>
        <time>2026-08-09T08:28:02Z</time>
      </trkpt>
      <trkpt lat="45.09003" lon="6.14883">
        <ele>1924</ele>
        <time>2026-08-09T08:28:03Z</time>
      </trkpt>
      <trkpt lat="45.09001" lon="6.14884">
        <ele>1924</ele>
        <time>2026-08-09T08:28:04Z</time>
      </trkpt>
      <trkpt lat="45.08998" lon="6.14886">
        <ele>1924.2</ele>
        <time>2026-08-09T08:28:06Z</time>
      </trkpt>
      <trkpt lat="45.08996" lon="6.14888">
        <ele>1924.4</ele>
        <time>2026-08-09T08:28:07Z</time>
      </trkpt>
      <trkpt lat="45.08995" lon="6.14889">
        <ele>1924.6</ele>
        <time>2026-08-09T08:28:08Z</time>
      </trkpt>
      <trkpt lat="45.08992" lon="6.14891">
        <ele>1924.8</ele>
        <time>2026-08-09T08:28:10Z</time>
      </trkpt>
      <trkpt lat="45.08991" lon="6.14892">
        <ele>1925</ele>
        <time>2026-08-09T08:28:11Z</time>
      </trkpt>
      <trkpt lat="45.08989" lon="6.14893">
        <ele>1925.2</ele>
        <time>2026-08-09T08:28:12Z</time>
      </trkpt>
      <trkpt lat="45.08988" lon="6.14894">
        <ele>1925.4</ele>
        <time>2026-08-09T08:28:13Z</time>
      </trkpt>
      <trkpt lat="45.08986" lon="6.14895">
        <ele>1925.6</ele>
        <time>2026-08-09T08:28:14Z</time>
      </trkpt>
      <trkpt lat="45.08984" lon="6.14897">
        <ele>1925.6</ele>
        <time>2026-08-09T08:28:16Z</time>
      </trkpt>
      <trkpt lat="45.08982" lon="6.14898">
        <ele>1925.8</ele>
        <time>2026-08-09T08:28:17Z</time>
      </trkpt>
      <trkpt lat="45.0898" lon="6.14899">
        <ele>1926</ele>
        <time>2026-08-09T08:28:18Z</time>
      </trkpt>
      <trkpt lat="45.08977" lon="6.14902">
        <ele>1926.2</ele>
        <time>2026-08-09T08:28:20Z</time>
      </trkpt>
      <trkpt lat="45.08976" lon="6.14903">
        <ele>1926.2</ele>
        <time>2026-08-09T08:28:21Z</time>
      </trkpt>
      <trkpt lat="45.08975" lon="6.14904">
        <ele>1926.4</ele>
        <time>2026-08-09T08:28:22Z</time>
      </trkpt>
      <trkpt lat="45.08972" lon="6.14907">
        <ele>1926.6</ele>
        <time>2026-08-09T08:28:24Z</time>
      </trkpt>
      <trkpt lat="45.0897" lon="6.1491">
        <ele>1926.8</ele>
        <time>2026-08-09T08:28:26Z</time>
      </trkpt>
      <trkpt lat="45.08968" lon="6.14912">
        <ele>1926.8</ele>
        <time>2026-08-09T08:28:27Z</time>
      </trkpt>
      <trkpt lat="45.08967" lon="6.14913">
        <ele>1927</ele>
        <time>2026-08-09T08:28:28Z</time>
      </trkpt>
      <trkpt lat="45.08966" lon="6.14914">
        <ele>1927.4</ele>
        <time>2026-08-09T08:28:29Z</time>
      </trkpt>
      <trkpt lat="45.08965" lon="6.14915">
        <ele>1927.4</ele>
        <time>2026-08-09T08:28:30Z</time>
      </trkpt>
      <trkpt lat="45.08962" lon="6.14918">
        <ele>1927.8</ele>
        <time>2026-08-09T08:28:32Z</time>
      </trkpt>
      <trkpt lat="45.0896" lon="6.1492">
        <ele>1928.2</ele>
        <time>2026-08-09T08:28:34Z</time>
      </trkpt>
      <trkpt lat="45.08957" lon="6.14922">
        <ele>1928.6</ele>
        <time>2026-08-09T08:28:36Z</time>
      </trkpt>
      <trkpt lat="45.08955" lon="6.14923">
        <ele>1929</ele>
        <time>2026-08-09T08:28:37Z</time>
      </trkpt>
      <trkpt lat="45.08954" lon="6.14924">
        <ele>1929.2</ele>
        <time>2026-08-09T08:28:38Z</time>
      </trkpt>
      <trkpt lat="45.08951" lon="6.14925">
        <ele>1929.4</ele>
        <time>2026-08-09T08:28:40Z</time>
      </trkpt>
      <trkpt lat="45.08947" lon="6.14926">
        <ele>1929.6</ele>
        <time>2026-08-09T08:28:42Z</time>
      </trkpt>
      <trkpt lat="45.08944" lon="6.14926">
        <ele>1929.8</ele>
        <time>2026-08-09T08:28:44Z</time>
      </trkpt>
      <trkpt lat="45.08943" lon="6.14925">
        <ele>1930</ele>
        <time>2026-08-09T08:28:45Z</time>
      </trkpt>
      <trkpt lat="45.08941" lon="6.14925">
        <ele>1930.2</ele>
        <time>2026-08-09T08:28:46Z</time>
      </trkpt>
      <trkpt lat="45.08938" lon="6.14924">
        <ele>1930.6</ele>
        <time>2026-08-09T08:28:48Z</time>
      </trkpt>
      <trkpt lat="45.08934" lon="6.14923">
        <ele>1930.8</ele>
        <time>2026-08-09T08:28:50Z</time>
      </trkpt>
      <trkpt lat="45.08933" lon="6.14922">
        <ele>1931</ele>
        <time>2026-08-09T08:28:51Z</time>
      </trkpt>
      <trkpt lat="45.08931" lon="6.14921">
        <ele>1931.2</ele>
        <time>2026-08-09T08:28:52Z</time>
      </trkpt>
      <trkpt lat="45.08928" lon="6.14919">
        <ele>1931.6</ele>
        <time>2026-08-09T08:28:54Z</time>
      </trkpt>
      <trkpt lat="45.08924" lon="6.14918">
        <ele>1931.6</ele>
        <time>2026-08-09T08:28:56Z</time>
      </trkpt>
      <trkpt lat="45.08921" lon="6.14917">
        <ele>1931.6</ele>
        <time>2026-08-09T08:28:58Z</time>
      </trkpt>
      <trkpt lat="45.08917" lon="6.14917">
        <ele>1932</ele>
        <time>2026-08-09T08:29:00Z</time>
      </trkpt>
      <trkpt lat="45.08913" lon="6.14916">
        <ele>1932.2</ele>
        <time>2026-08-09T08:29:02Z</time>
      </trkpt>
      <trkpt lat="45.0891" lon="6.14917">
        <ele>1932.4</ele>
        <time>2026-08-09T08:29:04Z</time>
      </trkpt>
      <trkpt lat="45.08906" lon="6.14918">
        <ele>1932.6</ele>
        <time>2026-08-09T08:29:06Z</time>
      </trkpt>
      <trkpt lat="45.08902" lon="6.14919">
        <ele>1932.8</ele>
        <time>2026-08-09T08:29:08Z</time>
      </trkpt>
      <trkpt lat="45.089" lon="6.1492">
        <ele>1932.8</ele>
        <time>2026-08-09T08:29:09Z</time>
      </trkpt>
      <trkpt lat="45.08899" lon="6.1492">
        <ele>1933</ele>
        <time>2026-08-09T08:29:10Z</time>
      </trkpt>
      <trkpt lat="45.08896" lon="6.14922">
        <ele>1933.2</ele>
        <time>2026-08-09T08:29:12Z</time>
      </trkpt>
      <trkpt lat="45.08893" lon="6.14925">
        <ele>1933.4</ele>
        <time>2026-08-09T08:29:14Z</time>
      </trkpt>
      <trkpt lat="45.0889" lon="6.14928">
        <ele>1934</ele>
        <time>2026-08-09T08:29:16Z</time>
      </trkpt>
      <trkpt lat="45.08888" lon="6.1493">
        <ele>1934</ele>
        <time>2026-08-09T08:29:17Z</time>
      </trkpt>
      <trkpt lat="45.08887" lon="6.14931">
        <ele>1934.2</ele>
        <time>2026-08-09T08:29:18Z</time>
      </trkpt>
      <trkpt lat="45.08884" lon="6.14934">
        <ele>1934.6</ele>
        <time>2026-08-09T08:29:20Z</time>
      </trkpt>
      <trkpt lat="45.08881" lon="6.14938">
        <ele>1934.8</ele>
        <time>2026-08-09T08:29:22Z</time>
      </trkpt>
      <trkpt lat="45.08878" lon="6.14941">
        <ele>1935.4</ele>
        <time>2026-08-09T08:29:24Z</time>
      </trkpt>
      <trkpt lat="45.08874" lon="6.14943">
        <ele>1935.8</ele>
        <time>2026-08-09T08:29:26Z</time>
      </trkpt>
      <trkpt lat="45.08872" lon="6.14943">
        <ele>1936</ele>
        <time>2026-08-09T08:29:27Z</time>
      </trkpt>
      <trkpt lat="45.0887" lon="6.14944">
        <ele>1936.2</ele>
        <time>2026-08-09T08:29:28Z</time>
      </trkpt>
      <trkpt lat="45.08869" lon="6.14944">
        <ele>1936.4</ele>
        <time>2026-08-09T08:29:29Z</time>
      </trkpt>
      <trkpt lat="45.08867" lon="6.14944">
        <ele>1936.6</ele>
        <time>2026-08-09T08:29:30Z</time>
      </trkpt>
      <trkpt lat="45.08862" lon="6.14944">
        <ele>1936.6</ele>
        <time>2026-08-09T08:29:32Z</time>
      </trkpt>
      <trkpt lat="45.08857" lon="6.14944">
        <ele>1936.8</ele>
        <time>2026-08-09T08:29:34Z</time>
      </trkpt>
      <trkpt lat="45.08853" lon="6.14943">
        <ele>1936.8</ele>
        <time>2026-08-09T08:29:36Z</time>
      </trkpt>
      <trkpt lat="45.0885" lon="6.14942">
        <ele>1937.2</ele>
        <time>2026-08-09T08:29:38Z</time>
      </trkpt>
      <trkpt lat="45.08847" lon="6.1494">
        <ele>1937.4</ele>
        <time>2026-08-09T08:29:40Z</time>
      </trkpt>
      <trkpt lat="45.08845" lon="6.1494">
        <ele>1937.4</ele>
        <time>2026-08-09T08:29:41Z</time>
      </trkpt>
      <trkpt lat="45.08844" lon="6.14939">
        <ele>1937.6</ele>
        <time>2026-08-09T08:29:42Z</time>
      </trkpt>
      <trkpt lat="45.08841" lon="6.14938">
        <ele>1938.2</ele>
        <time>2026-08-09T08:29:44Z</time>
      </trkpt>
      <trkpt lat="45.08838" lon="6.14937">
        <ele>1938.4</ele>
        <time>2026-08-09T08:29:46Z</time>
      </trkpt>
      <trkpt lat="45.08835" lon="6.14936">
        <ele>1939.2</ele>
        <time>2026-08-09T08:29:48Z</time>
      </trkpt>
      <trkpt lat="45.08833" lon="6.14935">
        <ele>1939.4</ele>
        <time>2026-08-09T08:29:49Z</time>
      </trkpt>
      <trkpt lat="45.08832" lon="6.14934">
        <ele>1939.6</ele>
        <time>2026-08-09T08:29:50Z</time>
      </trkpt>
      <trkpt lat="45.08829" lon="6.14933">
        <ele>1940</ele>
        <time>2026-08-09T08:29:52Z</time>
      </trkpt>
      <trkpt lat="45.08826" lon="6.14931">
        <ele>1940.4</ele>
        <time>2026-08-09T08:29:54Z</time>
      </trkpt>
      <trkpt lat="45.08823" lon="6.1493">
        <ele>1940.8</ele>
        <time>2026-08-09T08:29:56Z</time>
      </trkpt>
      <trkpt lat="45.0882" lon="6.14928">
        <ele>1941</ele>
        <time>2026-08-09T08:29:58Z</time>
      </trkpt>
      <trkpt lat="45.08818" lon="6.14927">
        <ele>1941.2</ele>
        <time>2026-08-09T08:29:59Z</time>
      </trkpt>
      <trkpt lat="45.08816" lon="6.14926">
        <ele>1941.4</ele>
        <time>2026-08-09T08:30:00Z</time>
      </trkpt>
      <trkpt lat="45.08815" lon="6.14925">
        <ele>1941.6</ele>
        <time>2026-08-09T08:30:01Z</time>
      </trkpt>
      <trkpt lat="45.08813" lon="6.14924">
        <ele>1941.8</ele>
        <time>2026-08-09T08:30:02Z</time>
      </trkpt>
      <trkpt lat="45.0881" lon="6.14922">
        <ele>1942</ele>
        <time>2026-08-09T08:30:04Z</time>
      </trkpt>
      <trkpt lat="45.08806" lon="6.14921">
        <ele>1942.2</ele>
        <time>2026-08-09T08:30:06Z</time>
      </trkpt>
      <trkpt lat="45.08803" lon="6.1492">
        <ele>1942.4</ele>
        <time>2026-08-09T08:30:08Z</time>
      </trkpt>
      <trkpt lat="45.088" lon="6.14918">
        <ele>1942.8</ele>
        <time>2026-08-09T08:30:10Z</time>
      </trkpt>
      <trkpt lat="45.08798" lon="6.14917">
        <ele>1943.2</ele>
        <time>2026-08-09T08:30:12Z</time>
      </trkpt>
      <trkpt lat="45.08795" lon="6.14915">
        <ele>1943.6</ele>
        <time>2026-08-09T08:30:14Z</time>
      </trkpt>
      <trkpt lat="45.08791" lon="6.14914">
        <ele>1943.8</ele>
        <time>2026-08-09T08:30:16Z</time>
      </trkpt>
      <trkpt lat="45.08788" lon="6.14913">
        <ele>1944</ele>
        <time>2026-08-09T08:30:18Z</time>
      </trkpt>
      <trkpt lat="45.08785" lon="6.14912">
        <ele>1944.2</ele>
        <time>2026-08-09T08:30:20Z</time>
      </trkpt>
      <trkpt lat="45.08782" lon="6.14911">
        <ele>1944.6</ele>
        <time>2026-08-09T08:30:22Z</time>
      </trkpt>
      <trkpt lat="45.08779" lon="6.1491">
        <ele>1944.8</ele>
        <time>2026-08-09T08:30:24Z</time>
      </trkpt>
      <trkpt lat="45.08777" lon="6.1491">
        <ele>1945</ele>
        <time>2026-08-09T08:30:25Z</time>
      </trkpt>
      <trkpt lat="45.08776" lon="6.14909">
        <ele>1945.4</ele>
        <time>2026-08-09T08:30:26Z</time>
      </trkpt>
      <trkpt lat="45.08774" lon="6.14909">
        <ele>1945.8</ele>
        <time>2026-08-09T08:30:27Z</time>
      </trkpt>
      <trkpt lat="45.08773" lon="6.14908">
        <ele>1946</ele>
        <time>2026-08-09T08:30:28Z</time>
      </trkpt>
      <trkpt lat="45.0877" lon="6.14907">
        <ele>1946.2</ele>
        <time>2026-08-09T08:30:30Z</time>
      </trkpt>
      <trkpt lat="45.08768" lon="6.14907">
        <ele>1946.4</ele>
        <time>2026-08-09T08:30:32Z</time>
      </trkpt>
      <trkpt lat="45.08766" lon="6.14907">
        <ele>1946.4</ele>
        <time>2026-08-09T08:30:33Z</time>
      </trkpt>
      <trkpt lat="45.08765" lon="6.14908">
        <ele>1946.6</ele>
        <time>2026-08-09T08:30:34Z</time>
      </trkpt>
      <trkpt lat="45.08763" lon="6.14909">
        <ele>1946.6</ele>
        <time>2026-08-09T08:30:35Z</time>
      </trkpt>
      <trkpt lat="45.08762" lon="6.14908">
        <ele>1946.6</ele>
        <time>2026-08-09T08:30:36Z</time>
      </trkpt>
      <trkpt lat="45.08759" lon="6.14908">
        <ele>1946.8</ele>
        <time>2026-08-09T08:30:38Z</time>
      </trkpt>
      <trkpt lat="45.08757" lon="6.14908">
        <ele>1947.2</ele>
        <time>2026-08-09T08:30:40Z</time>
      </trkpt>
      <trkpt lat="45.08756" lon="6.14908">
        <ele>1947.2</ele>
        <time>2026-08-09T08:30:42Z</time>
      </trkpt>
      <trkpt lat="45.08755" lon="6.14907">
        <ele>1947.2</ele>
        <time>2026-08-09T08:30:44Z</time>
      </trkpt>
      <trkpt lat="45.08755" lon="6.14907">
        <ele>1947.4</ele>
        <time>2026-08-09T08:30:46Z</time>
      </trkpt>
      <trkpt lat="45.08755" lon="6.14907">
        <ele>1947.6</ele>
        <time>2026-08-09T08:30:48Z</time>
      </trkpt>
      <trkpt lat="45.08755" lon="6.14907">
        <ele>1947.8</ele>
        <time>2026-08-09T08:30:50Z</time>
      </trkpt>
      <trkpt lat="45.08755" lon="6.14907">
        <ele>1948.2</ele>
        <time>2026-08-09T08:30:52Z</time>
      </trkpt>
      <trkpt lat="45.08755" lon="6.14907">
        <ele>1948.2</ele>
        <time>2026-08-09T08:30:54Z</time>
      </trkpt>
      <trkpt lat="45.08755" lon="6.14907">
        <ele>1948.4</ele>
        <time>2026-08-09T08:30:56Z</time>
      </trkpt>
      <trkpt lat="45.08755" lon="6.14907">
        <ele>1948.4</ele>
        <time>2026-08-09T08:30:58Z</time>
      </trkpt>
      <trkpt lat="45.08755" lon="6.14907">
        <ele>1948.4</ele>
        <time>2026-08-09T08:31:00Z</time>
      </trkpt>
      <trkpt lat="45.08755" lon="6.14906">
        <ele>1948.4</ele>
        <time>2026-08-09T08:31:02Z</time>
      </trkpt>
      <trkpt lat="45.08755" lon="6.14906">
        <ele>1948.4</ele>
        <time>2026-08-09T08:31:04Z</time>
      </trkpt>
      <trkpt lat="45.08755" lon="6.14906">
        <ele>1948.4</ele>
        <time>2026-08-09T08:31:06Z</time>
      </trkpt>
      <trkpt lat="45.08755" lon="6.14906">
        <ele>1948.6</ele>
        <time>2026-08-09T08:31:08Z</time>
      </trkpt>
      <trkpt lat="45.08755" lon="6.14906">
        <ele>1948.6</ele>
        <time>2026-08-09T08:31:10Z</time>
      </trkpt>
      <trkpt lat="45.08755" lon="6.14906">
        <ele>1948.6</ele>
        <time>2026-08-09T08:31:11Z</time>
      </trkpt>
      <trkpt lat="45.08755" lon="6.14906">
        <ele>1948.6</ele>
        <time>2026-08-09T08:31:12Z</time>
      </trkpt>
      <trkpt lat="45.08755" lon="6.14906">
        <ele>1948.6</ele>
        <time>2026-08-09T08:31:14Z</time>
      </trkpt>
      <trkpt lat="45.08755" lon="6.14906">
        <ele>1948.6</ele>
        <time>2026-08-09T08:31:16Z</time>
      </trkpt>
      <trkpt lat="45.08755" lon="6.14906">
        <ele>1948.6</ele>
        <time>2026-08-09T08:31:18Z</time>
      </trkpt>
      <trkpt lat="45.08755" lon="6.14906">
        <ele>1948.6</ele>
        <time>2026-08-09T08:31:20Z</time>
      </trkpt>
      <trkpt lat="45.08755" lon="6.14906">
        <ele>1948.6</ele>
        <time>2026-08-09T08:31:22Z</time>
      </trkpt>
      <trkpt lat="45.08755" lon="6.14906">
        <ele>1948.6</ele>
        <time>2026-08-09T08:31:23Z</time>
      </trkpt>
      <trkpt lat="45.08755" lon="6.14906">
        <ele>1948.4</ele>
        <time>2026-08-09T08:31:24Z</time>
      </trkpt>
      <trkpt lat="45.08755" lon="6.14906">
        <ele>1948.4</ele>
        <time>2026-08-09T08:31:26Z</time>
      </trkpt>
      <trkpt lat="45.08755" lon="6.14906">
        <ele>1948.4</ele>
        <time>2026-08-09T08:31:28Z</time>
      </trkpt>
      <trkpt lat="45.08755" lon="6.14906">
        <ele>1948.4</ele>
        <time>2026-08-09T08:31:30Z</time>
      </trkpt>
      <trkpt lat="45.08755" lon="6.14906">
        <ele>1948.4</ele>
        <time>2026-08-09T08:31:32Z</time>
      </trkpt>
      <trkpt lat="45.08755" lon="6.14906">
        <ele>1948.4</ele>
        <time>2026-08-09T08:31:34Z</time>
      </trkpt>
      <trkpt lat="45.08755" lon="6.14906">
        <ele>1948.4</ele>
        <time>2026-08-09T08:31:36Z</time>
      </trkpt>
      <trkpt lat="45.08755" lon="6.14906">
        <ele>1948.2</ele>
        <time>2026-08-09T08:31:38Z</time>
      </trkpt>
      <trkpt lat="45.08755" lon="6.14906">
        <ele>1948.2</ele>
        <time>2026-08-09T08:31:40Z</time>
      </trkpt>
      <trkpt lat="45.08755" lon="6.14906">
        <ele>1948.2</ele>
        <time>2026-08-09T08:31:42Z</time>
      </trkpt>
      <trkpt lat="45.08755" lon="6.14906">
        <ele>1948.2</ele>
        <time>2026-08-09T08:31:44Z</time>
      </trkpt>
      <trkpt lat="45.08755" lon="6.14906">
        <ele>1948.2</ele>
        <time>2026-08-09T08:31:46Z</time>
      </trkpt>
      <trkpt lat="45.08755" lon="6.14906">
        <ele>1948.2</ele>
        <time>2026-08-09T08:31:48Z</time>
      </trkpt>
      <trkpt lat="45.08755" lon="6.14906">
        <ele>1948.2</ele>
        <time>2026-08-09T08:31:50Z</time>
      </trkpt>
      <trkpt lat="45.08755" lon="6.14906">
        <ele>1948.2</ele>
        <time>2026-08-09T08:31:52Z</time>
      </trkpt>
      <trkpt lat="45.08755" lon="6.14906">
        <ele>1948.2</ele>
        <time>2026-08-09T08:31:54Z</time>
      </trkpt>
      <trkpt lat="45.08755" lon="6.14906">
        <ele>1948.2</ele>
        <time>2026-08-09T08:31:56Z</time>
      </trkpt>
      <trkpt lat="45.08755" lon="6.14906">
        <ele>1948.2</ele>
        <time>2026-08-09T08:31:58Z</time>
      </trkpt>
      <trkpt lat="45.08754" lon="6.14906">
        <ele>1948.2</ele>
        <time>2026-08-09T08:32:00Z</time>
      </trkpt>
      <trkpt lat="45.08754" lon="6.14906">
        <ele>1948.2</ele>
        <time>2026-08-09T08:32:02Z</time>
      </trkpt>
      <trkpt lat="45.08753" lon="6.14906">
        <ele>1948</ele>
        <time>2026-08-09T08:32:04Z</time>
      </trkpt>
      <trkpt lat="45.08754" lon="6.14906">
        <ele>1948</ele>
        <time>2026-08-09T08:32:06Z</time>
      </trkpt>
      <trkpt lat="45.08754" lon="6.14906">
        <ele>1948</ele>
        <time>2026-08-09T08:32:08Z</time>
      </trkpt>
      <trkpt lat="45.08754" lon="6.14906">
        <ele>1947.8</ele>
        <time>2026-08-09T08:32:10Z</time>
      </trkpt>
      <trkpt lat="45.08754" lon="6.14906">
        <ele>1947.8</ele>
        <time>2026-08-09T08:32:11Z</time>
      </trkpt>
      <trkpt lat="45.08754" lon="6.14906">
        <ele>1947.8</ele>
        <time>2026-08-09T08:32:12Z</time>
      </trkpt>
      <trkpt lat="45.08754" lon="6.14906">
        <ele>1947.8</ele>
        <time>2026-08-09T08:32:14Z</time>
      </trkpt>
      <trkpt lat="45.08754" lon="6.14906">
        <ele>1947.8</ele>
        <time>2026-08-09T08:32:16Z</time>
      </trkpt>
      <trkpt lat="45.08754" lon="6.14906">
        <ele>1947.8</ele>
        <time>2026-08-09T08:32:18Z</time>
      </trkpt>
      <trkpt lat="45.08754" lon="6.14906">
        <ele>1948</ele>
        <time>2026-08-09T08:32:20Z</time>
      </trkpt>
      <trkpt lat="45.08754" lon="6.14906">
        <ele>1948</ele>
        <time>2026-08-09T08:32:22Z</time>
      </trkpt>
      <trkpt lat="45.08754" lon="6.14906">
        <ele>1948.2</ele>
        <time>2026-08-09T08:32:24Z</time>
      </trkpt>
      <trkpt lat="45.08754" lon="6.14906">
        <ele>1948.2</ele>
        <time>2026-08-09T08:32:25Z</time>
      </trkpt>
      <trkpt lat="45.08754" lon="6.14906">
        <ele>1948.2</ele>
        <time>2026-08-09T08:32:26Z</time>
      </trkpt>
      <trkpt lat="45.08754" lon="6.14906">
        <ele>1948.2</ele>
        <time>2026-08-09T08:32:28Z</time>
      </trkpt>
      <trkpt lat="45.08754" lon="6.14906">
        <ele>1948.2</ele>
        <time>2026-08-09T08:32:30Z</time>
      </trkpt>
      <trkpt lat="45.08754" lon="6.14906">
        <ele>1948.2</ele>
        <time>2026-08-09T08:32:32Z</time>
      </trkpt>
      <trkpt lat="45.08754" lon="6.14906">
        <ele>1948</ele>
        <time>2026-08-09T08:32:34Z</time>
      </trkpt>
      <trkpt lat="45.08754" lon="6.14906">
        <ele>1948</ele>
        <time>2026-08-09T08:32:36Z</time>
      </trkpt>
      <trkpt lat="45.08754" lon="6.14905">
        <ele>1948</ele>
        <time>2026-08-09T08:32:38Z</time>
      </trkpt>
      <trkpt lat="45.08754" lon="6.14905">
        <ele>1948</ele>
        <time>2026-08-09T08:32:40Z</time>
      </trkpt>
      <trkpt lat="45.08754" lon="6.14905">
        <ele>1948</ele>
        <time>2026-08-09T08:32:42Z</time>
      </trkpt>
      <trkpt lat="45.08754" lon="6.14905">
        <ele>1948</ele>
        <time>2026-08-09T08:32:44Z</time>
      </trkpt>
      <trkpt lat="45.08754" lon="6.14905">
        <ele>1948</ele>
        <time>2026-08-09T08:32:45Z</time>
      </trkpt>
      <trkpt lat="45.08754" lon="6.14905">
        <ele>1947.8</ele>
        <time>2026-08-09T08:32:46Z</time>
      </trkpt>
      <trkpt lat="45.08754" lon="6.14905">
        <ele>1948</ele>
        <time>2026-08-09T08:32:48Z</time>
      </trkpt>
      <trkpt lat="45.08754" lon="6.14905">
        <ele>1948</ele>
        <time>2026-08-09T08:32:50Z</time>
      </trkpt>
      <trkpt lat="45.08754" lon="6.14905">
        <ele>1948</ele>
        <time>2026-08-09T08:32:52Z</time>
      </trkpt>
      <trkpt lat="45.08754" lon="6.14905">
        <ele>1948</ele>
        <time>2026-08-09T08:32:54Z</time>
      </trkpt>
      <trkpt lat="45.08754" lon="6.14905">
        <ele>1948</ele>
        <time>2026-08-09T08:32:56Z</time>
      </trkpt>
      <trkpt lat="45.08754" lon="6.14905">
        <ele>1948</ele>
        <time>2026-08-09T08:32:58Z</time>
      </trkpt>
      <trkpt lat="45.08754" lon="6.14905">
        <ele>1948</ele>
        <time>2026-08-09T08:33:00Z</time>
      </trkpt>
      <trkpt lat="45.08754" lon="6.14905">
        <ele>1948</ele>
        <time>2026-08-09T08:33:02Z</time>
      </trkpt>
      <trkpt lat="45.08754" lon="6.14905">
        <ele>1948</ele>
        <time>2026-08-09T08:33:04Z</time>
      </trkpt>
      <trkpt lat="45.08754" lon="6.14905">
        <ele>1948</ele>
        <time>2026-08-09T08:33:06Z</time>
      </trkpt>
      <trkpt lat="45.08754" lon="6.14905">
        <ele>1948</ele>
        <time>2026-08-09T08:33:08Z</time>
      </trkpt>
      <trkpt lat="45.08754" lon="6.14905">
        <ele>1948.2</ele>
        <time>2026-08-09T08:33:10Z</time>
      </trkpt>
      <trkpt lat="45.08754" lon="6.14905">
        <ele>1948</ele>
        <time>2026-08-09T08:33:11Z</time>
      </trkpt>
      <trkpt lat="45.08754" lon="6.14905">
        <ele>1948</ele>
        <time>2026-08-09T08:33:12Z</time>
      </trkpt>
      <trkpt lat="45.08754" lon="6.14905">
        <ele>1948.2</ele>
        <time>2026-08-09T08:33:14Z</time>
      </trkpt>
      <trkpt lat="45.08754" lon="6.14906">
        <ele>1948.2</ele>
        <time>2026-08-09T08:33:16Z</time>
      </trkpt>
      <trkpt lat="45.08754" lon="6.14905">
        <ele>1948.2</ele>
        <time>2026-08-09T08:33:18Z</time>
      </trkpt>
      <trkpt lat="45.08754" lon="6.14906">
        <ele>1948</ele>
        <time>2026-08-09T08:33:20Z</time>
      </trkpt>
      <trkpt lat="45.08754" lon="6.14906">
        <ele>1948</ele>
        <time>2026-08-09T08:33:22Z</time>
      </trkpt>
      <trkpt lat="45.08754" lon="6.14906">
        <ele>1948</ele>
        <time>2026-08-09T08:33:24Z</time>
      </trkpt>
      <trkpt lat="45.08754" lon="6.14906">
        <ele>1948</ele>
        <time>2026-08-09T08:33:26Z</time>
      </trkpt>
      <trkpt lat="45.08754" lon="6.14906">
        <ele>1948</ele>
        <time>2026-08-09T08:33:28Z</time>
      </trkpt>
      <trkpt lat="45.08754" lon="6.14906">
        <ele>1947.8</ele>
        <time>2026-08-09T08:33:30Z</time>
      </trkpt>
      <trkpt lat="45.08754" lon="6.14906">
        <ele>1947.8</ele>
        <time>2026-08-09T08:33:31Z</time>
      </trkpt>
      <trkpt lat="45.08754" lon="6.14906">
        <ele>1947.8</ele>
        <time>2026-08-09T08:33:32Z</time>
      </trkpt>
      <trkpt lat="45.08754" lon="6.14906">
        <ele>1947.8</ele>
        <time>2026-08-09T08:33:34Z</time>
      </trkpt>
      <trkpt lat="45.08754" lon="6.14906">
        <ele>1947.8</ele>
        <time>2026-08-09T08:33:36Z</time>
      </trkpt>
      <trkpt lat="45.08754" lon="6.14906">
        <ele>1947.8</ele>
        <time>2026-08-09T08:33:38Z</time>
      </trkpt>
      <trkpt lat="45.08754" lon="6.14906">
        <ele>1947.8</ele>
        <time>2026-08-09T08:33:40Z</time>
      </trkpt>
      <trkpt lat="45.08754" lon="6.14906">
        <ele>1947.8</ele>
        <time>2026-08-09T08:33:42Z</time>
      </trkpt>
      <trkpt lat="45.08754" lon="6.14906">
        <ele>1947.8</ele>
        <time>2026-08-09T08:33:44Z</time>
      </trkpt>
      <trkpt lat="45.08754" lon="6.14906">
        <ele>1947.8</ele>
        <time>2026-08-09T08:33:46Z</time>
      </trkpt>
      <trkpt lat="45.08753" lon="6.14907">
        <ele>1947.8</ele>
        <time>2026-08-09T08:33:48Z</time>
      </trkpt>
      <trkpt lat="45.08751" lon="6.14906">
        <ele>1947.8</ele>
        <time>2026-08-09T08:33:50Z</time>
      </trkpt>
      <trkpt lat="45.08749" lon="6.14906">
        <ele>1947.8</ele>
        <time>2026-08-09T08:33:52Z</time>
      </trkpt>
      <trkpt lat="45.08746" lon="6.14905">
        <ele>1947.8</ele>
        <time>2026-08-09T08:33:54Z</time>
      </trkpt>
      <trkpt lat="45.08743" lon="6.14905">
        <ele>1947.6</ele>
        <time>2026-08-09T08:33:56Z</time>
      </trkpt>
      <trkpt lat="45.0874" lon="6.14905">
        <ele>1947.4</ele>
        <time>2026-08-09T08:33:58Z</time>
      </trkpt>
      <trkpt lat="45.08739" lon="6.14905">
        <ele>1947.2</ele>
        <time>2026-08-09T08:33:59Z</time>
      </trkpt>
      <trkpt lat="45.08737" lon="6.14905">
        <ele>1947</ele>
        <time>2026-08-09T08:34:00Z</time>
      </trkpt>
      <trkpt lat="45.08734" lon="6.14904">
        <ele>1946.8</ele>
        <time>2026-08-09T08:34:02Z</time>
      </trkpt>
      <trkpt lat="45.08732" lon="6.14903">
        <ele>1946.6</ele>
        <time>2026-08-09T08:34:04Z</time>
      </trkpt>
      <trkpt lat="45.08732" lon="6.14903">
        <ele>1946.6</ele>
        <time>2026-08-09T08:34:05Z</time>
      </trkpt>
      <trkpt lat="45.08732" lon="6.14903">
        <ele>1946.6</ele>
        <time>2026-08-09T08:34:06Z</time>
      </trkpt>
      <trkpt lat="45.08732" lon="6.14903">
        <ele>1946.4</ele>
        <time>2026-08-09T08:34:08Z</time>
      </trkpt>
      <trkpt lat="45.08732" lon="6.14903">
        <ele>1946.4</ele>
        <time>2026-08-09T08:34:10Z</time>
      </trkpt>
      <trkpt lat="45.08732" lon="6.14902">
        <ele>1946.4</ele>
        <time>2026-08-09T08:34:12Z</time>
      </trkpt>
      <trkpt lat="45.08732" lon="6.14903">
        <ele>1946.6</ele>
        <time>2026-08-09T08:34:14Z</time>
      </trkpt>
      <trkpt lat="45.08732" lon="6.14903">
        <ele>1946.6</ele>
        <time>2026-08-09T08:34:16Z</time>
      </trkpt>
      <trkpt lat="45.08732" lon="6.14903">
        <ele>1946.6</ele>
        <time>2026-08-09T08:34:17Z</time>
      </trkpt>
      <trkpt lat="45.08732" lon="6.14903">
        <ele>1946.6</ele>
        <time>2026-08-09T08:34:18Z</time>
      </trkpt>
      <trkpt lat="45.08732" lon="6.14903">
        <ele>1946.6</ele>
        <time>2026-08-09T08:34:20Z</time>
      </trkpt>
      <trkpt lat="45.08731" lon="6.14903">
        <ele>1946.6</ele>
        <time>2026-08-09T08:34:22Z</time>
      </trkpt>
      <trkpt lat="45.08731" lon="6.14902">
        <ele>1946.6</ele>
        <time>2026-08-09T08:34:23Z</time>
      </trkpt>
      <trkpt lat="45.0873" lon="6.14901">
        <ele>1946.6</ele>
        <time>2026-08-09T08:34:24Z</time>
      </trkpt>
      <trkpt lat="45.0873" lon="6.14898">
        <ele>1946.6</ele>
        <time>2026-08-09T08:34:26Z</time>
      </trkpt>
      <trkpt lat="45.08731" lon="6.14896">
        <ele>1946.6</ele>
        <time>2026-08-09T08:34:28Z</time>
      </trkpt>
      <trkpt lat="45.08731" lon="6.14895">
        <ele>1946.8</ele>
        <time>2026-08-09T08:34:29Z</time>
      </trkpt>
      <trkpt lat="45.08731" lon="6.14895">
        <ele>1946.8</ele>
        <time>2026-08-09T08:34:30Z</time>
      </trkpt>
      <trkpt lat="45.08731" lon="6.14892">
        <ele>1946.8</ele>
        <time>2026-08-09T08:34:32Z</time>
      </trkpt>
      <trkpt lat="45.08732" lon="6.1489">
        <ele>1946.8</ele>
        <time>2026-08-09T08:34:34Z</time>
      </trkpt>
      <trkpt lat="45.08732" lon="6.14887">
        <ele>1946.8</ele>
        <time>2026-08-09T08:34:36Z</time>
      </trkpt>
      <trkpt lat="45.08732" lon="6.14885">
        <ele>1946.8</ele>
        <time>2026-08-09T08:34:38Z</time>
      </trkpt>
      <trkpt lat="45.08732" lon="6.14883">
        <ele>1947</ele>
        <time>2026-08-09T08:34:40Z</time>
      </trkpt>
      <trkpt lat="45.08732" lon="6.14881">
        <ele>1947</ele>
        <time>2026-08-09T08:34:42Z</time>
      </trkpt>
      <trkpt lat="45.08732" lon="6.14881">
        <ele>1947</ele>
        <time>2026-08-09T08:34:44Z</time>
      </trkpt>
      <trkpt lat="45.08732" lon="6.14881">
        <ele>1947</ele>
        <time>2026-08-09T08:34:46Z</time>
      </trkpt>
      <trkpt lat="45.08732" lon="6.1488">
        <ele>1947</ele>
        <time>2026-08-09T08:34:48Z</time>
      </trkpt>
      <trkpt lat="45.08732" lon="6.1488">
        <ele>1947.2</ele>
        <time>2026-08-09T08:34:50Z</time>
      </trkpt>
      <trkpt lat="45.08732" lon="6.1488">
        <ele>1947.2</ele>
        <time>2026-08-09T08:34:52Z</time>
      </trkpt>
      <trkpt lat="45.08732" lon="6.1488">
        <ele>1947.2</ele>
        <time>2026-08-09T08:34:53Z</time>
      </trkpt>
      <trkpt lat="45.08732" lon="6.1488">
        <ele>1947.2</ele>
        <time>2026-08-09T08:34:54Z</time>
      </trkpt>
      <trkpt lat="45.08732" lon="6.1488">
        <ele>1947.4</ele>
        <time>2026-08-09T08:34:56Z</time>
      </trkpt>
      <trkpt lat="45.08732" lon="6.1488">
        <ele>1947.2</ele>
        <time>2026-08-09T08:34:58Z</time>
      </trkpt>
      <trkpt lat="45.08732" lon="6.1488">
        <ele>1947.4</ele>
        <time>2026-08-09T08:35:00Z</time>
      </trkpt>
      <trkpt lat="45.08732" lon="6.14881">
        <ele>1947.4</ele>
        <time>2026-08-09T08:35:01Z</time>
      </trkpt>
      <trkpt lat="45.08732" lon="6.14881">
        <ele>1947.4</ele>
        <time>2026-08-09T08:35:02Z</time>
      </trkpt>
      <trkpt lat="45.08732" lon="6.14881">
        <ele>1947.4</ele>
        <time>2026-08-09T08:35:04Z</time>
      </trkpt>
      <trkpt lat="45.08732" lon="6.14881">
        <ele>1947.4</ele>
        <time>2026-08-09T08:35:06Z</time>
      </trkpt>
      <trkpt lat="45.08732" lon="6.14881">
        <ele>1947.4</ele>
        <time>2026-08-09T08:35:08Z</time>
      </trkpt>
      <trkpt lat="45.08732" lon="6.14881">
        <ele>1947.4</ele>
        <time>2026-08-09T08:35:09Z</time>
      </trkpt>
      <trkpt lat="45.08732" lon="6.14881">
        <ele>1947.4</ele>
        <time>2026-08-09T08:35:10Z</time>
      </trkpt>
      <trkpt lat="45.08732" lon="6.14881">
        <ele>1947.4</ele>
        <time>2026-08-09T08:35:12Z</time>
      </trkpt>
      <trkpt lat="45.08732" lon="6.14882">
        <ele>1947.4</ele>
        <time>2026-08-09T08:35:14Z</time>
      </trkpt>
      <trkpt lat="45.08732" lon="6.14884">
        <ele>1947.4</ele>
        <time>2026-08-09T08:35:16Z</time>
      </trkpt>
      <trkpt lat="45.08731" lon="6.14885">
        <ele>1947.4</ele>
        <time>2026-08-09T08:35:17Z</time>
      </trkpt>
      <trkpt lat="45.0873" lon="6.14887">
        <ele>1947.4</ele>
        <time>2026-08-09T08:35:18Z</time>
      </trkpt>
      <trkpt lat="45.0873" lon="6.14892">
        <ele>1947.4</ele>
        <time>2026-08-09T08:35:20Z</time>
      </trkpt>
      <trkpt lat="45.08729" lon="6.14895">
        <ele>1947.2</ele>
        <time>2026-08-09T08:35:22Z</time>
      </trkpt>
      <trkpt lat="45.08727" lon="6.14898">
        <ele>1947.2</ele>
        <time>2026-08-09T08:35:24Z</time>
      </trkpt>
      <trkpt lat="45.08725" lon="6.14901">
        <ele>1947.2</ele>
        <time>2026-08-09T08:35:26Z</time>
      </trkpt>
      <trkpt lat="45.08723" lon="6.14903">
        <ele>1947</ele>
        <time>2026-08-09T08:35:28Z</time>
      </trkpt>
      <trkpt lat="45.08719" lon="6.14904">
        <ele>1946.8</ele>
        <time>2026-08-09T08:35:30Z</time>
      </trkpt>
      <trkpt lat="45.08717" lon="6.14903">
        <ele>1946.8</ele>
        <time>2026-08-09T08:35:32Z</time>
      </trkpt>
      <trkpt lat="45.08716" lon="6.14903">
        <ele>1946.6</ele>
        <time>2026-08-09T08:35:34Z</time>
      </trkpt>
      <trkpt lat="45.08716" lon="6.14903">
        <ele>1946.4</ele>
        <time>2026-08-09T08:35:36Z</time>
      </trkpt>
      <trkpt lat="45.08716" lon="6.14902">
        <ele>1946</ele>
        <time>2026-08-09T08:35:38Z</time>
      </trkpt>
      <trkpt lat="45.08716" lon="6.14902">
        <ele>1945.8</ele>
        <time>2026-08-09T08:35:40Z</time>
      </trkpt>
      <trkpt lat="45.08716" lon="6.14902">
        <ele>1945.6</ele>
        <time>2026-08-09T08:35:42Z</time>
      </trkpt>
      <trkpt lat="45.08716" lon="6.14902">
        <ele>1945.6</ele>
        <time>2026-08-09T08:35:44Z</time>
      </trkpt>
      <trkpt lat="45.08715" lon="6.14901">
        <ele>1945.6</ele>
        <time>2026-08-09T08:35:45Z</time>
      </trkpt>
      <trkpt lat="45.08715" lon="6.14901">
        <ele>1945.6</ele>
        <time>2026-08-09T08:35:46Z</time>
      </trkpt>
      <trkpt lat="45.08715" lon="6.149">
        <ele>1945.6</ele>
        <time>2026-08-09T08:35:48Z</time>
      </trkpt>
      <trkpt lat="45.08715" lon="6.149">
        <ele>1945.6</ele>
        <time>2026-08-09T08:35:50Z</time>
      </trkpt>
      <trkpt lat="45.08715" lon="6.149">
        <ele>1945.6</ele>
        <time>2026-08-09T08:35:52Z</time>
      </trkpt>
      <trkpt lat="45.08715" lon="6.149">
        <ele>1945.8</ele>
        <time>2026-08-09T08:35:54Z</time>
      </trkpt>
      <trkpt lat="45.08715" lon="6.149">
        <ele>1945.8</ele>
        <time>2026-08-09T08:35:56Z</time>
      </trkpt>
      <trkpt lat="45.08715" lon="6.149">
        <ele>1945.8</ele>
        <time>2026-08-09T08:35:58Z</time>
      </trkpt>
      <trkpt lat="45.08715" lon="6.149">
        <ele>1945.8</ele>
        <time>2026-08-09T08:36:00Z</time>
      </trkpt>
      <trkpt lat="45.08715" lon="6.149">
        <ele>1945.8</ele>
        <time>2026-08-09T08:36:02Z</time>
      </trkpt>
      <trkpt lat="45.08715" lon="6.149">
        <ele>1946</ele>
        <time>2026-08-09T08:36:04Z</time>
      </trkpt>
      <trkpt lat="45.08715" lon="6.149">
        <ele>1946</ele>
        <time>2026-08-09T08:36:06Z</time>
      </trkpt>
      <trkpt lat="45.08715" lon="6.149">
        <ele>1946</ele>
        <time>2026-08-09T08:36:08Z</time>
      </trkpt>
      <trkpt lat="45.08715" lon="6.149">
        <ele>1946</ele>
        <time>2026-08-09T08:36:10Z</time>
      </trkpt>
      <trkpt lat="45.08715" lon="6.149">
        <ele>1946</ele>
        <time>2026-08-09T08:36:12Z</time>
      </trkpt>
      <trkpt lat="45.08715" lon="6.149">
        <ele>1946</ele>
        <time>2026-08-09T08:36:14Z</time>
      </trkpt>
      <trkpt lat="45.08715" lon="6.149">
        <ele>1946</ele>
        <time>2026-08-09T08:36:16Z</time>
      </trkpt>
      <trkpt lat="45.08715" lon="6.149">
        <ele>1946</ele>
        <time>2026-08-09T08:36:18Z</time>
      </trkpt>
      <trkpt lat="45.08715" lon="6.149">
        <ele>1946</ele>
        <time>2026-08-09T08:36:20Z</time>
      </trkpt>
      <trkpt lat="45.08715" lon="6.149">
        <ele>1946</ele>
        <time>2026-08-09T08:36:22Z</time>
      </trkpt>
      <trkpt lat="45.08715" lon="6.149">
        <ele>1946</ele>
        <time>2026-08-09T08:36:24Z</time>
      </trkpt>
      <trkpt lat="45.08715" lon="6.149">
        <ele>1946</ele>
        <time>2026-08-09T08:36:26Z</time>
      </trkpt>
      <trkpt lat="45.08715" lon="6.149">
        <ele>1946</ele>
        <time>2026-08-09T08:36:28Z</time>
      </trkpt>
      <trkpt lat="45.08715" lon="6.149">
        <ele>1945.8</ele>
        <time>2026-08-09T08:36:30Z</time>
      </trkpt>
      <trkpt lat="45.08715" lon="6.149">
        <ele>1945.8</ele>
        <time>2026-08-09T08:36:32Z</time>
      </trkpt>
      <trkpt lat="45.08715" lon="6.149">
        <ele>1945.8</ele>
        <time>2026-08-09T08:36:34Z</time>
      </trkpt>
      <trkpt lat="45.08715" lon="6.149">
        <ele>1945.8</ele>
        <time>2026-08-09T08:36:36Z</time>
      </trkpt>
      <trkpt lat="45.08715" lon="6.149">
        <ele>1945.8</ele>
        <time>2026-08-09T08:36:38Z</time>
      </trkpt>
      <trkpt lat="45.08715" lon="6.149">
        <ele>1946</ele>
        <time>2026-08-09T08:36:40Z</time>
      </trkpt>
      <trkpt lat="45.08715" lon="6.149">
        <ele>1945.8</ele>
        <time>2026-08-09T08:36:42Z</time>
      </trkpt>
      <trkpt lat="45.08715" lon="6.149">
        <ele>1945.8</ele>
        <time>2026-08-09T08:36:44Z</time>
      </trkpt>
      <trkpt lat="45.08715" lon="6.149">
        <ele>1945.8</ele>
        <time>2026-08-09T08:36:46Z</time>
      </trkpt>
      <trkpt lat="45.08715" lon="6.149">
        <ele>1945.8</ele>
        <time>2026-08-09T08:36:48Z</time>
      </trkpt>
      <trkpt lat="45.08715" lon="6.149">
        <ele>1945.8</ele>
        <time>2026-08-09T08:36:50Z</time>
      </trkpt>
      <trkpt lat="45.08715" lon="6.149">
        <ele>1945.8</ele>
        <time>2026-08-09T08:36:52Z</time>
      </trkpt>
      <trkpt lat="45.08715" lon="6.149">
        <ele>1945.8</ele>
        <time>2026-08-09T08:36:53Z</time>
      </trkpt>
      <trkpt lat="45.08715" lon="6.149">
        <ele>1945.8</ele>
        <time>2026-08-09T08:36:54Z</time>
      </trkpt>
      <trkpt lat="45.08715" lon="6.149">
        <ele>1945.6</ele>
        <time>2026-08-09T08:36:56Z</time>
      </trkpt>
      <trkpt lat="45.08715" lon="6.149">
        <ele>1945.6</ele>
        <time>2026-08-09T08:36:58Z</time>
      </trkpt>
      <trkpt lat="45.08715" lon="6.149">
        <ele>1945.6</ele>
        <time>2026-08-09T08:37:00Z</time>
      </trkpt>
      <trkpt lat="45.08715" lon="6.149">
        <ele>1945.6</ele>
        <time>2026-08-09T08:37:02Z</time>
      </trkpt>
      <trkpt lat="45.08715" lon="6.149">
        <ele>1945.6</ele>
        <time>2026-08-09T08:37:04Z</time>
      </trkpt>
      <trkpt lat="45.08715" lon="6.149">
        <ele>1945.6</ele>
        <time>2026-08-09T08:37:06Z</time>
      </trkpt>
      <trkpt lat="45.08715" lon="6.149">
        <ele>1945.6</ele>
        <time>2026-08-09T08:37:08Z</time>
      </trkpt>
      <trkpt lat="45.08715" lon="6.149">
        <ele>1945.6</ele>
        <time>2026-08-09T08:37:10Z</time>
      </trkpt>
      <trkpt lat="45.08715" lon="6.149">
        <ele>1945.6</ele>
        <time>2026-08-09T08:37:11Z</time>
      </trkpt>
      <trkpt lat="45.08715" lon="6.149">
        <ele>1945.6</ele>
        <time>2026-08-09T08:37:12Z</time>
      </trkpt>
      <trkpt lat="45.08715" lon="6.149">
        <ele>1945.6</ele>
        <time>2026-08-09T08:37:14Z</time>
      </trkpt>
      <trkpt lat="45.08715" lon="6.149">
        <ele>1945.6</ele>
        <time>2026-08-09T08:37:16Z</time>
      </trkpt>
      <trkpt lat="45.08715" lon="6.149">
        <ele>1945.6</ele>
        <time>2026-08-09T08:37:18Z</time>
      </trkpt>
      <trkpt lat="45.08715" lon="6.149">
        <ele>1945.6</ele>
        <time>2026-08-09T08:37:20Z</time>
      </trkpt>
      <trkpt lat="45.08715" lon="6.149">
        <ele>1945.6</ele>
        <time>2026-08-09T08:37:22Z</time>
      </trkpt>
      <trkpt lat="45.08715" lon="6.149">
        <ele>1945.6</ele>
        <time>2026-08-09T08:37:24Z</time>
      </trkpt>
      <trkpt lat="45.08716" lon="6.149">
        <ele>1945.6</ele>
        <time>2026-08-09T08:37:26Z</time>
      </trkpt>
      <trkpt lat="45.08716" lon="6.149">
        <ele>1945.6</ele>
        <time>2026-08-09T08:37:28Z</time>
      </trkpt>
      <trkpt lat="45.08716" lon="6.149">
        <ele>1945.6</ele>
        <time>2026-08-09T08:37:30Z</time>
      </trkpt>
      <trkpt lat="45.08716" lon="6.149">
        <ele>1945.6</ele>
        <time>2026-08-09T08:37:31Z</time>
      </trkpt>
      <trkpt lat="45.08716" lon="6.149">
        <ele>1945.6</ele>
        <time>2026-08-09T08:37:32Z</time>
      </trkpt>
      <trkpt lat="45.08716" lon="6.149">
        <ele>1945.6</ele>
        <time>2026-08-09T08:37:34Z</time>
      </trkpt>
      <trkpt lat="45.08716" lon="6.149">
        <ele>1945.6</ele>
        <time>2026-08-09T08:37:36Z</time>
      </trkpt>
      <trkpt lat="45.08716" lon="6.149">
        <ele>1945.6</ele>
        <time>2026-08-09T08:37:38Z</time>
      </trkpt>
      <trkpt lat="45.08716" lon="6.149">
        <ele>1945.6</ele>
        <time>2026-08-09T08:37:40Z</time>
      </trkpt>
      <trkpt lat="45.08716" lon="6.149">
        <ele>1945.6</ele>
        <time>2026-08-09T08:37:42Z</time>
      </trkpt>
      <trkpt lat="45.08716" lon="6.149">
        <ele>1945.6</ele>
        <time>2026-08-09T08:37:44Z</time>
      </trkpt>
      <trkpt lat="45.08716" lon="6.149">
        <ele>1945.6</ele>
        <time>2026-08-09T08:37:46Z</time>
      </trkpt>
      <trkpt lat="45.08716" lon="6.149">
        <ele>1945.6</ele>
        <time>2026-08-09T08:37:48Z</time>
      </trkpt>
      <trkpt lat="45.08716" lon="6.149">
        <ele>1945.4</ele>
        <time>2026-08-09T08:37:50Z</time>
      </trkpt>
      <trkpt lat="45.08716" lon="6.149">
        <ele>1945.4</ele>
        <time>2026-08-09T08:37:52Z</time>
      </trkpt>
      <trkpt lat="45.08716" lon="6.149">
        <ele>1945.4</ele>
        <time>2026-08-09T08:37:54Z</time>
      </trkpt>
      <trkpt lat="45.08714" lon="6.149">
        <ele>1945.4</ele>
        <time>2026-08-09T08:37:56Z</time>
      </trkpt>
      <trkpt lat="45.08713" lon="6.14899">
        <ele>1945.4</ele>
        <time>2026-08-09T08:37:57Z</time>
      </trkpt>
      <trkpt lat="45.08711" lon="6.14898">
        <ele>1945.4</ele>
        <time>2026-08-09T08:37:58Z</time>
      </trkpt>
      <trkpt lat="45.08708" lon="6.14898">
        <ele>1945.4</ele>
        <time>2026-08-09T08:37:59Z</time>
      </trkpt>
      <trkpt lat="45.08704" lon="6.14897">
        <ele>1945.2</ele>
        <time>2026-08-09T08:38:00Z</time>
      </trkpt>
      <trkpt lat="45.08695" lon="6.14893">
        <ele>1945.2</ele>
        <time>2026-08-09T08:38:02Z</time>
      </trkpt>
      <trkpt lat="45.0869" lon="6.14891">
        <ele>1945.2</ele>
        <time>2026-08-09T08:38:03Z</time>
      </trkpt>
      <trkpt lat="45.08686" lon="6.14889">
        <ele>1945.2</ele>
        <time>2026-08-09T08:38:04Z</time>
      </trkpt>
      <trkpt lat="45.08682" lon="6.14887">
        <ele>1945.2</ele>
        <time>2026-08-09T08:38:05Z</time>
      </trkpt>
      <trkpt lat="45.08678" lon="6.14885">
        <ele>1944.8</ele>
        <time>2026-08-09T08:38:06Z</time>
      </trkpt>
      <trkpt lat="45.08669" lon="6.14878">
        <ele>1944</ele>
        <time>2026-08-09T08:38:08Z</time>
      </trkpt>
      <trkpt lat="45.08661" lon="6.14872">
        <ele>1942.8</ele>
        <time>2026-08-09T08:38:10Z</time>
      </trkpt>
      <trkpt lat="45.08652" lon="6.14865">
        <ele>1942</ele>
        <time>2026-08-09T08:38:12Z</time>
      </trkpt>
      <trkpt lat="45.08643" lon="6.14856">
        <ele>1941.6</ele>
        <time>2026-08-09T08:38:14Z</time>
      </trkpt>
      <trkpt lat="45.08633" lon="6.14848">
        <ele>1941</ele>
        <time>2026-08-09T08:38:16Z</time>
      </trkpt>
      <trkpt lat="45.08625" lon="6.14839">
        <ele>1940.4</ele>
        <time>2026-08-09T08:38:18Z</time>
      </trkpt>
      <trkpt lat="45.08621" lon="6.14835">
        <ele>1940</ele>
        <time>2026-08-09T08:38:19Z</time>
      </trkpt>
      <trkpt lat="45.08617" lon="6.14831">
        <ele>1939.6</ele>
        <time>2026-08-09T08:38:20Z</time>
      </trkpt>
      <trkpt lat="45.08614" lon="6.14827">
        <ele>1938.6</ele>
        <time>2026-08-09T08:38:21Z</time>
      </trkpt>
      <trkpt lat="45.0861" lon="6.14822">
        <ele>1937.8</ele>
        <time>2026-08-09T08:38:22Z</time>
      </trkpt>
      <trkpt lat="45.08607" lon="6.14817">
        <ele>1937.4</ele>
        <time>2026-08-09T08:38:23Z</time>
      </trkpt>
      <trkpt lat="45.08603" lon="6.14812">
        <ele>1937</ele>
        <time>2026-08-09T08:38:24Z</time>
      </trkpt>
      <trkpt lat="45.08597" lon="6.14802">
        <ele>1936.8</ele>
        <time>2026-08-09T08:38:26Z</time>
      </trkpt>
      <trkpt lat="45.0859" lon="6.14791">
        <ele>1936.4</ele>
        <time>2026-08-09T08:38:28Z</time>
      </trkpt>
      <trkpt lat="45.08585" lon="6.14785">
        <ele>1936.2</ele>
        <time>2026-08-09T08:38:29Z</time>
      </trkpt>
      <trkpt lat="45.08581" lon="6.14779">
        <ele>1936.2</ele>
        <time>2026-08-09T08:38:30Z</time>
      </trkpt>
      <trkpt lat="45.08576" lon="6.14773">
        <ele>1936</ele>
        <time>2026-08-09T08:38:31Z</time>
      </trkpt>
      <trkpt lat="45.08571" lon="6.14767">
        <ele>1935.6</ele>
        <time>2026-08-09T08:38:32Z</time>
      </trkpt>
      <trkpt lat="45.08566" lon="6.1476">
        <ele>1935.2</ele>
        <time>2026-08-09T08:38:33Z</time>
      </trkpt>
      <trkpt lat="45.0856" lon="6.14754">
        <ele>1934.6</ele>
        <time>2026-08-09T08:38:34Z</time>
      </trkpt>
      <trkpt lat="45.08554" lon="6.14748">
        <ele>1934</ele>
        <time>2026-08-09T08:38:35Z</time>
      </trkpt>
      <trkpt lat="45.08548" lon="6.14742">
        <ele>1933.6</ele>
        <time>2026-08-09T08:38:36Z</time>
      </trkpt>
      <trkpt lat="45.08533" lon="6.1473">
        <ele>1932.8</ele>
        <time>2026-08-09T08:38:38Z</time>
      </trkpt>
      <trkpt lat="45.0852" lon="6.14717">
        <ele>1931.8</ele>
        <time>2026-08-09T08:38:40Z</time>
      </trkpt>
      <trkpt lat="45.08513" lon="6.14711">
        <ele>1931</ele>
        <time>2026-08-09T08:38:41Z</time>
      </trkpt>
      <trkpt lat="45.08507" lon="6.14704">
        <ele>1930.2</ele>
        <time>2026-08-09T08:38:42Z</time>
      </trkpt>
      <trkpt lat="45.08501" lon="6.14697">
        <ele>1929.4</ele>
        <time>2026-08-09T08:38:43Z</time>
      </trkpt>
      <trkpt lat="45.08496" lon="6.1469">
        <ele>1928.4</ele>
        <time>2026-08-09T08:38:44Z</time>
      </trkpt>
      <trkpt lat="45.08491" lon="6.14683">
        <ele>1927.8</ele>
        <time>2026-08-09T08:38:45Z</time>
      </trkpt>
      <trkpt lat="45.08486" lon="6.14675">
        <ele>1927</ele>
        <time>2026-08-09T08:38:46Z</time>
      </trkpt>
      <trkpt lat="45.08481" lon="6.14668">
        <ele>1925.6</ele>
        <time>2026-08-09T08:38:47Z</time>
      </trkpt>
      <trkpt lat="45.08476" lon="6.1466">
        <ele>1925.2</ele>
        <time>2026-08-09T08:38:48Z</time>
      </trkpt>
      <trkpt lat="45.08467" lon="6.14646">
        <ele>1924.6</ele>
        <time>2026-08-09T08:38:50Z</time>
      </trkpt>
      <trkpt lat="45.08458" lon="6.14633">
        <ele>1923.8</ele>
        <time>2026-08-09T08:38:52Z</time>
      </trkpt>
      <trkpt lat="45.08454" lon="6.14627">
        <ele>1923.6</ele>
        <time>2026-08-09T08:38:53Z</time>
      </trkpt>
      <trkpt lat="45.0845" lon="6.14622">
        <ele>1923.2</ele>
        <time>2026-08-09T08:38:54Z</time>
      </trkpt>
      <trkpt lat="45.08443" lon="6.1461">
        <ele>1922.2</ele>
        <time>2026-08-09T08:38:56Z</time>
      </trkpt>
      <trkpt lat="45.08439" lon="6.14604">
        <ele>1921.8</ele>
        <time>2026-08-09T08:38:57Z</time>
      </trkpt>
      <trkpt lat="45.08434" lon="6.14598">
        <ele>1921.4</ele>
        <time>2026-08-09T08:38:58Z</time>
      </trkpt>
      <trkpt lat="45.0843" lon="6.14593">
        <ele>1921.2</ele>
        <time>2026-08-09T08:38:59Z</time>
      </trkpt>
      <trkpt lat="45.08426" lon="6.14588">
        <ele>1921</ele>
        <time>2026-08-09T08:39:00Z</time>
      </trkpt>
      <trkpt lat="45.08423" lon="6.14583">
        <ele>1920.6</ele>
        <time>2026-08-09T08:39:01Z</time>
      </trkpt>
      <trkpt lat="45.0842" lon="6.1458">
        <ele>1920.4</ele>
        <time>2026-08-09T08:39:02Z</time>
      </trkpt>
      <trkpt lat="45.08418" lon="6.14576">
        <ele>1920.4</ele>
        <time>2026-08-09T08:39:03Z</time>
      </trkpt>
      <trkpt lat="45.08415" lon="6.14571">
        <ele>1920.2</ele>
        <time>2026-08-09T08:39:04Z</time>
      </trkpt>
      <trkpt lat="45.08408" lon="6.14562">
        <ele>1919.6</ele>
        <time>2026-08-09T08:39:06Z</time>
      </trkpt>
      <trkpt lat="45.08402" lon="6.14551">
        <ele>1919.2</ele>
        <time>2026-08-09T08:39:08Z</time>
      </trkpt>
      <trkpt lat="45.08396" lon="6.14541">
        <ele>1919</ele>
        <time>2026-08-09T08:39:10Z</time>
      </trkpt>
      <trkpt lat="45.08391" lon="6.14534">
        <ele>1918.8</ele>
        <time>2026-08-09T08:39:12Z</time>
      </trkpt>
      <trkpt lat="45.08389" lon="6.14531">
        <ele>1918.4</ele>
        <time>2026-08-09T08:39:13Z</time>
      </trkpt>
      <trkpt lat="45.08388" lon="6.14528">
        <ele>1918</ele>
        <time>2026-08-09T08:39:14Z</time>
      </trkpt>
      <trkpt lat="45.08385" lon="6.14523">
        <ele>1917.4</ele>
        <time>2026-08-09T08:39:16Z</time>
      </trkpt>
      <trkpt lat="45.08384" lon="6.1452">
        <ele>1917.2</ele>
        <time>2026-08-09T08:39:17Z</time>
      </trkpt>
      <trkpt lat="45.08384" lon="6.14519">
        <ele>1917.2</ele>
        <time>2026-08-09T08:39:18Z</time>
      </trkpt>
      <trkpt lat="45.08384" lon="6.14519">
        <ele>1917.2</ele>
        <time>2026-08-09T08:39:20Z</time>
      </trkpt>
      <trkpt lat="45.08384" lon="6.14519">
        <ele>1917.2</ele>
        <time>2026-08-09T08:39:21Z</time>
      </trkpt>
      <trkpt lat="45.08384" lon="6.14519">
        <ele>1917.2</ele>
        <time>2026-08-09T08:39:22Z</time>
      </trkpt>
      <trkpt lat="45.08384" lon="6.14519">
        <ele>1917.2</ele>
        <time>2026-08-09T08:39:24Z</time>
      </trkpt>
      <trkpt lat="45.08384" lon="6.14519">
        <ele>1916.8</ele>
        <time>2026-08-09T08:39:26Z</time>
      </trkpt>
      <trkpt lat="45.08384" lon="6.14519">
        <ele>1917</ele>
        <time>2026-08-09T08:39:28Z</time>
      </trkpt>
      <trkpt lat="45.08384" lon="6.14519">
        <ele>1917</ele>
        <time>2026-08-09T08:39:30Z</time>
      </trkpt>
      <trkpt lat="45.08385" lon="6.14519">
        <ele>1917</ele>
        <time>2026-08-09T08:39:32Z</time>
      </trkpt>
      <trkpt lat="45.08384" lon="6.14519">
        <ele>1917.2</ele>
        <time>2026-08-09T08:39:34Z</time>
      </trkpt>
      <trkpt lat="45.08384" lon="6.14519">
        <ele>1917.2</ele>
        <time>2026-08-09T08:39:36Z</time>
      </trkpt>
      <trkpt lat="45.08384" lon="6.14519">
        <ele>1917.2</ele>
        <time>2026-08-09T08:39:38Z</time>
      </trkpt>
      <trkpt lat="45.08384" lon="6.14519">
        <ele>1917.2</ele>
        <time>2026-08-09T08:39:40Z</time>
      </trkpt>
      <trkpt lat="45.08384" lon="6.14519">
        <ele>1917.2</ele>
        <time>2026-08-09T08:39:42Z</time>
      </trkpt>
      <trkpt lat="45.08384" lon="6.14518">
        <ele>1917.2</ele>
        <time>2026-08-09T08:39:44Z</time>
      </trkpt>
      <trkpt lat="45.08383" lon="6.14517">
        <ele>1917.2</ele>
        <time>2026-08-09T08:39:46Z</time>
      </trkpt>
      <trkpt lat="45.08383" lon="6.14516">
        <ele>1917.2</ele>
        <time>2026-08-09T08:39:47Z</time>
      </trkpt>
      <trkpt lat="45.08383" lon="6.14516">
        <ele>1917.2</ele>
        <time>2026-08-09T08:39:48Z</time>
      </trkpt>
      <trkpt lat="45.08383" lon="6.14516">
        <ele>1916.8</ele>
        <time>2026-08-09T08:39:50Z</time>
      </trkpt>
      <trkpt lat="45.08383" lon="6.14516">
        <ele>1916.6</ele>
        <time>2026-08-09T08:39:52Z</time>
      </trkpt>
      <trkpt lat="45.08383" lon="6.14514">
        <ele>1916.4</ele>
        <time>2026-08-09T08:39:54Z</time>
      </trkpt>
      <trkpt lat="45.08383" lon="6.14513">
        <ele>1916.2</ele>
        <time>2026-08-09T08:39:56Z</time>
      </trkpt>
      <trkpt lat="45.08383" lon="6.14513">
        <ele>1916.4</ele>
        <time>2026-08-09T08:39:58Z</time>
      </trkpt>
      <trkpt lat="45.08383" lon="6.14513">
        <ele>1916.2</ele>
        <time>2026-08-09T08:40:00Z</time>
      </trkpt>
      <trkpt lat="45.08383" lon="6.14513">
        <ele>1916.2</ele>
        <time>2026-08-09T08:40:02Z</time>
      </trkpt>
      <trkpt lat="45.08383" lon="6.14513">
        <ele>1916.2</ele>
        <time>2026-08-09T08:40:04Z</time>
      </trkpt>
      <trkpt lat="45.08383" lon="6.14513">
        <ele>1916.2</ele>
        <time>2026-08-09T08:40:06Z</time>
      </trkpt>
      <trkpt lat="45.08383" lon="6.14513">
        <ele>1916.2</ele>
        <time>2026-08-09T08:40:08Z</time>
      </trkpt>
      <trkpt lat="45.08383" lon="6.14513">
        <ele>1916.2</ele>
        <time>2026-08-09T08:40:10Z</time>
      </trkpt>
      <trkpt lat="45.08383" lon="6.14513">
        <ele>1916.4</ele>
        <time>2026-08-09T08:40:12Z</time>
      </trkpt>
      <trkpt lat="45.08383" lon="6.14513">
        <ele>1916.4</ele>
        <time>2026-08-09T08:40:14Z</time>
      </trkpt>
      <trkpt lat="45.08382" lon="6.14513">
        <ele>1916.4</ele>
        <time>2026-08-09T08:40:15Z</time>
      </trkpt>
      <trkpt lat="45.08381" lon="6.14514">
        <ele>1916.4</ele>
        <time>2026-08-09T08:40:16Z</time>
      </trkpt>
      <trkpt lat="45.08382" lon="6.14517">
        <ele>1916.4</ele>
        <time>2026-08-09T08:40:18Z</time>
      </trkpt>
      <trkpt lat="45.08383" lon="6.14519">
        <ele>1916.6</ele>
        <time>2026-08-09T08:40:20Z</time>
      </trkpt>
      <trkpt lat="45.08385" lon="6.14522">
        <ele>1916.6</ele>
        <time>2026-08-09T08:40:22Z</time>
      </trkpt>
      <trkpt lat="45.08388" lon="6.14528">
        <ele>1916.6</ele>
        <time>2026-08-09T08:40:24Z</time>
      </trkpt>
      <trkpt lat="45.0839" lon="6.14532">
        <ele>1916.6</ele>
        <time>2026-08-09T08:40:25Z</time>
      </trkpt>
      <trkpt lat="45.08392" lon="6.14536">
        <ele>1916.8</ele>
        <time>2026-08-09T08:40:26Z</time>
      </trkpt>
      <trkpt lat="45.08397" lon="6.14543">
        <ele>1916.8</ele>
        <time>2026-08-09T08:40:28Z</time>
      </trkpt>
      <trkpt lat="45.08398" lon="6.14546">
        <ele>1916.8</ele>
        <time>2026-08-09T08:40:29Z</time>
      </trkpt>
      <trkpt lat="45.084" lon="6.14549">
        <ele>1917</ele>
        <time>2026-08-09T08:40:30Z</time>
      </trkpt>
      <trkpt lat="45.08402" lon="6.14556">
        <ele>1917.2</ele>
        <time>2026-08-09T08:40:32Z</time>
      </trkpt>
      <trkpt lat="45.08406" lon="6.14561">
        <ele>1917.2</ele>
        <time>2026-08-09T08:40:34Z</time>
      </trkpt>
      <trkpt lat="45.08409" lon="6.14567">
        <ele>1917.6</ele>
        <time>2026-08-09T08:40:36Z</time>
      </trkpt>
      <trkpt lat="45.0841" lon="6.1457">
        <ele>1918</ele>
        <time>2026-08-09T08:40:37Z</time>
      </trkpt>
      <trkpt lat="45.08412" lon="6.14572">
        <ele>1918.2</ele>
        <time>2026-08-09T08:40:38Z</time>
      </trkpt>
      <trkpt lat="45.08416" lon="6.14578">
        <ele>1918.8</ele>
        <time>2026-08-09T08:40:40Z</time>
      </trkpt>
      <trkpt lat="45.08417" lon="6.1458">
        <ele>1919</ele>
        <time>2026-08-09T08:40:41Z</time>
      </trkpt>
      <trkpt lat="45.08419" lon="6.14583">
        <ele>1919.2</ele>
        <time>2026-08-09T08:40:42Z</time>
      </trkpt>
      <trkpt lat="45.08423" lon="6.14587">
        <ele>1919.4</ele>
        <time>2026-08-09T08:40:44Z</time>
      </trkpt>
      <trkpt lat="45.08424" lon="6.1459">
        <ele>1919.4</ele>
        <time>2026-08-09T08:40:45Z</time>
      </trkpt>
      <trkpt lat="45.08426" lon="6.14592">
        <ele>1919.6</ele>
        <time>2026-08-09T08:40:46Z</time>
      </trkpt>
      <trkpt lat="45.08429" lon="6.14597">
        <ele>1920</ele>
        <time>2026-08-09T08:40:48Z</time>
      </trkpt>
      <trkpt lat="45.0843" lon="6.14599">
        <ele>1920.2</ele>
        <time>2026-08-09T08:40:49Z</time>
      </trkpt>
      <trkpt lat="45.08432" lon="6.14601">
        <ele>1920.2</ele>
        <time>2026-08-09T08:40:50Z</time>
      </trkpt>
      <trkpt lat="45.08435" lon="6.14605">
        <ele>1920.4</ele>
        <time>2026-08-09T08:40:52Z</time>
      </trkpt>
      <trkpt lat="45.08438" lon="6.14609">
        <ele>1920.8</ele>
        <time>2026-08-09T08:40:54Z</time>
      </trkpt>
      <trkpt lat="45.0844" lon="6.14612">
        <ele>1920.8</ele>
        <time>2026-08-09T08:40:55Z</time>
      </trkpt>
      <trkpt lat="45.08441" lon="6.14614">
        <ele>1921</ele>
        <time>2026-08-09T08:40:56Z</time>
      </trkpt>
      <trkpt lat="45.08444" lon="6.14618">
        <ele>1921.2</ele>
        <time>2026-08-09T08:40:58Z</time>
      </trkpt>
      <trkpt lat="45.08447" lon="6.14622">
        <ele>1921.6</ele>
        <time>2026-08-09T08:41:00Z</time>
      </trkpt>
      <trkpt lat="45.08449" lon="6.14626">
        <ele>1922</ele>
        <time>2026-08-09T08:41:02Z</time>
      </trkpt>
      <trkpt lat="45.08452" lon="6.1463">
        <ele>1922.2</ele>
        <time>2026-08-09T08:41:04Z</time>
      </trkpt>
      <trkpt lat="45.08454" lon="6.14633">
        <ele>1922.6</ele>
        <time>2026-08-09T08:41:06Z</time>
      </trkpt>
      <trkpt lat="45.08457" lon="6.14637">
        <ele>1922.8</ele>
        <time>2026-08-09T08:41:08Z</time>
      </trkpt>
      <trkpt lat="45.0846" lon="6.14642">
        <ele>1923</ele>
        <time>2026-08-09T08:41:10Z</time>
      </trkpt>
      <trkpt lat="45.08463" lon="6.14646">
        <ele>1923.2</ele>
        <time>2026-08-09T08:41:12Z</time>
      </trkpt>
      <trkpt lat="45.08466" lon="6.1465">
        <ele>1923.4</ele>
        <time>2026-08-09T08:41:14Z</time>
      </trkpt>
      <trkpt lat="45.08469" lon="6.14655">
        <ele>1923.8</ele>
        <time>2026-08-09T08:41:16Z</time>
      </trkpt>
      <trkpt lat="45.08472" lon="6.14659">
        <ele>1924</ele>
        <time>2026-08-09T08:41:18Z</time>
      </trkpt>
      <trkpt lat="45.08474" lon="6.14663">
        <ele>1924.4</ele>
        <time>2026-08-09T08:41:20Z</time>
      </trkpt>
      <trkpt lat="45.08477" lon="6.14668">
        <ele>1924.6</ele>
        <time>2026-08-09T08:41:22Z</time>
      </trkpt>
      <trkpt lat="45.0848" lon="6.14671">
        <ele>1924.8</ele>
        <time>2026-08-09T08:41:24Z</time>
      </trkpt>
      <trkpt lat="45.08482" lon="6.14676">
        <ele>1924.8</ele>
        <time>2026-08-09T08:41:26Z</time>
      </trkpt>
      <trkpt lat="45.08485" lon="6.1468">
        <ele>1925</ele>
        <time>2026-08-09T08:41:28Z</time>
      </trkpt>
      <trkpt lat="45.08488" lon="6.14685">
        <ele>1925</ele>
        <time>2026-08-09T08:41:30Z</time>
      </trkpt>
      <trkpt lat="45.08491" lon="6.1469">
        <ele>1925.2</ele>
        <time>2026-08-09T08:41:32Z</time>
      </trkpt>
      <trkpt lat="45.08494" lon="6.14694">
        <ele>1925.4</ele>
        <time>2026-08-09T08:41:34Z</time>
      </trkpt>
      <trkpt lat="45.08497" lon="6.14698">
        <ele>1925.8</ele>
        <time>2026-08-09T08:41:36Z</time>
      </trkpt>
      <trkpt lat="45.08499" lon="6.14702">
        <ele>1926.4</ele>
        <time>2026-08-09T08:41:38Z</time>
      </trkpt>
      <trkpt lat="45.08502" lon="6.14706">
        <ele>1926.6</ele>
        <time>2026-08-09T08:41:40Z</time>
      </trkpt>
      <trkpt lat="45.08503" lon="6.14708">
        <ele>1926.8</ele>
        <time>2026-08-09T08:41:41Z</time>
      </trkpt>
      <trkpt lat="45.08504" lon="6.1471">
        <ele>1926.8</ele>
        <time>2026-08-09T08:41:42Z</time>
      </trkpt>
      <trkpt lat="45.08507" lon="6.14713">
        <ele>1927</ele>
        <time>2026-08-09T08:41:44Z</time>
      </trkpt>
      <trkpt lat="45.0851" lon="6.14717">
        <ele>1927.2</ele>
        <time>2026-08-09T08:41:46Z</time>
      </trkpt>
      <trkpt lat="45.08513" lon="6.1472">
        <ele>1927.4</ele>
        <time>2026-08-09T08:41:48Z</time>
      </trkpt>
      <trkpt lat="45.08516" lon="6.14723">
        <ele>1927.6</ele>
        <time>2026-08-09T08:41:50Z</time>
      </trkpt>
      <trkpt lat="45.08518" lon="6.14725">
        <ele>1927.8</ele>
        <time>2026-08-09T08:41:51Z</time>
      </trkpt>
      <trkpt lat="45.0852" lon="6.14727">
        <ele>1928</ele>
        <time>2026-08-09T08:41:52Z</time>
      </trkpt>
      <trkpt lat="45.08524" lon="6.1473">
        <ele>1928.4</ele>
        <time>2026-08-09T08:41:54Z</time>
      </trkpt>
      <trkpt lat="45.08527" lon="6.14733">
        <ele>1928.6</ele>
        <time>2026-08-09T08:41:56Z</time>
      </trkpt>
      <trkpt lat="45.08531" lon="6.14736">
        <ele>1928.6</ele>
        <time>2026-08-09T08:41:58Z</time>
      </trkpt>
      <trkpt lat="45.08533" lon="6.14738">
        <ele>1928.8</ele>
        <time>2026-08-09T08:41:59Z</time>
      </trkpt>
      <trkpt lat="45.08534" lon="6.14739">
        <ele>1928.8</ele>
        <time>2026-08-09T08:42:00Z</time>
      </trkpt>
      <trkpt lat="45.08538" lon="6.14742">
        <ele>1929.2</ele>
        <time>2026-08-09T08:42:02Z</time>
      </trkpt>
      <trkpt lat="45.08539" lon="6.14743">
        <ele>1929.2</ele>
        <time>2026-08-09T08:42:03Z</time>
      </trkpt>
      <trkpt lat="45.08541" lon="6.14744">
        <ele>1929.4</ele>
        <time>2026-08-09T08:42:04Z</time>
      </trkpt>
      <trkpt lat="45.08544" lon="6.14747">
        <ele>1929.8</ele>
        <time>2026-08-09T08:42:06Z</time>
      </trkpt>
      <trkpt lat="45.08548" lon="6.1475">
        <ele>1930</ele>
        <time>2026-08-09T08:42:08Z</time>
      </trkpt>
      <trkpt lat="45.08552" lon="6.14754">
        <ele>1930.2</ele>
        <time>2026-08-09T08:42:10Z</time>
      </trkpt>
      <trkpt lat="45.08553" lon="6.14756">
        <ele>1930.4</ele>
        <time>2026-08-09T08:42:11Z</time>
      </trkpt>
      <trkpt lat="45.08555" lon="6.14758">
        <ele>1930.4</ele>
        <time>2026-08-09T08:42:12Z</time>
      </trkpt>
      <trkpt lat="45.08558" lon="6.14761">
        <ele>1930.6</ele>
        <time>2026-08-09T08:42:14Z</time>
      </trkpt>
      <trkpt lat="45.08561" lon="6.14764">
        <ele>1930.8</ele>
        <time>2026-08-09T08:42:16Z</time>
      </trkpt>
      <trkpt lat="45.08564" lon="6.14767">
        <ele>1931.2</ele>
        <time>2026-08-09T08:42:18Z</time>
      </trkpt>
      <trkpt lat="45.08567" lon="6.1477">
        <ele>1931.4</ele>
        <time>2026-08-09T08:42:20Z</time>
      </trkpt>
      <trkpt lat="45.0857" lon="6.14773">
        <ele>1931.8</ele>
        <time>2026-08-09T08:42:22Z</time>
      </trkpt>
      <trkpt lat="45.08573" lon="6.14777">
        <ele>1932.2</ele>
        <time>2026-08-09T08:42:24Z</time>
      </trkpt>
      <trkpt lat="45.08575" lon="6.14778">
        <ele>1932.4</ele>
        <time>2026-08-09T08:42:25Z</time>
      </trkpt>
      <trkpt lat="45.08576" lon="6.14779">
        <ele>1932.6</ele>
        <time>2026-08-09T08:42:26Z</time>
      </trkpt>
      <trkpt lat="45.08579" lon="6.14783">
        <ele>1932.8</ele>
        <time>2026-08-09T08:42:28Z</time>
      </trkpt>
      <trkpt lat="45.08581" lon="6.14787">
        <ele>1933.2</ele>
        <time>2026-08-09T08:42:30Z</time>
      </trkpt>
      <trkpt lat="45.08584" lon="6.1479">
        <ele>1933.6</ele>
        <time>2026-08-09T08:42:32Z</time>
      </trkpt>
      <trkpt lat="45.08586" lon="6.14792">
        <ele>1933.8</ele>
        <time>2026-08-09T08:42:34Z</time>
      </trkpt>
      <trkpt lat="45.08588" lon="6.14794">
        <ele>1933.8</ele>
        <time>2026-08-09T08:42:36Z</time>
      </trkpt>
      <trkpt lat="45.0859" lon="6.14796">
        <ele>1934</ele>
        <time>2026-08-09T08:42:38Z</time>
      </trkpt>
      <trkpt lat="45.08591" lon="6.14796">
        <ele>1934.2</ele>
        <time>2026-08-09T08:42:39Z</time>
      </trkpt>
      <trkpt lat="45.08592" lon="6.14797">
        <ele>1934.2</ele>
        <time>2026-08-09T08:42:40Z</time>
      </trkpt>
      <trkpt lat="45.08593" lon="6.14797">
        <ele>1934.4</ele>
        <time>2026-08-09T08:42:41Z</time>
      </trkpt>
      <trkpt lat="45.08594" lon="6.14797">
        <ele>1934.4</ele>
        <time>2026-08-09T08:42:42Z</time>
      </trkpt>
      <trkpt lat="45.08597" lon="6.14795">
        <ele>1934.6</ele>
        <time>2026-08-09T08:42:44Z</time>
      </trkpt>
      <trkpt lat="45.08598" lon="6.14794">
        <ele>1934.6</ele>
        <time>2026-08-09T08:42:45Z</time>
      </trkpt>
      <trkpt lat="45.08599" lon="6.14792">
        <ele>1934.6</ele>
        <time>2026-08-09T08:42:46Z</time>
      </trkpt>
      <trkpt lat="45.08601" lon="6.14788">
        <ele>1934.6</ele>
        <time>2026-08-09T08:42:48Z</time>
      </trkpt>
      <trkpt lat="45.08601" lon="6.14787">
        <ele>1934.6</ele>
        <time>2026-08-09T08:42:50Z</time>
      </trkpt>
      <trkpt lat="45.08601" lon="6.14787">
        <ele>1934.8</ele>
        <time>2026-08-09T08:42:52Z</time>
      </trkpt>
      <trkpt lat="45.08601" lon="6.14787">
        <ele>1934.8</ele>
        <time>2026-08-09T08:42:54Z</time>
      </trkpt>
      <trkpt lat="45.08601" lon="6.14787">
        <ele>1935</ele>
        <time>2026-08-09T08:42:56Z</time>
      </trkpt>
      <trkpt lat="45.08601" lon="6.14787">
        <ele>1935</ele>
        <time>2026-08-09T08:42:58Z</time>
      </trkpt>
      <trkpt lat="45.08601" lon="6.14787">
        <ele>1935</ele>
        <time>2026-08-09T08:43:00Z</time>
      </trkpt>
      <trkpt lat="45.08601" lon="6.14787">
        <ele>1935</ele>
        <time>2026-08-09T08:43:02Z</time>
      </trkpt>
      <trkpt lat="45.08601" lon="6.14785">
        <ele>1935</ele>
        <time>2026-08-09T08:43:04Z</time>
      </trkpt>
      <trkpt lat="45.08602" lon="6.14784">
        <ele>1935</ele>
        <time>2026-08-09T08:43:05Z</time>
      </trkpt>
      <trkpt lat="45.08602" lon="6.14782">
        <ele>1935</ele>
        <time>2026-08-09T08:43:06Z</time>
      </trkpt>
      <trkpt lat="45.08603" lon="6.14778">
        <ele>1935</ele>
        <time>2026-08-09T08:43:08Z</time>
      </trkpt>
      <trkpt lat="45.08604" lon="6.14773">
        <ele>1935</ele>
        <time>2026-08-09T08:43:10Z</time>
      </trkpt>
      <trkpt lat="45.08605" lon="6.14768">
        <ele>1934.6</ele>
        <time>2026-08-09T08:43:12Z</time>
      </trkpt>
      <trkpt lat="45.08607" lon="6.14763">
        <ele>1934.4</ele>
        <time>2026-08-09T08:43:14Z</time>
      </trkpt>
      <trkpt lat="45.08608" lon="6.14759">
        <ele>1934.2</ele>
        <time>2026-08-09T08:43:16Z</time>
      </trkpt>
      <trkpt lat="45.08609" lon="6.14753">
        <ele>1934</ele>
        <time>2026-08-09T08:43:18Z</time>
      </trkpt>
      <trkpt lat="45.0861" lon="6.14748">
        <ele>1933.8</ele>
        <time>2026-08-09T08:43:20Z</time>
      </trkpt>
      <trkpt lat="45.0861" lon="6.14748">
        <ele>1933.8</ele>
        <time>2026-08-09T08:43:21Z</time>
      </trkpt>
      <trkpt lat="45.0861" lon="6.14747">
        <ele>1933.8</ele>
        <time>2026-08-09T08:43:22Z</time>
      </trkpt>
      <trkpt lat="45.0861" lon="6.14746">
        <ele>1933.8</ele>
        <time>2026-08-09T08:43:24Z</time>
      </trkpt>
      <trkpt lat="45.08609" lon="6.14745">
        <ele>1933.6</ele>
        <time>2026-08-09T08:43:26Z</time>
      </trkpt>
      <trkpt lat="45.0861" lon="6.14744">
        <ele>1933.6</ele>
        <time>2026-08-09T08:43:28Z</time>
      </trkpt>
      <trkpt lat="45.0861" lon="6.14744">
        <ele>1933.6</ele>
        <time>2026-08-09T08:43:30Z</time>
      </trkpt>
      <trkpt lat="45.0861" lon="6.14743">
        <ele>1933.8</ele>
        <time>2026-08-09T08:43:32Z</time>
      </trkpt>
      <trkpt lat="45.0861" lon="6.14744">
        <ele>1934</ele>
        <time>2026-08-09T08:43:34Z</time>
      </trkpt>
      <trkpt lat="45.0861" lon="6.14744">
        <ele>1934</ele>
        <time>2026-08-09T08:43:36Z</time>
      </trkpt>
      <trkpt lat="45.0861" lon="6.14743">
        <ele>1934.2</ele>
        <time>2026-08-09T08:43:38Z</time>
      </trkpt>
      <trkpt lat="45.0861" lon="6.14743">
        <ele>1934.2</ele>
        <time>2026-08-09T08:43:39Z</time>
      </trkpt>
      <trkpt lat="45.0861" lon="6.14743">
        <ele>1934.4</ele>
        <time>2026-08-09T08:43:40Z</time>
      </trkpt>
      <trkpt lat="45.0861" lon="6.14743">
        <ele>1934.4</ele>
        <time>2026-08-09T08:43:42Z</time>
      </trkpt>
      <trkpt lat="45.0861" lon="6.14743">
        <ele>1934.4</ele>
        <time>2026-08-09T08:43:44Z</time>
      </trkpt>
      <trkpt lat="45.0861" lon="6.14743">
        <ele>1934.4</ele>
        <time>2026-08-09T08:43:46Z</time>
      </trkpt>
      <trkpt lat="45.0861" lon="6.14743">
        <ele>1934.6</ele>
        <time>2026-08-09T08:43:48Z</time>
      </trkpt>
      <trkpt lat="45.0861" lon="6.14743">
        <ele>1934.6</ele>
        <time>2026-08-09T08:43:50Z</time>
      </trkpt>
      <trkpt lat="45.0861" lon="6.14743">
        <ele>1934.6</ele>
        <time>2026-08-09T08:43:52Z</time>
      </trkpt>
      <trkpt lat="45.0861" lon="6.14743">
        <ele>1934.4</ele>
        <time>2026-08-09T08:43:54Z</time>
      </trkpt>
      <trkpt lat="45.0861" lon="6.14743">
        <ele>1934.4</ele>
        <time>2026-08-09T08:43:56Z</time>
      </trkpt>
      <trkpt lat="45.0861" lon="6.14743">
        <ele>1934.2</ele>
        <time>2026-08-09T08:43:58Z</time>
      </trkpt>
      <trkpt lat="45.0861" lon="6.14743">
        <ele>1934.2</ele>
        <time>2026-08-09T08:44:00Z</time>
      </trkpt>
      <trkpt lat="45.0861" lon="6.14743">
        <ele>1934.2</ele>
        <time>2026-08-09T08:44:02Z</time>
      </trkpt>
      <trkpt lat="45.0861" lon="6.14743">
        <ele>1934.2</ele>
        <time>2026-08-09T08:44:04Z</time>
      </trkpt>
      <trkpt lat="45.0861" lon="6.14743">
        <ele>1934</ele>
        <time>2026-08-09T08:44:05Z</time>
      </trkpt>
      <trkpt lat="45.0861" lon="6.14743">
        <ele>1934</ele>
        <time>2026-08-09T08:44:06Z</time>
      </trkpt>
      <trkpt lat="45.0861" lon="6.14743">
        <ele>1934</ele>
        <time>2026-08-09T08:44:08Z</time>
      </trkpt>
      <trkpt lat="45.0861" lon="6.14743">
        <ele>1934</ele>
        <time>2026-08-09T08:44:10Z</time>
      </trkpt>
      <trkpt lat="45.0861" lon="6.14743">
        <ele>1934</ele>
        <time>2026-08-09T08:44:12Z</time>
      </trkpt>
      <trkpt lat="45.0861" lon="6.14743">
        <ele>1934</ele>
        <time>2026-08-09T08:44:14Z</time>
      </trkpt>
      <trkpt lat="45.0861" lon="6.14743">
        <ele>1934</ele>
        <time>2026-08-09T08:44:16Z</time>
      </trkpt>
      <trkpt lat="45.0861" lon="6.14743">
        <ele>1934</ele>
        <time>2026-08-09T08:44:18Z</time>
      </trkpt>
      <trkpt lat="45.0861" lon="6.14743">
        <ele>1934</ele>
        <time>2026-08-09T08:44:20Z</time>
      </trkpt>
      <trkpt lat="45.0861" lon="6.14743">
        <ele>1934</ele>
        <time>2026-08-09T08:44:22Z</time>
      </trkpt>
      <trkpt lat="45.0861" lon="6.14743">
        <ele>1934</ele>
        <time>2026-08-09T08:44:24Z</time>
      </trkpt>
      <trkpt lat="45.0861" lon="6.14743">
        <ele>1934</ele>
        <time>2026-08-09T08:44:26Z</time>
      </trkpt>
      <trkpt lat="45.0861" lon="6.14743">
        <ele>1934</ele>
        <time>2026-08-09T08:44:28Z</time>
      </trkpt>
      <trkpt lat="45.0861" lon="6.14743">
        <ele>1934</ele>
        <time>2026-08-09T08:44:30Z</time>
      </trkpt>
      <trkpt lat="45.0861" lon="6.14743">
        <ele>1934</ele>
        <time>2026-08-09T08:44:32Z</time>
      </trkpt>
      <trkpt lat="45.08609" lon="6.14745">
        <ele>1934</ele>
        <time>2026-08-09T08:44:34Z</time>
      </trkpt>
      <trkpt lat="45.08609" lon="6.14745">
        <ele>1934</ele>
        <time>2026-08-09T08:44:35Z</time>
      </trkpt>
      <trkpt lat="45.08609" lon="6.14745">
        <ele>1934</ele>
        <time>2026-08-09T08:44:36Z</time>
      </trkpt>
      <trkpt lat="45.08609" lon="6.14745">
        <ele>1934</ele>
        <time>2026-08-09T08:44:38Z</time>
      </trkpt>
      <trkpt lat="45.08609" lon="6.14745">
        <ele>1933.8</ele>
        <time>2026-08-09T08:44:40Z</time>
      </trkpt>
      <trkpt lat="45.08609" lon="6.14745">
        <ele>1933.8</ele>
        <time>2026-08-09T08:44:42Z</time>
      </trkpt>
      <trkpt lat="45.08609" lon="6.14745">
        <ele>1933.6</ele>
        <time>2026-08-09T08:44:44Z</time>
      </trkpt>
      <trkpt lat="45.08609" lon="6.14745">
        <ele>1933.6</ele>
        <time>2026-08-09T08:44:46Z</time>
      </trkpt>
      <trkpt lat="45.08609" lon="6.14745">
        <ele>1933.6</ele>
        <time>2026-08-09T08:44:48Z</time>
      </trkpt>
      <trkpt lat="45.08609" lon="6.14745">
        <ele>1933.6</ele>
        <time>2026-08-09T08:44:50Z</time>
      </trkpt>
      <trkpt lat="45.08609" lon="6.14745">
        <ele>1933.6</ele>
        <time>2026-08-09T08:44:52Z</time>
      </trkpt>
      <trkpt lat="45.08609" lon="6.14745">
        <ele>1933.6</ele>
        <time>2026-08-09T08:44:53Z</time>
      </trkpt>
      <trkpt lat="45.08609" lon="6.14745">
        <ele>1933.6</ele>
        <time>2026-08-09T08:44:54Z</time>
      </trkpt>
      <trkpt lat="45.08609" lon="6.14745">
        <ele>1933.6</ele>
        <time>2026-08-09T08:44:56Z</time>
      </trkpt>
      <trkpt lat="45.08609" lon="6.14745">
        <ele>1933.6</ele>
        <time>2026-08-09T08:44:58Z</time>
      </trkpt>
      <trkpt lat="45.08609" lon="6.14745">
        <ele>1933.6</ele>
        <time>2026-08-09T08:45:00Z</time>
      </trkpt>
      <trkpt lat="45.08609" lon="6.14745">
        <ele>1933.6</ele>
        <time>2026-08-09T08:45:02Z</time>
      </trkpt>
      <trkpt lat="45.08609" lon="6.14745">
        <ele>1933.8</ele>
        <time>2026-08-09T08:45:04Z</time>
      </trkpt>
      <trkpt lat="45.08609" lon="6.14745">
        <ele>1933.8</ele>
        <time>2026-08-09T08:45:06Z</time>
      </trkpt>
      <trkpt lat="45.0861" lon="6.14745">
        <ele>1933.8</ele>
        <time>2026-08-09T08:45:08Z</time>
      </trkpt>
      <trkpt lat="45.0861" lon="6.14745">
        <ele>1933.8</ele>
        <time>2026-08-09T08:45:10Z</time>
      </trkpt>
      <trkpt lat="45.0861" lon="6.14745">
        <ele>1933.6</ele>
        <time>2026-08-09T08:45:12Z</time>
      </trkpt>
      <trkpt lat="45.0861" lon="6.14745">
        <ele>1933.6</ele>
        <time>2026-08-09T08:45:14Z</time>
      </trkpt>
      <trkpt lat="45.0861" lon="6.14745">
        <ele>1933.6</ele>
        <time>2026-08-09T08:45:16Z</time>
      </trkpt>
      <trkpt lat="45.0861" lon="6.14745">
        <ele>1933.6</ele>
        <time>2026-08-09T08:45:18Z</time>
      </trkpt>
      <trkpt lat="45.0861" lon="6.14745">
        <ele>1933.6</ele>
        <time>2026-08-09T08:45:20Z</time>
      </trkpt>
      <trkpt lat="45.0861" lon="6.14745">
        <ele>1933.6</ele>
        <time>2026-08-09T08:45:22Z</time>
      </trkpt>
      <trkpt lat="45.0861" lon="6.14745">
        <ele>1933.6</ele>
        <time>2026-08-09T08:45:24Z</time>
      </trkpt>
      <trkpt lat="45.0861" lon="6.14745">
        <ele>1933.6</ele>
        <time>2026-08-09T08:45:26Z</time>
      </trkpt>
      <trkpt lat="45.0861" lon="6.14745">
        <ele>1933.6</ele>
        <time>2026-08-09T08:45:28Z</time>
      </trkpt>
      <trkpt lat="45.0861" lon="6.14745">
        <ele>1933.8</ele>
        <time>2026-08-09T08:45:30Z</time>
      </trkpt>
      <trkpt lat="45.0861" lon="6.14745">
        <ele>1933.8</ele>
        <time>2026-08-09T08:45:32Z</time>
      </trkpt>
      <trkpt lat="45.0861" lon="6.14745">
        <ele>1933.8</ele>
        <time>2026-08-09T08:45:34Z</time>
      </trkpt>
      <trkpt lat="45.0861" lon="6.14745">
        <ele>1933.8</ele>
        <time>2026-08-09T08:45:36Z</time>
      </trkpt>
      <trkpt lat="45.0861" lon="6.14745">
        <ele>1933.8</ele>
        <time>2026-08-09T08:45:38Z</time>
      </trkpt>
      <trkpt lat="45.0861" lon="6.14745">
        <ele>1933.8</ele>
        <time>2026-08-09T08:45:40Z</time>
      </trkpt>
      <trkpt lat="45.0861" lon="6.14745">
        <ele>1933.8</ele>
        <time>2026-08-09T08:45:41Z</time>
      </trkpt>
      <trkpt lat="45.0861" lon="6.14745">
        <ele>1933.8</ele>
        <time>2026-08-09T08:45:42Z</time>
      </trkpt>
      <trkpt lat="45.0861" lon="6.14745">
        <ele>1933.6</ele>
        <time>2026-08-09T08:45:44Z</time>
      </trkpt>
      <trkpt lat="45.0861" lon="6.14745">
        <ele>1933.6</ele>
        <time>2026-08-09T08:45:46Z</time>
      </trkpt>
      <trkpt lat="45.0861" lon="6.14745">
        <ele>1933.6</ele>
        <time>2026-08-09T08:45:48Z</time>
      </trkpt>
      <trkpt lat="45.0861" lon="6.14745">
        <ele>1933.6</ele>
        <time>2026-08-09T08:45:50Z</time>
      </trkpt>
      <trkpt lat="45.0861" lon="6.14745">
        <ele>1933.4</ele>
        <time>2026-08-09T08:45:52Z</time>
      </trkpt>
      <trkpt lat="45.0861" lon="6.14745">
        <ele>1933.4</ele>
        <time>2026-08-09T08:45:54Z</time>
      </trkpt>
      <trkpt lat="45.0861" lon="6.14745">
        <ele>1933.4</ele>
        <time>2026-08-09T08:45:56Z</time>
      </trkpt>
      <trkpt lat="45.0861" lon="6.14745">
        <ele>1933.4</ele>
        <time>2026-08-09T08:45:58Z</time>
      </trkpt>
      <trkpt lat="45.0861" lon="6.14745">
        <ele>1933.4</ele>
        <time>2026-08-09T08:46:00Z</time>
      </trkpt>
      <trkpt lat="45.0861" lon="6.14745">
        <ele>1933.4</ele>
        <time>2026-08-09T08:46:02Z</time>
      </trkpt>
      <trkpt lat="45.0861" lon="6.14745">
        <ele>1933.4</ele>
        <time>2026-08-09T08:46:04Z</time>
      </trkpt>
      <trkpt lat="45.0861" lon="6.14745">
        <ele>1933.4</ele>
        <time>2026-08-09T08:46:06Z</time>
      </trkpt>
      <trkpt lat="45.0861" lon="6.14745">
        <ele>1933.4</ele>
        <time>2026-08-09T08:46:08Z</time>
      </trkpt>
      <trkpt lat="45.0861" lon="6.14745">
        <ele>1933.4</ele>
        <time>2026-08-09T08:46:10Z</time>
      </trkpt>
      <trkpt lat="45.0861" lon="6.14745">
        <ele>1933.4</ele>
        <time>2026-08-09T08:46:12Z</time>
      </trkpt>
      <trkpt lat="45.0861" lon="6.14745">
        <ele>1933.4</ele>
        <time>2026-08-09T08:46:14Z</time>
      </trkpt>
      <trkpt lat="45.0861" lon="6.14745">
        <ele>1933.4</ele>
        <time>2026-08-09T08:46:16Z</time>
      </trkpt>
      <trkpt lat="45.0861" lon="6.14745">
        <ele>1933.4</ele>
        <time>2026-08-09T08:46:18Z</time>
      </trkpt>
      <trkpt lat="45.0861" lon="6.14745">
        <ele>1933.4</ele>
        <time>2026-08-09T08:46:20Z</time>
      </trkpt>
      <trkpt lat="45.0861" lon="6.14745">
        <ele>1933.4</ele>
        <time>2026-08-09T08:46:22Z</time>
      </trkpt>
      <trkpt lat="45.0861" lon="6.14745">
        <ele>1933.4</ele>
        <time>2026-08-09T08:46:24Z</time>
      </trkpt>
      <trkpt lat="45.0861" lon="6.14745">
        <ele>1933.4</ele>
        <time>2026-08-09T08:46:26Z</time>
      </trkpt>
      <trkpt lat="45.0861" lon="6.14745">
        <ele>1933.4</ele>
        <time>2026-08-09T08:46:28Z</time>
      </trkpt>
      <trkpt lat="45.0861" lon="6.14745">
        <ele>1933.4</ele>
        <time>2026-08-09T08:46:30Z</time>
      </trkpt>
      <trkpt lat="45.0861" lon="6.14745">
        <ele>1933.4</ele>
        <time>2026-08-09T08:46:32Z</time>
      </trkpt>
      <trkpt lat="45.0861" lon="6.14745">
        <ele>1933.4</ele>
        <time>2026-08-09T08:46:33Z</time>
      </trkpt>
      <trkpt lat="45.0861" lon="6.14745">
        <ele>1933.6</ele>
        <time>2026-08-09T08:46:34Z</time>
      </trkpt>
      <trkpt lat="45.0861" lon="6.14745">
        <ele>1933.6</ele>
        <time>2026-08-09T08:46:36Z</time>
      </trkpt>
      <trkpt lat="45.0861" lon="6.14745">
        <ele>1933.6</ele>
        <time>2026-08-09T08:46:38Z</time>
      </trkpt>
      <trkpt lat="45.0861" lon="6.14745">
        <ele>1933.6</ele>
        <time>2026-08-09T08:46:39Z</time>
      </trkpt>
      <trkpt lat="45.0861" lon="6.14745">
        <ele>1933.6</ele>
        <time>2026-08-09T08:46:40Z</time>
      </trkpt>
      <trkpt lat="45.0861" lon="6.14745">
        <ele>1933.6</ele>
        <time>2026-08-09T08:46:42Z</time>
      </trkpt>
      <trkpt lat="45.0861" lon="6.14745">
        <ele>1933.6</ele>
        <time>2026-08-09T08:46:44Z</time>
      </trkpt>
      <trkpt lat="45.0861" lon="6.14745">
        <ele>1933.6</ele>
        <time>2026-08-09T08:46:46Z</time>
      </trkpt>
      <trkpt lat="45.0861" lon="6.14745">
        <ele>1933.6</ele>
        <time>2026-08-09T08:46:48Z</time>
      </trkpt>
      <trkpt lat="45.0861" lon="6.14745">
        <ele>1933.6</ele>
        <time>2026-08-09T08:46:50Z</time>
      </trkpt>
      <trkpt lat="45.0861" lon="6.14745">
        <ele>1933.6</ele>
        <time>2026-08-09T08:46:52Z</time>
      </trkpt>
      <trkpt lat="45.0861" lon="6.14745">
        <ele>1933.6</ele>
        <time>2026-08-09T08:46:54Z</time>
      </trkpt>
      <trkpt lat="45.0861" lon="6.14745">
        <ele>1933.6</ele>
        <time>2026-08-09T08:46:56Z</time>
      </trkpt>
      <trkpt lat="45.0861" lon="6.14745">
        <ele>1933.6</ele>
        <time>2026-08-09T08:46:58Z</time>
      </trkpt>
      <trkpt lat="45.0861" lon="6.14745">
        <ele>1933.6</ele>
        <time>2026-08-09T08:47:00Z</time>
      </trkpt>
      <trkpt lat="45.0861" lon="6.14745">
        <ele>1933.6</ele>
        <time>2026-08-09T08:47:02Z</time>
      </trkpt>
      <trkpt lat="45.0861" lon="6.14745">
        <ele>1933.6</ele>
        <time>2026-08-09T08:47:04Z</time>
      </trkpt>
      <trkpt lat="45.0861" lon="6.14745">
        <ele>1933.8</ele>
        <time>2026-08-09T08:47:06Z</time>
      </trkpt>
      <trkpt lat="45.0861" lon="6.14745">
        <ele>1933.8</ele>
        <time>2026-08-09T08:47:08Z</time>
      </trkpt>
      <trkpt lat="45.0861" lon="6.14745">
        <ele>1933.8</ele>
        <time>2026-08-09T08:47:10Z</time>
      </trkpt>
      <trkpt lat="45.0861" lon="6.14745">
        <ele>1933.8</ele>
        <time>2026-08-09T08:47:12Z</time>
      </trkpt>
      <trkpt lat="45.0861" lon="6.14745">
        <ele>1933.8</ele>
        <time>2026-08-09T08:47:14Z</time>
      </trkpt>
      <trkpt lat="45.0861" lon="6.14745">
        <ele>1933.8</ele>
        <time>2026-08-09T08:47:16Z</time>
      </trkpt>
      <trkpt lat="45.0861" lon="6.14745">
        <ele>1933.8</ele>
        <time>2026-08-09T08:47:18Z</time>
      </trkpt>
      <trkpt lat="45.0861" lon="6.14745">
        <ele>1933.6</ele>
        <time>2026-08-09T08:47:20Z</time>
      </trkpt>
      <trkpt lat="45.0861" lon="6.14745">
        <ele>1933.6</ele>
        <time>2026-08-09T08:47:22Z</time>
      </trkpt>
      <trkpt lat="45.0861" lon="6.14745">
        <ele>1933.6</ele>
        <time>2026-08-09T08:47:24Z</time>
      </trkpt>
      <trkpt lat="45.0861" lon="6.14745">
        <ele>1933.6</ele>
        <time>2026-08-09T08:47:26Z</time>
      </trkpt>
      <trkpt lat="45.0861" lon="6.14745">
        <ele>1933.6</ele>
        <time>2026-08-09T08:47:28Z</time>
      </trkpt>
      <trkpt lat="45.0861" lon="6.14745">
        <ele>1933.6</ele>
        <time>2026-08-09T08:47:30Z</time>
      </trkpt>
      <trkpt lat="45.0861" lon="6.14745">
        <ele>1933.6</ele>
        <time>2026-08-09T08:47:32Z</time>
      </trkpt>
      <trkpt lat="45.0861" lon="6.14745">
        <ele>1933.6</ele>
        <time>2026-08-09T08:47:34Z</time>
      </trkpt>
      <trkpt lat="45.0861" lon="6.14745">
        <ele>1933.6</ele>
        <time>2026-08-09T08:47:36Z</time>
      </trkpt>
      <trkpt lat="45.0861" lon="6.14745">
        <ele>1933.6</ele>
        <time>2026-08-09T08:47:38Z</time>
      </trkpt>
      <trkpt lat="45.0861" lon="6.14745">
        <ele>1933.6</ele>
        <time>2026-08-09T08:47:40Z</time>
      </trkpt>
      <trkpt lat="45.0861" lon="6.14745">
        <ele>1933.6</ele>
        <time>2026-08-09T08:47:42Z</time>
      </trkpt>
      <trkpt lat="45.0861" lon="6.14745">
        <ele>1933.6</ele>
        <time>2026-08-09T08:47:44Z</time>
      </trkpt>
      <trkpt lat="45.0861" lon="6.14745">
        <ele>1933.6</ele>
        <time>2026-08-09T08:47:46Z</time>
      </trkpt>
      <trkpt lat="45.0861" lon="6.14745">
        <ele>1933.6</ele>
        <time>2026-08-09T08:47:48Z</time>
      </trkpt>
      <trkpt lat="45.0861" lon="6.14745">
        <ele>1933.6</ele>
        <time>2026-08-09T08:47:50Z</time>
      </trkpt>
      <trkpt lat="45.0861" lon="6.14745">
        <ele>1933.6</ele>
        <time>2026-08-09T08:47:52Z</time>
      </trkpt>
      <trkpt lat="45.0861" lon="6.14745">
        <ele>1933.4</ele>
        <time>2026-08-09T08:47:54Z</time>
      </trkpt>
      <trkpt lat="45.0861" lon="6.14745">
        <ele>1933.4</ele>
        <time>2026-08-09T08:47:56Z</time>
      </trkpt>
      <trkpt lat="45.0861" lon="6.14745">
        <ele>1933.4</ele>
        <time>2026-08-09T08:47:58Z</time>
      </trkpt>
      <trkpt lat="45.0861" lon="6.14745">
        <ele>1933.4</ele>
        <time>2026-08-09T08:48:00Z</time>
      </trkpt>
      <trkpt lat="45.0861" lon="6.14745">
        <ele>1933.4</ele>
        <time>2026-08-09T08:48:02Z</time>
      </trkpt>
      <trkpt lat="45.0861" lon="6.14745">
        <ele>1933.4</ele>
        <time>2026-08-09T08:48:04Z</time>
      </trkpt>
      <trkpt lat="45.0861" lon="6.14745">
        <ele>1933.6</ele>
        <time>2026-08-09T08:48:06Z</time>
      </trkpt>
      <trkpt lat="45.0861" lon="6.14745">
        <ele>1933.6</ele>
        <time>2026-08-09T08:48:07Z</time>
      </trkpt>
      <trkpt lat="45.0861" lon="6.14745">
        <ele>1933.6</ele>
        <time>2026-08-09T08:48:08Z</time>
      </trkpt>
      <trkpt lat="45.0861" lon="6.14745">
        <ele>1933.6</ele>
        <time>2026-08-09T08:48:10Z</time>
      </trkpt>
      <trkpt lat="45.0861" lon="6.14745">
        <ele>1933.8</ele>
        <time>2026-08-09T08:48:12Z</time>
      </trkpt>
      <trkpt lat="45.0861" lon="6.14745">
        <ele>1933.8</ele>
        <time>2026-08-09T08:48:13Z</time>
      </trkpt>
      <trkpt lat="45.0861" lon="6.14745">
        <ele>1933.8</ele>
        <time>2026-08-09T08:48:14Z</time>
      </trkpt>
      <trkpt lat="45.0861" lon="6.14745">
        <ele>1933.8</ele>
        <time>2026-08-09T08:48:16Z</time>
      </trkpt>
      <trkpt lat="45.0861" lon="6.14745">
        <ele>1933.8</ele>
        <time>2026-08-09T08:48:18Z</time>
      </trkpt>
      <trkpt lat="45.0861" lon="6.14745">
        <ele>1933.8</ele>
        <time>2026-08-09T08:48:20Z</time>
      </trkpt>
      <trkpt lat="45.0861" lon="6.14745">
        <ele>1933.8</ele>
        <time>2026-08-09T08:48:22Z</time>
      </trkpt>
      <trkpt lat="45.0861" lon="6.14745">
        <ele>1933.8</ele>
        <time>2026-08-09T08:48:24Z</time>
      </trkpt>
      <trkpt lat="45.0861" lon="6.14745">
        <ele>1933.8</ele>
        <time>2026-08-09T08:48:26Z</time>
      </trkpt>
      <trkpt lat="45.0861" lon="6.14745">
        <ele>1933.8</ele>
        <time>2026-08-09T08:48:28Z</time>
      </trkpt>
      <trkpt lat="45.0861" lon="6.14745">
        <ele>1933.8</ele>
        <time>2026-08-09T08:48:30Z</time>
      </trkpt>
      <trkpt lat="45.0861" lon="6.14745">
        <ele>1933.8</ele>
        <time>2026-08-09T08:48:32Z</time>
      </trkpt>
      <trkpt lat="45.0861" lon="6.14745">
        <ele>1933.8</ele>
        <time>2026-08-09T08:48:34Z</time>
      </trkpt>
      <trkpt lat="45.0861" lon="6.14745">
        <ele>1933.8</ele>
        <time>2026-08-09T08:48:36Z</time>
      </trkpt>
      <trkpt lat="45.0861" lon="6.14745">
        <ele>1933.8</ele>
        <time>2026-08-09T08:48:38Z</time>
      </trkpt>
      <trkpt lat="45.0861" lon="6.14745">
        <ele>1933.8</ele>
        <time>2026-08-09T08:48:40Z</time>
      </trkpt>
      <trkpt lat="45.0861" lon="6.14745">
        <ele>1933.6</ele>
        <time>2026-08-09T08:48:42Z</time>
      </trkpt>
      <trkpt lat="45.0861" lon="6.14745">
        <ele>1933.8</ele>
        <time>2026-08-09T08:48:44Z</time>
      </trkpt>
      <trkpt lat="45.0861" lon="6.14745">
        <ele>1933.6</ele>
        <time>2026-08-09T08:48:46Z</time>
      </trkpt>
      <trkpt lat="45.0861" lon="6.14745">
        <ele>1933.6</ele>
        <time>2026-08-09T08:48:48Z</time>
      </trkpt>
      <trkpt lat="45.0861" lon="6.14745">
        <ele>1933.6</ele>
        <time>2026-08-09T08:48:50Z</time>
      </trkpt>
      <trkpt lat="45.0861" lon="6.14745">
        <ele>1933.6</ele>
        <time>2026-08-09T08:48:52Z</time>
      </trkpt>
      <trkpt lat="45.0861" lon="6.14745">
        <ele>1933.6</ele>
        <time>2026-08-09T08:48:54Z</time>
      </trkpt>
      <trkpt lat="45.0861" lon="6.14745">
        <ele>1933.6</ele>
        <time>2026-08-09T08:48:56Z</time>
      </trkpt>
      <trkpt lat="45.0861" lon="6.14745">
        <ele>1933.6</ele>
        <time>2026-08-09T08:48:58Z</time>
      </trkpt>
      <trkpt lat="45.0861" lon="6.14745">
        <ele>1933.6</ele>
        <time>2026-08-09T08:49:00Z</time>
      </trkpt>
      <trkpt lat="45.0861" lon="6.14745">
        <ele>1933.6</ele>
        <time>2026-08-09T08:49:01Z</time>
      </trkpt>
      <trkpt lat="45.0861" lon="6.14745">
        <ele>1933.6</ele>
        <time>2026-08-09T08:49:02Z</time>
      </trkpt>
      <trkpt lat="45.0861" lon="6.14745">
        <ele>1933.6</ele>
        <time>2026-08-09T08:49:04Z</time>
      </trkpt>
      <trkpt lat="45.0861" lon="6.14745">
        <ele>1933.6</ele>
        <time>2026-08-09T08:49:06Z</time>
      </trkpt>
      <trkpt lat="45.0861" lon="6.14745">
        <ele>1933.6</ele>
        <time>2026-08-09T08:49:08Z</time>
      </trkpt>
      <trkpt lat="45.0861" lon="6.14745">
        <ele>1933.6</ele>
        <time>2026-08-09T08:49:10Z</time>
      </trkpt>
      <trkpt lat="45.0861" lon="6.14745">
        <ele>1933.6</ele>
        <time>2026-08-09T08:49:12Z</time>
      </trkpt>
      <trkpt lat="45.0861" lon="6.14745">
        <ele>1933.6</ele>
        <time>2026-08-09T08:49:14Z</time>
      </trkpt>
      <trkpt lat="45.0861" lon="6.14745">
        <ele>1933.6</ele>
        <time>2026-08-09T08:49:16Z</time>
      </trkpt>
      <trkpt lat="45.0861" lon="6.14745">
        <ele>1933.6</ele>
        <time>2026-08-09T08:49:18Z</time>
      </trkpt>
      <trkpt lat="45.0861" lon="6.14745">
        <ele>1933.4</ele>
        <time>2026-08-09T08:49:20Z</time>
      </trkpt>
      <trkpt lat="45.0861" lon="6.14745">
        <ele>1933.4</ele>
        <time>2026-08-09T08:49:22Z</time>
      </trkpt>
      <trkpt lat="45.0861" lon="6.14745">
        <ele>1933.4</ele>
        <time>2026-08-09T08:49:24Z</time>
      </trkpt>
      <trkpt lat="45.0861" lon="6.14745">
        <ele>1933.4</ele>
        <time>2026-08-09T08:49:26Z</time>
      </trkpt>
      <trkpt lat="45.0861" lon="6.14745">
        <ele>1933.4</ele>
        <time>2026-08-09T08:49:28Z</time>
      </trkpt>
      <trkpt lat="45.0861" lon="6.14745">
        <ele>1933.4</ele>
        <time>2026-08-09T08:49:29Z</time>
      </trkpt>
      <trkpt lat="45.0861" lon="6.14745">
        <ele>1933.4</ele>
        <time>2026-08-09T08:49:30Z</time>
      </trkpt>
      <trkpt lat="45.0861" lon="6.14745">
        <ele>1933.6</ele>
        <time>2026-08-09T08:49:32Z</time>
      </trkpt>
      <trkpt lat="45.0861" lon="6.14745">
        <ele>1933.6</ele>
        <time>2026-08-09T08:49:34Z</time>
      </trkpt>
      <trkpt lat="45.0861" lon="6.14745">
        <ele>1933.6</ele>
        <time>2026-08-09T08:49:36Z</time>
      </trkpt>
      <trkpt lat="45.0861" lon="6.14746">
        <ele>1933.6</ele>
        <time>2026-08-09T08:49:38Z</time>
      </trkpt>
      <trkpt lat="45.0861" lon="6.14746">
        <ele>1933.8</ele>
        <time>2026-08-09T08:49:40Z</time>
      </trkpt>
      <trkpt lat="45.0861" lon="6.14746">
        <ele>1933.8</ele>
        <time>2026-08-09T08:49:42Z</time>
      </trkpt>
      <trkpt lat="45.0861" lon="6.14746">
        <ele>1933.8</ele>
        <time>2026-08-09T08:49:44Z</time>
      </trkpt>
      <trkpt lat="45.0861" lon="6.14745">
        <ele>1933.8</ele>
        <time>2026-08-09T08:49:46Z</time>
      </trkpt>
      <trkpt lat="45.0861" lon="6.14745">
        <ele>1933.8</ele>
        <time>2026-08-09T08:49:48Z</time>
      </trkpt>
      <trkpt lat="45.0861" lon="6.14746">
        <ele>1933.8</ele>
        <time>2026-08-09T08:49:50Z</time>
      </trkpt>
      <trkpt lat="45.0861" lon="6.14746">
        <ele>1933.8</ele>
        <time>2026-08-09T08:49:52Z</time>
      </trkpt>
      <trkpt lat="45.0861" lon="6.14746">
        <ele>1933.8</ele>
        <time>2026-08-09T08:49:54Z</time>
      </trkpt>
      <trkpt lat="45.0861" lon="6.14746">
        <ele>1933.8</ele>
        <time>2026-08-09T08:49:56Z</time>
      </trkpt>
      <trkpt lat="45.0861" lon="6.14746">
        <ele>1933.8</ele>
        <time>2026-08-09T08:49:58Z</time>
      </trkpt>
      <trkpt lat="45.0861" lon="6.14746">
        <ele>1933.8</ele>
        <time>2026-08-09T08:50:00Z</time>
      </trkpt>
      <trkpt lat="45.0861" lon="6.14746">
        <ele>1933.8</ele>
        <time>2026-08-09T08:50:02Z</time>
      </trkpt>
      <trkpt lat="45.0861" lon="6.14746">
        <ele>1933.6</ele>
        <time>2026-08-09T08:50:04Z</time>
      </trkpt>
      <trkpt lat="45.0861" lon="6.14746">
        <ele>1933.6</ele>
        <time>2026-08-09T08:50:06Z</time>
      </trkpt>
      <trkpt lat="45.0861" lon="6.14746">
        <ele>1933.6</ele>
        <time>2026-08-09T08:50:08Z</time>
      </trkpt>
      <trkpt lat="45.0861" lon="6.14746">
        <ele>1933.4</ele>
        <time>2026-08-09T08:50:10Z</time>
      </trkpt>
      <trkpt lat="45.0861" lon="6.14746">
        <ele>1933.6</ele>
        <time>2026-08-09T08:50:12Z</time>
      </trkpt>
      <trkpt lat="45.0861" lon="6.14746">
        <ele>1933.6</ele>
        <time>2026-08-09T08:50:14Z</time>
      </trkpt>
      <trkpt lat="45.0861" lon="6.14746">
        <ele>1933.6</ele>
        <time>2026-08-09T08:50:16Z</time>
      </trkpt>
      <trkpt lat="45.0861" lon="6.14746">
        <ele>1933.6</ele>
        <time>2026-08-09T08:50:18Z</time>
      </trkpt>
      <trkpt lat="45.0861" lon="6.14746">
        <ele>1933.6</ele>
        <time>2026-08-09T08:50:20Z</time>
      </trkpt>
      <trkpt lat="45.0861" lon="6.14746">
        <ele>1933.6</ele>
        <time>2026-08-09T08:50:22Z</time>
      </trkpt>
      <trkpt lat="45.0861" lon="6.14746">
        <ele>1933.6</ele>
        <time>2026-08-09T08:50:24Z</time>
      </trkpt>
      <trkpt lat="45.0861" lon="6.14746">
        <ele>1933.6</ele>
        <time>2026-08-09T08:50:25Z</time>
      </trkpt>
      <trkpt lat="45.0861" lon="6.14746">
        <ele>1933.6</ele>
        <time>2026-08-09T08:50:26Z</time>
      </trkpt>
      <trkpt lat="45.0861" lon="6.14746">
        <ele>1933.6</ele>
        <time>2026-08-09T08:50:28Z</time>
      </trkpt>
      <trkpt lat="45.0861" lon="6.14746">
        <ele>1933.6</ele>
        <time>2026-08-09T08:50:30Z</time>
      </trkpt>
      <trkpt lat="45.0861" lon="6.14746">
        <ele>1933.6</ele>
        <time>2026-08-09T08:50:32Z</time>
      </trkpt>
      <trkpt lat="45.0861" lon="6.14746">
        <ele>1933.6</ele>
        <time>2026-08-09T08:50:34Z</time>
      </trkpt>
      <trkpt lat="45.0861" lon="6.14746">
        <ele>1933.6</ele>
        <time>2026-08-09T08:50:36Z</time>
      </trkpt>
      <trkpt lat="45.0861" lon="6.14746">
        <ele>1933.6</ele>
        <time>2026-08-09T08:50:38Z</time>
      </trkpt>
      <trkpt lat="45.0861" lon="6.14746">
        <ele>1933.6</ele>
        <time>2026-08-09T08:50:40Z</time>
      </trkpt>
      <trkpt lat="45.0861" lon="6.14746">
        <ele>1933.6</ele>
        <time>2026-08-09T08:50:42Z</time>
      </trkpt>
      <trkpt lat="45.08611" lon="6.14746">
        <ele>1933.6</ele>
        <time>2026-08-09T08:50:44Z</time>
      </trkpt>
      <trkpt lat="45.0861" lon="6.14746">
        <ele>1933.6</ele>
        <time>2026-08-09T08:50:46Z</time>
      </trkpt>
      <trkpt lat="45.0861" lon="6.14746">
        <ele>1933.6</ele>
        <time>2026-08-09T08:50:48Z</time>
      </trkpt>
      <trkpt lat="45.0861" lon="6.14746">
        <ele>1933.6</ele>
        <time>2026-08-09T08:50:50Z</time>
      </trkpt>
      <trkpt lat="45.0861" lon="6.14746">
        <ele>1933.6</ele>
        <time>2026-08-09T08:50:52Z</time>
      </trkpt>
      <trkpt lat="45.0861" lon="6.14746">
        <ele>1933.6</ele>
        <time>2026-08-09T08:50:54Z</time>
      </trkpt>
      <trkpt lat="45.0861" lon="6.14746">
        <ele>1933.6</ele>
        <time>2026-08-09T08:50:56Z</time>
      </trkpt>
      <trkpt lat="45.08611" lon="6.14746">
        <ele>1933.6</ele>
        <time>2026-08-09T08:50:58Z</time>
      </trkpt>
      <trkpt lat="45.0861" lon="6.14746">
        <ele>1933.6</ele>
        <time>2026-08-09T08:51:00Z</time>
      </trkpt>
      <trkpt lat="45.0861" lon="6.14746">
        <ele>1933.6</ele>
        <time>2026-08-09T08:51:02Z</time>
      </trkpt>
      <trkpt lat="45.08611" lon="6.14746">
        <ele>1933.6</ele>
        <time>2026-08-09T08:51:04Z</time>
      </trkpt>
      <trkpt lat="45.08611" lon="6.14746">
        <ele>1933.6</ele>
        <time>2026-08-09T08:51:06Z</time>
      </trkpt>
      <trkpt lat="45.08611" lon="6.14746">
        <ele>1933.6</ele>
        <time>2026-08-09T08:51:08Z</time>
      </trkpt>
      <trkpt lat="45.08611" lon="6.14746">
        <ele>1933.6</ele>
        <time>2026-08-09T08:51:10Z</time>
      </trkpt>
      <trkpt lat="45.08611" lon="6.14746">
        <ele>1933.4</ele>
        <time>2026-08-09T08:51:12Z</time>
      </trkpt>
      <trkpt lat="45.08611" lon="6.14746">
        <ele>1933.4</ele>
        <time>2026-08-09T08:51:14Z</time>
      </trkpt>
      <trkpt lat="45.08611" lon="6.14746">
        <ele>1933.4</ele>
        <time>2026-08-09T08:51:16Z</time>
      </trkpt>
      <trkpt lat="45.08611" lon="6.14746">
        <ele>1933.6</ele>
        <time>2026-08-09T08:51:18Z</time>
      </trkpt>
      <trkpt lat="45.08611" lon="6.14746">
        <ele>1933.6</ele>
        <time>2026-08-09T08:51:20Z</time>
      </trkpt>
      <trkpt lat="45.08611" lon="6.14746">
        <ele>1933.6</ele>
        <time>2026-08-09T08:51:22Z</time>
      </trkpt>
      <trkpt lat="45.08611" lon="6.14746">
        <ele>1933.6</ele>
        <time>2026-08-09T08:51:24Z</time>
      </trkpt>
      <trkpt lat="45.08611" lon="6.14746">
        <ele>1933.6</ele>
        <time>2026-08-09T08:51:26Z</time>
      </trkpt>
      <trkpt lat="45.08611" lon="6.14746">
        <ele>1933.6</ele>
        <time>2026-08-09T08:51:28Z</time>
      </trkpt>
      <trkpt lat="45.08611" lon="6.14746">
        <ele>1933.6</ele>
        <time>2026-08-09T08:51:30Z</time>
      </trkpt>
      <trkpt lat="45.08611" lon="6.14746">
        <ele>1933.6</ele>
        <time>2026-08-09T08:51:32Z</time>
      </trkpt>
      <trkpt lat="45.08611" lon="6.14746">
        <ele>1933.6</ele>
        <time>2026-08-09T08:51:34Z</time>
      </trkpt>
      <trkpt lat="45.08611" lon="6.14746">
        <ele>1933.6</ele>
        <time>2026-08-09T08:51:35Z</time>
      </trkpt>
      <trkpt lat="45.08611" lon="6.14746">
        <ele>1933.6</ele>
        <time>2026-08-09T08:51:36Z</time>
      </trkpt>
      <trkpt lat="45.08611" lon="6.14746">
        <ele>1933.4</ele>
        <time>2026-08-09T08:51:38Z</time>
      </trkpt>
      <trkpt lat="45.08611" lon="6.14746">
        <ele>1933.4</ele>
        <time>2026-08-09T08:51:40Z</time>
      </trkpt>
      <trkpt lat="45.08611" lon="6.14746">
        <ele>1933.4</ele>
        <time>2026-08-09T08:51:42Z</time>
      </trkpt>
      <trkpt lat="45.08611" lon="6.14746">
        <ele>1933.4</ele>
        <time>2026-08-09T08:51:44Z</time>
      </trkpt>
      <trkpt lat="45.08611" lon="6.14746">
        <ele>1933.4</ele>
        <time>2026-08-09T08:51:46Z</time>
      </trkpt>
      <trkpt lat="45.08611" lon="6.14746">
        <ele>1933.4</ele>
        <time>2026-08-09T08:51:48Z</time>
      </trkpt>
      <trkpt lat="45.08611" lon="6.14746">
        <ele>1933.4</ele>
        <time>2026-08-09T08:51:50Z</time>
      </trkpt>
      <trkpt lat="45.08611" lon="6.14746">
        <ele>1933.4</ele>
        <time>2026-08-09T08:51:52Z</time>
      </trkpt>
      <trkpt lat="45.08611" lon="6.14746">
        <ele>1933.4</ele>
        <time>2026-08-09T08:51:54Z</time>
      </trkpt>
      <trkpt lat="45.08611" lon="6.14746">
        <ele>1933.4</ele>
        <time>2026-08-09T08:51:56Z</time>
      </trkpt>
      <trkpt lat="45.08611" lon="6.14746">
        <ele>1933.4</ele>
        <time>2026-08-09T08:51:58Z</time>
      </trkpt>
      <trkpt lat="45.08611" lon="6.14746">
        <ele>1933.4</ele>
        <time>2026-08-09T08:52:00Z</time>
      </trkpt>
      <trkpt lat="45.08611" lon="6.14746">
        <ele>1933.4</ele>
        <time>2026-08-09T08:52:02Z</time>
      </trkpt>
      <trkpt lat="45.08611" lon="6.14746">
        <ele>1933.4</ele>
        <time>2026-08-09T08:52:04Z</time>
      </trkpt>
      <trkpt lat="45.08611" lon="6.14746">
        <ele>1933.4</ele>
        <time>2026-08-09T08:52:06Z</time>
      </trkpt>
      <trkpt lat="45.08611" lon="6.14746">
        <ele>1933.4</ele>
        <time>2026-08-09T08:52:08Z</time>
      </trkpt>
      <trkpt lat="45.08611" lon="6.14746">
        <ele>1933.4</ele>
        <time>2026-08-09T08:52:10Z</time>
      </trkpt>
      <trkpt lat="45.08611" lon="6.14746">
        <ele>1933.2</ele>
        <time>2026-08-09T08:52:12Z</time>
      </trkpt>
      <trkpt lat="45.08611" lon="6.14746">
        <ele>1933.2</ele>
        <time>2026-08-09T08:52:14Z</time>
      </trkpt>
      <trkpt lat="45.08611" lon="6.14746">
        <ele>1933.2</ele>
        <time>2026-08-09T08:52:16Z</time>
      </trkpt>
      <trkpt lat="45.08611" lon="6.14746">
        <ele>1933.2</ele>
        <time>2026-08-09T08:52:18Z</time>
      </trkpt>
      <trkpt lat="45.08611" lon="6.14746">
        <ele>1933.2</ele>
        <time>2026-08-09T08:52:20Z</time>
      </trkpt>
      <trkpt lat="45.08611" lon="6.14746">
        <ele>1933.2</ele>
        <time>2026-08-09T08:52:22Z</time>
      </trkpt>
      <trkpt lat="45.08611" lon="6.14746">
        <ele>1933.2</ele>
        <time>2026-08-09T08:52:24Z</time>
      </trkpt>
      <trkpt lat="45.08611" lon="6.14746">
        <ele>1933.2</ele>
        <time>2026-08-09T08:52:26Z</time>
      </trkpt>
      <trkpt lat="45.08611" lon="6.14746">
        <ele>1933.2</ele>
        <time>2026-08-09T08:52:28Z</time>
      </trkpt>
      <trkpt lat="45.08611" lon="6.14746">
        <ele>1933.2</ele>
        <time>2026-08-09T08:52:30Z</time>
      </trkpt>
      <trkpt lat="45.08611" lon="6.14746">
        <ele>1933.2</ele>
        <time>2026-08-09T08:52:32Z</time>
      </trkpt>
      <trkpt lat="45.08611" lon="6.14746">
        <ele>1933</ele>
        <time>2026-08-09T08:52:34Z</time>
      </trkpt>
      <trkpt lat="45.08611" lon="6.14746">
        <ele>1933</ele>
        <time>2026-08-09T08:52:36Z</time>
      </trkpt>
      <trkpt lat="45.08611" lon="6.14746">
        <ele>1933</ele>
        <time>2026-08-09T08:52:38Z</time>
      </trkpt>
      <trkpt lat="45.08611" lon="6.14746">
        <ele>1933</ele>
        <time>2026-08-09T08:52:40Z</time>
      </trkpt>
      <trkpt lat="45.08611" lon="6.14746">
        <ele>1933</ele>
        <time>2026-08-09T08:52:42Z</time>
      </trkpt>
      <trkpt lat="45.08611" lon="6.14746">
        <ele>1933</ele>
        <time>2026-08-09T08:52:44Z</time>
      </trkpt>
      <trkpt lat="45.08611" lon="6.14746">
        <ele>1933</ele>
        <time>2026-08-09T08:52:46Z</time>
      </trkpt>
      <trkpt lat="45.08611" lon="6.14746">
        <ele>1933.2</ele>
        <time>2026-08-09T08:52:48Z</time>
      </trkpt>
      <trkpt lat="45.08611" lon="6.14746">
        <ele>1933.2</ele>
        <time>2026-08-09T08:52:50Z</time>
      </trkpt>
      <trkpt lat="45.08611" lon="6.14746">
        <ele>1933.2</ele>
        <time>2026-08-09T08:52:52Z</time>
      </trkpt>
      <trkpt lat="45.08611" lon="6.14746">
        <ele>1933.2</ele>
        <time>2026-08-09T08:52:54Z</time>
      </trkpt>
      <trkpt lat="45.08611" lon="6.14746">
        <ele>1933.2</ele>
        <time>2026-08-09T08:52:56Z</time>
      </trkpt>
      <trkpt lat="45.08611" lon="6.14746">
        <ele>1933.2</ele>
        <time>2026-08-09T08:52:58Z</time>
      </trkpt>
      <trkpt lat="45.08611" lon="6.14746">
        <ele>1933.2</ele>
        <time>2026-08-09T08:53:00Z</time>
      </trkpt>
      <trkpt lat="45.08611" lon="6.14746">
        <ele>1933.2</ele>
        <time>2026-08-09T08:53:02Z</time>
      </trkpt>
      <trkpt lat="45.08611" lon="6.14746">
        <ele>1933.4</ele>
        <time>2026-08-09T08:53:04Z</time>
      </trkpt>
      <trkpt lat="45.08611" lon="6.14746">
        <ele>1933.4</ele>
        <time>2026-08-09T08:53:06Z</time>
      </trkpt>
      <trkpt lat="45.08611" lon="6.14746">
        <ele>1933.4</ele>
        <time>2026-08-09T08:53:08Z</time>
      </trkpt>
      <trkpt lat="45.08611" lon="6.14746">
        <ele>1933.2</ele>
        <time>2026-08-09T08:53:10Z</time>
      </trkpt>
      <trkpt lat="45.08611" lon="6.14746">
        <ele>1933.2</ele>
        <time>2026-08-09T08:53:12Z</time>
      </trkpt>
      <trkpt lat="45.08611" lon="6.14746">
        <ele>1933.2</ele>
        <time>2026-08-09T08:53:14Z</time>
      </trkpt>
      <trkpt lat="45.08611" lon="6.14746">
        <ele>1933.2</ele>
        <time>2026-08-09T08:53:16Z</time>
      </trkpt>
      <trkpt lat="45.08611" lon="6.14746">
        <ele>1933.2</ele>
        <time>2026-08-09T08:53:18Z</time>
      </trkpt>
      <trkpt lat="45.08611" lon="6.14746">
        <ele>1933.2</ele>
        <time>2026-08-09T08:53:20Z</time>
      </trkpt>
      <trkpt lat="45.08611" lon="6.14746">
        <ele>1933.2</ele>
        <time>2026-08-09T08:53:22Z</time>
      </trkpt>
      <trkpt lat="45.08611" lon="6.14746">
        <ele>1933.2</ele>
        <time>2026-08-09T08:53:24Z</time>
      </trkpt>
      <trkpt lat="45.08611" lon="6.14746">
        <ele>1933.2</ele>
        <time>2026-08-09T08:53:26Z</time>
      </trkpt>
      <trkpt lat="45.08611" lon="6.14746">
        <ele>1933.4</ele>
        <time>2026-08-09T08:53:28Z</time>
      </trkpt>
      <trkpt lat="45.08611" lon="6.14746">
        <ele>1933.4</ele>
        <time>2026-08-09T08:53:30Z</time>
      </trkpt>
      <trkpt lat="45.08611" lon="6.14746">
        <ele>1933.4</ele>
        <time>2026-08-09T08:53:32Z</time>
      </trkpt>
      <trkpt lat="45.08611" lon="6.14746">
        <ele>1933.4</ele>
        <time>2026-08-09T08:53:34Z</time>
      </trkpt>
      <trkpt lat="45.08611" lon="6.14746">
        <ele>1933.4</ele>
        <time>2026-08-09T08:53:36Z</time>
      </trkpt>
      <trkpt lat="45.08611" lon="6.14746">
        <ele>1933.4</ele>
        <time>2026-08-09T08:53:38Z</time>
      </trkpt>
      <trkpt lat="45.08611" lon="6.14746">
        <ele>1933.4</ele>
        <time>2026-08-09T08:53:40Z</time>
      </trkpt>
      <trkpt lat="45.08611" lon="6.14746">
        <ele>1933.4</ele>
        <time>2026-08-09T08:53:42Z</time>
      </trkpt>
      <trkpt lat="45.08611" lon="6.14746">
        <ele>1933.4</ele>
        <time>2026-08-09T08:53:44Z</time>
      </trkpt>
      <trkpt lat="45.08611" lon="6.14746">
        <ele>1933.4</ele>
        <time>2026-08-09T08:53:46Z</time>
      </trkpt>
      <trkpt lat="45.08611" lon="6.14746">
        <ele>1933.4</ele>
        <time>2026-08-09T08:53:48Z</time>
      </trkpt>
      <trkpt lat="45.08611" lon="6.14746">
        <ele>1933.4</ele>
        <time>2026-08-09T08:53:50Z</time>
      </trkpt>
      <trkpt lat="45.08611" lon="6.14746">
        <ele>1933.4</ele>
        <time>2026-08-09T08:53:52Z</time>
      </trkpt>
      <trkpt lat="45.08611" lon="6.14746">
        <ele>1933.4</ele>
        <time>2026-08-09T08:53:54Z</time>
      </trkpt>
      <trkpt lat="45.08611" lon="6.14746">
        <ele>1933.4</ele>
        <time>2026-08-09T08:53:56Z</time>
      </trkpt>
      <trkpt lat="45.08611" lon="6.14746">
        <ele>1933.4</ele>
        <time>2026-08-09T08:53:58Z</time>
      </trkpt>
      <trkpt lat="45.08611" lon="6.14746">
        <ele>1933.4</ele>
        <time>2026-08-09T08:54:00Z</time>
      </trkpt>
      <trkpt lat="45.08611" lon="6.14746">
        <ele>1933.4</ele>
        <time>2026-08-09T08:54:02Z</time>
      </trkpt>
      <trkpt lat="45.08611" lon="6.14746">
        <ele>1933.4</ele>
        <time>2026-08-09T08:54:04Z</time>
      </trkpt>
      <trkpt lat="45.08611" lon="6.14746">
        <ele>1933.4</ele>
        <time>2026-08-09T08:54:06Z</time>
      </trkpt>
      <trkpt lat="45.08611" lon="6.14746">
        <ele>1933.4</ele>
        <time>2026-08-09T08:54:08Z</time>
      </trkpt>
      <trkpt lat="45.08611" lon="6.14746">
        <ele>1933.4</ele>
        <time>2026-08-09T08:54:10Z</time>
      </trkpt>
      <trkpt lat="45.08611" lon="6.14746">
        <ele>1933.2</ele>
        <time>2026-08-09T08:54:12Z</time>
      </trkpt>
      <trkpt lat="45.08611" lon="6.14746">
        <ele>1933.2</ele>
        <time>2026-08-09T08:54:14Z</time>
      </trkpt>
      <trkpt lat="45.08611" lon="6.14746">
        <ele>1933.2</ele>
        <time>2026-08-09T08:54:16Z</time>
      </trkpt>
      <trkpt lat="45.08611" lon="6.14746">
        <ele>1933.2</ele>
        <time>2026-08-09T08:54:18Z</time>
      </trkpt>
      <trkpt lat="45.08611" lon="6.14746">
        <ele>1933.2</ele>
        <time>2026-08-09T08:54:20Z</time>
      </trkpt>
      <trkpt lat="45.08611" lon="6.14746">
        <ele>1933.2</ele>
        <time>2026-08-09T08:54:22Z</time>
      </trkpt>
      <trkpt lat="45.08611" lon="6.14746">
        <ele>1933.2</ele>
        <time>2026-08-09T08:54:24Z</time>
      </trkpt>
      <trkpt lat="45.08611" lon="6.14746">
        <ele>1933.2</ele>
        <time>2026-08-09T08:54:26Z</time>
      </trkpt>
      <trkpt lat="45.08611" lon="6.14746">
        <ele>1933.2</ele>
        <time>2026-08-09T08:54:28Z</time>
      </trkpt>
      <trkpt lat="45.08611" lon="6.14746">
        <ele>1933.2</ele>
        <time>2026-08-09T08:54:30Z</time>
      </trkpt>
      <trkpt lat="45.08611" lon="6.14746">
        <ele>1933.2</ele>
        <time>2026-08-09T08:54:32Z</time>
      </trkpt>
      <trkpt lat="45.08611" lon="6.14746">
        <ele>1933.2</ele>
        <time>2026-08-09T08:54:34Z</time>
      </trkpt>
      <trkpt lat="45.08611" lon="6.14746">
        <ele>1933.2</ele>
        <time>2026-08-09T08:54:36Z</time>
      </trkpt>
      <trkpt lat="45.08611" lon="6.14746">
        <ele>1933</ele>
        <time>2026-08-09T08:54:38Z</time>
      </trkpt>
      <trkpt lat="45.08611" lon="6.14746">
        <ele>1933</ele>
        <time>2026-08-09T08:54:40Z</time>
      </trkpt>
      <trkpt lat="45.08611" lon="6.14746">
        <ele>1933</ele>
        <time>2026-08-09T08:54:41Z</time>
      </trkpt>
      <trkpt lat="45.08611" lon="6.14746">
        <ele>1933</ele>
        <time>2026-08-09T08:54:42Z</time>
      </trkpt>
      <trkpt lat="45.08611" lon="6.14746">
        <ele>1933</ele>
        <time>2026-08-09T08:54:44Z</time>
      </trkpt>
      <trkpt lat="45.08611" lon="6.14746">
        <ele>1932.8</ele>
        <time>2026-08-09T08:54:46Z</time>
      </trkpt>
      <trkpt lat="45.08611" lon="6.14746">
        <ele>1932.8</ele>
        <time>2026-08-09T08:54:48Z</time>
      </trkpt>
      <trkpt lat="45.08611" lon="6.14746">
        <ele>1932.8</ele>
        <time>2026-08-09T08:54:50Z</time>
      </trkpt>
      <trkpt lat="45.08611" lon="6.14746">
        <ele>1932.8</ele>
        <time>2026-08-09T08:54:52Z</time>
      </trkpt>
      <trkpt lat="45.08611" lon="6.14746">
        <ele>1932.8</ele>
        <time>2026-08-09T08:54:54Z</time>
      </trkpt>
      <trkpt lat="45.08611" lon="6.14746">
        <ele>1932.8</ele>
        <time>2026-08-09T08:54:56Z</time>
      </trkpt>
      <trkpt lat="45.08611" lon="6.14746">
        <ele>1932.8</ele>
        <time>2026-08-09T08:54:58Z</time>
      </trkpt>
      <trkpt lat="45.08611" lon="6.14746">
        <ele>1932.8</ele>
        <time>2026-08-09T08:55:00Z</time>
      </trkpt>
      <trkpt lat="45.08611" lon="6.14746">
        <ele>1932.8</ele>
        <time>2026-08-09T08:55:02Z</time>
      </trkpt>
      <trkpt lat="45.08611" lon="6.14747">
        <ele>1932.8</ele>
        <time>2026-08-09T08:55:04Z</time>
      </trkpt>
      <trkpt lat="45.08611" lon="6.14747">
        <ele>1932.8</ele>
        <time>2026-08-09T08:55:06Z</time>
      </trkpt>
      <trkpt lat="45.08611" lon="6.14747">
        <ele>1932.8</ele>
        <time>2026-08-09T08:55:08Z</time>
      </trkpt>
      <trkpt lat="45.08611" lon="6.14747">
        <ele>1932.8</ele>
        <time>2026-08-09T08:55:10Z</time>
      </trkpt>
      <trkpt lat="45.08611" lon="6.14747">
        <ele>1932.8</ele>
        <time>2026-08-09T08:55:12Z</time>
      </trkpt>
      <trkpt lat="45.08611" lon="6.14747">
        <ele>1932.8</ele>
        <time>2026-08-09T08:55:14Z</time>
      </trkpt>
      <trkpt lat="45.08611" lon="6.14747">
        <ele>1932.8</ele>
        <time>2026-08-09T08:55:16Z</time>
      </trkpt>
      <trkpt lat="45.08611" lon="6.14747">
        <ele>1932.8</ele>
        <time>2026-08-09T08:55:18Z</time>
      </trkpt>
      <trkpt lat="45.08611" lon="6.14747">
        <ele>1932.8</ele>
        <time>2026-08-09T08:55:20Z</time>
      </trkpt>
      <trkpt lat="45.08611" lon="6.14747">
        <ele>1932.8</ele>
        <time>2026-08-09T08:55:22Z</time>
      </trkpt>
      <trkpt lat="45.08611" lon="6.14747">
        <ele>1932.8</ele>
        <time>2026-08-09T08:55:24Z</time>
      </trkpt>
      <trkpt lat="45.08611" lon="6.14747">
        <ele>1932.8</ele>
        <time>2026-08-09T08:55:26Z</time>
      </trkpt>
      <trkpt lat="45.08611" lon="6.14747">
        <ele>1933</ele>
        <time>2026-08-09T08:55:28Z</time>
      </trkpt>
      <trkpt lat="45.08611" lon="6.14747">
        <ele>1933</ele>
        <time>2026-08-09T08:55:30Z</time>
      </trkpt>
      <trkpt lat="45.08611" lon="6.14747">
        <ele>1933</ele>
        <time>2026-08-09T08:55:32Z</time>
      </trkpt>
      <trkpt lat="45.08611" lon="6.14747">
        <ele>1933</ele>
        <time>2026-08-09T08:55:34Z</time>
      </trkpt>
      <trkpt lat="45.08611" lon="6.14747">
        <ele>1933</ele>
        <time>2026-08-09T08:55:36Z</time>
      </trkpt>
      <trkpt lat="45.08611" lon="6.14747">
        <ele>1933</ele>
        <time>2026-08-09T08:55:38Z</time>
      </trkpt>
      <trkpt lat="45.08611" lon="6.14747">
        <ele>1932.8</ele>
        <time>2026-08-09T08:55:40Z</time>
      </trkpt>
      <trkpt lat="45.08611" lon="6.14747">
        <ele>1933</ele>
        <time>2026-08-09T08:55:42Z</time>
      </trkpt>
      <trkpt lat="45.08611" lon="6.14747">
        <ele>1933</ele>
        <time>2026-08-09T08:55:44Z</time>
      </trkpt>
      <trkpt lat="45.08611" lon="6.14747">
        <ele>1933</ele>
        <time>2026-08-09T08:55:46Z</time>
      </trkpt>
      <trkpt lat="45.08611" lon="6.14747">
        <ele>1932.8</ele>
        <time>2026-08-09T08:55:48Z</time>
      </trkpt>
      <trkpt lat="45.08611" lon="6.14747">
        <ele>1932.8</ele>
        <time>2026-08-09T08:55:50Z</time>
      </trkpt>
      <trkpt lat="45.08611" lon="6.14747">
        <ele>1933</ele>
        <time>2026-08-09T08:55:52Z</time>
      </trkpt>
      <trkpt lat="45.08611" lon="6.14747">
        <ele>1933</ele>
        <time>2026-08-09T08:55:54Z</time>
      </trkpt>
      <trkpt lat="45.08611" lon="6.14747">
        <ele>1933</ele>
        <time>2026-08-09T08:55:56Z</time>
      </trkpt>
      <trkpt lat="45.08611" lon="6.14747">
        <ele>1933</ele>
        <time>2026-08-09T08:55:58Z</time>
      </trkpt>
      <trkpt lat="45.08611" lon="6.14747">
        <ele>1933</ele>
        <time>2026-08-09T08:56:00Z</time>
      </trkpt>
      <trkpt lat="45.08611" lon="6.14747">
        <ele>1933</ele>
        <time>2026-08-09T08:56:02Z</time>
      </trkpt>
      <trkpt lat="45.08611" lon="6.14747">
        <ele>1933</ele>
        <time>2026-08-09T08:56:04Z</time>
      </trkpt>
      <trkpt lat="45.08611" lon="6.14747">
        <ele>1933</ele>
        <time>2026-08-09T08:56:06Z</time>
      </trkpt>
      <trkpt lat="45.08611" lon="6.14749">
        <ele>1933</ele>
        <time>2026-08-09T08:56:08Z</time>
      </trkpt>
      <trkpt lat="45.08611" lon="6.14752">
        <ele>1933</ele>
        <time>2026-08-09T08:56:10Z</time>
      </trkpt>
      <trkpt lat="45.08611" lon="6.14754">
        <ele>1933</ele>
        <time>2026-08-09T08:56:12Z</time>
      </trkpt>
      <trkpt lat="45.08611" lon="6.14757">
        <ele>1933</ele>
        <time>2026-08-09T08:56:14Z</time>
      </trkpt>
      <trkpt lat="45.0861" lon="6.14759">
        <ele>1933</ele>
        <time>2026-08-09T08:56:16Z</time>
      </trkpt>
      <trkpt lat="45.08609" lon="6.14761">
        <ele>1933</ele>
        <time>2026-08-09T08:56:18Z</time>
      </trkpt>
      <trkpt lat="45.08609" lon="6.14762">
        <ele>1933</ele>
        <time>2026-08-09T08:56:19Z</time>
      </trkpt>
      <trkpt lat="45.08609" lon="6.14763">
        <ele>1933</ele>
        <time>2026-08-09T08:56:20Z</time>
      </trkpt>
      <trkpt lat="45.08608" lon="6.14765">
        <ele>1933.2</ele>
        <time>2026-08-09T08:56:22Z</time>
      </trkpt>
      <trkpt lat="45.08608" lon="6.14768">
        <ele>1933.2</ele>
        <time>2026-08-09T08:56:24Z</time>
      </trkpt>
      <trkpt lat="45.08607" lon="6.1477">
        <ele>1933.4</ele>
        <time>2026-08-09T08:56:26Z</time>
      </trkpt>
      <trkpt lat="45.08606" lon="6.14772">
        <ele>1933.4</ele>
        <time>2026-08-09T08:56:28Z</time>
      </trkpt>
      <trkpt lat="45.08606" lon="6.14773">
        <ele>1933.4</ele>
        <time>2026-08-09T08:56:29Z</time>
      </trkpt>
      <trkpt lat="45.08606" lon="6.14774">
        <ele>1933.4</ele>
        <time>2026-08-09T08:56:30Z</time>
      </trkpt>
      <trkpt lat="45.08606" lon="6.14774">
        <ele>1933.4</ele>
        <time>2026-08-09T08:56:32Z</time>
      </trkpt>
      <trkpt lat="45.08606" lon="6.14774">
        <ele>1933.6</ele>
        <time>2026-08-09T08:56:34Z</time>
      </trkpt>
      <trkpt lat="45.08606" lon="6.14775">
        <ele>1933.6</ele>
        <time>2026-08-09T08:56:35Z</time>
      </trkpt>
      <trkpt lat="45.08606" lon="6.14776">
        <ele>1933.8</ele>
        <time>2026-08-09T08:56:36Z</time>
      </trkpt>
      <trkpt lat="45.08605" lon="6.14777">
        <ele>1933.8</ele>
        <time>2026-08-09T08:56:38Z</time>
      </trkpt>
      <trkpt lat="45.08605" lon="6.14779">
        <ele>1934</ele>
        <time>2026-08-09T08:56:40Z</time>
      </trkpt>
      <trkpt lat="45.08604" lon="6.14782">
        <ele>1934</ele>
        <time>2026-08-09T08:56:42Z</time>
      </trkpt>
      <trkpt lat="45.08603" lon="6.14784">
        <ele>1933.8</ele>
        <time>2026-08-09T08:56:44Z</time>
      </trkpt>
      <trkpt lat="45.08603" lon="6.14786">
        <ele>1934</ele>
        <time>2026-08-09T08:56:46Z</time>
      </trkpt>
      <trkpt lat="45.08602" lon="6.14789">
        <ele>1934</ele>
        <time>2026-08-09T08:56:48Z</time>
      </trkpt>
      <trkpt lat="45.08601" lon="6.14791">
        <ele>1934.2</ele>
        <time>2026-08-09T08:56:50Z</time>
      </trkpt>
      <trkpt lat="45.086" lon="6.14793">
        <ele>1934.2</ele>
        <time>2026-08-09T08:56:52Z</time>
      </trkpt>
      <trkpt lat="45.08599" lon="6.14795">
        <ele>1934.4</ele>
        <time>2026-08-09T08:56:54Z</time>
      </trkpt>
      <trkpt lat="45.08598" lon="6.14796">
        <ele>1934.6</ele>
        <time>2026-08-09T08:56:56Z</time>
      </trkpt>
      <trkpt lat="45.08597" lon="6.14797">
        <ele>1934.6</ele>
        <time>2026-08-09T08:56:58Z</time>
      </trkpt>
      <trkpt lat="45.08596" lon="6.14798">
        <ele>1934.6</ele>
        <time>2026-08-09T08:57:00Z</time>
      </trkpt>
      <trkpt lat="45.08595" lon="6.14799">
        <ele>1934.6</ele>
        <time>2026-08-09T08:57:02Z</time>
      </trkpt>
      <trkpt lat="45.08594" lon="6.14798">
        <ele>1934.6</ele>
        <time>2026-08-09T08:57:04Z</time>
      </trkpt>
      <trkpt lat="45.08593" lon="6.14797">
        <ele>1934.6</ele>
        <time>2026-08-09T08:57:06Z</time>
      </trkpt>
      <trkpt lat="45.08593" lon="6.14796">
        <ele>1934.6</ele>
        <time>2026-08-09T08:57:08Z</time>
      </trkpt>
      <trkpt lat="45.08593" lon="6.14796">
        <ele>1934.6</ele>
        <time>2026-08-09T08:57:10Z</time>
      </trkpt>
      <trkpt lat="45.08592" lon="6.14796">
        <ele>1934.6</ele>
        <time>2026-08-09T08:57:12Z</time>
      </trkpt>
      <trkpt lat="45.08592" lon="6.14796">
        <ele>1934.6</ele>
        <time>2026-08-09T08:57:14Z</time>
      </trkpt>
      <trkpt lat="45.08593" lon="6.14796">
        <ele>1934.8</ele>
        <time>2026-08-09T08:57:16Z</time>
      </trkpt>
      <trkpt lat="45.08593" lon="6.14796">
        <ele>1934.6</ele>
        <time>2026-08-09T08:57:18Z</time>
      </trkpt>
      <trkpt lat="45.08593" lon="6.14796">
        <ele>1934.6</ele>
        <time>2026-08-09T08:57:20Z</time>
      </trkpt>
      <trkpt lat="45.08593" lon="6.14796">
        <ele>1934.6</ele>
        <time>2026-08-09T08:57:22Z</time>
      </trkpt>
      <trkpt lat="45.08593" lon="6.14796">
        <ele>1934.6</ele>
        <time>2026-08-09T08:57:24Z</time>
      </trkpt>
      <trkpt lat="45.08593" lon="6.14796">
        <ele>1934.6</ele>
        <time>2026-08-09T08:57:26Z</time>
      </trkpt>
      <trkpt lat="45.08593" lon="6.14796">
        <ele>1934.6</ele>
        <time>2026-08-09T08:57:28Z</time>
      </trkpt>
      <trkpt lat="45.08593" lon="6.14796">
        <ele>1934.6</ele>
        <time>2026-08-09T08:57:30Z</time>
      </trkpt>
      <trkpt lat="45.08593" lon="6.14795">
        <ele>1934.6</ele>
        <time>2026-08-09T08:57:32Z</time>
      </trkpt>
      <trkpt lat="45.08593" lon="6.14795">
        <ele>1934.6</ele>
        <time>2026-08-09T08:57:34Z</time>
      </trkpt>
      <trkpt lat="45.08593" lon="6.14794">
        <ele>1934.6</ele>
        <time>2026-08-09T08:57:36Z</time>
      </trkpt>
      <trkpt lat="45.08593" lon="6.14794">
        <ele>1934.6</ele>
        <time>2026-08-09T08:57:38Z</time>
      </trkpt>
      <trkpt lat="45.08593" lon="6.14793">
        <ele>1934.6</ele>
        <time>2026-08-09T08:57:40Z</time>
      </trkpt>
      <trkpt lat="45.08593" lon="6.14793">
        <ele>1934.6</ele>
        <time>2026-08-09T08:57:42Z</time>
      </trkpt>
      <trkpt lat="45.08593" lon="6.14793">
        <ele>1934.6</ele>
        <time>2026-08-09T08:57:44Z</time>
      </trkpt>
      <trkpt lat="45.08592" lon="6.14793">
        <ele>1934.4</ele>
        <time>2026-08-09T08:57:46Z</time>
      </trkpt>
      <trkpt lat="45.08592" lon="6.14793">
        <ele>1934.4</ele>
        <time>2026-08-09T08:57:48Z</time>
      </trkpt>
      <trkpt lat="45.08592" lon="6.14793">
        <ele>1934.4</ele>
        <time>2026-08-09T08:57:50Z</time>
      </trkpt>
      <trkpt lat="45.08593" lon="6.14793">
        <ele>1934.4</ele>
        <time>2026-08-09T08:57:52Z</time>
      </trkpt>
      <trkpt lat="45.08593" lon="6.14793">
        <ele>1934.4</ele>
        <time>2026-08-09T08:57:54Z</time>
      </trkpt>
      <trkpt lat="45.08593" lon="6.14793">
        <ele>1934.4</ele>
        <time>2026-08-09T08:57:56Z</time>
      </trkpt>
      <trkpt lat="45.08593" lon="6.14792">
        <ele>1934.6</ele>
        <time>2026-08-09T08:57:58Z</time>
      </trkpt>
      <trkpt lat="45.08593" lon="6.14792">
        <ele>1934.6</ele>
        <time>2026-08-09T08:58:00Z</time>
      </trkpt>
      <trkpt lat="45.08593" lon="6.14792">
        <ele>1934.6</ele>
        <time>2026-08-09T08:58:02Z</time>
      </trkpt>
      <trkpt lat="45.08593" lon="6.14792">
        <ele>1934.6</ele>
        <time>2026-08-09T08:58:03Z</time>
      </trkpt>
      <trkpt lat="45.08593" lon="6.14792">
        <ele>1934.6</ele>
        <time>2026-08-09T08:58:04Z</time>
      </trkpt>
      <trkpt lat="45.08593" lon="6.14792">
        <ele>1934.6</ele>
        <time>2026-08-09T08:58:06Z</time>
      </trkpt>
      <trkpt lat="45.08593" lon="6.14792">
        <ele>1934.6</ele>
        <time>2026-08-09T08:58:07Z</time>
      </trkpt>
      <trkpt lat="45.08593" lon="6.14792">
        <ele>1934.6</ele>
        <time>2026-08-09T08:58:08Z</time>
      </trkpt>
      <trkpt lat="45.08593" lon="6.14792">
        <ele>1934.6</ele>
        <time>2026-08-09T08:58:10Z</time>
      </trkpt>
      <trkpt lat="45.08593" lon="6.14792">
        <ele>1934.4</ele>
        <time>2026-08-09T08:58:12Z</time>
      </trkpt>
      <trkpt lat="45.08593" lon="6.14792">
        <ele>1934.4</ele>
        <time>2026-08-09T08:58:14Z</time>
      </trkpt>
      <trkpt lat="45.08593" lon="6.14792">
        <ele>1934.4</ele>
        <time>2026-08-09T08:58:16Z</time>
      </trkpt>
      <trkpt lat="45.08593" lon="6.14792">
        <ele>1934.4</ele>
        <time>2026-08-09T08:58:18Z</time>
      </trkpt>
      <trkpt lat="45.08593" lon="6.14792">
        <ele>1934.4</ele>
        <time>2026-08-09T08:58:20Z</time>
      </trkpt>
      <trkpt lat="45.08593" lon="6.14792">
        <ele>1934.4</ele>
        <time>2026-08-09T08:58:21Z</time>
      </trkpt>
      <trkpt lat="45.08593" lon="6.14793">
        <ele>1934.4</ele>
        <time>2026-08-09T08:58:22Z</time>
      </trkpt>
      <trkpt lat="45.08593" lon="6.14793">
        <ele>1934.4</ele>
        <time>2026-08-09T08:58:24Z</time>
      </trkpt>
      <trkpt lat="45.08594" lon="6.14793">
        <ele>1934.4</ele>
        <time>2026-08-09T08:58:26Z</time>
      </trkpt>
      <trkpt lat="45.08594" lon="6.14793">
        <ele>1934.4</ele>
        <time>2026-08-09T08:58:28Z</time>
      </trkpt>
      <trkpt lat="45.08594" lon="6.14793">
        <ele>1934.4</ele>
        <time>2026-08-09T08:58:30Z</time>
      </trkpt>
      <trkpt lat="45.08594" lon="6.14793">
        <ele>1934.4</ele>
        <time>2026-08-09T08:58:31Z</time>
      </trkpt>
      <trkpt lat="45.08594" lon="6.14793">
        <ele>1934.4</ele>
        <time>2026-08-09T08:58:32Z</time>
      </trkpt>
      <trkpt lat="45.08594" lon="6.14793">
        <ele>1934.4</ele>
        <time>2026-08-09T08:58:34Z</time>
      </trkpt>
      <trkpt lat="45.08594" lon="6.14793">
        <ele>1934.4</ele>
        <time>2026-08-09T08:58:36Z</time>
      </trkpt>
      <trkpt lat="45.08594" lon="6.14793">
        <ele>1934.4</ele>
        <time>2026-08-09T08:58:38Z</time>
      </trkpt>
      <trkpt lat="45.08594" lon="6.14793">
        <ele>1934.2</ele>
        <time>2026-08-09T08:58:40Z</time>
      </trkpt>
      <trkpt lat="45.08594" lon="6.14793">
        <ele>1934.2</ele>
        <time>2026-08-09T08:58:42Z</time>
      </trkpt>
      <trkpt lat="45.08594" lon="6.14793">
        <ele>1934.2</ele>
        <time>2026-08-09T08:58:44Z</time>
      </trkpt>
      <trkpt lat="45.08594" lon="6.14793">
        <ele>1934.2</ele>
        <time>2026-08-09T08:58:46Z</time>
      </trkpt>
      <trkpt lat="45.08594" lon="6.14793">
        <ele>1934.2</ele>
        <time>2026-08-09T08:58:48Z</time>
      </trkpt>
      <trkpt lat="45.08594" lon="6.14793">
        <ele>1934.2</ele>
        <time>2026-08-09T08:58:50Z</time>
      </trkpt>
      <trkpt lat="45.08594" lon="6.14793">
        <ele>1934.2</ele>
        <time>2026-08-09T08:58:52Z</time>
      </trkpt>
      <trkpt lat="45.08594" lon="6.14793">
        <ele>1934.2</ele>
        <time>2026-08-09T08:58:54Z</time>
      </trkpt>
      <trkpt lat="45.08594" lon="6.14793">
        <ele>1934.2</ele>
        <time>2026-08-09T08:58:56Z</time>
      </trkpt>
      <trkpt lat="45.08594" lon="6.14793">
        <ele>1934.2</ele>
        <time>2026-08-09T08:58:58Z</time>
      </trkpt>
      <trkpt lat="45.08594" lon="6.14793">
        <ele>1934.2</ele>
        <time>2026-08-09T08:59:00Z</time>
      </trkpt>
      <trkpt lat="45.08594" lon="6.14793">
        <ele>1934.2</ele>
        <time>2026-08-09T08:59:02Z</time>
      </trkpt>
      <trkpt lat="45.08594" lon="6.14793">
        <ele>1934.4</ele>
        <time>2026-08-09T08:59:04Z</time>
      </trkpt>
      <trkpt lat="45.08594" lon="6.14793">
        <ele>1934.4</ele>
        <time>2026-08-09T08:59:06Z</time>
      </trkpt>
      <trkpt lat="45.08593" lon="6.14793">
        <ele>1934.4</ele>
        <time>2026-08-09T08:59:08Z</time>
      </trkpt>
      <trkpt lat="45.08594" lon="6.14793">
        <ele>1934.4</ele>
        <time>2026-08-09T08:59:10Z</time>
      </trkpt>
      <trkpt lat="45.08594" lon="6.14793">
        <ele>1934.4</ele>
        <time>2026-08-09T08:59:12Z</time>
      </trkpt>
      <trkpt lat="45.08594" lon="6.14793">
        <ele>1934.4</ele>
        <time>2026-08-09T08:59:14Z</time>
      </trkpt>
      <trkpt lat="45.08594" lon="6.14793">
        <ele>1934.4</ele>
        <time>2026-08-09T08:59:16Z</time>
      </trkpt>
      <trkpt lat="45.08594" lon="6.14793">
        <ele>1934.4</ele>
        <time>2026-08-09T08:59:18Z</time>
      </trkpt>
      <trkpt lat="45.08594" lon="6.14793">
        <ele>1934.4</ele>
        <time>2026-08-09T08:59:20Z</time>
      </trkpt>
      <trkpt lat="45.08594" lon="6.14793">
        <ele>1934.4</ele>
        <time>2026-08-09T08:59:22Z</time>
      </trkpt>
      <trkpt lat="45.08594" lon="6.14793">
        <ele>1934.4</ele>
        <time>2026-08-09T08:59:24Z</time>
      </trkpt>
      <trkpt lat="45.08594" lon="6.14793">
        <ele>1934.4</ele>
        <time>2026-08-09T08:59:26Z</time>
      </trkpt>
      <trkpt lat="45.08594" lon="6.14793">
        <ele>1934.4</ele>
        <time>2026-08-09T08:59:28Z</time>
      </trkpt>
      <trkpt lat="45.08594" lon="6.14793">
        <ele>1934.4</ele>
        <time>2026-08-09T08:59:30Z</time>
      </trkpt>
      <trkpt lat="45.08594" lon="6.14793">
        <ele>1934.6</ele>
        <time>2026-08-09T08:59:32Z</time>
      </trkpt>
      <trkpt lat="45.08594" lon="6.14793">
        <ele>1934.6</ele>
        <time>2026-08-09T08:59:34Z</time>
      </trkpt>
      <trkpt lat="45.08594" lon="6.14793">
        <ele>1934.6</ele>
        <time>2026-08-09T08:59:36Z</time>
      </trkpt>
      <trkpt lat="45.08594" lon="6.14793">
        <ele>1934.6</ele>
        <time>2026-08-09T08:59:38Z</time>
      </trkpt>
      <trkpt lat="45.08594" lon="6.14793">
        <ele>1934.6</ele>
        <time>2026-08-09T08:59:40Z</time>
      </trkpt>
      <trkpt lat="45.08594" lon="6.14793">
        <ele>1934.6</ele>
        <time>2026-08-09T08:59:42Z</time>
      </trkpt>
      <trkpt lat="45.08594" lon="6.14793">
        <ele>1934.6</ele>
        <time>2026-08-09T08:59:44Z</time>
      </trkpt>
      <trkpt lat="45.08594" lon="6.14793">
        <ele>1934.6</ele>
        <time>2026-08-09T08:59:45Z</time>
      </trkpt>
      <trkpt lat="45.08594" lon="6.14793">
        <ele>1934.6</ele>
        <time>2026-08-09T08:59:46Z</time>
      </trkpt>
      <trkpt lat="45.08594" lon="6.14793">
        <ele>1934.6</ele>
        <time>2026-08-09T08:59:48Z</time>
      </trkpt>
      <trkpt lat="45.08594" lon="6.14793">
        <ele>1934.6</ele>
        <time>2026-08-09T08:59:50Z</time>
      </trkpt>
      <trkpt lat="45.08594" lon="6.14793">
        <ele>1934.6</ele>
        <time>2026-08-09T08:59:52Z</time>
      </trkpt>
      <trkpt lat="45.08594" lon="6.14793">
        <ele>1934.6</ele>
        <time>2026-08-09T08:59:54Z</time>
      </trkpt>
      <trkpt lat="45.08594" lon="6.14793">
        <ele>1934.6</ele>
        <time>2026-08-09T08:59:56Z</time>
      </trkpt>
      <trkpt lat="45.08594" lon="6.14793">
        <ele>1934.4</ele>
        <time>2026-08-09T08:59:58Z</time>
      </trkpt>
      <trkpt lat="45.08594" lon="6.14793">
        <ele>1934.4</ele>
        <time>2026-08-09T09:00:00Z</time>
      </trkpt>
      <trkpt lat="45.08594" lon="6.14793">
        <ele>1934.4</ele>
        <time>2026-08-09T09:00:02Z</time>
      </trkpt>
      <trkpt lat="45.08594" lon="6.14793">
        <ele>1934.4</ele>
        <time>2026-08-09T09:00:04Z</time>
      </trkpt>
      <trkpt lat="45.08594" lon="6.14793">
        <ele>1934.4</ele>
        <time>2026-08-09T09:00:06Z</time>
      </trkpt>
      <trkpt lat="45.08594" lon="6.14793">
        <ele>1934.6</ele>
        <time>2026-08-09T09:00:08Z</time>
      </trkpt>
      <trkpt lat="45.08594" lon="6.14793">
        <ele>1934.6</ele>
        <time>2026-08-09T09:00:10Z</time>
      </trkpt>
      <trkpt lat="45.08594" lon="6.14793">
        <ele>1934.6</ele>
        <time>2026-08-09T09:00:12Z</time>
      </trkpt>
      <trkpt lat="45.08594" lon="6.14793">
        <ele>1934.6</ele>
        <time>2026-08-09T09:00:14Z</time>
      </trkpt>
      <trkpt lat="45.08594" lon="6.14793">
        <ele>1934.6</ele>
        <time>2026-08-09T09:00:16Z</time>
      </trkpt>
      <trkpt lat="45.08594" lon="6.14793">
        <ele>1934.4</ele>
        <time>2026-08-09T09:00:18Z</time>
      </trkpt>
      <trkpt lat="45.08594" lon="6.14793">
        <ele>1934.4</ele>
        <time>2026-08-09T09:00:19Z</time>
      </trkpt>
      <trkpt lat="45.08594" lon="6.14793">
        <ele>1934.4</ele>
        <time>2026-08-09T09:00:20Z</time>
      </trkpt>
      <trkpt lat="45.08594" lon="6.14793">
        <ele>1934.4</ele>
        <time>2026-08-09T09:00:22Z</time>
      </trkpt>
      <trkpt lat="45.08594" lon="6.14793">
        <ele>1934.4</ele>
        <time>2026-08-09T09:00:24Z</time>
      </trkpt>
      <trkpt lat="45.08594" lon="6.14793">
        <ele>1934.4</ele>
        <time>2026-08-09T09:00:26Z</time>
      </trkpt>
      <trkpt lat="45.08594" lon="6.14793">
        <ele>1934.6</ele>
        <time>2026-08-09T09:00:28Z</time>
      </trkpt>
      <trkpt lat="45.08594" lon="6.14793">
        <ele>1934.6</ele>
        <time>2026-08-09T09:00:30Z</time>
      </trkpt>
      <trkpt lat="45.08594" lon="6.14793">
        <ele>1934.6</ele>
        <time>2026-08-09T09:00:32Z</time>
      </trkpt>
      <trkpt lat="45.08594" lon="6.14793">
        <ele>1934.6</ele>
        <time>2026-08-09T09:00:34Z</time>
      </trkpt>
      <trkpt lat="45.08594" lon="6.14793">
        <ele>1934.6</ele>
        <time>2026-08-09T09:00:36Z</time>
      </trkpt>
      <trkpt lat="45.08594" lon="6.14793">
        <ele>1934.6</ele>
        <time>2026-08-09T09:00:38Z</time>
      </trkpt>
      <trkpt lat="45.08594" lon="6.14793">
        <ele>1934.6</ele>
        <time>2026-08-09T09:00:40Z</time>
      </trkpt>
      <trkpt lat="45.08594" lon="6.14793">
        <ele>1934.6</ele>
        <time>2026-08-09T09:00:42Z</time>
      </trkpt>
      <trkpt lat="45.08594" lon="6.14793">
        <ele>1934.6</ele>
        <time>2026-08-09T09:00:44Z</time>
      </trkpt>
      <trkpt lat="45.08594" lon="6.14793">
        <ele>1934.6</ele>
        <time>2026-08-09T09:00:46Z</time>
      </trkpt>
      <trkpt lat="45.08594" lon="6.14793">
        <ele>1934.6</ele>
        <time>2026-08-09T09:00:48Z</time>
      </trkpt>
      <trkpt lat="45.08594" lon="6.14793">
        <ele>1934.6</ele>
        <time>2026-08-09T09:00:50Z</time>
      </trkpt>
      <trkpt lat="45.08594" lon="6.14793">
        <ele>1934.6</ele>
        <time>2026-08-09T09:00:52Z</time>
      </trkpt>
      <trkpt lat="45.08594" lon="6.14793">
        <ele>1934.6</ele>
        <time>2026-08-09T09:00:54Z</time>
      </trkpt>
      <trkpt lat="45.08594" lon="6.14793">
        <ele>1934.6</ele>
        <time>2026-08-09T09:00:56Z</time>
      </trkpt>
      <trkpt lat="45.08594" lon="6.14793">
        <ele>1934.6</ele>
        <time>2026-08-09T09:00:58Z</time>
      </trkpt>
      <trkpt lat="45.08594" lon="6.14793">
        <ele>1934.8</ele>
        <time>2026-08-09T09:01:00Z</time>
      </trkpt>
      <trkpt lat="45.08594" lon="6.14793">
        <ele>1934.8</ele>
        <time>2026-08-09T09:01:02Z</time>
      </trkpt>
      <trkpt lat="45.08594" lon="6.14793">
        <ele>1934.8</ele>
        <time>2026-08-09T09:01:04Z</time>
      </trkpt>
      <trkpt lat="45.08594" lon="6.14793">
        <ele>1934.8</ele>
        <time>2026-08-09T09:01:06Z</time>
      </trkpt>
      <trkpt lat="45.08594" lon="6.14793">
        <ele>1934.8</ele>
        <time>2026-08-09T09:01:08Z</time>
      </trkpt>
      <trkpt lat="45.08594" lon="6.14793">
        <ele>1934.8</ele>
        <time>2026-08-09T09:01:10Z</time>
      </trkpt>
      <trkpt lat="45.08594" lon="6.14793">
        <ele>1934.8</ele>
        <time>2026-08-09T09:01:12Z</time>
      </trkpt>
      <trkpt lat="45.08594" lon="6.14793">
        <ele>1934.8</ele>
        <time>2026-08-09T09:01:14Z</time>
      </trkpt>
      <trkpt lat="45.08594" lon="6.14793">
        <ele>1934.6</ele>
        <time>2026-08-09T09:01:16Z</time>
      </trkpt>
      <trkpt lat="45.08594" lon="6.14793">
        <ele>1934.6</ele>
        <time>2026-08-09T09:01:18Z</time>
      </trkpt>
      <trkpt lat="45.08594" lon="6.14793">
        <ele>1934.6</ele>
        <time>2026-08-09T09:01:20Z</time>
      </trkpt>
      <trkpt lat="45.08594" lon="6.14793">
        <ele>1934.6</ele>
        <time>2026-08-09T09:01:22Z</time>
      </trkpt>
      <trkpt lat="45.08594" lon="6.14793">
        <ele>1934.6</ele>
        <time>2026-08-09T09:01:24Z</time>
      </trkpt>
      <trkpt lat="45.08594" lon="6.14793">
        <ele>1934.6</ele>
        <time>2026-08-09T09:01:26Z</time>
      </trkpt>
      <trkpt lat="45.08594" lon="6.14793">
        <ele>1934.6</ele>
        <time>2026-08-09T09:01:28Z</time>
      </trkpt>
      <trkpt lat="45.08594" lon="6.14793">
        <ele>1934.6</ele>
        <time>2026-08-09T09:01:30Z</time>
      </trkpt>
      <trkpt lat="45.08594" lon="6.14793">
        <ele>1934.6</ele>
        <time>2026-08-09T09:01:32Z</time>
      </trkpt>
      <trkpt lat="45.08594" lon="6.14793">
        <ele>1934.6</ele>
        <time>2026-08-09T09:01:34Z</time>
      </trkpt>
      <trkpt lat="45.08594" lon="6.14793">
        <ele>1934.6</ele>
        <time>2026-08-09T09:01:36Z</time>
      </trkpt>
      <trkpt lat="45.08594" lon="6.14793">
        <ele>1934.6</ele>
        <time>2026-08-09T09:01:38Z</time>
      </trkpt>
      <trkpt lat="45.08594" lon="6.14793">
        <ele>1934.6</ele>
        <time>2026-08-09T09:01:40Z</time>
      </trkpt>
      <trkpt lat="45.08594" lon="6.14793">
        <ele>1934.4</ele>
        <time>2026-08-09T09:01:42Z</time>
      </trkpt>
      <trkpt lat="45.08593" lon="6.14792">
        <ele>1934.4</ele>
        <time>2026-08-09T09:01:44Z</time>
      </trkpt>
      <trkpt lat="45.08594" lon="6.14793">
        <ele>1934.4</ele>
        <time>2026-08-09T09:01:46Z</time>
      </trkpt>
      <trkpt lat="45.08593" lon="6.14793">
        <ele>1934.2</ele>
        <time>2026-08-09T09:01:48Z</time>
      </trkpt>
      <trkpt lat="45.08593" lon="6.14793">
        <ele>1934.2</ele>
        <time>2026-08-09T09:01:50Z</time>
      </trkpt>
      <trkpt lat="45.08592" lon="6.14792">
        <ele>1934.4</ele>
        <time>2026-08-09T09:01:52Z</time>
      </trkpt>
      <trkpt lat="45.08591" lon="6.14791">
        <ele>1934.4</ele>
        <time>2026-08-09T09:01:53Z</time>
      </trkpt>
      <trkpt lat="45.08589" lon="6.14789">
        <ele>1934.4</ele>
        <time>2026-08-09T09:01:54Z</time>
      </trkpt>
      <trkpt lat="45.08586" lon="6.14784">
        <ele>1934.2</ele>
        <time>2026-08-09T09:01:56Z</time>
      </trkpt>
      <trkpt lat="45.08582" lon="6.14778">
        <ele>1934.2</ele>
        <time>2026-08-09T09:01:58Z</time>
      </trkpt>
      <trkpt lat="45.08576" lon="6.14771">
        <ele>1933.8</ele>
        <time>2026-08-09T09:02:00Z</time>
      </trkpt>
      <trkpt lat="45.0857" lon="6.14764">
        <ele>1933.2</ele>
        <time>2026-08-09T09:02:02Z</time>
      </trkpt>
      <trkpt lat="45.08567" lon="6.14761">
        <ele>1933</ele>
        <time>2026-08-09T09:02:03Z</time>
      </trkpt>
      <trkpt lat="45.08563" lon="6.14757">
        <ele>1932.6</ele>
        <time>2026-08-09T09:02:04Z</time>
      </trkpt>
      <trkpt lat="45.08555" lon="6.1475">
        <ele>1932.4</ele>
        <time>2026-08-09T09:02:06Z</time>
      </trkpt>
      <trkpt lat="45.08552" lon="6.14746">
        <ele>1932</ele>
        <time>2026-08-09T09:02:07Z</time>
      </trkpt>
      <trkpt lat="45.08548" lon="6.14743">
        <ele>1931.6</ele>
        <time>2026-08-09T09:02:08Z</time>
      </trkpt>
      <trkpt lat="45.08543" lon="6.14739">
        <ele>1931.2</ele>
        <time>2026-08-09T09:02:09Z</time>
      </trkpt>
      <trkpt lat="45.08538" lon="6.14735">
        <ele>1931</ele>
        <time>2026-08-09T09:02:10Z</time>
      </trkpt>
      <trkpt lat="45.08533" lon="6.14731">
        <ele>1930.6</ele>
        <time>2026-08-09T09:02:11Z</time>
      </trkpt>
      <trkpt lat="45.08529" lon="6.14727">
        <ele>1930.2</ele>
        <time>2026-08-09T09:02:12Z</time>
      </trkpt>
      <trkpt lat="45.08525" lon="6.14723">
        <ele>1930</ele>
        <time>2026-08-09T09:02:13Z</time>
      </trkpt>
      <trkpt lat="45.08523" lon="6.1472">
        <ele>1929.8</ele>
        <time>2026-08-09T09:02:14Z</time>
      </trkpt>
      <trkpt lat="45.08521" lon="6.14718">
        <ele>1929.6</ele>
        <time>2026-08-09T09:02:15Z</time>
      </trkpt>
      <trkpt lat="45.08518" lon="6.14715">
        <ele>1929</ele>
        <time>2026-08-09T09:02:16Z</time>
      </trkpt>
      <trkpt lat="45.08516" lon="6.14712">
        <ele>1928.6</ele>
        <time>2026-08-09T09:02:17Z</time>
      </trkpt>
      <trkpt lat="45.08513" lon="6.14709">
        <ele>1928.2</ele>
        <time>2026-08-09T09:02:18Z</time>
      </trkpt>
      <trkpt lat="45.08506" lon="6.14701">
        <ele>1927.8</ele>
        <time>2026-08-09T09:02:20Z</time>
      </trkpt>
      <trkpt lat="45.08499" lon="6.14691">
        <ele>1927.6</ele>
        <time>2026-08-09T09:02:22Z</time>
      </trkpt>
      <trkpt lat="45.08496" lon="6.14686">
        <ele>1927.2</ele>
        <time>2026-08-09T09:02:23Z</time>
      </trkpt>
      <trkpt lat="45.08493" lon="6.14682">
        <ele>1927.2</ele>
        <time>2026-08-09T09:02:24Z</time>
      </trkpt>
      <trkpt lat="45.0849" lon="6.14676">
        <ele>1927</ele>
        <time>2026-08-09T09:02:26Z</time>
      </trkpt>
      <trkpt lat="45.08486" lon="6.1467">
        <ele>1926</ele>
        <time>2026-08-09T09:02:28Z</time>
      </trkpt>
      <trkpt lat="45.08482" lon="6.14663">
        <ele>1925.6</ele>
        <time>2026-08-09T09:02:30Z</time>
      </trkpt>
      <trkpt lat="45.08476" lon="6.14655">
        <ele>1925.4</ele>
        <time>2026-08-09T09:02:32Z</time>
      </trkpt>
      <trkpt lat="45.08469" lon="6.14645">
        <ele>1925.2</ele>
        <time>2026-08-09T09:02:34Z</time>
      </trkpt>
      <trkpt lat="45.08465" lon="6.1464">
        <ele>1925</ele>
        <time>2026-08-09T09:02:35Z</time>
      </trkpt>
      <trkpt lat="45.08462" lon="6.14635">
        <ele>1924.6</ele>
        <time>2026-08-09T09:02:36Z</time>
      </trkpt>
      <trkpt lat="45.08453" lon="6.14623">
        <ele>1924.4</ele>
        <time>2026-08-09T09:02:38Z</time>
      </trkpt>
      <trkpt lat="45.08444" lon="6.1461">
        <ele>1923.6</ele>
        <time>2026-08-09T09:02:40Z</time>
      </trkpt>
      <trkpt lat="45.08434" lon="6.14597">
        <ele>1922.6</ele>
        <time>2026-08-09T09:02:42Z</time>
      </trkpt>
      <trkpt lat="45.08425" lon="6.14584">
        <ele>1921.8</ele>
        <time>2026-08-09T09:02:44Z</time>
      </trkpt>
      <trkpt lat="45.08421" lon="6.14578">
        <ele>1921.2</ele>
        <time>2026-08-09T09:02:45Z</time>
      </trkpt>
      <trkpt lat="45.08417" lon="6.14572">
        <ele>1920.6</ele>
        <time>2026-08-09T09:02:46Z</time>
      </trkpt>
      <trkpt lat="45.08412" lon="6.14565">
        <ele>1919.8</ele>
        <time>2026-08-09T09:02:47Z</time>
      </trkpt>
      <trkpt lat="45.08408" lon="6.14558">
        <ele>1919.2</ele>
        <time>2026-08-09T09:02:48Z</time>
      </trkpt>
      <trkpt lat="45.08404" lon="6.14551">
        <ele>1918.2</ele>
        <time>2026-08-09T09:02:49Z</time>
      </trkpt>
      <trkpt lat="45.084" lon="6.14545">
        <ele>1917.6</ele>
        <time>2026-08-09T09:02:50Z</time>
      </trkpt>
      <trkpt lat="45.08393" lon="6.14532">
        <ele>1917.2</ele>
        <time>2026-08-09T09:02:52Z</time>
      </trkpt>
      <trkpt lat="45.08385" lon="6.14519">
        <ele>1916.6</ele>
        <time>2026-08-09T09:02:54Z</time>
      </trkpt>
      <trkpt lat="45.08378" lon="6.14506">
        <ele>1916</ele>
        <time>2026-08-09T09:02:56Z</time>
      </trkpt>
      <trkpt lat="45.08374" lon="6.14499">
        <ele>1915.4</ele>
        <time>2026-08-09T09:02:57Z</time>
      </trkpt>
      <trkpt lat="45.08371" lon="6.14493">
        <ele>1915.2</ele>
        <time>2026-08-09T09:02:58Z</time>
      </trkpt>
      <trkpt lat="45.08367" lon="6.14487">
        <ele>1914.8</ele>
        <time>2026-08-09T09:02:59Z</time>
      </trkpt>
      <trkpt lat="45.08364" lon="6.1448">
        <ele>1914.2</ele>
        <time>2026-08-09T09:03:00Z</time>
      </trkpt>
      <trkpt lat="45.0836" lon="6.14474">
        <ele>1913.6</ele>
        <time>2026-08-09T09:03:01Z</time>
      </trkpt>
      <trkpt lat="45.08356" lon="6.14467">
        <ele>1913</ele>
        <time>2026-08-09T09:03:02Z</time>
      </trkpt>
      <trkpt lat="45.08353" lon="6.14461">
        <ele>1912.6</ele>
        <time>2026-08-09T09:03:03Z</time>
      </trkpt>
      <trkpt lat="45.08349" lon="6.14454">
        <ele>1911.8</ele>
        <time>2026-08-09T09:03:04Z</time>
      </trkpt>
      <trkpt lat="45.0834" lon="6.14439">
        <ele>1911.4</ele>
        <time>2026-08-09T09:03:06Z</time>
      </trkpt>
      <trkpt lat="45.08329" lon="6.14422">
        <ele>1911</ele>
        <time>2026-08-09T09:03:08Z</time>
      </trkpt>
      <trkpt lat="45.08318" lon="6.14406">
        <ele>1910.2</ele>
        <time>2026-08-09T09:03:10Z</time>
      </trkpt>
      <trkpt lat="45.08309" lon="6.14392">
        <ele>1908.8</ele>
        <time>2026-08-09T09:03:12Z</time>
      </trkpt>
      <trkpt lat="45.08304" lon="6.14386">
        <ele>1907.8</ele>
        <time>2026-08-09T09:03:13Z</time>
      </trkpt>
      <trkpt lat="45.083" lon="6.1438">
        <ele>1907</ele>
        <time>2026-08-09T09:03:14Z</time>
      </trkpt>
      <trkpt lat="45.08295" lon="6.14374">
        <ele>1905.8</ele>
        <time>2026-08-09T09:03:15Z</time>
      </trkpt>
      <trkpt lat="45.08291" lon="6.14367">
        <ele>1904.8</ele>
        <time>2026-08-09T09:03:16Z</time>
      </trkpt>
      <trkpt lat="45.08282" lon="6.14355">
        <ele>1903.2</ele>
        <time>2026-08-09T09:03:18Z</time>
      </trkpt>
      <trkpt lat="45.08274" lon="6.14343">
        <ele>1902.6</ele>
        <time>2026-08-09T09:03:20Z</time>
      </trkpt>
      <trkpt lat="45.08266" lon="6.14328">
        <ele>1901.8</ele>
        <time>2026-08-09T09:03:22Z</time>
      </trkpt>
      <trkpt lat="45.08257" lon="6.14313">
        <ele>1900.8</ele>
        <time>2026-08-09T09:03:24Z</time>
      </trkpt>
      <trkpt lat="45.08252" lon="6.14305">
        <ele>1900.2</ele>
        <time>2026-08-09T09:03:25Z</time>
      </trkpt>
      <trkpt lat="45.08247" lon="6.14295">
        <ele>1899.6</ele>
        <time>2026-08-09T09:03:26Z</time>
      </trkpt>
      <trkpt lat="45.08235" lon="6.14276">
        <ele>1898.8</ele>
        <time>2026-08-09T09:03:28Z</time>
      </trkpt>
      <trkpt lat="45.08229" lon="6.14266">
        <ele>1897.8</ele>
        <time>2026-08-09T09:03:29Z</time>
      </trkpt>
      <trkpt lat="45.08223" lon="6.14257">
        <ele>1896.8</ele>
        <time>2026-08-09T09:03:30Z</time>
      </trkpt>
      <trkpt lat="45.08213" lon="6.14241">
        <ele>1893.6</ele>
        <time>2026-08-09T09:03:32Z</time>
      </trkpt>
      <trkpt lat="45.08208" lon="6.14233">
        <ele>1892.4</ele>
        <time>2026-08-09T09:03:33Z</time>
      </trkpt>
      <trkpt lat="45.08202" lon="6.14224">
        <ele>1891</ele>
        <time>2026-08-09T09:03:34Z</time>
      </trkpt>
      <trkpt lat="45.08197" lon="6.14215">
        <ele>1889.2</ele>
        <time>2026-08-09T09:03:35Z</time>
      </trkpt>
      <trkpt lat="45.08193" lon="6.14205">
        <ele>1887.6</ele>
        <time>2026-08-09T09:03:36Z</time>
      </trkpt>
      <trkpt lat="45.08186" lon="6.14184">
        <ele>1886.2</ele>
        <time>2026-08-09T09:03:38Z</time>
      </trkpt>
      <trkpt lat="45.08181" lon="6.14161">
        <ele>1885.6</ele>
        <time>2026-08-09T09:03:40Z</time>
      </trkpt>
      <trkpt lat="45.08179" lon="6.1415">
        <ele>1884.8</ele>
        <time>2026-08-09T09:03:41Z</time>
      </trkpt>
      <trkpt lat="45.08177" lon="6.1414">
        <ele>1884</ele>
        <time>2026-08-09T09:03:42Z</time>
      </trkpt>
      <trkpt lat="45.08176" lon="6.14131">
        <ele>1882.6</ele>
        <time>2026-08-09T09:03:43Z</time>
      </trkpt>
      <trkpt lat="45.08174" lon="6.14123">
        <ele>1881.4</ele>
        <time>2026-08-09T09:03:44Z</time>
      </trkpt>
      <trkpt lat="45.0817" lon="6.14105">
        <ele>1879.8</ele>
        <time>2026-08-09T09:03:46Z</time>
      </trkpt>
      <trkpt lat="45.08168" lon="6.14097">
        <ele>1878.4</ele>
        <time>2026-08-09T09:03:47Z</time>
      </trkpt>
      <trkpt lat="45.08166" lon="6.14088">
        <ele>1877.6</ele>
        <time>2026-08-09T09:03:48Z</time>
      </trkpt>
      <trkpt lat="45.08163" lon="6.14078">
        <ele>1877</ele>
        <time>2026-08-09T09:03:49Z</time>
      </trkpt>
      <trkpt lat="45.0816" lon="6.14069">
        <ele>1876.6</ele>
        <time>2026-08-09T09:03:50Z</time>
      </trkpt>
      <trkpt lat="45.08157" lon="6.14061">
        <ele>1876.4</ele>
        <time>2026-08-09T09:03:51Z</time>
      </trkpt>
      <trkpt lat="45.08154" lon="6.14054">
        <ele>1876</ele>
        <time>2026-08-09T09:03:52Z</time>
      </trkpt>
      <trkpt lat="45.08152" lon="6.14049">
        <ele>1875.8</ele>
        <time>2026-08-09T09:03:53Z</time>
      </trkpt>
      <trkpt lat="45.0815" lon="6.14044">
        <ele>1875.4</ele>
        <time>2026-08-09T09:03:54Z</time>
      </trkpt>
      <trkpt lat="45.08147" lon="6.14037">
        <ele>1874.2</ele>
        <time>2026-08-09T09:03:56Z</time>
      </trkpt>
      <trkpt lat="45.08144" lon="6.14031">
        <ele>1872.6</ele>
        <time>2026-08-09T09:03:58Z</time>
      </trkpt>
      <trkpt lat="45.08142" lon="6.14025">
        <ele>1871.8</ele>
        <time>2026-08-09T09:04:00Z</time>
      </trkpt>
      <trkpt lat="45.08141" lon="6.14022">
        <ele>1871.6</ele>
        <time>2026-08-09T09:04:01Z</time>
      </trkpt>
      <trkpt lat="45.08141" lon="6.14021">
        <ele>1871.4</ele>
        <time>2026-08-09T09:04:02Z</time>
      </trkpt>
      <trkpt lat="45.08142" lon="6.14021">
        <ele>1871</ele>
        <time>2026-08-09T09:04:04Z</time>
      </trkpt>
      <trkpt lat="45.08142" lon="6.14021">
        <ele>1870.8</ele>
        <time>2026-08-09T09:04:06Z</time>
      </trkpt>
      <trkpt lat="45.08141" lon="6.1402">
        <ele>1870.6</ele>
        <time>2026-08-09T09:04:08Z</time>
      </trkpt>
      <trkpt lat="45.0814" lon="6.14018">
        <ele>1870.4</ele>
        <time>2026-08-09T09:04:09Z</time>
      </trkpt>
      <trkpt lat="45.08139" lon="6.14015">
        <ele>1870.4</ele>
        <time>2026-08-09T09:04:10Z</time>
      </trkpt>
      <trkpt lat="45.08135" lon="6.14006">
        <ele>1870.2</ele>
        <time>2026-08-09T09:04:12Z</time>
      </trkpt>
      <trkpt lat="45.08132" lon="6.13994">
        <ele>1870</ele>
        <time>2026-08-09T09:04:14Z</time>
      </trkpt>
      <trkpt lat="45.08128" lon="6.1398">
        <ele>1869.8</ele>
        <time>2026-08-09T09:04:16Z</time>
      </trkpt>
      <trkpt lat="45.08123" lon="6.13964">
        <ele>1869.2</ele>
        <time>2026-08-09T09:04:18Z</time>
      </trkpt>
      <trkpt lat="45.08117" lon="6.13946">
        <ele>1868.2</ele>
        <time>2026-08-09T09:04:20Z</time>
      </trkpt>
      <trkpt lat="45.0811" lon="6.13925">
        <ele>1866.4</ele>
        <time>2026-08-09T09:04:22Z</time>
      </trkpt>
      <trkpt lat="45.08103" lon="6.13903">
        <ele>1865.2</ele>
        <time>2026-08-09T09:04:24Z</time>
      </trkpt>
      <trkpt lat="45.08098" lon="6.13882">
        <ele>1863.6</ele>
        <time>2026-08-09T09:04:26Z</time>
      </trkpt>
      <trkpt lat="45.08096" lon="6.13872">
        <ele>1862.6</ele>
        <time>2026-08-09T09:04:27Z</time>
      </trkpt>
      <trkpt lat="45.08094" lon="6.13862">
        <ele>1861.4</ele>
        <time>2026-08-09T09:04:28Z</time>
      </trkpt>
      <trkpt lat="45.08092" lon="6.13851">
        <ele>1859</ele>
        <time>2026-08-09T09:04:29Z</time>
      </trkpt>
      <trkpt lat="45.0809" lon="6.1384">
        <ele>1858</ele>
        <time>2026-08-09T09:04:30Z</time>
      </trkpt>
      <trkpt lat="45.08088" lon="6.13829">
        <ele>1857.4</ele>
        <time>2026-08-09T09:04:31Z</time>
      </trkpt>
      <trkpt lat="45.08086" lon="6.13818">
        <ele>1856.4</ele>
        <time>2026-08-09T09:04:32Z</time>
      </trkpt>
      <trkpt lat="45.08083" lon="6.13796">
        <ele>1855.2</ele>
        <time>2026-08-09T09:04:34Z</time>
      </trkpt>
      <trkpt lat="45.08081" lon="6.13777">
        <ele>1853.8</ele>
        <time>2026-08-09T09:04:36Z</time>
      </trkpt>
      <trkpt lat="45.08079" lon="6.13757">
        <ele>1852</ele>
        <time>2026-08-09T09:04:38Z</time>
      </trkpt>
      <trkpt lat="45.08078" lon="6.13747">
        <ele>1850.8</ele>
        <time>2026-08-09T09:04:39Z</time>
      </trkpt>
      <trkpt lat="45.08077" lon="6.13736">
        <ele>1849.6</ele>
        <time>2026-08-09T09:04:40Z</time>
      </trkpt>
      <trkpt lat="45.08075" lon="6.13717">
        <ele>1848.2</ele>
        <time>2026-08-09T09:04:42Z</time>
      </trkpt>
      <trkpt lat="45.08074" lon="6.13698">
        <ele>1847.6</ele>
        <time>2026-08-09T09:04:44Z</time>
      </trkpt>
      <trkpt lat="45.08073" lon="6.13687">
        <ele>1847.2</ele>
        <time>2026-08-09T09:04:45Z</time>
      </trkpt>
      <trkpt lat="45.08072" lon="6.13677">
        <ele>1846.2</ele>
        <time>2026-08-09T09:04:46Z</time>
      </trkpt>
      <trkpt lat="45.08072" lon="6.13666">
        <ele>1845.2</ele>
        <time>2026-08-09T09:04:47Z</time>
      </trkpt>
      <trkpt lat="45.08071" lon="6.13655">
        <ele>1844.2</ele>
        <time>2026-08-09T09:04:48Z</time>
      </trkpt>
      <trkpt lat="45.0807" lon="6.13633">
        <ele>1842.8</ele>
        <time>2026-08-09T09:04:50Z</time>
      </trkpt>
      <trkpt lat="45.08069" lon="6.13611">
        <ele>1841.2</ele>
        <time>2026-08-09T09:04:52Z</time>
      </trkpt>
      <trkpt lat="45.08068" lon="6.13588">
        <ele>1839.8</ele>
        <time>2026-08-09T09:04:54Z</time>
      </trkpt>
      <trkpt lat="45.08068" lon="6.13577">
        <ele>1838.8</ele>
        <time>2026-08-09T09:04:55Z</time>
      </trkpt>
      <trkpt lat="45.08067" lon="6.13568">
        <ele>1837.8</ele>
        <time>2026-08-09T09:04:56Z</time>
      </trkpt>
      <trkpt lat="45.08064" lon="6.13552">
        <ele>1835.8</ele>
        <time>2026-08-09T09:04:58Z</time>
      </trkpt>
      <trkpt lat="45.08063" lon="6.13546">
        <ele>1835</ele>
        <time>2026-08-09T09:04:59Z</time>
      </trkpt>
      <trkpt lat="45.08061" lon="6.13539">
        <ele>1833.8</ele>
        <time>2026-08-09T09:05:00Z</time>
      </trkpt>
      <trkpt lat="45.08058" lon="6.13532">
        <ele>1832.6</ele>
        <time>2026-08-09T09:05:01Z</time>
      </trkpt>
      <trkpt lat="45.08056" lon="6.13524">
        <ele>1832</ele>
        <time>2026-08-09T09:05:02Z</time>
      </trkpt>
      <trkpt lat="45.08053" lon="6.13515">
        <ele>1831.6</ele>
        <time>2026-08-09T09:05:03Z</time>
      </trkpt>
      <trkpt lat="45.08051" lon="6.13505">
        <ele>1831.4</ele>
        <time>2026-08-09T09:05:04Z</time>
      </trkpt>
      <trkpt lat="45.08045" lon="6.13485">
        <ele>1831</ele>
        <time>2026-08-09T09:05:06Z</time>
      </trkpt>
      <trkpt lat="45.08039" lon="6.13466">
        <ele>1830.8</ele>
        <time>2026-08-09T09:05:08Z</time>
      </trkpt>
      <trkpt lat="45.08036" lon="6.13457">
        <ele>1830</ele>
        <time>2026-08-09T09:05:09Z</time>
      </trkpt>
      <trkpt lat="45.08033" lon="6.13447">
        <ele>1829.4</ele>
        <time>2026-08-09T09:05:10Z</time>
      </trkpt>
      <trkpt lat="45.0803" lon="6.13438">
        <ele>1828.4</ele>
        <time>2026-08-09T09:05:11Z</time>
      </trkpt>
      <trkpt lat="45.08027" lon="6.13429">
        <ele>1827.4</ele>
        <time>2026-08-09T09:05:12Z</time>
      </trkpt>
      <trkpt lat="45.08021" lon="6.13408">
        <ele>1825.4</ele>
        <time>2026-08-09T09:05:14Z</time>
      </trkpt>
      <trkpt lat="45.08016" lon="6.13388">
        <ele>1824</ele>
        <time>2026-08-09T09:05:16Z</time>
      </trkpt>
      <trkpt lat="45.08011" lon="6.1337">
        <ele>1822.8</ele>
        <time>2026-08-09T09:05:18Z</time>
      </trkpt>
      <trkpt lat="45.08008" lon="6.13362">
        <ele>1822.2</ele>
        <time>2026-08-09T09:05:19Z</time>
      </trkpt>
      <trkpt lat="45.08006" lon="6.13354">
        <ele>1821.4</ele>
        <time>2026-08-09T09:05:20Z</time>
      </trkpt>
      <trkpt lat="45.08002" lon="6.13338">
        <ele>1819.2</ele>
        <time>2026-08-09T09:05:22Z</time>
      </trkpt>
      <trkpt lat="45.07996" lon="6.13319">
        <ele>1817.8</ele>
        <time>2026-08-09T09:05:24Z</time>
      </trkpt>
      <trkpt lat="45.07989" lon="6.133">
        <ele>1817.4</ele>
        <time>2026-08-09T09:05:26Z</time>
      </trkpt>
      <trkpt lat="45.0798" lon="6.1328">
        <ele>1817</ele>
        <time>2026-08-09T09:05:28Z</time>
      </trkpt>
      <trkpt lat="45.07976" lon="6.13271">
        <ele>1816.8</ele>
        <time>2026-08-09T09:05:29Z</time>
      </trkpt>
      <trkpt lat="45.07972" lon="6.13261">
        <ele>1816.2</ele>
        <time>2026-08-09T09:05:30Z</time>
      </trkpt>
      <trkpt lat="45.07969" lon="6.13252">
        <ele>1815.6</ele>
        <time>2026-08-09T09:05:31Z</time>
      </trkpt>
      <trkpt lat="45.07968" lon="6.13244">
        <ele>1814.8</ele>
        <time>2026-08-09T09:05:32Z</time>
      </trkpt>
      <trkpt lat="45.07967" lon="6.13236">
        <ele>1814</ele>
        <time>2026-08-09T09:05:33Z</time>
      </trkpt>
      <trkpt lat="45.07966" lon="6.13228">
        <ele>1813.2</ele>
        <time>2026-08-09T09:05:34Z</time>
      </trkpt>
      <trkpt lat="45.07966" lon="6.13218">
        <ele>1812.2</ele>
        <time>2026-08-09T09:05:35Z</time>
      </trkpt>
      <trkpt lat="45.07966" lon="6.13208">
        <ele>1811.4</ele>
        <time>2026-08-09T09:05:36Z</time>
      </trkpt>
      <trkpt lat="45.07966" lon="6.13196">
        <ele>1811</ele>
        <time>2026-08-09T09:05:37Z</time>
      </trkpt>
      <trkpt lat="45.07968" lon="6.13184">
        <ele>1810.4</ele>
        <time>2026-08-09T09:05:38Z</time>
      </trkpt>
      <trkpt lat="45.0797" lon="6.13173">
        <ele>1809.8</ele>
        <time>2026-08-09T09:05:39Z</time>
      </trkpt>
      <trkpt lat="45.07972" lon="6.13163">
        <ele>1809.4</ele>
        <time>2026-08-09T09:05:40Z</time>
      </trkpt>
      <trkpt lat="45.07974" lon="6.13154">
        <ele>1809.2</ele>
        <time>2026-08-09T09:05:41Z</time>
      </trkpt>
      <trkpt lat="45.07977" lon="6.13147">
        <ele>1808.8</ele>
        <time>2026-08-09T09:05:42Z</time>
      </trkpt>
      <trkpt lat="45.07981" lon="6.13133">
        <ele>1807.2</ele>
        <time>2026-08-09T09:05:44Z</time>
      </trkpt>
      <trkpt lat="45.07983" lon="6.13127">
        <ele>1806.2</ele>
        <time>2026-08-09T09:05:45Z</time>
      </trkpt>
      <trkpt lat="45.07985" lon="6.1312">
        <ele>1805.4</ele>
        <time>2026-08-09T09:05:46Z</time>
      </trkpt>
      <trkpt lat="45.07986" lon="6.13113">
        <ele>1804.8</ele>
        <time>2026-08-09T09:05:47Z</time>
      </trkpt>
      <trkpt lat="45.07988" lon="6.13106">
        <ele>1804.4</ele>
        <time>2026-08-09T09:05:48Z</time>
      </trkpt>
      <trkpt lat="45.0799" lon="6.13099">
        <ele>1804</ele>
        <time>2026-08-09T09:05:49Z</time>
      </trkpt>
      <trkpt lat="45.07993" lon="6.13093">
        <ele>1804</ele>
        <time>2026-08-09T09:05:50Z</time>
      </trkpt>
      <trkpt lat="45.07998" lon="6.13085">
        <ele>1803.4</ele>
        <time>2026-08-09T09:05:52Z</time>
      </trkpt>
      <trkpt lat="45.08002" lon="6.13085">
        <ele>1803.2</ele>
        <time>2026-08-09T09:05:53Z</time>
      </trkpt>
      <trkpt lat="45.08005" lon="6.13087">
        <ele>1803</ele>
        <time>2026-08-09T09:05:54Z</time>
      </trkpt>
      <trkpt lat="45.08007" lon="6.13091">
        <ele>1802.8</ele>
        <time>2026-08-09T09:05:55Z</time>
      </trkpt>
      <trkpt lat="45.08008" lon="6.13094">
        <ele>1802</ele>
        <time>2026-08-09T09:05:56Z</time>
      </trkpt>
      <trkpt lat="45.08008" lon="6.13097">
        <ele>1801.4</ele>
        <time>2026-08-09T09:05:57Z</time>
      </trkpt>
      <trkpt lat="45.08008" lon="6.13098">
        <ele>1801</ele>
        <time>2026-08-09T09:05:58Z</time>
      </trkpt>
      <trkpt lat="45.08008" lon="6.13099">
        <ele>1800.6</ele>
        <time>2026-08-09T09:06:00Z</time>
      </trkpt>
      <trkpt lat="45.08008" lon="6.13099">
        <ele>1800.4</ele>
        <time>2026-08-09T09:06:01Z</time>
      </trkpt>
      <trkpt lat="45.08008" lon="6.131">
        <ele>1800.2</ele>
        <time>2026-08-09T09:06:02Z</time>
      </trkpt>
      <trkpt lat="45.08008" lon="6.131">
        <ele>1800.2</ele>
        <time>2026-08-09T09:06:04Z</time>
      </trkpt>
      <trkpt lat="45.08008" lon="6.131">
        <ele>1800.2</ele>
        <time>2026-08-09T09:06:06Z</time>
      </trkpt>
      <trkpt lat="45.08008" lon="6.131">
        <ele>1800</ele>
        <time>2026-08-09T09:06:08Z</time>
      </trkpt>
      <trkpt lat="45.08008" lon="6.13101">
        <ele>1800</ele>
        <time>2026-08-09T09:06:10Z</time>
      </trkpt>
      <trkpt lat="45.08009" lon="6.13103">
        <ele>1799.8</ele>
        <time>2026-08-09T09:06:11Z</time>
      </trkpt>
      <trkpt lat="45.08009" lon="6.13105">
        <ele>1799.8</ele>
        <time>2026-08-09T09:06:12Z</time>
      </trkpt>
      <trkpt lat="45.0801" lon="6.13112">
        <ele>1799.8</ele>
        <time>2026-08-09T09:06:14Z</time>
      </trkpt>
      <trkpt lat="45.0801" lon="6.13117">
        <ele>1799.8</ele>
        <time>2026-08-09T09:06:15Z</time>
      </trkpt>
      <trkpt lat="45.08011" lon="6.13123">
        <ele>1799.8</ele>
        <time>2026-08-09T09:06:16Z</time>
      </trkpt>
      <trkpt lat="45.08015" lon="6.13136">
        <ele>1799.6</ele>
        <time>2026-08-09T09:06:18Z</time>
      </trkpt>
      <trkpt lat="45.08018" lon="6.13144">
        <ele>1799.6</ele>
        <time>2026-08-09T09:06:19Z</time>
      </trkpt>
      <trkpt lat="45.08021" lon="6.13151">
        <ele>1799.4</ele>
        <time>2026-08-09T09:06:20Z</time>
      </trkpt>
      <trkpt lat="45.08027" lon="6.13166">
        <ele>1798.8</ele>
        <time>2026-08-09T09:06:22Z</time>
      </trkpt>
      <trkpt lat="45.08034" lon="6.1318">
        <ele>1797.6</ele>
        <time>2026-08-09T09:06:24Z</time>
      </trkpt>
      <trkpt lat="45.08041" lon="6.13193">
        <ele>1796.4</ele>
        <time>2026-08-09T09:06:26Z</time>
      </trkpt>
      <trkpt lat="45.0805" lon="6.13206">
        <ele>1794.6</ele>
        <time>2026-08-09T09:06:28Z</time>
      </trkpt>
      <trkpt lat="45.08057" lon="6.13212">
        <ele>1794</ele>
        <time>2026-08-09T09:06:29Z</time>
      </trkpt>
      <trkpt lat="45.08063" lon="6.13216">
        <ele>1793.8</ele>
        <time>2026-08-09T09:06:30Z</time>
      </trkpt>
      <trkpt lat="45.08077" lon="6.13219">
        <ele>1793.4</ele>
        <time>2026-08-09T09:06:32Z</time>
      </trkpt>
      <trkpt lat="45.0809" lon="6.13219">
        <ele>1792.6</ele>
        <time>2026-08-09T09:06:34Z</time>
      </trkpt>
      <trkpt lat="45.08095" lon="6.13218">
        <ele>1791.8</ele>
        <time>2026-08-09T09:06:35Z</time>
      </trkpt>
      <trkpt lat="45.081" lon="6.13217">
        <ele>1791</ele>
        <time>2026-08-09T09:06:36Z</time>
      </trkpt>
      <trkpt lat="45.08103" lon="6.13215">
        <ele>1790.4</ele>
        <time>2026-08-09T09:06:37Z</time>
      </trkpt>
      <trkpt lat="45.08106" lon="6.13214">
        <ele>1789.8</ele>
        <time>2026-08-09T09:06:38Z</time>
      </trkpt>
      <trkpt lat="45.08108" lon="6.13213">
        <ele>1789</ele>
        <time>2026-08-09T09:06:39Z</time>
      </trkpt>
      <trkpt lat="45.08109" lon="6.13212">
        <ele>1788.6</ele>
        <time>2026-08-09T09:06:40Z</time>
      </trkpt>
      <trkpt lat="45.08109" lon="6.13212">
        <ele>1788.2</ele>
        <time>2026-08-09T09:06:41Z</time>
      </trkpt>
      <trkpt lat="45.08109" lon="6.13211">
        <ele>1788</ele>
        <time>2026-08-09T09:06:42Z</time>
      </trkpt>
      <trkpt lat="45.08111" lon="6.1321">
        <ele>1787.6</ele>
        <time>2026-08-09T09:06:44Z</time>
      </trkpt>
      <trkpt lat="45.08113" lon="6.13208">
        <ele>1787.4</ele>
        <time>2026-08-09T09:06:46Z</time>
      </trkpt>
      <trkpt lat="45.08113" lon="6.13208">
        <ele>1787.2</ele>
        <time>2026-08-09T09:06:47Z</time>
      </trkpt>
      <trkpt lat="45.08115" lon="6.13207">
        <ele>1787.2</ele>
        <time>2026-08-09T09:06:48Z</time>
      </trkpt>
      <trkpt lat="45.08118" lon="6.13204">
        <ele>1787.2</ele>
        <time>2026-08-09T09:06:50Z</time>
      </trkpt>
      <trkpt lat="45.08122" lon="6.132">
        <ele>1786.8</ele>
        <time>2026-08-09T09:06:52Z</time>
      </trkpt>
      <trkpt lat="45.08126" lon="6.13198">
        <ele>1786.6</ele>
        <time>2026-08-09T09:06:53Z</time>
      </trkpt>
      <trkpt lat="45.08129" lon="6.13196">
        <ele>1786.6</ele>
        <time>2026-08-09T09:06:54Z</time>
      </trkpt>
      <trkpt lat="45.08135" lon="6.1319">
        <ele>1786.4</ele>
        <time>2026-08-09T09:06:56Z</time>
      </trkpt>
      <trkpt lat="45.08139" lon="6.13184">
        <ele>1785.8</ele>
        <time>2026-08-09T09:06:58Z</time>
      </trkpt>
      <trkpt lat="45.08142" lon="6.13182">
        <ele>1785.6</ele>
        <time>2026-08-09T09:06:59Z</time>
      </trkpt>
      <trkpt lat="45.08144" lon="6.13181">
        <ele>1785.4</ele>
        <time>2026-08-09T09:07:00Z</time>
      </trkpt>
      <trkpt lat="45.08149" lon="6.13178">
        <ele>1785</ele>
        <time>2026-08-09T09:07:02Z</time>
      </trkpt>
      <trkpt lat="45.08154" lon="6.13174">
        <ele>1784.4</ele>
        <time>2026-08-09T09:07:04Z</time>
      </trkpt>
      <trkpt lat="45.08156" lon="6.13171">
        <ele>1784.2</ele>
        <time>2026-08-09T09:07:06Z</time>
      </trkpt>
      <trkpt lat="45.08156" lon="6.13169">
        <ele>1784</ele>
        <time>2026-08-09T09:07:08Z</time>
      </trkpt>
      <trkpt lat="45.08156" lon="6.13168">
        <ele>1784</ele>
        <time>2026-08-09T09:07:10Z</time>
      </trkpt>
      <trkpt lat="45.08157" lon="6.13168">
        <ele>1784</ele>
        <time>2026-08-09T09:07:11Z</time>
      </trkpt>
      <trkpt lat="45.08157" lon="6.13167">
        <ele>1784</ele>
        <time>2026-08-09T09:07:12Z</time>
      </trkpt>
      <trkpt lat="45.08157" lon="6.13166">
        <ele>1784</ele>
        <time>2026-08-09T09:07:14Z</time>
      </trkpt>
      <trkpt lat="45.08157" lon="6.13165">
        <ele>1784</ele>
        <time>2026-08-09T09:07:16Z</time>
      </trkpt>
      <trkpt lat="45.08157" lon="6.13165">
        <ele>1784</ele>
        <time>2026-08-09T09:07:18Z</time>
      </trkpt>
      <trkpt lat="45.08157" lon="6.13165">
        <ele>1783.8</ele>
        <time>2026-08-09T09:07:20Z</time>
      </trkpt>
      <trkpt lat="45.08157" lon="6.13165">
        <ele>1783.8</ele>
        <time>2026-08-09T09:07:21Z</time>
      </trkpt>
      <trkpt lat="45.08158" lon="6.13164">
        <ele>1783.8</ele>
        <time>2026-08-09T09:07:22Z</time>
      </trkpt>
      <trkpt lat="45.08159" lon="6.13161">
        <ele>1783.8</ele>
        <time>2026-08-09T09:07:24Z</time>
      </trkpt>
      <trkpt lat="45.08159" lon="6.1316">
        <ele>1783.8</ele>
        <time>2026-08-09T09:07:26Z</time>
      </trkpt>
      <trkpt lat="45.08159" lon="6.13159">
        <ele>1783.8</ele>
        <time>2026-08-09T09:07:27Z</time>
      </trkpt>
      <trkpt lat="45.08159" lon="6.13159">
        <ele>1783.8</ele>
        <time>2026-08-09T09:07:28Z</time>
      </trkpt>
      <trkpt lat="45.08159" lon="6.13159">
        <ele>1783.8</ele>
        <time>2026-08-09T09:07:30Z</time>
      </trkpt>
      <trkpt lat="45.08159" lon="6.13159">
        <ele>1783.8</ele>
        <time>2026-08-09T09:07:32Z</time>
      </trkpt>
      <trkpt lat="45.0816" lon="6.13159">
        <ele>1783.8</ele>
        <time>2026-08-09T09:07:34Z</time>
      </trkpt>
      <trkpt lat="45.08159" lon="6.13159">
        <ele>1783.8</ele>
        <time>2026-08-09T09:07:36Z</time>
      </trkpt>
      <trkpt lat="45.0816" lon="6.13159">
        <ele>1783.8</ele>
        <time>2026-08-09T09:07:37Z</time>
      </trkpt>
      <trkpt lat="45.0816" lon="6.13159">
        <ele>1783.8</ele>
        <time>2026-08-09T09:07:38Z</time>
      </trkpt>
      <trkpt lat="45.0816" lon="6.13159">
        <ele>1783.8</ele>
        <time>2026-08-09T09:07:40Z</time>
      </trkpt>
      <trkpt lat="45.0816" lon="6.13159">
        <ele>1783.8</ele>
        <time>2026-08-09T09:07:42Z</time>
      </trkpt>
      <trkpt lat="45.0816" lon="6.13159">
        <ele>1783.8</ele>
        <time>2026-08-09T09:07:44Z</time>
      </trkpt>
      <trkpt lat="45.0816" lon="6.13159">
        <ele>1783.8</ele>
        <time>2026-08-09T09:07:46Z</time>
      </trkpt>
      <trkpt lat="45.08159" lon="6.13159">
        <ele>1783.8</ele>
        <time>2026-08-09T09:07:48Z</time>
      </trkpt>
      <trkpt lat="45.0816" lon="6.13159">
        <ele>1783.8</ele>
        <time>2026-08-09T09:07:50Z</time>
      </trkpt>
      <trkpt lat="45.0816" lon="6.13159">
        <ele>1783.8</ele>
        <time>2026-08-09T09:07:52Z</time>
      </trkpt>
      <trkpt lat="45.0816" lon="6.13159">
        <ele>1783.8</ele>
        <time>2026-08-09T09:07:53Z</time>
      </trkpt>
      <trkpt lat="45.0816" lon="6.13158">
        <ele>1783.8</ele>
        <time>2026-08-09T09:07:54Z</time>
      </trkpt>
      <trkpt lat="45.08161" lon="6.13155">
        <ele>1783.8</ele>
        <time>2026-08-09T09:07:56Z</time>
      </trkpt>
      <trkpt lat="45.0816" lon="6.1315">
        <ele>1783.8</ele>
        <time>2026-08-09T09:07:58Z</time>
      </trkpt>
      <trkpt lat="45.0816" lon="6.13147">
        <ele>1783.6</ele>
        <time>2026-08-09T09:07:59Z</time>
      </trkpt>
      <trkpt lat="45.08159" lon="6.13144">
        <ele>1783.6</ele>
        <time>2026-08-09T09:08:00Z</time>
      </trkpt>
      <trkpt lat="45.08158" lon="6.13137">
        <ele>1783.6</ele>
        <time>2026-08-09T09:08:02Z</time>
      </trkpt>
      <trkpt lat="45.08157" lon="6.13132">
        <ele>1783.6</ele>
        <time>2026-08-09T09:08:04Z</time>
      </trkpt>
      <trkpt lat="45.08156" lon="6.13131">
        <ele>1783.4</ele>
        <time>2026-08-09T09:08:06Z</time>
      </trkpt>
      <trkpt lat="45.08156" lon="6.13131">
        <ele>1782.8</ele>
        <time>2026-08-09T09:08:08Z</time>
      </trkpt>
      <trkpt lat="45.08156" lon="6.13131">
        <ele>1782.6</ele>
        <time>2026-08-09T09:08:09Z</time>
      </trkpt>
      <trkpt lat="45.08156" lon="6.13131">
        <ele>1782.4</ele>
        <time>2026-08-09T09:08:10Z</time>
      </trkpt>
      <trkpt lat="45.08156" lon="6.13131">
        <ele>1782</ele>
        <time>2026-08-09T09:08:12Z</time>
      </trkpt>
      <trkpt lat="45.08157" lon="6.1313">
        <ele>1782</ele>
        <time>2026-08-09T09:08:14Z</time>
      </trkpt>
      <trkpt lat="45.08157" lon="6.1313">
        <ele>1781.8</ele>
        <time>2026-08-09T09:08:16Z</time>
      </trkpt>
      <trkpt lat="45.08156" lon="6.1313">
        <ele>1781.8</ele>
        <time>2026-08-09T09:08:18Z</time>
      </trkpt>
      <trkpt lat="45.08156" lon="6.1313">
        <ele>1781.8</ele>
        <time>2026-08-09T09:08:20Z</time>
      </trkpt>
      <trkpt lat="45.08157" lon="6.1313">
        <ele>1781.8</ele>
        <time>2026-08-09T09:08:22Z</time>
      </trkpt>
      <trkpt lat="45.08155" lon="6.13126">
        <ele>1781.8</ele>
        <time>2026-08-09T09:08:24Z</time>
      </trkpt>
      <trkpt lat="45.08153" lon="6.1312">
        <ele>1781.8</ele>
        <time>2026-08-09T09:08:26Z</time>
      </trkpt>
      <trkpt lat="45.08152" lon="6.13116">
        <ele>1781.8</ele>
        <time>2026-08-09T09:08:28Z</time>
      </trkpt>
      <trkpt lat="45.08152" lon="6.13116">
        <ele>1781.6</ele>
        <time>2026-08-09T09:08:30Z</time>
      </trkpt>
      <trkpt lat="45.08152" lon="6.13116">
        <ele>1781.2</ele>
        <time>2026-08-09T09:08:32Z</time>
      </trkpt>
      <trkpt lat="45.08152" lon="6.13116">
        <ele>1780.8</ele>
        <time>2026-08-09T09:08:34Z</time>
      </trkpt>
      <trkpt lat="45.08152" lon="6.13115">
        <ele>1780.8</ele>
        <time>2026-08-09T09:08:36Z</time>
      </trkpt>
      <trkpt lat="45.0815" lon="6.13112">
        <ele>1780.6</ele>
        <time>2026-08-09T09:08:38Z</time>
      </trkpt>
      <trkpt lat="45.0815" lon="6.13109">
        <ele>1780.6</ele>
        <time>2026-08-09T09:08:39Z</time>
      </trkpt>
      <trkpt lat="45.08149" lon="6.13105">
        <ele>1780.6</ele>
        <time>2026-08-09T09:08:40Z</time>
      </trkpt>
      <trkpt lat="45.08147" lon="6.13095">
        <ele>1780.4</ele>
        <time>2026-08-09T09:08:42Z</time>
      </trkpt>
      <trkpt lat="45.08146" lon="6.13089">
        <ele>1780.4</ele>
        <time>2026-08-09T09:08:43Z</time>
      </trkpt>
      <trkpt lat="45.08145" lon="6.13082">
        <ele>1780.4</ele>
        <time>2026-08-09T09:08:44Z</time>
      </trkpt>
      <trkpt lat="45.08144" lon="6.13068">
        <ele>1780.2</ele>
        <time>2026-08-09T09:08:46Z</time>
      </trkpt>
      <trkpt lat="45.08145" lon="6.1306">
        <ele>1779.6</ele>
        <time>2026-08-09T09:08:47Z</time>
      </trkpt>
      <trkpt lat="45.08146" lon="6.13051">
        <ele>1779</ele>
        <time>2026-08-09T09:08:48Z</time>
      </trkpt>
      <trkpt lat="45.08152" lon="6.13034">
        <ele>1777.8</ele>
        <time>2026-08-09T09:08:50Z</time>
      </trkpt>
      <trkpt lat="45.08156" lon="6.13025">
        <ele>1777.2</ele>
        <time>2026-08-09T09:08:51Z</time>
      </trkpt>
      <trkpt lat="45.0816" lon="6.13016">
        <ele>1776.6</ele>
        <time>2026-08-09T09:08:52Z</time>
      </trkpt>
      <trkpt lat="45.08168" lon="6.13">
        <ele>1775.4</ele>
        <time>2026-08-09T09:08:54Z</time>
      </trkpt>
      <trkpt lat="45.08168" lon="6.13">
        <ele>1775</ele>
        <time>2026-08-09T09:08:55Z</time>
      </trkpt>
      <trkpt lat="45.08169" lon="6.12996">
        <ele>1774.2</ele>
        <time>2026-08-09T09:08:56Z</time>
      </trkpt>
      <trkpt lat="45.08175" lon="6.12984">
        <ele>1773.6</ele>
        <time>2026-08-09T09:08:58Z</time>
      </trkpt>
      <trkpt lat="45.08177" lon="6.1298">
        <ele>1773.4</ele>
        <time>2026-08-09T09:09:00Z</time>
      </trkpt>
      <trkpt lat="45.0818" lon="6.12974">
        <ele>1773.4</ele>
        <time>2026-08-09T09:09:01Z</time>
      </trkpt>
      <trkpt lat="45.08182" lon="6.12967">
        <ele>1773.2</ele>
        <time>2026-08-09T09:09:02Z</time>
      </trkpt>
      <trkpt lat="45.08186" lon="6.12952">
        <ele>1772.8</ele>
        <time>2026-08-09T09:09:04Z</time>
      </trkpt>
      <trkpt lat="45.08187" lon="6.12933">
        <ele>1772.4</ele>
        <time>2026-08-09T09:09:06Z</time>
      </trkpt>
      <trkpt lat="45.08186" lon="6.12912">
        <ele>1772</ele>
        <time>2026-08-09T09:09:08Z</time>
      </trkpt>
      <trkpt lat="45.08185" lon="6.12893">
        <ele>1771</ele>
        <time>2026-08-09T09:09:10Z</time>
      </trkpt>
      <trkpt lat="45.08185" lon="6.12883">
        <ele>1770.4</ele>
        <time>2026-08-09T09:09:11Z</time>
      </trkpt>
      <trkpt lat="45.08186" lon="6.12873">
        <ele>1769.6</ele>
        <time>2026-08-09T09:09:12Z</time>
      </trkpt>
      <trkpt lat="45.08186" lon="6.12864">
        <ele>1768.8</ele>
        <time>2026-08-09T09:09:13Z</time>
      </trkpt>
      <trkpt lat="45.08186" lon="6.12855">
        <ele>1768.4</ele>
        <time>2026-08-09T09:09:14Z</time>
      </trkpt>
      <trkpt lat="45.08183" lon="6.12833">
        <ele>1767</ele>
        <time>2026-08-09T09:09:16Z</time>
      </trkpt>
      <trkpt lat="45.08183" lon="6.12833">
        <ele>1766.6</ele>
        <time>2026-08-09T09:09:17Z</time>
      </trkpt>
      <trkpt lat="45.08181" lon="6.12827">
        <ele>1766.2</ele>
        <time>2026-08-09T09:09:18Z</time>
      </trkpt>
      <trkpt lat="45.0818" lon="6.1282">
        <ele>1765.6</ele>
        <time>2026-08-09T09:09:19Z</time>
      </trkpt>
      <trkpt lat="45.08177" lon="6.12812">
        <ele>1765.2</ele>
        <time>2026-08-09T09:09:20Z</time>
      </trkpt>
      <trkpt lat="45.08171" lon="6.12796">
        <ele>1764.8</ele>
        <time>2026-08-09T09:09:22Z</time>
      </trkpt>
      <trkpt lat="45.08162" lon="6.12769">
        <ele>1764.6</ele>
        <time>2026-08-09T09:09:24Z</time>
      </trkpt>
      <trkpt lat="45.0816" lon="6.12759">
        <ele>1764.4</ele>
        <time>2026-08-09T09:09:26Z</time>
      </trkpt>
      <trkpt lat="45.08157" lon="6.12749">
        <ele>1764</ele>
        <time>2026-08-09T09:09:27Z</time>
      </trkpt>
      <trkpt lat="45.08155" lon="6.1274">
        <ele>1763.4</ele>
        <time>2026-08-09T09:09:28Z</time>
      </trkpt>
      <trkpt lat="45.08152" lon="6.12722">
        <ele>1761.4</ele>
        <time>2026-08-09T09:09:30Z</time>
      </trkpt>
      <trkpt lat="45.08147" lon="6.12704">
        <ele>1759.8</ele>
        <time>2026-08-09T09:09:32Z</time>
      </trkpt>
      <trkpt lat="45.08144" lon="6.12686">
        <ele>1758.4</ele>
        <time>2026-08-09T09:09:34Z</time>
      </trkpt>
      <trkpt lat="45.08143" lon="6.1267">
        <ele>1757.8</ele>
        <time>2026-08-09T09:09:36Z</time>
      </trkpt>
      <trkpt lat="45.08139" lon="6.12656">
        <ele>1757.2</ele>
        <time>2026-08-09T09:09:38Z</time>
      </trkpt>
      <trkpt lat="45.08132" lon="6.12645">
        <ele>1756.6</ele>
        <time>2026-08-09T09:09:39Z</time>
      </trkpt>
      <trkpt lat="45.08132" lon="6.12645">
        <ele>1756</ele>
        <time>2026-08-09T09:09:40Z</time>
      </trkpt>
      <trkpt lat="45.08125" lon="6.12633">
        <ele>1755.6</ele>
        <time>2026-08-09T09:09:42Z</time>
      </trkpt>
      <trkpt lat="45.08118" lon="6.12621">
        <ele>1755.2</ele>
        <time>2026-08-09T09:09:44Z</time>
      </trkpt>
      <trkpt lat="45.08111" lon="6.12609">
        <ele>1755.2</ele>
        <time>2026-08-09T09:09:45Z</time>
      </trkpt>
      <trkpt lat="45.08111" lon="6.12609">
        <ele>1755</ele>
        <time>2026-08-09T09:09:46Z</time>
      </trkpt>
      <trkpt lat="45.08109" lon="6.12603">
        <ele>1754.8</ele>
        <time>2026-08-09T09:09:47Z</time>
      </trkpt>
      <trkpt lat="45.08106" lon="6.12595">
        <ele>1754.4</ele>
        <time>2026-08-09T09:09:48Z</time>
      </trkpt>
      <trkpt lat="45.08099" lon="6.1258">
        <ele>1753.4</ele>
        <time>2026-08-09T09:09:50Z</time>
      </trkpt>
      <trkpt lat="45.08095" lon="6.12573">
        <ele>1752.8</ele>
        <time>2026-08-09T09:09:51Z</time>
      </trkpt>
      <trkpt lat="45.08091" lon="6.12567">
        <ele>1752.4</ele>
        <time>2026-08-09T09:09:52Z</time>
      </trkpt>
      <trkpt lat="45.08082" lon="6.12553">
        <ele>1751.6</ele>
        <time>2026-08-09T09:09:54Z</time>
      </trkpt>
      <trkpt lat="45.08078" lon="6.12546">
        <ele>1751.2</ele>
        <time>2026-08-09T09:09:55Z</time>
      </trkpt>
      <trkpt lat="45.08074" lon="6.12538">
        <ele>1750.8</ele>
        <time>2026-08-09T09:09:56Z</time>
      </trkpt>
      <trkpt lat="45.08066" lon="6.12521">
        <ele>1749.6</ele>
        <time>2026-08-09T09:09:58Z</time>
      </trkpt>
      <trkpt lat="45.08055" lon="6.12504">
        <ele>1748.6</ele>
        <time>2026-08-09T09:10:00Z</time>
      </trkpt>
      <trkpt lat="45.08049" lon="6.12496">
        <ele>1748.2</ele>
        <time>2026-08-09T09:10:01Z</time>
      </trkpt>
      <trkpt lat="45.08044" lon="6.12488">
        <ele>1747.6</ele>
        <time>2026-08-09T09:10:02Z</time>
      </trkpt>
      <trkpt lat="45.08039" lon="6.12479">
        <ele>1746.8</ele>
        <time>2026-08-09T09:10:03Z</time>
      </trkpt>
      <trkpt lat="45.08034" lon="6.1247">
        <ele>1746</ele>
        <time>2026-08-09T09:10:04Z</time>
      </trkpt>
      <trkpt lat="45.0803" lon="6.12462">
        <ele>1745.2</ele>
        <time>2026-08-09T09:10:05Z</time>
      </trkpt>
      <trkpt lat="45.08026" lon="6.12454">
        <ele>1744.6</ele>
        <time>2026-08-09T09:10:06Z</time>
      </trkpt>
      <trkpt lat="45.08022" lon="6.12447">
        <ele>1744</ele>
        <time>2026-08-09T09:10:07Z</time>
      </trkpt>
      <trkpt lat="45.08017" lon="6.12441">
        <ele>1743.6</ele>
        <time>2026-08-09T09:10:08Z</time>
      </trkpt>
      <trkpt lat="45.08012" lon="6.12436">
        <ele>1742.6</ele>
        <time>2026-08-09T09:10:09Z</time>
      </trkpt>
      <trkpt lat="45.08007" lon="6.12432">
        <ele>1741.8</ele>
        <time>2026-08-09T09:10:10Z</time>
      </trkpt>
      <trkpt lat="45.08003" lon="6.12427">
        <ele>1740.2</ele>
        <time>2026-08-09T09:10:11Z</time>
      </trkpt>
      <trkpt lat="45.07998" lon="6.12422">
        <ele>1739.8</ele>
        <time>2026-08-09T09:10:12Z</time>
      </trkpt>
      <trkpt lat="45.0799" lon="6.12409">
        <ele>1739.4</ele>
        <time>2026-08-09T09:10:14Z</time>
      </trkpt>
      <trkpt lat="45.07981" lon="6.12394">
        <ele>1739.2</ele>
        <time>2026-08-09T09:10:16Z</time>
      </trkpt>
      <trkpt lat="45.07977" lon="6.12386">
        <ele>1739</ele>
        <time>2026-08-09T09:10:17Z</time>
      </trkpt>
      <trkpt lat="45.07972" lon="6.12379">
        <ele>1738.8</ele>
        <time>2026-08-09T09:10:18Z</time>
      </trkpt>
      <trkpt lat="45.07969" lon="6.12372">
        <ele>1738.4</ele>
        <time>2026-08-09T09:10:19Z</time>
      </trkpt>
      <trkpt lat="45.07966" lon="6.12364">
        <ele>1737.8</ele>
        <time>2026-08-09T09:10:20Z</time>
      </trkpt>
      <trkpt lat="45.07964" lon="6.12355">
        <ele>1736.8</ele>
        <time>2026-08-09T09:10:21Z</time>
      </trkpt>
      <trkpt lat="45.07962" lon="6.12346">
        <ele>1736.2</ele>
        <time>2026-08-09T09:10:22Z</time>
      </trkpt>
      <trkpt lat="45.07962" lon="6.12336">
        <ele>1735.4</ele>
        <time>2026-08-09T09:10:23Z</time>
      </trkpt>
      <trkpt lat="45.0796" lon="6.12327">
        <ele>1734.8</ele>
        <time>2026-08-09T09:10:24Z</time>
      </trkpt>
      <trkpt lat="45.07958" lon="6.1231">
        <ele>1734.2</ele>
        <time>2026-08-09T09:10:26Z</time>
      </trkpt>
      <trkpt lat="45.07957" lon="6.12302">
        <ele>1733.8</ele>
        <time>2026-08-09T09:10:27Z</time>
      </trkpt>
      <trkpt lat="45.07955" lon="6.12295">
        <ele>1733.6</ele>
        <time>2026-08-09T09:10:28Z</time>
      </trkpt>
      <trkpt lat="45.07953" lon="6.12282">
        <ele>1732.8</ele>
        <time>2026-08-09T09:10:30Z</time>
      </trkpt>
      <trkpt lat="45.07951" lon="6.12275">
        <ele>1732.2</ele>
        <time>2026-08-09T09:10:31Z</time>
      </trkpt>
      <trkpt lat="45.07949" lon="6.12267">
        <ele>1732</ele>
        <time>2026-08-09T09:10:32Z</time>
      </trkpt>
      <trkpt lat="45.07947" lon="6.12256">
        <ele>1731.6</ele>
        <time>2026-08-09T09:10:34Z</time>
      </trkpt>
      <trkpt lat="45.07946" lon="6.1225">
        <ele>1731.4</ele>
        <time>2026-08-09T09:10:35Z</time>
      </trkpt>
      <trkpt lat="45.07944" lon="6.12245">
        <ele>1731.2</ele>
        <time>2026-08-09T09:10:36Z</time>
      </trkpt>
      <trkpt lat="45.07943" lon="6.12239">
        <ele>1731</ele>
        <time>2026-08-09T09:10:37Z</time>
      </trkpt>
      <trkpt lat="45.07942" lon="6.12232">
        <ele>1730.8</ele>
        <time>2026-08-09T09:10:38Z</time>
      </trkpt>
      <trkpt lat="45.07941" lon="6.12217">
        <ele>1730.2</ele>
        <time>2026-08-09T09:10:40Z</time>
      </trkpt>
      <trkpt lat="45.0794" lon="6.12208">
        <ele>1730.2</ele>
        <time>2026-08-09T09:10:41Z</time>
      </trkpt>
      <trkpt lat="45.07939" lon="6.12199">
        <ele>1730</ele>
        <time>2026-08-09T09:10:42Z</time>
      </trkpt>
      <trkpt lat="45.07937" lon="6.12189">
        <ele>1730</ele>
        <time>2026-08-09T09:10:43Z</time>
      </trkpt>
      <trkpt lat="45.07934" lon="6.1218">
        <ele>1729.8</ele>
        <time>2026-08-09T09:10:44Z</time>
      </trkpt>
      <trkpt lat="45.0793" lon="6.1216">
        <ele>1729.4</ele>
        <time>2026-08-09T09:10:46Z</time>
      </trkpt>
      <trkpt lat="45.07929" lon="6.12149">
        <ele>1728.8</ele>
        <time>2026-08-09T09:10:47Z</time>
      </trkpt>
      <trkpt lat="45.07929" lon="6.12137">
        <ele>1728.2</ele>
        <time>2026-08-09T09:10:48Z</time>
      </trkpt>
      <trkpt lat="45.07928" lon="6.12125">
        <ele>1727.6</ele>
        <time>2026-08-09T09:10:49Z</time>
      </trkpt>
      <trkpt lat="45.07926" lon="6.12113">
        <ele>1726.8</ele>
        <time>2026-08-09T09:10:50Z</time>
      </trkpt>
      <trkpt lat="45.07924" lon="6.12101">
        <ele>1725.8</ele>
        <time>2026-08-09T09:10:51Z</time>
      </trkpt>
      <trkpt lat="45.07922" lon="6.1209">
        <ele>1725.4</ele>
        <time>2026-08-09T09:10:52Z</time>
      </trkpt>
      <trkpt lat="45.0792" lon="6.12079">
        <ele>1724.8</ele>
        <time>2026-08-09T09:10:53Z</time>
      </trkpt>
      <trkpt lat="45.07915" lon="6.12058">
        <ele>1724.6</ele>
        <time>2026-08-09T09:10:54Z</time>
      </trkpt>
      <trkpt lat="45.0791" lon="6.12037">
        <ele>1723.4</ele>
        <time>2026-08-09T09:10:56Z</time>
      </trkpt>
      <trkpt lat="45.07907" lon="6.12027">
        <ele>1722.2</ele>
        <time>2026-08-09T09:10:58Z</time>
      </trkpt>
      <trkpt lat="45.07901" lon="6.12009">
        <ele>1721.8</ele>
        <time>2026-08-09T09:11:00Z</time>
      </trkpt>
      <trkpt lat="45.07896" lon="6.11991">
        <ele>1721.6</ele>
        <time>2026-08-09T09:11:02Z</time>
      </trkpt>
      <trkpt lat="45.07892" lon="6.11974">
        <ele>1721.4</ele>
        <time>2026-08-09T09:11:04Z</time>
      </trkpt>
      <trkpt lat="45.07889" lon="6.11957">
        <ele>1721.4</ele>
        <time>2026-08-09T09:11:06Z</time>
      </trkpt>
      <trkpt lat="45.07886" lon="6.11941">
        <ele>1721.2</ele>
        <time>2026-08-09T09:11:08Z</time>
      </trkpt>
      <trkpt lat="45.07884" lon="6.11926">
        <ele>1721.4</ele>
        <time>2026-08-09T09:11:10Z</time>
      </trkpt>
      <trkpt lat="45.07882" lon="6.11919">
        <ele>1721.4</ele>
        <time>2026-08-09T09:11:11Z</time>
      </trkpt>
      <trkpt lat="45.07881" lon="6.11912">
        <ele>1721.6</ele>
        <time>2026-08-09T09:11:12Z</time>
      </trkpt>
      <trkpt lat="45.0788" lon="6.11899">
        <ele>1721.6</ele>
        <time>2026-08-09T09:11:14Z</time>
      </trkpt>
      <trkpt lat="45.0788" lon="6.11886">
        <ele>1721.8</ele>
        <time>2026-08-09T09:11:16Z</time>
      </trkpt>
      <trkpt lat="45.07882" lon="6.11876">
        <ele>1721.8</ele>
        <time>2026-08-09T09:11:18Z</time>
      </trkpt>
      <trkpt lat="45.07884" lon="6.11871">
        <ele>1721.6</ele>
        <time>2026-08-09T09:11:19Z</time>
      </trkpt>
      <trkpt lat="45.07885" lon="6.11866">
        <ele>1721.8</ele>
        <time>2026-08-09T09:11:20Z</time>
      </trkpt>
      <trkpt lat="45.07888" lon="6.11857">
        <ele>1722</ele>
        <time>2026-08-09T09:11:22Z</time>
      </trkpt>
      <trkpt lat="45.0789" lon="6.11847">
        <ele>1722.6</ele>
        <time>2026-08-09T09:11:24Z</time>
      </trkpt>
      <trkpt lat="45.07892" lon="6.11838">
        <ele>1723</ele>
        <time>2026-08-09T09:11:26Z</time>
      </trkpt>
      <trkpt lat="45.07893" lon="6.11833">
        <ele>1723</ele>
        <time>2026-08-09T09:11:27Z</time>
      </trkpt>
      <trkpt lat="45.07894" lon="6.11828">
        <ele>1723.2</ele>
        <time>2026-08-09T09:11:28Z</time>
      </trkpt>
      <trkpt lat="45.07895" lon="6.11818">
        <ele>1723.4</ele>
        <time>2026-08-09T09:11:30Z</time>
      </trkpt>
      <trkpt lat="45.07896" lon="6.11807">
        <ele>1723.6</ele>
        <time>2026-08-09T09:11:32Z</time>
      </trkpt>
      <trkpt lat="45.07897" lon="6.11796">
        <ele>1724.2</ele>
        <time>2026-08-09T09:11:34Z</time>
      </trkpt>
      <trkpt lat="45.07898" lon="6.11791">
        <ele>1724.2</ele>
        <time>2026-08-09T09:11:35Z</time>
      </trkpt>
      <trkpt lat="45.07898" lon="6.11785">
        <ele>1724.2</ele>
        <time>2026-08-09T09:11:36Z</time>
      </trkpt>
      <trkpt lat="45.07899" lon="6.11773">
        <ele>1724.2</ele>
        <time>2026-08-09T09:11:38Z</time>
      </trkpt>
      <trkpt lat="45.079" lon="6.11762">
        <ele>1724.2</ele>
        <time>2026-08-09T09:11:40Z</time>
      </trkpt>
      <trkpt lat="45.07902" lon="6.1175">
        <ele>1724.4</ele>
        <time>2026-08-09T09:11:42Z</time>
      </trkpt>
      <trkpt lat="45.07904" lon="6.1174">
        <ele>1724.6</ele>
        <time>2026-08-09T09:11:44Z</time>
      </trkpt>
      <trkpt lat="45.07905" lon="6.11734">
        <ele>1724.6</ele>
        <time>2026-08-09T09:11:45Z</time>
      </trkpt>
      <trkpt lat="45.07907" lon="6.11729">
        <ele>1724.6</ele>
        <time>2026-08-09T09:11:46Z</time>
      </trkpt>
      <trkpt lat="45.0791" lon="6.1172">
        <ele>1724.6</ele>
        <time>2026-08-09T09:11:48Z</time>
      </trkpt>
      <trkpt lat="45.07914" lon="6.11712">
        <ele>1724.6</ele>
        <time>2026-08-09T09:11:50Z</time>
      </trkpt>
      <trkpt lat="45.07915" lon="6.11707">
        <ele>1724.8</ele>
        <time>2026-08-09T09:11:51Z</time>
      </trkpt>
      <trkpt lat="45.07916" lon="6.11703">
        <ele>1724.8</ele>
        <time>2026-08-09T09:11:52Z</time>
      </trkpt>
      <trkpt lat="45.07919" lon="6.11695">
        <ele>1725</ele>
        <time>2026-08-09T09:11:54Z</time>
      </trkpt>
      <trkpt lat="45.07922" lon="6.11687">
        <ele>1725.6</ele>
        <time>2026-08-09T09:11:56Z</time>
      </trkpt>
      <trkpt lat="45.07924" lon="6.1168">
        <ele>1726</ele>
        <time>2026-08-09T09:11:58Z</time>
      </trkpt>
      <trkpt lat="45.07927" lon="6.11672">
        <ele>1726.4</ele>
        <time>2026-08-09T09:12:00Z</time>
      </trkpt>
      <trkpt lat="45.07928" lon="6.11669">
        <ele>1726.8</ele>
        <time>2026-08-09T09:12:01Z</time>
      </trkpt>
      <trkpt lat="45.07929" lon="6.11665">
        <ele>1727</ele>
        <time>2026-08-09T09:12:02Z</time>
      </trkpt>
      <trkpt lat="45.07932" lon="6.11657">
        <ele>1727.2</ele>
        <time>2026-08-09T09:12:04Z</time>
      </trkpt>
      <trkpt lat="45.07935" lon="6.1165">
        <ele>1727.8</ele>
        <time>2026-08-09T09:12:06Z</time>
      </trkpt>
      <trkpt lat="45.07938" lon="6.11642">
        <ele>1728</ele>
        <time>2026-08-09T09:12:08Z</time>
      </trkpt>
      <trkpt lat="45.07941" lon="6.11635">
        <ele>1728.4</ele>
        <time>2026-08-09T09:12:10Z</time>
      </trkpt>
      <trkpt lat="45.07942" lon="6.11631">
        <ele>1728.6</ele>
        <time>2026-08-09T09:12:11Z</time>
      </trkpt>
      <trkpt lat="45.07942" lon="6.11627">
        <ele>1728.8</ele>
        <time>2026-08-09T09:12:12Z</time>
      </trkpt>
      <trkpt lat="45.07943" lon="6.11624">
        <ele>1729</ele>
        <time>2026-08-09T09:12:13Z</time>
      </trkpt>
      <trkpt lat="45.07944" lon="6.1162">
        <ele>1729</ele>
        <time>2026-08-09T09:12:14Z</time>
      </trkpt>
      <trkpt lat="45.07947" lon="6.11613">
        <ele>1729.2</ele>
        <time>2026-08-09T09:12:16Z</time>
      </trkpt>
      <trkpt lat="45.07948" lon="6.11605">
        <ele>1729.4</ele>
        <time>2026-08-09T09:12:18Z</time>
      </trkpt>
      <trkpt lat="45.07949" lon="6.11601">
        <ele>1729.6</ele>
        <time>2026-08-09T09:12:19Z</time>
      </trkpt>
      <trkpt lat="45.0795" lon="6.11597">
        <ele>1730</ele>
        <time>2026-08-09T09:12:20Z</time>
      </trkpt>
      <trkpt lat="45.07952" lon="6.11589">
        <ele>1730.4</ele>
        <time>2026-08-09T09:12:22Z</time>
      </trkpt>
      <trkpt lat="45.07953" lon="6.11582">
        <ele>1730.6</ele>
        <time>2026-08-09T09:12:24Z</time>
      </trkpt>
      <trkpt lat="45.07954" lon="6.11575">
        <ele>1730.8</ele>
        <time>2026-08-09T09:12:26Z</time>
      </trkpt>
      <trkpt lat="45.07955" lon="6.11569">
        <ele>1731.2</ele>
        <time>2026-08-09T09:12:28Z</time>
      </trkpt>
      <trkpt lat="45.07956" lon="6.11562">
        <ele>1731.6</ele>
        <time>2026-08-09T09:12:30Z</time>
      </trkpt>
      <trkpt lat="45.07958" lon="6.11554">
        <ele>1732</ele>
        <time>2026-08-09T09:12:32Z</time>
      </trkpt>
      <trkpt lat="45.0796" lon="6.11547">
        <ele>1732.2</ele>
        <time>2026-08-09T09:12:34Z</time>
      </trkpt>
      <trkpt lat="45.07961" lon="6.11544">
        <ele>1732.4</ele>
        <time>2026-08-09T09:12:35Z</time>
      </trkpt>
      <trkpt lat="45.07962" lon="6.1154">
        <ele>1732.6</ele>
        <time>2026-08-09T09:12:36Z</time>
      </trkpt>
      <trkpt lat="45.07964" lon="6.11533">
        <ele>1732.8</ele>
        <time>2026-08-09T09:12:38Z</time>
      </trkpt>
      <trkpt lat="45.07967" lon="6.11527">
        <ele>1733.2</ele>
        <time>2026-08-09T09:12:40Z</time>
      </trkpt>
      <trkpt lat="45.0797" lon="6.1152">
        <ele>1733.2</ele>
        <time>2026-08-09T09:12:42Z</time>
      </trkpt>
      <trkpt lat="45.07972" lon="6.11513">
        <ele>1733.6</ele>
        <time>2026-08-09T09:12:44Z</time>
      </trkpt>
      <trkpt lat="45.07975" lon="6.11506">
        <ele>1734.2</ele>
        <time>2026-08-09T09:12:46Z</time>
      </trkpt>
      <trkpt lat="45.07978" lon="6.11499">
        <ele>1734.6</ele>
        <time>2026-08-09T09:12:48Z</time>
      </trkpt>
      <trkpt lat="45.0798" lon="6.11492">
        <ele>1735</ele>
        <time>2026-08-09T09:12:50Z</time>
      </trkpt>
      <trkpt lat="45.07982" lon="6.11489">
        <ele>1735</ele>
        <time>2026-08-09T09:12:51Z</time>
      </trkpt>
      <trkpt lat="45.07984" lon="6.11485">
        <ele>1735.2</ele>
        <time>2026-08-09T09:12:52Z</time>
      </trkpt>
      <trkpt lat="45.07987" lon="6.11478">
        <ele>1735.4</ele>
        <time>2026-08-09T09:12:54Z</time>
      </trkpt>
      <trkpt lat="45.07989" lon="6.11471">
        <ele>1735.4</ele>
        <time>2026-08-09T09:12:56Z</time>
      </trkpt>
      <trkpt lat="45.07991" lon="6.11468">
        <ele>1735.8</ele>
        <time>2026-08-09T09:12:57Z</time>
      </trkpt>
      <trkpt lat="45.07992" lon="6.11464">
        <ele>1735.8</ele>
        <time>2026-08-09T09:12:58Z</time>
      </trkpt>
      <trkpt lat="45.07993" lon="6.1146">
        <ele>1735.8</ele>
        <time>2026-08-09T09:12:59Z</time>
      </trkpt>
      <trkpt lat="45.07994" lon="6.11456">
        <ele>1736</ele>
        <time>2026-08-09T09:13:00Z</time>
      </trkpt>
      <trkpt lat="45.07997" lon="6.11449">
        <ele>1736.2</ele>
        <time>2026-08-09T09:13:02Z</time>
      </trkpt>
      <trkpt lat="45.08" lon="6.11443">
        <ele>1736.6</ele>
        <time>2026-08-09T09:13:04Z</time>
      </trkpt>
      <trkpt lat="45.08001" lon="6.11439">
        <ele>1736.8</ele>
        <time>2026-08-09T09:13:05Z</time>
      </trkpt>
      <trkpt lat="45.08003" lon="6.11436">
        <ele>1736.8</ele>
        <time>2026-08-09T09:13:06Z</time>
      </trkpt>
      <trkpt lat="45.08006" lon="6.11429">
        <ele>1737</ele>
        <time>2026-08-09T09:13:08Z</time>
      </trkpt>
      <trkpt lat="45.08009" lon="6.11423">
        <ele>1737.4</ele>
        <time>2026-08-09T09:13:10Z</time>
      </trkpt>
      <trkpt lat="45.08011" lon="6.11417">
        <ele>1737.8</ele>
        <time>2026-08-09T09:13:12Z</time>
      </trkpt>
      <trkpt lat="45.08013" lon="6.11409">
        <ele>1738</ele>
        <time>2026-08-09T09:13:14Z</time>
      </trkpt>
      <trkpt lat="45.08015" lon="6.11401">
        <ele>1738.4</ele>
        <time>2026-08-09T09:13:16Z</time>
      </trkpt>
      <trkpt lat="45.08016" lon="6.11393">
        <ele>1738.6</ele>
        <time>2026-08-09T09:13:18Z</time>
      </trkpt>
      <trkpt lat="45.08016" lon="6.11389">
        <ele>1738.8</ele>
        <time>2026-08-09T09:13:19Z</time>
      </trkpt>
      <trkpt lat="45.08016" lon="6.11385">
        <ele>1738.8</ele>
        <time>2026-08-09T09:13:20Z</time>
      </trkpt>
      <trkpt lat="45.08017" lon="6.11381">
        <ele>1739.2</ele>
        <time>2026-08-09T09:13:21Z</time>
      </trkpt>
      <trkpt lat="45.08017" lon="6.11377">
        <ele>1739.2</ele>
        <time>2026-08-09T09:13:22Z</time>
      </trkpt>
      <trkpt lat="45.08019" lon="6.11369">
        <ele>1739.6</ele>
        <time>2026-08-09T09:13:24Z</time>
      </trkpt>
      <trkpt lat="45.08021" lon="6.11361">
        <ele>1739.8</ele>
        <time>2026-08-09T09:13:26Z</time>
      </trkpt>
      <trkpt lat="45.08023" lon="6.11353">
        <ele>1740</ele>
        <time>2026-08-09T09:13:28Z</time>
      </trkpt>
      <trkpt lat="45.08024" lon="6.11346">
        <ele>1740</ele>
        <time>2026-08-09T09:13:30Z</time>
      </trkpt>
      <trkpt lat="45.08025" lon="6.11343">
        <ele>1740.2</ele>
        <time>2026-08-09T09:13:31Z</time>
      </trkpt>
      <trkpt lat="45.08026" lon="6.11339">
        <ele>1740.4</ele>
        <time>2026-08-09T09:13:32Z</time>
      </trkpt>
      <trkpt lat="45.08027" lon="6.11336">
        <ele>1740.6</ele>
        <time>2026-08-09T09:13:33Z</time>
      </trkpt>
      <trkpt lat="45.08028" lon="6.11332">
        <ele>1740.8</ele>
        <time>2026-08-09T09:13:34Z</time>
      </trkpt>
      <trkpt lat="45.0803" lon="6.11325">
        <ele>1741</ele>
        <time>2026-08-09T09:13:36Z</time>
      </trkpt>
      <trkpt lat="45.08032" lon="6.11316">
        <ele>1741.4</ele>
        <time>2026-08-09T09:13:38Z</time>
      </trkpt>
      <trkpt lat="45.08035" lon="6.11308">
        <ele>1741.8</ele>
        <time>2026-08-09T09:13:40Z</time>
      </trkpt>
      <trkpt lat="45.08038" lon="6.11301">
        <ele>1742.2</ele>
        <time>2026-08-09T09:13:42Z</time>
      </trkpt>
      <trkpt lat="45.08039" lon="6.11293">
        <ele>1742.2</ele>
        <time>2026-08-09T09:13:44Z</time>
      </trkpt>
      <trkpt lat="45.0804" lon="6.11286">
        <ele>1742.6</ele>
        <time>2026-08-09T09:13:46Z</time>
      </trkpt>
      <trkpt lat="45.08039" lon="6.11278">
        <ele>1742.6</ele>
        <time>2026-08-09T09:13:48Z</time>
      </trkpt>
      <trkpt lat="45.08037" lon="6.1127">
        <ele>1742.8</ele>
        <time>2026-08-09T09:13:50Z</time>
      </trkpt>
      <trkpt lat="45.08036" lon="6.11263">
        <ele>1743.2</ele>
        <time>2026-08-09T09:13:52Z</time>
      </trkpt>
      <trkpt lat="45.08036" lon="6.11259">
        <ele>1743.4</ele>
        <time>2026-08-09T09:13:53Z</time>
      </trkpt>
      <trkpt lat="45.08035" lon="6.11255">
        <ele>1743.6</ele>
        <time>2026-08-09T09:13:54Z</time>
      </trkpt>
      <trkpt lat="45.08034" lon="6.11246">
        <ele>1743.8</ele>
        <time>2026-08-09T09:13:56Z</time>
      </trkpt>
      <trkpt lat="45.08033" lon="6.11237">
        <ele>1743.8</ele>
        <time>2026-08-09T09:13:58Z</time>
      </trkpt>
      <trkpt lat="45.08032" lon="6.1123">
        <ele>1744</ele>
        <time>2026-08-09T09:14:00Z</time>
      </trkpt>
      <trkpt lat="45.08031" lon="6.11222">
        <ele>1744</ele>
        <time>2026-08-09T09:14:02Z</time>
      </trkpt>
      <trkpt lat="45.08031" lon="6.11215">
        <ele>1744</ele>
        <time>2026-08-09T09:14:04Z</time>
      </trkpt>
      <trkpt lat="45.08032" lon="6.11208">
        <ele>1744</ele>
        <time>2026-08-09T09:14:06Z</time>
      </trkpt>
      <trkpt lat="45.08033" lon="6.11201">
        <ele>1744.4</ele>
        <time>2026-08-09T09:14:08Z</time>
      </trkpt>
      <trkpt lat="45.08034" lon="6.11192">
        <ele>1744.4</ele>
        <time>2026-08-09T09:14:10Z</time>
      </trkpt>
      <trkpt lat="45.08034" lon="6.11184">
        <ele>1744.4</ele>
        <time>2026-08-09T09:14:12Z</time>
      </trkpt>
      <trkpt lat="45.08034" lon="6.11179">
        <ele>1744.4</ele>
        <time>2026-08-09T09:14:13Z</time>
      </trkpt>
      <trkpt lat="45.08034" lon="6.11175">
        <ele>1744.4</ele>
        <time>2026-08-09T09:14:14Z</time>
      </trkpt>
      <trkpt lat="45.08033" lon="6.11167">
        <ele>1744.4</ele>
        <time>2026-08-09T09:14:16Z</time>
      </trkpt>
      <trkpt lat="45.08033" lon="6.11157">
        <ele>1744.4</ele>
        <time>2026-08-09T09:14:18Z</time>
      </trkpt>
      <trkpt lat="45.08033" lon="6.11147">
        <ele>1744.4</ele>
        <time>2026-08-09T09:14:20Z</time>
      </trkpt>
      <trkpt lat="45.08033" lon="6.11137">
        <ele>1744.4</ele>
        <time>2026-08-09T09:14:22Z</time>
      </trkpt>
      <trkpt lat="45.08033" lon="6.11128">
        <ele>1744.4</ele>
        <time>2026-08-09T09:14:24Z</time>
      </trkpt>
      <trkpt lat="45.08034" lon="6.11118">
        <ele>1744.2</ele>
        <time>2026-08-09T09:14:26Z</time>
      </trkpt>
      <trkpt lat="45.08034" lon="6.11113">
        <ele>1744.2</ele>
        <time>2026-08-09T09:14:27Z</time>
      </trkpt>
      <trkpt lat="45.08034" lon="6.11108">
        <ele>1744.2</ele>
        <time>2026-08-09T09:14:28Z</time>
      </trkpt>
      <trkpt lat="45.08032" lon="6.11099">
        <ele>1744.2</ele>
        <time>2026-08-09T09:14:30Z</time>
      </trkpt>
      <trkpt lat="45.0803" lon="6.1109">
        <ele>1744.2</ele>
        <time>2026-08-09T09:14:32Z</time>
      </trkpt>
      <trkpt lat="45.08029" lon="6.11086">
        <ele>1744.2</ele>
        <time>2026-08-09T09:14:33Z</time>
      </trkpt>
      <trkpt lat="45.08028" lon="6.11082">
        <ele>1744.2</ele>
        <time>2026-08-09T09:14:34Z</time>
      </trkpt>
      <trkpt lat="45.08026" lon="6.11075">
        <ele>1744.2</ele>
        <time>2026-08-09T09:14:36Z</time>
      </trkpt>
      <trkpt lat="45.08024" lon="6.11068">
        <ele>1744.2</ele>
        <time>2026-08-09T09:14:38Z</time>
      </trkpt>
      <trkpt lat="45.08022" lon="6.1106">
        <ele>1744.2</ele>
        <time>2026-08-09T09:14:40Z</time>
      </trkpt>
      <trkpt lat="45.08022" lon="6.11056">
        <ele>1744.2</ele>
        <time>2026-08-09T09:14:41Z</time>
      </trkpt>
      <trkpt lat="45.08021" lon="6.11052">
        <ele>1744.2</ele>
        <time>2026-08-09T09:14:42Z</time>
      </trkpt>
      <trkpt lat="45.0802" lon="6.11044">
        <ele>1744.2</ele>
        <time>2026-08-09T09:14:44Z</time>
      </trkpt>
      <trkpt lat="45.0802" lon="6.11035">
        <ele>1744.2</ele>
        <time>2026-08-09T09:14:46Z</time>
      </trkpt>
      <trkpt lat="45.0802" lon="6.11023">
        <ele>1744</ele>
        <time>2026-08-09T09:14:48Z</time>
      </trkpt>
      <trkpt lat="45.0802" lon="6.11023">
        <ele>1744</ele>
        <time>2026-08-09T09:14:49Z</time>
      </trkpt>
      <trkpt lat="45.08019" lon="6.11019">
        <ele>1744</ele>
        <time>2026-08-09T09:14:50Z</time>
      </trkpt>
      <trkpt lat="45.08019" lon="6.11011">
        <ele>1744</ele>
        <time>2026-08-09T09:14:52Z</time>
      </trkpt>
      <trkpt lat="45.08019" lon="6.11004">
        <ele>1744</ele>
        <time>2026-08-09T09:14:54Z</time>
      </trkpt>
      <trkpt lat="45.0802" lon="6.11">
        <ele>1743.8</ele>
        <time>2026-08-09T09:14:55Z</time>
      </trkpt>
      <trkpt lat="45.0802" lon="6.10996">
        <ele>1743.8</ele>
        <time>2026-08-09T09:14:56Z</time>
      </trkpt>
      <trkpt lat="45.08019" lon="6.10989">
        <ele>1743.8</ele>
        <time>2026-08-09T09:14:58Z</time>
      </trkpt>
      <trkpt lat="45.08019" lon="6.10985">
        <ele>1743.8</ele>
        <time>2026-08-09T09:15:00Z</time>
      </trkpt>
      <trkpt lat="45.08018" lon="6.10984">
        <ele>1743.8</ele>
        <time>2026-08-09T09:15:01Z</time>
      </trkpt>
      <trkpt lat="45.08017" lon="6.10982">
        <ele>1743.8</ele>
        <time>2026-08-09T09:15:02Z</time>
      </trkpt>
      <trkpt lat="45.08017" lon="6.10981">
        <ele>1744</ele>
        <time>2026-08-09T09:15:04Z</time>
      </trkpt>
      <trkpt lat="45.08016" lon="6.10981">
        <ele>1744.2</ele>
        <time>2026-08-09T09:15:06Z</time>
      </trkpt>
      <trkpt lat="45.08016" lon="6.1098">
        <ele>1744.4</ele>
        <time>2026-08-09T09:15:07Z</time>
      </trkpt>
      <trkpt lat="45.08016" lon="6.1098">
        <ele>1744.6</ele>
        <time>2026-08-09T09:15:08Z</time>
      </trkpt>
      <trkpt lat="45.08016" lon="6.10982">
        <ele>1744.8</ele>
        <time>2026-08-09T09:15:10Z</time>
      </trkpt>
      <trkpt lat="45.08015" lon="6.10983">
        <ele>1744.8</ele>
        <time>2026-08-09T09:15:12Z</time>
      </trkpt>
      <trkpt lat="45.08015" lon="6.10983">
        <ele>1744.8</ele>
        <time>2026-08-09T09:15:14Z</time>
      </trkpt>
      <trkpt lat="45.08015" lon="6.10983">
        <ele>1744.8</ele>
        <time>2026-08-09T09:15:16Z</time>
      </trkpt>
      <trkpt lat="45.08015" lon="6.10983">
        <ele>1744.8</ele>
        <time>2026-08-09T09:15:18Z</time>
      </trkpt>
      <trkpt lat="45.08015" lon="6.10983">
        <ele>1744.8</ele>
        <time>2026-08-09T09:15:20Z</time>
      </trkpt>
      <trkpt lat="45.08015" lon="6.10983">
        <ele>1744.8</ele>
        <time>2026-08-09T09:15:22Z</time>
      </trkpt>
      <trkpt lat="45.08015" lon="6.10983">
        <ele>1744.8</ele>
        <time>2026-08-09T09:15:24Z</time>
      </trkpt>
      <trkpt lat="45.08015" lon="6.10983">
        <ele>1744.6</ele>
        <time>2026-08-09T09:15:26Z</time>
      </trkpt>
      <trkpt lat="45.08015" lon="6.10983">
        <ele>1744.8</ele>
        <time>2026-08-09T09:15:28Z</time>
      </trkpt>
      <trkpt lat="45.08015" lon="6.10983">
        <ele>1744.8</ele>
        <time>2026-08-09T09:15:30Z</time>
      </trkpt>
      <trkpt lat="45.08015" lon="6.10983">
        <ele>1744.8</ele>
        <time>2026-08-09T09:15:32Z</time>
      </trkpt>
      <trkpt lat="45.08015" lon="6.10983">
        <ele>1744.8</ele>
        <time>2026-08-09T09:15:33Z</time>
      </trkpt>
      <trkpt lat="45.08015" lon="6.10983">
        <ele>1744.8</ele>
        <time>2026-08-09T09:15:34Z</time>
      </trkpt>
      <trkpt lat="45.08015" lon="6.10983">
        <ele>1744.8</ele>
        <time>2026-08-09T09:15:36Z</time>
      </trkpt>
      <trkpt lat="45.08015" lon="6.10983">
        <ele>1744.6</ele>
        <time>2026-08-09T09:15:38Z</time>
      </trkpt>
      <trkpt lat="45.08015" lon="6.10983">
        <ele>1744.8</ele>
        <time>2026-08-09T09:15:40Z</time>
      </trkpt>
      <trkpt lat="45.08015" lon="6.10983">
        <ele>1744.8</ele>
        <time>2026-08-09T09:15:42Z</time>
      </trkpt>
      <trkpt lat="45.08015" lon="6.10983">
        <ele>1744.8</ele>
        <time>2026-08-09T09:15:44Z</time>
      </trkpt>
      <trkpt lat="45.08015" lon="6.10983">
        <ele>1744.8</ele>
        <time>2026-08-09T09:15:46Z</time>
      </trkpt>
      <trkpt lat="45.08015" lon="6.10983">
        <ele>1744.8</ele>
        <time>2026-08-09T09:15:48Z</time>
      </trkpt>
      <trkpt lat="45.08015" lon="6.10983">
        <ele>1744.8</ele>
        <time>2026-08-09T09:15:50Z</time>
      </trkpt>
      <trkpt lat="45.08015" lon="6.10983">
        <ele>1744.6</ele>
        <time>2026-08-09T09:15:52Z</time>
      </trkpt>
      <trkpt lat="45.08015" lon="6.10983">
        <ele>1744.8</ele>
        <time>2026-08-09T09:15:54Z</time>
      </trkpt>
      <trkpt lat="45.08015" lon="6.10983">
        <ele>1744.8</ele>
        <time>2026-08-09T09:15:56Z</time>
      </trkpt>
      <trkpt lat="45.08015" lon="6.10983">
        <ele>1744.6</ele>
        <time>2026-08-09T09:15:58Z</time>
      </trkpt>
      <trkpt lat="45.08015" lon="6.10983">
        <ele>1744.6</ele>
        <time>2026-08-09T09:16:00Z</time>
      </trkpt>
      <trkpt lat="45.08015" lon="6.10983">
        <ele>1744.6</ele>
        <time>2026-08-09T09:16:02Z</time>
      </trkpt>
      <trkpt lat="45.08015" lon="6.10983">
        <ele>1744.6</ele>
        <time>2026-08-09T09:16:04Z</time>
      </trkpt>
      <trkpt lat="45.08015" lon="6.10983">
        <ele>1744.8</ele>
        <time>2026-08-09T09:16:06Z</time>
      </trkpt>
      <trkpt lat="45.08015" lon="6.10983">
        <ele>1744.6</ele>
        <time>2026-08-09T09:16:08Z</time>
      </trkpt>
      <trkpt lat="45.08015" lon="6.10983">
        <ele>1744.6</ele>
        <time>2026-08-09T09:16:10Z</time>
      </trkpt>
      <trkpt lat="45.08015" lon="6.10983">
        <ele>1744.6</ele>
        <time>2026-08-09T09:16:12Z</time>
      </trkpt>
      <trkpt lat="45.08015" lon="6.10983">
        <ele>1744.6</ele>
        <time>2026-08-09T09:16:14Z</time>
      </trkpt>
      <trkpt lat="45.08015" lon="6.10983">
        <ele>1744.6</ele>
        <time>2026-08-09T09:16:16Z</time>
      </trkpt>
      <trkpt lat="45.08015" lon="6.10983">
        <ele>1744.6</ele>
        <time>2026-08-09T09:16:17Z</time>
      </trkpt>
      <trkpt lat="45.08015" lon="6.10983">
        <ele>1744.6</ele>
        <time>2026-08-09T09:16:18Z</time>
      </trkpt>
      <trkpt lat="45.08015" lon="6.10983">
        <ele>1744.6</ele>
        <time>2026-08-09T09:16:20Z</time>
      </trkpt>
      <trkpt lat="45.08015" lon="6.10983">
        <ele>1744.8</ele>
        <time>2026-08-09T09:16:22Z</time>
      </trkpt>
      <trkpt lat="45.08015" lon="6.10983">
        <ele>1744.8</ele>
        <time>2026-08-09T09:16:24Z</time>
      </trkpt>
      <trkpt lat="45.08015" lon="6.10983">
        <ele>1744.8</ele>
        <time>2026-08-09T09:16:26Z</time>
      </trkpt>
      <trkpt lat="45.08015" lon="6.10983">
        <ele>1744.8</ele>
        <time>2026-08-09T09:16:28Z</time>
      </trkpt>
      <trkpt lat="45.08015" lon="6.10983">
        <ele>1744.8</ele>
        <time>2026-08-09T09:16:30Z</time>
      </trkpt>
      <trkpt lat="45.08015" lon="6.10983">
        <ele>1745</ele>
        <time>2026-08-09T09:16:32Z</time>
      </trkpt>
      <trkpt lat="45.08015" lon="6.10983">
        <ele>1745</ele>
        <time>2026-08-09T09:16:34Z</time>
      </trkpt>
      <trkpt lat="45.08015" lon="6.10983">
        <ele>1745</ele>
        <time>2026-08-09T09:16:36Z</time>
      </trkpt>
      <trkpt lat="45.08015" lon="6.10983">
        <ele>1744.8</ele>
        <time>2026-08-09T09:16:38Z</time>
      </trkpt>
      <trkpt lat="45.08015" lon="6.10983">
        <ele>1744.8</ele>
        <time>2026-08-09T09:16:40Z</time>
      </trkpt>
      <trkpt lat="45.08015" lon="6.10983">
        <ele>1744.8</ele>
        <time>2026-08-09T09:16:42Z</time>
      </trkpt>
      <trkpt lat="45.08015" lon="6.10983">
        <ele>1744.8</ele>
        <time>2026-08-09T09:16:44Z</time>
      </trkpt>
      <trkpt lat="45.08015" lon="6.10983">
        <ele>1744.8</ele>
        <time>2026-08-09T09:16:46Z</time>
      </trkpt>
      <trkpt lat="45.08015" lon="6.10983">
        <ele>1744.8</ele>
        <time>2026-08-09T09:16:48Z</time>
      </trkpt>
      <trkpt lat="45.08015" lon="6.10983">
        <ele>1745</ele>
        <time>2026-08-09T09:16:50Z</time>
      </trkpt>
      <trkpt lat="45.08015" lon="6.10983">
        <ele>1744.8</ele>
        <time>2026-08-09T09:16:52Z</time>
      </trkpt>
      <trkpt lat="45.08015" lon="6.10983">
        <ele>1744.8</ele>
        <time>2026-08-09T09:16:54Z</time>
      </trkpt>
      <trkpt lat="45.08015" lon="6.10983">
        <ele>1744.8</ele>
        <time>2026-08-09T09:16:56Z</time>
      </trkpt>
      <trkpt lat="45.08015" lon="6.10983">
        <ele>1744.6</ele>
        <time>2026-08-09T09:16:58Z</time>
      </trkpt>
      <trkpt lat="45.08015" lon="6.10983">
        <ele>1744.6</ele>
        <time>2026-08-09T09:16:59Z</time>
      </trkpt>
      <trkpt lat="45.08015" lon="6.10983">
        <ele>1744.6</ele>
        <time>2026-08-09T09:17:00Z</time>
      </trkpt>
      <trkpt lat="45.08015" lon="6.10983">
        <ele>1744.8</ele>
        <time>2026-08-09T09:17:02Z</time>
      </trkpt>
      <trkpt lat="45.08015" lon="6.10983">
        <ele>1744.8</ele>
        <time>2026-08-09T09:17:03Z</time>
      </trkpt>
      <trkpt lat="45.08015" lon="6.10983">
        <ele>1744.8</ele>
        <time>2026-08-09T09:17:04Z</time>
      </trkpt>
      <trkpt lat="45.08015" lon="6.10983">
        <ele>1744.8</ele>
        <time>2026-08-09T09:17:06Z</time>
      </trkpt>
      <trkpt lat="45.08015" lon="6.10983">
        <ele>1744.6</ele>
        <time>2026-08-09T09:17:08Z</time>
      </trkpt>
      <trkpt lat="45.08015" lon="6.10983">
        <ele>1744.6</ele>
        <time>2026-08-09T09:17:10Z</time>
      </trkpt>
      <trkpt lat="45.08015" lon="6.10983">
        <ele>1744.6</ele>
        <time>2026-08-09T09:17:12Z</time>
      </trkpt>
      <trkpt lat="45.08015" lon="6.10983">
        <ele>1744.6</ele>
        <time>2026-08-09T09:17:14Z</time>
      </trkpt>
      <trkpt lat="45.08015" lon="6.10983">
        <ele>1744.8</ele>
        <time>2026-08-09T09:17:16Z</time>
      </trkpt>
      <trkpt lat="45.08015" lon="6.10983">
        <ele>1744.8</ele>
        <time>2026-08-09T09:17:18Z</time>
      </trkpt>
      <trkpt lat="45.08015" lon="6.10983">
        <ele>1744.8</ele>
        <time>2026-08-09T09:17:20Z</time>
      </trkpt>
      <trkpt lat="45.08015" lon="6.10983">
        <ele>1744.8</ele>
        <time>2026-08-09T09:17:22Z</time>
      </trkpt>
      <trkpt lat="45.08015" lon="6.10983">
        <ele>1744.8</ele>
        <time>2026-08-09T09:17:24Z</time>
      </trkpt>
      <trkpt lat="45.08015" lon="6.10983">
        <ele>1744.8</ele>
        <time>2026-08-09T09:17:26Z</time>
      </trkpt>
      <trkpt lat="45.08015" lon="6.10983">
        <ele>1744.8</ele>
        <time>2026-08-09T09:17:28Z</time>
      </trkpt>
      <trkpt lat="45.08015" lon="6.10983">
        <ele>1744.8</ele>
        <time>2026-08-09T09:17:30Z</time>
      </trkpt>
      <trkpt lat="45.08015" lon="6.10983">
        <ele>1745</ele>
        <time>2026-08-09T09:17:32Z</time>
      </trkpt>
      <trkpt lat="45.08015" lon="6.10983">
        <ele>1744.8</ele>
        <time>2026-08-09T09:17:34Z</time>
      </trkpt>
      <trkpt lat="45.08015" lon="6.10983">
        <ele>1744.8</ele>
        <time>2026-08-09T09:17:36Z</time>
      </trkpt>
      <trkpt lat="45.08015" lon="6.10983">
        <ele>1744.8</ele>
        <time>2026-08-09T09:17:38Z</time>
      </trkpt>
      <trkpt lat="45.08015" lon="6.10983">
        <ele>1744.8</ele>
        <time>2026-08-09T09:17:40Z</time>
      </trkpt>
      <trkpt lat="45.08015" lon="6.10983">
        <ele>1744.8</ele>
        <time>2026-08-09T09:17:42Z</time>
      </trkpt>
      <trkpt lat="45.08015" lon="6.10983">
        <ele>1745</ele>
        <time>2026-08-09T09:17:44Z</time>
      </trkpt>
      <trkpt lat="45.08015" lon="6.10983">
        <ele>1744.8</ele>
        <time>2026-08-09T09:17:46Z</time>
      </trkpt>
      <trkpt lat="45.08015" lon="6.10983">
        <ele>1744.8</ele>
        <time>2026-08-09T09:17:48Z</time>
      </trkpt>
      <trkpt lat="45.08015" lon="6.10983">
        <ele>1744.8</ele>
        <time>2026-08-09T09:17:50Z</time>
      </trkpt>
      <trkpt lat="45.08015" lon="6.10983">
        <ele>1744.8</ele>
        <time>2026-08-09T09:17:52Z</time>
      </trkpt>
      <trkpt lat="45.08015" lon="6.10983">
        <ele>1744.8</ele>
        <time>2026-08-09T09:17:54Z</time>
      </trkpt>
      <trkpt lat="45.08015" lon="6.10983">
        <ele>1744.8</ele>
        <time>2026-08-09T09:17:56Z</time>
      </trkpt>
      <trkpt lat="45.08015" lon="6.10983">
        <ele>1744.8</ele>
        <time>2026-08-09T09:17:58Z</time>
      </trkpt>
      <trkpt lat="45.08015" lon="6.10983">
        <ele>1744.8</ele>
        <time>2026-08-09T09:18:00Z</time>
      </trkpt>
      <trkpt lat="45.08015" lon="6.10983">
        <ele>1744.8</ele>
        <time>2026-08-09T09:18:02Z</time>
      </trkpt>
      <trkpt lat="45.08015" lon="6.10983">
        <ele>1744.8</ele>
        <time>2026-08-09T09:18:04Z</time>
      </trkpt>
      <trkpt lat="45.08015" lon="6.10983">
        <ele>1744.8</ele>
        <time>2026-08-09T09:18:05Z</time>
      </trkpt>
      <trkpt lat="45.08015" lon="6.10983">
        <ele>1744.8</ele>
        <time>2026-08-09T09:18:06Z</time>
      </trkpt>
      <trkpt lat="45.08015" lon="6.10983">
        <ele>1744.8</ele>
        <time>2026-08-09T09:18:08Z</time>
      </trkpt>
      <trkpt lat="45.08015" lon="6.10983">
        <ele>1744.6</ele>
        <time>2026-08-09T09:18:10Z</time>
      </trkpt>
      <trkpt lat="45.08015" lon="6.10983">
        <ele>1744.6</ele>
        <time>2026-08-09T09:18:12Z</time>
      </trkpt>
      <trkpt lat="45.08015" lon="6.10983">
        <ele>1744.8</ele>
        <time>2026-08-09T09:18:14Z</time>
      </trkpt>
      <trkpt lat="45.08015" lon="6.10983">
        <ele>1744.8</ele>
        <time>2026-08-09T09:18:15Z</time>
      </trkpt>
      <trkpt lat="45.08015" lon="6.10983">
        <ele>1744.8</ele>
        <time>2026-08-09T09:18:16Z</time>
      </trkpt>
      <trkpt lat="45.08015" lon="6.10983">
        <ele>1744.8</ele>
        <time>2026-08-09T09:18:18Z</time>
      </trkpt>
      <trkpt lat="45.08015" lon="6.10983">
        <ele>1744.8</ele>
        <time>2026-08-09T09:18:20Z</time>
      </trkpt>
      <trkpt lat="45.08015" lon="6.10983">
        <ele>1744.8</ele>
        <time>2026-08-09T09:18:22Z</time>
      </trkpt>
      <trkpt lat="45.08015" lon="6.10983">
        <ele>1744.8</ele>
        <time>2026-08-09T09:18:24Z</time>
      </trkpt>
      <trkpt lat="45.08015" lon="6.10983">
        <ele>1744.6</ele>
        <time>2026-08-09T09:18:26Z</time>
      </trkpt>
      <trkpt lat="45.08015" lon="6.10983">
        <ele>1744.8</ele>
        <time>2026-08-09T09:18:28Z</time>
      </trkpt>
      <trkpt lat="45.08015" lon="6.10983">
        <ele>1745</ele>
        <time>2026-08-09T09:18:30Z</time>
      </trkpt>
      <trkpt lat="45.08015" lon="6.10983">
        <ele>1745</ele>
        <time>2026-08-09T09:18:32Z</time>
      </trkpt>
      <trkpt lat="45.08015" lon="6.10983">
        <ele>1745</ele>
        <time>2026-08-09T09:18:33Z</time>
      </trkpt>
      <trkpt lat="45.08015" lon="6.10983">
        <ele>1745</ele>
        <time>2026-08-09T09:18:34Z</time>
      </trkpt>
      <trkpt lat="45.08015" lon="6.10983">
        <ele>1745</ele>
        <time>2026-08-09T09:18:36Z</time>
      </trkpt>
      <trkpt lat="45.08015" lon="6.10983">
        <ele>1745</ele>
        <time>2026-08-09T09:18:38Z</time>
      </trkpt>
      <trkpt lat="45.08015" lon="6.10983">
        <ele>1745</ele>
        <time>2026-08-09T09:18:40Z</time>
      </trkpt>
      <trkpt lat="45.08015" lon="6.10983">
        <ele>1745.2</ele>
        <time>2026-08-09T09:18:42Z</time>
      </trkpt>
      <trkpt lat="45.08015" lon="6.10983">
        <ele>1745.2</ele>
        <time>2026-08-09T09:18:44Z</time>
      </trkpt>
      <trkpt lat="45.08015" lon="6.10983">
        <ele>1745.2</ele>
        <time>2026-08-09T09:18:46Z</time>
      </trkpt>
      <trkpt lat="45.08015" lon="6.10983">
        <ele>1745</ele>
        <time>2026-08-09T09:18:48Z</time>
      </trkpt>
      <trkpt lat="45.08015" lon="6.10983">
        <ele>1745</ele>
        <time>2026-08-09T09:18:50Z</time>
      </trkpt>
      <trkpt lat="45.08015" lon="6.10983">
        <ele>1745</ele>
        <time>2026-08-09T09:18:52Z</time>
      </trkpt>
      <trkpt lat="45.08015" lon="6.10983">
        <ele>1745</ele>
        <time>2026-08-09T09:18:54Z</time>
      </trkpt>
      <trkpt lat="45.08015" lon="6.10983">
        <ele>1745</ele>
        <time>2026-08-09T09:18:56Z</time>
      </trkpt>
      <trkpt lat="45.08015" lon="6.10983">
        <ele>1745.2</ele>
        <time>2026-08-09T09:18:58Z</time>
      </trkpt>
      <trkpt lat="45.08015" lon="6.10983">
        <ele>1745.2</ele>
        <time>2026-08-09T09:19:00Z</time>
      </trkpt>
      <trkpt lat="45.08015" lon="6.10983">
        <ele>1745.2</ele>
        <time>2026-08-09T09:19:02Z</time>
      </trkpt>
      <trkpt lat="45.08015" lon="6.10983">
        <ele>1745</ele>
        <time>2026-08-09T09:19:04Z</time>
      </trkpt>
      <trkpt lat="45.08015" lon="6.10983">
        <ele>1745</ele>
        <time>2026-08-09T09:19:06Z</time>
      </trkpt>
      <trkpt lat="45.08015" lon="6.10983">
        <ele>1745</ele>
        <time>2026-08-09T09:19:08Z</time>
      </trkpt>
      <trkpt lat="45.08015" lon="6.10983">
        <ele>1745.2</ele>
        <time>2026-08-09T09:19:10Z</time>
      </trkpt>
      <trkpt lat="45.08015" lon="6.10983">
        <ele>1745.2</ele>
        <time>2026-08-09T09:19:12Z</time>
      </trkpt>
      <trkpt lat="45.08015" lon="6.10983">
        <ele>1745</ele>
        <time>2026-08-09T09:19:14Z</time>
      </trkpt>
      <trkpt lat="45.08015" lon="6.10983">
        <ele>1745</ele>
        <time>2026-08-09T09:19:16Z</time>
      </trkpt>
      <trkpt lat="45.08016" lon="6.10983">
        <ele>1745</ele>
        <time>2026-08-09T09:19:18Z</time>
      </trkpt>
      <trkpt lat="45.08017" lon="6.10983">
        <ele>1745</ele>
        <time>2026-08-09T09:19:20Z</time>
      </trkpt>
      <trkpt lat="45.08017" lon="6.10983">
        <ele>1745</ele>
        <time>2026-08-09T09:19:21Z</time>
      </trkpt>
      <trkpt lat="45.08017" lon="6.10983">
        <ele>1745</ele>
        <time>2026-08-09T09:19:22Z</time>
      </trkpt>
      <trkpt lat="45.08017" lon="6.10983">
        <ele>1745</ele>
        <time>2026-08-09T09:19:24Z</time>
      </trkpt>
      <trkpt lat="45.08017" lon="6.10983">
        <ele>1745.2</ele>
        <time>2026-08-09T09:19:26Z</time>
      </trkpt>
      <trkpt lat="45.08017" lon="6.10983">
        <ele>1745.2</ele>
        <time>2026-08-09T09:19:28Z</time>
      </trkpt>
      <trkpt lat="45.08017" lon="6.10983">
        <ele>1745.2</ele>
        <time>2026-08-09T09:19:30Z</time>
      </trkpt>
      <trkpt lat="45.08017" lon="6.10983">
        <ele>1745.2</ele>
        <time>2026-08-09T09:19:32Z</time>
      </trkpt>
      <trkpt lat="45.08018" lon="6.10983">
        <ele>1745.2</ele>
        <time>2026-08-09T09:19:34Z</time>
      </trkpt>
      <trkpt lat="45.08019" lon="6.10983">
        <ele>1745.2</ele>
        <time>2026-08-09T09:19:35Z</time>
      </trkpt>
      <trkpt lat="45.0802" lon="6.10983">
        <ele>1745.2</ele>
        <time>2026-08-09T09:19:36Z</time>
      </trkpt>
      <trkpt lat="45.08022" lon="6.10981">
        <ele>1745.2</ele>
        <time>2026-08-09T09:19:38Z</time>
      </trkpt>
      <trkpt lat="45.08025" lon="6.10979">
        <ele>1745.2</ele>
        <time>2026-08-09T09:19:40Z</time>
      </trkpt>
      <trkpt lat="45.08029" lon="6.10976">
        <ele>1745.2</ele>
        <time>2026-08-09T09:19:42Z</time>
      </trkpt>
      <trkpt lat="45.08033" lon="6.10973">
        <ele>1745.4</ele>
        <time>2026-08-09T09:19:44Z</time>
      </trkpt>
      <trkpt lat="45.08036" lon="6.10969">
        <ele>1745.4</ele>
        <time>2026-08-09T09:19:46Z</time>
      </trkpt>
      <trkpt lat="45.0804" lon="6.10965">
        <ele>1745.4</ele>
        <time>2026-08-09T09:19:48Z</time>
      </trkpt>
      <trkpt lat="45.08044" lon="6.1096">
        <ele>1745.4</ele>
        <time>2026-08-09T09:19:50Z</time>
      </trkpt>
      <trkpt lat="45.08047" lon="6.10955">
        <ele>1745.4</ele>
        <time>2026-08-09T09:19:52Z</time>
      </trkpt>
      <trkpt lat="45.08051" lon="6.10952">
        <ele>1745.6</ele>
        <time>2026-08-09T09:19:54Z</time>
      </trkpt>
      <trkpt lat="45.08053" lon="6.1095">
        <ele>1745.6</ele>
        <time>2026-08-09T09:19:55Z</time>
      </trkpt>
      <trkpt lat="45.08055" lon="6.10949">
        <ele>1745.8</ele>
        <time>2026-08-09T09:19:56Z</time>
      </trkpt>
      <trkpt lat="45.08058" lon="6.10945">
        <ele>1746.2</ele>
        <time>2026-08-09T09:19:58Z</time>
      </trkpt>
      <trkpt lat="45.08062" lon="6.10941">
        <ele>1747</ele>
        <time>2026-08-09T09:20:00Z</time>
      </trkpt>
      <trkpt lat="45.08066" lon="6.10937">
        <ele>1747.4</ele>
        <time>2026-08-09T09:20:02Z</time>
      </trkpt>
      <trkpt lat="45.08069" lon="6.10935">
        <ele>1747.8</ele>
        <time>2026-08-09T09:20:04Z</time>
      </trkpt>
      <trkpt lat="45.08071" lon="6.10933">
        <ele>1748</ele>
        <time>2026-08-09T09:20:05Z</time>
      </trkpt>
      <trkpt lat="45.08073" lon="6.10932">
        <ele>1748.2</ele>
        <time>2026-08-09T09:20:06Z</time>
      </trkpt>
      <trkpt lat="45.08074" lon="6.10931">
        <ele>1748.4</ele>
        <time>2026-08-09T09:20:07Z</time>
      </trkpt>
      <trkpt lat="45.08076" lon="6.1093">
        <ele>1748.4</ele>
        <time>2026-08-09T09:20:08Z</time>
      </trkpt>
      <trkpt lat="45.08079" lon="6.10928">
        <ele>1749</ele>
        <time>2026-08-09T09:20:10Z</time>
      </trkpt>
      <trkpt lat="45.08081" lon="6.10927">
        <ele>1749</ele>
        <time>2026-08-09T09:20:11Z</time>
      </trkpt>
      <trkpt lat="45.08083" lon="6.10927">
        <ele>1749.4</ele>
        <time>2026-08-09T09:20:12Z</time>
      </trkpt>
      <trkpt lat="45.08084" lon="6.10926">
        <ele>1749.6</ele>
        <time>2026-08-09T09:20:13Z</time>
      </trkpt>
      <trkpt lat="45.08086" lon="6.10924">
        <ele>1749.8</ele>
        <time>2026-08-09T09:20:14Z</time>
      </trkpt>
      <trkpt lat="45.08089" lon="6.10921">
        <ele>1750.2</ele>
        <time>2026-08-09T09:20:16Z</time>
      </trkpt>
      <trkpt lat="45.08093" lon="6.10919">
        <ele>1750.6</ele>
        <time>2026-08-09T09:20:18Z</time>
      </trkpt>
      <trkpt lat="45.08094" lon="6.10917">
        <ele>1750.8</ele>
        <time>2026-08-09T09:20:19Z</time>
      </trkpt>
      <trkpt lat="45.08096" lon="6.10916">
        <ele>1750.8</ele>
        <time>2026-08-09T09:20:20Z</time>
      </trkpt>
      <trkpt lat="45.08099" lon="6.10915">
        <ele>1751.2</ele>
        <time>2026-08-09T09:20:22Z</time>
      </trkpt>
      <trkpt lat="45.08102" lon="6.10912">
        <ele>1751.4</ele>
        <time>2026-08-09T09:20:24Z</time>
      </trkpt>
      <trkpt lat="45.08106" lon="6.10911">
        <ele>1752</ele>
        <time>2026-08-09T09:20:26Z</time>
      </trkpt>
      <trkpt lat="45.0811" lon="6.10908">
        <ele>1752.2</ele>
        <time>2026-08-09T09:20:28Z</time>
      </trkpt>
      <trkpt lat="45.08115" lon="6.10907">
        <ele>1752.8</ele>
        <time>2026-08-09T09:20:30Z</time>
      </trkpt>
      <trkpt lat="45.08117" lon="6.10907">
        <ele>1753.2</ele>
        <time>2026-08-09T09:20:31Z</time>
      </trkpt>
      <trkpt lat="45.08119" lon="6.10906">
        <ele>1753.4</ele>
        <time>2026-08-09T09:20:32Z</time>
      </trkpt>
      <trkpt lat="45.08123" lon="6.10904">
        <ele>1753.6</ele>
        <time>2026-08-09T09:20:34Z</time>
      </trkpt>
      <trkpt lat="45.08128" lon="6.10903">
        <ele>1753.8</ele>
        <time>2026-08-09T09:20:36Z</time>
      </trkpt>
      <trkpt lat="45.08132" lon="6.10904">
        <ele>1754</ele>
        <time>2026-08-09T09:20:38Z</time>
      </trkpt>
      <trkpt lat="45.08137" lon="6.10905">
        <ele>1754.4</ele>
        <time>2026-08-09T09:20:40Z</time>
      </trkpt>
      <trkpt lat="45.08141" lon="6.10905">
        <ele>1755</ele>
        <time>2026-08-09T09:20:42Z</time>
      </trkpt>
      <trkpt lat="45.08146" lon="6.10905">
        <ele>1755.2</ele>
        <time>2026-08-09T09:20:44Z</time>
      </trkpt>
      <trkpt lat="45.08151" lon="6.10906">
        <ele>1755.4</ele>
        <time>2026-08-09T09:20:46Z</time>
      </trkpt>
      <trkpt lat="45.08155" lon="6.10906">
        <ele>1755.6</ele>
        <time>2026-08-09T09:20:48Z</time>
      </trkpt>
      <trkpt lat="45.0816" lon="6.10906">
        <ele>1755.8</ele>
        <time>2026-08-09T09:20:50Z</time>
      </trkpt>
      <trkpt lat="45.08165" lon="6.10906">
        <ele>1756.2</ele>
        <time>2026-08-09T09:20:52Z</time>
      </trkpt>
      <trkpt lat="45.08169" lon="6.10905">
        <ele>1756.4</ele>
        <time>2026-08-09T09:20:54Z</time>
      </trkpt>
      <trkpt lat="45.08171" lon="6.10904">
        <ele>1756.6</ele>
        <time>2026-08-09T09:20:55Z</time>
      </trkpt>
      <trkpt lat="45.08173" lon="6.10904">
        <ele>1756.6</ele>
        <time>2026-08-09T09:20:56Z</time>
      </trkpt>
      <trkpt lat="45.08178" lon="6.10902">
        <ele>1756.8</ele>
        <time>2026-08-09T09:20:58Z</time>
      </trkpt>
      <trkpt lat="45.08182" lon="6.10899">
        <ele>1757.2</ele>
        <time>2026-08-09T09:21:00Z</time>
      </trkpt>
      <trkpt lat="45.08186" lon="6.10896">
        <ele>1757.4</ele>
        <time>2026-08-09T09:21:02Z</time>
      </trkpt>
      <trkpt lat="45.0819" lon="6.10894">
        <ele>1757.6</ele>
        <time>2026-08-09T09:21:04Z</time>
      </trkpt>
      <trkpt lat="45.08192" lon="6.10892">
        <ele>1757.8</ele>
        <time>2026-08-09T09:21:05Z</time>
      </trkpt>
      <trkpt lat="45.08194" lon="6.10891">
        <ele>1758</ele>
        <time>2026-08-09T09:21:06Z</time>
      </trkpt>
      <trkpt lat="45.08198" lon="6.10888">
        <ele>1758.4</ele>
        <time>2026-08-09T09:21:08Z</time>
      </trkpt>
      <trkpt lat="45.08202" lon="6.10885">
        <ele>1758.8</ele>
        <time>2026-08-09T09:21:10Z</time>
      </trkpt>
      <trkpt lat="45.08205" lon="6.10882">
        <ele>1759.2</ele>
        <time>2026-08-09T09:21:12Z</time>
      </trkpt>
      <trkpt lat="45.08208" lon="6.10878">
        <ele>1759.4</ele>
        <time>2026-08-09T09:21:14Z</time>
      </trkpt>
      <trkpt lat="45.0821" lon="6.10876">
        <ele>1759.6</ele>
        <time>2026-08-09T09:21:15Z</time>
      </trkpt>
      <trkpt lat="45.08212" lon="6.10874">
        <ele>1759.8</ele>
        <time>2026-08-09T09:21:16Z</time>
      </trkpt>
      <trkpt lat="45.08215" lon="6.10871">
        <ele>1760</ele>
        <time>2026-08-09T09:21:18Z</time>
      </trkpt>
      <trkpt lat="45.08218" lon="6.10867">
        <ele>1760.2</ele>
        <time>2026-08-09T09:21:20Z</time>
      </trkpt>
      <trkpt lat="45.0822" lon="6.10863">
        <ele>1760.6</ele>
        <time>2026-08-09T09:21:22Z</time>
      </trkpt>
      <trkpt lat="45.08223" lon="6.10859">
        <ele>1761</ele>
        <time>2026-08-09T09:21:24Z</time>
      </trkpt>
      <trkpt lat="45.08226" lon="6.10855">
        <ele>1761.4</ele>
        <time>2026-08-09T09:21:26Z</time>
      </trkpt>
      <trkpt lat="45.08229" lon="6.10852">
        <ele>1761.6</ele>
        <time>2026-08-09T09:21:28Z</time>
      </trkpt>
      <trkpt lat="45.08232" lon="6.10848">
        <ele>1762.2</ele>
        <time>2026-08-09T09:21:30Z</time>
      </trkpt>
      <trkpt lat="45.08235" lon="6.10844">
        <ele>1762.4</ele>
        <time>2026-08-09T09:21:32Z</time>
      </trkpt>
      <trkpt lat="45.08239" lon="6.1084">
        <ele>1762.8</ele>
        <time>2026-08-09T09:21:34Z</time>
      </trkpt>
      <trkpt lat="45.08242" lon="6.10837">
        <ele>1763.2</ele>
        <time>2026-08-09T09:21:36Z</time>
      </trkpt>
      <trkpt lat="45.08243" lon="6.10835">
        <ele>1763.6</ele>
        <time>2026-08-09T09:21:37Z</time>
      </trkpt>
      <trkpt lat="45.08245" lon="6.10834">
        <ele>1764</ele>
        <time>2026-08-09T09:21:38Z</time>
      </trkpt>
      <trkpt lat="45.08248" lon="6.10831">
        <ele>1764.4</ele>
        <time>2026-08-09T09:21:40Z</time>
      </trkpt>
      <trkpt lat="45.0825" lon="6.10829">
        <ele>1764.6</ele>
        <time>2026-08-09T09:21:41Z</time>
      </trkpt>
      <trkpt lat="45.08251" lon="6.10828">
        <ele>1764.6</ele>
        <time>2026-08-09T09:21:42Z</time>
      </trkpt>
      <trkpt lat="45.08254" lon="6.10824">
        <ele>1764.8</ele>
        <time>2026-08-09T09:21:44Z</time>
      </trkpt>
      <trkpt lat="45.08257" lon="6.10821">
        <ele>1765.2</ele>
        <time>2026-08-09T09:21:46Z</time>
      </trkpt>
      <trkpt lat="45.08258" lon="6.10819">
        <ele>1765.4</ele>
        <time>2026-08-09T09:21:47Z</time>
      </trkpt>
      <trkpt lat="45.0826" lon="6.10817">
        <ele>1765.6</ele>
        <time>2026-08-09T09:21:48Z</time>
      </trkpt>
      <trkpt lat="45.08261" lon="6.10815">
        <ele>1765.6</ele>
        <time>2026-08-09T09:21:49Z</time>
      </trkpt>
      <trkpt lat="45.08263" lon="6.10813">
        <ele>1765.8</ele>
        <time>2026-08-09T09:21:50Z</time>
      </trkpt>
      <trkpt lat="45.08266" lon="6.1081">
        <ele>1766</ele>
        <time>2026-08-09T09:21:52Z</time>
      </trkpt>
      <trkpt lat="45.08269" lon="6.10806">
        <ele>1766.2</ele>
        <time>2026-08-09T09:21:54Z</time>
      </trkpt>
      <trkpt lat="45.08272" lon="6.10804">
        <ele>1766.6</ele>
        <time>2026-08-09T09:21:56Z</time>
      </trkpt>
      <trkpt lat="45.08275" lon="6.108">
        <ele>1766.8</ele>
        <time>2026-08-09T09:21:58Z</time>
      </trkpt>
      <trkpt lat="45.08278" lon="6.10796">
        <ele>1767</ele>
        <time>2026-08-09T09:22:00Z</time>
      </trkpt>
      <trkpt lat="45.08281" lon="6.10793">
        <ele>1767.2</ele>
        <time>2026-08-09T09:22:02Z</time>
      </trkpt>
      <trkpt lat="45.08282" lon="6.1079">
        <ele>1767.4</ele>
        <time>2026-08-09T09:22:03Z</time>
      </trkpt>
      <trkpt lat="45.08283" lon="6.10788">
        <ele>1767.4</ele>
        <time>2026-08-09T09:22:04Z</time>
      </trkpt>
      <trkpt lat="45.08284" lon="6.10787">
        <ele>1767.8</ele>
        <time>2026-08-09T09:22:05Z</time>
      </trkpt>
      <trkpt lat="45.08286" lon="6.10785">
        <ele>1767.8</ele>
        <time>2026-08-09T09:22:06Z</time>
      </trkpt>
      <trkpt lat="45.08289" lon="6.10782">
        <ele>1768.4</ele>
        <time>2026-08-09T09:22:08Z</time>
      </trkpt>
      <trkpt lat="45.08292" lon="6.10779">
        <ele>1768.6</ele>
        <time>2026-08-09T09:22:10Z</time>
      </trkpt>
      <trkpt lat="45.08293" lon="6.10778">
        <ele>1769</ele>
        <time>2026-08-09T09:22:11Z</time>
      </trkpt>
      <trkpt lat="45.08295" lon="6.10777">
        <ele>1769.2</ele>
        <time>2026-08-09T09:22:12Z</time>
      </trkpt>
      <trkpt lat="45.08298" lon="6.10775">
        <ele>1769.6</ele>
        <time>2026-08-09T09:22:14Z</time>
      </trkpt>
      <trkpt lat="45.08302" lon="6.10772">
        <ele>1770</ele>
        <time>2026-08-09T09:22:16Z</time>
      </trkpt>
      <trkpt lat="45.08305" lon="6.10768">
        <ele>1770.2</ele>
        <time>2026-08-09T09:22:18Z</time>
      </trkpt>
      <trkpt lat="45.08307" lon="6.10767">
        <ele>1770.4</ele>
        <time>2026-08-09T09:22:19Z</time>
      </trkpt>
      <trkpt lat="45.08309" lon="6.10766">
        <ele>1770.6</ele>
        <time>2026-08-09T09:22:20Z</time>
      </trkpt>
      <trkpt lat="45.08312" lon="6.10763">
        <ele>1771</ele>
        <time>2026-08-09T09:22:22Z</time>
      </trkpt>
      <trkpt lat="45.08316" lon="6.10761">
        <ele>1771</ele>
        <time>2026-08-09T09:22:24Z</time>
      </trkpt>
      <trkpt lat="45.0832" lon="6.10758">
        <ele>1771.4</ele>
        <time>2026-08-09T09:22:26Z</time>
      </trkpt>
      <trkpt lat="45.08323" lon="6.10755">
        <ele>1771.8</ele>
        <time>2026-08-09T09:22:28Z</time>
      </trkpt>
      <trkpt lat="45.08325" lon="6.10754">
        <ele>1772</ele>
        <time>2026-08-09T09:22:29Z</time>
      </trkpt>
      <trkpt lat="45.08326" lon="6.10752">
        <ele>1772.6</ele>
        <time>2026-08-09T09:22:30Z</time>
      </trkpt>
      <trkpt lat="45.0833" lon="6.1075">
        <ele>1772.8</ele>
        <time>2026-08-09T09:22:32Z</time>
      </trkpt>
      <trkpt lat="45.08333" lon="6.10747">
        <ele>1773</ele>
        <time>2026-08-09T09:22:34Z</time>
      </trkpt>
      <trkpt lat="45.08337" lon="6.10744">
        <ele>1773.4</ele>
        <time>2026-08-09T09:22:36Z</time>
      </trkpt>
      <trkpt lat="45.08339" lon="6.10743">
        <ele>1773.6</ele>
        <time>2026-08-09T09:22:37Z</time>
      </trkpt>
      <trkpt lat="45.08341" lon="6.10742">
        <ele>1773.8</ele>
        <time>2026-08-09T09:22:38Z</time>
      </trkpt>
      <trkpt lat="45.08345" lon="6.1074">
        <ele>1774</ele>
        <time>2026-08-09T09:22:40Z</time>
      </trkpt>
      <trkpt lat="45.08348" lon="6.10738">
        <ele>1774.6</ele>
        <time>2026-08-09T09:22:42Z</time>
      </trkpt>
      <trkpt lat="45.08352" lon="6.10736">
        <ele>1774.6</ele>
        <time>2026-08-09T09:22:44Z</time>
      </trkpt>
      <trkpt lat="45.08356" lon="6.10734">
        <ele>1774.8</ele>
        <time>2026-08-09T09:22:46Z</time>
      </trkpt>
      <trkpt lat="45.0836" lon="6.10733">
        <ele>1775</ele>
        <time>2026-08-09T09:22:48Z</time>
      </trkpt>
      <trkpt lat="45.08364" lon="6.10731">
        <ele>1775.2</ele>
        <time>2026-08-09T09:22:50Z</time>
      </trkpt>
      <trkpt lat="45.08368" lon="6.10729">
        <ele>1775.4</ele>
        <time>2026-08-09T09:22:52Z</time>
      </trkpt>
      <trkpt lat="45.08372" lon="6.10727">
        <ele>1775.6</ele>
        <time>2026-08-09T09:22:54Z</time>
      </trkpt>
      <trkpt lat="45.08374" lon="6.10726">
        <ele>1775.8</ele>
        <time>2026-08-09T09:22:55Z</time>
      </trkpt>
      <trkpt lat="45.08376" lon="6.10725">
        <ele>1775.8</ele>
        <time>2026-08-09T09:22:56Z</time>
      </trkpt>
      <trkpt lat="45.08379" lon="6.10724">
        <ele>1776</ele>
        <time>2026-08-09T09:22:58Z</time>
      </trkpt>
      <trkpt lat="45.08382" lon="6.10721">
        <ele>1776.2</ele>
        <time>2026-08-09T09:23:00Z</time>
      </trkpt>
      <trkpt lat="45.08385" lon="6.10719">
        <ele>1776.6</ele>
        <time>2026-08-09T09:23:02Z</time>
      </trkpt>
      <trkpt lat="45.08387" lon="6.10716">
        <ele>1777</ele>
        <time>2026-08-09T09:23:04Z</time>
      </trkpt>
      <trkpt lat="45.0839" lon="6.10712">
        <ele>1777.6</ele>
        <time>2026-08-09T09:23:06Z</time>
      </trkpt>
      <trkpt lat="45.08392" lon="6.10708">
        <ele>1778</ele>
        <time>2026-08-09T09:23:08Z</time>
      </trkpt>
      <trkpt lat="45.08394" lon="6.10704">
        <ele>1778.4</ele>
        <time>2026-08-09T09:23:10Z</time>
      </trkpt>
      <trkpt lat="45.08397" lon="6.107">
        <ele>1778.8</ele>
        <time>2026-08-09T09:23:12Z</time>
      </trkpt>
      <trkpt lat="45.08399" lon="6.10696">
        <ele>1779</ele>
        <time>2026-08-09T09:23:14Z</time>
      </trkpt>
      <trkpt lat="45.08401" lon="6.10694">
        <ele>1779</ele>
        <time>2026-08-09T09:23:15Z</time>
      </trkpt>
      <trkpt lat="45.08402" lon="6.10692">
        <ele>1779.2</ele>
        <time>2026-08-09T09:23:16Z</time>
      </trkpt>
      <trkpt lat="45.08404" lon="6.10688">
        <ele>1779.6</ele>
        <time>2026-08-09T09:23:18Z</time>
      </trkpt>
      <trkpt lat="45.08407" lon="6.10685">
        <ele>1780</ele>
        <time>2026-08-09T09:23:20Z</time>
      </trkpt>
      <trkpt lat="45.08409" lon="6.10681">
        <ele>1780.2</ele>
        <time>2026-08-09T09:23:22Z</time>
      </trkpt>
      <trkpt lat="45.0841" lon="6.10676">
        <ele>1780.6</ele>
        <time>2026-08-09T09:23:24Z</time>
      </trkpt>
      <trkpt lat="45.08411" lon="6.1067">
        <ele>1780.8</ele>
        <time>2026-08-09T09:23:26Z</time>
      </trkpt>
      <trkpt lat="45.08411" lon="6.10664">
        <ele>1781</ele>
        <time>2026-08-09T09:23:28Z</time>
      </trkpt>
      <trkpt lat="45.08412" lon="6.10659">
        <ele>1781.2</ele>
        <time>2026-08-09T09:23:30Z</time>
      </trkpt>
      <trkpt lat="45.08413" lon="6.10656">
        <ele>1781.4</ele>
        <time>2026-08-09T09:23:31Z</time>
      </trkpt>
      <trkpt lat="45.08414" lon="6.10654">
        <ele>1781.6</ele>
        <time>2026-08-09T09:23:32Z</time>
      </trkpt>
      <trkpt lat="45.08416" lon="6.1065">
        <ele>1782.2</ele>
        <time>2026-08-09T09:23:34Z</time>
      </trkpt>
      <trkpt lat="45.08416" lon="6.10648">
        <ele>1782.6</ele>
        <time>2026-08-09T09:23:35Z</time>
      </trkpt>
      <trkpt lat="45.08417" lon="6.10645">
        <ele>1782.8</ele>
        <time>2026-08-09T09:23:36Z</time>
      </trkpt>
      <trkpt lat="45.08418" lon="6.10643">
        <ele>1783</ele>
        <time>2026-08-09T09:23:37Z</time>
      </trkpt>
      <trkpt lat="45.08419" lon="6.10641">
        <ele>1783.4</ele>
        <time>2026-08-09T09:23:38Z</time>
      </trkpt>
      <trkpt lat="45.08421" lon="6.10637">
        <ele>1783.6</ele>
        <time>2026-08-09T09:23:40Z</time>
      </trkpt>
      <trkpt lat="45.08424" lon="6.10633">
        <ele>1783.6</ele>
        <time>2026-08-09T09:23:42Z</time>
      </trkpt>
      <trkpt lat="45.08427" lon="6.1063">
        <ele>1784</ele>
        <time>2026-08-09T09:23:44Z</time>
      </trkpt>
      <trkpt lat="45.08428" lon="6.10628">
        <ele>1784.2</ele>
        <time>2026-08-09T09:23:45Z</time>
      </trkpt>
      <trkpt lat="45.0843" lon="6.10627">
        <ele>1784.2</ele>
        <time>2026-08-09T09:23:46Z</time>
      </trkpt>
      <trkpt lat="45.08433" lon="6.10623">
        <ele>1784.6</ele>
        <time>2026-08-09T09:23:48Z</time>
      </trkpt>
      <trkpt lat="45.08435" lon="6.10621">
        <ele>1784.8</ele>
        <time>2026-08-09T09:23:49Z</time>
      </trkpt>
      <trkpt lat="45.08436" lon="6.1062">
        <ele>1785</ele>
        <time>2026-08-09T09:23:50Z</time>
      </trkpt>
      <trkpt lat="45.0844" lon="6.10616">
        <ele>1785.4</ele>
        <time>2026-08-09T09:23:52Z</time>
      </trkpt>
      <trkpt lat="45.08444" lon="6.10614">
        <ele>1785.4</ele>
        <time>2026-08-09T09:23:54Z</time>
      </trkpt>
      <trkpt lat="45.08447" lon="6.1061">
        <ele>1786.2</ele>
        <time>2026-08-09T09:23:56Z</time>
      </trkpt>
      <trkpt lat="45.08451" lon="6.10608">
        <ele>1786.4</ele>
        <time>2026-08-09T09:23:58Z</time>
      </trkpt>
      <trkpt lat="45.08455" lon="6.10606">
        <ele>1787</ele>
        <time>2026-08-09T09:24:00Z</time>
      </trkpt>
      <trkpt lat="45.08459" lon="6.10605">
        <ele>1787.4</ele>
        <time>2026-08-09T09:24:02Z</time>
      </trkpt>
      <trkpt lat="45.08463" lon="6.10604">
        <ele>1788</ele>
        <time>2026-08-09T09:24:04Z</time>
      </trkpt>
      <trkpt lat="45.08466" lon="6.10603">
        <ele>1788.2</ele>
        <time>2026-08-09T09:24:06Z</time>
      </trkpt>
      <trkpt lat="45.08468" lon="6.10602">
        <ele>1788.4</ele>
        <time>2026-08-09T09:24:07Z</time>
      </trkpt>
      <trkpt lat="45.0847" lon="6.10602">
        <ele>1788.4</ele>
        <time>2026-08-09T09:24:08Z</time>
      </trkpt>
      <trkpt lat="45.08472" lon="6.10601">
        <ele>1788.6</ele>
        <time>2026-08-09T09:24:09Z</time>
      </trkpt>
      <trkpt lat="45.08474" lon="6.10601">
        <ele>1788.6</ele>
        <time>2026-08-09T09:24:10Z</time>
      </trkpt>
      <trkpt lat="45.08478" lon="6.106">
        <ele>1788.8</ele>
        <time>2026-08-09T09:24:12Z</time>
      </trkpt>
      <trkpt lat="45.08482" lon="6.106">
        <ele>1789.2</ele>
        <time>2026-08-09T09:24:14Z</time>
      </trkpt>
      <trkpt lat="45.08486" lon="6.10599">
        <ele>1789.4</ele>
        <time>2026-08-09T09:24:16Z</time>
      </trkpt>
      <trkpt lat="45.0849" lon="6.10598">
        <ele>1789.6</ele>
        <time>2026-08-09T09:24:18Z</time>
      </trkpt>
      <trkpt lat="45.08494" lon="6.10596">
        <ele>1790</ele>
        <time>2026-08-09T09:24:20Z</time>
      </trkpt>
      <trkpt lat="45.08498" lon="6.10595">
        <ele>1790.2</ele>
        <time>2026-08-09T09:24:22Z</time>
      </trkpt>
      <trkpt lat="45.08502" lon="6.10595">
        <ele>1790.4</ele>
        <time>2026-08-09T09:24:24Z</time>
      </trkpt>
      <trkpt lat="45.08504" lon="6.10594">
        <ele>1790.6</ele>
        <time>2026-08-09T09:24:25Z</time>
      </trkpt>
      <trkpt lat="45.08506" lon="6.10593">
        <ele>1790.6</ele>
        <time>2026-08-09T09:24:26Z</time>
      </trkpt>
      <trkpt lat="45.08509" lon="6.1059">
        <ele>1790.8</ele>
        <time>2026-08-09T09:24:28Z</time>
      </trkpt>
      <trkpt lat="45.08513" lon="6.10586">
        <ele>1791.2</ele>
        <time>2026-08-09T09:24:30Z</time>
      </trkpt>
      <trkpt lat="45.08515" lon="6.10581">
        <ele>1791.6</ele>
        <time>2026-08-09T09:24:32Z</time>
      </trkpt>
      <trkpt lat="45.08518" lon="6.10576">
        <ele>1792</ele>
        <time>2026-08-09T09:24:34Z</time>
      </trkpt>
      <trkpt lat="45.0852" lon="6.10569">
        <ele>1792.2</ele>
        <time>2026-08-09T09:24:36Z</time>
      </trkpt>
      <trkpt lat="45.0852" lon="6.10562">
        <ele>1792.4</ele>
        <time>2026-08-09T09:24:38Z</time>
      </trkpt>
      <trkpt lat="45.08518" lon="6.10554">
        <ele>1792.6</ele>
        <time>2026-08-09T09:24:40Z</time>
      </trkpt>
      <trkpt lat="45.08515" lon="6.10544">
        <ele>1792.6</ele>
        <time>2026-08-09T09:24:42Z</time>
      </trkpt>
      <trkpt lat="45.08512" lon="6.10536">
        <ele>1792.6</ele>
        <time>2026-08-09T09:24:44Z</time>
      </trkpt>
      <trkpt lat="45.08507" lon="6.10528">
        <ele>1792.6</ele>
        <time>2026-08-09T09:24:46Z</time>
      </trkpt>
      <trkpt lat="45.08503" lon="6.1052">
        <ele>1792.8</ele>
        <time>2026-08-09T09:24:48Z</time>
      </trkpt>
      <trkpt lat="45.08499" lon="6.10512">
        <ele>1792.8</ele>
        <time>2026-08-09T09:24:50Z</time>
      </trkpt>
      <trkpt lat="45.08496" lon="6.10503">
        <ele>1792.8</ele>
        <time>2026-08-09T09:24:52Z</time>
      </trkpt>
      <trkpt lat="45.08494" lon="6.10499">
        <ele>1793</ele>
        <time>2026-08-09T09:24:53Z</time>
      </trkpt>
      <trkpt lat="45.08493" lon="6.10494">
        <ele>1793</ele>
        <time>2026-08-09T09:24:54Z</time>
      </trkpt>
      <trkpt lat="45.0849" lon="6.10485">
        <ele>1793.2</ele>
        <time>2026-08-09T09:24:56Z</time>
      </trkpt>
      <trkpt lat="45.08487" lon="6.10475">
        <ele>1793.2</ele>
        <time>2026-08-09T09:24:58Z</time>
      </trkpt>
      <trkpt lat="45.08485" lon="6.1047">
        <ele>1793.4</ele>
        <time>2026-08-09T09:24:59Z</time>
      </trkpt>
      <trkpt lat="45.08483" lon="6.10466">
        <ele>1793.4</ele>
        <time>2026-08-09T09:25:00Z</time>
      </trkpt>
      <trkpt lat="45.08481" lon="6.10461">
        <ele>1793.4</ele>
        <time>2026-08-09T09:25:01Z</time>
      </trkpt>
      <trkpt lat="45.0848" lon="6.10457">
        <ele>1793.6</ele>
        <time>2026-08-09T09:25:02Z</time>
      </trkpt>
      <trkpt lat="45.08477" lon="6.10447">
        <ele>1793.8</ele>
        <time>2026-08-09T09:25:04Z</time>
      </trkpt>
      <trkpt lat="45.08477" lon="6.10437">
        <ele>1794</ele>
        <time>2026-08-09T09:25:06Z</time>
      </trkpt>
      <trkpt lat="45.08478" lon="6.10426">
        <ele>1794.2</ele>
        <time>2026-08-09T09:25:08Z</time>
      </trkpt>
      <trkpt lat="45.08478" lon="6.1042">
        <ele>1794.6</ele>
        <time>2026-08-09T09:25:09Z</time>
      </trkpt>
      <trkpt lat="45.08479" lon="6.10415">
        <ele>1794.6</ele>
        <time>2026-08-09T09:25:10Z</time>
      </trkpt>
      <trkpt lat="45.08481" lon="6.10403">
        <ele>1795</ele>
        <time>2026-08-09T09:25:12Z</time>
      </trkpt>
      <trkpt lat="45.08482" lon="6.10397">
        <ele>1795</ele>
        <time>2026-08-09T09:25:13Z</time>
      </trkpt>
      <trkpt lat="45.08482" lon="6.10391">
        <ele>1795.2</ele>
        <time>2026-08-09T09:25:14Z</time>
      </trkpt>
      <trkpt lat="45.08483" lon="6.1038">
        <ele>1795.6</ele>
        <time>2026-08-09T09:25:16Z</time>
      </trkpt>
      <trkpt lat="45.08483" lon="6.10368">
        <ele>1795.8</ele>
        <time>2026-08-09T09:25:18Z</time>
      </trkpt>
      <trkpt lat="45.08483" lon="6.10357">
        <ele>1795.8</ele>
        <time>2026-08-09T09:25:20Z</time>
      </trkpt>
      <trkpt lat="45.08483" lon="6.10352">
        <ele>1795.8</ele>
        <time>2026-08-09T09:25:21Z</time>
      </trkpt>
      <trkpt lat="45.08483" lon="6.10347">
        <ele>1795.8</ele>
        <time>2026-08-09T09:25:22Z</time>
      </trkpt>
      <trkpt lat="45.08482" lon="6.10337">
        <ele>1796</ele>
        <time>2026-08-09T09:25:24Z</time>
      </trkpt>
      <trkpt lat="45.08483" lon="6.10327">
        <ele>1796</ele>
        <time>2026-08-09T09:25:26Z</time>
      </trkpt>
      <trkpt lat="45.08483" lon="6.10317">
        <ele>1796</ele>
        <time>2026-08-09T09:25:28Z</time>
      </trkpt>
      <trkpt lat="45.08482" lon="6.10307">
        <ele>1796</ele>
        <time>2026-08-09T09:25:30Z</time>
      </trkpt>
      <trkpt lat="45.08481" lon="6.10296">
        <ele>1796</ele>
        <time>2026-08-09T09:25:32Z</time>
      </trkpt>
      <trkpt lat="45.0848" lon="6.10285">
        <ele>1796</ele>
        <time>2026-08-09T09:25:34Z</time>
      </trkpt>
      <trkpt lat="45.08479" lon="6.10275">
        <ele>1796</ele>
        <time>2026-08-09T09:25:36Z</time>
      </trkpt>
      <trkpt lat="45.08479" lon="6.10265">
        <ele>1796.2</ele>
        <time>2026-08-09T09:25:38Z</time>
      </trkpt>
      <trkpt lat="45.08479" lon="6.10255">
        <ele>1796.4</ele>
        <time>2026-08-09T09:25:40Z</time>
      </trkpt>
      <trkpt lat="45.08479" lon="6.10246">
        <ele>1796.8</ele>
        <time>2026-08-09T09:25:42Z</time>
      </trkpt>
      <trkpt lat="45.08479" lon="6.10237">
        <ele>1797.2</ele>
        <time>2026-08-09T09:25:44Z</time>
      </trkpt>
      <trkpt lat="45.08479" lon="6.10227">
        <ele>1797.6</ele>
        <time>2026-08-09T09:25:46Z</time>
      </trkpt>
      <trkpt lat="45.08479" lon="6.10222">
        <ele>1797.8</ele>
        <time>2026-08-09T09:25:47Z</time>
      </trkpt>
      <trkpt lat="45.08478" lon="6.10217">
        <ele>1798.2</ele>
        <time>2026-08-09T09:25:48Z</time>
      </trkpt>
      <trkpt lat="45.08478" lon="6.10207">
        <ele>1798.8</ele>
        <time>2026-08-09T09:25:50Z</time>
      </trkpt>
      <trkpt lat="45.08478" lon="6.10198">
        <ele>1799.4</ele>
        <time>2026-08-09T09:25:52Z</time>
      </trkpt>
      <trkpt lat="45.08478" lon="6.10189">
        <ele>1799.6</ele>
        <time>2026-08-09T09:25:54Z</time>
      </trkpt>
      <trkpt lat="45.08477" lon="6.10185">
        <ele>1799.8</ele>
        <time>2026-08-09T09:25:55Z</time>
      </trkpt>
      <trkpt lat="45.08477" lon="6.1018">
        <ele>1799.8</ele>
        <time>2026-08-09T09:25:56Z</time>
      </trkpt>
      <trkpt lat="45.08478" lon="6.10172">
        <ele>1800.6</ele>
        <time>2026-08-09T09:25:58Z</time>
      </trkpt>
      <trkpt lat="45.08478" lon="6.10163">
        <ele>1801</ele>
        <time>2026-08-09T09:26:00Z</time>
      </trkpt>
      <trkpt lat="45.08477" lon="6.10155">
        <ele>1801.2</ele>
        <time>2026-08-09T09:26:02Z</time>
      </trkpt>
      <trkpt lat="45.08477" lon="6.10151">
        <ele>1801.4</ele>
        <time>2026-08-09T09:26:03Z</time>
      </trkpt>
      <trkpt lat="45.08477" lon="6.10147">
        <ele>1801.4</ele>
        <time>2026-08-09T09:26:04Z</time>
      </trkpt>
      <trkpt lat="45.08476" lon="6.10139">
        <ele>1801.6</ele>
        <time>2026-08-09T09:26:06Z</time>
      </trkpt>
      <trkpt lat="45.08476" lon="6.10132">
        <ele>1801.8</ele>
        <time>2026-08-09T09:26:08Z</time>
      </trkpt>
      <trkpt lat="45.08475" lon="6.10128">
        <ele>1802</ele>
        <time>2026-08-09T09:26:09Z</time>
      </trkpt>
      <trkpt lat="45.08475" lon="6.10124">
        <ele>1802.2</ele>
        <time>2026-08-09T09:26:10Z</time>
      </trkpt>
      <trkpt lat="45.08475" lon="6.10116">
        <ele>1802.4</ele>
        <time>2026-08-09T09:26:12Z</time>
      </trkpt>
      <trkpt lat="45.08474" lon="6.10107">
        <ele>1803</ele>
        <time>2026-08-09T09:26:14Z</time>
      </trkpt>
      <trkpt lat="45.08474" lon="6.10103">
        <ele>1803</ele>
        <time>2026-08-09T09:26:15Z</time>
      </trkpt>
      <trkpt lat="45.08474" lon="6.10099">
        <ele>1803.2</ele>
        <time>2026-08-09T09:26:16Z</time>
      </trkpt>
      <trkpt lat="45.08474" lon="6.10091">
        <ele>1803.4</ele>
        <time>2026-08-09T09:26:18Z</time>
      </trkpt>
      <trkpt lat="45.08474" lon="6.10087">
        <ele>1803.4</ele>
        <time>2026-08-09T09:26:19Z</time>
      </trkpt>
      <trkpt lat="45.08475" lon="6.10083">
        <ele>1803.4</ele>
        <time>2026-08-09T09:26:20Z</time>
      </trkpt>
      <trkpt lat="45.08475" lon="6.10076">
        <ele>1803.8</ele>
        <time>2026-08-09T09:26:22Z</time>
      </trkpt>
      <trkpt lat="45.08475" lon="6.10069">
        <ele>1804</ele>
        <time>2026-08-09T09:26:24Z</time>
      </trkpt>
      <trkpt lat="45.08475" lon="6.10063">
        <ele>1804.4</ele>
        <time>2026-08-09T09:26:26Z</time>
      </trkpt>
      <trkpt lat="45.08476" lon="6.10056">
        <ele>1804.6</ele>
        <time>2026-08-09T09:26:28Z</time>
      </trkpt>
      <trkpt lat="45.08476" lon="6.10049">
        <ele>1804.6</ele>
        <time>2026-08-09T09:26:30Z</time>
      </trkpt>
      <trkpt lat="45.08476" lon="6.10039">
        <ele>1804.6</ele>
        <time>2026-08-09T09:26:32Z</time>
      </trkpt>
      <trkpt lat="45.08476" lon="6.10027">
        <ele>1804.6</ele>
        <time>2026-08-09T09:26:34Z</time>
      </trkpt>
      <trkpt lat="45.08477" lon="6.10013">
        <ele>1804.6</ele>
        <time>2026-08-09T09:26:36Z</time>
      </trkpt>
      <trkpt lat="45.08477" lon="6.09996">
        <ele>1804.6</ele>
        <time>2026-08-09T09:26:38Z</time>
      </trkpt>
      <trkpt lat="45.08477" lon="6.09987">
        <ele>1804.6</ele>
        <time>2026-08-09T09:26:39Z</time>
      </trkpt>
      <trkpt lat="45.08477" lon="6.09979">
        <ele>1804.6</ele>
        <time>2026-08-09T09:26:40Z</time>
      </trkpt>
      <trkpt lat="45.08475" lon="6.09966">
        <ele>1804.2</ele>
        <time>2026-08-09T09:26:42Z</time>
      </trkpt>
      <trkpt lat="45.08474" lon="6.0996">
        <ele>1803.6</ele>
        <time>2026-08-09T09:26:43Z</time>
      </trkpt>
      <trkpt lat="45.08473" lon="6.09955">
        <ele>1803</ele>
        <time>2026-08-09T09:26:44Z</time>
      </trkpt>
      <trkpt lat="45.08472" lon="6.09949">
        <ele>1802.4</ele>
        <time>2026-08-09T09:26:45Z</time>
      </trkpt>
      <trkpt lat="45.08471" lon="6.09944">
        <ele>1801.8</ele>
        <time>2026-08-09T09:26:46Z</time>
      </trkpt>
      <trkpt lat="45.0847" lon="6.09939">
        <ele>1801.4</ele>
        <time>2026-08-09T09:26:47Z</time>
      </trkpt>
      <trkpt lat="45.08469" lon="6.09933">
        <ele>1801.2</ele>
        <time>2026-08-09T09:26:48Z</time>
      </trkpt>
      <trkpt lat="45.08467" lon="6.09923">
        <ele>1801</ele>
        <time>2026-08-09T09:26:50Z</time>
      </trkpt>
      <trkpt lat="45.08466" lon="6.09914">
        <ele>1800.8</ele>
        <time>2026-08-09T09:26:52Z</time>
      </trkpt>
      <trkpt lat="45.08467" lon="6.09909">
        <ele>1800.6</ele>
        <time>2026-08-09T09:26:53Z</time>
      </trkpt>
      <trkpt lat="45.08467" lon="6.09904">
        <ele>1800.6</ele>
        <time>2026-08-09T09:26:54Z</time>
      </trkpt>
      <trkpt lat="45.08468" lon="6.09892">
        <ele>1800.2</ele>
        <time>2026-08-09T09:26:56Z</time>
      </trkpt>
      <trkpt lat="45.08468" lon="6.09885">
        <ele>1800.2</ele>
        <time>2026-08-09T09:26:57Z</time>
      </trkpt>
      <trkpt lat="45.08469" lon="6.09877">
        <ele>1800</ele>
        <time>2026-08-09T09:26:58Z</time>
      </trkpt>
      <trkpt lat="45.0847" lon="6.09862">
        <ele>1799.8</ele>
        <time>2026-08-09T09:27:00Z</time>
      </trkpt>
      <trkpt lat="45.08471" lon="6.09845">
        <ele>1799</ele>
        <time>2026-08-09T09:27:02Z</time>
      </trkpt>
      <trkpt lat="45.08472" lon="6.09836">
        <ele>1798.8</ele>
        <time>2026-08-09T09:27:03Z</time>
      </trkpt>
      <trkpt lat="45.08472" lon="6.09827">
        <ele>1798.2</ele>
        <time>2026-08-09T09:27:04Z</time>
      </trkpt>
      <trkpt lat="45.08474" lon="6.09818">
        <ele>1797.8</ele>
        <time>2026-08-09T09:27:05Z</time>
      </trkpt>
      <trkpt lat="45.08475" lon="6.09808">
        <ele>1797.6</ele>
        <time>2026-08-09T09:27:06Z</time>
      </trkpt>
      <trkpt lat="45.08478" lon="6.0979">
        <ele>1796.8</ele>
        <time>2026-08-09T09:27:08Z</time>
      </trkpt>
      <trkpt lat="45.08481" lon="6.09781">
        <ele>1796.8</ele>
        <time>2026-08-09T09:27:09Z</time>
      </trkpt>
      <trkpt lat="45.08483" lon="6.09771">
        <ele>1796.4</ele>
        <time>2026-08-09T09:27:10Z</time>
      </trkpt>
      <trkpt lat="45.08487" lon="6.09754">
        <ele>1795.8</ele>
        <time>2026-08-09T09:27:12Z</time>
      </trkpt>
      <trkpt lat="45.08488" lon="6.09747">
        <ele>1795.4</ele>
        <time>2026-08-09T09:27:13Z</time>
      </trkpt>
      <trkpt lat="45.0849" lon="6.0974">
        <ele>1795</ele>
        <time>2026-08-09T09:27:14Z</time>
      </trkpt>
      <trkpt lat="45.08493" lon="6.09727">
        <ele>1794.4</ele>
        <time>2026-08-09T09:27:16Z</time>
      </trkpt>
      <trkpt lat="45.08495" lon="6.09721">
        <ele>1794.4</ele>
        <time>2026-08-09T09:27:17Z</time>
      </trkpt>
      <trkpt lat="45.08497" lon="6.09714">
        <ele>1794.2</ele>
        <time>2026-08-09T09:27:18Z</time>
      </trkpt>
      <trkpt lat="45.08499" lon="6.09707">
        <ele>1794.2</ele>
        <time>2026-08-09T09:27:19Z</time>
      </trkpt>
      <trkpt lat="45.085" lon="6.09701">
        <ele>1794</ele>
        <time>2026-08-09T09:27:20Z</time>
      </trkpt>
      <trkpt lat="45.08502" lon="6.09694">
        <ele>1794</ele>
        <time>2026-08-09T09:27:21Z</time>
      </trkpt>
      <trkpt lat="45.08504" lon="6.09687">
        <ele>1794</ele>
        <time>2026-08-09T09:27:22Z</time>
      </trkpt>
      <trkpt lat="45.08509" lon="6.09673">
        <ele>1793.8</ele>
        <time>2026-08-09T09:27:24Z</time>
      </trkpt>
      <trkpt lat="45.08511" lon="6.09666">
        <ele>1793.4</ele>
        <time>2026-08-09T09:27:25Z</time>
      </trkpt>
      <trkpt lat="45.08514" lon="6.09659">
        <ele>1793.2</ele>
        <time>2026-08-09T09:27:26Z</time>
      </trkpt>
      <trkpt lat="45.08517" lon="6.09652">
        <ele>1793</ele>
        <time>2026-08-09T09:27:27Z</time>
      </trkpt>
      <trkpt lat="45.08521" lon="6.09644">
        <ele>1792.8</ele>
        <time>2026-08-09T09:27:28Z</time>
      </trkpt>
      <trkpt lat="45.08527" lon="6.09628">
        <ele>1792.2</ele>
        <time>2026-08-09T09:27:30Z</time>
      </trkpt>
      <trkpt lat="45.0853" lon="6.09619">
        <ele>1791.8</ele>
        <time>2026-08-09T09:27:31Z</time>
      </trkpt>
      <trkpt lat="45.08532" lon="6.09609">
        <ele>1791.4</ele>
        <time>2026-08-09T09:27:32Z</time>
      </trkpt>
      <trkpt lat="45.08534" lon="6.096">
        <ele>1790.8</ele>
        <time>2026-08-09T09:27:33Z</time>
      </trkpt>
      <trkpt lat="45.08535" lon="6.09589">
        <ele>1790.4</ele>
        <time>2026-08-09T09:27:34Z</time>
      </trkpt>
      <trkpt lat="45.08534" lon="6.09569">
        <ele>1789.8</ele>
        <time>2026-08-09T09:27:36Z</time>
      </trkpt>
      <trkpt lat="45.08534" lon="6.09549">
        <ele>1789</ele>
        <time>2026-08-09T09:27:38Z</time>
      </trkpt>
      <trkpt lat="45.08535" lon="6.0953">
        <ele>1788.8</ele>
        <time>2026-08-09T09:27:40Z</time>
      </trkpt>
      <trkpt lat="45.08536" lon="6.09511">
        <ele>1788.6</ele>
        <time>2026-08-09T09:27:42Z</time>
      </trkpt>
      <trkpt lat="45.08537" lon="6.09492">
        <ele>1788.4</ele>
        <time>2026-08-09T09:27:44Z</time>
      </trkpt>
      <trkpt lat="45.08539" lon="6.09475">
        <ele>1788.2</ele>
        <time>2026-08-09T09:27:46Z</time>
      </trkpt>
      <trkpt lat="45.0854" lon="6.09467">
        <ele>1788</ele>
        <time>2026-08-09T09:27:47Z</time>
      </trkpt>
      <trkpt lat="45.08542" lon="6.09459">
        <ele>1787.8</ele>
        <time>2026-08-09T09:27:48Z</time>
      </trkpt>
      <trkpt lat="45.08543" lon="6.09451">
        <ele>1787.6</ele>
        <time>2026-08-09T09:27:49Z</time>
      </trkpt>
      <trkpt lat="45.08545" lon="6.09443">
        <ele>1787.6</ele>
        <time>2026-08-09T09:27:50Z</time>
      </trkpt>
      <trkpt lat="45.08548" lon="6.09429">
        <ele>1787.6</ele>
        <time>2026-08-09T09:27:52Z</time>
      </trkpt>
      <trkpt lat="45.08551" lon="6.09415">
        <ele>1787.6</ele>
        <time>2026-08-09T09:27:54Z</time>
      </trkpt>
      <trkpt lat="45.08552" lon="6.09408">
        <ele>1787.4</ele>
        <time>2026-08-09T09:27:55Z</time>
      </trkpt>
      <trkpt lat="45.08553" lon="6.09401">
        <ele>1787.4</ele>
        <time>2026-08-09T09:27:56Z</time>
      </trkpt>
      <trkpt lat="45.08555" lon="6.09386">
        <ele>1787.4</ele>
        <time>2026-08-09T09:27:58Z</time>
      </trkpt>
      <trkpt lat="45.08557" lon="6.09371">
        <ele>1787.4</ele>
        <time>2026-08-09T09:28:00Z</time>
      </trkpt>
      <trkpt lat="45.0856" lon="6.09357">
        <ele>1787.6</ele>
        <time>2026-08-09T09:28:02Z</time>
      </trkpt>
      <trkpt lat="45.08562" lon="6.09345">
        <ele>1787.6</ele>
        <time>2026-08-09T09:28:04Z</time>
      </trkpt>
      <trkpt lat="45.08565" lon="6.09332">
        <ele>1787.8</ele>
        <time>2026-08-09T09:28:06Z</time>
      </trkpt>
      <trkpt lat="45.08567" lon="6.09321">
        <ele>1787.8</ele>
        <time>2026-08-09T09:28:08Z</time>
      </trkpt>
      <trkpt lat="45.08569" lon="6.09315">
        <ele>1788</ele>
        <time>2026-08-09T09:28:09Z</time>
      </trkpt>
      <trkpt lat="45.0857" lon="6.09309">
        <ele>1788</ele>
        <time>2026-08-09T09:28:10Z</time>
      </trkpt>
      <trkpt lat="45.08574" lon="6.09297">
        <ele>1788.4</ele>
        <time>2026-08-09T09:28:12Z</time>
      </trkpt>
      <trkpt lat="45.08576" lon="6.09291">
        <ele>1788.6</ele>
        <time>2026-08-09T09:28:13Z</time>
      </trkpt>
      <trkpt lat="45.08578" lon="6.09285">
        <ele>1788.8</ele>
        <time>2026-08-09T09:28:14Z</time>
      </trkpt>
      <trkpt lat="45.0858" lon="6.09279">
        <ele>1789</ele>
        <time>2026-08-09T09:28:15Z</time>
      </trkpt>
      <trkpt lat="45.08582" lon="6.09272">
        <ele>1789.2</ele>
        <time>2026-08-09T09:28:16Z</time>
      </trkpt>
      <trkpt lat="45.08586" lon="6.09259">
        <ele>1789.4</ele>
        <time>2026-08-09T09:28:18Z</time>
      </trkpt>
      <trkpt lat="45.08589" lon="6.09246">
        <ele>1789.4</ele>
        <time>2026-08-09T09:28:20Z</time>
      </trkpt>
      <trkpt lat="45.08591" lon="6.09233">
        <ele>1789.6</ele>
        <time>2026-08-09T09:28:22Z</time>
      </trkpt>
      <trkpt lat="45.08592" lon="6.09227">
        <ele>1789.6</ele>
        <time>2026-08-09T09:28:23Z</time>
      </trkpt>
      <trkpt lat="45.08594" lon="6.09221">
        <ele>1789.6</ele>
        <time>2026-08-09T09:28:24Z</time>
      </trkpt>
      <trkpt lat="45.08595" lon="6.09209">
        <ele>1789.6</ele>
        <time>2026-08-09T09:28:26Z</time>
      </trkpt>
      <trkpt lat="45.08597" lon="6.09196">
        <ele>1789.6</ele>
        <time>2026-08-09T09:28:28Z</time>
      </trkpt>
      <trkpt lat="45.08599" lon="6.09182">
        <ele>1789.6</ele>
        <time>2026-08-09T09:28:30Z</time>
      </trkpt>
      <trkpt lat="45.086" lon="6.09169">
        <ele>1789.6</ele>
        <time>2026-08-09T09:28:32Z</time>
      </trkpt>
      <trkpt lat="45.08602" lon="6.09156">
        <ele>1789.6</ele>
        <time>2026-08-09T09:28:34Z</time>
      </trkpt>
      <trkpt lat="45.08604" lon="6.09143">
        <ele>1789.6</ele>
        <time>2026-08-09T09:28:36Z</time>
      </trkpt>
      <trkpt lat="45.08606" lon="6.0913">
        <ele>1789.8</ele>
        <time>2026-08-09T09:28:38Z</time>
      </trkpt>
      <trkpt lat="45.08608" lon="6.09118">
        <ele>1789.8</ele>
        <time>2026-08-09T09:28:40Z</time>
      </trkpt>
      <trkpt lat="45.08609" lon="6.09106">
        <ele>1789.8</ele>
        <time>2026-08-09T09:28:42Z</time>
      </trkpt>
      <trkpt lat="45.08611" lon="6.09095">
        <ele>1790</ele>
        <time>2026-08-09T09:28:44Z</time>
      </trkpt>
      <trkpt lat="45.08612" lon="6.09083">
        <ele>1790</ele>
        <time>2026-08-09T09:28:46Z</time>
      </trkpt>
      <trkpt lat="45.08612" lon="6.09072">
        <ele>1790.2</ele>
        <time>2026-08-09T09:28:48Z</time>
      </trkpt>
      <trkpt lat="45.08611" lon="6.09066">
        <ele>1790.2</ele>
        <time>2026-08-09T09:28:49Z</time>
      </trkpt>
      <trkpt lat="45.08611" lon="6.0906">
        <ele>1790.2</ele>
        <time>2026-08-09T09:28:50Z</time>
      </trkpt>
      <trkpt lat="45.08609" lon="6.0905">
        <ele>1790.2</ele>
        <time>2026-08-09T09:28:52Z</time>
      </trkpt>
      <trkpt lat="45.08607" lon="6.09041">
        <ele>1790.4</ele>
        <time>2026-08-09T09:28:54Z</time>
      </trkpt>
      <trkpt lat="45.08606" lon="6.09036">
        <ele>1790.6</ele>
        <time>2026-08-09T09:28:55Z</time>
      </trkpt>
      <trkpt lat="45.08605" lon="6.09032">
        <ele>1791</ele>
        <time>2026-08-09T09:28:56Z</time>
      </trkpt>
      <trkpt lat="45.08603" lon="6.09023">
        <ele>1791.6</ele>
        <time>2026-08-09T09:28:58Z</time>
      </trkpt>
      <trkpt lat="45.08602" lon="6.09014">
        <ele>1791.8</ele>
        <time>2026-08-09T09:29:00Z</time>
      </trkpt>
      <trkpt lat="45.08602" lon="6.09009">
        <ele>1792</ele>
        <time>2026-08-09T09:29:01Z</time>
      </trkpt>
      <trkpt lat="45.08602" lon="6.09005">
        <ele>1792.2</ele>
        <time>2026-08-09T09:29:02Z</time>
      </trkpt>
      <trkpt lat="45.08602" lon="6.08996">
        <ele>1792.4</ele>
        <time>2026-08-09T09:29:04Z</time>
      </trkpt>
      <trkpt lat="45.08605" lon="6.08987">
        <ele>1792.6</ele>
        <time>2026-08-09T09:29:06Z</time>
      </trkpt>
      <trkpt lat="45.08609" lon="6.08982">
        <ele>1793</ele>
        <time>2026-08-09T09:29:08Z</time>
      </trkpt>
      <trkpt lat="45.08614" lon="6.0898">
        <ele>1793.6</ele>
        <time>2026-08-09T09:29:10Z</time>
      </trkpt>
      <trkpt lat="45.0862" lon="6.08982">
        <ele>1794.2</ele>
        <time>2026-08-09T09:29:12Z</time>
      </trkpt>
      <trkpt lat="45.08624" lon="6.08987">
        <ele>1794.4</ele>
        <time>2026-08-09T09:29:14Z</time>
      </trkpt>
      <trkpt lat="45.08628" lon="6.08994">
        <ele>1794.8</ele>
        <time>2026-08-09T09:29:16Z</time>
      </trkpt>
      <trkpt lat="45.08629" lon="6.08998">
        <ele>1795.2</ele>
        <time>2026-08-09T09:29:17Z</time>
      </trkpt>
      <trkpt lat="45.0863" lon="6.09002">
        <ele>1796.2</ele>
        <time>2026-08-09T09:29:18Z</time>
      </trkpt>
      <trkpt lat="45.08632" lon="6.0901">
        <ele>1796.6</ele>
        <time>2026-08-09T09:29:20Z</time>
      </trkpt>
      <trkpt lat="45.08633" lon="6.09019">
        <ele>1797.2</ele>
        <time>2026-08-09T09:29:22Z</time>
      </trkpt>
      <trkpt lat="45.08635" lon="6.09027">
        <ele>1797.4</ele>
        <time>2026-08-09T09:29:24Z</time>
      </trkpt>
      <trkpt lat="45.08636" lon="6.09031">
        <ele>1797.6</ele>
        <time>2026-08-09T09:29:25Z</time>
      </trkpt>
      <trkpt lat="45.08637" lon="6.09036">
        <ele>1797.8</ele>
        <time>2026-08-09T09:29:26Z</time>
      </trkpt>
      <trkpt lat="45.08639" lon="6.09044">
        <ele>1798</ele>
        <time>2026-08-09T09:29:28Z</time>
      </trkpt>
      <trkpt lat="45.08642" lon="6.09051">
        <ele>1798</ele>
        <time>2026-08-09T09:29:30Z</time>
      </trkpt>
      <trkpt lat="45.08646" lon="6.09059">
        <ele>1798.4</ele>
        <time>2026-08-09T09:29:32Z</time>
      </trkpt>
      <trkpt lat="45.08648" lon="6.09062">
        <ele>1798.6</ele>
        <time>2026-08-09T09:29:33Z</time>
      </trkpt>
      <trkpt lat="45.08649" lon="6.09066">
        <ele>1798.8</ele>
        <time>2026-08-09T09:29:34Z</time>
      </trkpt>
      <trkpt lat="45.08653" lon="6.09072">
        <ele>1799</ele>
        <time>2026-08-09T09:29:36Z</time>
      </trkpt>
      <trkpt lat="45.08657" lon="6.09078">
        <ele>1799.2</ele>
        <time>2026-08-09T09:29:38Z</time>
      </trkpt>
      <trkpt lat="45.08661" lon="6.09085">
        <ele>1799.4</ele>
        <time>2026-08-09T09:29:40Z</time>
      </trkpt>
      <trkpt lat="45.08665" lon="6.09092">
        <ele>1799.8</ele>
        <time>2026-08-09T09:29:42Z</time>
      </trkpt>
      <trkpt lat="45.08667" lon="6.09095">
        <ele>1799.8</ele>
        <time>2026-08-09T09:29:43Z</time>
      </trkpt>
      <trkpt lat="45.08669" lon="6.09098">
        <ele>1800</ele>
        <time>2026-08-09T09:29:44Z</time>
      </trkpt>
      <trkpt lat="45.08672" lon="6.09105">
        <ele>1800.4</ele>
        <time>2026-08-09T09:29:46Z</time>
      </trkpt>
      <trkpt lat="45.08675" lon="6.09113">
        <ele>1800.6</ele>
        <time>2026-08-09T09:29:48Z</time>
      </trkpt>
      <trkpt lat="45.08676" lon="6.09117">
        <ele>1800.8</ele>
        <time>2026-08-09T09:29:49Z</time>
      </trkpt>
      <trkpt lat="45.08678" lon="6.0912">
        <ele>1800.8</ele>
        <time>2026-08-09T09:29:50Z</time>
      </trkpt>
      <trkpt lat="45.08679" lon="6.09124">
        <ele>1801</ele>
        <time>2026-08-09T09:29:51Z</time>
      </trkpt>
      <trkpt lat="45.0868" lon="6.09128">
        <ele>1801</ele>
        <time>2026-08-09T09:29:52Z</time>
      </trkpt>
      <trkpt lat="45.08683" lon="6.09136">
        <ele>1801.4</ele>
        <time>2026-08-09T09:29:54Z</time>
      </trkpt>
      <trkpt lat="45.08686" lon="6.09143">
        <ele>1801.6</ele>
        <time>2026-08-09T09:29:56Z</time>
      </trkpt>
      <trkpt lat="45.08687" lon="6.09147">
        <ele>1801.8</ele>
        <time>2026-08-09T09:29:57Z</time>
      </trkpt>
      <trkpt lat="45.08689" lon="6.09151">
        <ele>1801.8</ele>
        <time>2026-08-09T09:29:58Z</time>
      </trkpt>
      <trkpt lat="45.08691" lon="6.09159">
        <ele>1802.2</ele>
        <time>2026-08-09T09:30:00Z</time>
      </trkpt>
      <trkpt lat="45.08692" lon="6.09163">
        <ele>1802.6</ele>
        <time>2026-08-09T09:30:01Z</time>
      </trkpt>
      <trkpt lat="45.08693" lon="6.09167">
        <ele>1803</ele>
        <time>2026-08-09T09:30:02Z</time>
      </trkpt>
      <trkpt lat="45.08694" lon="6.09176">
        <ele>1803.2</ele>
        <time>2026-08-09T09:30:04Z</time>
      </trkpt>
      <trkpt lat="45.08695" lon="6.09185">
        <ele>1803.6</ele>
        <time>2026-08-09T09:30:06Z</time>
      </trkpt>
      <trkpt lat="45.08695" lon="6.09193">
        <ele>1803.8</ele>
        <time>2026-08-09T09:30:08Z</time>
      </trkpt>
      <trkpt lat="45.08695" lon="6.09197">
        <ele>1803.8</ele>
        <time>2026-08-09T09:30:09Z</time>
      </trkpt>
      <trkpt lat="45.08695" lon="6.09201">
        <ele>1804</ele>
        <time>2026-08-09T09:30:10Z</time>
      </trkpt>
      <trkpt lat="45.08695" lon="6.0921">
        <ele>1804.2</ele>
        <time>2026-08-09T09:30:12Z</time>
      </trkpt>
      <trkpt lat="45.08696" lon="6.09218">
        <ele>1804.6</ele>
        <time>2026-08-09T09:30:14Z</time>
      </trkpt>
      <trkpt lat="45.08698" lon="6.09226">
        <ele>1804.8</ele>
        <time>2026-08-09T09:30:16Z</time>
      </trkpt>
      <trkpt lat="45.08699" lon="6.0923">
        <ele>1804.8</ele>
        <time>2026-08-09T09:30:17Z</time>
      </trkpt>
      <trkpt lat="45.08701" lon="6.09233">
        <ele>1805</ele>
        <time>2026-08-09T09:30:18Z</time>
      </trkpt>
      <trkpt lat="45.08706" lon="6.09238">
        <ele>1805.6</ele>
        <time>2026-08-09T09:30:20Z</time>
      </trkpt>
      <trkpt lat="45.08711" lon="6.09241">
        <ele>1805.8</ele>
        <time>2026-08-09T09:30:22Z</time>
      </trkpt>
      <trkpt lat="45.08717" lon="6.09241">
        <ele>1806.2</ele>
        <time>2026-08-09T09:30:24Z</time>
      </trkpt>
      <trkpt lat="45.08723" lon="6.09238">
        <ele>1806.4</ele>
        <time>2026-08-09T09:30:26Z</time>
      </trkpt>
      <trkpt lat="45.08725" lon="6.09236">
        <ele>1806.6</ele>
        <time>2026-08-09T09:30:27Z</time>
      </trkpt>
      <trkpt lat="45.08728" lon="6.09233">
        <ele>1806.8</ele>
        <time>2026-08-09T09:30:28Z</time>
      </trkpt>
      <trkpt lat="45.08731" lon="6.09224">
        <ele>1807.2</ele>
        <time>2026-08-09T09:30:30Z</time>
      </trkpt>
      <trkpt lat="45.08731" lon="6.0922">
        <ele>1807.2</ele>
        <time>2026-08-09T09:30:31Z</time>
      </trkpt>
      <trkpt lat="45.08731" lon="6.09215">
        <ele>1807.2</ele>
        <time>2026-08-09T09:30:32Z</time>
      </trkpt>
      <trkpt lat="45.08731" lon="6.09207">
        <ele>1807.4</ele>
        <time>2026-08-09T09:30:34Z</time>
      </trkpt>
      <trkpt lat="45.0873" lon="6.09198">
        <ele>1807.6</ele>
        <time>2026-08-09T09:30:36Z</time>
      </trkpt>
      <trkpt lat="45.0873" lon="6.09194">
        <ele>1807.6</ele>
        <time>2026-08-09T09:30:37Z</time>
      </trkpt>
      <trkpt lat="45.0873" lon="6.09189">
        <ele>1807.8</ele>
        <time>2026-08-09T09:30:38Z</time>
      </trkpt>
      <trkpt lat="45.08729" lon="6.09181">
        <ele>1807.8</ele>
        <time>2026-08-09T09:30:40Z</time>
      </trkpt>
      <trkpt lat="45.0873" lon="6.09172">
        <ele>1808</ele>
        <time>2026-08-09T09:30:42Z</time>
      </trkpt>
      <trkpt lat="45.08731" lon="6.09164">
        <ele>1808</ele>
        <time>2026-08-09T09:30:44Z</time>
      </trkpt>
      <trkpt lat="45.08732" lon="6.09155">
        <ele>1808.4</ele>
        <time>2026-08-09T09:30:46Z</time>
      </trkpt>
      <trkpt lat="45.08733" lon="6.09147">
        <ele>1808.8</ele>
        <time>2026-08-09T09:30:48Z</time>
      </trkpt>
      <trkpt lat="45.08735" lon="6.09139">
        <ele>1809.2</ele>
        <time>2026-08-09T09:30:50Z</time>
      </trkpt>
      <trkpt lat="45.08736" lon="6.09131">
        <ele>1809.6</ele>
        <time>2026-08-09T09:30:52Z</time>
      </trkpt>
      <trkpt lat="45.08738" lon="6.09123">
        <ele>1810</ele>
        <time>2026-08-09T09:30:54Z</time>
      </trkpt>
      <trkpt lat="45.08739" lon="6.09119">
        <ele>1810.2</ele>
        <time>2026-08-09T09:30:55Z</time>
      </trkpt>
      <trkpt lat="45.08739" lon="6.09115">
        <ele>1810.2</ele>
        <time>2026-08-09T09:30:56Z</time>
      </trkpt>
      <trkpt lat="45.08741" lon="6.09108">
        <ele>1810.4</ele>
        <time>2026-08-09T09:30:58Z</time>
      </trkpt>
      <trkpt lat="45.08743" lon="6.091">
        <ele>1810.8</ele>
        <time>2026-08-09T09:31:00Z</time>
      </trkpt>
      <trkpt lat="45.08744" lon="6.09096">
        <ele>1810.8</ele>
        <time>2026-08-09T09:31:01Z</time>
      </trkpt>
      <trkpt lat="45.08746" lon="6.09092">
        <ele>1811</ele>
        <time>2026-08-09T09:31:02Z</time>
      </trkpt>
      <trkpt lat="45.08747" lon="6.09088">
        <ele>1811.2</ele>
        <time>2026-08-09T09:31:03Z</time>
      </trkpt>
      <trkpt lat="45.08748" lon="6.09084">
        <ele>1811.6</ele>
        <time>2026-08-09T09:31:04Z</time>
      </trkpt>
      <trkpt lat="45.0875" lon="6.09077">
        <ele>1811.8</ele>
        <time>2026-08-09T09:31:06Z</time>
      </trkpt>
      <trkpt lat="45.08752" lon="6.0907">
        <ele>1812.2</ele>
        <time>2026-08-09T09:31:08Z</time>
      </trkpt>
      <trkpt lat="45.08753" lon="6.09067">
        <ele>1812.4</ele>
        <time>2026-08-09T09:31:09Z</time>
      </trkpt>
      <trkpt lat="45.08754" lon="6.09063">
        <ele>1812.6</ele>
        <time>2026-08-09T09:31:10Z</time>
      </trkpt>
      <trkpt lat="45.08757" lon="6.09056">
        <ele>1813</ele>
        <time>2026-08-09T09:31:12Z</time>
      </trkpt>
      <trkpt lat="45.0876" lon="6.09048">
        <ele>1813.4</ele>
        <time>2026-08-09T09:31:14Z</time>
      </trkpt>
      <trkpt lat="45.08763" lon="6.09041">
        <ele>1813.8</ele>
        <time>2026-08-09T09:31:16Z</time>
      </trkpt>
      <trkpt lat="45.08766" lon="6.09034">
        <ele>1814.2</ele>
        <time>2026-08-09T09:31:18Z</time>
      </trkpt>
      <trkpt lat="45.08769" lon="6.09027">
        <ele>1814.6</ele>
        <time>2026-08-09T09:31:20Z</time>
      </trkpt>
      <trkpt lat="45.08773" lon="6.09021">
        <ele>1815.2</ele>
        <time>2026-08-09T09:31:22Z</time>
      </trkpt>
      <trkpt lat="45.08776" lon="6.09014">
        <ele>1815.4</ele>
        <time>2026-08-09T09:31:24Z</time>
      </trkpt>
      <trkpt lat="45.0878" lon="6.09007">
        <ele>1815.8</ele>
        <time>2026-08-09T09:31:26Z</time>
      </trkpt>
      <trkpt lat="45.08783" lon="6.09">
        <ele>1816.2</ele>
        <time>2026-08-09T09:31:28Z</time>
      </trkpt>
      <trkpt lat="45.08785" lon="6.08997">
        <ele>1816.2</ele>
        <time>2026-08-09T09:31:29Z</time>
      </trkpt>
      <trkpt lat="45.08786" lon="6.08994">
        <ele>1816.6</ele>
        <time>2026-08-09T09:31:30Z</time>
      </trkpt>
      <trkpt lat="45.08788" lon="6.0899">
        <ele>1817</ele>
        <time>2026-08-09T09:31:31Z</time>
      </trkpt>
      <trkpt lat="45.0879" lon="6.08987">
        <ele>1817.2</ele>
        <time>2026-08-09T09:31:32Z</time>
      </trkpt>
      <trkpt lat="45.08793" lon="6.08981">
        <ele>1817.6</ele>
        <time>2026-08-09T09:31:34Z</time>
      </trkpt>
      <trkpt lat="45.08797" lon="6.08975">
        <ele>1818</ele>
        <time>2026-08-09T09:31:36Z</time>
      </trkpt>
      <trkpt lat="45.08801" lon="6.08968">
        <ele>1818.2</ele>
        <time>2026-08-09T09:31:38Z</time>
      </trkpt>
      <trkpt lat="45.08804" lon="6.08962">
        <ele>1818.8</ele>
        <time>2026-08-09T09:31:40Z</time>
      </trkpt>
      <trkpt lat="45.08806" lon="6.08959">
        <ele>1819</ele>
        <time>2026-08-09T09:31:41Z</time>
      </trkpt>
      <trkpt lat="45.08808" lon="6.08956">
        <ele>1819.2</ele>
        <time>2026-08-09T09:31:42Z</time>
      </trkpt>
      <trkpt lat="45.08812" lon="6.08949">
        <ele>1819.4</ele>
        <time>2026-08-09T09:31:44Z</time>
      </trkpt>
      <trkpt lat="45.08816" lon="6.08943">
        <ele>1819.6</ele>
        <time>2026-08-09T09:31:46Z</time>
      </trkpt>
      <trkpt lat="45.08817" lon="6.08939">
        <ele>1820</ele>
        <time>2026-08-09T09:31:47Z</time>
      </trkpt>
      <trkpt lat="45.08819" lon="6.08936">
        <ele>1820.4</ele>
        <time>2026-08-09T09:31:48Z</time>
      </trkpt>
      <trkpt lat="45.08823" lon="6.0893">
        <ele>1821</ele>
        <time>2026-08-09T09:31:50Z</time>
      </trkpt>
      <trkpt lat="45.08826" lon="6.08923">
        <ele>1821.4</ele>
        <time>2026-08-09T09:31:52Z</time>
      </trkpt>
      <trkpt lat="45.08828" lon="6.0892">
        <ele>1821.4</ele>
        <time>2026-08-09T09:31:53Z</time>
      </trkpt>
      <trkpt lat="45.0883" lon="6.08917">
        <ele>1821.4</ele>
        <time>2026-08-09T09:31:54Z</time>
      </trkpt>
      <trkpt lat="45.08834" lon="6.0891">
        <ele>1821.6</ele>
        <time>2026-08-09T09:31:56Z</time>
      </trkpt>
      <trkpt lat="45.08838" lon="6.08904">
        <ele>1822</ele>
        <time>2026-08-09T09:31:58Z</time>
      </trkpt>
      <trkpt lat="45.08841" lon="6.08897">
        <ele>1822.2</ele>
        <time>2026-08-09T09:32:00Z</time>
      </trkpt>
      <trkpt lat="45.08843" lon="6.08894">
        <ele>1822.6</ele>
        <time>2026-08-09T09:32:01Z</time>
      </trkpt>
      <trkpt lat="45.08845" lon="6.0889">
        <ele>1822.8</ele>
        <time>2026-08-09T09:32:02Z</time>
      </trkpt>
      <trkpt lat="45.08849" lon="6.08883">
        <ele>1823.2</ele>
        <time>2026-08-09T09:32:04Z</time>
      </trkpt>
      <trkpt lat="45.08852" lon="6.08876">
        <ele>1823.4</ele>
        <time>2026-08-09T09:32:06Z</time>
      </trkpt>
      <trkpt lat="45.08855" lon="6.08868">
        <ele>1823.6</ele>
        <time>2026-08-09T09:32:08Z</time>
      </trkpt>
      <trkpt lat="45.08859" lon="6.08861">
        <ele>1823.8</ele>
        <time>2026-08-09T09:32:10Z</time>
      </trkpt>
      <trkpt lat="45.08862" lon="6.08854">
        <ele>1824.2</ele>
        <time>2026-08-09T09:32:12Z</time>
      </trkpt>
      <trkpt lat="45.08866" lon="6.08846">
        <ele>1824.6</ele>
        <time>2026-08-09T09:32:14Z</time>
      </trkpt>
      <trkpt lat="45.08869" lon="6.08839">
        <ele>1825</ele>
        <time>2026-08-09T09:32:16Z</time>
      </trkpt>
      <trkpt lat="45.08873" lon="6.08832">
        <ele>1825.2</ele>
        <time>2026-08-09T09:32:18Z</time>
      </trkpt>
      <trkpt lat="45.08876" lon="6.08825">
        <ele>1825.4</ele>
        <time>2026-08-09T09:32:20Z</time>
      </trkpt>
      <trkpt lat="45.0888" lon="6.08818">
        <ele>1825.4</ele>
        <time>2026-08-09T09:32:22Z</time>
      </trkpt>
      <trkpt lat="45.08882" lon="6.08814">
        <ele>1825.4</ele>
        <time>2026-08-09T09:32:23Z</time>
      </trkpt>
      <trkpt lat="45.08884" lon="6.08811">
        <ele>1825.4</ele>
        <time>2026-08-09T09:32:24Z</time>
      </trkpt>
      <trkpt lat="45.08889" lon="6.08803">
        <ele>1825.6</ele>
        <time>2026-08-09T09:32:26Z</time>
      </trkpt>
      <trkpt lat="45.08891" lon="6.08799">
        <ele>1825.6</ele>
        <time>2026-08-09T09:32:27Z</time>
      </trkpt>
      <trkpt lat="45.08893" lon="6.08795">
        <ele>1825.6</ele>
        <time>2026-08-09T09:32:28Z</time>
      </trkpt>
      <trkpt lat="45.08897" lon="6.08788">
        <ele>1825.6</ele>
        <time>2026-08-09T09:32:30Z</time>
      </trkpt>
      <trkpt lat="45.08898" lon="6.08784">
        <ele>1825.6</ele>
        <time>2026-08-09T09:32:31Z</time>
      </trkpt>
      <trkpt lat="45.089" lon="6.08781">
        <ele>1825.6</ele>
        <time>2026-08-09T09:32:32Z</time>
      </trkpt>
      <trkpt lat="45.08903" lon="6.08773">
        <ele>1825.8</ele>
        <time>2026-08-09T09:32:34Z</time>
      </trkpt>
      <trkpt lat="45.08906" lon="6.08765">
        <ele>1825.8</ele>
        <time>2026-08-09T09:32:36Z</time>
      </trkpt>
      <trkpt lat="45.08908" lon="6.08756">
        <ele>1825.8</ele>
        <time>2026-08-09T09:32:38Z</time>
      </trkpt>
      <trkpt lat="45.0891" lon="6.08746">
        <ele>1825.8</ele>
        <time>2026-08-09T09:32:40Z</time>
      </trkpt>
      <trkpt lat="45.08913" lon="6.08735">
        <ele>1825.8</ele>
        <time>2026-08-09T09:32:42Z</time>
      </trkpt>
      <trkpt lat="45.08915" lon="6.08723">
        <ele>1825.6</ele>
        <time>2026-08-09T09:32:44Z</time>
      </trkpt>
      <trkpt lat="45.08915" lon="6.08716">
        <ele>1825.4</ele>
        <time>2026-08-09T09:32:45Z</time>
      </trkpt>
      <trkpt lat="45.08916" lon="6.08709">
        <ele>1825.4</ele>
        <time>2026-08-09T09:32:46Z</time>
      </trkpt>
      <trkpt lat="45.08917" lon="6.08695">
        <ele>1825</ele>
        <time>2026-08-09T09:32:48Z</time>
      </trkpt>
      <trkpt lat="45.08919" lon="6.08679">
        <ele>1824.6</ele>
        <time>2026-08-09T09:32:50Z</time>
      </trkpt>
      <trkpt lat="45.08919" lon="6.0867">
        <ele>1824.4</ele>
        <time>2026-08-09T09:32:51Z</time>
      </trkpt>
      <trkpt lat="45.0892" lon="6.08662">
        <ele>1824.4</ele>
        <time>2026-08-09T09:32:52Z</time>
      </trkpt>
      <trkpt lat="45.08922" lon="6.08644">
        <ele>1823.4</ele>
        <time>2026-08-09T09:32:54Z</time>
      </trkpt>
      <trkpt lat="45.08924" lon="6.08626">
        <ele>1822.4</ele>
        <time>2026-08-09T09:32:56Z</time>
      </trkpt>
      <trkpt lat="45.08925" lon="6.08617">
        <ele>1822</ele>
        <time>2026-08-09T09:32:57Z</time>
      </trkpt>
      <trkpt lat="45.08928" lon="6.08608">
        <ele>1821.8</ele>
        <time>2026-08-09T09:32:58Z</time>
      </trkpt>
      <trkpt lat="45.08933" lon="6.08591">
        <ele>1821.2</ele>
        <time>2026-08-09T09:33:00Z</time>
      </trkpt>
      <trkpt lat="45.08938" lon="6.08575">
        <ele>1820.8</ele>
        <time>2026-08-09T09:33:02Z</time>
      </trkpt>
      <trkpt lat="45.08944" lon="6.0856">
        <ele>1820.2</ele>
        <time>2026-08-09T09:33:04Z</time>
      </trkpt>
      <trkpt lat="45.08947" lon="6.08553">
        <ele>1820</ele>
        <time>2026-08-09T09:33:05Z</time>
      </trkpt>
      <trkpt lat="45.08949" lon="6.08547">
        <ele>1819.2</ele>
        <time>2026-08-09T09:33:06Z</time>
      </trkpt>
      <trkpt lat="45.08952" lon="6.08541">
        <ele>1819</ele>
        <time>2026-08-09T09:33:07Z</time>
      </trkpt>
      <trkpt lat="45.08955" lon="6.08535">
        <ele>1819</ele>
        <time>2026-08-09T09:33:08Z</time>
      </trkpt>
      <trkpt lat="45.08961" lon="6.08523">
        <ele>1818.8</ele>
        <time>2026-08-09T09:33:10Z</time>
      </trkpt>
      <trkpt lat="45.08969" lon="6.08511">
        <ele>1818.6</ele>
        <time>2026-08-09T09:33:12Z</time>
      </trkpt>
      <trkpt lat="45.08976" lon="6.085">
        <ele>1818.6</ele>
        <time>2026-08-09T09:33:14Z</time>
      </trkpt>
      <trkpt lat="45.08984" lon="6.08489">
        <ele>1818.6</ele>
        <time>2026-08-09T09:33:16Z</time>
      </trkpt>
      <trkpt lat="45.08989" lon="6.08475">
        <ele>1818.6</ele>
        <time>2026-08-09T09:33:18Z</time>
      </trkpt>
      <trkpt lat="45.08991" lon="6.08468">
        <ele>1818.4</ele>
        <time>2026-08-09T09:33:19Z</time>
      </trkpt>
      <trkpt lat="45.08991" lon="6.08462">
        <ele>1818.2</ele>
        <time>2026-08-09T09:33:20Z</time>
      </trkpt>
      <trkpt lat="45.08992" lon="6.0845">
        <ele>1818</ele>
        <time>2026-08-09T09:33:22Z</time>
      </trkpt>
      <trkpt lat="45.08992" lon="6.08439">
        <ele>1817.8</ele>
        <time>2026-08-09T09:33:24Z</time>
      </trkpt>
      <trkpt lat="45.08991" lon="6.08427">
        <ele>1817.4</ele>
        <time>2026-08-09T09:33:26Z</time>
      </trkpt>
      <trkpt lat="45.08991" lon="6.08416">
        <ele>1817.4</ele>
        <time>2026-08-09T09:33:28Z</time>
      </trkpt>
      <trkpt lat="45.08989" lon="6.08405">
        <ele>1817.2</ele>
        <time>2026-08-09T09:33:30Z</time>
      </trkpt>
      <trkpt lat="45.08989" lon="6.084">
        <ele>1817.2</ele>
        <time>2026-08-09T09:33:31Z</time>
      </trkpt>
      <trkpt lat="45.08989" lon="6.08396">
        <ele>1817.2</ele>
        <time>2026-08-09T09:33:32Z</time>
      </trkpt>
      <trkpt lat="45.08988" lon="6.08386">
        <ele>1817.2</ele>
        <time>2026-08-09T09:33:34Z</time>
      </trkpt>
      <trkpt lat="45.08987" lon="6.08376">
        <ele>1817.2</ele>
        <time>2026-08-09T09:33:36Z</time>
      </trkpt>
      <trkpt lat="45.08986" lon="6.0837">
        <ele>1817.2</ele>
        <time>2026-08-09T09:33:37Z</time>
      </trkpt>
      <trkpt lat="45.08986" lon="6.08365">
        <ele>1817.2</ele>
        <time>2026-08-09T09:33:38Z</time>
      </trkpt>
      <trkpt lat="45.08984" lon="6.08355">
        <ele>1817</ele>
        <time>2026-08-09T09:33:40Z</time>
      </trkpt>
      <trkpt lat="45.08983" lon="6.08349">
        <ele>1816.8</ele>
        <time>2026-08-09T09:33:41Z</time>
      </trkpt>
      <trkpt lat="45.08982" lon="6.08342">
        <ele>1816.6</ele>
        <time>2026-08-09T09:33:42Z</time>
      </trkpt>
      <trkpt lat="45.08979" lon="6.08327">
        <ele>1815.8</ele>
        <time>2026-08-09T09:33:44Z</time>
      </trkpt>
      <trkpt lat="45.08977" lon="6.08319">
        <ele>1815.6</ele>
        <time>2026-08-09T09:33:45Z</time>
      </trkpt>
      <trkpt lat="45.08975" lon="6.08311">
        <ele>1815.4</ele>
        <time>2026-08-09T09:33:46Z</time>
      </trkpt>
      <trkpt lat="45.08973" lon="6.08304">
        <ele>1815</ele>
        <time>2026-08-09T09:33:47Z</time>
      </trkpt>
      <trkpt lat="45.08972" lon="6.08297">
        <ele>1814.4</ele>
        <time>2026-08-09T09:33:48Z</time>
      </trkpt>
      <trkpt lat="45.0897" lon="6.0829">
        <ele>1813.4</ele>
        <time>2026-08-09T09:33:49Z</time>
      </trkpt>
      <trkpt lat="45.08968" lon="6.08284">
        <ele>1812.6</ele>
        <time>2026-08-09T09:33:50Z</time>
      </trkpt>
      <trkpt lat="45.08964" lon="6.0827">
        <ele>1811.6</ele>
        <time>2026-08-09T09:33:52Z</time>
      </trkpt>
      <trkpt lat="45.08962" lon="6.08261">
        <ele>1811</ele>
        <time>2026-08-09T09:33:53Z</time>
      </trkpt>
      <trkpt lat="45.0896" lon="6.08252">
        <ele>1810.4</ele>
        <time>2026-08-09T09:33:54Z</time>
      </trkpt>
      <trkpt lat="45.08956" lon="6.08235">
        <ele>1810</ele>
        <time>2026-08-09T09:33:56Z</time>
      </trkpt>
      <trkpt lat="45.08954" lon="6.08228">
        <ele>1810</ele>
        <time>2026-08-09T09:33:57Z</time>
      </trkpt>
      <trkpt lat="45.08952" lon="6.08221">
        <ele>1809.8</ele>
        <time>2026-08-09T09:33:58Z</time>
      </trkpt>
      <trkpt lat="45.08949" lon="6.08211">
        <ele>1809.6</ele>
        <time>2026-08-09T09:34:00Z</time>
      </trkpt>
      <trkpt lat="45.08947" lon="6.082">
        <ele>1808.6</ele>
        <time>2026-08-09T09:34:02Z</time>
      </trkpt>
      <trkpt lat="45.08947" lon="6.08188">
        <ele>1807.6</ele>
        <time>2026-08-09T09:34:04Z</time>
      </trkpt>
      <trkpt lat="45.08947" lon="6.08182">
        <ele>1807.2</ele>
        <time>2026-08-09T09:34:05Z</time>
      </trkpt>
      <trkpt lat="45.08948" lon="6.08175">
        <ele>1807</ele>
        <time>2026-08-09T09:34:06Z</time>
      </trkpt>
      <trkpt lat="45.08949" lon="6.08165">
        <ele>1806.8</ele>
        <time>2026-08-09T09:34:08Z</time>
      </trkpt>
      <trkpt lat="45.08954" lon="6.08154">
        <ele>1806</ele>
        <time>2026-08-09T09:34:10Z</time>
      </trkpt>
      <trkpt lat="45.08957" lon="6.08149">
        <ele>1805.6</ele>
        <time>2026-08-09T09:34:11Z</time>
      </trkpt>
      <trkpt lat="45.08961" lon="6.08143">
        <ele>1805.4</ele>
        <time>2026-08-09T09:34:12Z</time>
      </trkpt>
      <trkpt lat="45.08965" lon="6.08139">
        <ele>1805</ele>
        <time>2026-08-09T09:34:13Z</time>
      </trkpt>
      <trkpt lat="45.08971" lon="6.08134">
        <ele>1804.6</ele>
        <time>2026-08-09T09:34:14Z</time>
      </trkpt>
      <trkpt lat="45.08981" lon="6.08126">
        <ele>1804</ele>
        <time>2026-08-09T09:34:16Z</time>
      </trkpt>
      <trkpt lat="45.08986" lon="6.08121">
        <ele>1804</ele>
        <time>2026-08-09T09:34:17Z</time>
      </trkpt>
      <trkpt lat="45.08989" lon="6.08117">
        <ele>1803.8</ele>
        <time>2026-08-09T09:34:18Z</time>
      </trkpt>
      <trkpt lat="45.08995" lon="6.08109">
        <ele>1802.6</ele>
        <time>2026-08-09T09:34:20Z</time>
      </trkpt>
      <trkpt lat="45.08997" lon="6.08105">
        <ele>1801.8</ele>
        <time>2026-08-09T09:34:21Z</time>
      </trkpt>
      <trkpt lat="45.09" lon="6.081">
        <ele>1801.4</ele>
        <time>2026-08-09T09:34:22Z</time>
      </trkpt>
      <trkpt lat="45.09002" lon="6.08095">
        <ele>1801.2</ele>
        <time>2026-08-09T09:34:23Z</time>
      </trkpt>
      <trkpt lat="45.09005" lon="6.08089">
        <ele>1801</ele>
        <time>2026-08-09T09:34:24Z</time>
      </trkpt>
      <trkpt lat="45.09008" lon="6.08082">
        <ele>1800.8</ele>
        <time>2026-08-09T09:34:25Z</time>
      </trkpt>
      <trkpt lat="45.09011" lon="6.08075">
        <ele>1800.8</ele>
        <time>2026-08-09T09:34:26Z</time>
      </trkpt>
      <trkpt lat="45.09014" lon="6.08067">
        <ele>1800.8</ele>
        <time>2026-08-09T09:34:27Z</time>
      </trkpt>
      <trkpt lat="45.09016" lon="6.0806">
        <ele>1800.6</ele>
        <time>2026-08-09T09:34:28Z</time>
      </trkpt>
      <trkpt lat="45.09018" lon="6.08048">
        <ele>1800</ele>
        <time>2026-08-09T09:34:30Z</time>
      </trkpt>
      <trkpt lat="45.09018" lon="6.08044">
        <ele>1799.8</ele>
        <time>2026-08-09T09:34:31Z</time>
      </trkpt>
      <trkpt lat="45.09019" lon="6.08039">
        <ele>1799.4</ele>
        <time>2026-08-09T09:34:32Z</time>
      </trkpt>
      <trkpt lat="45.0902" lon="6.08034">
        <ele>1798.6</ele>
        <time>2026-08-09T09:34:33Z</time>
      </trkpt>
      <trkpt lat="45.09022" lon="6.08024">
        <ele>1797.6</ele>
        <time>2026-08-09T09:34:34Z</time>
      </trkpt>
      <trkpt lat="45.09025" lon="6.08015">
        <ele>1796.2</ele>
        <time>2026-08-09T09:34:36Z</time>
      </trkpt>
      <trkpt lat="45.09062" lon="6.0792">
        <ele>1790.2</ele>
        <time>2026-08-09T09:34:50Z</time>
      </trkpt>
      <trkpt lat="45.0906" lon="6.07916">
        <ele>1789.8</ele>
        <time>2026-08-09T09:34:51Z</time>
      </trkpt>
      <trkpt lat="45.09055" lon="6.0791">
        <ele>1789</ele>
        <time>2026-08-09T09:34:52Z</time>
      </trkpt>
      <trkpt lat="45.09053" lon="6.07906">
        <ele>1788.2</ele>
        <time>2026-08-09T09:34:53Z</time>
      </trkpt>
      <trkpt lat="45.09049" lon="6.07901">
        <ele>1787.8</ele>
        <time>2026-08-09T09:34:54Z</time>
      </trkpt>
      <trkpt lat="45.09043" lon="6.07901">
        <ele>1787.4</ele>
        <time>2026-08-09T09:34:56Z</time>
      </trkpt>
      <trkpt lat="45.09036" lon="6.079">
        <ele>1787</ele>
        <time>2026-08-09T09:34:58Z</time>
      </trkpt>
      <trkpt lat="45.09033" lon="6.079">
        <ele>1786.8</ele>
        <time>2026-08-09T09:34:59Z</time>
      </trkpt>
      <trkpt lat="45.0903" lon="6.079">
        <ele>1786.8</ele>
        <time>2026-08-09T09:35:00Z</time>
      </trkpt>
      <trkpt lat="45.09025" lon="6.07902">
        <ele>1786.6</ele>
        <time>2026-08-09T09:35:02Z</time>
      </trkpt>
      <trkpt lat="45.09023" lon="6.07903">
        <ele>1786.6</ele>
        <time>2026-08-09T09:35:03Z</time>
      </trkpt>
      <trkpt lat="45.0902" lon="6.07905">
        <ele>1786.6</ele>
        <time>2026-08-09T09:35:04Z</time>
      </trkpt>
      <trkpt lat="45.09014" lon="6.07908">
        <ele>1786.6</ele>
        <time>2026-08-09T09:35:06Z</time>
      </trkpt>
      <trkpt lat="45.09007" lon="6.07911">
        <ele>1786.6</ele>
        <time>2026-08-09T09:35:08Z</time>
      </trkpt>
      <trkpt lat="45.09003" lon="6.07914">
        <ele>1786.6</ele>
        <time>2026-08-09T09:35:09Z</time>
      </trkpt>
      <trkpt lat="45.08999" lon="6.07916">
        <ele>1786.6</ele>
        <time>2026-08-09T09:35:10Z</time>
      </trkpt>
      <trkpt lat="45.0899" lon="6.07922">
        <ele>1786.4</ele>
        <time>2026-08-09T09:35:12Z</time>
      </trkpt>
      <trkpt lat="45.08985" lon="6.07926">
        <ele>1786</ele>
        <time>2026-08-09T09:35:13Z</time>
      </trkpt>
      <trkpt lat="45.0898" lon="6.07931">
        <ele>1785.8</ele>
        <time>2026-08-09T09:35:14Z</time>
      </trkpt>
      <trkpt lat="45.0897" lon="6.07945">
        <ele>1785.2</ele>
        <time>2026-08-09T09:35:16Z</time>
      </trkpt>
      <trkpt lat="45.08964" lon="6.07951">
        <ele>1784.8</ele>
        <time>2026-08-09T09:35:17Z</time>
      </trkpt>
      <trkpt lat="45.08957" lon="6.07957">
        <ele>1784.4</ele>
        <time>2026-08-09T09:35:18Z</time>
      </trkpt>
      <trkpt lat="45.08943" lon="6.07971">
        <ele>1783.6</ele>
        <time>2026-08-09T09:35:20Z</time>
      </trkpt>
      <trkpt lat="45.08929" lon="6.07983">
        <ele>1782.6</ele>
        <time>2026-08-09T09:35:22Z</time>
      </trkpt>
      <trkpt lat="45.08922" lon="6.07989">
        <ele>1782.2</ele>
        <time>2026-08-09T09:35:23Z</time>
      </trkpt>
      <trkpt lat="45.08917" lon="6.07995">
        <ele>1781.4</ele>
        <time>2026-08-09T09:35:24Z</time>
      </trkpt>
      <trkpt lat="45.08911" lon="6.08">
        <ele>1780.6</ele>
        <time>2026-08-09T09:35:25Z</time>
      </trkpt>
      <trkpt lat="45.08905" lon="6.08003">
        <ele>1779.8</ele>
        <time>2026-08-09T09:35:26Z</time>
      </trkpt>
      <trkpt lat="45.08898" lon="6.08003">
        <ele>1777.8</ele>
        <time>2026-08-09T09:35:27Z</time>
      </trkpt>
      <trkpt lat="45.08891" lon="6.08">
        <ele>1777</ele>
        <time>2026-08-09T09:35:28Z</time>
      </trkpt>
      <trkpt lat="45.08885" lon="6.07994">
        <ele>1776</ele>
        <time>2026-08-09T09:35:29Z</time>
      </trkpt>
      <trkpt lat="45.08881" lon="6.07984">
        <ele>1775.4</ele>
        <time>2026-08-09T09:35:30Z</time>
      </trkpt>
      <trkpt lat="45.0888" lon="6.07974">
        <ele>1775</ele>
        <time>2026-08-09T09:35:31Z</time>
      </trkpt>
      <trkpt lat="45.08879" lon="6.07964">
        <ele>1774.6</ele>
        <time>2026-08-09T09:35:32Z</time>
      </trkpt>
      <trkpt lat="45.0888" lon="6.07947">
        <ele>1774</ele>
        <time>2026-08-09T09:35:34Z</time>
      </trkpt>
      <trkpt lat="45.08883" lon="6.07931">
        <ele>1773.2</ele>
        <time>2026-08-09T09:35:36Z</time>
      </trkpt>
      <trkpt lat="45.08885" lon="6.07923">
        <ele>1772.4</ele>
        <time>2026-08-09T09:35:37Z</time>
      </trkpt>
      <trkpt lat="45.08888" lon="6.07915">
        <ele>1771.8</ele>
        <time>2026-08-09T09:35:38Z</time>
      </trkpt>
      <trkpt lat="45.08891" lon="6.07907">
        <ele>1771.4</ele>
        <time>2026-08-09T09:35:39Z</time>
      </trkpt>
      <trkpt lat="45.08893" lon="6.079">
        <ele>1771.2</ele>
        <time>2026-08-09T09:35:40Z</time>
      </trkpt>
      <trkpt lat="45.08896" lon="6.0789">
        <ele>1771</ele>
        <time>2026-08-09T09:35:42Z</time>
      </trkpt>
      <trkpt lat="45.08899" lon="6.07885">
        <ele>1771</ele>
        <time>2026-08-09T09:35:43Z</time>
      </trkpt>
      <trkpt lat="45.08901" lon="6.07881">
        <ele>1771</ele>
        <time>2026-08-09T09:35:44Z</time>
      </trkpt>
      <trkpt lat="45.08908" lon="6.07871">
        <ele>1771</ele>
        <time>2026-08-09T09:35:46Z</time>
      </trkpt>
      <trkpt lat="45.08912" lon="6.07865">
        <ele>1771</ele>
        <time>2026-08-09T09:35:47Z</time>
      </trkpt>
      <trkpt lat="45.08916" lon="6.07859">
        <ele>1771</ele>
        <time>2026-08-09T09:35:48Z</time>
      </trkpt>
      <trkpt lat="45.08925" lon="6.07848">
        <ele>1770.8</ele>
        <time>2026-08-09T09:35:50Z</time>
      </trkpt>
      <trkpt lat="45.08933" lon="6.07835">
        <ele>1770.6</ele>
        <time>2026-08-09T09:35:52Z</time>
      </trkpt>
      <trkpt lat="45.08936" lon="6.07829">
        <ele>1770.4</ele>
        <time>2026-08-09T09:35:53Z</time>
      </trkpt>
      <trkpt lat="45.08938" lon="6.07823">
        <ele>1770.4</ele>
        <time>2026-08-09T09:35:54Z</time>
      </trkpt>
      <trkpt lat="45.08941" lon="6.0781">
        <ele>1769.2</ele>
        <time>2026-08-09T09:35:56Z</time>
      </trkpt>
      <trkpt lat="45.08941" lon="6.07795">
        <ele>1768</ele>
        <time>2026-08-09T09:35:58Z</time>
      </trkpt>
      <trkpt lat="45.08939" lon="6.07782">
        <ele>1767.2</ele>
        <time>2026-08-09T09:36:00Z</time>
      </trkpt>
      <trkpt lat="45.08936" lon="6.07773">
        <ele>1766.8</ele>
        <time>2026-08-09T09:36:02Z</time>
      </trkpt>
      <trkpt lat="45.08929" lon="6.07766">
        <ele>1766</ele>
        <time>2026-08-09T09:36:04Z</time>
      </trkpt>
      <trkpt lat="45.08925" lon="6.07764">
        <ele>1765.6</ele>
        <time>2026-08-09T09:36:05Z</time>
      </trkpt>
      <trkpt lat="45.08921" lon="6.07764">
        <ele>1765.4</ele>
        <time>2026-08-09T09:36:06Z</time>
      </trkpt>
      <trkpt lat="45.08911" lon="6.07767">
        <ele>1765.2</ele>
        <time>2026-08-09T09:36:08Z</time>
      </trkpt>
      <trkpt lat="45.08899" lon="6.07774">
        <ele>1764.8</ele>
        <time>2026-08-09T09:36:10Z</time>
      </trkpt>
      <trkpt lat="45.08888" lon="6.07781">
        <ele>1764.6</ele>
        <time>2026-08-09T09:36:12Z</time>
      </trkpt>
      <trkpt lat="45.08882" lon="6.07784">
        <ele>1764.2</ele>
        <time>2026-08-09T09:36:13Z</time>
      </trkpt>
      <trkpt lat="45.08876" lon="6.07784">
        <ele>1764</ele>
        <time>2026-08-09T09:36:14Z</time>
      </trkpt>
      <trkpt lat="45.0887" lon="6.0778">
        <ele>1763.4</ele>
        <time>2026-08-09T09:36:15Z</time>
      </trkpt>
      <trkpt lat="45.08865" lon="6.07774">
        <ele>1762.8</ele>
        <time>2026-08-09T09:36:16Z</time>
      </trkpt>
      <trkpt lat="45.08861" lon="6.07768">
        <ele>1762.4</ele>
        <time>2026-08-09T09:36:17Z</time>
      </trkpt>
      <trkpt lat="45.08859" lon="6.0776">
        <ele>1761.8</ele>
        <time>2026-08-09T09:36:18Z</time>
      </trkpt>
      <trkpt lat="45.08857" lon="6.07741">
        <ele>1761</ele>
        <time>2026-08-09T09:36:20Z</time>
      </trkpt>
      <trkpt lat="45.08859" lon="6.07732">
        <ele>1760.4</ele>
        <time>2026-08-09T09:36:21Z</time>
      </trkpt>
      <trkpt lat="45.08861" lon="6.07724">
        <ele>1760.4</ele>
        <time>2026-08-09T09:36:22Z</time>
      </trkpt>
      <trkpt lat="45.08869" lon="6.0771">
        <ele>1760</ele>
        <time>2026-08-09T09:36:24Z</time>
      </trkpt>
      <trkpt lat="45.08873" lon="6.07705">
        <ele>1760</ele>
        <time>2026-08-09T09:36:25Z</time>
      </trkpt>
      <trkpt lat="45.08879" lon="6.07701">
        <ele>1760</ele>
        <time>2026-08-09T09:36:26Z</time>
      </trkpt>
      <trkpt lat="45.0889" lon="6.07697">
        <ele>1760</ele>
        <time>2026-08-09T09:36:28Z</time>
      </trkpt>
      <trkpt lat="45.08895" lon="6.07695">
        <ele>1760.2</ele>
        <time>2026-08-09T09:36:29Z</time>
      </trkpt>
      <trkpt lat="45.08901" lon="6.07693">
        <ele>1760.2</ele>
        <time>2026-08-09T09:36:30Z</time>
      </trkpt>
      <trkpt lat="45.08906" lon="6.07691">
        <ele>1760.2</ele>
        <time>2026-08-09T09:36:31Z</time>
      </trkpt>
      <trkpt lat="45.0891" lon="6.07688">
        <ele>1760.2</ele>
        <time>2026-08-09T09:36:32Z</time>
      </trkpt>
      <trkpt lat="45.08919" lon="6.07683">
        <ele>1760.4</ele>
        <time>2026-08-09T09:36:34Z</time>
      </trkpt>
      <trkpt lat="45.08923" lon="6.0768">
        <ele>1760.4</ele>
        <time>2026-08-09T09:36:35Z</time>
      </trkpt>
      <trkpt lat="45.08926" lon="6.07676">
        <ele>1760.4</ele>
        <time>2026-08-09T09:36:36Z</time>
      </trkpt>
      <trkpt lat="45.08933" lon="6.07669">
        <ele>1760.6</ele>
        <time>2026-08-09T09:36:38Z</time>
      </trkpt>
      <trkpt lat="45.08936" lon="6.07665">
        <ele>1760.6</ele>
        <time>2026-08-09T09:36:39Z</time>
      </trkpt>
      <trkpt lat="45.08939" lon="6.07661">
        <ele>1760.6</ele>
        <time>2026-08-09T09:36:40Z</time>
      </trkpt>
      <trkpt lat="45.08944" lon="6.07652">
        <ele>1760.4</ele>
        <time>2026-08-09T09:36:42Z</time>
      </trkpt>
      <trkpt lat="45.0895" lon="6.07643">
        <ele>1760.2</ele>
        <time>2026-08-09T09:36:44Z</time>
      </trkpt>
      <trkpt lat="45.08954" lon="6.07634">
        <ele>1760.2</ele>
        <time>2026-08-09T09:36:46Z</time>
      </trkpt>
      <trkpt lat="45.08959" lon="6.07625">
        <ele>1760.2</ele>
        <time>2026-08-09T09:36:48Z</time>
      </trkpt>
      <trkpt lat="45.08964" lon="6.07616">
        <ele>1760.2</ele>
        <time>2026-08-09T09:36:50Z</time>
      </trkpt>
      <trkpt lat="45.08969" lon="6.07606">
        <ele>1760.2</ele>
        <time>2026-08-09T09:36:52Z</time>
      </trkpt>
      <trkpt lat="45.08971" lon="6.076">
        <ele>1760</ele>
        <time>2026-08-09T09:36:53Z</time>
      </trkpt>
      <trkpt lat="45.08972" lon="6.07594">
        <ele>1759.8</ele>
        <time>2026-08-09T09:36:54Z</time>
      </trkpt>
      <trkpt lat="45.08976" lon="6.07582">
        <ele>1759.8</ele>
        <time>2026-08-09T09:36:56Z</time>
      </trkpt>
      <trkpt lat="45.08979" lon="6.07569">
        <ele>1759.6</ele>
        <time>2026-08-09T09:36:58Z</time>
      </trkpt>
      <trkpt lat="45.08981" lon="6.07557">
        <ele>1759.6</ele>
        <time>2026-08-09T09:37:00Z</time>
      </trkpt>
      <trkpt lat="45.08983" lon="6.07545">
        <ele>1759.4</ele>
        <time>2026-08-09T09:37:02Z</time>
      </trkpt>
      <trkpt lat="45.08985" lon="6.07535">
        <ele>1759.4</ele>
        <time>2026-08-09T09:37:04Z</time>
      </trkpt>
      <trkpt lat="45.08988" lon="6.07526">
        <ele>1759.4</ele>
        <time>2026-08-09T09:37:06Z</time>
      </trkpt>
      <trkpt lat="45.08991" lon="6.07516">
        <ele>1759.4</ele>
        <time>2026-08-09T09:37:08Z</time>
      </trkpt>
      <trkpt lat="45.08995" lon="6.07506">
        <ele>1759.4</ele>
        <time>2026-08-09T09:37:10Z</time>
      </trkpt>
      <trkpt lat="45.08999" lon="6.07495">
        <ele>1759.4</ele>
        <time>2026-08-09T09:37:12Z</time>
      </trkpt>
      <trkpt lat="45.09003" lon="6.07484">
        <ele>1759.6</ele>
        <time>2026-08-09T09:37:14Z</time>
      </trkpt>
      <trkpt lat="45.09007" lon="6.07473">
        <ele>1759.8</ele>
        <time>2026-08-09T09:37:16Z</time>
      </trkpt>
      <trkpt lat="45.09012" lon="6.07464">
        <ele>1760</ele>
        <time>2026-08-09T09:37:18Z</time>
      </trkpt>
      <trkpt lat="45.09016" lon="6.07457">
        <ele>1760</ele>
        <time>2026-08-09T09:37:20Z</time>
      </trkpt>
      <trkpt lat="45.09021" lon="6.0745">
        <ele>1760.2</ele>
        <time>2026-08-09T09:37:22Z</time>
      </trkpt>
      <trkpt lat="45.09023" lon="6.07448">
        <ele>1760.4</ele>
        <time>2026-08-09T09:37:23Z</time>
      </trkpt>
      <trkpt lat="45.09026" lon="6.07445">
        <ele>1760.6</ele>
        <time>2026-08-09T09:37:24Z</time>
      </trkpt>
      <trkpt lat="45.09029" lon="6.07442">
        <ele>1760.8</ele>
        <time>2026-08-09T09:37:25Z</time>
      </trkpt>
      <trkpt lat="45.09032" lon="6.0744">
        <ele>1761</ele>
        <time>2026-08-09T09:37:26Z</time>
      </trkpt>
      <trkpt lat="45.09036" lon="6.07433">
        <ele>1761.4</ele>
        <time>2026-08-09T09:37:28Z</time>
      </trkpt>
      <trkpt lat="45.09038" lon="6.07428">
        <ele>1761.4</ele>
        <time>2026-08-09T09:37:29Z</time>
      </trkpt>
      <trkpt lat="45.0904" lon="6.07424">
        <ele>1761.4</ele>
        <time>2026-08-09T09:37:30Z</time>
      </trkpt>
      <trkpt lat="45.09043" lon="6.07414">
        <ele>1761.6</ele>
        <time>2026-08-09T09:37:32Z</time>
      </trkpt>
      <trkpt lat="45.09045" lon="6.07403">
        <ele>1761.6</ele>
        <time>2026-08-09T09:37:34Z</time>
      </trkpt>
      <trkpt lat="45.09044" lon="6.07398">
        <ele>1761.6</ele>
        <time>2026-08-09T09:37:35Z</time>
      </trkpt>
      <trkpt lat="45.09044" lon="6.07393">
        <ele>1761.6</ele>
        <time>2026-08-09T09:37:36Z</time>
      </trkpt>
      <trkpt lat="45.09041" lon="6.07384">
        <ele>1761.6</ele>
        <time>2026-08-09T09:37:38Z</time>
      </trkpt>
      <trkpt lat="45.09039" lon="6.07378">
        <ele>1761.8</ele>
        <time>2026-08-09T09:37:40Z</time>
      </trkpt>
      <trkpt lat="45.09037" lon="6.07375">
        <ele>1761.8</ele>
        <time>2026-08-09T09:37:41Z</time>
      </trkpt>
      <trkpt lat="45.09036" lon="6.07373">
        <ele>1761.8</ele>
        <time>2026-08-09T09:37:42Z</time>
      </trkpt>
      <trkpt lat="45.09033" lon="6.07369">
        <ele>1762.2</ele>
        <time>2026-08-09T09:37:44Z</time>
      </trkpt>
      <trkpt lat="45.09032" lon="6.07364">
        <ele>1762.8</ele>
        <time>2026-08-09T09:37:46Z</time>
      </trkpt>
      <trkpt lat="45.0903" lon="6.0736">
        <ele>1763.2</ele>
        <time>2026-08-09T09:37:48Z</time>
      </trkpt>
      <trkpt lat="45.0903" lon="6.07359">
        <ele>1764</ele>
        <time>2026-08-09T09:37:50Z</time>
      </trkpt>
      <trkpt lat="45.0903" lon="6.07359">
        <ele>1764.2</ele>
        <time>2026-08-09T09:37:52Z</time>
      </trkpt>
      <trkpt lat="45.09029" lon="6.07358">
        <ele>1764.4</ele>
        <time>2026-08-09T09:37:54Z</time>
      </trkpt>
      <trkpt lat="45.09029" lon="6.07358">
        <ele>1764.6</ele>
        <time>2026-08-09T09:37:56Z</time>
      </trkpt>
      <trkpt lat="45.09029" lon="6.07359">
        <ele>1764.8</ele>
        <time>2026-08-09T09:37:58Z</time>
      </trkpt>
      <trkpt lat="45.09029" lon="6.07359">
        <ele>1765</ele>
        <time>2026-08-09T09:37:59Z</time>
      </trkpt>
      <trkpt lat="45.09029" lon="6.07359">
        <ele>1765</ele>
        <time>2026-08-09T09:38:00Z</time>
      </trkpt>
      <trkpt lat="45.09029" lon="6.07359">
        <ele>1765.2</ele>
        <time>2026-08-09T09:38:02Z</time>
      </trkpt>
      <trkpt lat="45.09029" lon="6.07359">
        <ele>1765.2</ele>
        <time>2026-08-09T09:38:04Z</time>
      </trkpt>
      <trkpt lat="45.09029" lon="6.07359">
        <ele>1765.2</ele>
        <time>2026-08-09T09:38:06Z</time>
      </trkpt>
      <trkpt lat="45.09029" lon="6.07359">
        <ele>1765.2</ele>
        <time>2026-08-09T09:38:08Z</time>
      </trkpt>
      <trkpt lat="45.09029" lon="6.07359">
        <ele>1765.2</ele>
        <time>2026-08-09T09:38:10Z</time>
      </trkpt>
      <trkpt lat="45.09029" lon="6.07359">
        <ele>1765.2</ele>
        <time>2026-08-09T09:38:12Z</time>
      </trkpt>
      <trkpt lat="45.09029" lon="6.07359">
        <ele>1765</ele>
        <time>2026-08-09T09:38:14Z</time>
      </trkpt>
      <trkpt lat="45.09029" lon="6.07359">
        <ele>1765</ele>
        <time>2026-08-09T09:38:16Z</time>
      </trkpt>
      <trkpt lat="45.09029" lon="6.07359">
        <ele>1765</ele>
        <time>2026-08-09T09:38:18Z</time>
      </trkpt>
      <trkpt lat="45.09029" lon="6.07359">
        <ele>1765</ele>
        <time>2026-08-09T09:38:20Z</time>
      </trkpt>
      <trkpt lat="45.09029" lon="6.07359">
        <ele>1765</ele>
        <time>2026-08-09T09:38:22Z</time>
      </trkpt>
      <trkpt lat="45.09029" lon="6.07359">
        <ele>1765</ele>
        <time>2026-08-09T09:38:24Z</time>
      </trkpt>
      <trkpt lat="45.09029" lon="6.07359">
        <ele>1765</ele>
        <time>2026-08-09T09:38:26Z</time>
      </trkpt>
      <trkpt lat="45.09029" lon="6.07359">
        <ele>1765</ele>
        <time>2026-08-09T09:38:28Z</time>
      </trkpt>
      <trkpt lat="45.09029" lon="6.07359">
        <ele>1765</ele>
        <time>2026-08-09T09:38:30Z</time>
      </trkpt>
      <trkpt lat="45.09029" lon="6.07359">
        <ele>1765</ele>
        <time>2026-08-09T09:38:32Z</time>
      </trkpt>
      <trkpt lat="45.09029" lon="6.07359">
        <ele>1765</ele>
        <time>2026-08-09T09:38:34Z</time>
      </trkpt>
      <trkpt lat="45.09029" lon="6.07359">
        <ele>1765.2</ele>
        <time>2026-08-09T09:38:36Z</time>
      </trkpt>
      <trkpt lat="45.09029" lon="6.07359">
        <ele>1765.2</ele>
        <time>2026-08-09T09:38:38Z</time>
      </trkpt>
      <trkpt lat="45.09029" lon="6.07359">
        <ele>1765.2</ele>
        <time>2026-08-09T09:38:40Z</time>
      </trkpt>
      <trkpt lat="45.0903" lon="6.07359">
        <ele>1765.2</ele>
        <time>2026-08-09T09:38:42Z</time>
      </trkpt>
      <trkpt lat="45.0903" lon="6.07359">
        <ele>1765.2</ele>
        <time>2026-08-09T09:38:44Z</time>
      </trkpt>
      <trkpt lat="45.0903" lon="6.07359">
        <ele>1765.2</ele>
        <time>2026-08-09T09:38:46Z</time>
      </trkpt>
      <trkpt lat="45.0903" lon="6.07359">
        <ele>1765.2</ele>
        <time>2026-08-09T09:38:48Z</time>
      </trkpt>
      <trkpt lat="45.0903" lon="6.07359">
        <ele>1765.2</ele>
        <time>2026-08-09T09:38:50Z</time>
      </trkpt>
      <trkpt lat="45.0903" lon="6.07359">
        <ele>1765.4</ele>
        <time>2026-08-09T09:38:52Z</time>
      </trkpt>
      <trkpt lat="45.0903" lon="6.07359">
        <ele>1765.4</ele>
        <time>2026-08-09T09:38:54Z</time>
      </trkpt>
      <trkpt lat="45.0903" lon="6.07359">
        <ele>1765.4</ele>
        <time>2026-08-09T09:38:56Z</time>
      </trkpt>
      <trkpt lat="45.0903" lon="6.07359">
        <ele>1765.4</ele>
        <time>2026-08-09T09:38:58Z</time>
      </trkpt>
      <trkpt lat="45.0903" lon="6.07359">
        <ele>1765.4</ele>
        <time>2026-08-09T09:39:00Z</time>
      </trkpt>
      <trkpt lat="45.0903" lon="6.07359">
        <ele>1765.4</ele>
        <time>2026-08-09T09:39:02Z</time>
      </trkpt>
      <trkpt lat="45.0903" lon="6.07359">
        <ele>1765.4</ele>
        <time>2026-08-09T09:39:04Z</time>
      </trkpt>
      <trkpt lat="45.0903" lon="6.07359">
        <ele>1765.4</ele>
        <time>2026-08-09T09:39:06Z</time>
      </trkpt>
      <trkpt lat="45.0903" lon="6.07358">
        <ele>1765.4</ele>
        <time>2026-08-09T09:39:08Z</time>
      </trkpt>
      <trkpt lat="45.0903" lon="6.07358">
        <ele>1765.4</ele>
        <time>2026-08-09T09:39:10Z</time>
      </trkpt>
      <trkpt lat="45.0903" lon="6.07359">
        <ele>1765.4</ele>
        <time>2026-08-09T09:39:12Z</time>
      </trkpt>
      <trkpt lat="45.0903" lon="6.07359">
        <ele>1765.4</ele>
        <time>2026-08-09T09:39:14Z</time>
      </trkpt>
      <trkpt lat="45.0903" lon="6.07359">
        <ele>1765.4</ele>
        <time>2026-08-09T09:39:16Z</time>
      </trkpt>
      <trkpt lat="45.0903" lon="6.07359">
        <ele>1765.4</ele>
        <time>2026-08-09T09:39:18Z</time>
      </trkpt>
      <trkpt lat="45.0903" lon="6.07359">
        <ele>1765.4</ele>
        <time>2026-08-09T09:39:20Z</time>
      </trkpt>
      <trkpt lat="45.0903" lon="6.07359">
        <ele>1765.4</ele>
        <time>2026-08-09T09:39:22Z</time>
      </trkpt>
      <trkpt lat="45.0903" lon="6.07359">
        <ele>1765.4</ele>
        <time>2026-08-09T09:39:23Z</time>
      </trkpt>
      <trkpt lat="45.0903" lon="6.07359">
        <ele>1765.4</ele>
        <time>2026-08-09T09:39:24Z</time>
      </trkpt>
      <trkpt lat="45.0903" lon="6.07359">
        <ele>1765.2</ele>
        <time>2026-08-09T09:39:26Z</time>
      </trkpt>
      <trkpt lat="45.0903" lon="6.07359">
        <ele>1765.2</ele>
        <time>2026-08-09T09:39:28Z</time>
      </trkpt>
      <trkpt lat="45.09028" lon="6.07359">
        <ele>1765.2</ele>
        <time>2026-08-09T09:39:30Z</time>
      </trkpt>
      <trkpt lat="45.09025" lon="6.0736">
        <ele>1765.2</ele>
        <time>2026-08-09T09:39:32Z</time>
      </trkpt>
      <trkpt lat="45.09022" lon="6.0736">
        <ele>1765.2</ele>
        <time>2026-08-09T09:39:33Z</time>
      </trkpt>
      <trkpt lat="45.0902" lon="6.07361">
        <ele>1765.2</ele>
        <time>2026-08-09T09:39:34Z</time>
      </trkpt>
      <trkpt lat="45.09014" lon="6.07363">
        <ele>1765.2</ele>
        <time>2026-08-09T09:39:36Z</time>
      </trkpt>
      <trkpt lat="45.09007" lon="6.07368">
        <ele>1765.2</ele>
        <time>2026-08-09T09:39:38Z</time>
      </trkpt>
      <trkpt lat="45.08998" lon="6.07373">
        <ele>1765</ele>
        <time>2026-08-09T09:39:40Z</time>
      </trkpt>
      <trkpt lat="45.08989" lon="6.07379">
        <ele>1765</ele>
        <time>2026-08-09T09:39:42Z</time>
      </trkpt>
      <trkpt lat="45.0898" lon="6.07385">
        <ele>1764.2</ele>
        <time>2026-08-09T09:39:44Z</time>
      </trkpt>
      <trkpt lat="45.08977" lon="6.07387">
        <ele>1763.8</ele>
        <time>2026-08-09T09:39:45Z</time>
      </trkpt>
      <trkpt lat="45.08974" lon="6.07389">
        <ele>1763.4</ele>
        <time>2026-08-09T09:39:46Z</time>
      </trkpt>
      <trkpt lat="45.0897" lon="6.07393">
        <ele>1762.4</ele>
        <time>2026-08-09T09:39:48Z</time>
      </trkpt>
      <trkpt lat="45.08966" lon="6.07396">
        <ele>1761.8</ele>
        <time>2026-08-09T09:39:50Z</time>
      </trkpt>
      <trkpt lat="45.08961" lon="6.07402">
        <ele>1761.6</ele>
        <time>2026-08-09T09:39:52Z</time>
      </trkpt>
      <trkpt lat="45.08959" lon="6.07407">
        <ele>1761.4</ele>
        <time>2026-08-09T09:39:53Z</time>
      </trkpt>
      <trkpt lat="45.08956" lon="6.07411">
        <ele>1761.4</ele>
        <time>2026-08-09T09:39:54Z</time>
      </trkpt>
      <trkpt lat="45.08951" lon="6.07422">
        <ele>1761.2</ele>
        <time>2026-08-09T09:39:56Z</time>
      </trkpt>
      <trkpt lat="45.08946" lon="6.07435">
        <ele>1761</ele>
        <time>2026-08-09T09:39:58Z</time>
      </trkpt>
      <trkpt lat="45.08942" lon="6.07447">
        <ele>1760.6</ele>
        <time>2026-08-09T09:40:00Z</time>
      </trkpt>
      <trkpt lat="45.0894" lon="6.07452">
        <ele>1760.2</ele>
        <time>2026-08-09T09:40:01Z</time>
      </trkpt>
      <trkpt lat="45.08938" lon="6.07458">
        <ele>1759.8</ele>
        <time>2026-08-09T09:40:02Z</time>
      </trkpt>
      <trkpt lat="45.08936" lon="6.07463">
        <ele>1759.4</ele>
        <time>2026-08-09T09:40:03Z</time>
      </trkpt>
      <trkpt lat="45.08933" lon="6.07469">
        <ele>1759.2</ele>
        <time>2026-08-09T09:40:04Z</time>
      </trkpt>
      <trkpt lat="45.0893" lon="6.07474">
        <ele>1758.8</ele>
        <time>2026-08-09T09:40:05Z</time>
      </trkpt>
      <trkpt lat="45.08926" lon="6.0748">
        <ele>1758.6</ele>
        <time>2026-08-09T09:40:06Z</time>
      </trkpt>
      <trkpt lat="45.08922" lon="6.07486">
        <ele>1758.2</ele>
        <time>2026-08-09T09:40:07Z</time>
      </trkpt>
      <trkpt lat="45.08917" lon="6.07489">
        <ele>1757.8</ele>
        <time>2026-08-09T09:40:08Z</time>
      </trkpt>
      <trkpt lat="45.08912" lon="6.07491">
        <ele>1757.8</ele>
        <time>2026-08-09T09:40:09Z</time>
      </trkpt>
      <trkpt lat="45.08906" lon="6.07492">
        <ele>1757.6</ele>
        <time>2026-08-09T09:40:10Z</time>
      </trkpt>
      <trkpt lat="45.08895" lon="6.07492">
        <ele>1757.2</ele>
        <time>2026-08-09T09:40:12Z</time>
      </trkpt>
      <trkpt lat="45.08882" lon="6.07487">
        <ele>1756.8</ele>
        <time>2026-08-09T09:40:14Z</time>
      </trkpt>
      <trkpt lat="45.08873" lon="6.07478">
        <ele>1756</ele>
        <time>2026-08-09T09:40:16Z</time>
      </trkpt>
      <trkpt lat="45.0887" lon="6.07473">
        <ele>1755.2</ele>
        <time>2026-08-09T09:40:17Z</time>
      </trkpt>
      <trkpt lat="45.08867" lon="6.07468">
        <ele>1754.6</ele>
        <time>2026-08-09T09:40:18Z</time>
      </trkpt>
      <trkpt lat="45.08865" lon="6.07464">
        <ele>1754</ele>
        <time>2026-08-09T09:40:19Z</time>
      </trkpt>
      <trkpt lat="45.08863" lon="6.0746">
        <ele>1753.6</ele>
        <time>2026-08-09T09:40:20Z</time>
      </trkpt>
      <trkpt lat="45.08861" lon="6.07456">
        <ele>1753.2</ele>
        <time>2026-08-09T09:40:21Z</time>
      </trkpt>
      <trkpt lat="45.08859" lon="6.07452">
        <ele>1752.4</ele>
        <time>2026-08-09T09:40:22Z</time>
      </trkpt>
      <trkpt lat="45.08857" lon="6.07448">
        <ele>1752</ele>
        <time>2026-08-09T09:40:23Z</time>
      </trkpt>
      <trkpt lat="45.08856" lon="6.07445">
        <ele>1751.8</ele>
        <time>2026-08-09T09:40:24Z</time>
      </trkpt>
      <trkpt lat="45.08855" lon="6.07443">
        <ele>1751.4</ele>
        <time>2026-08-09T09:40:25Z</time>
      </trkpt>
      <trkpt lat="45.08854" lon="6.07439">
        <ele>1751</ele>
        <time>2026-08-09T09:40:26Z</time>
      </trkpt>
      <trkpt lat="45.08852" lon="6.07435">
        <ele>1750.6</ele>
        <time>2026-08-09T09:40:27Z</time>
      </trkpt>
      <trkpt lat="45.0885" lon="6.0743">
        <ele>1750.4</ele>
        <time>2026-08-09T09:40:28Z</time>
      </trkpt>
      <trkpt lat="45.08847" lon="6.07425">
        <ele>1750.2</ele>
        <time>2026-08-09T09:40:29Z</time>
      </trkpt>
      <trkpt lat="45.08844" lon="6.07419">
        <ele>1750</ele>
        <time>2026-08-09T09:40:30Z</time>
      </trkpt>
      <trkpt lat="45.08836" lon="6.07406">
        <ele>1749.8</ele>
        <time>2026-08-09T09:40:32Z</time>
      </trkpt>
      <trkpt lat="45.08832" lon="6.07398">
        <ele>1749.6</ele>
        <time>2026-08-09T09:40:33Z</time>
      </trkpt>
      <trkpt lat="45.08827" lon="6.0739">
        <ele>1749.6</ele>
        <time>2026-08-09T09:40:34Z</time>
      </trkpt>
      <trkpt lat="45.08816" lon="6.07373">
        <ele>1749.2</ele>
        <time>2026-08-09T09:40:36Z</time>
      </trkpt>
      <trkpt lat="45.0881" lon="6.07365">
        <ele>1748.6</ele>
        <time>2026-08-09T09:40:37Z</time>
      </trkpt>
      <trkpt lat="45.08804" lon="6.07357">
        <ele>1747.8</ele>
        <time>2026-08-09T09:40:38Z</time>
      </trkpt>
      <trkpt lat="45.08798" lon="6.0735">
        <ele>1747.2</ele>
        <time>2026-08-09T09:40:39Z</time>
      </trkpt>
      <trkpt lat="45.08793" lon="6.07344">
        <ele>1745.4</ele>
        <time>2026-08-09T09:40:40Z</time>
      </trkpt>
      <trkpt lat="45.0878" lon="6.07333">
        <ele>1743.8</ele>
        <time>2026-08-09T09:40:42Z</time>
      </trkpt>
      <trkpt lat="45.08765" lon="6.07322">
        <ele>1742.4</ele>
        <time>2026-08-09T09:40:44Z</time>
      </trkpt>
      <trkpt lat="45.08752" lon="6.07311">
        <ele>1741.4</ele>
        <time>2026-08-09T09:40:46Z</time>
      </trkpt>
      <trkpt lat="45.08746" lon="6.07307">
        <ele>1741</ele>
        <time>2026-08-09T09:40:47Z</time>
      </trkpt>
      <trkpt lat="45.08739" lon="6.07302">
        <ele>1740.6</ele>
        <time>2026-08-09T09:40:48Z</time>
      </trkpt>
      <trkpt lat="45.08732" lon="6.07297">
        <ele>1740</ele>
        <time>2026-08-09T09:40:49Z</time>
      </trkpt>
      <trkpt lat="45.08724" lon="6.07291">
        <ele>1739.2</ele>
        <time>2026-08-09T09:40:50Z</time>
      </trkpt>
      <trkpt lat="45.08716" lon="6.07285">
        <ele>1738.2</ele>
        <time>2026-08-09T09:40:51Z</time>
      </trkpt>
      <trkpt lat="45.08707" lon="6.0728">
        <ele>1737</ele>
        <time>2026-08-09T09:40:52Z</time>
      </trkpt>
      <trkpt lat="45.08698" lon="6.07275">
        <ele>1735.8</ele>
        <time>2026-08-09T09:40:53Z</time>
      </trkpt>
      <trkpt lat="45.08691" lon="6.0727">
        <ele>1734.6</ele>
        <time>2026-08-09T09:40:54Z</time>
      </trkpt>
      <trkpt lat="45.08684" lon="6.07265">
        <ele>1733.2</ele>
        <time>2026-08-09T09:40:55Z</time>
      </trkpt>
      <trkpt lat="45.08677" lon="6.0726">
        <ele>1732</ele>
        <time>2026-08-09T09:40:56Z</time>
      </trkpt>
      <trkpt lat="45.08666" lon="6.07245">
        <ele>1730.6</ele>
        <time>2026-08-09T09:40:58Z</time>
      </trkpt>
      <trkpt lat="45.0866" lon="6.07235">
        <ele>1730</ele>
        <time>2026-08-09T09:40:59Z</time>
      </trkpt>
      <trkpt lat="45.08656" lon="6.07225">
        <ele>1729.4</ele>
        <time>2026-08-09T09:41:00Z</time>
      </trkpt>
      <trkpt lat="45.08647" lon="6.07206">
        <ele>1728.4</ele>
        <time>2026-08-09T09:41:02Z</time>
      </trkpt>
      <trkpt lat="45.08642" lon="6.07198">
        <ele>1728.2</ele>
        <time>2026-08-09T09:41:03Z</time>
      </trkpt>
      <trkpt lat="45.08637" lon="6.07191">
        <ele>1727.8</ele>
        <time>2026-08-09T09:41:04Z</time>
      </trkpt>
      <trkpt lat="45.08626" lon="6.0718">
        <ele>1726.2</ele>
        <time>2026-08-09T09:41:06Z</time>
      </trkpt>
      <trkpt lat="45.0862" lon="6.07175">
        <ele>1724.8</ele>
        <time>2026-08-09T09:41:07Z</time>
      </trkpt>
      <trkpt lat="45.08614" lon="6.07172">
        <ele>1722.6</ele>
        <time>2026-08-09T09:41:08Z</time>
      </trkpt>
      <trkpt lat="45.08602" lon="6.07168">
        <ele>1721.6</ele>
        <time>2026-08-09T09:41:10Z</time>
      </trkpt>
      <trkpt lat="45.08596" lon="6.07166">
        <ele>1721</ele>
        <time>2026-08-09T09:41:11Z</time>
      </trkpt>
      <trkpt lat="45.0859" lon="6.07164">
        <ele>1720.8</ele>
        <time>2026-08-09T09:41:12Z</time>
      </trkpt>
      <trkpt lat="45.08586" lon="6.0716">
        <ele>1720.4</ele>
        <time>2026-08-09T09:41:13Z</time>
      </trkpt>
      <trkpt lat="45.08582" lon="6.07155">
        <ele>1720</ele>
        <time>2026-08-09T09:41:14Z</time>
      </trkpt>
      <trkpt lat="45.08578" lon="6.0714">
        <ele>1719.2</ele>
        <time>2026-08-09T09:41:16Z</time>
      </trkpt>
      <trkpt lat="45.08582" lon="6.07123">
        <ele>1718.8</ele>
        <time>2026-08-09T09:41:18Z</time>
      </trkpt>
      <trkpt lat="45.08585" lon="6.07113">
        <ele>1718.8</ele>
        <time>2026-08-09T09:41:19Z</time>
      </trkpt>
      <trkpt lat="45.08589" lon="6.07103">
        <ele>1718.4</ele>
        <time>2026-08-09T09:41:20Z</time>
      </trkpt>
      <trkpt lat="45.08591" lon="6.07092">
        <ele>1718.2</ele>
        <time>2026-08-09T09:41:21Z</time>
      </trkpt>
      <trkpt lat="45.08592" lon="6.0708">
        <ele>1718</ele>
        <time>2026-08-09T09:41:22Z</time>
      </trkpt>
      <trkpt lat="45.08593" lon="6.07067">
        <ele>1717.6</ele>
        <time>2026-08-09T09:41:23Z</time>
      </trkpt>
      <trkpt lat="45.08593" lon="6.07053">
        <ele>1717.2</ele>
        <time>2026-08-09T09:41:24Z</time>
      </trkpt>
      <trkpt lat="45.08592" lon="6.0704">
        <ele>1716.8</ele>
        <time>2026-08-09T09:41:25Z</time>
      </trkpt>
      <trkpt lat="45.0859" lon="6.07027">
        <ele>1716.4</ele>
        <time>2026-08-09T09:41:26Z</time>
      </trkpt>
      <trkpt lat="45.08587" lon="6.07015">
        <ele>1716</ele>
        <time>2026-08-09T09:41:27Z</time>
      </trkpt>
      <trkpt lat="45.08584" lon="6.07004">
        <ele>1715.4</ele>
        <time>2026-08-09T09:41:28Z</time>
      </trkpt>
      <trkpt lat="45.08579" lon="6.0698">
        <ele>1714</ele>
        <time>2026-08-09T09:41:30Z</time>
      </trkpt>
      <trkpt lat="45.08575" lon="6.06968">
        <ele>1713.4</ele>
        <time>2026-08-09T09:41:31Z</time>
      </trkpt>
      <trkpt lat="45.08571" lon="6.06956">
        <ele>1712.6</ele>
        <time>2026-08-09T09:41:32Z</time>
      </trkpt>
      <trkpt lat="45.08558" lon="6.06934">
        <ele>1711.2</ele>
        <time>2026-08-09T09:41:34Z</time>
      </trkpt>
      <trkpt lat="45.08552" lon="6.06924">
        <ele>1710.4</ele>
        <time>2026-08-09T09:41:35Z</time>
      </trkpt>
      <trkpt lat="45.08546" lon="6.06916">
        <ele>1709.8</ele>
        <time>2026-08-09T09:41:36Z</time>
      </trkpt>
      <trkpt lat="45.08542" lon="6.06909">
        <ele>1708</ele>
        <time>2026-08-09T09:41:37Z</time>
      </trkpt>
      <trkpt lat="45.08537" lon="6.06903">
        <ele>1706.8</ele>
        <time>2026-08-09T09:41:38Z</time>
      </trkpt>
      <trkpt lat="45.08533" lon="6.06897">
        <ele>1705.4</ele>
        <time>2026-08-09T09:41:39Z</time>
      </trkpt>
      <trkpt lat="45.08529" lon="6.06892">
        <ele>1704</ele>
        <time>2026-08-09T09:41:40Z</time>
      </trkpt>
      <trkpt lat="45.08525" lon="6.06887">
        <ele>1702.8</ele>
        <time>2026-08-09T09:41:41Z</time>
      </trkpt>
      <trkpt lat="45.0852" lon="6.06882">
        <ele>1702</ele>
        <time>2026-08-09T09:41:42Z</time>
      </trkpt>
      <trkpt lat="45.08516" lon="6.06878">
        <ele>1701.6</ele>
        <time>2026-08-09T09:41:43Z</time>
      </trkpt>
      <trkpt lat="45.08512" lon="6.06873">
        <ele>1701</ele>
        <time>2026-08-09T09:41:44Z</time>
      </trkpt>
      <trkpt lat="45.08503" lon="6.06866">
        <ele>1700.6</ele>
        <time>2026-08-09T09:41:46Z</time>
      </trkpt>
      <trkpt lat="45.08499" lon="6.06862">
        <ele>1700.4</ele>
        <time>2026-08-09T09:41:47Z</time>
      </trkpt>
      <trkpt lat="45.08494" lon="6.06857">
        <ele>1700.2</ele>
        <time>2026-08-09T09:41:48Z</time>
      </trkpt>
      <trkpt lat="45.08489" lon="6.06852">
        <ele>1700</ele>
        <time>2026-08-09T09:41:49Z</time>
      </trkpt>
      <trkpt lat="45.08485" lon="6.06846">
        <ele>1699.8</ele>
        <time>2026-08-09T09:41:50Z</time>
      </trkpt>
      <trkpt lat="45.08475" lon="6.06831">
        <ele>1699.6</ele>
        <time>2026-08-09T09:41:52Z</time>
      </trkpt>
      <trkpt lat="45.08471" lon="6.06823">
        <ele>1699.4</ele>
        <time>2026-08-09T09:41:53Z</time>
      </trkpt>
      <trkpt lat="45.08467" lon="6.06816">
        <ele>1698.8</ele>
        <time>2026-08-09T09:41:54Z</time>
      </trkpt>
      <trkpt lat="45.08464" lon="6.06809">
        <ele>1698.4</ele>
        <time>2026-08-09T09:41:55Z</time>
      </trkpt>
      <trkpt lat="45.08463" lon="6.06801">
        <ele>1698.2</ele>
        <time>2026-08-09T09:41:56Z</time>
      </trkpt>
      <trkpt lat="45.08464" lon="6.06782">
        <ele>1697.8</ele>
        <time>2026-08-09T09:41:58Z</time>
      </trkpt>
      <trkpt lat="45.08465" lon="6.06773">
        <ele>1697.2</ele>
        <time>2026-08-09T09:41:59Z</time>
      </trkpt>
      <trkpt lat="45.08466" lon="6.06764">
        <ele>1696.4</ele>
        <time>2026-08-09T09:42:00Z</time>
      </trkpt>
      <trkpt lat="45.08468" lon="6.06755">
        <ele>1695.8</ele>
        <time>2026-08-09T09:42:01Z</time>
      </trkpt>
      <trkpt lat="45.08471" lon="6.06747">
        <ele>1695.4</ele>
        <time>2026-08-09T09:42:02Z</time>
      </trkpt>
      <trkpt lat="45.08474" lon="6.06739">
        <ele>1694.8</ele>
        <time>2026-08-09T09:42:03Z</time>
      </trkpt>
      <trkpt lat="45.08479" lon="6.06731">
        <ele>1694.2</ele>
        <time>2026-08-09T09:42:04Z</time>
      </trkpt>
      <trkpt lat="45.08483" lon="6.06724">
        <ele>1692</ele>
        <time>2026-08-09T09:42:05Z</time>
      </trkpt>
      <trkpt lat="45.08489" lon="6.06717">
        <ele>1691</ele>
        <time>2026-08-09T09:42:06Z</time>
      </trkpt>
      <trkpt lat="45.08495" lon="6.06712">
        <ele>1690.6</ele>
        <time>2026-08-09T09:42:07Z</time>
      </trkpt>
      <trkpt lat="45.08503" lon="6.06708">
        <ele>1690.2</ele>
        <time>2026-08-09T09:42:08Z</time>
      </trkpt>
      <trkpt lat="45.0851" lon="6.06703">
        <ele>1689.6</ele>
        <time>2026-08-09T09:42:09Z</time>
      </trkpt>
      <trkpt lat="45.08518" lon="6.06696">
        <ele>1689</ele>
        <time>2026-08-09T09:42:10Z</time>
      </trkpt>
      <trkpt lat="45.08534" lon="6.06679">
        <ele>1687.6</ele>
        <time>2026-08-09T09:42:12Z</time>
      </trkpt>
      <trkpt lat="45.08539" lon="6.06666">
        <ele>1687</ele>
        <time>2026-08-09T09:42:13Z</time>
      </trkpt>
      <trkpt lat="45.08544" lon="6.06653">
        <ele>1686.4</ele>
        <time>2026-08-09T09:42:14Z</time>
      </trkpt>
      <trkpt lat="45.08551" lon="6.06624">
        <ele>1685.6</ele>
        <time>2026-08-09T09:42:16Z</time>
      </trkpt>
      <trkpt lat="45.08553" lon="6.06608">
        <ele>1685.2</ele>
        <time>2026-08-09T09:42:17Z</time>
      </trkpt>
      <trkpt lat="45.08556" lon="6.06593">
        <ele>1685</ele>
        <time>2026-08-09T09:42:18Z</time>
      </trkpt>
      <trkpt lat="45.08562" lon="6.06567">
        <ele>1684.4</ele>
        <time>2026-08-09T09:42:20Z</time>
      </trkpt>
      <trkpt lat="45.08565" lon="6.06554">
        <ele>1683.6</ele>
        <time>2026-08-09T09:42:21Z</time>
      </trkpt>
      <trkpt lat="45.08568" lon="6.06542">
        <ele>1681.8</ele>
        <time>2026-08-09T09:42:22Z</time>
      </trkpt>
      <trkpt lat="45.08571" lon="6.0653">
        <ele>1680</ele>
        <time>2026-08-09T09:42:23Z</time>
      </trkpt>
      <trkpt lat="45.08574" lon="6.06518">
        <ele>1678.4</ele>
        <time>2026-08-09T09:42:24Z</time>
      </trkpt>
      <trkpt lat="45.08578" lon="6.06505">
        <ele>1677</ele>
        <time>2026-08-09T09:42:25Z</time>
      </trkpt>
      <trkpt lat="45.08582" lon="6.06493">
        <ele>1676</ele>
        <time>2026-08-09T09:42:26Z</time>
      </trkpt>
      <trkpt lat="45.08586" lon="6.06479">
        <ele>1675.4</ele>
        <time>2026-08-09T09:42:27Z</time>
      </trkpt>
      <trkpt lat="45.08588" lon="6.06465">
        <ele>1674.8</ele>
        <time>2026-08-09T09:42:28Z</time>
      </trkpt>
      <trkpt lat="45.08589" lon="6.06451">
        <ele>1674</ele>
        <time>2026-08-09T09:42:29Z</time>
      </trkpt>
      <trkpt lat="45.08589" lon="6.06437">
        <ele>1673.6</ele>
        <time>2026-08-09T09:42:30Z</time>
      </trkpt>
      <trkpt lat="45.08589" lon="6.06425">
        <ele>1673</ele>
        <time>2026-08-09T09:42:31Z</time>
      </trkpt>
      <trkpt lat="45.08589" lon="6.06414">
        <ele>1672.2</ele>
        <time>2026-08-09T09:42:32Z</time>
      </trkpt>
      <trkpt lat="45.0859" lon="6.06402">
        <ele>1671.4</ele>
        <time>2026-08-09T09:42:33Z</time>
      </trkpt>
      <trkpt lat="45.08593" lon="6.06391">
        <ele>1670.4</ele>
        <time>2026-08-09T09:42:34Z</time>
      </trkpt>
      <trkpt lat="45.08601" lon="6.06369">
        <ele>1668.2</ele>
        <time>2026-08-09T09:42:36Z</time>
      </trkpt>
      <trkpt lat="45.08611" lon="6.06346">
        <ele>1667.2</ele>
        <time>2026-08-09T09:42:38Z</time>
      </trkpt>
      <trkpt lat="45.0862" lon="6.06323">
        <ele>1666.8</ele>
        <time>2026-08-09T09:42:40Z</time>
      </trkpt>
      <trkpt lat="45.08625" lon="6.06313">
        <ele>1666</ele>
        <time>2026-08-09T09:42:41Z</time>
      </trkpt>
      <trkpt lat="45.0863" lon="6.06302">
        <ele>1665.2</ele>
        <time>2026-08-09T09:42:42Z</time>
      </trkpt>
      <trkpt lat="45.08636" lon="6.06293">
        <ele>1664.2</ele>
        <time>2026-08-09T09:42:43Z</time>
      </trkpt>
      <trkpt lat="45.08642" lon="6.06284">
        <ele>1663.2</ele>
        <time>2026-08-09T09:42:44Z</time>
      </trkpt>
      <trkpt lat="45.08649" lon="6.06276">
        <ele>1662.6</ele>
        <time>2026-08-09T09:42:45Z</time>
      </trkpt>
      <trkpt lat="45.08656" lon="6.06268">
        <ele>1662</ele>
        <time>2026-08-09T09:42:46Z</time>
      </trkpt>
      <trkpt lat="45.08664" lon="6.06259">
        <ele>1661.4</ele>
        <time>2026-08-09T09:42:47Z</time>
      </trkpt>
      <trkpt lat="45.08672" lon="6.06251">
        <ele>1660.8</ele>
        <time>2026-08-09T09:42:48Z</time>
      </trkpt>
      <trkpt lat="45.0868" lon="6.06242">
        <ele>1660</ele>
        <time>2026-08-09T09:42:49Z</time>
      </trkpt>
      <trkpt lat="45.08689" lon="6.06235">
        <ele>1659.4</ele>
        <time>2026-08-09T09:42:50Z</time>
      </trkpt>
      <trkpt lat="45.08698" lon="6.0623">
        <ele>1658.4</ele>
        <time>2026-08-09T09:42:51Z</time>
      </trkpt>
      <trkpt lat="45.08708" lon="6.06226">
        <ele>1657.8</ele>
        <time>2026-08-09T09:42:52Z</time>
      </trkpt>
      <trkpt lat="45.08719" lon="6.06225">
        <ele>1657.4</ele>
        <time>2026-08-09T09:42:53Z</time>
      </trkpt>
      <trkpt lat="45.08728" lon="6.06224">
        <ele>1656.4</ele>
        <time>2026-08-09T09:42:54Z</time>
      </trkpt>
      <trkpt lat="45.08736" lon="6.06223">
        <ele>1655.4</ele>
        <time>2026-08-09T09:42:55Z</time>
      </trkpt>
      <trkpt lat="45.08743" lon="6.0622">
        <ele>1654.6</ele>
        <time>2026-08-09T09:42:56Z</time>
      </trkpt>
      <trkpt lat="45.08748" lon="6.06217">
        <ele>1653.6</ele>
        <time>2026-08-09T09:42:57Z</time>
      </trkpt>
      <trkpt lat="45.08751" lon="6.06212">
        <ele>1652.8</ele>
        <time>2026-08-09T09:42:58Z</time>
      </trkpt>
      <trkpt lat="45.08754" lon="6.06207">
        <ele>1652.4</ele>
        <time>2026-08-09T09:42:59Z</time>
      </trkpt>
      <trkpt lat="45.08755" lon="6.06202">
        <ele>1652.2</ele>
        <time>2026-08-09T09:43:00Z</time>
      </trkpt>
      <trkpt lat="45.08754" lon="6.06197">
        <ele>1652</ele>
        <time>2026-08-09T09:43:01Z</time>
      </trkpt>
      <trkpt lat="45.08754" lon="6.06193">
        <ele>1652</ele>
        <time>2026-08-09T09:43:02Z</time>
      </trkpt>
      <trkpt lat="45.08752" lon="6.06186">
        <ele>1652</ele>
        <time>2026-08-09T09:43:04Z</time>
      </trkpt>
      <trkpt lat="45.08748" lon="6.06181">
        <ele>1652</ele>
        <time>2026-08-09T09:43:06Z</time>
      </trkpt>
      <trkpt lat="45.08743" lon="6.06179">
        <ele>1652</ele>
        <time>2026-08-09T09:43:08Z</time>
      </trkpt>
      <trkpt lat="45.08736" lon="6.06179">
        <ele>1652</ele>
        <time>2026-08-09T09:43:10Z</time>
      </trkpt>
      <trkpt lat="45.08728" lon="6.06182">
        <ele>1652.2</ele>
        <time>2026-08-09T09:43:12Z</time>
      </trkpt>
      <trkpt lat="45.08718" lon="6.06188">
        <ele>1652.2</ele>
        <time>2026-08-09T09:43:14Z</time>
      </trkpt>
      <trkpt lat="45.08706" lon="6.06194">
        <ele>1652.2</ele>
        <time>2026-08-09T09:43:16Z</time>
      </trkpt>
      <trkpt lat="45.08693" lon="6.06201">
        <ele>1652</ele>
        <time>2026-08-09T09:43:18Z</time>
      </trkpt>
      <trkpt lat="45.08685" lon="6.06205">
        <ele>1651.6</ele>
        <time>2026-08-09T09:43:19Z</time>
      </trkpt>
      <trkpt lat="45.08678" lon="6.06209">
        <ele>1651</ele>
        <time>2026-08-09T09:43:20Z</time>
      </trkpt>
      <trkpt lat="45.0867" lon="6.06213">
        <ele>1650.4</ele>
        <time>2026-08-09T09:43:21Z</time>
      </trkpt>
      <trkpt lat="45.08661" lon="6.06217">
        <ele>1649.8</ele>
        <time>2026-08-09T09:43:22Z</time>
      </trkpt>
      <trkpt lat="45.08652" lon="6.06222">
        <ele>1649.2</ele>
        <time>2026-08-09T09:43:23Z</time>
      </trkpt>
      <trkpt lat="45.08643" lon="6.06226">
        <ele>1648.6</ele>
        <time>2026-08-09T09:43:24Z</time>
      </trkpt>
      <trkpt lat="45.08634" lon="6.06231">
        <ele>1648</ele>
        <time>2026-08-09T09:43:25Z</time>
      </trkpt>
      <trkpt lat="45.08624" lon="6.06236">
        <ele>1647.4</ele>
        <time>2026-08-09T09:43:26Z</time>
      </trkpt>
      <trkpt lat="45.08614" lon="6.0624">
        <ele>1646.4</ele>
        <time>2026-08-09T09:43:27Z</time>
      </trkpt>
      <trkpt lat="45.08604" lon="6.06246">
        <ele>1645.4</ele>
        <time>2026-08-09T09:43:28Z</time>
      </trkpt>
      <trkpt lat="45.08595" lon="6.06254">
        <ele>1644.6</ele>
        <time>2026-08-09T09:43:29Z</time>
      </trkpt>
      <trkpt lat="45.08585" lon="6.06264">
        <ele>1643.6</ele>
        <time>2026-08-09T09:43:30Z</time>
      </trkpt>
      <trkpt lat="45.08576" lon="6.06275">
        <ele>1642</ele>
        <time>2026-08-09T09:43:31Z</time>
      </trkpt>
      <trkpt lat="45.08568" lon="6.06287">
        <ele>1641.2</ele>
        <time>2026-08-09T09:43:32Z</time>
      </trkpt>
      <trkpt lat="45.08558" lon="6.06298">
        <ele>1640.2</ele>
        <time>2026-08-09T09:43:33Z</time>
      </trkpt>
      <trkpt lat="45.0855" lon="6.0631">
        <ele>1639.2</ele>
        <time>2026-08-09T09:43:34Z</time>
      </trkpt>
      <trkpt lat="45.08543" lon="6.06322">
        <ele>1638.4</ele>
        <time>2026-08-09T09:43:35Z</time>
      </trkpt>
      <trkpt lat="45.08536" lon="6.06335">
        <ele>1637.6</ele>
        <time>2026-08-09T09:43:36Z</time>
      </trkpt>
      <trkpt lat="45.08531" lon="6.0635">
        <ele>1636.6</ele>
        <time>2026-08-09T09:43:37Z</time>
      </trkpt>
      <trkpt lat="45.08527" lon="6.06366">
        <ele>1635.6</ele>
        <time>2026-08-09T09:43:38Z</time>
      </trkpt>
      <trkpt lat="45.08522" lon="6.06382">
        <ele>1634.2</ele>
        <time>2026-08-09T09:43:39Z</time>
      </trkpt>
      <trkpt lat="45.08516" lon="6.06398">
        <ele>1632.4</ele>
        <time>2026-08-09T09:43:40Z</time>
      </trkpt>
      <trkpt lat="45.0851" lon="6.06415">
        <ele>1631.4</ele>
        <time>2026-08-09T09:43:41Z</time>
      </trkpt>
      <trkpt lat="45.08503" lon="6.0643">
        <ele>1630.6</ele>
        <time>2026-08-09T09:43:42Z</time>
      </trkpt>
      <trkpt lat="45.08496" lon="6.06446">
        <ele>1630.4</ele>
        <time>2026-08-09T09:43:43Z</time>
      </trkpt>
      <trkpt lat="45.08489" lon="6.06461">
        <ele>1629.6</ele>
        <time>2026-08-09T09:43:44Z</time>
      </trkpt>
      <trkpt lat="45.08483" lon="6.06474">
        <ele>1628.6</ele>
        <time>2026-08-09T09:43:45Z</time>
      </trkpt>
      <trkpt lat="45.08477" lon="6.06487">
        <ele>1627</ele>
        <time>2026-08-09T09:43:46Z</time>
      </trkpt>
      <trkpt lat="45.08471" lon="6.06501">
        <ele>1625.6</ele>
        <time>2026-08-09T09:43:47Z</time>
      </trkpt>
      <trkpt lat="45.08466" lon="6.06514">
        <ele>1624.2</ele>
        <time>2026-08-09T09:43:48Z</time>
      </trkpt>
      <trkpt lat="45.08461" lon="6.06527">
        <ele>1622.6</ele>
        <time>2026-08-09T09:43:49Z</time>
      </trkpt>
      <trkpt lat="45.08457" lon="6.0654">
        <ele>1621.2</ele>
        <time>2026-08-09T09:43:50Z</time>
      </trkpt>
      <trkpt lat="45.08454" lon="6.06552">
        <ele>1620.2</ele>
        <time>2026-08-09T09:43:51Z</time>
      </trkpt>
      <trkpt lat="45.08451" lon="6.06562">
        <ele>1619.6</ele>
        <time>2026-08-09T09:43:52Z</time>
      </trkpt>
      <trkpt lat="45.08449" lon="6.06571">
        <ele>1619.2</ele>
        <time>2026-08-09T09:43:53Z</time>
      </trkpt>
      <trkpt lat="45.08447" lon="6.06579">
        <ele>1618.8</ele>
        <time>2026-08-09T09:43:54Z</time>
      </trkpt>
      <trkpt lat="45.08445" lon="6.06585">
        <ele>1618.6</ele>
        <time>2026-08-09T09:43:55Z</time>
      </trkpt>
      <trkpt lat="45.08443" lon="6.06588">
        <ele>1618.4</ele>
        <time>2026-08-09T09:43:56Z</time>
      </trkpt>
      <trkpt lat="45.0844" lon="6.06591">
        <ele>1618.2</ele>
        <time>2026-08-09T09:43:57Z</time>
      </trkpt>
      <trkpt lat="45.08437" lon="6.06592">
        <ele>1618.2</ele>
        <time>2026-08-09T09:43:58Z</time>
      </trkpt>
      <trkpt lat="45.0843" lon="6.06588">
        <ele>1617.8</ele>
        <time>2026-08-09T09:44:00Z</time>
      </trkpt>
      <trkpt lat="45.08428" lon="6.06575">
        <ele>1617.4</ele>
        <time>2026-08-09T09:44:02Z</time>
      </trkpt>
      <trkpt lat="45.08429" lon="6.06568">
        <ele>1617</ele>
        <time>2026-08-09T09:44:03Z</time>
      </trkpt>
      <trkpt lat="45.08432" lon="6.06562">
        <ele>1616.8</ele>
        <time>2026-08-09T09:44:04Z</time>
      </trkpt>
      <trkpt lat="45.08439" lon="6.06547">
        <ele>1616.6</ele>
        <time>2026-08-09T09:44:06Z</time>
      </trkpt>
      <trkpt lat="45.08443" lon="6.06539">
        <ele>1616.4</ele>
        <time>2026-08-09T09:44:07Z</time>
      </trkpt>
      <trkpt lat="45.08447" lon="6.0653">
        <ele>1616.4</ele>
        <time>2026-08-09T09:44:08Z</time>
      </trkpt>
      <trkpt lat="45.08454" lon="6.0651">
        <ele>1616.2</ele>
        <time>2026-08-09T09:44:10Z</time>
      </trkpt>
      <trkpt lat="45.08457" lon="6.06499">
        <ele>1615.6</ele>
        <time>2026-08-09T09:44:11Z</time>
      </trkpt>
      <trkpt lat="45.0846" lon="6.06487">
        <ele>1615</ele>
        <time>2026-08-09T09:44:12Z</time>
      </trkpt>
      <trkpt lat="45.08463" lon="6.06475">
        <ele>1614.6</ele>
        <time>2026-08-09T09:44:13Z</time>
      </trkpt>
      <trkpt lat="45.08465" lon="6.06461">
        <ele>1614</ele>
        <time>2026-08-09T09:44:14Z</time>
      </trkpt>
      <trkpt lat="45.08468" lon="6.06448">
        <ele>1613.6</ele>
        <time>2026-08-09T09:44:15Z</time>
      </trkpt>
      <trkpt lat="45.08471" lon="6.06434">
        <ele>1612.6</ele>
        <time>2026-08-09T09:44:16Z</time>
      </trkpt>
      <trkpt lat="45.08476" lon="6.06405">
        <ele>1610.6</ele>
        <time>2026-08-09T09:44:18Z</time>
      </trkpt>
      <trkpt lat="45.0848" lon="6.06373">
        <ele>1609</ele>
        <time>2026-08-09T09:44:20Z</time>
      </trkpt>
      <trkpt lat="45.08481" lon="6.06357">
        <ele>1608</ele>
        <time>2026-08-09T09:44:21Z</time>
      </trkpt>
      <trkpt lat="45.08482" lon="6.0634">
        <ele>1606.6</ele>
        <time>2026-08-09T09:44:22Z</time>
      </trkpt>
      <trkpt lat="45.08483" lon="6.06323">
        <ele>1605.4</ele>
        <time>2026-08-09T09:44:23Z</time>
      </trkpt>
      <trkpt lat="45.08485" lon="6.06305">
        <ele>1604.2</ele>
        <time>2026-08-09T09:44:24Z</time>
      </trkpt>
      <trkpt lat="45.08488" lon="6.06288">
        <ele>1603.2</ele>
        <time>2026-08-09T09:44:25Z</time>
      </trkpt>
      <trkpt lat="45.08492" lon="6.06271">
        <ele>1602</ele>
        <time>2026-08-09T09:44:26Z</time>
      </trkpt>
      <trkpt lat="45.08495" lon="6.06254">
        <ele>1601</ele>
        <time>2026-08-09T09:44:27Z</time>
      </trkpt>
      <trkpt lat="45.08498" lon="6.06238">
        <ele>1600</ele>
        <time>2026-08-09T09:44:28Z</time>
      </trkpt>
      <trkpt lat="45.08501" lon="6.06223">
        <ele>1597.2</ele>
        <time>2026-08-09T09:44:29Z</time>
      </trkpt>
      <trkpt lat="45.08502" lon="6.06209">
        <ele>1595.8</ele>
        <time>2026-08-09T09:44:30Z</time>
      </trkpt>
      <trkpt lat="45.08505" lon="6.06197">
        <ele>1594.4</ele>
        <time>2026-08-09T09:44:31Z</time>
      </trkpt>
      <trkpt lat="45.08507" lon="6.06184">
        <ele>1593</ele>
        <time>2026-08-09T09:44:32Z</time>
      </trkpt>
      <trkpt lat="45.08511" lon="6.06172">
        <ele>1591.8</ele>
        <time>2026-08-09T09:44:33Z</time>
      </trkpt>
      <trkpt lat="45.08516" lon="6.0616">
        <ele>1590.8</ele>
        <time>2026-08-09T09:44:34Z</time>
      </trkpt>
      <trkpt lat="45.0853" lon="6.06137">
        <ele>1589.8</ele>
        <time>2026-08-09T09:44:36Z</time>
      </trkpt>
      <trkpt lat="45.08537" lon="6.06125">
        <ele>1589.6</ele>
        <time>2026-08-09T09:44:37Z</time>
      </trkpt>
      <trkpt lat="45.08545" lon="6.06114">
        <ele>1589.2</ele>
        <time>2026-08-09T09:44:38Z</time>
      </trkpt>
      <trkpt lat="45.08562" lon="6.06089">
        <ele>1588.4</ele>
        <time>2026-08-09T09:44:40Z</time>
      </trkpt>
      <trkpt lat="45.0857" lon="6.06075">
        <ele>1587.8</ele>
        <time>2026-08-09T09:44:41Z</time>
      </trkpt>
      <trkpt lat="45.08577" lon="6.0606">
        <ele>1587</ele>
        <time>2026-08-09T09:44:42Z</time>
      </trkpt>
      <trkpt lat="45.08585" lon="6.06045">
        <ele>1585.8</ele>
        <time>2026-08-09T09:44:43Z</time>
      </trkpt>
      <trkpt lat="45.08592" lon="6.06029">
        <ele>1584.4</ele>
        <time>2026-08-09T09:44:44Z</time>
      </trkpt>
      <trkpt lat="45.08599" lon="6.06014">
        <ele>1583.2</ele>
        <time>2026-08-09T09:44:45Z</time>
      </trkpt>
      <trkpt lat="45.08606" lon="6.05999">
        <ele>1582.2</ele>
        <time>2026-08-09T09:44:46Z</time>
      </trkpt>
      <trkpt lat="45.08612" lon="6.05985">
        <ele>1580.8</ele>
        <time>2026-08-09T09:44:47Z</time>
      </trkpt>
      <trkpt lat="45.08618" lon="6.05973">
        <ele>1579.4</ele>
        <time>2026-08-09T09:44:48Z</time>
      </trkpt>
      <trkpt lat="45.08624" lon="6.05962">
        <ele>1577.8</ele>
        <time>2026-08-09T09:44:49Z</time>
      </trkpt>
      <trkpt lat="45.08631" lon="6.05953">
        <ele>1576.6</ele>
        <time>2026-08-09T09:44:50Z</time>
      </trkpt>
      <trkpt lat="45.08637" lon="6.05945">
        <ele>1575.4</ele>
        <time>2026-08-09T09:44:51Z</time>
      </trkpt>
      <trkpt lat="45.08643" lon="6.05939">
        <ele>1573.6</ele>
        <time>2026-08-09T09:44:52Z</time>
      </trkpt>
      <trkpt lat="45.08649" lon="6.05934">
        <ele>1572.2</ele>
        <time>2026-08-09T09:44:53Z</time>
      </trkpt>
      <trkpt lat="45.08655" lon="6.0593">
        <ele>1571.4</ele>
        <time>2026-08-09T09:44:54Z</time>
      </trkpt>
      <trkpt lat="45.0866" lon="6.05926">
        <ele>1571</ele>
        <time>2026-08-09T09:44:55Z</time>
      </trkpt>
      <trkpt lat="45.08664" lon="6.05922">
        <ele>1570.8</ele>
        <time>2026-08-09T09:44:56Z</time>
      </trkpt>
      <trkpt lat="45.08672" lon="6.05914">
        <ele>1570.6</ele>
        <time>2026-08-09T09:44:58Z</time>
      </trkpt>
      <trkpt lat="45.08676" lon="6.05902">
        <ele>1570.6</ele>
        <time>2026-08-09T09:45:00Z</time>
      </trkpt>
      <trkpt lat="45.08675" lon="6.05889">
        <ele>1570.6</ele>
        <time>2026-08-09T09:45:02Z</time>
      </trkpt>
      <trkpt lat="45.08674" lon="6.05884">
        <ele>1571</ele>
        <time>2026-08-09T09:45:03Z</time>
      </trkpt>
      <trkpt lat="45.08673" lon="6.05881">
        <ele>1571</ele>
        <time>2026-08-09T09:45:04Z</time>
      </trkpt>
      <trkpt lat="45.08671" lon="6.05877">
        <ele>1571.2</ele>
        <time>2026-08-09T09:45:06Z</time>
      </trkpt>
      <trkpt lat="45.0867" lon="6.05874">
        <ele>1571.4</ele>
        <time>2026-08-09T09:45:07Z</time>
      </trkpt>
      <trkpt lat="45.08668" lon="6.05872">
        <ele>1571.4</ele>
        <time>2026-08-09T09:45:08Z</time>
      </trkpt>
      <trkpt lat="45.08665" lon="6.05868">
        <ele>1571.6</ele>
        <time>2026-08-09T09:45:10Z</time>
      </trkpt>
      <trkpt lat="45.08661" lon="6.05866">
        <ele>1571.8</ele>
        <time>2026-08-09T09:45:12Z</time>
      </trkpt>
      <trkpt lat="45.08658" lon="6.05864">
        <ele>1571.8</ele>
        <time>2026-08-09T09:45:14Z</time>
      </trkpt>
      <trkpt lat="45.08656" lon="6.05863">
        <ele>1571.8</ele>
        <time>2026-08-09T09:45:16Z</time>
      </trkpt>
      <trkpt lat="45.08652" lon="6.05865">
        <ele>1571.8</ele>
        <time>2026-08-09T09:45:18Z</time>
      </trkpt>
      <trkpt lat="45.08648" lon="6.05871">
        <ele>1571.8</ele>
        <time>2026-08-09T09:45:20Z</time>
      </trkpt>
      <trkpt lat="45.0864" lon="6.05879">
        <ele>1571.8</ele>
        <time>2026-08-09T09:45:22Z</time>
      </trkpt>
      <trkpt lat="45.08631" lon="6.05889">
        <ele>1571.6</ele>
        <time>2026-08-09T09:45:24Z</time>
      </trkpt>
      <trkpt lat="45.08626" lon="6.05894">
        <ele>1571.4</ele>
        <time>2026-08-09T09:45:25Z</time>
      </trkpt>
      <trkpt lat="45.0862" lon="6.059">
        <ele>1571</ele>
        <time>2026-08-09T09:45:26Z</time>
      </trkpt>
      <trkpt lat="45.08615" lon="6.05906">
        <ele>1570.6</ele>
        <time>2026-08-09T09:45:27Z</time>
      </trkpt>
      <trkpt lat="45.08608" lon="6.05913">
        <ele>1570.2</ele>
        <time>2026-08-09T09:45:28Z</time>
      </trkpt>
      <trkpt lat="45.08602" lon="6.0592">
        <ele>1569.6</ele>
        <time>2026-08-09T09:45:29Z</time>
      </trkpt>
      <trkpt lat="45.08595" lon="6.05927">
        <ele>1569</ele>
        <time>2026-08-09T09:45:30Z</time>
      </trkpt>
      <trkpt lat="45.08589" lon="6.05934">
        <ele>1568</ele>
        <time>2026-08-09T09:45:31Z</time>
      </trkpt>
      <trkpt lat="45.08583" lon="6.05941">
        <ele>1567</ele>
        <time>2026-08-09T09:45:32Z</time>
      </trkpt>
      <trkpt lat="45.08577" lon="6.05948">
        <ele>1565.8</ele>
        <time>2026-08-09T09:45:33Z</time>
      </trkpt>
      <trkpt lat="45.0857" lon="6.05954">
        <ele>1564.8</ele>
        <time>2026-08-09T09:45:34Z</time>
      </trkpt>
      <trkpt lat="45.08564" lon="6.0596">
        <ele>1564.2</ele>
        <time>2026-08-09T09:45:35Z</time>
      </trkpt>
      <trkpt lat="45.08557" lon="6.05966">
        <ele>1563.4</ele>
        <time>2026-08-09T09:45:36Z</time>
      </trkpt>
      <trkpt lat="45.08549" lon="6.05971">
        <ele>1562.6</ele>
        <time>2026-08-09T09:45:37Z</time>
      </trkpt>
      <trkpt lat="45.08542" lon="6.05976">
        <ele>1562</ele>
        <time>2026-08-09T09:45:38Z</time>
      </trkpt>
      <trkpt lat="45.08533" lon="6.05981">
        <ele>1561.4</ele>
        <time>2026-08-09T09:45:39Z</time>
      </trkpt>
      <trkpt lat="45.08525" lon="6.05987">
        <ele>1561</ele>
        <time>2026-08-09T09:45:40Z</time>
      </trkpt>
      <trkpt lat="45.08515" lon="6.05992">
        <ele>1560.4</ele>
        <time>2026-08-09T09:45:41Z</time>
      </trkpt>
      <trkpt lat="45.08506" lon="6.05997">
        <ele>1559.8</ele>
        <time>2026-08-09T09:45:42Z</time>
      </trkpt>
      <trkpt lat="45.08496" lon="6.06001">
        <ele>1559</ele>
        <time>2026-08-09T09:45:43Z</time>
      </trkpt>
      <trkpt lat="45.08485" lon="6.06005">
        <ele>1558.4</ele>
        <time>2026-08-09T09:45:44Z</time>
      </trkpt>
      <trkpt lat="45.08475" lon="6.06009">
        <ele>1557.4</ele>
        <time>2026-08-09T09:45:45Z</time>
      </trkpt>
      <trkpt lat="45.08466" lon="6.06012">
        <ele>1556.2</ele>
        <time>2026-08-09T09:45:46Z</time>
      </trkpt>
      <trkpt lat="45.08458" lon="6.06015">
        <ele>1555</ele>
        <time>2026-08-09T09:45:47Z</time>
      </trkpt>
      <trkpt lat="45.0845" lon="6.06017">
        <ele>1553.8</ele>
        <time>2026-08-09T09:45:48Z</time>
      </trkpt>
      <trkpt lat="45.08443" lon="6.06019">
        <ele>1552.4</ele>
        <time>2026-08-09T09:45:49Z</time>
      </trkpt>
      <trkpt lat="45.08436" lon="6.06021">
        <ele>1551</ele>
        <time>2026-08-09T09:45:50Z</time>
      </trkpt>
      <trkpt lat="45.08429" lon="6.06024">
        <ele>1549.8</ele>
        <time>2026-08-09T09:45:51Z</time>
      </trkpt>
      <trkpt lat="45.08421" lon="6.06028">
        <ele>1548.4</ele>
        <time>2026-08-09T09:45:52Z</time>
      </trkpt>
      <trkpt lat="45.08414" lon="6.06033">
        <ele>1547.6</ele>
        <time>2026-08-09T09:45:53Z</time>
      </trkpt>
      <trkpt lat="45.08406" lon="6.0604">
        <ele>1547.2</ele>
        <time>2026-08-09T09:45:54Z</time>
      </trkpt>
      <trkpt lat="45.08399" lon="6.06049">
        <ele>1547</ele>
        <time>2026-08-09T09:45:55Z</time>
      </trkpt>
      <trkpt lat="45.08392" lon="6.0606">
        <ele>1546.8</ele>
        <time>2026-08-09T09:45:56Z</time>
      </trkpt>
      <trkpt lat="45.08381" lon="6.06084">
        <ele>1546.4</ele>
        <time>2026-08-09T09:45:58Z</time>
      </trkpt>
      <trkpt lat="45.08372" lon="6.06106">
        <ele>1544.6</ele>
        <time>2026-08-09T09:46:00Z</time>
      </trkpt>
      <trkpt lat="45.08368" lon="6.06116">
        <ele>1543.4</ele>
        <time>2026-08-09T09:46:01Z</time>
      </trkpt>
      <trkpt lat="45.08364" lon="6.06127">
        <ele>1542.2</ele>
        <time>2026-08-09T09:46:02Z</time>
      </trkpt>
      <trkpt lat="45.08361" lon="6.06137">
        <ele>1541</ele>
        <time>2026-08-09T09:46:03Z</time>
      </trkpt>
      <trkpt lat="45.08358" lon="6.06147">
        <ele>1539.6</ele>
        <time>2026-08-09T09:46:04Z</time>
      </trkpt>
      <trkpt lat="45.08356" lon="6.06158">
        <ele>1538.6</ele>
        <time>2026-08-09T09:46:05Z</time>
      </trkpt>
      <trkpt lat="45.08355" lon="6.0617">
        <ele>1537.6</ele>
        <time>2026-08-09T09:46:06Z</time>
      </trkpt>
      <trkpt lat="45.08354" lon="6.06183">
        <ele>1536.8</ele>
        <time>2026-08-09T09:46:07Z</time>
      </trkpt>
      <trkpt lat="45.08354" lon="6.06196">
        <ele>1536.2</ele>
        <time>2026-08-09T09:46:08Z</time>
      </trkpt>
      <trkpt lat="45.08355" lon="6.0621">
        <ele>1535.6</ele>
        <time>2026-08-09T09:46:09Z</time>
      </trkpt>
      <trkpt lat="45.08356" lon="6.06223">
        <ele>1535</ele>
        <time>2026-08-09T09:46:10Z</time>
      </trkpt>
      <trkpt lat="45.08357" lon="6.06233">
        <ele>1534.6</ele>
        <time>2026-08-09T09:46:11Z</time>
      </trkpt>
      <trkpt lat="45.08358" lon="6.06242">
        <ele>1534.2</ele>
        <time>2026-08-09T09:46:12Z</time>
      </trkpt>
      <trkpt lat="45.0836" lon="6.06254">
        <ele>1533.2</ele>
        <time>2026-08-09T09:46:14Z</time>
      </trkpt>
      <trkpt lat="45.0836" lon="6.06258">
        <ele>1532</ele>
        <time>2026-08-09T09:46:15Z</time>
      </trkpt>
      <trkpt lat="45.0836" lon="6.06261">
        <ele>1531.2</ele>
        <time>2026-08-09T09:46:16Z</time>
      </trkpt>
      <trkpt lat="45.08359" lon="6.06263">
        <ele>1531</ele>
        <time>2026-08-09T09:46:17Z</time>
      </trkpt>
      <trkpt lat="45.08357" lon="6.06264">
        <ele>1530.8</ele>
        <time>2026-08-09T09:46:18Z</time>
      </trkpt>
      <trkpt lat="45.08354" lon="6.06263">
        <ele>1530.6</ele>
        <time>2026-08-09T09:46:20Z</time>
      </trkpt>
      <trkpt lat="45.08352" lon="6.06261">
        <ele>1530.6</ele>
        <time>2026-08-09T09:46:21Z</time>
      </trkpt>
      <trkpt lat="45.0835" lon="6.06258">
        <ele>1530.4</ele>
        <time>2026-08-09T09:46:22Z</time>
      </trkpt>
      <trkpt lat="45.08349" lon="6.06247">
        <ele>1530</ele>
        <time>2026-08-09T09:46:24Z</time>
      </trkpt>
      <trkpt lat="45.08349" lon="6.0624">
        <ele>1529.8</ele>
        <time>2026-08-09T09:46:25Z</time>
      </trkpt>
      <trkpt lat="45.08348" lon="6.06232">
        <ele>1529.8</ele>
        <time>2026-08-09T09:46:26Z</time>
      </trkpt>
      <trkpt lat="45.08348" lon="6.06215">
        <ele>1529.8</ele>
        <time>2026-08-09T09:46:28Z</time>
      </trkpt>
      <trkpt lat="45.08348" lon="6.06205">
        <ele>1529.8</ele>
        <time>2026-08-09T09:46:29Z</time>
      </trkpt>
      <trkpt lat="45.08346" lon="6.06195">
        <ele>1529.6</ele>
        <time>2026-08-09T09:46:30Z</time>
      </trkpt>
      <trkpt lat="45.08344" lon="6.06185">
        <ele>1529</ele>
        <time>2026-08-09T09:46:31Z</time>
      </trkpt>
      <trkpt lat="45.08342" lon="6.06174">
        <ele>1528.4</ele>
        <time>2026-08-09T09:46:32Z</time>
      </trkpt>
      <trkpt lat="45.08337" lon="6.06151">
        <ele>1527.2</ele>
        <time>2026-08-09T09:46:34Z</time>
      </trkpt>
      <trkpt lat="45.08332" lon="6.06127">
        <ele>1525.4</ele>
        <time>2026-08-09T09:46:36Z</time>
      </trkpt>
      <trkpt lat="45.0833" lon="6.06114">
        <ele>1524.4</ele>
        <time>2026-08-09T09:46:37Z</time>
      </trkpt>
      <trkpt lat="45.08327" lon="6.06101">
        <ele>1523.4</ele>
        <time>2026-08-09T09:46:38Z</time>
      </trkpt>
      <trkpt lat="45.08324" lon="6.06087">
        <ele>1522.2</ele>
        <time>2026-08-09T09:46:39Z</time>
      </trkpt>
      <trkpt lat="45.08322" lon="6.06072">
        <ele>1521</ele>
        <time>2026-08-09T09:46:40Z</time>
      </trkpt>
      <trkpt lat="45.08319" lon="6.06057">
        <ele>1520</ele>
        <time>2026-08-09T09:46:41Z</time>
      </trkpt>
      <trkpt lat="45.08316" lon="6.06041">
        <ele>1519</ele>
        <time>2026-08-09T09:46:42Z</time>
      </trkpt>
      <trkpt lat="45.08313" lon="6.06025">
        <ele>1518.6</ele>
        <time>2026-08-09T09:46:43Z</time>
      </trkpt>
      <trkpt lat="45.0831" lon="6.0601">
        <ele>1518</ele>
        <time>2026-08-09T09:46:44Z</time>
      </trkpt>
      <trkpt lat="45.08308" lon="6.05996">
        <ele>1517.2</ele>
        <time>2026-08-09T09:46:45Z</time>
      </trkpt>
      <trkpt lat="45.08306" lon="6.05981">
        <ele>1516</ele>
        <time>2026-08-09T09:46:46Z</time>
      </trkpt>
      <trkpt lat="45.08304" lon="6.05966">
        <ele>1514.8</ele>
        <time>2026-08-09T09:46:47Z</time>
      </trkpt>
      <trkpt lat="45.08303" lon="6.05951">
        <ele>1513.4</ele>
        <time>2026-08-09T09:46:48Z</time>
      </trkpt>
      <trkpt lat="45.08303" lon="6.05935">
        <ele>1511.8</ele>
        <time>2026-08-09T09:46:49Z</time>
      </trkpt>
      <trkpt lat="45.08303" lon="6.05921">
        <ele>1510.4</ele>
        <time>2026-08-09T09:46:50Z</time>
      </trkpt>
      <trkpt lat="45.08303" lon="6.05907">
        <ele>1509.2</ele>
        <time>2026-08-09T09:46:51Z</time>
      </trkpt>
      <trkpt lat="45.08303" lon="6.05895">
        <ele>1508.6</ele>
        <time>2026-08-09T09:46:52Z</time>
      </trkpt>
      <trkpt lat="45.08303" lon="6.05884">
        <ele>1507.2</ele>
        <time>2026-08-09T09:46:53Z</time>
      </trkpt>
      <trkpt lat="45.08304" lon="6.05874">
        <ele>1506.4</ele>
        <time>2026-08-09T09:46:54Z</time>
      </trkpt>
      <trkpt lat="45.08306" lon="6.05864">
        <ele>1505</ele>
        <time>2026-08-09T09:46:55Z</time>
      </trkpt>
      <trkpt lat="45.08308" lon="6.05854">
        <ele>1503.6</ele>
        <time>2026-08-09T09:46:56Z</time>
      </trkpt>
      <trkpt lat="45.08315" lon="6.05834">
        <ele>1502.2</ele>
        <time>2026-08-09T09:46:58Z</time>
      </trkpt>
      <trkpt lat="45.08319" lon="6.05823">
        <ele>1501.8</ele>
        <time>2026-08-09T09:46:59Z</time>
      </trkpt>
      <trkpt lat="45.08324" lon="6.05813">
        <ele>1501.4</ele>
        <time>2026-08-09T09:47:00Z</time>
      </trkpt>
      <trkpt lat="45.0833" lon="6.05803">
        <ele>1501</ele>
        <time>2026-08-09T09:47:01Z</time>
      </trkpt>
      <trkpt lat="45.08337" lon="6.05794">
        <ele>1500.8</ele>
        <time>2026-08-09T09:47:02Z</time>
      </trkpt>
      <trkpt lat="45.08345" lon="6.05786">
        <ele>1500.2</ele>
        <time>2026-08-09T09:47:03Z</time>
      </trkpt>
      <trkpt lat="45.08354" lon="6.05779">
        <ele>1499.6</ele>
        <time>2026-08-09T09:47:04Z</time>
      </trkpt>
      <trkpt lat="45.08362" lon="6.05774">
        <ele>1499</ele>
        <time>2026-08-09T09:47:05Z</time>
      </trkpt>
      <trkpt lat="45.08368" lon="6.05768">
        <ele>1498.2</ele>
        <time>2026-08-09T09:47:06Z</time>
      </trkpt>
      <trkpt lat="45.08372" lon="6.05763">
        <ele>1497.6</ele>
        <time>2026-08-09T09:47:07Z</time>
      </trkpt>
      <trkpt lat="45.08374" lon="6.05758">
        <ele>1496.4</ele>
        <time>2026-08-09T09:47:08Z</time>
      </trkpt>
      <trkpt lat="45.08375" lon="6.05755">
        <ele>1495.4</ele>
        <time>2026-08-09T09:47:09Z</time>
      </trkpt>
      <trkpt lat="45.08374" lon="6.05753">
        <ele>1494.8</ele>
        <time>2026-08-09T09:47:10Z</time>
      </trkpt>
      <trkpt lat="45.08373" lon="6.05747">
        <ele>1494.4</ele>
        <time>2026-08-09T09:47:12Z</time>
      </trkpt>
      <trkpt lat="45.0837" lon="6.05743">
        <ele>1494.2</ele>
        <time>2026-08-09T09:47:14Z</time>
      </trkpt>
      <trkpt lat="45.08369" lon="6.05741">
        <ele>1494.2</ele>
        <time>2026-08-09T09:47:15Z</time>
      </trkpt>
      <trkpt lat="45.08367" lon="6.05741">
        <ele>1494</ele>
        <time>2026-08-09T09:47:16Z</time>
      </trkpt>
      <trkpt lat="45.08367" lon="6.0574">
        <ele>1494</ele>
        <time>2026-08-09T09:47:18Z</time>
      </trkpt>
      <trkpt lat="45.08367" lon="6.0574">
        <ele>1494</ele>
        <time>2026-08-09T09:47:19Z</time>
      </trkpt>
      <trkpt lat="45.08367" lon="6.0574">
        <ele>1494.2</ele>
        <time>2026-08-09T09:47:20Z</time>
      </trkpt>
      <trkpt lat="45.08367" lon="6.05741">
        <ele>1494.2</ele>
        <time>2026-08-09T09:47:22Z</time>
      </trkpt>
      <trkpt lat="45.08367" lon="6.05741">
        <ele>1494.2</ele>
        <time>2026-08-09T09:47:24Z</time>
      </trkpt>
      <trkpt lat="45.08366" lon="6.05741">
        <ele>1494.2</ele>
        <time>2026-08-09T09:47:26Z</time>
      </trkpt>
      <trkpt lat="45.08366" lon="6.05741">
        <ele>1494.2</ele>
        <time>2026-08-09T09:47:28Z</time>
      </trkpt>
      <trkpt lat="45.08366" lon="6.05741">
        <ele>1494.2</ele>
        <time>2026-08-09T09:47:29Z</time>
      </trkpt>
      <trkpt lat="45.08366" lon="6.05742">
        <ele>1494.2</ele>
        <time>2026-08-09T09:47:30Z</time>
      </trkpt>
      <trkpt lat="45.08366" lon="6.05742">
        <ele>1494.2</ele>
        <time>2026-08-09T09:47:32Z</time>
      </trkpt>
      <trkpt lat="45.08365" lon="6.05743">
        <ele>1494.2</ele>
        <time>2026-08-09T09:47:34Z</time>
      </trkpt>
      <trkpt lat="45.08365" lon="6.05743">
        <ele>1494.2</ele>
        <time>2026-08-09T09:47:36Z</time>
      </trkpt>
      <trkpt lat="45.08365" lon="6.05743">
        <ele>1494</ele>
        <time>2026-08-09T09:47:38Z</time>
      </trkpt>
      <trkpt lat="45.08365" lon="6.05743">
        <ele>1494</ele>
        <time>2026-08-09T09:47:40Z</time>
      </trkpt>
      <trkpt lat="45.08365" lon="6.05742">
        <ele>1494</ele>
        <time>2026-08-09T09:47:41Z</time>
      </trkpt>
      <trkpt lat="45.08365" lon="6.05742">
        <ele>1494</ele>
        <time>2026-08-09T09:47:42Z</time>
      </trkpt>
      <trkpt lat="45.08364" lon="6.05742">
        <ele>1494.2</ele>
        <time>2026-08-09T09:47:44Z</time>
      </trkpt>
      <trkpt lat="45.08364" lon="6.05741">
        <ele>1494.2</ele>
        <time>2026-08-09T09:47:46Z</time>
      </trkpt>
      <trkpt lat="45.08364" lon="6.05741">
        <ele>1494</ele>
        <time>2026-08-09T09:47:48Z</time>
      </trkpt>
      <trkpt lat="45.08365" lon="6.05741">
        <ele>1494</ele>
        <time>2026-08-09T09:47:50Z</time>
      </trkpt>
      <trkpt lat="45.08365" lon="6.05741">
        <ele>1494</ele>
        <time>2026-08-09T09:47:52Z</time>
      </trkpt>
      <trkpt lat="45.08365" lon="6.05741">
        <ele>1494</ele>
        <time>2026-08-09T09:47:54Z</time>
      </trkpt>
      <trkpt lat="45.08365" lon="6.05741">
        <ele>1493.8</ele>
        <time>2026-08-09T09:47:56Z</time>
      </trkpt>
      <trkpt lat="45.08365" lon="6.05741">
        <ele>1493.8</ele>
        <time>2026-08-09T09:47:58Z</time>
      </trkpt>
      <trkpt lat="45.08365" lon="6.05741">
        <ele>1493.8</ele>
        <time>2026-08-09T09:48:00Z</time>
      </trkpt>
      <trkpt lat="45.08365" lon="6.05741">
        <ele>1494</ele>
        <time>2026-08-09T09:48:02Z</time>
      </trkpt>
      <trkpt lat="45.08366" lon="6.05741">
        <ele>1494</ele>
        <time>2026-08-09T09:48:04Z</time>
      </trkpt>
      <trkpt lat="45.08366" lon="6.05741">
        <ele>1494</ele>
        <time>2026-08-09T09:48:06Z</time>
      </trkpt>
      <trkpt lat="45.08366" lon="6.05741">
        <ele>1494</ele>
        <time>2026-08-09T09:48:08Z</time>
      </trkpt>
      <trkpt lat="45.08366" lon="6.05741">
        <ele>1494</ele>
        <time>2026-08-09T09:48:10Z</time>
      </trkpt>
      <trkpt lat="45.08366" lon="6.05741">
        <ele>1494</ele>
        <time>2026-08-09T09:48:12Z</time>
      </trkpt>
      <trkpt lat="45.08366" lon="6.05741">
        <ele>1494</ele>
        <time>2026-08-09T09:48:14Z</time>
      </trkpt>
      <trkpt lat="45.08366" lon="6.05741">
        <ele>1494</ele>
        <time>2026-08-09T09:48:16Z</time>
      </trkpt>
      <trkpt lat="45.08365" lon="6.05741">
        <ele>1494</ele>
        <time>2026-08-09T09:48:18Z</time>
      </trkpt>
      <trkpt lat="45.08363" lon="6.05742">
        <ele>1494</ele>
        <time>2026-08-09T09:48:20Z</time>
      </trkpt>
      <trkpt lat="45.0836" lon="6.05742">
        <ele>1494</ele>
        <time>2026-08-09T09:48:22Z</time>
      </trkpt>
      <trkpt lat="45.08357" lon="6.05743">
        <ele>1494</ele>
        <time>2026-08-09T09:48:23Z</time>
      </trkpt>
      <trkpt lat="45.08354" lon="6.05744">
        <ele>1494</ele>
        <time>2026-08-09T09:48:24Z</time>
      </trkpt>
      <trkpt lat="45.08346" lon="6.05746">
        <ele>1493.8</ele>
        <time>2026-08-09T09:48:26Z</time>
      </trkpt>
      <trkpt lat="45.08335" lon="6.05748">
        <ele>1493.8</ele>
        <time>2026-08-09T09:48:28Z</time>
      </trkpt>
      <trkpt lat="45.08324" lon="6.0575">
        <ele>1493.4</ele>
        <time>2026-08-09T09:48:30Z</time>
      </trkpt>
      <trkpt lat="45.08318" lon="6.05751">
        <ele>1493</ele>
        <time>2026-08-09T09:48:31Z</time>
      </trkpt>
      <trkpt lat="45.08311" lon="6.05752">
        <ele>1492.6</ele>
        <time>2026-08-09T09:48:32Z</time>
      </trkpt>
      <trkpt lat="45.08297" lon="6.05754">
        <ele>1491.8</ele>
        <time>2026-08-09T09:48:34Z</time>
      </trkpt>
      <trkpt lat="45.08282" lon="6.05754">
        <ele>1491</ele>
        <time>2026-08-09T09:48:36Z</time>
      </trkpt>
      <trkpt lat="45.08274" lon="6.05754">
        <ele>1490.6</ele>
        <time>2026-08-09T09:48:37Z</time>
      </trkpt>
      <trkpt lat="45.08266" lon="6.05756">
        <ele>1490</ele>
        <time>2026-08-09T09:48:38Z</time>
      </trkpt>
      <trkpt lat="45.08258" lon="6.05758">
        <ele>1489.8</ele>
        <time>2026-08-09T09:48:39Z</time>
      </trkpt>
      <trkpt lat="45.08249" lon="6.05761">
        <ele>1489.2</ele>
        <time>2026-08-09T09:48:40Z</time>
      </trkpt>
      <trkpt lat="45.08241" lon="6.05766">
        <ele>1488.4</ele>
        <time>2026-08-09T09:48:41Z</time>
      </trkpt>
      <trkpt lat="45.08235" lon="6.05773">
        <ele>1487.4</ele>
        <time>2026-08-09T09:48:42Z</time>
      </trkpt>
      <trkpt lat="45.08231" lon="6.05781">
        <ele>1486.2</ele>
        <time>2026-08-09T09:48:43Z</time>
      </trkpt>
      <trkpt lat="45.08228" lon="6.05789">
        <ele>1485.2</ele>
        <time>2026-08-09T09:48:44Z</time>
      </trkpt>
      <trkpt lat="45.08226" lon="6.05799">
        <ele>1484.4</ele>
        <time>2026-08-09T09:48:45Z</time>
      </trkpt>
      <trkpt lat="45.08225" lon="6.05809">
        <ele>1483.6</ele>
        <time>2026-08-09T09:48:46Z</time>
      </trkpt>
      <trkpt lat="45.08223" lon="6.05819">
        <ele>1482</ele>
        <time>2026-08-09T09:48:47Z</time>
      </trkpt>
      <trkpt lat="45.08223" lon="6.0583">
        <ele>1481.2</ele>
        <time>2026-08-09T09:48:48Z</time>
      </trkpt>
      <trkpt lat="45.08222" lon="6.0584">
        <ele>1480.4</ele>
        <time>2026-08-09T09:48:49Z</time>
      </trkpt>
      <trkpt lat="45.08222" lon="6.0585">
        <ele>1480</ele>
        <time>2026-08-09T09:48:50Z</time>
      </trkpt>
      <trkpt lat="45.0822" lon="6.05868">
        <ele>1479.8</ele>
        <time>2026-08-09T09:48:52Z</time>
      </trkpt>
      <trkpt lat="45.0822" lon="6.05886">
        <ele>1479.6</ele>
        <time>2026-08-09T09:48:54Z</time>
      </trkpt>
      <trkpt lat="45.08219" lon="6.05902">
        <ele>1479.6</ele>
        <time>2026-08-09T09:48:56Z</time>
      </trkpt>
      <trkpt lat="45.08218" lon="6.0592">
        <ele>1479.4</ele>
        <time>2026-08-09T09:48:58Z</time>
      </trkpt>
      <trkpt lat="45.08218" lon="6.05938">
        <ele>1479.6</ele>
        <time>2026-08-09T09:49:00Z</time>
      </trkpt>
      <trkpt lat="45.08218" lon="6.05955">
        <ele>1479.2</ele>
        <time>2026-08-09T09:49:02Z</time>
      </trkpt>
      <trkpt lat="45.08218" lon="6.05969">
        <ele>1478.6</ele>
        <time>2026-08-09T09:49:04Z</time>
      </trkpt>
      <trkpt lat="45.08217" lon="6.05975">
        <ele>1478.2</ele>
        <time>2026-08-09T09:49:05Z</time>
      </trkpt>
      <trkpt lat="45.08217" lon="6.05981">
        <ele>1477.8</ele>
        <time>2026-08-09T09:49:06Z</time>
      </trkpt>
      <trkpt lat="45.08217" lon="6.05988">
        <ele>1477.2</ele>
        <time>2026-08-09T09:49:07Z</time>
      </trkpt>
      <trkpt lat="45.08216" lon="6.05995">
        <ele>1476.8</ele>
        <time>2026-08-09T09:49:08Z</time>
      </trkpt>
      <trkpt lat="45.08216" lon="6.06003">
        <ele>1476.2</ele>
        <time>2026-08-09T09:49:09Z</time>
      </trkpt>
      <trkpt lat="45.08215" lon="6.06011">
        <ele>1475.6</ele>
        <time>2026-08-09T09:49:10Z</time>
      </trkpt>
      <trkpt lat="45.08214" lon="6.06028">
        <ele>1475</ele>
        <time>2026-08-09T09:49:12Z</time>
      </trkpt>
      <trkpt lat="45.08214" lon="6.06036">
        <ele>1474.8</ele>
        <time>2026-08-09T09:49:13Z</time>
      </trkpt>
      <trkpt lat="45.08213" lon="6.06043">
        <ele>1474.6</ele>
        <time>2026-08-09T09:49:14Z</time>
      </trkpt>
      <trkpt lat="45.08213" lon="6.06056">
        <ele>1473.6</ele>
        <time>2026-08-09T09:49:16Z</time>
      </trkpt>
      <trkpt lat="45.08212" lon="6.06071">
        <ele>1472.6</ele>
        <time>2026-08-09T09:49:18Z</time>
      </trkpt>
      <trkpt lat="45.08211" lon="6.0608">
        <ele>1471.8</ele>
        <time>2026-08-09T09:49:19Z</time>
      </trkpt>
      <trkpt lat="45.0821" lon="6.06089">
        <ele>1471.4</ele>
        <time>2026-08-09T09:49:20Z</time>
      </trkpt>
      <trkpt lat="45.08208" lon="6.06109">
        <ele>1470.8</ele>
        <time>2026-08-09T09:49:22Z</time>
      </trkpt>
      <trkpt lat="45.08207" lon="6.06134">
        <ele>1470.2</ele>
        <time>2026-08-09T09:49:24Z</time>
      </trkpt>
      <trkpt lat="45.08208" lon="6.06147">
        <ele>1469.8</ele>
        <time>2026-08-09T09:49:25Z</time>
      </trkpt>
      <trkpt lat="45.08209" lon="6.0616">
        <ele>1469.2</ele>
        <time>2026-08-09T09:49:26Z</time>
      </trkpt>
      <trkpt lat="45.08212" lon="6.06174">
        <ele>1468.6</ele>
        <time>2026-08-09T09:49:27Z</time>
      </trkpt>
      <trkpt lat="45.08216" lon="6.06185">
        <ele>1467.6</ele>
        <time>2026-08-09T09:49:28Z</time>
      </trkpt>
      <trkpt lat="45.08221" lon="6.06194">
        <ele>1467</ele>
        <time>2026-08-09T09:49:29Z</time>
      </trkpt>
      <trkpt lat="45.08226" lon="6.06202">
        <ele>1466.2</ele>
        <time>2026-08-09T09:49:30Z</time>
      </trkpt>
      <trkpt lat="45.0823" lon="6.06209">
        <ele>1465.2</ele>
        <time>2026-08-09T09:49:31Z</time>
      </trkpt>
      <trkpt lat="45.08232" lon="6.06215">
        <ele>1464.2</ele>
        <time>2026-08-09T09:49:32Z</time>
      </trkpt>
      <trkpt lat="45.08233" lon="6.06221">
        <ele>1463</ele>
        <time>2026-08-09T09:49:33Z</time>
      </trkpt>
      <trkpt lat="45.08232" lon="6.06225">
        <ele>1462.4</ele>
        <time>2026-08-09T09:49:34Z</time>
      </trkpt>
      <trkpt lat="45.0823" lon="6.06227">
        <ele>1462.2</ele>
        <time>2026-08-09T09:49:35Z</time>
      </trkpt>
      <trkpt lat="45.08228" lon="6.06227">
        <ele>1462</ele>
        <time>2026-08-09T09:49:36Z</time>
      </trkpt>
      <trkpt lat="45.08223" lon="6.06224">
        <ele>1461.8</ele>
        <time>2026-08-09T09:49:38Z</time>
      </trkpt>
      <trkpt lat="45.08218" lon="6.06218">
        <ele>1461.4</ele>
        <time>2026-08-09T09:49:40Z</time>
      </trkpt>
      <trkpt lat="45.08213" lon="6.06206">
        <ele>1461.4</ele>
        <time>2026-08-09T09:49:42Z</time>
      </trkpt>
      <trkpt lat="45.08208" lon="6.06192">
        <ele>1461</ele>
        <time>2026-08-09T09:49:44Z</time>
      </trkpt>
      <trkpt lat="45.08203" lon="6.06176">
        <ele>1461</ele>
        <time>2026-08-09T09:49:46Z</time>
      </trkpt>
      <trkpt lat="45.08198" lon="6.06156">
        <ele>1460.2</ele>
        <time>2026-08-09T09:49:48Z</time>
      </trkpt>
      <trkpt lat="45.08195" lon="6.06145">
        <ele>1459.4</ele>
        <time>2026-08-09T09:49:49Z</time>
      </trkpt>
      <trkpt lat="45.08193" lon="6.06132">
        <ele>1458.8</ele>
        <time>2026-08-09T09:49:50Z</time>
      </trkpt>
      <trkpt lat="45.0819" lon="6.0612">
        <ele>1458.4</ele>
        <time>2026-08-09T09:49:51Z</time>
      </trkpt>
      <trkpt lat="45.08187" lon="6.06108">
        <ele>1457.8</ele>
        <time>2026-08-09T09:49:52Z</time>
      </trkpt>
      <trkpt lat="45.08183" lon="6.06096">
        <ele>1457.6</ele>
        <time>2026-08-09T09:49:53Z</time>
      </trkpt>
      <trkpt lat="45.08179" lon="6.06084">
        <ele>1457</ele>
        <time>2026-08-09T09:49:54Z</time>
      </trkpt>
      <trkpt lat="45.08174" lon="6.06071">
        <ele>1456.4</ele>
        <time>2026-08-09T09:49:55Z</time>
      </trkpt>
      <trkpt lat="45.0817" lon="6.06057">
        <ele>1455.6</ele>
        <time>2026-08-09T09:49:56Z</time>
      </trkpt>
      <trkpt lat="45.08166" lon="6.06045">
        <ele>1454.2</ele>
        <time>2026-08-09T09:49:57Z</time>
      </trkpt>
      <trkpt lat="45.08163" lon="6.06033">
        <ele>1452.6</ele>
        <time>2026-08-09T09:49:58Z</time>
      </trkpt>
      <trkpt lat="45.0816" lon="6.06023">
        <ele>1451.2</ele>
        <time>2026-08-09T09:49:59Z</time>
      </trkpt>
      <trkpt lat="45.08157" lon="6.06014">
        <ele>1450.2</ele>
        <time>2026-08-09T09:50:00Z</time>
      </trkpt>
      <trkpt lat="45.08154" lon="6.06005">
        <ele>1448.8</ele>
        <time>2026-08-09T09:50:01Z</time>
      </trkpt>
      <trkpt lat="45.08151" lon="6.05997">
        <ele>1447.4</ele>
        <time>2026-08-09T09:50:02Z</time>
      </trkpt>
      <trkpt lat="45.08147" lon="6.05989">
        <ele>1446</ele>
        <time>2026-08-09T09:50:03Z</time>
      </trkpt>
      <trkpt lat="45.08142" lon="6.05982">
        <ele>1444.8</ele>
        <time>2026-08-09T09:50:04Z</time>
      </trkpt>
      <trkpt lat="45.08132" lon="6.05967">
        <ele>1443.8</ele>
        <time>2026-08-09T09:50:06Z</time>
      </trkpt>
      <trkpt lat="45.08128" lon="6.05958">
        <ele>1443.2</ele>
        <time>2026-08-09T09:50:07Z</time>
      </trkpt>
      <trkpt lat="45.08125" lon="6.05948">
        <ele>1442.6</ele>
        <time>2026-08-09T09:50:08Z</time>
      </trkpt>
      <trkpt lat="45.08118" lon="6.05927">
        <ele>1441.8</ele>
        <time>2026-08-09T09:50:10Z</time>
      </trkpt>
      <trkpt lat="45.08114" lon="6.05916">
        <ele>1441.4</ele>
        <time>2026-08-09T09:50:11Z</time>
      </trkpt>
      <trkpt lat="45.08109" lon="6.05905">
        <ele>1440</ele>
        <time>2026-08-09T09:50:12Z</time>
      </trkpt>
      <trkpt lat="45.08097" lon="6.05884">
        <ele>1438.6</ele>
        <time>2026-08-09T09:50:14Z</time>
      </trkpt>
      <trkpt lat="45.08091" lon="6.05876">
        <ele>1437.4</ele>
        <time>2026-08-09T09:50:15Z</time>
      </trkpt>
      <trkpt lat="45.08086" lon="6.05868">
        <ele>1436.8</ele>
        <time>2026-08-09T09:50:16Z</time>
      </trkpt>
      <trkpt lat="45.08081" lon="6.05859">
        <ele>1435.6</ele>
        <time>2026-08-09T09:50:17Z</time>
      </trkpt>
      <trkpt lat="45.08075" lon="6.0585">
        <ele>1434.6</ele>
        <time>2026-08-09T09:50:18Z</time>
      </trkpt>
      <trkpt lat="45.08071" lon="6.05839">
        <ele>1434</ele>
        <time>2026-08-09T09:50:19Z</time>
      </trkpt>
      <trkpt lat="45.08066" lon="6.05827">
        <ele>1433.2</ele>
        <time>2026-08-09T09:50:20Z</time>
      </trkpt>
      <trkpt lat="45.08061" lon="6.05815">
        <ele>1432.2</ele>
        <time>2026-08-09T09:50:21Z</time>
      </trkpt>
      <trkpt lat="45.08056" lon="6.05802">
        <ele>1431.2</ele>
        <time>2026-08-09T09:50:22Z</time>
      </trkpt>
      <trkpt lat="45.08051" lon="6.05788">
        <ele>1430.8</ele>
        <time>2026-08-09T09:50:23Z</time>
      </trkpt>
      <trkpt lat="45.08047" lon="6.05774">
        <ele>1430.4</ele>
        <time>2026-08-09T09:50:24Z</time>
      </trkpt>
      <trkpt lat="45.08036" lon="6.05746">
        <ele>1428.8</ele>
        <time>2026-08-09T09:50:26Z</time>
      </trkpt>
      <trkpt lat="45.08025" lon="6.05719">
        <ele>1426.6</ele>
        <time>2026-08-09T09:50:28Z</time>
      </trkpt>
      <trkpt lat="45.08019" lon="6.05706">
        <ele>1425.6</ele>
        <time>2026-08-09T09:50:29Z</time>
      </trkpt>
      <trkpt lat="45.08014" lon="6.05693">
        <ele>1424.2</ele>
        <time>2026-08-09T09:50:30Z</time>
      </trkpt>
      <trkpt lat="45.08011" lon="6.05681">
        <ele>1422.6</ele>
        <time>2026-08-09T09:50:31Z</time>
      </trkpt>
      <trkpt lat="45.08009" lon="6.05669">
        <ele>1421</ele>
        <time>2026-08-09T09:50:32Z</time>
      </trkpt>
      <trkpt lat="45.08008" lon="6.05657">
        <ele>1419.8</ele>
        <time>2026-08-09T09:50:33Z</time>
      </trkpt>
      <trkpt lat="45.08009" lon="6.05645">
        <ele>1418.6</ele>
        <time>2026-08-09T09:50:34Z</time>
      </trkpt>
      <trkpt lat="45.08011" lon="6.05633">
        <ele>1417.8</ele>
        <time>2026-08-09T09:50:35Z</time>
      </trkpt>
      <trkpt lat="45.08013" lon="6.0562">
        <ele>1417.4</ele>
        <time>2026-08-09T09:50:36Z</time>
      </trkpt>
      <trkpt lat="45.08016" lon="6.05608">
        <ele>1417</ele>
        <time>2026-08-09T09:50:37Z</time>
      </trkpt>
      <trkpt lat="45.0802" lon="6.05596">
        <ele>1416.8</ele>
        <time>2026-08-09T09:50:38Z</time>
      </trkpt>
      <trkpt lat="45.08025" lon="6.05586">
        <ele>1416.6</ele>
        <time>2026-08-09T09:50:39Z</time>
      </trkpt>
      <trkpt lat="45.0803" lon="6.05578">
        <ele>1416.4</ele>
        <time>2026-08-09T09:50:40Z</time>
      </trkpt>
      <trkpt lat="45.08046" lon="6.05566">
        <ele>1415.6</ele>
        <time>2026-08-09T09:50:42Z</time>
      </trkpt>
      <trkpt lat="45.08055" lon="6.05563">
        <ele>1415.4</ele>
        <time>2026-08-09T09:50:43Z</time>
      </trkpt>
      <trkpt lat="45.08064" lon="6.05559">
        <ele>1415.2</ele>
        <time>2026-08-09T09:50:44Z</time>
      </trkpt>
      <trkpt lat="45.08078" lon="6.05552">
        <ele>1414.8</ele>
        <time>2026-08-09T09:50:46Z</time>
      </trkpt>
      <trkpt lat="45.08083" lon="6.05547">
        <ele>1414.6</ele>
        <time>2026-08-09T09:50:47Z</time>
      </trkpt>
      <trkpt lat="45.08086" lon="6.05541">
        <ele>1414.2</ele>
        <time>2026-08-09T09:50:48Z</time>
      </trkpt>
      <trkpt lat="45.08088" lon="6.05536">
        <ele>1413.8</ele>
        <time>2026-08-09T09:50:49Z</time>
      </trkpt>
      <trkpt lat="45.08089" lon="6.05532">
        <ele>1413</ele>
        <time>2026-08-09T09:50:50Z</time>
      </trkpt>
      <trkpt lat="45.0809" lon="6.05525">
        <ele>1411.6</ele>
        <time>2026-08-09T09:50:52Z</time>
      </trkpt>
      <trkpt lat="45.0809" lon="6.05523">
        <ele>1411.4</ele>
        <time>2026-08-09T09:50:53Z</time>
      </trkpt>
      <trkpt lat="45.08089" lon="6.0552">
        <ele>1411.2</ele>
        <time>2026-08-09T09:50:54Z</time>
      </trkpt>
      <trkpt lat="45.08087" lon="6.05515">
        <ele>1411</ele>
        <time>2026-08-09T09:50:56Z</time>
      </trkpt>
      <trkpt lat="45.08085" lon="6.05511">
        <ele>1410.8</ele>
        <time>2026-08-09T09:50:58Z</time>
      </trkpt>
      <trkpt lat="45.08084" lon="6.05508">
        <ele>1410.6</ele>
        <time>2026-08-09T09:50:59Z</time>
      </trkpt>
      <trkpt lat="45.08083" lon="6.05506">
        <ele>1410.6</ele>
        <time>2026-08-09T09:51:00Z</time>
      </trkpt>
      <trkpt lat="45.08079" lon="6.05501">
        <ele>1410.6</ele>
        <time>2026-08-09T09:51:02Z</time>
      </trkpt>
      <trkpt lat="45.08073" lon="6.05495">
        <ele>1410.4</ele>
        <time>2026-08-09T09:51:04Z</time>
      </trkpt>
      <trkpt lat="45.08063" lon="6.05488">
        <ele>1410.6</ele>
        <time>2026-08-09T09:51:06Z</time>
      </trkpt>
      <trkpt lat="45.08049" lon="6.05481">
        <ele>1410.4</ele>
        <time>2026-08-09T09:51:08Z</time>
      </trkpt>
      <trkpt lat="45.08033" lon="6.05475">
        <ele>1409.8</ele>
        <time>2026-08-09T09:51:10Z</time>
      </trkpt>
      <trkpt lat="45.08024" lon="6.05472">
        <ele>1409.4</ele>
        <time>2026-08-09T09:51:11Z</time>
      </trkpt>
      <trkpt lat="45.08014" lon="6.0547">
        <ele>1408.8</ele>
        <time>2026-08-09T09:51:12Z</time>
      </trkpt>
      <trkpt lat="45.08004" lon="6.05467">
        <ele>1408.2</ele>
        <time>2026-08-09T09:51:13Z</time>
      </trkpt>
      <trkpt lat="45.07993" lon="6.05464">
        <ele>1407.4</ele>
        <time>2026-08-09T09:51:14Z</time>
      </trkpt>
      <trkpt lat="45.07982" lon="6.05461">
        <ele>1406.6</ele>
        <time>2026-08-09T09:51:15Z</time>
      </trkpt>
      <trkpt lat="45.07971" lon="6.0546">
        <ele>1405.6</ele>
        <time>2026-08-09T09:51:16Z</time>
      </trkpt>
      <trkpt lat="45.07959" lon="6.05462">
        <ele>1404.4</ele>
        <time>2026-08-09T09:51:17Z</time>
      </trkpt>
      <trkpt lat="45.07946" lon="6.05465">
        <ele>1403.4</ele>
        <time>2026-08-09T09:51:18Z</time>
      </trkpt>
      <trkpt lat="45.07934" lon="6.05467">
        <ele>1402.2</ele>
        <time>2026-08-09T09:51:19Z</time>
      </trkpt>
      <trkpt lat="45.07923" lon="6.05465">
        <ele>1400.8</ele>
        <time>2026-08-09T09:51:20Z</time>
      </trkpt>
      <trkpt lat="45.07911" lon="6.05459">
        <ele>1399.4</ele>
        <time>2026-08-09T09:51:21Z</time>
      </trkpt>
      <trkpt lat="45.079" lon="6.05453">
        <ele>1398</ele>
        <time>2026-08-09T09:51:22Z</time>
      </trkpt>
      <trkpt lat="45.07888" lon="6.05446">
        <ele>1396.8</ele>
        <time>2026-08-09T09:51:23Z</time>
      </trkpt>
      <trkpt lat="45.07876" lon="6.05438">
        <ele>1395.6</ele>
        <time>2026-08-09T09:51:24Z</time>
      </trkpt>
      <trkpt lat="45.07865" lon="6.05431">
        <ele>1394.2</ele>
        <time>2026-08-09T09:51:25Z</time>
      </trkpt>
      <trkpt lat="45.07853" lon="6.05425">
        <ele>1392.8</ele>
        <time>2026-08-09T09:51:26Z</time>
      </trkpt>
      <trkpt lat="45.07843" lon="6.05419">
        <ele>1390.8</ele>
        <time>2026-08-09T09:51:27Z</time>
      </trkpt>
      <trkpt lat="45.07832" lon="6.05413">
        <ele>1388.4</ele>
        <time>2026-08-09T09:51:28Z</time>
      </trkpt>
      <trkpt lat="45.07823" lon="6.05407">
        <ele>1386.4</ele>
        <time>2026-08-09T09:51:29Z</time>
      </trkpt>
      <trkpt lat="45.07814" lon="6.05401">
        <ele>1385</ele>
        <time>2026-08-09T09:51:30Z</time>
      </trkpt>
      <trkpt lat="45.07806" lon="6.05395">
        <ele>1384</ele>
        <time>2026-08-09T09:51:31Z</time>
      </trkpt>
      <trkpt lat="45.078" lon="6.05389">
        <ele>1383.2</ele>
        <time>2026-08-09T09:51:32Z</time>
      </trkpt>
      <trkpt lat="45.07796" lon="6.05385">
        <ele>1382</ele>
        <time>2026-08-09T09:51:33Z</time>
      </trkpt>
      <trkpt lat="45.07793" lon="6.05381">
        <ele>1381.6</ele>
        <time>2026-08-09T09:51:34Z</time>
      </trkpt>
      <trkpt lat="45.07791" lon="6.05378">
        <ele>1381.2</ele>
        <time>2026-08-09T09:51:35Z</time>
      </trkpt>
      <trkpt lat="45.0779" lon="6.05375">
        <ele>1381</ele>
        <time>2026-08-09T09:51:36Z</time>
      </trkpt>
      <trkpt lat="45.07787" lon="6.05372">
        <ele>1380.8</ele>
        <time>2026-08-09T09:51:38Z</time>
      </trkpt>
      <trkpt lat="45.07786" lon="6.05372">
        <ele>1380.8</ele>
        <time>2026-08-09T09:51:40Z</time>
      </trkpt>
      <trkpt lat="45.07787" lon="6.05373">
        <ele>1380.8</ele>
        <time>2026-08-09T09:51:42Z</time>
      </trkpt>
      <trkpt lat="45.07787" lon="6.05373">
        <ele>1380.8</ele>
        <time>2026-08-09T09:51:43Z</time>
      </trkpt>
      <trkpt lat="45.07787" lon="6.05373">
        <ele>1380.8</ele>
        <time>2026-08-09T09:51:44Z</time>
      </trkpt>
      <trkpt lat="45.07787" lon="6.05373">
        <ele>1380.8</ele>
        <time>2026-08-09T09:51:46Z</time>
      </trkpt>
      <trkpt lat="45.07787" lon="6.05373">
        <ele>1380.8</ele>
        <time>2026-08-09T09:51:48Z</time>
      </trkpt>
      <trkpt lat="45.07787" lon="6.05373">
        <ele>1380.8</ele>
        <time>2026-08-09T09:51:50Z</time>
      </trkpt>
      <trkpt lat="45.07787" lon="6.05373">
        <ele>1380.8</ele>
        <time>2026-08-09T09:51:52Z</time>
      </trkpt>
      <trkpt lat="45.07787" lon="6.05373">
        <ele>1380.8</ele>
        <time>2026-08-09T09:51:54Z</time>
      </trkpt>
      <trkpt lat="45.07786" lon="6.05373">
        <ele>1380.8</ele>
        <time>2026-08-09T09:51:56Z</time>
      </trkpt>
      <trkpt lat="45.07786" lon="6.05372">
        <ele>1380.6</ele>
        <time>2026-08-09T09:51:57Z</time>
      </trkpt>
      <trkpt lat="45.07784" lon="6.05371">
        <ele>1380.6</ele>
        <time>2026-08-09T09:51:58Z</time>
      </trkpt>
      <trkpt lat="45.07782" lon="6.0537">
        <ele>1380.6</ele>
        <time>2026-08-09T09:52:00Z</time>
      </trkpt>
      <trkpt lat="45.07782" lon="6.05369">
        <ele>1380.8</ele>
        <time>2026-08-09T09:52:02Z</time>
      </trkpt>
      <trkpt lat="45.07782" lon="6.05369">
        <ele>1380.8</ele>
        <time>2026-08-09T09:52:03Z</time>
      </trkpt>
      <trkpt lat="45.07782" lon="6.0537">
        <ele>1380.8</ele>
        <time>2026-08-09T09:52:04Z</time>
      </trkpt>
      <trkpt lat="45.07782" lon="6.0537">
        <ele>1380.6</ele>
        <time>2026-08-09T09:52:06Z</time>
      </trkpt>
      <trkpt lat="45.07782" lon="6.0537">
        <ele>1380.2</ele>
        <time>2026-08-09T09:52:07Z</time>
      </trkpt>
      <trkpt lat="45.07782" lon="6.0537">
        <ele>1380.2</ele>
        <time>2026-08-09T09:52:08Z</time>
      </trkpt>
      <trkpt lat="45.07782" lon="6.0537">
        <ele>1380</ele>
        <time>2026-08-09T09:52:10Z</time>
      </trkpt>
      <trkpt lat="45.07782" lon="6.0537">
        <ele>1380</ele>
        <time>2026-08-09T09:52:12Z</time>
      </trkpt>
      <trkpt lat="45.07782" lon="6.0537">
        <ele>1380.2</ele>
        <time>2026-08-09T09:52:14Z</time>
      </trkpt>
      <trkpt lat="45.07782" lon="6.0537">
        <ele>1380.2</ele>
        <time>2026-08-09T09:52:15Z</time>
      </trkpt>
      <trkpt lat="45.07782" lon="6.0537">
        <ele>1380.2</ele>
        <time>2026-08-09T09:52:16Z</time>
      </trkpt>
      <trkpt lat="45.07782" lon="6.05369">
        <ele>1380.2</ele>
        <time>2026-08-09T09:52:18Z</time>
      </trkpt>
      <trkpt lat="45.07782" lon="6.05369">
        <ele>1380.2</ele>
        <time>2026-08-09T09:52:20Z</time>
      </trkpt>
      <trkpt lat="45.07782" lon="6.05369">
        <ele>1380</ele>
        <time>2026-08-09T09:52:22Z</time>
      </trkpt>
      <trkpt lat="45.07782" lon="6.05369">
        <ele>1380</ele>
        <time>2026-08-09T09:52:24Z</time>
      </trkpt>
      <trkpt lat="45.07783" lon="6.05369">
        <ele>1380</ele>
        <time>2026-08-09T09:52:26Z</time>
      </trkpt>
      <trkpt lat="45.07783" lon="6.05369">
        <ele>1380.2</ele>
        <time>2026-08-09T09:52:28Z</time>
      </trkpt>
      <trkpt lat="45.07782" lon="6.05369">
        <ele>1380.2</ele>
        <time>2026-08-09T09:52:30Z</time>
      </trkpt>
      <trkpt lat="45.07782" lon="6.05369">
        <ele>1380</ele>
        <time>2026-08-09T09:52:32Z</time>
      </trkpt>
      <trkpt lat="45.07782" lon="6.05369">
        <ele>1380.2</ele>
        <time>2026-08-09T09:52:34Z</time>
      </trkpt>
      <trkpt lat="45.07782" lon="6.05369">
        <ele>1380.2</ele>
        <time>2026-08-09T09:52:36Z</time>
      </trkpt>
      <trkpt lat="45.07782" lon="6.05369">
        <ele>1380.2</ele>
        <time>2026-08-09T09:52:38Z</time>
      </trkpt>
      <trkpt lat="45.07782" lon="6.05369">
        <ele>1380.2</ele>
        <time>2026-08-09T09:52:40Z</time>
      </trkpt>
      <trkpt lat="45.07782" lon="6.05369">
        <ele>1380</ele>
        <time>2026-08-09T09:52:42Z</time>
      </trkpt>
      <trkpt lat="45.07783" lon="6.05369">
        <ele>1380.2</ele>
        <time>2026-08-09T09:52:44Z</time>
      </trkpt>
      <trkpt lat="45.07783" lon="6.05369">
        <ele>1380.2</ele>
        <time>2026-08-09T09:52:46Z</time>
      </trkpt>
      <trkpt lat="45.07783" lon="6.05369">
        <ele>1380.2</ele>
        <time>2026-08-09T09:52:48Z</time>
      </trkpt>
      <trkpt lat="45.07783" lon="6.05369">
        <ele>1380.2</ele>
        <time>2026-08-09T09:52:50Z</time>
      </trkpt>
      <trkpt lat="45.07783" lon="6.05369">
        <ele>1380.2</ele>
        <time>2026-08-09T09:52:52Z</time>
      </trkpt>
      <trkpt lat="45.07783" lon="6.05369">
        <ele>1380</ele>
        <time>2026-08-09T09:52:53Z</time>
      </trkpt>
      <trkpt lat="45.07783" lon="6.05369">
        <ele>1380</ele>
        <time>2026-08-09T09:52:54Z</time>
      </trkpt>
      <trkpt lat="45.07783" lon="6.05369">
        <ele>1380</ele>
        <time>2026-08-09T09:52:56Z</time>
      </trkpt>
      <trkpt lat="45.07783" lon="6.05369">
        <ele>1380</ele>
        <time>2026-08-09T09:52:58Z</time>
      </trkpt>
      <trkpt lat="45.07783" lon="6.05369">
        <ele>1379.8</ele>
        <time>2026-08-09T09:53:00Z</time>
      </trkpt>
      <trkpt lat="45.07783" lon="6.05369">
        <ele>1379.8</ele>
        <time>2026-08-09T09:53:02Z</time>
      </trkpt>
      <trkpt lat="45.07783" lon="6.05369">
        <ele>1379.6</ele>
        <time>2026-08-09T09:53:04Z</time>
      </trkpt>
      <trkpt lat="45.07783" lon="6.05369">
        <ele>1379.6</ele>
        <time>2026-08-09T09:53:06Z</time>
      </trkpt>
      <trkpt lat="45.07783" lon="6.05369">
        <ele>1379.8</ele>
        <time>2026-08-09T09:53:08Z</time>
      </trkpt>
      <trkpt lat="45.07782" lon="6.05369">
        <ele>1379.6</ele>
        <time>2026-08-09T09:53:10Z</time>
      </trkpt>
      <trkpt lat="45.07778" lon="6.05368">
        <ele>1379.6</ele>
        <time>2026-08-09T09:53:12Z</time>
      </trkpt>
      <trkpt lat="45.07772" lon="6.05363">
        <ele>1379.6</ele>
        <time>2026-08-09T09:53:14Z</time>
      </trkpt>
      <trkpt lat="45.07765" lon="6.05358">
        <ele>1379.4</ele>
        <time>2026-08-09T09:53:16Z</time>
      </trkpt>
      <trkpt lat="45.07758" lon="6.05355">
        <ele>1379.4</ele>
        <time>2026-08-09T09:53:18Z</time>
      </trkpt>
      <trkpt lat="45.07756" lon="6.05354">
        <ele>1379.2</ele>
        <time>2026-08-09T09:53:19Z</time>
      </trkpt>
      <trkpt lat="45.07755" lon="6.05353">
        <ele>1379</ele>
        <time>2026-08-09T09:53:20Z</time>
      </trkpt>
      <trkpt lat="45.07755" lon="6.05352">
        <ele>1378.8</ele>
        <time>2026-08-09T09:53:21Z</time>
      </trkpt>
      <trkpt lat="45.07754" lon="6.05352">
        <ele>1378.4</ele>
        <time>2026-08-09T09:53:22Z</time>
      </trkpt>
      <trkpt lat="45.07754" lon="6.05352">
        <ele>1377.8</ele>
        <time>2026-08-09T09:53:23Z</time>
      </trkpt>
      <trkpt lat="45.07754" lon="6.05352">
        <ele>1377.4</ele>
        <time>2026-08-09T09:53:24Z</time>
      </trkpt>
      <trkpt lat="45.07754" lon="6.05352">
        <ele>1376.8</ele>
        <time>2026-08-09T09:53:26Z</time>
      </trkpt>
      <trkpt lat="45.07754" lon="6.05352">
        <ele>1376.6</ele>
        <time>2026-08-09T09:53:28Z</time>
      </trkpt>
      <trkpt lat="45.07754" lon="6.05352">
        <ele>1376.6</ele>
        <time>2026-08-09T09:53:30Z</time>
      </trkpt>
      <trkpt lat="45.07754" lon="6.05352">
        <ele>1376.6</ele>
        <time>2026-08-09T09:53:32Z</time>
      </trkpt>
      <trkpt lat="45.07754" lon="6.05352">
        <ele>1376.6</ele>
        <time>2026-08-09T09:53:34Z</time>
      </trkpt>
      <trkpt lat="45.07754" lon="6.05352">
        <ele>1376.6</ele>
        <time>2026-08-09T09:53:36Z</time>
      </trkpt>
      <trkpt lat="45.07754" lon="6.05352">
        <ele>1376.8</ele>
        <time>2026-08-09T09:53:38Z</time>
      </trkpt>
      <trkpt lat="45.07754" lon="6.05352">
        <ele>1376.8</ele>
        <time>2026-08-09T09:53:40Z</time>
      </trkpt>
      <trkpt lat="45.07754" lon="6.05352">
        <ele>1376.8</ele>
        <time>2026-08-09T09:53:42Z</time>
      </trkpt>
      <trkpt lat="45.07753" lon="6.05352">
        <ele>1376.8</ele>
        <time>2026-08-09T09:53:43Z</time>
      </trkpt>
      <trkpt lat="45.07751" lon="6.05351">
        <ele>1376.8</ele>
        <time>2026-08-09T09:53:44Z</time>
      </trkpt>
      <trkpt lat="45.07747" lon="6.05351">
        <ele>1376.8</ele>
        <time>2026-08-09T09:53:45Z</time>
      </trkpt>
      <trkpt lat="45.07744" lon="6.05351">
        <ele>1376.6</ele>
        <time>2026-08-09T09:53:46Z</time>
      </trkpt>
      <trkpt lat="45.07734" lon="6.05349">
        <ele>1376.6</ele>
        <time>2026-08-09T09:53:48Z</time>
      </trkpt>
      <trkpt lat="45.07729" lon="6.05347">
        <ele>1376.6</ele>
        <time>2026-08-09T09:53:49Z</time>
      </trkpt>
      <trkpt lat="45.07723" lon="6.05344">
        <ele>1376.6</ele>
        <time>2026-08-09T09:53:50Z</time>
      </trkpt>
      <trkpt lat="45.07716" lon="6.05333">
        <ele>1376.4</ele>
        <time>2026-08-09T09:53:52Z</time>
      </trkpt>
      <trkpt lat="45.07719" lon="6.05315">
        <ele>1376</ele>
        <time>2026-08-09T09:53:54Z</time>
      </trkpt>
      <trkpt lat="45.0773" lon="6.05303">
        <ele>1375.2</ele>
        <time>2026-08-09T09:53:56Z</time>
      </trkpt>
      <trkpt lat="45.07737" lon="6.05297">
        <ele>1374.6</ele>
        <time>2026-08-09T09:53:57Z</time>
      </trkpt>
      <trkpt lat="45.07743" lon="6.05289">
        <ele>1374</ele>
        <time>2026-08-09T09:53:58Z</time>
      </trkpt>
      <trkpt lat="45.07749" lon="6.0528">
        <ele>1373.4</ele>
        <time>2026-08-09T09:53:59Z</time>
      </trkpt>
      <trkpt lat="45.07753" lon="6.05271">
        <ele>1372.8</ele>
        <time>2026-08-09T09:54:00Z</time>
      </trkpt>
      <trkpt lat="45.07758" lon="6.05262">
        <ele>1371.8</ele>
        <time>2026-08-09T09:54:01Z</time>
      </trkpt>
      <trkpt lat="45.07763" lon="6.05252">
        <ele>1370.4</ele>
        <time>2026-08-09T09:54:02Z</time>
      </trkpt>
      <trkpt lat="45.07771" lon="6.05231">
        <ele>1369.6</ele>
        <time>2026-08-09T09:54:04Z</time>
      </trkpt>
      <trkpt lat="45.07775" lon="6.05219">
        <ele>1369.2</ele>
        <time>2026-08-09T09:54:05Z</time>
      </trkpt>
      <trkpt lat="45.07778" lon="6.05206">
        <ele>1368.6</ele>
        <time>2026-08-09T09:54:06Z</time>
      </trkpt>
      <trkpt lat="45.07786" lon="6.05177">
        <ele>1368</ele>
        <time>2026-08-09T09:54:08Z</time>
      </trkpt>
      <trkpt lat="45.0779" lon="6.05162">
        <ele>1367.8</ele>
        <time>2026-08-09T09:54:09Z</time>
      </trkpt>
      <trkpt lat="45.07795" lon="6.05147">
        <ele>1367.2</ele>
        <time>2026-08-09T09:54:10Z</time>
      </trkpt>
      <trkpt lat="45.07801" lon="6.05131">
        <ele>1366.6</ele>
        <time>2026-08-09T09:54:11Z</time>
      </trkpt>
      <trkpt lat="45.07807" lon="6.05115">
        <ele>1365.8</ele>
        <time>2026-08-09T09:54:12Z</time>
      </trkpt>
      <trkpt lat="45.07813" lon="6.05098">
        <ele>1364.8</ele>
        <time>2026-08-09T09:54:13Z</time>
      </trkpt>
      <trkpt lat="45.07819" lon="6.05081">
        <ele>1363.8</ele>
        <time>2026-08-09T09:54:14Z</time>
      </trkpt>
      <trkpt lat="45.07826" lon="6.05064">
        <ele>1362.4</ele>
        <time>2026-08-09T09:54:15Z</time>
      </trkpt>
      <trkpt lat="45.07832" lon="6.05046">
        <ele>1361</ele>
        <time>2026-08-09T09:54:16Z</time>
      </trkpt>
      <trkpt lat="45.07837" lon="6.05029">
        <ele>1359.6</ele>
        <time>2026-08-09T09:54:17Z</time>
      </trkpt>
      <trkpt lat="45.07842" lon="6.05013">
        <ele>1358.2</ele>
        <time>2026-08-09T09:54:18Z</time>
      </trkpt>
      <trkpt lat="45.07845" lon="6.04999">
        <ele>1356.6</ele>
        <time>2026-08-09T09:54:19Z</time>
      </trkpt>
      <trkpt lat="45.07847" lon="6.04985">
        <ele>1354.6</ele>
        <time>2026-08-09T09:54:20Z</time>
      </trkpt>
      <trkpt lat="45.07849" lon="6.04971">
        <ele>1353.2</ele>
        <time>2026-08-09T09:54:21Z</time>
      </trkpt>
      <trkpt lat="45.07849" lon="6.04957">
        <ele>1351.8</ele>
        <time>2026-08-09T09:54:22Z</time>
      </trkpt>
      <trkpt lat="45.0785" lon="6.04943">
        <ele>1350</ele>
        <time>2026-08-09T09:54:23Z</time>
      </trkpt>
      <trkpt lat="45.07849" lon="6.04929">
        <ele>1348.6</ele>
        <time>2026-08-09T09:54:24Z</time>
      </trkpt>
      <trkpt lat="45.07845" lon="6.04913">
        <ele>1347.8</ele>
        <time>2026-08-09T09:54:25Z</time>
      </trkpt>
      <trkpt lat="45.07839" lon="6.04898">
        <ele>1347.2</ele>
        <time>2026-08-09T09:54:26Z</time>
      </trkpt>
      <trkpt lat="45.07827" lon="6.04869">
        <ele>1346.6</ele>
        <time>2026-08-09T09:54:28Z</time>
      </trkpt>
      <trkpt lat="45.07822" lon="6.04856">
        <ele>1346</ele>
        <time>2026-08-09T09:54:29Z</time>
      </trkpt>
      <trkpt lat="45.07818" lon="6.04844">
        <ele>1344.6</ele>
        <time>2026-08-09T09:54:30Z</time>
      </trkpt>
      <trkpt lat="45.07815" lon="6.04831">
        <ele>1343.8</ele>
        <time>2026-08-09T09:54:31Z</time>
      </trkpt>
      <trkpt lat="45.07812" lon="6.04819">
        <ele>1342.6</ele>
        <time>2026-08-09T09:54:32Z</time>
      </trkpt>
      <trkpt lat="45.0781" lon="6.04808">
        <ele>1340.8</ele>
        <time>2026-08-09T09:54:33Z</time>
      </trkpt>
      <trkpt lat="45.07809" lon="6.04797">
        <ele>1338.6</ele>
        <time>2026-08-09T09:54:34Z</time>
      </trkpt>
      <trkpt lat="45.07807" lon="6.04788">
        <ele>1336.4</ele>
        <time>2026-08-09T09:54:35Z</time>
      </trkpt>
      <trkpt lat="45.07805" lon="6.04781">
        <ele>1335.2</ele>
        <time>2026-08-09T09:54:36Z</time>
      </trkpt>
      <trkpt lat="45.07799" lon="6.04773">
        <ele>1334.4</ele>
        <time>2026-08-09T09:54:38Z</time>
      </trkpt>
      <trkpt lat="45.07796" lon="6.04771">
        <ele>1334.2</ele>
        <time>2026-08-09T09:54:39Z</time>
      </trkpt>
      <trkpt lat="45.07792" lon="6.04771">
        <ele>1334.2</ele>
        <time>2026-08-09T09:54:40Z</time>
      </trkpt>
      <trkpt lat="45.07788" lon="6.04774">
        <ele>1334.2</ele>
        <time>2026-08-09T09:54:41Z</time>
      </trkpt>
      <trkpt lat="45.07786" lon="6.04778">
        <ele>1334.2</ele>
        <time>2026-08-09T09:54:42Z</time>
      </trkpt>
      <trkpt lat="45.07783" lon="6.0479">
        <ele>1334</ele>
        <time>2026-08-09T09:54:44Z</time>
      </trkpt>
      <trkpt lat="45.07785" lon="6.04804">
        <ele>1333.8</ele>
        <time>2026-08-09T09:54:46Z</time>
      </trkpt>
      <trkpt lat="45.07787" lon="6.04812">
        <ele>1333.8</ele>
        <time>2026-08-09T09:54:47Z</time>
      </trkpt>
      <trkpt lat="45.07789" lon="6.0482">
        <ele>1333.8</ele>
        <time>2026-08-09T09:54:48Z</time>
      </trkpt>
      <trkpt lat="45.07793" lon="6.0484">
        <ele>1333.8</ele>
        <time>2026-08-09T09:54:50Z</time>
      </trkpt>
      <trkpt lat="45.07795" lon="6.04863">
        <ele>1333.8</ele>
        <time>2026-08-09T09:54:52Z</time>
      </trkpt>
      <trkpt lat="45.07795" lon="6.0489">
        <ele>1333.6</ele>
        <time>2026-08-09T09:54:54Z</time>
      </trkpt>
      <trkpt lat="45.07796" lon="6.04903">
        <ele>1333.2</ele>
        <time>2026-08-09T09:54:55Z</time>
      </trkpt>
      <trkpt lat="45.07799" lon="6.04916">
        <ele>1332.8</ele>
        <time>2026-08-09T09:54:56Z</time>
      </trkpt>
      <trkpt lat="45.07802" lon="6.04928">
        <ele>1332</ele>
        <time>2026-08-09T09:54:57Z</time>
      </trkpt>
      <trkpt lat="45.07802" lon="6.0494">
        <ele>1331</ele>
        <time>2026-08-09T09:54:58Z</time>
      </trkpt>
      <trkpt lat="45.07801" lon="6.04953">
        <ele>1330</ele>
        <time>2026-08-09T09:54:59Z</time>
      </trkpt>
      <trkpt lat="45.07797" lon="6.04966">
        <ele>1327.6</ele>
        <time>2026-08-09T09:55:00Z</time>
      </trkpt>
      <trkpt lat="45.07791" lon="6.04979">
        <ele>1326.2</ele>
        <time>2026-08-09T09:55:01Z</time>
      </trkpt>
      <trkpt lat="45.07786" lon="6.04992">
        <ele>1324.8</ele>
        <time>2026-08-09T09:55:02Z</time>
      </trkpt>
      <trkpt lat="45.07771" lon="6.05019">
        <ele>1323.2</ele>
        <time>2026-08-09T09:55:04Z</time>
      </trkpt>
      <trkpt lat="45.07754" lon="6.05045">
        <ele>1321.4</ele>
        <time>2026-08-09T09:55:06Z</time>
      </trkpt>
      <trkpt lat="45.07745" lon="6.05058">
        <ele>1319.8</ele>
        <time>2026-08-09T09:55:07Z</time>
      </trkpt>
      <trkpt lat="45.07736" lon="6.05071">
        <ele>1318.4</ele>
        <time>2026-08-09T09:55:08Z</time>
      </trkpt>
      <trkpt lat="45.07727" lon="6.05085">
        <ele>1316.6</ele>
        <time>2026-08-09T09:55:09Z</time>
      </trkpt>
      <trkpt lat="45.0772" lon="6.05101">
        <ele>1314.8</ele>
        <time>2026-08-09T09:55:10Z</time>
      </trkpt>
      <trkpt lat="45.07712" lon="6.05117">
        <ele>1312.8</ele>
        <time>2026-08-09T09:55:11Z</time>
      </trkpt>
      <trkpt lat="45.07702" lon="6.05133">
        <ele>1311.2</ele>
        <time>2026-08-09T09:55:12Z</time>
      </trkpt>
      <trkpt lat="45.07692" lon="6.05148">
        <ele>1309.8</ele>
        <time>2026-08-09T09:55:13Z</time>
      </trkpt>
      <trkpt lat="45.07682" lon="6.05161">
        <ele>1308.6</ele>
        <time>2026-08-09T09:55:14Z</time>
      </trkpt>
      <trkpt lat="45.07671" lon="6.05171">
        <ele>1307.2</ele>
        <time>2026-08-09T09:55:15Z</time>
      </trkpt>
      <trkpt lat="45.07659" lon="6.05178">
        <ele>1306</ele>
        <time>2026-08-09T09:55:16Z</time>
      </trkpt>
      <trkpt lat="45.07647" lon="6.05183">
        <ele>1304.6</ele>
        <time>2026-08-09T09:55:17Z</time>
      </trkpt>
      <trkpt lat="45.07634" lon="6.05187">
        <ele>1303.2</ele>
        <time>2026-08-09T09:55:18Z</time>
      </trkpt>
      <trkpt lat="45.07622" lon="6.0519">
        <ele>1301.4</ele>
        <time>2026-08-09T09:55:19Z</time>
      </trkpt>
      <trkpt lat="45.0761" lon="6.05192">
        <ele>1299.4</ele>
        <time>2026-08-09T09:55:20Z</time>
      </trkpt>
      <trkpt lat="45.07598" lon="6.05194">
        <ele>1297.6</ele>
        <time>2026-08-09T09:55:21Z</time>
      </trkpt>
      <trkpt lat="45.07586" lon="6.05197">
        <ele>1296.6</ele>
        <time>2026-08-09T09:55:22Z</time>
      </trkpt>
      <trkpt lat="45.07562" lon="6.05204">
        <ele>1294.6</ele>
        <time>2026-08-09T09:55:24Z</time>
      </trkpt>
      <trkpt lat="45.0755" lon="6.05209">
        <ele>1293.2</ele>
        <time>2026-08-09T09:55:25Z</time>
      </trkpt>
      <trkpt lat="45.07539" lon="6.05214">
        <ele>1292</ele>
        <time>2026-08-09T09:55:26Z</time>
      </trkpt>
      <trkpt lat="45.07529" lon="6.05218">
        <ele>1290.8</ele>
        <time>2026-08-09T09:55:27Z</time>
      </trkpt>
      <trkpt lat="45.0752" lon="6.05221">
        <ele>1289</ele>
        <time>2026-08-09T09:55:28Z</time>
      </trkpt>
      <trkpt lat="45.07512" lon="6.05225">
        <ele>1287.6</ele>
        <time>2026-08-09T09:55:29Z</time>
      </trkpt>
      <trkpt lat="45.07506" lon="6.0523">
        <ele>1285.8</ele>
        <time>2026-08-09T09:55:30Z</time>
      </trkpt>
      <trkpt lat="45.075" lon="6.05235">
        <ele>1283.8</ele>
        <time>2026-08-09T09:55:31Z</time>
      </trkpt>
      <trkpt lat="45.07495" lon="6.05239">
        <ele>1282.8</ele>
        <time>2026-08-09T09:55:32Z</time>
      </trkpt>
      <trkpt lat="45.0749" lon="6.05244">
        <ele>1282.4</ele>
        <time>2026-08-09T09:55:33Z</time>
      </trkpt>
      <trkpt lat="45.07485" lon="6.05247">
        <ele>1282</ele>
        <time>2026-08-09T09:55:34Z</time>
      </trkpt>
      <trkpt lat="45.07476" lon="6.05249">
        <ele>1281.8</ele>
        <time>2026-08-09T09:55:36Z</time>
      </trkpt>
      <trkpt lat="45.07474" lon="6.05245">
        <ele>1281.8</ele>
        <time>2026-08-09T09:55:38Z</time>
      </trkpt>
      <trkpt lat="45.07476" lon="6.05239">
        <ele>1281.8</ele>
        <time>2026-08-09T09:55:40Z</time>
      </trkpt>
      <trkpt lat="45.07478" lon="6.05235">
        <ele>1281.8</ele>
        <time>2026-08-09T09:55:42Z</time>
      </trkpt>
      <trkpt lat="45.0748" lon="6.05233">
        <ele>1281.8</ele>
        <time>2026-08-09T09:55:43Z</time>
      </trkpt>
      <trkpt lat="45.07481" lon="6.05232">
        <ele>1281.8</ele>
        <time>2026-08-09T09:55:44Z</time>
      </trkpt>
      <trkpt lat="45.07484" lon="6.05231">
        <ele>1281.8</ele>
        <time>2026-08-09T09:55:46Z</time>
      </trkpt>
      <trkpt lat="45.07488" lon="6.05229">
        <ele>1282</ele>
        <time>2026-08-09T09:55:48Z</time>
      </trkpt>
      <trkpt lat="45.0749" lon="6.05228">
        <ele>1281.8</ele>
        <time>2026-08-09T09:55:49Z</time>
      </trkpt>
      <trkpt lat="45.07493" lon="6.05227">
        <ele>1281.8</ele>
        <time>2026-08-09T09:55:50Z</time>
      </trkpt>
      <trkpt lat="45.075" lon="6.05223">
        <ele>1281.6</ele>
        <time>2026-08-09T09:55:52Z</time>
      </trkpt>
      <trkpt lat="45.07506" lon="6.0522">
        <ele>1281.8</ele>
        <time>2026-08-09T09:55:54Z</time>
      </trkpt>
      <trkpt lat="45.07514" lon="6.05215">
        <ele>1281.2</ele>
        <time>2026-08-09T09:55:56Z</time>
      </trkpt>
      <trkpt lat="45.07525" lon="6.05209">
        <ele>1280.6</ele>
        <time>2026-08-09T09:55:58Z</time>
      </trkpt>
      <trkpt lat="45.07531" lon="6.05205">
        <ele>1280.4</ele>
        <time>2026-08-09T09:55:59Z</time>
      </trkpt>
      <trkpt lat="45.07538" lon="6.05201">
        <ele>1280.2</ele>
        <time>2026-08-09T09:56:00Z</time>
      </trkpt>
      <trkpt lat="45.07553" lon="6.05191">
        <ele>1279.4</ele>
        <time>2026-08-09T09:56:02Z</time>
      </trkpt>
      <trkpt lat="45.07562" lon="6.05186">
        <ele>1279</ele>
        <time>2026-08-09T09:56:03Z</time>
      </trkpt>
      <trkpt lat="45.07571" lon="6.0518">
        <ele>1278.2</ele>
        <time>2026-08-09T09:56:04Z</time>
      </trkpt>
      <trkpt lat="45.0758" lon="6.05173">
        <ele>1277.4</ele>
        <time>2026-08-09T09:56:05Z</time>
      </trkpt>
      <trkpt lat="45.0759" lon="6.05165">
        <ele>1276.6</ele>
        <time>2026-08-09T09:56:06Z</time>
      </trkpt>
      <trkpt lat="45.076" lon="6.05156">
        <ele>1275.6</ele>
        <time>2026-08-09T09:56:07Z</time>
      </trkpt>
      <trkpt lat="45.0761" lon="6.05146">
        <ele>1274.4</ele>
        <time>2026-08-09T09:56:08Z</time>
      </trkpt>
      <trkpt lat="45.07619" lon="6.05134">
        <ele>1273.4</ele>
        <time>2026-08-09T09:56:09Z</time>
      </trkpt>
      <trkpt lat="45.07628" lon="6.05123">
        <ele>1272.6</ele>
        <time>2026-08-09T09:56:10Z</time>
      </trkpt>
      <trkpt lat="45.07635" lon="6.0511">
        <ele>1271.4</ele>
        <time>2026-08-09T09:56:11Z</time>
      </trkpt>
      <trkpt lat="45.07641" lon="6.05097">
        <ele>1270.2</ele>
        <time>2026-08-09T09:56:12Z</time>
      </trkpt>
      <trkpt lat="45.07647" lon="6.05082">
        <ele>1268.4</ele>
        <time>2026-08-09T09:56:13Z</time>
      </trkpt>
      <trkpt lat="45.07651" lon="6.05067">
        <ele>1266.4</ele>
        <time>2026-08-09T09:56:14Z</time>
      </trkpt>
      <trkpt lat="45.07653" lon="6.05051">
        <ele>1264.6</ele>
        <time>2026-08-09T09:56:15Z</time>
      </trkpt>
      <trkpt lat="45.07655" lon="6.05036">
        <ele>1262.8</ele>
        <time>2026-08-09T09:56:16Z</time>
      </trkpt>
      <trkpt lat="45.07657" lon="6.05022">
        <ele>1261</ele>
        <time>2026-08-09T09:56:17Z</time>
      </trkpt>
      <trkpt lat="45.07659" lon="6.05007">
        <ele>1259.6</ele>
        <time>2026-08-09T09:56:18Z</time>
      </trkpt>
      <trkpt lat="45.07662" lon="6.04993">
        <ele>1258.4</ele>
        <time>2026-08-09T09:56:19Z</time>
      </trkpt>
      <trkpt lat="45.07666" lon="6.04979">
        <ele>1257.2</ele>
        <time>2026-08-09T09:56:20Z</time>
      </trkpt>
      <trkpt lat="45.0767" lon="6.04966">
        <ele>1256</ele>
        <time>2026-08-09T09:56:21Z</time>
      </trkpt>
      <trkpt lat="45.07673" lon="6.04951">
        <ele>1254.8</ele>
        <time>2026-08-09T09:56:22Z</time>
      </trkpt>
      <trkpt lat="45.07675" lon="6.04935">
        <ele>1253.6</ele>
        <time>2026-08-09T09:56:23Z</time>
      </trkpt>
      <trkpt lat="45.07676" lon="6.04919">
        <ele>1252.8</ele>
        <time>2026-08-09T09:56:24Z</time>
      </trkpt>
      <trkpt lat="45.07676" lon="6.04904">
        <ele>1251.8</ele>
        <time>2026-08-09T09:56:25Z</time>
      </trkpt>
      <trkpt lat="45.07675" lon="6.04888">
        <ele>1251.2</ele>
        <time>2026-08-09T09:56:26Z</time>
      </trkpt>
      <trkpt lat="45.07674" lon="6.04873">
        <ele>1250.6</ele>
        <time>2026-08-09T09:56:27Z</time>
      </trkpt>
      <trkpt lat="45.0767" lon="6.04857">
        <ele>1249.6</ele>
        <time>2026-08-09T09:56:28Z</time>
      </trkpt>
      <trkpt lat="45.07665" lon="6.04842">
        <ele>1248.2</ele>
        <time>2026-08-09T09:56:29Z</time>
      </trkpt>
      <trkpt lat="45.07661" lon="6.04828">
        <ele>1246.8</ele>
        <time>2026-08-09T09:56:30Z</time>
      </trkpt>
      <trkpt lat="45.07657" lon="6.04814">
        <ele>1245.6</ele>
        <time>2026-08-09T09:56:31Z</time>
      </trkpt>
      <trkpt lat="45.07656" lon="6.04801">
        <ele>1244.8</ele>
        <time>2026-08-09T09:56:32Z</time>
      </trkpt>
      <trkpt lat="45.07656" lon="6.04788">
        <ele>1244</ele>
        <time>2026-08-09T09:56:33Z</time>
      </trkpt>
      <trkpt lat="45.07658" lon="6.04777">
        <ele>1243.4</ele>
        <time>2026-08-09T09:56:34Z</time>
      </trkpt>
      <trkpt lat="45.07661" lon="6.04767">
        <ele>1242.6</ele>
        <time>2026-08-09T09:56:35Z</time>
      </trkpt>
      <trkpt lat="45.07664" lon="6.04759">
        <ele>1241.8</ele>
        <time>2026-08-09T09:56:36Z</time>
      </trkpt>
      <trkpt lat="45.07668" lon="6.04753">
        <ele>1240.8</ele>
        <time>2026-08-09T09:56:37Z</time>
      </trkpt>
      <trkpt lat="45.0767" lon="6.04748">
        <ele>1239.6</ele>
        <time>2026-08-09T09:56:38Z</time>
      </trkpt>
      <trkpt lat="45.07671" lon="6.04743">
        <ele>1238.6</ele>
        <time>2026-08-09T09:56:39Z</time>
      </trkpt>
      <trkpt lat="45.07672" lon="6.04738">
        <ele>1238</ele>
        <time>2026-08-09T09:56:40Z</time>
      </trkpt>
      <trkpt lat="45.07668" lon="6.04726">
        <ele>1237.4</ele>
        <time>2026-08-09T09:56:42Z</time>
      </trkpt>
      <trkpt lat="45.07662" lon="6.04722">
        <ele>1237.2</ele>
        <time>2026-08-09T09:56:44Z</time>
      </trkpt>
      <trkpt lat="45.07659" lon="6.04723">
        <ele>1237</ele>
        <time>2026-08-09T09:56:45Z</time>
      </trkpt>
      <trkpt lat="45.07656" lon="6.04724">
        <ele>1237</ele>
        <time>2026-08-09T09:56:46Z</time>
      </trkpt>
      <trkpt lat="45.07651" lon="6.04727">
        <ele>1236.8</ele>
        <time>2026-08-09T09:56:48Z</time>
      </trkpt>
      <trkpt lat="45.07649" lon="6.04729">
        <ele>1236.8</ele>
        <time>2026-08-09T09:56:49Z</time>
      </trkpt>
      <trkpt lat="45.07647" lon="6.04732">
        <ele>1236.8</ele>
        <time>2026-08-09T09:56:50Z</time>
      </trkpt>
      <trkpt lat="45.07646" lon="6.04735">
        <ele>1236.8</ele>
        <time>2026-08-09T09:56:51Z</time>
      </trkpt>
      <trkpt lat="45.07645" lon="6.04739">
        <ele>1236.8</ele>
        <time>2026-08-09T09:56:52Z</time>
      </trkpt>
      <trkpt lat="45.07643" lon="6.04748">
        <ele>1236.8</ele>
        <time>2026-08-09T09:56:54Z</time>
      </trkpt>
      <trkpt lat="45.0764" lon="6.04759">
        <ele>1236.8</ele>
        <time>2026-08-09T09:56:56Z</time>
      </trkpt>
      <trkpt lat="45.07638" lon="6.04766">
        <ele>1236.8</ele>
        <time>2026-08-09T09:56:57Z</time>
      </trkpt>
      <trkpt lat="45.07635" lon="6.04773">
        <ele>1236.6</ele>
        <time>2026-08-09T09:56:58Z</time>
      </trkpt>
      <trkpt lat="45.07629" lon="6.04788">
        <ele>1236.4</ele>
        <time>2026-08-09T09:57:00Z</time>
      </trkpt>
      <trkpt lat="45.07627" lon="6.04797">
        <ele>1236.2</ele>
        <time>2026-08-09T09:57:01Z</time>
      </trkpt>
      <trkpt lat="45.07626" lon="6.04807">
        <ele>1235.8</ele>
        <time>2026-08-09T09:57:02Z</time>
      </trkpt>
      <trkpt lat="45.07628" lon="6.0483">
        <ele>1234.8</ele>
        <time>2026-08-09T09:57:04Z</time>
      </trkpt>
      <trkpt lat="45.07632" lon="6.04855">
        <ele>1233.6</ele>
        <time>2026-08-09T09:57:06Z</time>
      </trkpt>
      <trkpt lat="45.07633" lon="6.04867">
        <ele>1232.8</ele>
        <time>2026-08-09T09:57:07Z</time>
      </trkpt>
      <trkpt lat="45.07634" lon="6.04881">
        <ele>1231.6</ele>
        <time>2026-08-09T09:57:08Z</time>
      </trkpt>
      <trkpt lat="45.07632" lon="6.04896">
        <ele>1230.4</ele>
        <time>2026-08-09T09:57:09Z</time>
      </trkpt>
      <trkpt lat="45.07629" lon="6.04911">
        <ele>1229.2</ele>
        <time>2026-08-09T09:57:10Z</time>
      </trkpt>
      <trkpt lat="45.07624" lon="6.04924">
        <ele>1228.6</ele>
        <time>2026-08-09T09:57:11Z</time>
      </trkpt>
      <trkpt lat="45.07619" lon="6.04938">
        <ele>1227.6</ele>
        <time>2026-08-09T09:57:12Z</time>
      </trkpt>
      <trkpt lat="45.07613" lon="6.04952">
        <ele>1226.4</ele>
        <time>2026-08-09T09:57:13Z</time>
      </trkpt>
      <trkpt lat="45.07607" lon="6.04966">
        <ele>1225</ele>
        <time>2026-08-09T09:57:14Z</time>
      </trkpt>
      <trkpt lat="45.07602" lon="6.04982">
        <ele>1224</ele>
        <time>2026-08-09T09:57:15Z</time>
      </trkpt>
      <trkpt lat="45.07597" lon="6.04997">
        <ele>1222.8</ele>
        <time>2026-08-09T09:57:16Z</time>
      </trkpt>
      <trkpt lat="45.07593" lon="6.05012">
        <ele>1221.6</ele>
        <time>2026-08-09T09:57:17Z</time>
      </trkpt>
      <trkpt lat="45.07589" lon="6.05024">
        <ele>1220.4</ele>
        <time>2026-08-09T09:57:18Z</time>
      </trkpt>
      <trkpt lat="45.07583" lon="6.05037">
        <ele>1219.4</ele>
        <time>2026-08-09T09:57:19Z</time>
      </trkpt>
      <trkpt lat="45.07575" lon="6.05047">
        <ele>1218.4</ele>
        <time>2026-08-09T09:57:20Z</time>
      </trkpt>
      <trkpt lat="45.07566" lon="6.05056">
        <ele>1217.2</ele>
        <time>2026-08-09T09:57:21Z</time>
      </trkpt>
      <trkpt lat="45.07555" lon="6.05063">
        <ele>1214.8</ele>
        <time>2026-08-09T09:57:22Z</time>
      </trkpt>
      <trkpt lat="45.07545" lon="6.05071">
        <ele>1213.8</ele>
        <time>2026-08-09T09:57:23Z</time>
      </trkpt>
      <trkpt lat="45.07534" lon="6.05077">
        <ele>1213</ele>
        <time>2026-08-09T09:57:24Z</time>
      </trkpt>
      <trkpt lat="45.07522" lon="6.05081">
        <ele>1212.4</ele>
        <time>2026-08-09T09:57:25Z</time>
      </trkpt>
      <trkpt lat="45.07509" lon="6.05083">
        <ele>1211.8</ele>
        <time>2026-08-09T09:57:26Z</time>
      </trkpt>
      <trkpt lat="45.07495" lon="6.05087">
        <ele>1211.4</ele>
        <time>2026-08-09T09:57:27Z</time>
      </trkpt>
      <trkpt lat="45.07484" lon="6.0509">
        <ele>1211</ele>
        <time>2026-08-09T09:57:28Z</time>
      </trkpt>
      <trkpt lat="45.07472" lon="6.05095">
        <ele>1209.8</ele>
        <time>2026-08-09T09:57:29Z</time>
      </trkpt>
      <trkpt lat="45.07461" lon="6.051">
        <ele>1208.6</ele>
        <time>2026-08-09T09:57:30Z</time>
      </trkpt>
      <trkpt lat="45.0745" lon="6.05107">
        <ele>1207.2</ele>
        <time>2026-08-09T09:57:31Z</time>
      </trkpt>
      <trkpt lat="45.0744" lon="6.05115">
        <ele>1205.8</ele>
        <time>2026-08-09T09:57:32Z</time>
      </trkpt>
      <trkpt lat="45.0743" lon="6.05124">
        <ele>1204.6</ele>
        <time>2026-08-09T09:57:33Z</time>
      </trkpt>
      <trkpt lat="45.07419" lon="6.05132">
        <ele>1203.4</ele>
        <time>2026-08-09T09:57:34Z</time>
      </trkpt>
      <trkpt lat="45.07398" lon="6.0515">
        <ele>1201.4</ele>
        <time>2026-08-09T09:57:36Z</time>
      </trkpt>
      <trkpt lat="45.07388" lon="6.05159">
        <ele>1200.2</ele>
        <time>2026-08-09T09:57:37Z</time>
      </trkpt>
      <trkpt lat="45.07379" lon="6.05168">
        <ele>1199.2</ele>
        <time>2026-08-09T09:57:38Z</time>
      </trkpt>
      <trkpt lat="45.07369" lon="6.05177">
        <ele>1198.6</ele>
        <time>2026-08-09T09:57:39Z</time>
      </trkpt>
      <trkpt lat="45.0736" lon="6.05186">
        <ele>1197.6</ele>
        <time>2026-08-09T09:57:40Z</time>
      </trkpt>
      <trkpt lat="45.07352" lon="6.05195">
        <ele>1196.4</ele>
        <time>2026-08-09T09:57:41Z</time>
      </trkpt>
      <trkpt lat="45.07345" lon="6.05202">
        <ele>1195.4</ele>
        <time>2026-08-09T09:57:42Z</time>
      </trkpt>
      <trkpt lat="45.0734" lon="6.05209">
        <ele>1194.4</ele>
        <time>2026-08-09T09:57:43Z</time>
      </trkpt>
      <trkpt lat="45.07336" lon="6.05215">
        <ele>1193.6</ele>
        <time>2026-08-09T09:57:44Z</time>
      </trkpt>
      <trkpt lat="45.07332" lon="6.0522">
        <ele>1193.2</ele>
        <time>2026-08-09T09:57:45Z</time>
      </trkpt>
      <trkpt lat="45.07328" lon="6.0522">
        <ele>1193</ele>
        <time>2026-08-09T09:57:46Z</time>
      </trkpt>
      <trkpt lat="45.07322" lon="6.05216">
        <ele>1192.6</ele>
        <time>2026-08-09T09:57:48Z</time>
      </trkpt>
      <trkpt lat="45.07323" lon="6.05213">
        <ele>1192.4</ele>
        <time>2026-08-09T09:57:49Z</time>
      </trkpt>
      <trkpt lat="45.07326" lon="6.0521">
        <ele>1192.4</ele>
        <time>2026-08-09T09:57:50Z</time>
      </trkpt>
      <trkpt lat="45.07328" lon="6.05208">
        <ele>1192.2</ele>
        <time>2026-08-09T09:57:51Z</time>
      </trkpt>
      <trkpt lat="45.0733" lon="6.05207">
        <ele>1192.2</ele>
        <time>2026-08-09T09:57:52Z</time>
      </trkpt>
      <trkpt lat="45.07333" lon="6.05205">
        <ele>1192.4</ele>
        <time>2026-08-09T09:57:54Z</time>
      </trkpt>
      <trkpt lat="45.07336" lon="6.05202">
        <ele>1192.4</ele>
        <time>2026-08-09T09:57:56Z</time>
      </trkpt>
      <trkpt lat="45.07337" lon="6.052">
        <ele>1192.4</ele>
        <time>2026-08-09T09:57:57Z</time>
      </trkpt>
      <trkpt lat="45.0734" lon="6.05197">
        <ele>1192.4</ele>
        <time>2026-08-09T09:57:58Z</time>
      </trkpt>
      <trkpt lat="45.07346" lon="6.05192">
        <ele>1192.4</ele>
        <time>2026-08-09T09:58:00Z</time>
      </trkpt>
      <trkpt lat="45.0735" lon="6.05188">
        <ele>1192.4</ele>
        <time>2026-08-09T09:58:01Z</time>
      </trkpt>
      <trkpt lat="45.07354" lon="6.05185">
        <ele>1192.6</ele>
        <time>2026-08-09T09:58:02Z</time>
      </trkpt>
      <trkpt lat="45.07358" lon="6.0518">
        <ele>1192.4</ele>
        <time>2026-08-09T09:58:03Z</time>
      </trkpt>
      <trkpt lat="45.07362" lon="6.05174">
        <ele>1192.4</ele>
        <time>2026-08-09T09:58:04Z</time>
      </trkpt>
      <trkpt lat="45.07367" lon="6.05167">
        <ele>1192.4</ele>
        <time>2026-08-09T09:58:05Z</time>
      </trkpt>
      <trkpt lat="45.07372" lon="6.05161">
        <ele>1192</ele>
        <time>2026-08-09T09:58:06Z</time>
      </trkpt>
      <trkpt lat="45.07382" lon="6.05146">
        <ele>1191.4</ele>
        <time>2026-08-09T09:58:08Z</time>
      </trkpt>
      <trkpt lat="45.07388" lon="6.05138">
        <ele>1191</ele>
        <time>2026-08-09T09:58:09Z</time>
      </trkpt>
      <trkpt lat="45.07394" lon="6.0513">
        <ele>1190.8</ele>
        <time>2026-08-09T09:58:10Z</time>
      </trkpt>
      <trkpt lat="45.07401" lon="6.05121">
        <ele>1190.2</ele>
        <time>2026-08-09T09:58:11Z</time>
      </trkpt>
      <trkpt lat="45.07408" lon="6.05113">
        <ele>1189.6</ele>
        <time>2026-08-09T09:58:12Z</time>
      </trkpt>
      <trkpt lat="45.07416" lon="6.05104">
        <ele>1189</ele>
        <time>2026-08-09T09:58:13Z</time>
      </trkpt>
      <trkpt lat="45.07423" lon="6.05094">
        <ele>1188.2</ele>
        <time>2026-08-09T09:58:14Z</time>
      </trkpt>
      <trkpt lat="45.0743" lon="6.05082">
        <ele>1187.2</ele>
        <time>2026-08-09T09:58:15Z</time>
      </trkpt>
      <trkpt lat="45.07436" lon="6.05069">
        <ele>1186.2</ele>
        <time>2026-08-09T09:58:16Z</time>
      </trkpt>
      <trkpt lat="45.07441" lon="6.05058">
        <ele>1185.4</ele>
        <time>2026-08-09T09:58:17Z</time>
      </trkpt>
      <trkpt lat="45.07447" lon="6.05047">
        <ele>1184.4</ele>
        <time>2026-08-09T09:58:18Z</time>
      </trkpt>
      <trkpt lat="45.07454" lon="6.05038">
        <ele>1182</ele>
        <time>2026-08-09T09:58:19Z</time>
      </trkpt>
      <trkpt lat="45.07464" lon="6.05031">
        <ele>1180.8</ele>
        <time>2026-08-09T09:58:20Z</time>
      </trkpt>
      <trkpt lat="45.07474" lon="6.05027">
        <ele>1179.6</ele>
        <time>2026-08-09T09:58:21Z</time>
      </trkpt>
      <trkpt lat="45.07485" lon="6.05023">
        <ele>1178.6</ele>
        <time>2026-08-09T09:58:22Z</time>
      </trkpt>
      <trkpt lat="45.07496" lon="6.05018">
        <ele>1177.6</ele>
        <time>2026-08-09T09:58:23Z</time>
      </trkpt>
      <trkpt lat="45.07506" lon="6.05013">
        <ele>1177</ele>
        <time>2026-08-09T09:58:24Z</time>
      </trkpt>
      <trkpt lat="45.07515" lon="6.05006">
        <ele>1176.4</ele>
        <time>2026-08-09T09:58:25Z</time>
      </trkpt>
      <trkpt lat="45.07523" lon="6.04998">
        <ele>1175.8</ele>
        <time>2026-08-09T09:58:26Z</time>
      </trkpt>
      <trkpt lat="45.07528" lon="6.04987">
        <ele>1174.8</ele>
        <time>2026-08-09T09:58:27Z</time>
      </trkpt>
      <trkpt lat="45.07532" lon="6.04976">
        <ele>1173.8</ele>
        <time>2026-08-09T09:58:28Z</time>
      </trkpt>
      <trkpt lat="45.07534" lon="6.04962">
        <ele>1172.4</ele>
        <time>2026-08-09T09:58:29Z</time>
      </trkpt>
      <trkpt lat="45.07534" lon="6.04946">
        <ele>1171.2</ele>
        <time>2026-08-09T09:58:30Z</time>
      </trkpt>
      <trkpt lat="45.07534" lon="6.0493">
        <ele>1170</ele>
        <time>2026-08-09T09:58:31Z</time>
      </trkpt>
      <trkpt lat="45.07535" lon="6.04916">
        <ele>1169</ele>
        <time>2026-08-09T09:58:32Z</time>
      </trkpt>
      <trkpt lat="45.07535" lon="6.04903">
        <ele>1168.6</ele>
        <time>2026-08-09T09:58:33Z</time>
      </trkpt>
      <trkpt lat="45.07535" lon="6.0489">
        <ele>1168.2</ele>
        <time>2026-08-09T09:58:34Z</time>
      </trkpt>
      <trkpt lat="45.07533" lon="6.04878">
        <ele>1167.8</ele>
        <time>2026-08-09T09:58:35Z</time>
      </trkpt>
      <trkpt lat="45.0753" lon="6.04867">
        <ele>1167.2</ele>
        <time>2026-08-09T09:58:36Z</time>
      </trkpt>
      <trkpt lat="45.07526" lon="6.04855">
        <ele>1166</ele>
        <time>2026-08-09T09:58:37Z</time>
      </trkpt>
      <trkpt lat="45.07521" lon="6.04843">
        <ele>1164.6</ele>
        <time>2026-08-09T09:58:38Z</time>
      </trkpt>
      <trkpt lat="45.07516" lon="6.0483">
        <ele>1163.8</ele>
        <time>2026-08-09T09:58:39Z</time>
      </trkpt>
      <trkpt lat="45.07511" lon="6.04817">
        <ele>1163.2</ele>
        <time>2026-08-09T09:58:40Z</time>
      </trkpt>
      <trkpt lat="45.07506" lon="6.04804">
        <ele>1163</ele>
        <time>2026-08-09T09:58:41Z</time>
      </trkpt>
      <trkpt lat="45.07503" lon="6.0479">
        <ele>1162.8</ele>
        <time>2026-08-09T09:58:42Z</time>
      </trkpt>
      <trkpt lat="45.07498" lon="6.04766">
        <ele>1162.2</ele>
        <time>2026-08-09T09:58:44Z</time>
      </trkpt>
      <trkpt lat="45.07493" lon="6.04759">
        <ele>1161.6</ele>
        <time>2026-08-09T09:58:45Z</time>
      </trkpt>
      <trkpt lat="45.07489" lon="6.04756">
        <ele>1160.8</ele>
        <time>2026-08-09T09:58:46Z</time>
      </trkpt>
      <trkpt lat="45.07486" lon="6.04756">
        <ele>1159.2</ele>
        <time>2026-08-09T09:58:47Z</time>
      </trkpt>
      <trkpt lat="45.07482" lon="6.04757">
        <ele>1159</ele>
        <time>2026-08-09T09:58:48Z</time>
      </trkpt>
      <trkpt lat="45.07481" lon="6.04762">
        <ele>1158.8</ele>
        <time>2026-08-09T09:58:50Z</time>
      </trkpt>
      <trkpt lat="45.0748" lon="6.04763">
        <ele>1158.8</ele>
        <time>2026-08-09T09:58:52Z</time>
      </trkpt>
      <trkpt lat="45.07479" lon="6.04763">
        <ele>1158.8</ele>
        <time>2026-08-09T09:58:54Z</time>
      </trkpt>
      <trkpt lat="45.07478" lon="6.04763">
        <ele>1158.8</ele>
        <time>2026-08-09T09:58:56Z</time>
      </trkpt>
      <trkpt lat="45.07478" lon="6.04763">
        <ele>1159</ele>
        <time>2026-08-09T09:58:58Z</time>
      </trkpt>
      <trkpt lat="45.07478" lon="6.04763">
        <ele>1159</ele>
        <time>2026-08-09T09:59:00Z</time>
      </trkpt>
      <trkpt lat="45.07477" lon="6.04763">
        <ele>1159.2</ele>
        <time>2026-08-09T09:59:02Z</time>
      </trkpt>
      <trkpt lat="45.07478" lon="6.04763">
        <ele>1159.2</ele>
        <time>2026-08-09T09:59:04Z</time>
      </trkpt>
      <trkpt lat="45.07477" lon="6.04764">
        <ele>1159.2</ele>
        <time>2026-08-09T09:59:06Z</time>
      </trkpt>
      <trkpt lat="45.07477" lon="6.04764">
        <ele>1159.2</ele>
        <time>2026-08-09T09:59:08Z</time>
      </trkpt>
      <trkpt lat="45.07477" lon="6.04764">
        <ele>1159.2</ele>
        <time>2026-08-09T09:59:10Z</time>
      </trkpt>
      <trkpt lat="45.07478" lon="6.04765">
        <ele>1159.2</ele>
        <time>2026-08-09T09:59:11Z</time>
      </trkpt>
      <trkpt lat="45.07478" lon="6.04766">
        <ele>1159.2</ele>
        <time>2026-08-09T09:59:12Z</time>
      </trkpt>
      <trkpt lat="45.07478" lon="6.04768">
        <ele>1159.2</ele>
        <time>2026-08-09T09:59:13Z</time>
      </trkpt>
      <trkpt lat="45.07479" lon="6.04771">
        <ele>1159.2</ele>
        <time>2026-08-09T09:59:14Z</time>
      </trkpt>
      <trkpt lat="45.0748" lon="6.04778">
        <ele>1159</ele>
        <time>2026-08-09T09:59:16Z</time>
      </trkpt>
      <trkpt lat="45.07481" lon="6.04783">
        <ele>1159</ele>
        <time>2026-08-09T09:59:17Z</time>
      </trkpt>
      <trkpt lat="45.07483" lon="6.04789">
        <ele>1159</ele>
        <time>2026-08-09T09:59:18Z</time>
      </trkpt>
      <trkpt lat="45.07486" lon="6.04795">
        <ele>1159</ele>
        <time>2026-08-09T09:59:19Z</time>
      </trkpt>
      <trkpt lat="45.07489" lon="6.04801">
        <ele>1159</ele>
        <time>2026-08-09T09:59:20Z</time>
      </trkpt>
      <trkpt lat="45.07495" lon="6.04816">
        <ele>1158.8</ele>
        <time>2026-08-09T09:59:22Z</time>
      </trkpt>
      <trkpt lat="45.07497" lon="6.04825">
        <ele>1158.6</ele>
        <time>2026-08-09T09:59:23Z</time>
      </trkpt>
      <trkpt lat="45.075" lon="6.04836">
        <ele>1158.2</ele>
        <time>2026-08-09T09:59:24Z</time>
      </trkpt>
      <trkpt lat="45.07502" lon="6.04846">
        <ele>1157.6</ele>
        <time>2026-08-09T09:59:25Z</time>
      </trkpt>
      <trkpt lat="45.07503" lon="6.04858">
        <ele>1157.2</ele>
        <time>2026-08-09T09:59:26Z</time>
      </trkpt>
      <trkpt lat="45.07502" lon="6.04871">
        <ele>1157</ele>
        <time>2026-08-09T09:59:27Z</time>
      </trkpt>
      <trkpt lat="45.07499" lon="6.04885">
        <ele>1156.4</ele>
        <time>2026-08-09T09:59:28Z</time>
      </trkpt>
      <trkpt lat="45.07495" lon="6.04899">
        <ele>1155.6</ele>
        <time>2026-08-09T09:59:29Z</time>
      </trkpt>
      <trkpt lat="45.0749" lon="6.04912">
        <ele>1154.6</ele>
        <time>2026-08-09T09:59:30Z</time>
      </trkpt>
      <trkpt lat="45.07486" lon="6.04924">
        <ele>1153.4</ele>
        <time>2026-08-09T09:59:31Z</time>
      </trkpt>
      <trkpt lat="45.07481" lon="6.04936">
        <ele>1152</ele>
        <time>2026-08-09T09:59:32Z</time>
      </trkpt>
      <trkpt lat="45.07475" lon="6.04945">
        <ele>1150.8</ele>
        <time>2026-08-09T09:59:33Z</time>
      </trkpt>
      <trkpt lat="45.07467" lon="6.04953">
        <ele>1149.6</ele>
        <time>2026-08-09T09:59:34Z</time>
      </trkpt>
      <trkpt lat="45.07458" lon="6.04959">
        <ele>1148.4</ele>
        <time>2026-08-09T09:59:35Z</time>
      </trkpt>
      <trkpt lat="45.07447" lon="6.04962">
        <ele>1147.2</ele>
        <time>2026-08-09T09:59:36Z</time>
      </trkpt>
      <trkpt lat="45.07435" lon="6.04963">
        <ele>1145.6</ele>
        <time>2026-08-09T09:59:37Z</time>
      </trkpt>
      <trkpt lat="45.07423" lon="6.04965">
        <ele>1144.2</ele>
        <time>2026-08-09T09:59:38Z</time>
      </trkpt>
      <trkpt lat="45.07412" lon="6.04968">
        <ele>1143.4</ele>
        <time>2026-08-09T09:59:39Z</time>
      </trkpt>
      <trkpt lat="45.07401" lon="6.04974">
        <ele>1142.8</ele>
        <time>2026-08-09T09:59:40Z</time>
      </trkpt>
      <trkpt lat="45.07384" lon="6.04995">
        <ele>1141</ele>
        <time>2026-08-09T09:59:42Z</time>
      </trkpt>
      <trkpt lat="45.07375" lon="6.05006">
        <ele>1139.2</ele>
        <time>2026-08-09T09:59:43Z</time>
      </trkpt>
      <trkpt lat="45.07367" lon="6.05016">
        <ele>1135.8</ele>
        <time>2026-08-09T09:59:44Z</time>
      </trkpt>
      <trkpt lat="45.07357" lon="6.05025">
        <ele>1134</ele>
        <time>2026-08-09T09:59:45Z</time>
      </trkpt>
      <trkpt lat="45.07348" lon="6.05034">
        <ele>1132.8</ele>
        <time>2026-08-09T09:59:46Z</time>
      </trkpt>
      <trkpt lat="45.07329" lon="6.0505">
        <ele>1131.4</ele>
        <time>2026-08-09T09:59:48Z</time>
      </trkpt>
      <trkpt lat="45.0732" lon="6.05057">
        <ele>1130.4</ele>
        <time>2026-08-09T09:59:49Z</time>
      </trkpt>
      <trkpt lat="45.07309" lon="6.05064">
        <ele>1129</ele>
        <time>2026-08-09T09:59:50Z</time>
      </trkpt>
      <trkpt lat="45.073" lon="6.05072">
        <ele>1127.8</ele>
        <time>2026-08-09T09:59:51Z</time>
      </trkpt>
      <trkpt lat="45.07292" lon="6.05079">
        <ele>1126.8</ele>
        <time>2026-08-09T09:59:52Z</time>
      </trkpt>
      <trkpt lat="45.07284" lon="6.05087">
        <ele>1125.4</ele>
        <time>2026-08-09T09:59:53Z</time>
      </trkpt>
      <trkpt lat="45.07277" lon="6.05094">
        <ele>1124</ele>
        <time>2026-08-09T09:59:54Z</time>
      </trkpt>
      <trkpt lat="45.07271" lon="6.05102">
        <ele>1122.8</ele>
        <time>2026-08-09T09:59:55Z</time>
      </trkpt>
      <trkpt lat="45.07266" lon="6.0511">
        <ele>1122</ele>
        <time>2026-08-09T09:59:56Z</time>
      </trkpt>
      <trkpt lat="45.07262" lon="6.05117">
        <ele>1120.4</ele>
        <time>2026-08-09T09:59:57Z</time>
      </trkpt>
      <trkpt lat="45.07259" lon="6.05123">
        <ele>1119.6</ele>
        <time>2026-08-09T09:59:58Z</time>
      </trkpt>
      <trkpt lat="45.07256" lon="6.05128">
        <ele>1119.2</ele>
        <time>2026-08-09T09:59:59Z</time>
      </trkpt>
      <trkpt lat="45.07253" lon="6.05129">
        <ele>1119</ele>
        <time>2026-08-09T10:00:00Z</time>
      </trkpt>
      <trkpt lat="45.07247" lon="6.05125">
        <ele>1118.8</ele>
        <time>2026-08-09T10:00:02Z</time>
      </trkpt>
      <trkpt lat="45.07246" lon="6.05114">
        <ele>1118.8</ele>
        <time>2026-08-09T10:00:04Z</time>
      </trkpt>
      <trkpt lat="45.07249" lon="6.05109">
        <ele>1118.8</ele>
        <time>2026-08-09T10:00:05Z</time>
      </trkpt>
      <trkpt lat="45.07253" lon="6.05103">
        <ele>1118.6</ele>
        <time>2026-08-09T10:00:06Z</time>
      </trkpt>
      <trkpt lat="45.07263" lon="6.05089">
        <ele>1118.6</ele>
        <time>2026-08-09T10:00:08Z</time>
      </trkpt>
      <trkpt lat="45.07268" lon="6.0508">
        <ele>1118.6</ele>
        <time>2026-08-09T10:00:09Z</time>
      </trkpt>
      <trkpt lat="45.07273" lon="6.05071">
        <ele>1118.6</ele>
        <time>2026-08-09T10:00:10Z</time>
      </trkpt>
      <trkpt lat="45.07286" lon="6.0505">
        <ele>1117.8</ele>
        <time>2026-08-09T10:00:12Z</time>
      </trkpt>
      <trkpt lat="45.073" lon="6.05028">
        <ele>1116.2</ele>
        <time>2026-08-09T10:00:14Z</time>
      </trkpt>
      <trkpt lat="45.07308" lon="6.05015">
        <ele>1115.2</ele>
        <time>2026-08-09T10:00:15Z</time>
      </trkpt>
      <trkpt lat="45.07316" lon="6.05003">
        <ele>1114</ele>
        <time>2026-08-09T10:00:16Z</time>
      </trkpt>
      <trkpt lat="45.07323" lon="6.04989">
        <ele>1112.6</ele>
        <time>2026-08-09T10:00:17Z</time>
      </trkpt>
      <trkpt lat="45.07329" lon="6.04975">
        <ele>1111.2</ele>
        <time>2026-08-09T10:00:18Z</time>
      </trkpt>
      <trkpt lat="45.07333" lon="6.0496">
        <ele>1110.4</ele>
        <time>2026-08-09T10:00:19Z</time>
      </trkpt>
      <trkpt lat="45.07337" lon="6.04946">
        <ele>1109.2</ele>
        <time>2026-08-09T10:00:20Z</time>
      </trkpt>
      <trkpt lat="45.07342" lon="6.04933">
        <ele>1107.8</ele>
        <time>2026-08-09T10:00:21Z</time>
      </trkpt>
      <trkpt lat="45.07348" lon="6.04921">
        <ele>1106.2</ele>
        <time>2026-08-09T10:00:22Z</time>
      </trkpt>
      <trkpt lat="45.07355" lon="6.0491">
        <ele>1104.4</ele>
        <time>2026-08-09T10:00:23Z</time>
      </trkpt>
      <trkpt lat="45.07361" lon="6.049">
        <ele>1102.8</ele>
        <time>2026-08-09T10:00:24Z</time>
      </trkpt>
      <trkpt lat="45.07367" lon="6.04889">
        <ele>1101.8</ele>
        <time>2026-08-09T10:00:25Z</time>
      </trkpt>
      <trkpt lat="45.07371" lon="6.04877">
        <ele>1100.6</ele>
        <time>2026-08-09T10:00:26Z</time>
      </trkpt>
      <trkpt lat="45.07372" lon="6.04863">
        <ele>1099.6</ele>
        <time>2026-08-09T10:00:27Z</time>
      </trkpt>
      <trkpt lat="45.07371" lon="6.04848">
        <ele>1098.8</ele>
        <time>2026-08-09T10:00:28Z</time>
      </trkpt>
      <trkpt lat="45.07369" lon="6.04833">
        <ele>1098.4</ele>
        <time>2026-08-09T10:00:29Z</time>
      </trkpt>
      <trkpt lat="45.07366" lon="6.04818">
        <ele>1097.2</ele>
        <time>2026-08-09T10:00:30Z</time>
      </trkpt>
      <trkpt lat="45.07362" lon="6.04803">
        <ele>1095.6</ele>
        <time>2026-08-09T10:00:31Z</time>
      </trkpt>
      <trkpt lat="45.07357" lon="6.0479">
        <ele>1094.6</ele>
        <time>2026-08-09T10:00:32Z</time>
      </trkpt>
      <trkpt lat="45.0735" lon="6.04778">
        <ele>1094</ele>
        <time>2026-08-09T10:00:33Z</time>
      </trkpt>
      <trkpt lat="45.07342" lon="6.0477">
        <ele>1093.4</ele>
        <time>2026-08-09T10:00:34Z</time>
      </trkpt>
      <trkpt lat="45.0732" lon="6.04763">
        <ele>1091.4</ele>
        <time>2026-08-09T10:00:36Z</time>
      </trkpt>
      <trkpt lat="45.07308" lon="6.04761">
        <ele>1090.4</ele>
        <time>2026-08-09T10:00:37Z</time>
      </trkpt>
      <trkpt lat="45.07297" lon="6.04757">
        <ele>1089.4</ele>
        <time>2026-08-09T10:00:38Z</time>
      </trkpt>
      <trkpt lat="45.07287" lon="6.04752">
        <ele>1088.4</ele>
        <time>2026-08-09T10:00:39Z</time>
      </trkpt>
      <trkpt lat="45.07276" lon="6.04744">
        <ele>1087.6</ele>
        <time>2026-08-09T10:00:40Z</time>
      </trkpt>
      <trkpt lat="45.07265" lon="6.04736">
        <ele>1085.8</ele>
        <time>2026-08-09T10:00:41Z</time>
      </trkpt>
      <trkpt lat="45.07254" lon="6.04727">
        <ele>1085</ele>
        <time>2026-08-09T10:00:42Z</time>
      </trkpt>
      <trkpt lat="45.07243" lon="6.04719">
        <ele>1084.4</ele>
        <time>2026-08-09T10:00:43Z</time>
      </trkpt>
      <trkpt lat="45.07232" lon="6.0471">
        <ele>1083.6</ele>
        <time>2026-08-09T10:00:44Z</time>
      </trkpt>
      <trkpt lat="45.07222" lon="6.04702">
        <ele>1082.6</ele>
        <time>2026-08-09T10:00:45Z</time>
      </trkpt>
      <trkpt lat="45.07211" lon="6.04693">
        <ele>1081.2</ele>
        <time>2026-08-09T10:00:46Z</time>
      </trkpt>
      <trkpt lat="45.07202" lon="6.04684">
        <ele>1080</ele>
        <time>2026-08-09T10:00:47Z</time>
      </trkpt>
      <trkpt lat="45.07192" lon="6.04673">
        <ele>1078.8</ele>
        <time>2026-08-09T10:00:48Z</time>
      </trkpt>
      <trkpt lat="45.07183" lon="6.04661">
        <ele>1077.4</ele>
        <time>2026-08-09T10:00:49Z</time>
      </trkpt>
      <trkpt lat="45.07174" lon="6.04649">
        <ele>1076</ele>
        <time>2026-08-09T10:00:50Z</time>
      </trkpt>
      <trkpt lat="45.07166" lon="6.04637">
        <ele>1074.8</ele>
        <time>2026-08-09T10:00:51Z</time>
      </trkpt>
      <trkpt lat="45.0716" lon="6.04624">
        <ele>1074.2</ele>
        <time>2026-08-09T10:00:52Z</time>
      </trkpt>
      <trkpt lat="45.07155" lon="6.04611">
        <ele>1073.8</ele>
        <time>2026-08-09T10:00:53Z</time>
      </trkpt>
      <trkpt lat="45.07144" lon="6.04595">
        <ele>1073</ele>
        <time>2026-08-09T10:00:54Z</time>
      </trkpt>
      <trkpt lat="45.0714" lon="6.0458">
        <ele>1072.4</ele>
        <time>2026-08-09T10:00:55Z</time>
      </trkpt>
      <trkpt lat="45.07138" lon="6.04565">
        <ele>1071</ele>
        <time>2026-08-09T10:00:56Z</time>
      </trkpt>
      <trkpt lat="45.07136" lon="6.0455">
        <ele>1069</ele>
        <time>2026-08-09T10:00:57Z</time>
      </trkpt>
      <trkpt lat="45.07134" lon="6.04534">
        <ele>1067.2</ele>
        <time>2026-08-09T10:00:58Z</time>
      </trkpt>
      <trkpt lat="45.07129" lon="6.04502">
        <ele>1065.8</ele>
        <time>2026-08-09T10:01:00Z</time>
      </trkpt>
      <trkpt lat="45.07126" lon="6.04486">
        <ele>1065.6</ele>
        <time>2026-08-09T10:01:01Z</time>
      </trkpt>
      <trkpt lat="45.07121" lon="6.0447">
        <ele>1064.8</ele>
        <time>2026-08-09T10:01:02Z</time>
      </trkpt>
      <trkpt lat="45.07115" lon="6.04455">
        <ele>1063.8</ele>
        <time>2026-08-09T10:01:03Z</time>
      </trkpt>
      <trkpt lat="45.0711" lon="6.04441">
        <ele>1062.8</ele>
        <time>2026-08-09T10:01:04Z</time>
      </trkpt>
      <trkpt lat="45.07105" lon="6.0443">
        <ele>1061.8</ele>
        <time>2026-08-09T10:01:05Z</time>
      </trkpt>
      <trkpt lat="45.071" lon="6.04422">
        <ele>1060.8</ele>
        <time>2026-08-09T10:01:06Z</time>
      </trkpt>
      <trkpt lat="45.07095" lon="6.04417">
        <ele>1059.2</ele>
        <time>2026-08-09T10:01:07Z</time>
      </trkpt>
      <trkpt lat="45.07091" lon="6.04414">
        <ele>1058.6</ele>
        <time>2026-08-09T10:01:08Z</time>
      </trkpt>
      <trkpt lat="45.07087" lon="6.04412">
        <ele>1058.2</ele>
        <time>2026-08-09T10:01:09Z</time>
      </trkpt>
      <trkpt lat="45.07085" lon="6.04411">
        <ele>1057.8</ele>
        <time>2026-08-09T10:01:10Z</time>
      </trkpt>
      <trkpt lat="45.07085" lon="6.04411">
        <ele>1057.8</ele>
        <time>2026-08-09T10:01:12Z</time>
      </trkpt>
      <trkpt lat="45.07086" lon="6.04411">
        <ele>1057.8</ele>
        <time>2026-08-09T10:01:14Z</time>
      </trkpt>
      <trkpt lat="45.07086" lon="6.04411">
        <ele>1058.2</ele>
        <time>2026-08-09T10:01:16Z</time>
      </trkpt>
      <trkpt lat="45.07087" lon="6.04411">
        <ele>1059</ele>
        <time>2026-08-09T10:01:18Z</time>
      </trkpt>
      <trkpt lat="45.07087" lon="6.04411">
        <ele>1059.2</ele>
        <time>2026-08-09T10:01:20Z</time>
      </trkpt>
      <trkpt lat="45.07087" lon="6.04411">
        <ele>1059.2</ele>
        <time>2026-08-09T10:01:22Z</time>
      </trkpt>
      <trkpt lat="45.07087" lon="6.04411">
        <ele>1059.2</ele>
        <time>2026-08-09T10:01:23Z</time>
      </trkpt>
      <trkpt lat="45.07086" lon="6.04411">
        <ele>1059.2</ele>
        <time>2026-08-09T10:01:24Z</time>
      </trkpt>
      <trkpt lat="45.07085" lon="6.04412">
        <ele>1059.2</ele>
        <time>2026-08-09T10:01:25Z</time>
      </trkpt>
      <trkpt lat="45.07083" lon="6.04413">
        <ele>1059.2</ele>
        <time>2026-08-09T10:01:26Z</time>
      </trkpt>
      <trkpt lat="45.07082" lon="6.04415">
        <ele>1059.2</ele>
        <time>2026-08-09T10:01:28Z</time>
      </trkpt>
      <trkpt lat="45.07082" lon="6.04416">
        <ele>1059.2</ele>
        <time>2026-08-09T10:01:30Z</time>
      </trkpt>
      <trkpt lat="45.07082" lon="6.04416">
        <ele>1059.2</ele>
        <time>2026-08-09T10:01:32Z</time>
      </trkpt>
      <trkpt lat="45.07083" lon="6.04417">
        <ele>1059.2</ele>
        <time>2026-08-09T10:01:34Z</time>
      </trkpt>
      <trkpt lat="45.07083" lon="6.04418">
        <ele>1059.2</ele>
        <time>2026-08-09T10:01:36Z</time>
      </trkpt>
      <trkpt lat="45.07083" lon="6.0442">
        <ele>1059</ele>
        <time>2026-08-09T10:01:38Z</time>
      </trkpt>
      <trkpt lat="45.07084" lon="6.04422">
        <ele>1059</ele>
        <time>2026-08-09T10:01:39Z</time>
      </trkpt>
      <trkpt lat="45.07085" lon="6.04424">
        <ele>1059</ele>
        <time>2026-08-09T10:01:40Z</time>
      </trkpt>
      <trkpt lat="45.07089" lon="6.04429">
        <ele>1059</ele>
        <time>2026-08-09T10:01:42Z</time>
      </trkpt>
      <trkpt lat="45.07092" lon="6.04437">
        <ele>1059</ele>
        <time>2026-08-09T10:01:43Z</time>
      </trkpt>
      <trkpt lat="45.07095" lon="6.04448">
        <ele>1059</ele>
        <time>2026-08-09T10:01:44Z</time>
      </trkpt>
      <trkpt lat="45.07102" lon="6.04465">
        <ele>1059</ele>
        <time>2026-08-09T10:01:46Z</time>
      </trkpt>
      <trkpt lat="45.07105" lon="6.04477">
        <ele>1059</ele>
        <time>2026-08-09T10:01:47Z</time>
      </trkpt>
      <trkpt lat="45.07106" lon="6.04491">
        <ele>1058.8</ele>
        <time>2026-08-09T10:01:48Z</time>
      </trkpt>
      <trkpt lat="45.07107" lon="6.04517">
        <ele>1057.8</ele>
        <time>2026-08-09T10:01:50Z</time>
      </trkpt>
      <trkpt lat="45.07106" lon="6.0453">
        <ele>1057.2</ele>
        <time>2026-08-09T10:01:51Z</time>
      </trkpt>
      <trkpt lat="45.07106" lon="6.04545">
        <ele>1056.4</ele>
        <time>2026-08-09T10:01:52Z</time>
      </trkpt>
      <trkpt lat="45.07105" lon="6.0456">
        <ele>1056</ele>
        <time>2026-08-09T10:01:53Z</time>
      </trkpt>
      <trkpt lat="45.07105" lon="6.04576">
        <ele>1055.2</ele>
        <time>2026-08-09T10:01:54Z</time>
      </trkpt>
      <trkpt lat="45.07104" lon="6.04593">
        <ele>1054.2</ele>
        <time>2026-08-09T10:01:55Z</time>
      </trkpt>
      <trkpt lat="45.07103" lon="6.0461">
        <ele>1053.6</ele>
        <time>2026-08-09T10:01:56Z</time>
      </trkpt>
      <trkpt lat="45.07103" lon="6.04627">
        <ele>1052.6</ele>
        <time>2026-08-09T10:01:57Z</time>
      </trkpt>
      <trkpt lat="45.07104" lon="6.04645">
        <ele>1051.4</ele>
        <time>2026-08-09T10:01:58Z</time>
      </trkpt>
      <trkpt lat="45.07106" lon="6.04662">
        <ele>1050.4</ele>
        <time>2026-08-09T10:01:59Z</time>
      </trkpt>
      <trkpt lat="45.0711" lon="6.04679">
        <ele>1049.6</ele>
        <time>2026-08-09T10:02:00Z</time>
      </trkpt>
      <trkpt lat="45.07124" lon="6.0471">
        <ele>1047.6</ele>
        <time>2026-08-09T10:02:02Z</time>
      </trkpt>
      <trkpt lat="45.07132" lon="6.04724">
        <ele>1046.2</ele>
        <time>2026-08-09T10:02:03Z</time>
      </trkpt>
      <trkpt lat="45.0714" lon="6.04739">
        <ele>1045</ele>
        <time>2026-08-09T10:02:04Z</time>
      </trkpt>
      <trkpt lat="45.07147" lon="6.04751">
        <ele>1041.6</ele>
        <time>2026-08-09T10:02:05Z</time>
      </trkpt>
      <trkpt lat="45.07155" lon="6.04762">
        <ele>1039.6</ele>
        <time>2026-08-09T10:02:06Z</time>
      </trkpt>
      <trkpt lat="45.07162" lon="6.04772">
        <ele>1038.4</ele>
        <time>2026-08-09T10:02:07Z</time>
      </trkpt>
      <trkpt lat="45.07169" lon="6.0478">
        <ele>1037.4</ele>
        <time>2026-08-09T10:02:08Z</time>
      </trkpt>
      <trkpt lat="45.07175" lon="6.04786">
        <ele>1036.6</ele>
        <time>2026-08-09T10:02:09Z</time>
      </trkpt>
      <trkpt lat="45.07182" lon="6.04791">
        <ele>1035.6</ele>
        <time>2026-08-09T10:02:10Z</time>
      </trkpt>
      <trkpt lat="45.07188" lon="6.04796">
        <ele>1034</ele>
        <time>2026-08-09T10:02:11Z</time>
      </trkpt>
      <trkpt lat="45.07192" lon="6.04801">
        <ele>1033.4</ele>
        <time>2026-08-09T10:02:12Z</time>
      </trkpt>
      <trkpt lat="45.07194" lon="6.04807">
        <ele>1032.8</ele>
        <time>2026-08-09T10:02:13Z</time>
      </trkpt>
      <trkpt lat="45.07192" lon="6.04813">
        <ele>1032.6</ele>
        <time>2026-08-09T10:02:14Z</time>
      </trkpt>
      <trkpt lat="45.07189" lon="6.04814">
        <ele>1032.4</ele>
        <time>2026-08-09T10:02:15Z</time>
      </trkpt>
      <trkpt lat="45.07184" lon="6.04809">
        <ele>1032.4</ele>
        <time>2026-08-09T10:02:16Z</time>
      </trkpt>
      <trkpt lat="45.0718" lon="6.04803">
        <ele>1032.2</ele>
        <time>2026-08-09T10:02:17Z</time>
      </trkpt>
      <trkpt lat="45.07174" lon="6.04796">
        <ele>1032</ele>
        <time>2026-08-09T10:02:18Z</time>
      </trkpt>
      <trkpt lat="45.07161" lon="6.0478">
        <ele>1031.6</ele>
        <time>2026-08-09T10:02:20Z</time>
      </trkpt>
      <trkpt lat="45.07154" lon="6.04773">
        <ele>1031.8</ele>
        <time>2026-08-09T10:02:21Z</time>
      </trkpt>
      <trkpt lat="45.07145" lon="6.04766">
        <ele>1031.8</ele>
        <time>2026-08-09T10:02:22Z</time>
      </trkpt>
      <trkpt lat="45.07128" lon="6.04751">
        <ele>1031.2</ele>
        <time>2026-08-09T10:02:24Z</time>
      </trkpt>
      <trkpt lat="45.07119" lon="6.04742">
        <ele>1030.8</ele>
        <time>2026-08-09T10:02:25Z</time>
      </trkpt>
      <trkpt lat="45.0711" lon="6.04733">
        <ele>1030</ele>
        <time>2026-08-09T10:02:26Z</time>
      </trkpt>
      <trkpt lat="45.071" lon="6.04724">
        <ele>1029.2</ele>
        <time>2026-08-09T10:02:27Z</time>
      </trkpt>
      <trkpt lat="45.0709" lon="6.04715">
        <ele>1028.4</ele>
        <time>2026-08-09T10:02:28Z</time>
      </trkpt>
      <trkpt lat="45.0708" lon="6.04705">
        <ele>1027.8</ele>
        <time>2026-08-09T10:02:29Z</time>
      </trkpt>
      <trkpt lat="45.0707" lon="6.04695">
        <ele>1027</ele>
        <time>2026-08-09T10:02:30Z</time>
      </trkpt>
      <trkpt lat="45.07061" lon="6.04683">
        <ele>1026</ele>
        <time>2026-08-09T10:02:31Z</time>
      </trkpt>
      <trkpt lat="45.07053" lon="6.04671">
        <ele>1024.4</ele>
        <time>2026-08-09T10:02:32Z</time>
      </trkpt>
      <trkpt lat="45.07045" lon="6.04656">
        <ele>1022.6</ele>
        <time>2026-08-09T10:02:33Z</time>
      </trkpt>
      <trkpt lat="45.07037" lon="6.04642">
        <ele>1019.6</ele>
        <time>2026-08-09T10:02:34Z</time>
      </trkpt>
      <trkpt lat="45.07029" lon="6.04627">
        <ele>1018.2</ele>
        <time>2026-08-09T10:02:35Z</time>
      </trkpt>
      <trkpt lat="45.07023" lon="6.04615">
        <ele>1016.8</ele>
        <time>2026-08-09T10:02:36Z</time>
      </trkpt>
      <trkpt lat="45.07009" lon="6.04592">
        <ele>1015.2</ele>
        <time>2026-08-09T10:02:38Z</time>
      </trkpt>
      <trkpt lat="45.07001" lon="6.04584">
        <ele>1014</ele>
        <time>2026-08-09T10:02:39Z</time>
      </trkpt>
      <trkpt lat="45.06993" lon="6.04579">
        <ele>1012.8</ele>
        <time>2026-08-09T10:02:40Z</time>
      </trkpt>
      <trkpt lat="45.06986" lon="6.04576">
        <ele>1011.6</ele>
        <time>2026-08-09T10:02:41Z</time>
      </trkpt>
      <trkpt lat="45.06979" lon="6.04573">
        <ele>1010.4</ele>
        <time>2026-08-09T10:02:42Z</time>
      </trkpt>
      <trkpt lat="45.06964" lon="6.04566">
        <ele>1009.4</ele>
        <time>2026-08-09T10:02:44Z</time>
      </trkpt>
      <trkpt lat="45.06948" lon="6.04557">
        <ele>1008.2</ele>
        <time>2026-08-09T10:02:46Z</time>
      </trkpt>
      <trkpt lat="45.0694" lon="6.04552">
        <ele>1007.8</ele>
        <time>2026-08-09T10:02:47Z</time>
      </trkpt>
      <trkpt lat="45.06932" lon="6.04546">
        <ele>1007.2</ele>
        <time>2026-08-09T10:02:48Z</time>
      </trkpt>
      <trkpt lat="45.06916" lon="6.04533">
        <ele>1006.2</ele>
        <time>2026-08-09T10:02:50Z</time>
      </trkpt>
      <trkpt lat="45.06908" lon="6.04524">
        <ele>1005.4</ele>
        <time>2026-08-09T10:02:51Z</time>
      </trkpt>
      <trkpt lat="45.06902" lon="6.04514">
        <ele>1004.6</ele>
        <time>2026-08-09T10:02:52Z</time>
      </trkpt>
      <trkpt lat="45.06889" lon="6.04496">
        <ele>1003.4</ele>
        <time>2026-08-09T10:02:54Z</time>
      </trkpt>
      <trkpt lat="45.06881" lon="6.04488">
        <ele>1002.6</ele>
        <time>2026-08-09T10:02:55Z</time>
      </trkpt>
      <trkpt lat="45.06873" lon="6.04482">
        <ele>1002.2</ele>
        <time>2026-08-09T10:02:56Z</time>
      </trkpt>
      <trkpt lat="45.06865" lon="6.04478">
        <ele>1001.6</ele>
        <time>2026-08-09T10:02:57Z</time>
      </trkpt>
      <trkpt lat="45.06855" lon="6.04475">
        <ele>1000.6</ele>
        <time>2026-08-09T10:02:58Z</time>
      </trkpt>
      <trkpt lat="45.06845" lon="6.04473">
        <ele>999.6</ele>
        <time>2026-08-09T10:02:59Z</time>
      </trkpt>
      <trkpt lat="45.06835" lon="6.04471">
        <ele>998.8</ele>
        <time>2026-08-09T10:03:00Z</time>
      </trkpt>
      <trkpt lat="45.06813" lon="6.04466">
        <ele>997.4</ele>
        <time>2026-08-09T10:03:02Z</time>
      </trkpt>
      <trkpt lat="45.06802" lon="6.04462">
        <ele>996.2</ele>
        <time>2026-08-09T10:03:03Z</time>
      </trkpt>
      <trkpt lat="45.06791" lon="6.04458">
        <ele>995.6</ele>
        <time>2026-08-09T10:03:04Z</time>
      </trkpt>
      <trkpt lat="45.06781" lon="6.04453">
        <ele>994.8</ele>
        <time>2026-08-09T10:03:05Z</time>
      </trkpt>
      <trkpt lat="45.06773" lon="6.04447">
        <ele>993.8</ele>
        <time>2026-08-09T10:03:06Z</time>
      </trkpt>
      <trkpt lat="45.06766" lon="6.04442">
        <ele>992.6</ele>
        <time>2026-08-09T10:03:07Z</time>
      </trkpt>
      <trkpt lat="45.06759" lon="6.04436">
        <ele>991.8</ele>
        <time>2026-08-09T10:03:08Z</time>
      </trkpt>
      <trkpt lat="45.06753" lon="6.0443">
        <ele>990.6</ele>
        <time>2026-08-09T10:03:09Z</time>
      </trkpt>
      <trkpt lat="45.06747" lon="6.04425">
        <ele>989.6</ele>
        <time>2026-08-09T10:03:10Z</time>
      </trkpt>
      <trkpt lat="45.06742" lon="6.04419">
        <ele>989</ele>
        <time>2026-08-09T10:03:11Z</time>
      </trkpt>
      <trkpt lat="45.06738" lon="6.04415">
        <ele>988.6</ele>
        <time>2026-08-09T10:03:12Z</time>
      </trkpt>
      <trkpt lat="45.06734" lon="6.04411">
        <ele>988.4</ele>
        <time>2026-08-09T10:03:13Z</time>
      </trkpt>
      <trkpt lat="45.06731" lon="6.04408">
        <ele>988.2</ele>
        <time>2026-08-09T10:03:14Z</time>
      </trkpt>
      <trkpt lat="45.06728" lon="6.04405">
        <ele>987.8</ele>
        <time>2026-08-09T10:03:15Z</time>
      </trkpt>
      <trkpt lat="45.06726" lon="6.04404">
        <ele>987.8</ele>
        <time>2026-08-09T10:03:16Z</time>
      </trkpt>
      <trkpt lat="45.06722" lon="6.04407">
        <ele>987.6</ele>
        <time>2026-08-09T10:03:18Z</time>
      </trkpt>
      <trkpt lat="45.06721" lon="6.04412">
        <ele>987.6</ele>
        <time>2026-08-09T10:03:20Z</time>
      </trkpt>
      <trkpt lat="45.06721" lon="6.04414">
        <ele>987.8</ele>
        <time>2026-08-09T10:03:22Z</time>
      </trkpt>
      <trkpt lat="45.06721" lon="6.04415">
        <ele>988</ele>
        <time>2026-08-09T10:03:24Z</time>
      </trkpt>
      <trkpt lat="45.06721" lon="6.04414">
        <ele>988</ele>
        <time>2026-08-09T10:03:26Z</time>
      </trkpt>
      <trkpt lat="45.06721" lon="6.04414">
        <ele>988.2</ele>
        <time>2026-08-09T10:03:28Z</time>
      </trkpt>
      <trkpt lat="45.06721" lon="6.04414">
        <ele>988.2</ele>
        <time>2026-08-09T10:03:30Z</time>
      </trkpt>
      <trkpt lat="45.06721" lon="6.04415">
        <ele>988.2</ele>
        <time>2026-08-09T10:03:32Z</time>
      </trkpt>
      <trkpt lat="45.06721" lon="6.04415">
        <ele>988.4</ele>
        <time>2026-08-09T10:03:33Z</time>
      </trkpt>
      <trkpt lat="45.06721" lon="6.04415">
        <ele>988.4</ele>
        <time>2026-08-09T10:03:34Z</time>
      </trkpt>
      <trkpt lat="45.06721" lon="6.04415">
        <ele>988.4</ele>
        <time>2026-08-09T10:03:36Z</time>
      </trkpt>
      <trkpt lat="45.06722" lon="6.04416">
        <ele>988.4</ele>
        <time>2026-08-09T10:03:38Z</time>
      </trkpt>
      <trkpt lat="45.06723" lon="6.04418">
        <ele>988.4</ele>
        <time>2026-08-09T10:03:40Z</time>
      </trkpt>
      <trkpt lat="45.06724" lon="6.04419">
        <ele>988.2</ele>
        <time>2026-08-09T10:03:41Z</time>
      </trkpt>
      <trkpt lat="45.06724" lon="6.04421">
        <ele>988.2</ele>
        <time>2026-08-09T10:03:42Z</time>
      </trkpt>
      <trkpt lat="45.06724" lon="6.04423">
        <ele>988.2</ele>
        <time>2026-08-09T10:03:43Z</time>
      </trkpt>
      <trkpt lat="45.06724" lon="6.04425">
        <ele>988.2</ele>
        <time>2026-08-09T10:03:44Z</time>
      </trkpt>
      <trkpt lat="45.06723" lon="6.04428">
        <ele>988.2</ele>
        <time>2026-08-09T10:03:46Z</time>
      </trkpt>
      <trkpt lat="45.06723" lon="6.04429">
        <ele>988.2</ele>
        <time>2026-08-09T10:03:47Z</time>
      </trkpt>
      <trkpt lat="45.06724" lon="6.0443">
        <ele>988</ele>
        <time>2026-08-09T10:03:48Z</time>
      </trkpt>
      <trkpt lat="45.06725" lon="6.0443">
        <ele>988</ele>
        <time>2026-08-09T10:03:50Z</time>
      </trkpt>
      <trkpt lat="45.06726" lon="6.0443">
        <ele>988.2</ele>
        <time>2026-08-09T10:03:52Z</time>
      </trkpt>
      <trkpt lat="45.06726" lon="6.04431">
        <ele>988.2</ele>
        <time>2026-08-09T10:03:54Z</time>
      </trkpt>
      <trkpt lat="45.06726" lon="6.04431">
        <ele>988.2</ele>
        <time>2026-08-09T10:03:56Z</time>
      </trkpt>
      <trkpt lat="45.06726" lon="6.04431">
        <ele>988.2</ele>
        <time>2026-08-09T10:03:58Z</time>
      </trkpt>
      <trkpt lat="45.06726" lon="6.04431">
        <ele>988.2</ele>
        <time>2026-08-09T10:04:00Z</time>
      </trkpt>
      <trkpt lat="45.06726" lon="6.04431">
        <ele>988.2</ele>
        <time>2026-08-09T10:04:02Z</time>
      </trkpt>
      <trkpt lat="45.06726" lon="6.04431">
        <ele>988.2</ele>
        <time>2026-08-09T10:04:03Z</time>
      </trkpt>
      <trkpt lat="45.06726" lon="6.04431">
        <ele>988.2</ele>
        <time>2026-08-09T10:04:04Z</time>
      </trkpt>
      <trkpt lat="45.06726" lon="6.04431">
        <ele>988.2</ele>
        <time>2026-08-09T10:04:06Z</time>
      </trkpt>
      <trkpt lat="45.06726" lon="6.04431">
        <ele>988.2</ele>
        <time>2026-08-09T10:04:08Z</time>
      </trkpt>
      <trkpt lat="45.06725" lon="6.04431">
        <ele>988.4</ele>
        <time>2026-08-09T10:04:10Z</time>
      </trkpt>
      <trkpt lat="45.06725" lon="6.04431">
        <ele>988.2</ele>
        <time>2026-08-09T10:04:12Z</time>
      </trkpt>
      <trkpt lat="45.06726" lon="6.04431">
        <ele>988.2</ele>
        <time>2026-08-09T10:04:14Z</time>
      </trkpt>
      <trkpt lat="45.06726" lon="6.04431">
        <ele>988.2</ele>
        <time>2026-08-09T10:04:16Z</time>
      </trkpt>
      <trkpt lat="45.06727" lon="6.04431">
        <ele>988.2</ele>
        <time>2026-08-09T10:04:18Z</time>
      </trkpt>
      <trkpt lat="45.06727" lon="6.04431">
        <ele>988.2</ele>
        <time>2026-08-09T10:04:20Z</time>
      </trkpt>
      <trkpt lat="45.06727" lon="6.04431">
        <ele>988.2</ele>
        <time>2026-08-09T10:04:22Z</time>
      </trkpt>
      <trkpt lat="45.06727" lon="6.04431">
        <ele>988.2</ele>
        <time>2026-08-09T10:04:24Z</time>
      </trkpt>
      <trkpt lat="45.06727" lon="6.04431">
        <ele>988.4</ele>
        <time>2026-08-09T10:04:26Z</time>
      </trkpt>
      <trkpt lat="45.06727" lon="6.04431">
        <ele>988.4</ele>
        <time>2026-08-09T10:04:28Z</time>
      </trkpt>
      <trkpt lat="45.06727" lon="6.04431">
        <ele>988.6</ele>
        <time>2026-08-09T10:04:30Z</time>
      </trkpt>
      <trkpt lat="45.06727" lon="6.04431">
        <ele>988.6</ele>
        <time>2026-08-09T10:04:32Z</time>
      </trkpt>
      <trkpt lat="45.06727" lon="6.04431">
        <ele>988.6</ele>
        <time>2026-08-09T10:04:34Z</time>
      </trkpt>
      <trkpt lat="45.06727" lon="6.0443">
        <ele>988.4</ele>
        <time>2026-08-09T10:04:36Z</time>
      </trkpt>
      <trkpt lat="45.06727" lon="6.0443">
        <ele>988.4</ele>
        <time>2026-08-09T10:04:38Z</time>
      </trkpt>
      <trkpt lat="45.06727" lon="6.0443">
        <ele>988.6</ele>
        <time>2026-08-09T10:04:40Z</time>
      </trkpt>
      <trkpt lat="45.06727" lon="6.0443">
        <ele>988.6</ele>
        <time>2026-08-09T10:04:42Z</time>
      </trkpt>
      <trkpt lat="45.06726" lon="6.0443">
        <ele>988.6</ele>
        <time>2026-08-09T10:04:44Z</time>
      </trkpt>
      <trkpt lat="45.06726" lon="6.0443">
        <ele>988.6</ele>
        <time>2026-08-09T10:04:46Z</time>
      </trkpt>
      <trkpt lat="45.06726" lon="6.0443">
        <ele>988.6</ele>
        <time>2026-08-09T10:04:48Z</time>
      </trkpt>
      <trkpt lat="45.06726" lon="6.0443">
        <ele>988.6</ele>
        <time>2026-08-09T10:04:50Z</time>
      </trkpt>
      <trkpt lat="45.06726" lon="6.0443">
        <ele>988.6</ele>
        <time>2026-08-09T10:04:52Z</time>
      </trkpt>
      <trkpt lat="45.06726" lon="6.0443">
        <ele>988.6</ele>
        <time>2026-08-09T10:04:54Z</time>
      </trkpt>
      <trkpt lat="45.06726" lon="6.0443">
        <ele>988.4</ele>
        <time>2026-08-09T10:04:56Z</time>
      </trkpt>
      <trkpt lat="45.06726" lon="6.0443">
        <ele>988.6</ele>
        <time>2026-08-09T10:04:58Z</time>
      </trkpt>
      <trkpt lat="45.06726" lon="6.0443">
        <ele>988.6</ele>
        <time>2026-08-09T10:05:00Z</time>
      </trkpt>
      <trkpt lat="45.06726" lon="6.0443">
        <ele>988.6</ele>
        <time>2026-08-09T10:05:02Z</time>
      </trkpt>
      <trkpt lat="45.06726" lon="6.0443">
        <ele>988.6</ele>
        <time>2026-08-09T10:05:04Z</time>
      </trkpt>
      <trkpt lat="45.06726" lon="6.0443">
        <ele>988.6</ele>
        <time>2026-08-09T10:05:06Z</time>
      </trkpt>
      <trkpt lat="45.06726" lon="6.0443">
        <ele>988.4</ele>
        <time>2026-08-09T10:05:08Z</time>
      </trkpt>
      <trkpt lat="45.06726" lon="6.0443">
        <ele>988.4</ele>
        <time>2026-08-09T10:05:10Z</time>
      </trkpt>
      <trkpt lat="45.06726" lon="6.0443">
        <ele>988.6</ele>
        <time>2026-08-09T10:05:12Z</time>
      </trkpt>
      <trkpt lat="45.06726" lon="6.0443">
        <ele>988.4</ele>
        <time>2026-08-09T10:05:14Z</time>
      </trkpt>
      <trkpt lat="45.06726" lon="6.0443">
        <ele>988.4</ele>
        <time>2026-08-09T10:05:16Z</time>
      </trkpt>
      <trkpt lat="45.06726" lon="6.0443">
        <ele>988.4</ele>
        <time>2026-08-09T10:05:18Z</time>
      </trkpt>
      <trkpt lat="45.06726" lon="6.0443">
        <ele>988.4</ele>
        <time>2026-08-09T10:05:20Z</time>
      </trkpt>
      <trkpt lat="45.06726" lon="6.0443">
        <ele>988.4</ele>
        <time>2026-08-09T10:05:22Z</time>
      </trkpt>
      <trkpt lat="45.06726" lon="6.0443">
        <ele>988.4</ele>
        <time>2026-08-09T10:05:24Z</time>
      </trkpt>
      <trkpt lat="45.06726" lon="6.0443">
        <ele>988.4</ele>
        <time>2026-08-09T10:05:26Z</time>
      </trkpt>
      <trkpt lat="45.06726" lon="6.0443">
        <ele>988.4</ele>
        <time>2026-08-09T10:05:28Z</time>
      </trkpt>
      <trkpt lat="45.06726" lon="6.0443">
        <ele>988.2</ele>
        <time>2026-08-09T10:05:30Z</time>
      </trkpt>
      <trkpt lat="45.06726" lon="6.0443">
        <ele>988.2</ele>
        <time>2026-08-09T10:05:32Z</time>
      </trkpt>
      <trkpt lat="45.06726" lon="6.0443">
        <ele>988.2</ele>
        <time>2026-08-09T10:05:34Z</time>
      </trkpt>
      <trkpt lat="45.06726" lon="6.0443">
        <ele>988.2</ele>
        <time>2026-08-09T10:05:36Z</time>
      </trkpt>
      <trkpt lat="45.06726" lon="6.0443">
        <ele>988.2</ele>
        <time>2026-08-09T10:05:38Z</time>
      </trkpt>
      <trkpt lat="45.06726" lon="6.0443">
        <ele>988.2</ele>
        <time>2026-08-09T10:05:40Z</time>
      </trkpt>
      <trkpt lat="45.06726" lon="6.0443">
        <ele>988</ele>
        <time>2026-08-09T10:05:42Z</time>
      </trkpt>
      <trkpt lat="45.06726" lon="6.0443">
        <ele>988</ele>
        <time>2026-08-09T10:05:44Z</time>
      </trkpt>
      <trkpt lat="45.06726" lon="6.0443">
        <ele>988</ele>
        <time>2026-08-09T10:05:46Z</time>
      </trkpt>
      <trkpt lat="45.06726" lon="6.0443">
        <ele>988</ele>
        <time>2026-08-09T10:05:47Z</time>
      </trkpt>
      <trkpt lat="45.06726" lon="6.0443">
        <ele>988</ele>
        <time>2026-08-09T10:05:48Z</time>
      </trkpt>
      <trkpt lat="45.06726" lon="6.0443">
        <ele>988</ele>
        <time>2026-08-09T10:05:50Z</time>
      </trkpt>
      <trkpt lat="45.06726" lon="6.0443">
        <ele>988</ele>
        <time>2026-08-09T10:05:52Z</time>
      </trkpt>
      <trkpt lat="45.06727" lon="6.0443">
        <ele>988.2</ele>
        <time>2026-08-09T10:05:54Z</time>
      </trkpt>
      <trkpt lat="45.06726" lon="6.0443">
        <ele>988</ele>
        <time>2026-08-09T10:05:56Z</time>
      </trkpt>
      <trkpt lat="45.06726" lon="6.04431">
        <ele>988</ele>
        <time>2026-08-09T10:05:57Z</time>
      </trkpt>
      <trkpt lat="45.06727" lon="6.04432">
        <ele>988</ele>
        <time>2026-08-09T10:05:58Z</time>
      </trkpt>
      <trkpt lat="45.06727" lon="6.04432">
        <ele>988</ele>
        <time>2026-08-09T10:06:00Z</time>
      </trkpt>
      <trkpt lat="45.06727" lon="6.04432">
        <ele>988</ele>
        <time>2026-08-09T10:06:02Z</time>
      </trkpt>
      <trkpt lat="45.06727" lon="6.04432">
        <ele>988</ele>
        <time>2026-08-09T10:06:04Z</time>
      </trkpt>
      <trkpt lat="45.06727" lon="6.04432">
        <ele>988.2</ele>
        <time>2026-08-09T10:06:06Z</time>
      </trkpt>
      <trkpt lat="45.06727" lon="6.04432">
        <ele>988</ele>
        <time>2026-08-09T10:06:08Z</time>
      </trkpt>
      <trkpt lat="45.06727" lon="6.04432">
        <ele>988.2</ele>
        <time>2026-08-09T10:06:10Z</time>
      </trkpt>
      <trkpt lat="45.06727" lon="6.04432">
        <ele>988.2</ele>
        <time>2026-08-09T10:06:12Z</time>
      </trkpt>
      <trkpt lat="45.06727" lon="6.04432">
        <ele>988.2</ele>
        <time>2026-08-09T10:06:14Z</time>
      </trkpt>
      <trkpt lat="45.06728" lon="6.04433">
        <ele>988.2</ele>
        <time>2026-08-09T10:06:16Z</time>
      </trkpt>
      <trkpt lat="45.06728" lon="6.04435">
        <ele>988</ele>
        <time>2026-08-09T10:06:18Z</time>
      </trkpt>
      <trkpt lat="45.06729" lon="6.04436">
        <ele>988</ele>
        <time>2026-08-09T10:06:19Z</time>
      </trkpt>
      <trkpt lat="45.0673" lon="6.04437">
        <ele>988</ele>
        <time>2026-08-09T10:06:20Z</time>
      </trkpt>
      <trkpt lat="45.0673" lon="6.04437">
        <ele>988</ele>
        <time>2026-08-09T10:06:22Z</time>
      </trkpt>
      <trkpt lat="45.06731" lon="6.04438">
        <ele>988</ele>
        <time>2026-08-09T10:06:24Z</time>
      </trkpt>
      <trkpt lat="45.06731" lon="6.04437">
        <ele>988</ele>
        <time>2026-08-09T10:06:26Z</time>
      </trkpt>
      <trkpt lat="45.06731" lon="6.04438">
        <ele>988</ele>
        <time>2026-08-09T10:06:27Z</time>
      </trkpt>
      <trkpt lat="45.06731" lon="6.04438">
        <ele>988</ele>
        <time>2026-08-09T10:06:28Z</time>
      </trkpt>
      <trkpt lat="45.06731" lon="6.04438">
        <ele>988</ele>
        <time>2026-08-09T10:06:30Z</time>
      </trkpt>
      <trkpt lat="45.06731" lon="6.04438">
        <ele>988</ele>
        <time>2026-08-09T10:06:32Z</time>
      </trkpt>
      <trkpt lat="45.06731" lon="6.04438">
        <ele>988</ele>
        <time>2026-08-09T10:06:33Z</time>
      </trkpt>
      <trkpt lat="45.06731" lon="6.04438">
        <ele>987.8</ele>
        <time>2026-08-09T10:06:34Z</time>
      </trkpt>
      <trkpt lat="45.06731" lon="6.04438">
        <ele>987.8</ele>
        <time>2026-08-09T10:06:36Z</time>
      </trkpt>
      <trkpt lat="45.06731" lon="6.04438">
        <ele>988</ele>
        <time>2026-08-09T10:06:38Z</time>
      </trkpt>
      <trkpt lat="45.06731" lon="6.04438">
        <ele>987.8</ele>
        <time>2026-08-09T10:06:40Z</time>
      </trkpt>
      <trkpt lat="45.06734" lon="6.0444">
        <ele>987.8</ele>
        <time>2026-08-09T10:06:42Z</time>
      </trkpt>
      <trkpt lat="45.06737" lon="6.04444">
        <ele>987.8</ele>
        <time>2026-08-09T10:06:44Z</time>
      </trkpt>
      <trkpt lat="45.06741" lon="6.0445">
        <ele>987.8</ele>
        <time>2026-08-09T10:06:46Z</time>
      </trkpt>
      <trkpt lat="45.06747" lon="6.04457">
        <ele>987.8</ele>
        <time>2026-08-09T10:06:48Z</time>
      </trkpt>
      <trkpt lat="45.06753" lon="6.04467">
        <ele>987.8</ele>
        <time>2026-08-09T10:06:50Z</time>
      </trkpt>
      <trkpt lat="45.06757" lon="6.04472">
        <ele>987.6</ele>
        <time>2026-08-09T10:06:51Z</time>
      </trkpt>
      <trkpt lat="45.0676" lon="6.04475">
        <ele>987.6</ele>
        <time>2026-08-09T10:06:52Z</time>
      </trkpt>
      <trkpt lat="45.06764" lon="6.04479">
        <ele>987.2</ele>
        <time>2026-08-09T10:06:53Z</time>
      </trkpt>
      <trkpt lat="45.06767" lon="6.04481">
        <ele>987</ele>
        <time>2026-08-09T10:06:54Z</time>
      </trkpt>
      <trkpt lat="45.06775" lon="6.04484">
        <ele>986.4</ele>
        <time>2026-08-09T10:06:56Z</time>
      </trkpt>
      <trkpt lat="45.0678" lon="6.04485">
        <ele>986</ele>
        <time>2026-08-09T10:06:57Z</time>
      </trkpt>
      <trkpt lat="45.06785" lon="6.04486">
        <ele>985.6</ele>
        <time>2026-08-09T10:06:58Z</time>
      </trkpt>
      <trkpt lat="45.06791" lon="6.04488">
        <ele>985.4</ele>
        <time>2026-08-09T10:06:59Z</time>
      </trkpt>
      <trkpt lat="45.06796" lon="6.04489">
        <ele>985.2</ele>
        <time>2026-08-09T10:07:00Z</time>
      </trkpt>
      <trkpt lat="45.06808" lon="6.04495">
        <ele>985</ele>
        <time>2026-08-09T10:07:02Z</time>
      </trkpt>
      <trkpt lat="45.06817" lon="6.04504">
        <ele>984.2</ele>
        <time>2026-08-09T10:07:04Z</time>
      </trkpt>
      <trkpt lat="45.06821" lon="6.04509">
        <ele>984.2</ele>
        <time>2026-08-09T10:07:05Z</time>
      </trkpt>
      <trkpt lat="45.06826" lon="6.04516">
        <ele>983.8</ele>
        <time>2026-08-09T10:07:06Z</time>
      </trkpt>
      <trkpt lat="45.0683" lon="6.04523">
        <ele>983.4</ele>
        <time>2026-08-09T10:07:07Z</time>
      </trkpt>
      <trkpt lat="45.06833" lon="6.0453">
        <ele>983</ele>
        <time>2026-08-09T10:07:08Z</time>
      </trkpt>
      <trkpt lat="45.06839" lon="6.04545">
        <ele>982.4</ele>
        <time>2026-08-09T10:07:10Z</time>
      </trkpt>
      <trkpt lat="45.06842" lon="6.04551">
        <ele>982.4</ele>
        <time>2026-08-09T10:07:11Z</time>
      </trkpt>
      <trkpt lat="45.06845" lon="6.04557">
        <ele>982.2</ele>
        <time>2026-08-09T10:07:12Z</time>
      </trkpt>
      <trkpt lat="45.06852" lon="6.04566">
        <ele>982</ele>
        <time>2026-08-09T10:07:14Z</time>
      </trkpt>
      <trkpt lat="45.06856" lon="6.0457">
        <ele>981.6</ele>
        <time>2026-08-09T10:07:15Z</time>
      </trkpt>
      <trkpt lat="45.06861" lon="6.04574">
        <ele>981.6</ele>
        <time>2026-08-09T10:07:16Z</time>
      </trkpt>
      <trkpt lat="45.06865" lon="6.04577">
        <ele>981.4</ele>
        <time>2026-08-09T10:07:17Z</time>
      </trkpt>
      <trkpt lat="45.06869" lon="6.0458">
        <ele>981.2</ele>
        <time>2026-08-09T10:07:18Z</time>
      </trkpt>
      <trkpt lat="45.06878" lon="6.04585">
        <ele>981</ele>
        <time>2026-08-09T10:07:20Z</time>
      </trkpt>
      <trkpt lat="45.06882" lon="6.04589">
        <ele>981</ele>
        <time>2026-08-09T10:07:21Z</time>
      </trkpt>
      <trkpt lat="45.06887" lon="6.04592">
        <ele>980.8</ele>
        <time>2026-08-09T10:07:22Z</time>
      </trkpt>
      <trkpt lat="45.06897" lon="6.04598">
        <ele>980.6</ele>
        <time>2026-08-09T10:07:24Z</time>
      </trkpt>
      <trkpt lat="45.06903" lon="6.046">
        <ele>980.4</ele>
        <time>2026-08-09T10:07:25Z</time>
      </trkpt>
      <trkpt lat="45.06909" lon="6.04602">
        <ele>980.2</ele>
        <time>2026-08-09T10:07:26Z</time>
      </trkpt>
      <trkpt lat="45.06914" lon="6.04606">
        <ele>980.2</ele>
        <time>2026-08-09T10:07:27Z</time>
      </trkpt>
      <trkpt lat="45.06919" lon="6.04611">
        <ele>980</ele>
        <time>2026-08-09T10:07:28Z</time>
      </trkpt>
      <trkpt lat="45.06929" lon="6.0462">
        <ele>979.6</ele>
        <time>2026-08-09T10:07:30Z</time>
      </trkpt>
      <trkpt lat="45.0694" lon="6.04628">
        <ele>979.6</ele>
        <time>2026-08-09T10:07:32Z</time>
      </trkpt>
      <trkpt lat="45.06951" lon="6.04637">
        <ele>979.2</ele>
        <time>2026-08-09T10:07:34Z</time>
      </trkpt>
      <trkpt lat="45.06957" lon="6.04643">
        <ele>979</ele>
        <time>2026-08-09T10:07:35Z</time>
      </trkpt>
      <trkpt lat="45.06961" lon="6.04649">
        <ele>979</ele>
        <time>2026-08-09T10:07:36Z</time>
      </trkpt>
      <trkpt lat="45.06965" lon="6.04657">
        <ele>978.8</ele>
        <time>2026-08-09T10:07:37Z</time>
      </trkpt>
      <trkpt lat="45.06968" lon="6.04665">
        <ele>978.4</ele>
        <time>2026-08-09T10:07:38Z</time>
      </trkpt>
      <trkpt lat="45.06971" lon="6.04672">
        <ele>978.2</ele>
        <time>2026-08-09T10:07:39Z</time>
      </trkpt>
      <trkpt lat="45.06973" lon="6.0468">
        <ele>978</ele>
        <time>2026-08-09T10:07:40Z</time>
      </trkpt>
      <trkpt lat="45.06978" lon="6.04696">
        <ele>977.8</ele>
        <time>2026-08-09T10:07:42Z</time>
      </trkpt>
      <trkpt lat="45.0698" lon="6.04704">
        <ele>977.8</ele>
        <time>2026-08-09T10:07:43Z</time>
      </trkpt>
      <trkpt lat="45.06983" lon="6.04711">
        <ele>977.8</ele>
        <time>2026-08-09T10:07:44Z</time>
      </trkpt>
      <trkpt lat="45.06988" lon="6.04725">
        <ele>977.6</ele>
        <time>2026-08-09T10:07:46Z</time>
      </trkpt>
      <trkpt lat="45.06991" lon="6.04731">
        <ele>977.6</ele>
        <time>2026-08-09T10:07:47Z</time>
      </trkpt>
      <trkpt lat="45.06993" lon="6.04736">
        <ele>977.6</ele>
        <time>2026-08-09T10:07:48Z</time>
      </trkpt>
      <trkpt lat="45.06999" lon="6.04747">
        <ele>977.8</ele>
        <time>2026-08-09T10:07:50Z</time>
      </trkpt>
      <trkpt lat="45.07003" lon="6.04756">
        <ele>978</ele>
        <time>2026-08-09T10:07:52Z</time>
      </trkpt>
      <trkpt lat="45.07005" lon="6.0476">
        <ele>978.2</ele>
        <time>2026-08-09T10:07:53Z</time>
      </trkpt>
      <trkpt lat="45.07007" lon="6.04764">
        <ele>978.2</ele>
        <time>2026-08-09T10:07:54Z</time>
      </trkpt>
      <trkpt lat="45.07011" lon="6.04775">
        <ele>978.2</ele>
        <time>2026-08-09T10:07:56Z</time>
      </trkpt>
      <trkpt lat="45.07013" lon="6.04785">
        <ele>978.4</ele>
        <time>2026-08-09T10:07:58Z</time>
      </trkpt>
      <trkpt lat="45.07015" lon="6.04796">
        <ele>978.6</ele>
        <time>2026-08-09T10:08:00Z</time>
      </trkpt>
      <trkpt lat="45.07017" lon="6.04807">
        <ele>979</ele>
        <time>2026-08-09T10:08:02Z</time>
      </trkpt>
      <trkpt lat="45.07019" lon="6.04817">
        <ele>979</ele>
        <time>2026-08-09T10:08:04Z</time>
      </trkpt>
      <trkpt lat="45.0702" lon="6.04822">
        <ele>979</ele>
        <time>2026-08-09T10:08:05Z</time>
      </trkpt>
      <trkpt lat="45.07021" lon="6.04827">
        <ele>979.2</ele>
        <time>2026-08-09T10:08:06Z</time>
      </trkpt>
      <trkpt lat="45.07025" lon="6.04836">
        <ele>979.6</ele>
        <time>2026-08-09T10:08:08Z</time>
      </trkpt>
      <trkpt lat="45.07029" lon="6.04843">
        <ele>980</ele>
        <time>2026-08-09T10:08:10Z</time>
      </trkpt>
      <trkpt lat="45.07036" lon="6.04845">
        <ele>980.2</ele>
        <time>2026-08-09T10:08:12Z</time>
      </trkpt>
      <trkpt lat="45.07042" lon="6.04845">
        <ele>980.4</ele>
        <time>2026-08-09T10:08:14Z</time>
      </trkpt>
      <trkpt lat="45.0705" lon="6.04844">
        <ele>980.6</ele>
        <time>2026-08-09T10:08:16Z</time>
      </trkpt>
      <trkpt lat="45.07054" lon="6.04845">
        <ele>980.6</ele>
        <time>2026-08-09T10:08:17Z</time>
      </trkpt>
      <trkpt lat="45.07058" lon="6.04846">
        <ele>980.6</ele>
        <time>2026-08-09T10:08:18Z</time>
      </trkpt>
      <trkpt lat="45.07062" lon="6.04848">
        <ele>980.6</ele>
        <time>2026-08-09T10:08:19Z</time>
      </trkpt>
      <trkpt lat="45.07066" lon="6.04851">
        <ele>980.6</ele>
        <time>2026-08-09T10:08:20Z</time>
      </trkpt>
      <trkpt lat="45.07067" lon="6.0486">
        <ele>980.6</ele>
        <time>2026-08-09T10:08:22Z</time>
      </trkpt>
      <trkpt lat="45.07062" lon="6.04873">
        <ele>980.6</ele>
        <time>2026-08-09T10:08:24Z</time>
      </trkpt>
      <trkpt lat="45.07059" lon="6.04879">
        <ele>980.4</ele>
        <time>2026-08-09T10:08:25Z</time>
      </trkpt>
      <trkpt lat="45.07055" lon="6.04884">
        <ele>980.4</ele>
        <time>2026-08-09T10:08:26Z</time>
      </trkpt>
      <trkpt lat="45.07046" lon="6.04893">
        <ele>980</ele>
        <time>2026-08-09T10:08:28Z</time>
      </trkpt>
      <trkpt lat="45.07042" lon="6.04898">
        <ele>979.6</ele>
        <time>2026-08-09T10:08:29Z</time>
      </trkpt>
      <trkpt lat="45.07039" lon="6.04903">
        <ele>979.4</ele>
        <time>2026-08-09T10:08:30Z</time>
      </trkpt>
      <trkpt lat="45.07037" lon="6.04911">
        <ele>979.4</ele>
        <time>2026-08-09T10:08:31Z</time>
      </trkpt>
      <trkpt lat="45.07036" lon="6.04919">
        <ele>979.2</ele>
        <time>2026-08-09T10:08:32Z</time>
      </trkpt>
      <trkpt lat="45.07037" lon="6.04936">
        <ele>979</ele>
        <time>2026-08-09T10:08:34Z</time>
      </trkpt>
      <trkpt lat="45.07038" lon="6.04944">
        <ele>978.8</ele>
        <time>2026-08-09T10:08:35Z</time>
      </trkpt>
      <trkpt lat="45.07038" lon="6.04952">
        <ele>978.8</ele>
        <time>2026-08-09T10:08:36Z</time>
      </trkpt>
      <trkpt lat="45.07042" lon="6.04969">
        <ele>978.8</ele>
        <time>2026-08-09T10:08:38Z</time>
      </trkpt>
      <trkpt lat="45.07048" lon="6.04984">
        <ele>978.6</ele>
        <time>2026-08-09T10:08:40Z</time>
      </trkpt>
      <trkpt lat="45.07054" lon="6.04998">
        <ele>978.6</ele>
        <time>2026-08-09T10:08:42Z</time>
      </trkpt>
      <trkpt lat="45.0706" lon="6.05019">
        <ele>978.6</ele>
        <time>2026-08-09T10:08:44Z</time>
      </trkpt>
      <trkpt lat="45.0706" lon="6.05019">
        <ele>978.4</ele>
        <time>2026-08-09T10:08:45Z</time>
      </trkpt>
      <trkpt lat="45.07062" lon="6.05026">
        <ele>978.4</ele>
        <time>2026-08-09T10:08:46Z</time>
      </trkpt>
      <trkpt lat="45.07064" lon="6.05046">
        <ele>978.4</ele>
        <time>2026-08-09T10:08:48Z</time>
      </trkpt>
      <trkpt lat="45.07065" lon="6.05058">
        <ele>978.4</ele>
        <time>2026-08-09T10:08:50Z</time>
      </trkpt>
      <trkpt lat="45.07065" lon="6.05071">
        <ele>978.6</ele>
        <time>2026-08-09T10:08:52Z</time>
      </trkpt>
      <trkpt lat="45.07065" lon="6.05084">
        <ele>978.8</ele>
        <time>2026-08-09T10:08:54Z</time>
      </trkpt>
      <trkpt lat="45.07065" lon="6.0509">
        <ele>978.6</ele>
        <time>2026-08-09T10:08:55Z</time>
      </trkpt>
      <trkpt lat="45.07064" lon="6.05096">
        <ele>978.8</ele>
        <time>2026-08-09T10:08:56Z</time>
      </trkpt>
      <trkpt lat="45.07062" lon="6.05101">
        <ele>979</ele>
        <time>2026-08-09T10:08:57Z</time>
      </trkpt>
      <trkpt lat="45.07061" lon="6.05106">
        <ele>979.2</ele>
        <time>2026-08-09T10:08:58Z</time>
      </trkpt>
      <trkpt lat="45.0706" lon="6.05112">
        <ele>979.6</ele>
        <time>2026-08-09T10:09:00Z</time>
      </trkpt>
      <trkpt lat="45.07058" lon="6.05124">
        <ele>980</ele>
        <time>2026-08-09T10:09:02Z</time>
      </trkpt>
      <trkpt lat="45.07058" lon="6.05135">
        <ele>980.2</ele>
        <time>2026-08-09T10:09:04Z</time>
      </trkpt>
      <trkpt lat="45.07058" lon="6.05141">
        <ele>980.4</ele>
        <time>2026-08-09T10:09:05Z</time>
      </trkpt>
      <trkpt lat="45.07058" lon="6.05147">
        <ele>980.6</ele>
        <time>2026-08-09T10:09:06Z</time>
      </trkpt>
      <trkpt lat="45.07057" lon="6.05158">
        <ele>980.8</ele>
        <time>2026-08-09T10:09:08Z</time>
      </trkpt>
      <trkpt lat="45.07056" lon="6.0517">
        <ele>981.4</ele>
        <time>2026-08-09T10:09:10Z</time>
      </trkpt>
      <trkpt lat="45.07056" lon="6.05175">
        <ele>981.6</ele>
        <time>2026-08-09T10:09:11Z</time>
      </trkpt>
      <trkpt lat="45.07055" lon="6.0518">
        <ele>981.6</ele>
        <time>2026-08-09T10:09:12Z</time>
      </trkpt>
      <trkpt lat="45.07054" lon="6.05188">
        <ele>981.8</ele>
        <time>2026-08-09T10:09:14Z</time>
      </trkpt>
      <trkpt lat="45.07051" lon="6.05198">
        <ele>982.2</ele>
        <time>2026-08-09T10:09:16Z</time>
      </trkpt>
      <trkpt lat="45.07049" lon="6.05209">
        <ele>982.6</ele>
        <time>2026-08-09T10:09:18Z</time>
      </trkpt>
      <trkpt lat="45.07046" lon="6.05221">
        <ele>982.8</ele>
        <time>2026-08-09T10:09:20Z</time>
      </trkpt>
      <trkpt lat="45.07044" lon="6.05233">
        <ele>983.2</ele>
        <time>2026-08-09T10:09:22Z</time>
      </trkpt>
      <trkpt lat="45.07042" lon="6.05247">
        <ele>983.4</ele>
        <time>2026-08-09T10:09:24Z</time>
      </trkpt>
      <trkpt lat="45.07041" lon="6.05261">
        <ele>983.8</ele>
        <time>2026-08-09T10:09:26Z</time>
      </trkpt>
      <trkpt lat="45.0704" lon="6.05274">
        <ele>984.2</ele>
        <time>2026-08-09T10:09:28Z</time>
      </trkpt>
      <trkpt lat="45.07038" lon="6.05287">
        <ele>984.8</ele>
        <time>2026-08-09T10:09:30Z</time>
      </trkpt>
      <trkpt lat="45.07036" lon="6.05297">
        <ele>985</ele>
        <time>2026-08-09T10:09:32Z</time>
      </trkpt>
      <trkpt lat="45.07036" lon="6.05301">
        <ele>985</ele>
        <time>2026-08-09T10:09:33Z</time>
      </trkpt>
      <trkpt lat="45.07035" lon="6.05304">
        <ele>985</ele>
        <time>2026-08-09T10:09:34Z</time>
      </trkpt>
      <trkpt lat="45.07032" lon="6.05311">
        <ele>985.2</ele>
        <time>2026-08-09T10:09:36Z</time>
      </trkpt>
      <trkpt lat="45.07026" lon="6.05319">
        <ele>985.2</ele>
        <time>2026-08-09T10:09:38Z</time>
      </trkpt>
      <trkpt lat="45.07024" lon="6.05323">
        <ele>985.2</ele>
        <time>2026-08-09T10:09:39Z</time>
      </trkpt>
      <trkpt lat="45.07022" lon="6.05327">
        <ele>985.2</ele>
        <time>2026-08-09T10:09:40Z</time>
      </trkpt>
      <trkpt lat="45.07018" lon="6.05333">
        <ele>985.6</ele>
        <time>2026-08-09T10:09:42Z</time>
      </trkpt>
      <trkpt lat="45.07015" lon="6.05334">
        <ele>985.8</ele>
        <time>2026-08-09T10:09:43Z</time>
      </trkpt>
      <trkpt lat="45.07009" lon="6.05334">
        <ele>986</ele>
        <time>2026-08-09T10:09:44Z</time>
      </trkpt>
      <trkpt lat="45.07004" lon="6.05334">
        <ele>986.2</ele>
        <time>2026-08-09T10:09:45Z</time>
      </trkpt>
      <trkpt lat="45.06999" lon="6.05333">
        <ele>986.2</ele>
        <time>2026-08-09T10:09:46Z</time>
      </trkpt>
      <trkpt lat="45.06989" lon="6.05331">
        <ele>986.4</ele>
        <time>2026-08-09T10:09:48Z</time>
      </trkpt>
      <trkpt lat="45.06983" lon="6.05321">
        <ele>986.4</ele>
        <time>2026-08-09T10:09:50Z</time>
      </trkpt>
      <trkpt lat="45.06982" lon="6.05316">
        <ele>986.4</ele>
        <time>2026-08-09T10:09:51Z</time>
      </trkpt>
      <trkpt lat="45.06982" lon="6.05311">
        <ele>986.6</ele>
        <time>2026-08-09T10:09:52Z</time>
      </trkpt>
      <trkpt lat="45.06983" lon="6.053">
        <ele>986.6</ele>
        <time>2026-08-09T10:09:54Z</time>
      </trkpt>
      <trkpt lat="45.06984" lon="6.05288">
        <ele>986.8</ele>
        <time>2026-08-09T10:09:56Z</time>
      </trkpt>
      <trkpt lat="45.06984" lon="6.05278">
        <ele>987</ele>
        <time>2026-08-09T10:09:58Z</time>
      </trkpt>
      <trkpt lat="45.06983" lon="6.05273">
        <ele>987.2</ele>
        <time>2026-08-09T10:09:59Z</time>
      </trkpt>
      <trkpt lat="45.06981" lon="6.05268">
        <ele>987.4</ele>
        <time>2026-08-09T10:10:00Z</time>
      </trkpt>
      <trkpt lat="45.06977" lon="6.05258">
        <ele>987.8</ele>
        <time>2026-08-09T10:10:02Z</time>
      </trkpt>
      <trkpt lat="45.06975" lon="6.05254">
        <ele>988</ele>
        <time>2026-08-09T10:10:03Z</time>
      </trkpt>
      <trkpt lat="45.06973" lon="6.0525">
        <ele>988</ele>
        <time>2026-08-09T10:10:04Z</time>
      </trkpt>
      <trkpt lat="45.06969" lon="6.05244">
        <ele>988.2</ele>
        <time>2026-08-09T10:10:06Z</time>
      </trkpt>
      <trkpt lat="45.06965" lon="6.05238">
        <ele>988.4</ele>
        <time>2026-08-09T10:10:08Z</time>
      </trkpt>
      <trkpt lat="45.06964" lon="6.05235">
        <ele>988.4</ele>
        <time>2026-08-09T10:10:09Z</time>
      </trkpt>
      <trkpt lat="45.06962" lon="6.05233">
        <ele>988.6</ele>
        <time>2026-08-09T10:10:10Z</time>
      </trkpt>
      <trkpt lat="45.06958" lon="6.05228">
        <ele>989.4</ele>
        <time>2026-08-09T10:10:12Z</time>
      </trkpt>
      <trkpt lat="45.06955" lon="6.05224">
        <ele>989.6</ele>
        <time>2026-08-09T10:10:14Z</time>
      </trkpt>
      <trkpt lat="45.06952" lon="6.05219">
        <ele>990</ele>
        <time>2026-08-09T10:10:16Z</time>
      </trkpt>
      <trkpt lat="45.06951" lon="6.05217">
        <ele>990.2</ele>
        <time>2026-08-09T10:10:17Z</time>
      </trkpt>
      <trkpt lat="45.0695" lon="6.05216">
        <ele>990.4</ele>
        <time>2026-08-09T10:10:18Z</time>
      </trkpt>
      <trkpt lat="45.06948" lon="6.05213">
        <ele>990.6</ele>
        <time>2026-08-09T10:10:20Z</time>
      </trkpt>
      <trkpt lat="45.06947" lon="6.05211">
        <ele>990.8</ele>
        <time>2026-08-09T10:10:21Z</time>
      </trkpt>
      <trkpt lat="45.06946" lon="6.0521">
        <ele>991</ele>
        <time>2026-08-09T10:10:22Z</time>
      </trkpt>
      <trkpt lat="45.06943" lon="6.05207">
        <ele>991.6</ele>
        <time>2026-08-09T10:10:24Z</time>
      </trkpt>
      <trkpt lat="45.06942" lon="6.05206">
        <ele>991.8</ele>
        <time>2026-08-09T10:10:25Z</time>
      </trkpt>
      <trkpt lat="45.0694" lon="6.05205">
        <ele>992</ele>
        <time>2026-08-09T10:10:26Z</time>
      </trkpt>
      <trkpt lat="45.06937" lon="6.05201">
        <ele>992.6</ele>
        <time>2026-08-09T10:10:28Z</time>
      </trkpt>
      <trkpt lat="45.06934" lon="6.05198">
        <ele>992.8</ele>
        <time>2026-08-09T10:10:30Z</time>
      </trkpt>
      <trkpt lat="45.06931" lon="6.05195">
        <ele>993.2</ele>
        <time>2026-08-09T10:10:32Z</time>
      </trkpt>
      <trkpt lat="45.06929" lon="6.05192">
        <ele>993.6</ele>
        <time>2026-08-09T10:10:34Z</time>
      </trkpt>
      <trkpt lat="45.06926" lon="6.0519">
        <ele>994</ele>
        <time>2026-08-09T10:10:36Z</time>
      </trkpt>
      <trkpt lat="45.06924" lon="6.05187">
        <ele>994.2</ele>
        <time>2026-08-09T10:10:38Z</time>
      </trkpt>
      <trkpt lat="45.06923" lon="6.05185">
        <ele>994.6</ele>
        <time>2026-08-09T10:10:39Z</time>
      </trkpt>
      <trkpt lat="45.06921" lon="6.05184">
        <ele>995</ele>
        <time>2026-08-09T10:10:40Z</time>
      </trkpt>
      <trkpt lat="45.0692" lon="6.05183">
        <ele>995.4</ele>
        <time>2026-08-09T10:10:41Z</time>
      </trkpt>
      <trkpt lat="45.06918" lon="6.05182">
        <ele>995.6</ele>
        <time>2026-08-09T10:10:42Z</time>
      </trkpt>
      <trkpt lat="45.06917" lon="6.05181">
        <ele>995.8</ele>
        <time>2026-08-09T10:10:43Z</time>
      </trkpt>
      <trkpt lat="45.06915" lon="6.05179">
        <ele>996</ele>
        <time>2026-08-09T10:10:44Z</time>
      </trkpt>
      <trkpt lat="45.06912" lon="6.05177">
        <ele>996.2</ele>
        <time>2026-08-09T10:10:46Z</time>
      </trkpt>
      <trkpt lat="45.0691" lon="6.05176">
        <ele>996.4</ele>
        <time>2026-08-09T10:10:47Z</time>
      </trkpt>
      <trkpt lat="45.06908" lon="6.05174">
        <ele>996.6</ele>
        <time>2026-08-09T10:10:48Z</time>
      </trkpt>
      <trkpt lat="45.06905" lon="6.05171">
        <ele>997</ele>
        <time>2026-08-09T10:10:50Z</time>
      </trkpt>
      <trkpt lat="45.06901" lon="6.05167">
        <ele>997.2</ele>
        <time>2026-08-09T10:10:52Z</time>
      </trkpt>
      <trkpt lat="45.06896" lon="6.05162">
        <ele>997.6</ele>
        <time>2026-08-09T10:10:54Z</time>
      </trkpt>
      <trkpt lat="45.06894" lon="6.05161">
        <ele>997.8</ele>
        <time>2026-08-09T10:10:55Z</time>
      </trkpt>
      <trkpt lat="45.06892" lon="6.05159">
        <ele>997.8</ele>
        <time>2026-08-09T10:10:56Z</time>
      </trkpt>
      <trkpt lat="45.06888" lon="6.05156">
        <ele>998.2</ele>
        <time>2026-08-09T10:10:58Z</time>
      </trkpt>
      <trkpt lat="45.06887" lon="6.05155">
        <ele>998.4</ele>
        <time>2026-08-09T10:10:59Z</time>
      </trkpt>
      <trkpt lat="45.06885" lon="6.05153">
        <ele>998.6</ele>
        <time>2026-08-09T10:11:00Z</time>
      </trkpt>
      <trkpt lat="45.06883" lon="6.05152">
        <ele>998.8</ele>
        <time>2026-08-09T10:11:01Z</time>
      </trkpt>
      <trkpt lat="45.06881" lon="6.05151">
        <ele>999</ele>
        <time>2026-08-09T10:11:02Z</time>
      </trkpt>
      <trkpt lat="45.06876" lon="6.05148">
        <ele>999.4</ele>
        <time>2026-08-09T10:11:04Z</time>
      </trkpt>
      <trkpt lat="45.06872" lon="6.05145">
        <ele>999.8</ele>
        <time>2026-08-09T10:11:06Z</time>
      </trkpt>
      <trkpt lat="45.0687" lon="6.05143">
        <ele>1000</ele>
        <time>2026-08-09T10:11:07Z</time>
      </trkpt>
      <trkpt lat="45.06868" lon="6.05142">
        <ele>1000.4</ele>
        <time>2026-08-09T10:11:08Z</time>
      </trkpt>
      <trkpt lat="45.06864" lon="6.05137">
        <ele>1000.8</ele>
        <time>2026-08-09T10:11:10Z</time>
      </trkpt>
      <trkpt lat="45.0686" lon="6.05133">
        <ele>1001.2</ele>
        <time>2026-08-09T10:11:12Z</time>
      </trkpt>
      <trkpt lat="45.06856" lon="6.05127">
        <ele>1001.6</ele>
        <time>2026-08-09T10:11:14Z</time>
      </trkpt>
      <trkpt lat="45.06852" lon="6.05122">
        <ele>1001.8</ele>
        <time>2026-08-09T10:11:16Z</time>
      </trkpt>
      <trkpt lat="45.0685" lon="6.05116">
        <ele>1002.2</ele>
        <time>2026-08-09T10:11:18Z</time>
      </trkpt>
      <trkpt lat="45.06847" lon="6.05109">
        <ele>1002.4</ele>
        <time>2026-08-09T10:11:20Z</time>
      </trkpt>
      <trkpt lat="45.06845" lon="6.05104">
        <ele>1002.6</ele>
        <time>2026-08-09T10:11:22Z</time>
      </trkpt>
      <trkpt lat="45.06842" lon="6.05098">
        <ele>1003</ele>
        <time>2026-08-09T10:11:24Z</time>
      </trkpt>
      <trkpt lat="45.0684" lon="6.05093">
        <ele>1003.4</ele>
        <time>2026-08-09T10:11:26Z</time>
      </trkpt>
      <trkpt lat="45.06837" lon="6.05088">
        <ele>1004.2</ele>
        <time>2026-08-09T10:11:28Z</time>
      </trkpt>
      <trkpt lat="45.06835" lon="6.05083">
        <ele>1004.6</ele>
        <time>2026-08-09T10:11:30Z</time>
      </trkpt>
      <trkpt lat="45.06833" lon="6.0508">
        <ele>1004.8</ele>
        <time>2026-08-09T10:11:31Z</time>
      </trkpt>
      <trkpt lat="45.06832" lon="6.05077">
        <ele>1005</ele>
        <time>2026-08-09T10:11:32Z</time>
      </trkpt>
      <trkpt lat="45.06829" lon="6.05073">
        <ele>1005.2</ele>
        <time>2026-08-09T10:11:34Z</time>
      </trkpt>
      <trkpt lat="45.06825" lon="6.05069">
        <ele>1005.4</ele>
        <time>2026-08-09T10:11:36Z</time>
      </trkpt>
      <trkpt lat="45.06822" lon="6.05065">
        <ele>1005.8</ele>
        <time>2026-08-09T10:11:38Z</time>
      </trkpt>
      <trkpt lat="45.0682" lon="6.05064">
        <ele>1006</ele>
        <time>2026-08-09T10:11:39Z</time>
      </trkpt>
      <trkpt lat="45.06818" lon="6.05063">
        <ele>1006</ele>
        <time>2026-08-09T10:11:40Z</time>
      </trkpt>
      <trkpt lat="45.06813" lon="6.05061">
        <ele>1006.6</ele>
        <time>2026-08-09T10:11:42Z</time>
      </trkpt>
      <trkpt lat="45.06809" lon="6.05059">
        <ele>1007</ele>
        <time>2026-08-09T10:11:44Z</time>
      </trkpt>
      <trkpt lat="45.06807" lon="6.05058">
        <ele>1007</ele>
        <time>2026-08-09T10:11:45Z</time>
      </trkpt>
      <trkpt lat="45.06805" lon="6.05057">
        <ele>1007.2</ele>
        <time>2026-08-09T10:11:46Z</time>
      </trkpt>
      <trkpt lat="45.06801" lon="6.05056">
        <ele>1007.6</ele>
        <time>2026-08-09T10:11:48Z</time>
      </trkpt>
      <trkpt lat="45.06797" lon="6.05055">
        <ele>1008</ele>
        <time>2026-08-09T10:11:50Z</time>
      </trkpt>
      <trkpt lat="45.06793" lon="6.05053">
        <ele>1008.2</ele>
        <time>2026-08-09T10:11:52Z</time>
      </trkpt>
      <trkpt lat="45.06789" lon="6.05051">
        <ele>1008.4</ele>
        <time>2026-08-09T10:11:54Z</time>
      </trkpt>
      <trkpt lat="45.06785" lon="6.05046">
        <ele>1008.6</ele>
        <time>2026-08-09T10:11:56Z</time>
      </trkpt>
      <trkpt lat="45.06781" lon="6.05041">
        <ele>1008.8</ele>
        <time>2026-08-09T10:11:58Z</time>
      </trkpt>
      <trkpt lat="45.06778" lon="6.05037">
        <ele>1009.2</ele>
        <time>2026-08-09T10:12:00Z</time>
      </trkpt>
      <trkpt lat="45.06777" lon="6.05034">
        <ele>1009.2</ele>
        <time>2026-08-09T10:12:01Z</time>
      </trkpt>
      <trkpt lat="45.06775" lon="6.05031">
        <ele>1009.2</ele>
        <time>2026-08-09T10:12:02Z</time>
      </trkpt>
      <trkpt lat="45.06773" lon="6.05026">
        <ele>1009.6</ele>
        <time>2026-08-09T10:12:04Z</time>
      </trkpt>
      <trkpt lat="45.0677" lon="6.05021">
        <ele>1010.2</ele>
        <time>2026-08-09T10:12:06Z</time>
      </trkpt>
      <trkpt lat="45.06767" lon="6.05016">
        <ele>1010.8</ele>
        <time>2026-08-09T10:12:08Z</time>
      </trkpt>
      <trkpt lat="45.06766" lon="6.05014">
        <ele>1011</ele>
        <time>2026-08-09T10:12:09Z</time>
      </trkpt>
      <trkpt lat="45.06765" lon="6.05011">
        <ele>1011.2</ele>
        <time>2026-08-09T10:12:10Z</time>
      </trkpt>
      <trkpt lat="45.06762" lon="6.05006">
        <ele>1011.4</ele>
        <time>2026-08-09T10:12:12Z</time>
      </trkpt>
      <trkpt lat="45.06761" lon="6.05004">
        <ele>1011.6</ele>
        <time>2026-08-09T10:12:13Z</time>
      </trkpt>
      <trkpt lat="45.0676" lon="6.05001">
        <ele>1011.8</ele>
        <time>2026-08-09T10:12:14Z</time>
      </trkpt>
      <trkpt lat="45.06759" lon="6.04999">
        <ele>1012</ele>
        <time>2026-08-09T10:12:15Z</time>
      </trkpt>
      <trkpt lat="45.06757" lon="6.04997">
        <ele>1012.2</ele>
        <time>2026-08-09T10:12:16Z</time>
      </trkpt>
      <trkpt lat="45.06754" lon="6.04993">
        <ele>1012.4</ele>
        <time>2026-08-09T10:12:18Z</time>
      </trkpt>
      <trkpt lat="45.06751" lon="6.04989">
        <ele>1012.8</ele>
        <time>2026-08-09T10:12:20Z</time>
      </trkpt>
      <trkpt lat="45.06749" lon="6.04985">
        <ele>1013</ele>
        <time>2026-08-09T10:12:22Z</time>
      </trkpt>
      <trkpt lat="45.06748" lon="6.04983">
        <ele>1013.2</ele>
        <time>2026-08-09T10:12:23Z</time>
      </trkpt>
      <trkpt lat="45.06747" lon="6.04981">
        <ele>1013.6</ele>
        <time>2026-08-09T10:12:24Z</time>
      </trkpt>
      <trkpt lat="45.06745" lon="6.04979">
        <ele>1013.8</ele>
        <time>2026-08-09T10:12:25Z</time>
      </trkpt>
      <trkpt lat="45.06744" lon="6.04977">
        <ele>1014</ele>
        <time>2026-08-09T10:12:26Z</time>
      </trkpt>
      <trkpt lat="45.06741" lon="6.04972">
        <ele>1014.2</ele>
        <time>2026-08-09T10:12:28Z</time>
      </trkpt>
      <trkpt lat="45.06738" lon="6.04967">
        <ele>1014.8</ele>
        <time>2026-08-09T10:12:30Z</time>
      </trkpt>
      <trkpt lat="45.06736" lon="6.04965">
        <ele>1015</ele>
        <time>2026-08-09T10:12:31Z</time>
      </trkpt>
      <trkpt lat="45.06735" lon="6.04963">
        <ele>1015.2</ele>
        <time>2026-08-09T10:12:32Z</time>
      </trkpt>
      <trkpt lat="45.06733" lon="6.04959">
        <ele>1015.6</ele>
        <time>2026-08-09T10:12:34Z</time>
      </trkpt>
      <trkpt lat="45.0673" lon="6.04954">
        <ele>1016</ele>
        <time>2026-08-09T10:12:36Z</time>
      </trkpt>
      <trkpt lat="45.06728" lon="6.04952">
        <ele>1016.2</ele>
        <time>2026-08-09T10:12:37Z</time>
      </trkpt>
      <trkpt lat="45.06726" lon="6.0495">
        <ele>1016.2</ele>
        <time>2026-08-09T10:12:38Z</time>
      </trkpt>
      <trkpt lat="45.06723" lon="6.04949">
        <ele>1016.6</ele>
        <time>2026-08-09T10:12:39Z</time>
      </trkpt>
      <trkpt lat="45.06721" lon="6.04947">
        <ele>1017</ele>
        <time>2026-08-09T10:12:40Z</time>
      </trkpt>
      <trkpt lat="45.06717" lon="6.04944">
        <ele>1017.2</ele>
        <time>2026-08-09T10:12:42Z</time>
      </trkpt>
      <trkpt lat="45.06715" lon="6.04943">
        <ele>1017.4</ele>
        <time>2026-08-09T10:12:43Z</time>
      </trkpt>
      <trkpt lat="45.06713" lon="6.04941">
        <ele>1017.4</ele>
        <time>2026-08-09T10:12:44Z</time>
      </trkpt>
      <trkpt lat="45.06709" lon="6.04939">
        <ele>1017.6</ele>
        <time>2026-08-09T10:12:46Z</time>
      </trkpt>
      <trkpt lat="45.06708" lon="6.04938">
        <ele>1017.8</ele>
        <time>2026-08-09T10:12:47Z</time>
      </trkpt>
      <trkpt lat="45.06706" lon="6.04937">
        <ele>1018</ele>
        <time>2026-08-09T10:12:48Z</time>
      </trkpt>
      <trkpt lat="45.06703" lon="6.04935">
        <ele>1018.2</ele>
        <time>2026-08-09T10:12:50Z</time>
      </trkpt>
      <trkpt lat="45.06701" lon="6.04934">
        <ele>1018.4</ele>
        <time>2026-08-09T10:12:51Z</time>
      </trkpt>
      <trkpt lat="45.06699" lon="6.04933">
        <ele>1018.4</ele>
        <time>2026-08-09T10:12:52Z</time>
      </trkpt>
      <trkpt lat="45.06695" lon="6.04932">
        <ele>1018.8</ele>
        <time>2026-08-09T10:12:54Z</time>
      </trkpt>
      <trkpt lat="45.06691" lon="6.04929">
        <ele>1019.2</ele>
        <time>2026-08-09T10:12:56Z</time>
      </trkpt>
      <trkpt lat="45.06687" lon="6.04927">
        <ele>1019.4</ele>
        <time>2026-08-09T10:12:58Z</time>
      </trkpt>
      <trkpt lat="45.06684" lon="6.04926">
        <ele>1020</ele>
        <time>2026-08-09T10:13:00Z</time>
      </trkpt>
      <trkpt lat="45.0668" lon="6.04922">
        <ele>1020.4</ele>
        <time>2026-08-09T10:13:02Z</time>
      </trkpt>
      <trkpt lat="45.06676" lon="6.04919">
        <ele>1020.6</ele>
        <time>2026-08-09T10:13:04Z</time>
      </trkpt>
      <trkpt lat="45.06673" lon="6.04917">
        <ele>1020.8</ele>
        <time>2026-08-09T10:13:05Z</time>
      </trkpt>
      <trkpt lat="45.06671" lon="6.04914">
        <ele>1021</ele>
        <time>2026-08-09T10:13:06Z</time>
      </trkpt>
      <trkpt lat="45.06669" lon="6.04912">
        <ele>1021.2</ele>
        <time>2026-08-09T10:13:07Z</time>
      </trkpt>
      <trkpt lat="45.06666" lon="6.0491">
        <ele>1021.4</ele>
        <time>2026-08-09T10:13:08Z</time>
      </trkpt>
      <trkpt lat="45.06663" lon="6.04905">
        <ele>1021.6</ele>
        <time>2026-08-09T10:13:10Z</time>
      </trkpt>
      <trkpt lat="45.06661" lon="6.04904">
        <ele>1021.8</ele>
        <time>2026-08-09T10:13:11Z</time>
      </trkpt>
      <trkpt lat="45.06659" lon="6.04902">
        <ele>1022</ele>
        <time>2026-08-09T10:13:12Z</time>
      </trkpt>
      <trkpt lat="45.06655" lon="6.04899">
        <ele>1022.2</ele>
        <time>2026-08-09T10:13:14Z</time>
      </trkpt>
      <trkpt lat="45.06651" lon="6.04896">
        <ele>1022.6</ele>
        <time>2026-08-09T10:13:16Z</time>
      </trkpt>
      <trkpt lat="45.06648" lon="6.04894">
        <ele>1023</ele>
        <time>2026-08-09T10:13:18Z</time>
      </trkpt>
      <trkpt lat="45.06644" lon="6.04891">
        <ele>1023.4</ele>
        <time>2026-08-09T10:13:20Z</time>
      </trkpt>
      <trkpt lat="45.0664" lon="6.04888">
        <ele>1023.8</ele>
        <time>2026-08-09T10:13:22Z</time>
      </trkpt>
      <trkpt lat="45.06638" lon="6.04887">
        <ele>1024</ele>
        <time>2026-08-09T10:13:23Z</time>
      </trkpt>
      <trkpt lat="45.06636" lon="6.04885">
        <ele>1024.2</ele>
        <time>2026-08-09T10:13:24Z</time>
      </trkpt>
      <trkpt lat="45.06634" lon="6.04883">
        <ele>1024.4</ele>
        <time>2026-08-09T10:13:25Z</time>
      </trkpt>
      <trkpt lat="45.06632" lon="6.04881">
        <ele>1024.4</ele>
        <time>2026-08-09T10:13:26Z</time>
      </trkpt>
      <trkpt lat="45.06629" lon="6.04878">
        <ele>1024.8</ele>
        <time>2026-08-09T10:13:28Z</time>
      </trkpt>
      <trkpt lat="45.06627" lon="6.04876">
        <ele>1025</ele>
        <time>2026-08-09T10:13:29Z</time>
      </trkpt>
      <trkpt lat="45.06626" lon="6.04874">
        <ele>1025.2</ele>
        <time>2026-08-09T10:13:30Z</time>
      </trkpt>
      <trkpt lat="45.06622" lon="6.04869">
        <ele>1025.4</ele>
        <time>2026-08-09T10:13:32Z</time>
      </trkpt>
      <trkpt lat="45.0662" lon="6.04863">
        <ele>1025.6</ele>
        <time>2026-08-09T10:13:34Z</time>
      </trkpt>
      <trkpt lat="45.06616" lon="6.04858">
        <ele>1026</ele>
        <time>2026-08-09T10:13:36Z</time>
      </trkpt>
      <trkpt lat="45.06615" lon="6.04856">
        <ele>1026.2</ele>
        <time>2026-08-09T10:13:37Z</time>
      </trkpt>
      <trkpt lat="45.06613" lon="6.04853">
        <ele>1026.6</ele>
        <time>2026-08-09T10:13:38Z</time>
      </trkpt>
      <trkpt lat="45.0661" lon="6.04848">
        <ele>1026.8</ele>
        <time>2026-08-09T10:13:40Z</time>
      </trkpt>
      <trkpt lat="45.06607" lon="6.04843">
        <ele>1027.4</ele>
        <time>2026-08-09T10:13:42Z</time>
      </trkpt>
      <trkpt lat="45.06603" lon="6.04839">
        <ele>1027.8</ele>
        <time>2026-08-09T10:13:44Z</time>
      </trkpt>
      <trkpt lat="45.066" lon="6.04835">
        <ele>1028.4</ele>
        <time>2026-08-09T10:13:46Z</time>
      </trkpt>
      <trkpt lat="45.06598" lon="6.04833">
        <ele>1028.6</ele>
        <time>2026-08-09T10:13:47Z</time>
      </trkpt>
      <trkpt lat="45.06596" lon="6.04831">
        <ele>1028.6</ele>
        <time>2026-08-09T10:13:48Z</time>
      </trkpt>
      <trkpt lat="45.06592" lon="6.04828">
        <ele>1028.8</ele>
        <time>2026-08-09T10:13:50Z</time>
      </trkpt>
      <trkpt lat="45.06588" lon="6.04826">
        <ele>1029</ele>
        <time>2026-08-09T10:13:52Z</time>
      </trkpt>
      <trkpt lat="45.06584" lon="6.04823">
        <ele>1029.4</ele>
        <time>2026-08-09T10:13:54Z</time>
      </trkpt>
      <trkpt lat="45.06582" lon="6.04822">
        <ele>1029.6</ele>
        <time>2026-08-09T10:13:55Z</time>
      </trkpt>
      <trkpt lat="45.0658" lon="6.0482">
        <ele>1029.8</ele>
        <time>2026-08-09T10:13:56Z</time>
      </trkpt>
      <trkpt lat="45.06576" lon="6.04818">
        <ele>1030.4</ele>
        <time>2026-08-09T10:13:58Z</time>
      </trkpt>
      <trkpt lat="45.06573" lon="6.04815">
        <ele>1031</ele>
        <time>2026-08-09T10:14:00Z</time>
      </trkpt>
      <trkpt lat="45.0657" lon="6.04813">
        <ele>1031.4</ele>
        <time>2026-08-09T10:14:02Z</time>
      </trkpt>
      <trkpt lat="45.06569" lon="6.04812">
        <ele>1031.6</ele>
        <time>2026-08-09T10:14:03Z</time>
      </trkpt>
      <trkpt lat="45.06567" lon="6.04811">
        <ele>1032</ele>
        <time>2026-08-09T10:14:04Z</time>
      </trkpt>
      <trkpt lat="45.06566" lon="6.0481">
        <ele>1032</ele>
        <time>2026-08-09T10:14:05Z</time>
      </trkpt>
      <trkpt lat="45.06565" lon="6.04809">
        <ele>1032.2</ele>
        <time>2026-08-09T10:14:06Z</time>
      </trkpt>
      <trkpt lat="45.06562" lon="6.04807">
        <ele>1032.6</ele>
        <time>2026-08-09T10:14:08Z</time>
      </trkpt>
      <trkpt lat="45.0656" lon="6.04806">
        <ele>1033</ele>
        <time>2026-08-09T10:14:10Z</time>
      </trkpt>
      <trkpt lat="45.06558" lon="6.04805">
        <ele>1033.4</ele>
        <time>2026-08-09T10:14:12Z</time>
      </trkpt>
      <trkpt lat="45.06555" lon="6.04803">
        <ele>1033.8</ele>
        <time>2026-08-09T10:14:14Z</time>
      </trkpt>
      <trkpt lat="45.06552" lon="6.04802">
        <ele>1034.2</ele>
        <time>2026-08-09T10:14:16Z</time>
      </trkpt>
      <trkpt lat="45.0655" lon="6.048">
        <ele>1034.4</ele>
        <time>2026-08-09T10:14:18Z</time>
      </trkpt>
      <trkpt lat="45.06548" lon="6.048">
        <ele>1034.8</ele>
        <time>2026-08-09T10:14:19Z</time>
      </trkpt>
      <trkpt lat="45.06547" lon="6.04799">
        <ele>1035</ele>
        <time>2026-08-09T10:14:20Z</time>
      </trkpt>
      <trkpt lat="45.06544" lon="6.04798">
        <ele>1035.2</ele>
        <time>2026-08-09T10:14:22Z</time>
      </trkpt>
      <trkpt lat="45.06542" lon="6.04798">
        <ele>1035.4</ele>
        <time>2026-08-09T10:14:23Z</time>
      </trkpt>
      <trkpt lat="45.0654" lon="6.04797">
        <ele>1035.6</ele>
        <time>2026-08-09T10:14:24Z</time>
      </trkpt>
      <trkpt lat="45.06537" lon="6.04797">
        <ele>1035.8</ele>
        <time>2026-08-09T10:14:26Z</time>
      </trkpt>
      <trkpt lat="45.06534" lon="6.04797">
        <ele>1036.2</ele>
        <time>2026-08-09T10:14:28Z</time>
      </trkpt>
      <trkpt lat="45.06532" lon="6.04797">
        <ele>1036.4</ele>
        <time>2026-08-09T10:14:29Z</time>
      </trkpt>
      <trkpt lat="45.0653" lon="6.04798">
        <ele>1036.8</ele>
        <time>2026-08-09T10:14:30Z</time>
      </trkpt>
      <trkpt lat="45.06527" lon="6.04799">
        <ele>1037</ele>
        <time>2026-08-09T10:14:32Z</time>
      </trkpt>
      <trkpt lat="45.06525" lon="6.048">
        <ele>1037.2</ele>
        <time>2026-08-09T10:14:33Z</time>
      </trkpt>
      <trkpt lat="45.06524" lon="6.048">
        <ele>1037.2</ele>
        <time>2026-08-09T10:14:34Z</time>
      </trkpt>
      <trkpt lat="45.0652" lon="6.04803">
        <ele>1037.4</ele>
        <time>2026-08-09T10:14:36Z</time>
      </trkpt>
      <trkpt lat="45.06517" lon="6.04805">
        <ele>1037.8</ele>
        <time>2026-08-09T10:14:38Z</time>
      </trkpt>
      <trkpt lat="45.06515" lon="6.04807">
        <ele>1038</ele>
        <time>2026-08-09T10:14:39Z</time>
      </trkpt>
      <trkpt lat="45.06514" lon="6.04808">
        <ele>1038.2</ele>
        <time>2026-08-09T10:14:40Z</time>
      </trkpt>
      <trkpt lat="45.06511" lon="6.04811">
        <ele>1038.4</ele>
        <time>2026-08-09T10:14:42Z</time>
      </trkpt>
      <trkpt lat="45.06509" lon="6.04812">
        <ele>1038.6</ele>
        <time>2026-08-09T10:14:44Z</time>
      </trkpt>
      <trkpt lat="45.06507" lon="6.04813">
        <ele>1038.8</ele>
        <time>2026-08-09T10:14:46Z</time>
      </trkpt>
      <trkpt lat="45.06506" lon="6.04813">
        <ele>1039</ele>
        <time>2026-08-09T10:14:47Z</time>
      </trkpt>
      <trkpt lat="45.06505" lon="6.04813">
        <ele>1039.2</ele>
        <time>2026-08-09T10:14:48Z</time>
      </trkpt>
      <trkpt lat="45.06502" lon="6.04813">
        <ele>1039.4</ele>
        <time>2026-08-09T10:14:50Z</time>
      </trkpt>
      <trkpt lat="45.06499" lon="6.04813">
        <ele>1039.8</ele>
        <time>2026-08-09T10:14:52Z</time>
      </trkpt>
      <trkpt lat="45.06498" lon="6.04814">
        <ele>1040.2</ele>
        <time>2026-08-09T10:14:53Z</time>
      </trkpt>
      <trkpt lat="45.06497" lon="6.04814">
        <ele>1040.2</ele>
        <time>2026-08-09T10:14:54Z</time>
      </trkpt>
      <trkpt lat="45.06494" lon="6.04814">
        <ele>1040.6</ele>
        <time>2026-08-09T10:14:56Z</time>
      </trkpt>
      <trkpt lat="45.06492" lon="6.04815">
        <ele>1040.8</ele>
        <time>2026-08-09T10:14:58Z</time>
      </trkpt>
      <trkpt lat="45.06489" lon="6.04816">
        <ele>1041</ele>
        <time>2026-08-09T10:15:00Z</time>
      </trkpt>
      <trkpt lat="45.06486" lon="6.04816">
        <ele>1041.2</ele>
        <time>2026-08-09T10:15:02Z</time>
      </trkpt>
      <trkpt lat="45.06483" lon="6.04816">
        <ele>1041.4</ele>
        <time>2026-08-09T10:15:04Z</time>
      </trkpt>
      <trkpt lat="45.06482" lon="6.04816">
        <ele>1041.6</ele>
        <time>2026-08-09T10:15:05Z</time>
      </trkpt>
      <trkpt lat="45.0648" lon="6.04817">
        <ele>1041.8</ele>
        <time>2026-08-09T10:15:06Z</time>
      </trkpt>
      <trkpt lat="45.06478" lon="6.04819">
        <ele>1042.2</ele>
        <time>2026-08-09T10:15:08Z</time>
      </trkpt>
      <trkpt lat="45.06474" lon="6.0482">
        <ele>1042.6</ele>
        <time>2026-08-09T10:15:10Z</time>
      </trkpt>
      <trkpt lat="45.06471" lon="6.04821">
        <ele>1043</ele>
        <time>2026-08-09T10:15:12Z</time>
      </trkpt>
      <trkpt lat="45.06467" lon="6.04822">
        <ele>1043.4</ele>
        <time>2026-08-09T10:15:14Z</time>
      </trkpt>
      <trkpt lat="45.06463" lon="6.04824">
        <ele>1043.8</ele>
        <time>2026-08-09T10:15:16Z</time>
      </trkpt>
      <trkpt lat="45.0646" lon="6.04824">
        <ele>1044.2</ele>
        <time>2026-08-09T10:15:18Z</time>
      </trkpt>
      <trkpt lat="45.06456" lon="6.04824">
        <ele>1044.4</ele>
        <time>2026-08-09T10:15:20Z</time>
      </trkpt>
      <trkpt lat="45.06454" lon="6.04824">
        <ele>1044.6</ele>
        <time>2026-08-09T10:15:21Z</time>
      </trkpt>
      <trkpt lat="45.06453" lon="6.04824">
        <ele>1044.8</ele>
        <time>2026-08-09T10:15:22Z</time>
      </trkpt>
      <trkpt lat="45.06449" lon="6.04826">
        <ele>1045.4</ele>
        <time>2026-08-09T10:15:24Z</time>
      </trkpt>
      <trkpt lat="45.06448" lon="6.04828">
        <ele>1045.4</ele>
        <time>2026-08-09T10:15:25Z</time>
      </trkpt>
      <trkpt lat="45.06447" lon="6.04828">
        <ele>1045.6</ele>
        <time>2026-08-09T10:15:26Z</time>
      </trkpt>
      <trkpt lat="45.06443" lon="6.04829">
        <ele>1046</ele>
        <time>2026-08-09T10:15:28Z</time>
      </trkpt>
      <trkpt lat="45.0644" lon="6.04829">
        <ele>1046.4</ele>
        <time>2026-08-09T10:15:30Z</time>
      </trkpt>
      <trkpt lat="45.06439" lon="6.04829">
        <ele>1046.6</ele>
        <time>2026-08-09T10:15:31Z</time>
      </trkpt>
      <trkpt lat="45.06437" lon="6.04828">
        <ele>1046.8</ele>
        <time>2026-08-09T10:15:32Z</time>
      </trkpt>
      <trkpt lat="45.06434" lon="6.04827">
        <ele>1047.2</ele>
        <time>2026-08-09T10:15:34Z</time>
      </trkpt>
      <trkpt lat="45.06431" lon="6.04826">
        <ele>1047.6</ele>
        <time>2026-08-09T10:15:36Z</time>
      </trkpt>
      <trkpt lat="45.0643" lon="6.04825">
        <ele>1047.6</ele>
        <time>2026-08-09T10:15:37Z</time>
      </trkpt>
      <trkpt lat="45.06428" lon="6.04825">
        <ele>1048</ele>
        <time>2026-08-09T10:15:38Z</time>
      </trkpt>
      <trkpt lat="45.06425" lon="6.04824">
        <ele>1048.4</ele>
        <time>2026-08-09T10:15:40Z</time>
      </trkpt>
      <trkpt lat="45.06422" lon="6.04824">
        <ele>1048.8</ele>
        <time>2026-08-09T10:15:42Z</time>
      </trkpt>
      <trkpt lat="45.06421" lon="6.04823">
        <ele>1049.2</ele>
        <time>2026-08-09T10:15:43Z</time>
      </trkpt>
      <trkpt lat="45.0642" lon="6.04823">
        <ele>1049.4</ele>
        <time>2026-08-09T10:15:44Z</time>
      </trkpt>
      <trkpt lat="45.06416" lon="6.04824">
        <ele>1049.8</ele>
        <time>2026-08-09T10:15:46Z</time>
      </trkpt>
      <trkpt lat="45.06412" lon="6.04822">
        <ele>1050</ele>
        <time>2026-08-09T10:15:48Z</time>
      </trkpt>
      <trkpt lat="45.0641" lon="6.0482">
        <ele>1050.2</ele>
        <time>2026-08-09T10:15:49Z</time>
      </trkpt>
      <trkpt lat="45.06408" lon="6.0482">
        <ele>1050.4</ele>
        <time>2026-08-09T10:15:50Z</time>
      </trkpt>
      <trkpt lat="45.06403" lon="6.0482">
        <ele>1050.8</ele>
        <time>2026-08-09T10:15:52Z</time>
      </trkpt>
      <trkpt lat="45.06399" lon="6.04816">
        <ele>1051.4</ele>
        <time>2026-08-09T10:15:54Z</time>
      </trkpt>
      <trkpt lat="45.06396" lon="6.04815">
        <ele>1051.6</ele>
        <time>2026-08-09T10:15:55Z</time>
      </trkpt>
      <trkpt lat="45.06394" lon="6.04815">
        <ele>1052</ele>
        <time>2026-08-09T10:15:56Z</time>
      </trkpt>
      <trkpt lat="45.0639" lon="6.0481">
        <ele>1052.2</ele>
        <time>2026-08-09T10:15:58Z</time>
      </trkpt>
      <trkpt lat="45.06386" lon="6.04808">
        <ele>1052.4</ele>
        <time>2026-08-09T10:16:00Z</time>
      </trkpt>
      <trkpt lat="45.06383" lon="6.04807">
        <ele>1053</ele>
        <time>2026-08-09T10:16:02Z</time>
      </trkpt>
      <trkpt lat="45.06379" lon="6.04806">
        <ele>1053.2</ele>
        <time>2026-08-09T10:16:04Z</time>
      </trkpt>
      <trkpt lat="45.06377" lon="6.04806">
        <ele>1053.6</ele>
        <time>2026-08-09T10:16:06Z</time>
      </trkpt>
      <trkpt lat="45.06374" lon="6.04805">
        <ele>1053.8</ele>
        <time>2026-08-09T10:16:08Z</time>
      </trkpt>
      <trkpt lat="45.06373" lon="6.04805">
        <ele>1054</ele>
        <time>2026-08-09T10:16:09Z</time>
      </trkpt>
      <trkpt lat="45.06371" lon="6.04804">
        <ele>1054.4</ele>
        <time>2026-08-09T10:16:10Z</time>
      </trkpt>
      <trkpt lat="45.06369" lon="6.04802">
        <ele>1054.6</ele>
        <time>2026-08-09T10:16:12Z</time>
      </trkpt>
      <trkpt lat="45.06365" lon="6.04801">
        <ele>1055</ele>
        <time>2026-08-09T10:16:14Z</time>
      </trkpt>
      <trkpt lat="45.06364" lon="6.048">
        <ele>1055</ele>
        <time>2026-08-09T10:16:15Z</time>
      </trkpt>
      <trkpt lat="45.06362" lon="6.04799">
        <ele>1055.4</ele>
        <time>2026-08-09T10:16:16Z</time>
      </trkpt>
      <trkpt lat="45.06359" lon="6.04798">
        <ele>1055.8</ele>
        <time>2026-08-09T10:16:18Z</time>
      </trkpt>
      <trkpt lat="45.06358" lon="6.04797">
        <ele>1056</ele>
        <time>2026-08-09T10:16:19Z</time>
      </trkpt>
      <trkpt lat="45.06356" lon="6.04796">
        <ele>1056.2</ele>
        <time>2026-08-09T10:16:20Z</time>
      </trkpt>
      <trkpt lat="45.06354" lon="6.04796">
        <ele>1056.4</ele>
        <time>2026-08-09T10:16:21Z</time>
      </trkpt>
      <trkpt lat="45.06352" lon="6.04795">
        <ele>1056.8</ele>
        <time>2026-08-09T10:16:22Z</time>
      </trkpt>
      <trkpt lat="45.0635" lon="6.04794">
        <ele>1057</ele>
        <time>2026-08-09T10:16:23Z</time>
      </trkpt>
      <trkpt lat="45.06348" lon="6.04793">
        <ele>1057.2</ele>
        <time>2026-08-09T10:16:24Z</time>
      </trkpt>
      <trkpt lat="45.06345" lon="6.04792">
        <ele>1057.4</ele>
        <time>2026-08-09T10:16:26Z</time>
      </trkpt>
      <trkpt lat="45.06342" lon="6.04788">
        <ele>1057.6</ele>
        <time>2026-08-09T10:16:28Z</time>
      </trkpt>
      <trkpt lat="45.0634" lon="6.04785">
        <ele>1058</ele>
        <time>2026-08-09T10:16:30Z</time>
      </trkpt>
      <trkpt lat="45.06337" lon="6.04781">
        <ele>1058.6</ele>
        <time>2026-08-09T10:16:32Z</time>
      </trkpt>
      <trkpt lat="45.06334" lon="6.04779">
        <ele>1058.8</ele>
        <time>2026-08-09T10:16:34Z</time>
      </trkpt>
      <trkpt lat="45.06332" lon="6.04777">
        <ele>1059</ele>
        <time>2026-08-09T10:16:36Z</time>
      </trkpt>
      <trkpt lat="45.0633" lon="6.04776">
        <ele>1059.2</ele>
        <time>2026-08-09T10:16:37Z</time>
      </trkpt>
      <trkpt lat="45.06329" lon="6.04776">
        <ele>1059.4</ele>
        <time>2026-08-09T10:16:38Z</time>
      </trkpt>
      <trkpt lat="45.06326" lon="6.04775">
        <ele>1059.8</ele>
        <time>2026-08-09T10:16:40Z</time>
      </trkpt>
      <trkpt lat="45.06322" lon="6.04774">
        <ele>1060.2</ele>
        <time>2026-08-09T10:16:42Z</time>
      </trkpt>
      <trkpt lat="45.06319" lon="6.04774">
        <ele>1060.4</ele>
        <time>2026-08-09T10:16:44Z</time>
      </trkpt>
      <trkpt lat="45.06318" lon="6.04772">
        <ele>1060.6</ele>
        <time>2026-08-09T10:16:45Z</time>
      </trkpt>
      <trkpt lat="45.06317" lon="6.0477">
        <ele>1060.8</ele>
        <time>2026-08-09T10:16:46Z</time>
      </trkpt>
      <trkpt lat="45.06313" lon="6.04769">
        <ele>1061</ele>
        <time>2026-08-09T10:16:48Z</time>
      </trkpt>
      <trkpt lat="45.0631" lon="6.04769">
        <ele>1061.2</ele>
        <time>2026-08-09T10:16:50Z</time>
      </trkpt>
      <trkpt lat="45.06309" lon="6.04769">
        <ele>1061.6</ele>
        <time>2026-08-09T10:16:51Z</time>
      </trkpt>
      <trkpt lat="45.06307" lon="6.04769">
        <ele>1061.8</ele>
        <time>2026-08-09T10:16:52Z</time>
      </trkpt>
      <trkpt lat="45.06304" lon="6.04769">
        <ele>1062.2</ele>
        <time>2026-08-09T10:16:54Z</time>
      </trkpt>
      <trkpt lat="45.06301" lon="6.04769">
        <ele>1062.6</ele>
        <time>2026-08-09T10:16:56Z</time>
      </trkpt>
      <trkpt lat="45.06299" lon="6.04769">
        <ele>1062.6</ele>
        <time>2026-08-09T10:16:57Z</time>
      </trkpt>
      <trkpt lat="45.06298" lon="6.04769">
        <ele>1062.6</ele>
        <time>2026-08-09T10:16:58Z</time>
      </trkpt>
      <trkpt lat="45.06295" lon="6.04769">
        <ele>1063</ele>
        <time>2026-08-09T10:17:00Z</time>
      </trkpt>
      <trkpt lat="45.06292" lon="6.04767">
        <ele>1063.2</ele>
        <time>2026-08-09T10:17:02Z</time>
      </trkpt>
      <trkpt lat="45.0629" lon="6.04766">
        <ele>1063.4</ele>
        <time>2026-08-09T10:17:04Z</time>
      </trkpt>
      <trkpt lat="45.06289" lon="6.04766">
        <ele>1063.4</ele>
        <time>2026-08-09T10:17:05Z</time>
      </trkpt>
      <trkpt lat="45.06287" lon="6.04766">
        <ele>1063.6</ele>
        <time>2026-08-09T10:17:06Z</time>
      </trkpt>
      <trkpt lat="45.06286" lon="6.04766">
        <ele>1063.6</ele>
        <time>2026-08-09T10:17:07Z</time>
      </trkpt>
      <trkpt lat="45.06284" lon="6.04763">
        <ele>1063.8</ele>
        <time>2026-08-09T10:17:08Z</time>
      </trkpt>
      <trkpt lat="45.06281" lon="6.04759">
        <ele>1064.2</ele>
        <time>2026-08-09T10:17:10Z</time>
      </trkpt>
      <trkpt lat="45.0628" lon="6.04756">
        <ele>1064.4</ele>
        <time>2026-08-09T10:17:11Z</time>
      </trkpt>
      <trkpt lat="45.06278" lon="6.04754">
        <ele>1064.6</ele>
        <time>2026-08-09T10:17:12Z</time>
      </trkpt>
      <trkpt lat="45.06274" lon="6.04751">
        <ele>1065</ele>
        <time>2026-08-09T10:17:14Z</time>
      </trkpt>
      <trkpt lat="45.06271" lon="6.04749">
        <ele>1065.2</ele>
        <time>2026-08-09T10:17:16Z</time>
      </trkpt>
      <trkpt lat="45.06267" lon="6.04747">
        <ele>1065.4</ele>
        <time>2026-08-09T10:17:18Z</time>
      </trkpt>
      <trkpt lat="45.06264" lon="6.04745">
        <ele>1066</ele>
        <time>2026-08-09T10:17:20Z</time>
      </trkpt>
      <trkpt lat="45.06262" lon="6.04744">
        <ele>1066.2</ele>
        <time>2026-08-09T10:17:21Z</time>
      </trkpt>
      <trkpt lat="45.0626" lon="6.04743">
        <ele>1066.4</ele>
        <time>2026-08-09T10:17:22Z</time>
      </trkpt>
      <trkpt lat="45.06256" lon="6.0474">
        <ele>1066.8</ele>
        <time>2026-08-09T10:17:24Z</time>
      </trkpt>
      <trkpt lat="45.06252" lon="6.04738">
        <ele>1067</ele>
        <time>2026-08-09T10:17:26Z</time>
      </trkpt>
      <trkpt lat="45.0625" lon="6.04737">
        <ele>1067.2</ele>
        <time>2026-08-09T10:17:27Z</time>
      </trkpt>
      <trkpt lat="45.06247" lon="6.04736">
        <ele>1067.4</ele>
        <time>2026-08-09T10:17:28Z</time>
      </trkpt>
      <trkpt lat="45.06243" lon="6.04735">
        <ele>1067.8</ele>
        <time>2026-08-09T10:17:30Z</time>
      </trkpt>
      <trkpt lat="45.06238" lon="6.04734">
        <ele>1068.2</ele>
        <time>2026-08-09T10:17:32Z</time>
      </trkpt>
      <trkpt lat="45.06235" lon="6.04734">
        <ele>1068.4</ele>
        <time>2026-08-09T10:17:33Z</time>
      </trkpt>
      <trkpt lat="45.06233" lon="6.04734">
        <ele>1068.6</ele>
        <time>2026-08-09T10:17:34Z</time>
      </trkpt>
      <trkpt lat="45.06229" lon="6.04733">
        <ele>1069</ele>
        <time>2026-08-09T10:17:36Z</time>
      </trkpt>
      <trkpt lat="45.06225" lon="6.04732">
        <ele>1069.2</ele>
        <time>2026-08-09T10:17:38Z</time>
      </trkpt>
      <trkpt lat="45.06223" lon="6.04732">
        <ele>1069.6</ele>
        <time>2026-08-09T10:17:40Z</time>
      </trkpt>
      <trkpt lat="45.0622" lon="6.04731">
        <ele>1070</ele>
        <time>2026-08-09T10:17:42Z</time>
      </trkpt>
      <trkpt lat="45.06219" lon="6.0473">
        <ele>1070.2</ele>
        <time>2026-08-09T10:17:43Z</time>
      </trkpt>
      <trkpt lat="45.06218" lon="6.0473">
        <ele>1070.4</ele>
        <time>2026-08-09T10:17:44Z</time>
      </trkpt>
      <trkpt lat="45.06215" lon="6.0473">
        <ele>1070.8</ele>
        <time>2026-08-09T10:17:46Z</time>
      </trkpt>
      <trkpt lat="45.06213" lon="6.0473">
        <ele>1071.4</ele>
        <time>2026-08-09T10:17:48Z</time>
      </trkpt>
      <trkpt lat="45.06211" lon="6.04729">
        <ele>1071.6</ele>
        <time>2026-08-09T10:17:50Z</time>
      </trkpt>
      <trkpt lat="45.0621" lon="6.04729">
        <ele>1071.8</ele>
        <time>2026-08-09T10:17:51Z</time>
      </trkpt>
      <trkpt lat="45.06209" lon="6.04729">
        <ele>1072</ele>
        <time>2026-08-09T10:17:52Z</time>
      </trkpt>
      <trkpt lat="45.06208" lon="6.04728">
        <ele>1072.4</ele>
        <time>2026-08-09T10:17:54Z</time>
      </trkpt>
      <trkpt lat="45.06205" lon="6.04728">
        <ele>1072.6</ele>
        <time>2026-08-09T10:17:56Z</time>
      </trkpt>
      <trkpt lat="45.06204" lon="6.04728">
        <ele>1072.8</ele>
        <time>2026-08-09T10:17:57Z</time>
      </trkpt>
      <trkpt lat="45.06202" lon="6.04728">
        <ele>1073</ele>
        <time>2026-08-09T10:17:58Z</time>
      </trkpt>
      <trkpt lat="45.06199" lon="6.04728">
        <ele>1073.6</ele>
        <time>2026-08-09T10:18:00Z</time>
      </trkpt>
      <trkpt lat="45.06196" lon="6.04729">
        <ele>1073.8</ele>
        <time>2026-08-09T10:18:02Z</time>
      </trkpt>
      <trkpt lat="45.06193" lon="6.0473">
        <ele>1074.2</ele>
        <time>2026-08-09T10:18:04Z</time>
      </trkpt>
      <trkpt lat="45.06192" lon="6.04731">
        <ele>1074.4</ele>
        <time>2026-08-09T10:18:05Z</time>
      </trkpt>
      <trkpt lat="45.0619" lon="6.04732">
        <ele>1074.6</ele>
        <time>2026-08-09T10:18:06Z</time>
      </trkpt>
      <trkpt lat="45.06188" lon="6.04735">
        <ele>1074.6</ele>
        <time>2026-08-09T10:18:08Z</time>
      </trkpt>
      <trkpt lat="45.06184" lon="6.04738">
        <ele>1074.8</ele>
        <time>2026-08-09T10:18:10Z</time>
      </trkpt>
      <trkpt lat="45.06181" lon="6.04742">
        <ele>1075.4</ele>
        <time>2026-08-09T10:18:12Z</time>
      </trkpt>
      <trkpt lat="45.0618" lon="6.04744">
        <ele>1075.6</ele>
        <time>2026-08-09T10:18:13Z</time>
      </trkpt>
      <trkpt lat="45.06179" lon="6.04746">
        <ele>1075.8</ele>
        <time>2026-08-09T10:18:14Z</time>
      </trkpt>
      <trkpt lat="45.06176" lon="6.0475">
        <ele>1076</ele>
        <time>2026-08-09T10:18:16Z</time>
      </trkpt>
      <trkpt lat="45.06173" lon="6.04754">
        <ele>1076.6</ele>
        <time>2026-08-09T10:18:18Z</time>
      </trkpt>
      <trkpt lat="45.06172" lon="6.04756">
        <ele>1076.8</ele>
        <time>2026-08-09T10:18:19Z</time>
      </trkpt>
      <trkpt lat="45.06171" lon="6.04758">
        <ele>1077</ele>
        <time>2026-08-09T10:18:20Z</time>
      </trkpt>
      <trkpt lat="45.06168" lon="6.04763">
        <ele>1077.4</ele>
        <time>2026-08-09T10:18:22Z</time>
      </trkpt>
      <trkpt lat="45.06166" lon="6.04769">
        <ele>1077.6</ele>
        <time>2026-08-09T10:18:24Z</time>
      </trkpt>
      <trkpt lat="45.06165" lon="6.04771">
        <ele>1077.8</ele>
        <time>2026-08-09T10:18:25Z</time>
      </trkpt>
      <trkpt lat="45.06164" lon="6.04773">
        <ele>1077.8</ele>
        <time>2026-08-09T10:18:26Z</time>
      </trkpt>
      <trkpt lat="45.06162" lon="6.04778">
        <ele>1078</ele>
        <time>2026-08-09T10:18:28Z</time>
      </trkpt>
      <trkpt lat="45.06161" lon="6.04783">
        <ele>1078.6</ele>
        <time>2026-08-09T10:18:30Z</time>
      </trkpt>
      <trkpt lat="45.0616" lon="6.04785">
        <ele>1078.8</ele>
        <time>2026-08-09T10:18:31Z</time>
      </trkpt>
      <trkpt lat="45.06159" lon="6.04787">
        <ele>1078.8</ele>
        <time>2026-08-09T10:18:32Z</time>
      </trkpt>
      <trkpt lat="45.06157" lon="6.0479">
        <ele>1079.2</ele>
        <time>2026-08-09T10:18:34Z</time>
      </trkpt>
      <trkpt lat="45.06156" lon="6.04793">
        <ele>1079.4</ele>
        <time>2026-08-09T10:18:36Z</time>
      </trkpt>
      <trkpt lat="45.06155" lon="6.04797">
        <ele>1079.6</ele>
        <time>2026-08-09T10:18:38Z</time>
      </trkpt>
      <trkpt lat="45.06154" lon="6.04798">
        <ele>1079.8</ele>
        <time>2026-08-09T10:18:39Z</time>
      </trkpt>
      <trkpt lat="45.06153" lon="6.048">
        <ele>1079.8</ele>
        <time>2026-08-09T10:18:40Z</time>
      </trkpt>
      <trkpt lat="45.06152" lon="6.04803">
        <ele>1080.4</ele>
        <time>2026-08-09T10:18:42Z</time>
      </trkpt>
      <trkpt lat="45.06149" lon="6.04807">
        <ele>1080.8</ele>
        <time>2026-08-09T10:18:44Z</time>
      </trkpt>
      <trkpt lat="45.06147" lon="6.04811">
        <ele>1081.6</ele>
        <time>2026-08-09T10:18:46Z</time>
      </trkpt>
      <trkpt lat="45.06145" lon="6.04813">
        <ele>1081.6</ele>
        <time>2026-08-09T10:18:47Z</time>
      </trkpt>
      <trkpt lat="45.06144" lon="6.04814">
        <ele>1081.8</ele>
        <time>2026-08-09T10:18:48Z</time>
      </trkpt>
      <trkpt lat="45.0614" lon="6.04818">
        <ele>1081.8</ele>
        <time>2026-08-09T10:18:50Z</time>
      </trkpt>
      <trkpt lat="45.06138" lon="6.04821">
        <ele>1082.2</ele>
        <time>2026-08-09T10:18:52Z</time>
      </trkpt>
      <trkpt lat="45.06136" lon="6.04825">
        <ele>1082.6</ele>
        <time>2026-08-09T10:18:54Z</time>
      </trkpt>
      <trkpt lat="45.06135" lon="6.04827">
        <ele>1082.8</ele>
        <time>2026-08-09T10:18:55Z</time>
      </trkpt>
      <trkpt lat="45.06134" lon="6.04829">
        <ele>1083.2</ele>
        <time>2026-08-09T10:18:56Z</time>
      </trkpt>
      <trkpt lat="45.06131" lon="6.04833">
        <ele>1083.4</ele>
        <time>2026-08-09T10:18:58Z</time>
      </trkpt>
      <trkpt lat="45.06126" lon="6.04837">
        <ele>1083.8</ele>
        <time>2026-08-09T10:19:00Z</time>
      </trkpt>
      <trkpt lat="45.06124" lon="6.04839">
        <ele>1084</ele>
        <time>2026-08-09T10:19:01Z</time>
      </trkpt>
      <trkpt lat="45.06122" lon="6.0484">
        <ele>1084</ele>
        <time>2026-08-09T10:19:02Z</time>
      </trkpt>
      <trkpt lat="45.06119" lon="6.04844">
        <ele>1084.4</ele>
        <time>2026-08-09T10:19:04Z</time>
      </trkpt>
      <trkpt lat="45.06115" lon="6.04848">
        <ele>1084.6</ele>
        <time>2026-08-09T10:19:06Z</time>
      </trkpt>
      <trkpt lat="45.06113" lon="6.04852">
        <ele>1085</ele>
        <time>2026-08-09T10:19:08Z</time>
      </trkpt>
      <trkpt lat="45.06112" lon="6.04855">
        <ele>1085.2</ele>
        <time>2026-08-09T10:19:09Z</time>
      </trkpt>
      <trkpt lat="45.06111" lon="6.04857">
        <ele>1085.2</ele>
        <time>2026-08-09T10:19:10Z</time>
      </trkpt>
      <trkpt lat="45.06109" lon="6.04861">
        <ele>1085.6</ele>
        <time>2026-08-09T10:19:12Z</time>
      </trkpt>
      <trkpt lat="45.06108" lon="6.04865">
        <ele>1086.2</ele>
        <time>2026-08-09T10:19:14Z</time>
      </trkpt>
      <trkpt lat="45.06106" lon="6.04869">
        <ele>1087</ele>
        <time>2026-08-09T10:19:16Z</time>
      </trkpt>
      <trkpt lat="45.06105" lon="6.04872">
        <ele>1087.4</ele>
        <time>2026-08-09T10:19:18Z</time>
      </trkpt>
      <trkpt lat="45.06103" lon="6.04876">
        <ele>1087.8</ele>
        <time>2026-08-09T10:19:20Z</time>
      </trkpt>
      <trkpt lat="45.06102" lon="6.04879">
        <ele>1088.2</ele>
        <time>2026-08-09T10:19:22Z</time>
      </trkpt>
      <trkpt lat="45.06102" lon="6.04881">
        <ele>1088.4</ele>
        <time>2026-08-09T10:19:23Z</time>
      </trkpt>
      <trkpt lat="45.06101" lon="6.04884">
        <ele>1088.8</ele>
        <time>2026-08-09T10:19:24Z</time>
      </trkpt>
      <trkpt lat="45.06101" lon="6.04888">
        <ele>1089</ele>
        <time>2026-08-09T10:19:26Z</time>
      </trkpt>
      <trkpt lat="45.061" lon="6.04893">
        <ele>1089.4</ele>
        <time>2026-08-09T10:19:28Z</time>
      </trkpt>
      <trkpt lat="45.06099" lon="6.04895">
        <ele>1089.6</ele>
        <time>2026-08-09T10:19:29Z</time>
      </trkpt>
      <trkpt lat="45.06098" lon="6.04898">
        <ele>1089.8</ele>
        <time>2026-08-09T10:19:30Z</time>
      </trkpt>
      <trkpt lat="45.06096" lon="6.04902">
        <ele>1090.2</ele>
        <time>2026-08-09T10:19:32Z</time>
      </trkpt>
      <trkpt lat="45.06094" lon="6.04907">
        <ele>1090.8</ele>
        <time>2026-08-09T10:19:34Z</time>
      </trkpt>
      <trkpt lat="45.06093" lon="6.04909">
        <ele>1091</ele>
        <time>2026-08-09T10:19:35Z</time>
      </trkpt>
      <trkpt lat="45.06092" lon="6.04912">
        <ele>1091.2</ele>
        <time>2026-08-09T10:19:36Z</time>
      </trkpt>
      <trkpt lat="45.0609" lon="6.04916">
        <ele>1091.6</ele>
        <time>2026-08-09T10:19:38Z</time>
      </trkpt>
      <trkpt lat="45.06088" lon="6.0492">
        <ele>1091.8</ele>
        <time>2026-08-09T10:19:40Z</time>
      </trkpt>
      <trkpt lat="45.06087" lon="6.04922">
        <ele>1092</ele>
        <time>2026-08-09T10:19:41Z</time>
      </trkpt>
      <trkpt lat="45.06086" lon="6.04924">
        <ele>1092.2</ele>
        <time>2026-08-09T10:19:42Z</time>
      </trkpt>
      <trkpt lat="45.06085" lon="6.04928">
        <ele>1092.6</ele>
        <time>2026-08-09T10:19:44Z</time>
      </trkpt>
      <trkpt lat="45.06083" lon="6.04931">
        <ele>1093</ele>
        <time>2026-08-09T10:19:46Z</time>
      </trkpt>
      <trkpt lat="45.06082" lon="6.04932">
        <ele>1093.2</ele>
        <time>2026-08-09T10:19:47Z</time>
      </trkpt>
      <trkpt lat="45.06081" lon="6.04934">
        <ele>1093.2</ele>
        <time>2026-08-09T10:19:48Z</time>
      </trkpt>
      <trkpt lat="45.06081" lon="6.04935">
        <ele>1093.4</ele>
        <time>2026-08-09T10:19:49Z</time>
      </trkpt>
      <trkpt lat="45.0608" lon="6.04937">
        <ele>1093.8</ele>
        <time>2026-08-09T10:19:50Z</time>
      </trkpt>
      <trkpt lat="45.06078" lon="6.0494">
        <ele>1094.2</ele>
        <time>2026-08-09T10:19:52Z</time>
      </trkpt>
      <trkpt lat="45.06076" lon="6.04943">
        <ele>1094.6</ele>
        <time>2026-08-09T10:19:54Z</time>
      </trkpt>
      <trkpt lat="45.06075" lon="6.04944">
        <ele>1094.8</ele>
        <time>2026-08-09T10:19:55Z</time>
      </trkpt>
      <trkpt lat="45.06074" lon="6.04945">
        <ele>1094.8</ele>
        <time>2026-08-09T10:19:56Z</time>
      </trkpt>
      <trkpt lat="45.06073" lon="6.04947">
        <ele>1095</ele>
        <time>2026-08-09T10:19:58Z</time>
      </trkpt>
      <trkpt lat="45.06071" lon="6.04948">
        <ele>1095.2</ele>
        <time>2026-08-09T10:19:59Z</time>
      </trkpt>
      <trkpt lat="45.06069" lon="6.0495">
        <ele>1095.4</ele>
        <time>2026-08-09T10:20:00Z</time>
      </trkpt>
      <trkpt lat="45.06064" lon="6.04952">
        <ele>1095.8</ele>
        <time>2026-08-09T10:20:02Z</time>
      </trkpt>
      <trkpt lat="45.0606" lon="6.04954">
        <ele>1096.2</ele>
        <time>2026-08-09T10:20:04Z</time>
      </trkpt>
      <trkpt lat="45.06059" lon="6.04954">
        <ele>1096.4</ele>
        <time>2026-08-09T10:20:05Z</time>
      </trkpt>
      <trkpt lat="45.06057" lon="6.04954">
        <ele>1096.6</ele>
        <time>2026-08-09T10:20:06Z</time>
      </trkpt>
      <trkpt lat="45.06052" lon="6.04956">
        <ele>1097</ele>
        <time>2026-08-09T10:20:08Z</time>
      </trkpt>
      <trkpt lat="45.0605" lon="6.04956">
        <ele>1097.2</ele>
        <time>2026-08-09T10:20:09Z</time>
      </trkpt>
      <trkpt lat="45.06047" lon="6.04957">
        <ele>1097.4</ele>
        <time>2026-08-09T10:20:10Z</time>
      </trkpt>
      <trkpt lat="45.06046" lon="6.04958">
        <ele>1097.8</ele>
        <time>2026-08-09T10:20:11Z</time>
      </trkpt>
      <trkpt lat="45.06044" lon="6.04959">
        <ele>1097.8</ele>
        <time>2026-08-09T10:20:12Z</time>
      </trkpt>
      <trkpt lat="45.06041" lon="6.04959">
        <ele>1098.2</ele>
        <time>2026-08-09T10:20:14Z</time>
      </trkpt>
      <trkpt lat="45.0604" lon="6.04959">
        <ele>1098.6</ele>
        <time>2026-08-09T10:20:15Z</time>
      </trkpt>
      <trkpt lat="45.06039" lon="6.0496">
        <ele>1098.8</ele>
        <time>2026-08-09T10:20:16Z</time>
      </trkpt>
      <trkpt lat="45.06035" lon="6.0496">
        <ele>1099.2</ele>
        <time>2026-08-09T10:20:18Z</time>
      </trkpt>
      <trkpt lat="45.06033" lon="6.04961">
        <ele>1099.6</ele>
        <time>2026-08-09T10:20:20Z</time>
      </trkpt>
      <trkpt lat="45.06032" lon="6.04961">
        <ele>1099.6</ele>
        <time>2026-08-09T10:20:21Z</time>
      </trkpt>
      <trkpt lat="45.06031" lon="6.04961">
        <ele>1099.8</ele>
        <time>2026-08-09T10:20:22Z</time>
      </trkpt>
      <trkpt lat="45.06027" lon="6.04962">
        <ele>1100</ele>
        <time>2026-08-09T10:20:24Z</time>
      </trkpt>
      <trkpt lat="45.06024" lon="6.04962">
        <ele>1100.4</ele>
        <time>2026-08-09T10:20:26Z</time>
      </trkpt>
      <trkpt lat="45.06019" lon="6.04963">
        <ele>1100.8</ele>
        <time>2026-08-09T10:20:28Z</time>
      </trkpt>
      <trkpt lat="45.06016" lon="6.04962">
        <ele>1101.2</ele>
        <time>2026-08-09T10:20:30Z</time>
      </trkpt>
      <trkpt lat="45.06013" lon="6.04962">
        <ele>1101.6</ele>
        <time>2026-08-09T10:20:32Z</time>
      </trkpt>
      <trkpt lat="45.06009" lon="6.04962">
        <ele>1102</ele>
        <time>2026-08-09T10:20:34Z</time>
      </trkpt>
      <trkpt lat="45.06005" lon="6.04963">
        <ele>1102.2</ele>
        <time>2026-08-09T10:20:36Z</time>
      </trkpt>
      <trkpt lat="45.06" lon="6.04963">
        <ele>1102.4</ele>
        <time>2026-08-09T10:20:38Z</time>
      </trkpt>
      <trkpt lat="45.05996" lon="6.04963">
        <ele>1103</ele>
        <time>2026-08-09T10:20:40Z</time>
      </trkpt>
      <trkpt lat="45.05995" lon="6.04963">
        <ele>1103</ele>
        <time>2026-08-09T10:20:41Z</time>
      </trkpt>
      <trkpt lat="45.05993" lon="6.04963">
        <ele>1103.2</ele>
        <time>2026-08-09T10:20:42Z</time>
      </trkpt>
      <trkpt lat="45.05992" lon="6.04963">
        <ele>1103.4</ele>
        <time>2026-08-09T10:20:43Z</time>
      </trkpt>
      <trkpt lat="45.0599" lon="6.04963">
        <ele>1103.6</ele>
        <time>2026-08-09T10:20:44Z</time>
      </trkpt>
      <trkpt lat="45.05985" lon="6.04961">
        <ele>1104</ele>
        <time>2026-08-09T10:20:46Z</time>
      </trkpt>
      <trkpt lat="45.05983" lon="6.04962">
        <ele>1104.2</ele>
        <time>2026-08-09T10:20:47Z</time>
      </trkpt>
      <trkpt lat="45.0598" lon="6.04962">
        <ele>1104.4</ele>
        <time>2026-08-09T10:20:48Z</time>
      </trkpt>
      <trkpt lat="45.05978" lon="6.04962">
        <ele>1104.4</ele>
        <time>2026-08-09T10:20:49Z</time>
      </trkpt>
      <trkpt lat="45.05976" lon="6.04962">
        <ele>1104.6</ele>
        <time>2026-08-09T10:20:50Z</time>
      </trkpt>
      <trkpt lat="45.05972" lon="6.04963">
        <ele>1105</ele>
        <time>2026-08-09T10:20:52Z</time>
      </trkpt>
      <trkpt lat="45.0597" lon="6.04963">
        <ele>1105.2</ele>
        <time>2026-08-09T10:20:53Z</time>
      </trkpt>
      <trkpt lat="45.05968" lon="6.04962">
        <ele>1105.2</ele>
        <time>2026-08-09T10:20:54Z</time>
      </trkpt>
      <trkpt lat="45.05965" lon="6.04964">
        <ele>1105.6</ele>
        <time>2026-08-09T10:20:56Z</time>
      </trkpt>
      <trkpt lat="45.05963" lon="6.04964">
        <ele>1105.8</ele>
        <time>2026-08-09T10:20:57Z</time>
      </trkpt>
      <trkpt lat="45.05962" lon="6.04964">
        <ele>1105.8</ele>
        <time>2026-08-09T10:20:58Z</time>
      </trkpt>
      <trkpt lat="45.05959" lon="6.04965">
        <ele>1106.2</ele>
        <time>2026-08-09T10:21:00Z</time>
      </trkpt>
      <trkpt lat="45.05956" lon="6.04966">
        <ele>1106.4</ele>
        <time>2026-08-09T10:21:02Z</time>
      </trkpt>
      <trkpt lat="45.05954" lon="6.04968">
        <ele>1106.8</ele>
        <time>2026-08-09T10:21:04Z</time>
      </trkpt>
      <trkpt lat="45.05954" lon="6.04969">
        <ele>1106.8</ele>
        <time>2026-08-09T10:21:05Z</time>
      </trkpt>
      <trkpt lat="45.05953" lon="6.04971">
        <ele>1107</ele>
        <time>2026-08-09T10:21:06Z</time>
      </trkpt>
      <trkpt lat="45.05951" lon="6.04974">
        <ele>1107.6</ele>
        <time>2026-08-09T10:21:08Z</time>
      </trkpt>
      <trkpt lat="45.05948" lon="6.04977">
        <ele>1107.8</ele>
        <time>2026-08-09T10:21:10Z</time>
      </trkpt>
      <trkpt lat="45.05946" lon="6.04979">
        <ele>1108.4</ele>
        <time>2026-08-09T10:21:12Z</time>
      </trkpt>
      <trkpt lat="45.05943" lon="6.04982">
        <ele>1108.8</ele>
        <time>2026-08-09T10:21:14Z</time>
      </trkpt>
      <trkpt lat="45.0594" lon="6.04985">
        <ele>1109</ele>
        <time>2026-08-09T10:21:16Z</time>
      </trkpt>
      <trkpt lat="45.05937" lon="6.04987">
        <ele>1109.2</ele>
        <time>2026-08-09T10:21:18Z</time>
      </trkpt>
      <trkpt lat="45.05935" lon="6.0499">
        <ele>1109.4</ele>
        <time>2026-08-09T10:21:20Z</time>
      </trkpt>
      <trkpt lat="45.05933" lon="6.04995">
        <ele>1109.6</ele>
        <time>2026-08-09T10:21:22Z</time>
      </trkpt>
      <trkpt lat="45.05932" lon="6.05">
        <ele>1110</ele>
        <time>2026-08-09T10:21:24Z</time>
      </trkpt>
      <trkpt lat="45.0593" lon="6.05005">
        <ele>1110.4</ele>
        <time>2026-08-09T10:21:26Z</time>
      </trkpt>
      <trkpt lat="45.0593" lon="6.05007">
        <ele>1110.4</ele>
        <time>2026-08-09T10:21:27Z</time>
      </trkpt>
      <trkpt lat="45.05929" lon="6.05009">
        <ele>1110.6</ele>
        <time>2026-08-09T10:21:28Z</time>
      </trkpt>
      <trkpt lat="45.05928" lon="6.05014">
        <ele>1110.8</ele>
        <time>2026-08-09T10:21:30Z</time>
      </trkpt>
      <trkpt lat="45.05927" lon="6.05019">
        <ele>1111</ele>
        <time>2026-08-09T10:21:32Z</time>
      </trkpt>
      <trkpt lat="45.05926" lon="6.05024">
        <ele>1111.2</ele>
        <time>2026-08-09T10:21:34Z</time>
      </trkpt>
      <trkpt lat="45.05925" lon="6.05029">
        <ele>1111.6</ele>
        <time>2026-08-09T10:21:36Z</time>
      </trkpt>
      <trkpt lat="45.05925" lon="6.05034">
        <ele>1112</ele>
        <time>2026-08-09T10:21:38Z</time>
      </trkpt>
      <trkpt lat="45.05924" lon="6.05039">
        <ele>1112.4</ele>
        <time>2026-08-09T10:21:40Z</time>
      </trkpt>
      <trkpt lat="45.05923" lon="6.05042">
        <ele>1112.6</ele>
        <time>2026-08-09T10:21:41Z</time>
      </trkpt>
      <trkpt lat="45.05923" lon="6.05044">
        <ele>1112.8</ele>
        <time>2026-08-09T10:21:42Z</time>
      </trkpt>
      <trkpt lat="45.05922" lon="6.05049">
        <ele>1113</ele>
        <time>2026-08-09T10:21:44Z</time>
      </trkpt>
      <trkpt lat="45.05923" lon="6.05055">
        <ele>1113.4</ele>
        <time>2026-08-09T10:21:46Z</time>
      </trkpt>
      <trkpt lat="45.05923" lon="6.0506">
        <ele>1113.8</ele>
        <time>2026-08-09T10:21:48Z</time>
      </trkpt>
      <trkpt lat="45.05922" lon="6.05063">
        <ele>1114</ele>
        <time>2026-08-09T10:21:49Z</time>
      </trkpt>
      <trkpt lat="45.05922" lon="6.05066">
        <ele>1114</ele>
        <time>2026-08-09T10:21:50Z</time>
      </trkpt>
      <trkpt lat="45.05923" lon="6.05071">
        <ele>1114.4</ele>
        <time>2026-08-09T10:21:52Z</time>
      </trkpt>
      <trkpt lat="45.05923" lon="6.05076">
        <ele>1114.8</ele>
        <time>2026-08-09T10:21:54Z</time>
      </trkpt>
      <trkpt lat="45.05923" lon="6.0508">
        <ele>1115</ele>
        <time>2026-08-09T10:21:56Z</time>
      </trkpt>
      <trkpt lat="45.05924" lon="6.05081">
        <ele>1115.2</ele>
        <time>2026-08-09T10:21:57Z</time>
      </trkpt>
      <trkpt lat="45.05924" lon="6.05083">
        <ele>1115.2</ele>
        <time>2026-08-09T10:21:58Z</time>
      </trkpt>
      <trkpt lat="45.05924" lon="6.05087">
        <ele>1115.6</ele>
        <time>2026-08-09T10:22:00Z</time>
      </trkpt>
      <trkpt lat="45.05924" lon="6.05091">
        <ele>1116</ele>
        <time>2026-08-09T10:22:02Z</time>
      </trkpt>
      <trkpt lat="45.05924" lon="6.05095">
        <ele>1116.4</ele>
        <time>2026-08-09T10:22:04Z</time>
      </trkpt>
      <trkpt lat="45.05924" lon="6.05097">
        <ele>1116.8</ele>
        <time>2026-08-09T10:22:05Z</time>
      </trkpt>
      <trkpt lat="45.05925" lon="6.05099">
        <ele>1117</ele>
        <time>2026-08-09T10:22:06Z</time>
      </trkpt>
      <trkpt lat="45.05925" lon="6.05103">
        <ele>1117.2</ele>
        <time>2026-08-09T10:22:08Z</time>
      </trkpt>
      <trkpt lat="45.05926" lon="6.05107">
        <ele>1117.4</ele>
        <time>2026-08-09T10:22:10Z</time>
      </trkpt>
      <trkpt lat="45.05926" lon="6.05111">
        <ele>1117.8</ele>
        <time>2026-08-09T10:22:12Z</time>
      </trkpt>
      <trkpt lat="45.05926" lon="6.05113">
        <ele>1118</ele>
        <time>2026-08-09T10:22:13Z</time>
      </trkpt>
      <trkpt lat="45.05926" lon="6.05115">
        <ele>1118</ele>
        <time>2026-08-09T10:22:14Z</time>
      </trkpt>
      <trkpt lat="45.05927" lon="6.05119">
        <ele>1118.4</ele>
        <time>2026-08-09T10:22:16Z</time>
      </trkpt>
      <trkpt lat="45.05927" lon="6.05121">
        <ele>1118.4</ele>
        <time>2026-08-09T10:22:17Z</time>
      </trkpt>
      <trkpt lat="45.05928" lon="6.05123">
        <ele>1118.6</ele>
        <time>2026-08-09T10:22:18Z</time>
      </trkpt>
      <trkpt lat="45.05928" lon="6.05126">
        <ele>1119</ele>
        <time>2026-08-09T10:22:20Z</time>
      </trkpt>
      <trkpt lat="45.05928" lon="6.05128">
        <ele>1119.2</ele>
        <time>2026-08-09T10:22:21Z</time>
      </trkpt>
      <trkpt lat="45.05929" lon="6.0513">
        <ele>1119.4</ele>
        <time>2026-08-09T10:22:22Z</time>
      </trkpt>
      <trkpt lat="45.05929" lon="6.05131">
        <ele>1119.6</ele>
        <time>2026-08-09T10:22:23Z</time>
      </trkpt>
      <trkpt lat="45.05928" lon="6.05132">
        <ele>1119.8</ele>
        <time>2026-08-09T10:22:24Z</time>
      </trkpt>
      <trkpt lat="45.05928" lon="6.05135">
        <ele>1120</ele>
        <time>2026-08-09T10:22:26Z</time>
      </trkpt>
      <trkpt lat="45.05928" lon="6.05137">
        <ele>1120.2</ele>
        <time>2026-08-09T10:22:27Z</time>
      </trkpt>
      <trkpt lat="45.05928" lon="6.05138">
        <ele>1120.4</ele>
        <time>2026-08-09T10:22:28Z</time>
      </trkpt>
      <trkpt lat="45.05928" lon="6.0514">
        <ele>1120.6</ele>
        <time>2026-08-09T10:22:29Z</time>
      </trkpt>
      <trkpt lat="45.05928" lon="6.05141">
        <ele>1120.6</ele>
        <time>2026-08-09T10:22:30Z</time>
      </trkpt>
      <trkpt lat="45.05929" lon="6.05144">
        <ele>1121</ele>
        <time>2026-08-09T10:22:32Z</time>
      </trkpt>
      <trkpt lat="45.05929" lon="6.05145">
        <ele>1121.2</ele>
        <time>2026-08-09T10:22:33Z</time>
      </trkpt>
      <trkpt lat="45.05929" lon="6.05146">
        <ele>1121.4</ele>
        <time>2026-08-09T10:22:34Z</time>
      </trkpt>
      <trkpt lat="45.05928" lon="6.05147">
        <ele>1121.6</ele>
        <time>2026-08-09T10:22:35Z</time>
      </trkpt>
      <trkpt lat="45.05927" lon="6.05147">
        <ele>1121.8</ele>
        <time>2026-08-09T10:22:36Z</time>
      </trkpt>
      <trkpt lat="45.05925" lon="6.05148">
        <ele>1122.4</ele>
        <time>2026-08-09T10:22:38Z</time>
      </trkpt>
      <trkpt lat="45.05922" lon="6.05148">
        <ele>1122.6</ele>
        <time>2026-08-09T10:22:40Z</time>
      </trkpt>
      <trkpt lat="45.05921" lon="6.05148">
        <ele>1123</ele>
        <time>2026-08-09T10:22:41Z</time>
      </trkpt>
      <trkpt lat="45.05918" lon="6.05149">
        <ele>1123</ele>
        <time>2026-08-09T10:22:42Z</time>
      </trkpt>
      <trkpt lat="45.05915" lon="6.0515">
        <ele>1123.4</ele>
        <time>2026-08-09T10:22:44Z</time>
      </trkpt>
      <trkpt lat="45.05912" lon="6.05151">
        <ele>1123.6</ele>
        <time>2026-08-09T10:22:46Z</time>
      </trkpt>
      <trkpt lat="45.05911" lon="6.05151">
        <ele>1123.8</ele>
        <time>2026-08-09T10:22:47Z</time>
      </trkpt>
      <trkpt lat="45.05909" lon="6.05152">
        <ele>1123.8</ele>
        <time>2026-08-09T10:22:48Z</time>
      </trkpt>
      <trkpt lat="45.05906" lon="6.05152">
        <ele>1124</ele>
        <time>2026-08-09T10:22:49Z</time>
      </trkpt>
      <trkpt lat="45.05904" lon="6.05152">
        <ele>1124.2</ele>
        <time>2026-08-09T10:22:50Z</time>
      </trkpt>
      <trkpt lat="45.059" lon="6.05154">
        <ele>1124.6</ele>
        <time>2026-08-09T10:22:52Z</time>
      </trkpt>
      <trkpt lat="45.05898" lon="6.05154">
        <ele>1124.8</ele>
        <time>2026-08-09T10:22:53Z</time>
      </trkpt>
      <trkpt lat="45.05895" lon="6.05155">
        <ele>1125</ele>
        <time>2026-08-09T10:22:54Z</time>
      </trkpt>
      <trkpt lat="45.05891" lon="6.05156">
        <ele>1125.2</ele>
        <time>2026-08-09T10:22:56Z</time>
      </trkpt>
      <trkpt lat="45.05887" lon="6.05156">
        <ele>1125.6</ele>
        <time>2026-08-09T10:22:58Z</time>
      </trkpt>
      <trkpt lat="45.05884" lon="6.05156">
        <ele>1125.8</ele>
        <time>2026-08-09T10:23:00Z</time>
      </trkpt>
      <trkpt lat="45.0588" lon="6.05156">
        <ele>1126</ele>
        <time>2026-08-09T10:23:02Z</time>
      </trkpt>
      <trkpt lat="45.05877" lon="6.05157">
        <ele>1126.4</ele>
        <time>2026-08-09T10:23:03Z</time>
      </trkpt>
      <trkpt lat="45.05876" lon="6.05156">
        <ele>1126.6</ele>
        <time>2026-08-09T10:23:04Z</time>
      </trkpt>
      <trkpt lat="45.05872" lon="6.05156">
        <ele>1126.8</ele>
        <time>2026-08-09T10:23:06Z</time>
      </trkpt>
      <trkpt lat="45.05868" lon="6.05155">
        <ele>1127.2</ele>
        <time>2026-08-09T10:23:08Z</time>
      </trkpt>
      <trkpt lat="45.05866" lon="6.05156">
        <ele>1127.4</ele>
        <time>2026-08-09T10:23:09Z</time>
      </trkpt>
      <trkpt lat="45.05865" lon="6.05156">
        <ele>1127.6</ele>
        <time>2026-08-09T10:23:10Z</time>
      </trkpt>
      <trkpt lat="45.05863" lon="6.05157">
        <ele>1127.8</ele>
        <time>2026-08-09T10:23:11Z</time>
      </trkpt>
      <trkpt lat="45.05861" lon="6.05157">
        <ele>1128</ele>
        <time>2026-08-09T10:23:12Z</time>
      </trkpt>
      <trkpt lat="45.05857" lon="6.05157">
        <ele>1128.4</ele>
        <time>2026-08-09T10:23:14Z</time>
      </trkpt>
      <trkpt lat="45.05854" lon="6.05157">
        <ele>1128.8</ele>
        <time>2026-08-09T10:23:16Z</time>
      </trkpt>
      <trkpt lat="45.05852" lon="6.05156">
        <ele>1129</ele>
        <time>2026-08-09T10:23:17Z</time>
      </trkpt>
      <trkpt lat="45.05851" lon="6.05156">
        <ele>1129.2</ele>
        <time>2026-08-09T10:23:18Z</time>
      </trkpt>
      <trkpt lat="45.05848" lon="6.05157">
        <ele>1129.8</ele>
        <time>2026-08-09T10:23:20Z</time>
      </trkpt>
      <trkpt lat="45.05844" lon="6.05157">
        <ele>1130.2</ele>
        <time>2026-08-09T10:23:22Z</time>
      </trkpt>
      <trkpt lat="45.0584" lon="6.05158">
        <ele>1130.8</ele>
        <time>2026-08-09T10:23:24Z</time>
      </trkpt>
      <trkpt lat="45.05838" lon="6.05159">
        <ele>1131</ele>
        <time>2026-08-09T10:23:25Z</time>
      </trkpt>
      <trkpt lat="45.05837" lon="6.05161">
        <ele>1131.2</ele>
        <time>2026-08-09T10:23:26Z</time>
      </trkpt>
      <trkpt lat="45.05834" lon="6.05162">
        <ele>1131.6</ele>
        <time>2026-08-09T10:23:28Z</time>
      </trkpt>
      <trkpt lat="45.05831" lon="6.05164">
        <ele>1131.8</ele>
        <time>2026-08-09T10:23:30Z</time>
      </trkpt>
      <trkpt lat="45.05828" lon="6.05166">
        <ele>1132.2</ele>
        <time>2026-08-09T10:23:32Z</time>
      </trkpt>
      <trkpt lat="45.05827" lon="6.05168">
        <ele>1132.2</ele>
        <time>2026-08-09T10:23:33Z</time>
      </trkpt>
      <trkpt lat="45.05826" lon="6.05169">
        <ele>1132.4</ele>
        <time>2026-08-09T10:23:34Z</time>
      </trkpt>
      <trkpt lat="45.05823" lon="6.05172">
        <ele>1132.4</ele>
        <time>2026-08-09T10:23:36Z</time>
      </trkpt>
      <trkpt lat="45.0582" lon="6.05175">
        <ele>1132.6</ele>
        <time>2026-08-09T10:23:38Z</time>
      </trkpt>
      <trkpt lat="45.05818" lon="6.05179">
        <ele>1133.2</ele>
        <time>2026-08-09T10:23:40Z</time>
      </trkpt>
      <trkpt lat="45.05817" lon="6.05181">
        <ele>1133.2</ele>
        <time>2026-08-09T10:23:41Z</time>
      </trkpt>
      <trkpt lat="45.05816" lon="6.05182">
        <ele>1133.4</ele>
        <time>2026-08-09T10:23:42Z</time>
      </trkpt>
      <trkpt lat="45.05815" lon="6.05186">
        <ele>1133.6</ele>
        <time>2026-08-09T10:23:44Z</time>
      </trkpt>
      <trkpt lat="45.05814" lon="6.05189">
        <ele>1133.8</ele>
        <time>2026-08-09T10:23:46Z</time>
      </trkpt>
      <trkpt lat="45.05813" lon="6.05193">
        <ele>1134</ele>
        <time>2026-08-09T10:23:48Z</time>
      </trkpt>
      <trkpt lat="45.05811" lon="6.05196">
        <ele>1134.2</ele>
        <time>2026-08-09T10:23:50Z</time>
      </trkpt>
      <trkpt lat="45.05811" lon="6.05198">
        <ele>1134.4</ele>
        <time>2026-08-09T10:23:51Z</time>
      </trkpt>
      <trkpt lat="45.0581" lon="6.052">
        <ele>1134.6</ele>
        <time>2026-08-09T10:23:52Z</time>
      </trkpt>
      <trkpt lat="45.05809" lon="6.05203">
        <ele>1135</ele>
        <time>2026-08-09T10:23:54Z</time>
      </trkpt>
      <trkpt lat="45.05808" lon="6.05207">
        <ele>1135.4</ele>
        <time>2026-08-09T10:23:56Z</time>
      </trkpt>
      <trkpt lat="45.05807" lon="6.05211">
        <ele>1135.8</ele>
        <time>2026-08-09T10:23:58Z</time>
      </trkpt>
      <trkpt lat="45.05806" lon="6.05215">
        <ele>1136.2</ele>
        <time>2026-08-09T10:24:00Z</time>
      </trkpt>
      <trkpt lat="45.05805" lon="6.05218">
        <ele>1136.4</ele>
        <time>2026-08-09T10:24:02Z</time>
      </trkpt>
      <trkpt lat="45.05805" lon="6.0522">
        <ele>1136.4</ele>
        <time>2026-08-09T10:24:03Z</time>
      </trkpt>
      <trkpt lat="45.05804" lon="6.05222">
        <ele>1136.6</ele>
        <time>2026-08-09T10:24:04Z</time>
      </trkpt>
      <trkpt lat="45.05802" lon="6.05226">
        <ele>1136.8</ele>
        <time>2026-08-09T10:24:06Z</time>
      </trkpt>
      <trkpt lat="45.05801" lon="6.05227">
        <ele>1136.8</ele>
        <time>2026-08-09T10:24:07Z</time>
      </trkpt>
      <trkpt lat="45.058" lon="6.05229">
        <ele>1137</ele>
        <time>2026-08-09T10:24:08Z</time>
      </trkpt>
      <trkpt lat="45.05799" lon="6.05231">
        <ele>1137.2</ele>
        <time>2026-08-09T10:24:09Z</time>
      </trkpt>
      <trkpt lat="45.05798" lon="6.05233">
        <ele>1137.2</ele>
        <time>2026-08-09T10:24:10Z</time>
      </trkpt>
      <trkpt lat="45.05796" lon="6.05237">
        <ele>1137.6</ele>
        <time>2026-08-09T10:24:12Z</time>
      </trkpt>
      <trkpt lat="45.05793" lon="6.05243">
        <ele>1138</ele>
        <time>2026-08-09T10:24:14Z</time>
      </trkpt>
      <trkpt lat="45.05792" lon="6.05245">
        <ele>1138.2</ele>
        <time>2026-08-09T10:24:15Z</time>
      </trkpt>
      <trkpt lat="45.05791" lon="6.05247">
        <ele>1138.4</ele>
        <time>2026-08-09T10:24:16Z</time>
      </trkpt>
      <trkpt lat="45.0579" lon="6.05249">
        <ele>1138.8</ele>
        <time>2026-08-09T10:24:18Z</time>
      </trkpt>
      <trkpt lat="45.05789" lon="6.05251">
        <ele>1139</ele>
        <time>2026-08-09T10:24:19Z</time>
      </trkpt>
      <trkpt lat="45.05789" lon="6.05253">
        <ele>1139.2</ele>
        <time>2026-08-09T10:24:20Z</time>
      </trkpt>
      <trkpt lat="45.05789" lon="6.05256">
        <ele>1139.4</ele>
        <time>2026-08-09T10:24:22Z</time>
      </trkpt>
      <trkpt lat="45.05789" lon="6.05257">
        <ele>1139.6</ele>
        <time>2026-08-09T10:24:23Z</time>
      </trkpt>
      <trkpt lat="45.05788" lon="6.05259">
        <ele>1139.8</ele>
        <time>2026-08-09T10:24:24Z</time>
      </trkpt>
      <trkpt lat="45.05787" lon="6.0526">
        <ele>1140.2</ele>
        <time>2026-08-09T10:24:25Z</time>
      </trkpt>
      <trkpt lat="45.05786" lon="6.05261">
        <ele>1140.4</ele>
        <time>2026-08-09T10:24:26Z</time>
      </trkpt>
      <trkpt lat="45.05781" lon="6.05263">
        <ele>1140.8</ele>
        <time>2026-08-09T10:24:28Z</time>
      </trkpt>
      <trkpt lat="45.05776" lon="6.05262">
        <ele>1141.2</ele>
        <time>2026-08-09T10:24:30Z</time>
      </trkpt>
      <trkpt lat="45.05772" lon="6.05262">
        <ele>1141.4</ele>
        <time>2026-08-09T10:24:32Z</time>
      </trkpt>
      <trkpt lat="45.05768" lon="6.05261">
        <ele>1142</ele>
        <time>2026-08-09T10:24:34Z</time>
      </trkpt>
      <trkpt lat="45.05766" lon="6.05261">
        <ele>1142.2</ele>
        <time>2026-08-09T10:24:35Z</time>
      </trkpt>
      <trkpt lat="45.05764" lon="6.0526">
        <ele>1142.4</ele>
        <time>2026-08-09T10:24:36Z</time>
      </trkpt>
      <trkpt lat="45.05761" lon="6.05259">
        <ele>1142.8</ele>
        <time>2026-08-09T10:24:38Z</time>
      </trkpt>
      <trkpt lat="45.05758" lon="6.05257">
        <ele>1143</ele>
        <time>2026-08-09T10:24:40Z</time>
      </trkpt>
      <trkpt lat="45.05756" lon="6.05256">
        <ele>1143.4</ele>
        <time>2026-08-09T10:24:41Z</time>
      </trkpt>
      <trkpt lat="45.05756" lon="6.05256">
        <ele>1143.4</ele>
        <time>2026-08-09T10:24:42Z</time>
      </trkpt>
      <trkpt lat="45.05753" lon="6.05254">
        <ele>1143.8</ele>
        <time>2026-08-09T10:24:44Z</time>
      </trkpt>
      <trkpt lat="45.0575" lon="6.0525">
        <ele>1144.4</ele>
        <time>2026-08-09T10:24:46Z</time>
      </trkpt>
      <trkpt lat="45.05747" lon="6.05246">
        <ele>1144.8</ele>
        <time>2026-08-09T10:24:48Z</time>
      </trkpt>
      <trkpt lat="45.05745" lon="6.05244">
        <ele>1144.6</ele>
        <time>2026-08-09T10:24:49Z</time>
      </trkpt>
      <trkpt lat="45.05743" lon="6.05242">
        <ele>1144.8</ele>
        <time>2026-08-09T10:24:50Z</time>
      </trkpt>
      <trkpt lat="45.05741" lon="6.05239">
        <ele>1145</ele>
        <time>2026-08-09T10:24:52Z</time>
      </trkpt>
      <trkpt lat="45.05737" lon="6.05237">
        <ele>1145.2</ele>
        <time>2026-08-09T10:24:54Z</time>
      </trkpt>
      <trkpt lat="45.05734" lon="6.05235">
        <ele>1145.6</ele>
        <time>2026-08-09T10:24:56Z</time>
      </trkpt>
      <trkpt lat="45.0573" lon="6.05231">
        <ele>1146</ele>
        <time>2026-08-09T10:24:58Z</time>
      </trkpt>
      <trkpt lat="45.05728" lon="6.0523">
        <ele>1146.2</ele>
        <time>2026-08-09T10:24:59Z</time>
      </trkpt>
      <trkpt lat="45.05727" lon="6.05229">
        <ele>1146.4</ele>
        <time>2026-08-09T10:25:00Z</time>
      </trkpt>
      <trkpt lat="45.05723" lon="6.05226">
        <ele>1146.8</ele>
        <time>2026-08-09T10:25:02Z</time>
      </trkpt>
      <trkpt lat="45.0572" lon="6.05225">
        <ele>1147</ele>
        <time>2026-08-09T10:25:04Z</time>
      </trkpt>
      <trkpt lat="45.05717" lon="6.05224">
        <ele>1147.2</ele>
        <time>2026-08-09T10:25:06Z</time>
      </trkpt>
      <trkpt lat="45.05716" lon="6.05224">
        <ele>1147.4</ele>
        <time>2026-08-09T10:25:07Z</time>
      </trkpt>
      <trkpt lat="45.05714" lon="6.05224">
        <ele>1147.8</ele>
        <time>2026-08-09T10:25:08Z</time>
      </trkpt>
      <trkpt lat="45.0571" lon="6.05224">
        <ele>1148</ele>
        <time>2026-08-09T10:25:10Z</time>
      </trkpt>
      <trkpt lat="45.05706" lon="6.05222">
        <ele>1148.2</ele>
        <time>2026-08-09T10:25:12Z</time>
      </trkpt>
      <trkpt lat="45.05703" lon="6.0522">
        <ele>1148.8</ele>
        <time>2026-08-09T10:25:14Z</time>
      </trkpt>
      <trkpt lat="45.05701" lon="6.05219">
        <ele>1148.8</ele>
        <time>2026-08-09T10:25:15Z</time>
      </trkpt>
      <trkpt lat="45.05699" lon="6.05219">
        <ele>1149</ele>
        <time>2026-08-09T10:25:16Z</time>
      </trkpt>
      <trkpt lat="45.05696" lon="6.05217">
        <ele>1149.4</ele>
        <time>2026-08-09T10:25:18Z</time>
      </trkpt>
      <trkpt lat="45.05692" lon="6.05216">
        <ele>1149.8</ele>
        <time>2026-08-09T10:25:20Z</time>
      </trkpt>
      <trkpt lat="45.0569" lon="6.05215">
        <ele>1150</ele>
        <time>2026-08-09T10:25:21Z</time>
      </trkpt>
      <trkpt lat="45.05689" lon="6.05215">
        <ele>1150.2</ele>
        <time>2026-08-09T10:25:22Z</time>
      </trkpt>
      <trkpt lat="45.05685" lon="6.05214">
        <ele>1150.6</ele>
        <time>2026-08-09T10:25:24Z</time>
      </trkpt>
      <trkpt lat="45.05683" lon="6.05213">
        <ele>1150.8</ele>
        <time>2026-08-09T10:25:25Z</time>
      </trkpt>
      <trkpt lat="45.05681" lon="6.05213">
        <ele>1151</ele>
        <time>2026-08-09T10:25:26Z</time>
      </trkpt>
      <trkpt lat="45.05678" lon="6.05212">
        <ele>1151.6</ele>
        <time>2026-08-09T10:25:28Z</time>
      </trkpt>
      <trkpt lat="45.05676" lon="6.05211">
        <ele>1151.8</ele>
        <time>2026-08-09T10:25:29Z</time>
      </trkpt>
      <trkpt lat="45.05675" lon="6.0521">
        <ele>1151.8</ele>
        <time>2026-08-09T10:25:30Z</time>
      </trkpt>
      <trkpt lat="45.05673" lon="6.05209">
        <ele>1152</ele>
        <time>2026-08-09T10:25:31Z</time>
      </trkpt>
      <trkpt lat="45.05671" lon="6.05208">
        <ele>1152.2</ele>
        <time>2026-08-09T10:25:32Z</time>
      </trkpt>
      <trkpt lat="45.05668" lon="6.05203">
        <ele>1152.4</ele>
        <time>2026-08-09T10:25:34Z</time>
      </trkpt>
      <trkpt lat="45.05665" lon="6.05199">
        <ele>1152.6</ele>
        <time>2026-08-09T10:25:36Z</time>
      </trkpt>
      <trkpt lat="45.05663" lon="6.05198">
        <ele>1152.8</ele>
        <time>2026-08-09T10:25:37Z</time>
      </trkpt>
      <trkpt lat="45.05662" lon="6.05197">
        <ele>1153</ele>
        <time>2026-08-09T10:25:38Z</time>
      </trkpt>
      <trkpt lat="45.05658" lon="6.05195">
        <ele>1153.2</ele>
        <time>2026-08-09T10:25:40Z</time>
      </trkpt>
      <trkpt lat="45.05655" lon="6.05191">
        <ele>1153.6</ele>
        <time>2026-08-09T10:25:42Z</time>
      </trkpt>
      <trkpt lat="45.05651" lon="6.05189">
        <ele>1153.8</ele>
        <time>2026-08-09T10:25:44Z</time>
      </trkpt>
      <trkpt lat="45.0565" lon="6.05187">
        <ele>1154</ele>
        <time>2026-08-09T10:25:45Z</time>
      </trkpt>
      <trkpt lat="45.05648" lon="6.05186">
        <ele>1154.2</ele>
        <time>2026-08-09T10:25:46Z</time>
      </trkpt>
      <trkpt lat="45.05645" lon="6.05184">
        <ele>1154.6</ele>
        <time>2026-08-09T10:25:48Z</time>
      </trkpt>
      <trkpt lat="45.05641" lon="6.05182">
        <ele>1155</ele>
        <time>2026-08-09T10:25:50Z</time>
      </trkpt>
      <trkpt lat="45.05639" lon="6.05181">
        <ele>1155.2</ele>
        <time>2026-08-09T10:25:51Z</time>
      </trkpt>
      <trkpt lat="45.05637" lon="6.05181">
        <ele>1155.2</ele>
        <time>2026-08-09T10:25:52Z</time>
      </trkpt>
      <trkpt lat="45.05636" lon="6.0518">
        <ele>1155.4</ele>
        <time>2026-08-09T10:25:53Z</time>
      </trkpt>
      <trkpt lat="45.05634" lon="6.0518">
        <ele>1155.4</ele>
        <time>2026-08-09T10:25:54Z</time>
      </trkpt>
      <trkpt lat="45.05631" lon="6.05179">
        <ele>1155.8</ele>
        <time>2026-08-09T10:25:56Z</time>
      </trkpt>
      <trkpt lat="45.05627" lon="6.05178">
        <ele>1156</ele>
        <time>2026-08-09T10:25:58Z</time>
      </trkpt>
      <trkpt lat="45.05625" lon="6.05177">
        <ele>1156.4</ele>
        <time>2026-08-09T10:25:59Z</time>
      </trkpt>
      <trkpt lat="45.05623" lon="6.05177">
        <ele>1156.4</ele>
        <time>2026-08-09T10:26:00Z</time>
      </trkpt>
      <trkpt lat="45.0562" lon="6.05177">
        <ele>1156.8</ele>
        <time>2026-08-09T10:26:02Z</time>
      </trkpt>
      <trkpt lat="45.05617" lon="6.05176">
        <ele>1157</ele>
        <time>2026-08-09T10:26:04Z</time>
      </trkpt>
      <trkpt lat="45.05614" lon="6.05175">
        <ele>1157.4</ele>
        <time>2026-08-09T10:26:06Z</time>
      </trkpt>
      <trkpt lat="45.05611" lon="6.05173">
        <ele>1157.8</ele>
        <time>2026-08-09T10:26:08Z</time>
      </trkpt>
      <trkpt lat="45.05608" lon="6.05172">
        <ele>1158.2</ele>
        <time>2026-08-09T10:26:10Z</time>
      </trkpt>
      <trkpt lat="45.05605" lon="6.05171">
        <ele>1158.4</ele>
        <time>2026-08-09T10:26:12Z</time>
      </trkpt>
      <trkpt lat="45.05603" lon="6.0517">
        <ele>1158.6</ele>
        <time>2026-08-09T10:26:13Z</time>
      </trkpt>
      <trkpt lat="45.05601" lon="6.0517">
        <ele>1158.8</ele>
        <time>2026-08-09T10:26:14Z</time>
      </trkpt>
      <trkpt lat="45.05597" lon="6.0517">
        <ele>1159.2</ele>
        <time>2026-08-09T10:26:16Z</time>
      </trkpt>
      <trkpt lat="45.05592" lon="6.05169">
        <ele>1159.8</ele>
        <time>2026-08-09T10:26:18Z</time>
      </trkpt>
      <trkpt lat="45.05587" lon="6.0517">
        <ele>1160</ele>
        <time>2026-08-09T10:26:20Z</time>
      </trkpt>
      <trkpt lat="45.05583" lon="6.0517">
        <ele>1160.4</ele>
        <time>2026-08-09T10:26:22Z</time>
      </trkpt>
      <trkpt lat="45.05579" lon="6.05172">
        <ele>1160.8</ele>
        <time>2026-08-09T10:26:24Z</time>
      </trkpt>
      <trkpt lat="45.05577" lon="6.05174">
        <ele>1161</ele>
        <time>2026-08-09T10:26:25Z</time>
      </trkpt>
      <trkpt lat="45.05575" lon="6.05175">
        <ele>1161</ele>
        <time>2026-08-09T10:26:26Z</time>
      </trkpt>
      <trkpt lat="45.05571" lon="6.05177">
        <ele>1161.2</ele>
        <time>2026-08-09T10:26:28Z</time>
      </trkpt>
      <trkpt lat="45.05567" lon="6.0518">
        <ele>1161.4</ele>
        <time>2026-08-09T10:26:30Z</time>
      </trkpt>
      <trkpt lat="45.05564" lon="6.05184">
        <ele>1161.8</ele>
        <time>2026-08-09T10:26:32Z</time>
      </trkpt>
      <trkpt lat="45.05563" lon="6.05186">
        <ele>1162</ele>
        <time>2026-08-09T10:26:33Z</time>
      </trkpt>
      <trkpt lat="45.05562" lon="6.05188">
        <ele>1162.2</ele>
        <time>2026-08-09T10:26:34Z</time>
      </trkpt>
      <trkpt lat="45.05559" lon="6.05193">
        <ele>1162.4</ele>
        <time>2026-08-09T10:26:36Z</time>
      </trkpt>
      <trkpt lat="45.05556" lon="6.05198">
        <ele>1162.6</ele>
        <time>2026-08-09T10:26:38Z</time>
      </trkpt>
      <trkpt lat="45.05554" lon="6.05203">
        <ele>1163</ele>
        <time>2026-08-09T10:26:40Z</time>
      </trkpt>
      <trkpt lat="45.05553" lon="6.05205">
        <ele>1163.2</ele>
        <time>2026-08-09T10:26:41Z</time>
      </trkpt>
      <trkpt lat="45.05552" lon="6.05207">
        <ele>1163.4</ele>
        <time>2026-08-09T10:26:42Z</time>
      </trkpt>
      <trkpt lat="45.0555" lon="6.05212">
        <ele>1163.8</ele>
        <time>2026-08-09T10:26:44Z</time>
      </trkpt>
      <trkpt lat="45.05548" lon="6.05217">
        <ele>1164</ele>
        <time>2026-08-09T10:26:46Z</time>
      </trkpt>
      <trkpt lat="45.05546" lon="6.05222">
        <ele>1164.2</ele>
        <time>2026-08-09T10:26:48Z</time>
      </trkpt>
      <trkpt lat="45.05545" lon="6.05224">
        <ele>1164.2</ele>
        <time>2026-08-09T10:26:49Z</time>
      </trkpt>
      <trkpt lat="45.05543" lon="6.05227">
        <ele>1164.6</ele>
        <time>2026-08-09T10:26:50Z</time>
      </trkpt>
      <trkpt lat="45.05541" lon="6.05233">
        <ele>1164.8</ele>
        <time>2026-08-09T10:26:52Z</time>
      </trkpt>
      <trkpt lat="45.05541" lon="6.05236">
        <ele>1164.8</ele>
        <time>2026-08-09T10:26:53Z</time>
      </trkpt>
      <trkpt lat="45.0554" lon="6.05238">
        <ele>1165</ele>
        <time>2026-08-09T10:26:54Z</time>
      </trkpt>
      <trkpt lat="45.05537" lon="6.05243">
        <ele>1165.2</ele>
        <time>2026-08-09T10:26:56Z</time>
      </trkpt>
      <trkpt lat="45.05536" lon="6.05249">
        <ele>1165.4</ele>
        <time>2026-08-09T10:26:58Z</time>
      </trkpt>
      <trkpt lat="45.05535" lon="6.05251">
        <ele>1165.6</ele>
        <time>2026-08-09T10:26:59Z</time>
      </trkpt>
      <trkpt lat="45.05534" lon="6.05253">
        <ele>1165.8</ele>
        <time>2026-08-09T10:27:00Z</time>
      </trkpt>
      <trkpt lat="45.05534" lon="6.05256">
        <ele>1165.8</ele>
        <time>2026-08-09T10:27:01Z</time>
      </trkpt>
      <trkpt lat="45.05532" lon="6.05258">
        <ele>1166</ele>
        <time>2026-08-09T10:27:02Z</time>
      </trkpt>
      <trkpt lat="45.0553" lon="6.05263">
        <ele>1166.2</ele>
        <time>2026-08-09T10:27:04Z</time>
      </trkpt>
      <trkpt lat="45.05529" lon="6.05269">
        <ele>1166.4</ele>
        <time>2026-08-09T10:27:06Z</time>
      </trkpt>
      <trkpt lat="45.05528" lon="6.05271">
        <ele>1166.6</ele>
        <time>2026-08-09T10:27:07Z</time>
      </trkpt>
      <trkpt lat="45.05527" lon="6.05274">
        <ele>1166.8</ele>
        <time>2026-08-09T10:27:08Z</time>
      </trkpt>
      <trkpt lat="45.05524" lon="6.0528">
        <ele>1167</ele>
        <time>2026-08-09T10:27:10Z</time>
      </trkpt>
      <trkpt lat="45.05522" lon="6.05285">
        <ele>1167.2</ele>
        <time>2026-08-09T10:27:12Z</time>
      </trkpt>
      <trkpt lat="45.05519" lon="6.05291">
        <ele>1167.6</ele>
        <time>2026-08-09T10:27:14Z</time>
      </trkpt>
      <trkpt lat="45.05518" lon="6.05294">
        <ele>1167.8</ele>
        <time>2026-08-09T10:27:15Z</time>
      </trkpt>
      <trkpt lat="45.05517" lon="6.05296">
        <ele>1167.8</ele>
        <time>2026-08-09T10:27:16Z</time>
      </trkpt>
      <trkpt lat="45.05515" lon="6.05302">
        <ele>1168.2</ele>
        <time>2026-08-09T10:27:18Z</time>
      </trkpt>
      <trkpt lat="45.05514" lon="6.05305">
        <ele>1168.4</ele>
        <time>2026-08-09T10:27:19Z</time>
      </trkpt>
      <trkpt lat="45.05513" lon="6.05308">
        <ele>1168.6</ele>
        <time>2026-08-09T10:27:20Z</time>
      </trkpt>
      <trkpt lat="45.05511" lon="6.05314">
        <ele>1168.8</ele>
        <time>2026-08-09T10:27:22Z</time>
      </trkpt>
      <trkpt lat="45.05509" lon="6.05319">
        <ele>1169</ele>
        <time>2026-08-09T10:27:24Z</time>
      </trkpt>
      <trkpt lat="45.05507" lon="6.05325">
        <ele>1169.2</ele>
        <time>2026-08-09T10:27:26Z</time>
      </trkpt>
      <trkpt lat="45.05506" lon="6.0533">
        <ele>1169.6</ele>
        <time>2026-08-09T10:27:28Z</time>
      </trkpt>
      <trkpt lat="45.05504" lon="6.05335">
        <ele>1169.8</ele>
        <time>2026-08-09T10:27:30Z</time>
      </trkpt>
      <trkpt lat="45.05503" lon="6.05338">
        <ele>1170</ele>
        <time>2026-08-09T10:27:31Z</time>
      </trkpt>
      <trkpt lat="45.05502" lon="6.0534">
        <ele>1170</ele>
        <time>2026-08-09T10:27:32Z</time>
      </trkpt>
      <trkpt lat="45.05499" lon="6.05345">
        <ele>1170.2</ele>
        <time>2026-08-09T10:27:34Z</time>
      </trkpt>
      <trkpt lat="45.05497" lon="6.0535">
        <ele>1170.6</ele>
        <time>2026-08-09T10:27:36Z</time>
      </trkpt>
      <trkpt lat="45.05496" lon="6.05355">
        <ele>1170.8</ele>
        <time>2026-08-09T10:27:38Z</time>
      </trkpt>
      <trkpt lat="45.05495" lon="6.05357">
        <ele>1171.2</ele>
        <time>2026-08-09T10:27:39Z</time>
      </trkpt>
      <trkpt lat="45.05495" lon="6.05359">
        <ele>1171.4</ele>
        <time>2026-08-09T10:27:40Z</time>
      </trkpt>
      <trkpt lat="45.05494" lon="6.05363">
        <ele>1171.6</ele>
        <time>2026-08-09T10:27:42Z</time>
      </trkpt>
      <trkpt lat="45.05493" lon="6.05365">
        <ele>1171.8</ele>
        <time>2026-08-09T10:27:43Z</time>
      </trkpt>
      <trkpt lat="45.05492" lon="6.05367">
        <ele>1171.8</ele>
        <time>2026-08-09T10:27:44Z</time>
      </trkpt>
      <trkpt lat="45.0549" lon="6.05371">
        <ele>1172.2</ele>
        <time>2026-08-09T10:27:46Z</time>
      </trkpt>
      <trkpt lat="45.05489" lon="6.05374">
        <ele>1172.4</ele>
        <time>2026-08-09T10:27:47Z</time>
      </trkpt>
      <trkpt lat="45.05488" lon="6.05376">
        <ele>1172.6</ele>
        <time>2026-08-09T10:27:48Z</time>
      </trkpt>
      <trkpt lat="45.05487" lon="6.05382">
        <ele>1173</ele>
        <time>2026-08-09T10:27:50Z</time>
      </trkpt>
      <trkpt lat="45.05485" lon="6.05384">
        <ele>1173</ele>
        <time>2026-08-09T10:27:51Z</time>
      </trkpt>
      <trkpt lat="45.05484" lon="6.05387">
        <ele>1173.2</ele>
        <time>2026-08-09T10:27:52Z</time>
      </trkpt>
      <trkpt lat="45.05482" lon="6.05392">
        <ele>1173.4</ele>
        <time>2026-08-09T10:27:54Z</time>
      </trkpt>
      <trkpt lat="45.0548" lon="6.05396">
        <ele>1173.6</ele>
        <time>2026-08-09T10:27:56Z</time>
      </trkpt>
      <trkpt lat="45.05478" lon="6.054">
        <ele>1173.8</ele>
        <time>2026-08-09T10:27:58Z</time>
      </trkpt>
      <trkpt lat="45.05477" lon="6.05402">
        <ele>1174</ele>
        <time>2026-08-09T10:27:59Z</time>
      </trkpt>
      <trkpt lat="45.05477" lon="6.05405">
        <ele>1174</ele>
        <time>2026-08-09T10:28:00Z</time>
      </trkpt>
      <trkpt lat="45.05476" lon="6.0541">
        <ele>1174.2</ele>
        <time>2026-08-09T10:28:02Z</time>
      </trkpt>
      <trkpt lat="45.05475" lon="6.05413">
        <ele>1174.4</ele>
        <time>2026-08-09T10:28:03Z</time>
      </trkpt>
      <trkpt lat="45.05474" lon="6.05416">
        <ele>1174.4</ele>
        <time>2026-08-09T10:28:04Z</time>
      </trkpt>
      <trkpt lat="45.05474" lon="6.05419">
        <ele>1174.8</ele>
        <time>2026-08-09T10:28:05Z</time>
      </trkpt>
      <trkpt lat="45.05474" lon="6.05422">
        <ele>1175.2</ele>
        <time>2026-08-09T10:28:06Z</time>
      </trkpt>
      <trkpt lat="45.05475" lon="6.05428">
        <ele>1175.4</ele>
        <time>2026-08-09T10:28:08Z</time>
      </trkpt>
      <trkpt lat="45.05477" lon="6.05434">
        <ele>1175.6</ele>
        <time>2026-08-09T10:28:10Z</time>
      </trkpt>
      <trkpt lat="45.05478" lon="6.0544">
        <ele>1176</ele>
        <time>2026-08-09T10:28:12Z</time>
      </trkpt>
      <trkpt lat="45.0548" lon="6.05445">
        <ele>1176.4</ele>
        <time>2026-08-09T10:28:14Z</time>
      </trkpt>
      <trkpt lat="45.05483" lon="6.05451">
        <ele>1176.6</ele>
        <time>2026-08-09T10:28:16Z</time>
      </trkpt>
      <trkpt lat="45.05485" lon="6.05457">
        <ele>1176.6</ele>
        <time>2026-08-09T10:28:18Z</time>
      </trkpt>
      <trkpt lat="45.05486" lon="6.05463">
        <ele>1177</ele>
        <time>2026-08-09T10:28:20Z</time>
      </trkpt>
      <trkpt lat="45.05485" lon="6.05469">
        <ele>1177.4</ele>
        <time>2026-08-09T10:28:22Z</time>
      </trkpt>
      <trkpt lat="45.05484" lon="6.05472">
        <ele>1177.4</ele>
        <time>2026-08-09T10:28:23Z</time>
      </trkpt>
      <trkpt lat="45.05483" lon="6.05475">
        <ele>1177.6</ele>
        <time>2026-08-09T10:28:24Z</time>
      </trkpt>
      <trkpt lat="45.0548" lon="6.05481">
        <ele>1177.8</ele>
        <time>2026-08-09T10:28:26Z</time>
      </trkpt>
      <trkpt lat="45.05476" lon="6.05485">
        <ele>1178</ele>
        <time>2026-08-09T10:28:28Z</time>
      </trkpt>
      <trkpt lat="45.05473" lon="6.05486">
        <ele>1178</ele>
        <time>2026-08-09T10:28:29Z</time>
      </trkpt>
      <trkpt lat="45.0547" lon="6.05486">
        <ele>1178</ele>
        <time>2026-08-09T10:28:30Z</time>
      </trkpt>
      <trkpt lat="45.05464" lon="6.05484">
        <ele>1178.2</ele>
        <time>2026-08-09T10:28:32Z</time>
      </trkpt>
      <trkpt lat="45.05459" lon="6.05481">
        <ele>1178.2</ele>
        <time>2026-08-09T10:28:34Z</time>
      </trkpt>
      <trkpt lat="45.05455" lon="6.05479">
        <ele>1178.4</ele>
        <time>2026-08-09T10:28:36Z</time>
      </trkpt>
      <trkpt lat="45.0545" lon="6.05478">
        <ele>1178.4</ele>
        <time>2026-08-09T10:28:38Z</time>
      </trkpt>
      <trkpt lat="45.05447" lon="6.05479">
        <ele>1178.6</ele>
        <time>2026-08-09T10:28:39Z</time>
      </trkpt>
      <trkpt lat="45.05445" lon="6.0548">
        <ele>1178.8</ele>
        <time>2026-08-09T10:28:40Z</time>
      </trkpt>
      <trkpt lat="45.05441" lon="6.05483">
        <ele>1179.2</ele>
        <time>2026-08-09T10:28:42Z</time>
      </trkpt>
      <trkpt lat="45.05437" lon="6.05487">
        <ele>1179.4</ele>
        <time>2026-08-09T10:28:44Z</time>
      </trkpt>
      <trkpt lat="45.05433" lon="6.05491">
        <ele>1179.4</ele>
        <time>2026-08-09T10:28:46Z</time>
      </trkpt>
      <trkpt lat="45.05429" lon="6.05495">
        <ele>1179.6</ele>
        <time>2026-08-09T10:28:48Z</time>
      </trkpt>
      <trkpt lat="45.05426" lon="6.055">
        <ele>1179.6</ele>
        <time>2026-08-09T10:28:50Z</time>
      </trkpt>
      <trkpt lat="45.05425" lon="6.05503">
        <ele>1179.6</ele>
        <time>2026-08-09T10:28:51Z</time>
      </trkpt>
      <trkpt lat="45.05423" lon="6.05506">
        <ele>1179.6</ele>
        <time>2026-08-09T10:28:52Z</time>
      </trkpt>
      <trkpt lat="45.0542" lon="6.05512">
        <ele>1180</ele>
        <time>2026-08-09T10:28:54Z</time>
      </trkpt>
      <trkpt lat="45.05417" lon="6.05518">
        <ele>1180.4</ele>
        <time>2026-08-09T10:28:56Z</time>
      </trkpt>
      <trkpt lat="45.05414" lon="6.05524">
        <ele>1180.8</ele>
        <time>2026-08-09T10:28:58Z</time>
      </trkpt>
      <trkpt lat="45.05411" lon="6.0553">
        <ele>1181.2</ele>
        <time>2026-08-09T10:29:00Z</time>
      </trkpt>
      <trkpt lat="45.05409" lon="6.05533">
        <ele>1181.4</ele>
        <time>2026-08-09T10:29:01Z</time>
      </trkpt>
      <trkpt lat="45.05407" lon="6.05536">
        <ele>1181.6</ele>
        <time>2026-08-09T10:29:02Z</time>
      </trkpt>
      <trkpt lat="45.05404" lon="6.05542">
        <ele>1182</ele>
        <time>2026-08-09T10:29:04Z</time>
      </trkpt>
      <trkpt lat="45.05401" lon="6.05547">
        <ele>1182.4</ele>
        <time>2026-08-09T10:29:06Z</time>
      </trkpt>
      <trkpt lat="45.05398" lon="6.05552">
        <ele>1182.6</ele>
        <time>2026-08-09T10:29:08Z</time>
      </trkpt>
      <trkpt lat="45.05397" lon="6.05555">
        <ele>1182.6</ele>
        <time>2026-08-09T10:29:09Z</time>
      </trkpt>
      <trkpt lat="45.05395" lon="6.05558">
        <ele>1182.8</ele>
        <time>2026-08-09T10:29:10Z</time>
      </trkpt>
      <trkpt lat="45.05392" lon="6.05563">
        <ele>1183.4</ele>
        <time>2026-08-09T10:29:12Z</time>
      </trkpt>
      <trkpt lat="45.0539" lon="6.05565">
        <ele>1183.8</ele>
        <time>2026-08-09T10:29:13Z</time>
      </trkpt>
      <trkpt lat="45.05389" lon="6.05568">
        <ele>1184</ele>
        <time>2026-08-09T10:29:14Z</time>
      </trkpt>
      <trkpt lat="45.05385" lon="6.05573">
        <ele>1184.2</ele>
        <time>2026-08-09T10:29:16Z</time>
      </trkpt>
      <trkpt lat="45.05384" lon="6.05575">
        <ele>1184.4</ele>
        <time>2026-08-09T10:29:17Z</time>
      </trkpt>
      <trkpt lat="45.05382" lon="6.05578">
        <ele>1184.6</ele>
        <time>2026-08-09T10:29:18Z</time>
      </trkpt>
      <trkpt lat="45.0538" lon="6.05582">
        <ele>1184.8</ele>
        <time>2026-08-09T10:29:20Z</time>
      </trkpt>
      <trkpt lat="45.05376" lon="6.05587">
        <ele>1185</ele>
        <time>2026-08-09T10:29:22Z</time>
      </trkpt>
      <trkpt lat="45.05373" lon="6.05591">
        <ele>1185.4</ele>
        <time>2026-08-09T10:29:24Z</time>
      </trkpt>
      <trkpt lat="45.05371" lon="6.05592">
        <ele>1185.6</ele>
        <time>2026-08-09T10:29:25Z</time>
      </trkpt>
      <trkpt lat="45.0537" lon="6.05594">
        <ele>1185.8</ele>
        <time>2026-08-09T10:29:26Z</time>
      </trkpt>
      <trkpt lat="45.05368" lon="6.05596">
        <ele>1185.8</ele>
        <time>2026-08-09T10:29:27Z</time>
      </trkpt>
      <trkpt lat="45.05366" lon="6.05598">
        <ele>1186</ele>
        <time>2026-08-09T10:29:28Z</time>
      </trkpt>
      <trkpt lat="45.05363" lon="6.05602">
        <ele>1186.2</ele>
        <time>2026-08-09T10:29:30Z</time>
      </trkpt>
      <trkpt lat="45.05359" lon="6.05606">
        <ele>1186.6</ele>
        <time>2026-08-09T10:29:32Z</time>
      </trkpt>
      <trkpt lat="45.05357" lon="6.05608">
        <ele>1186.8</ele>
        <time>2026-08-09T10:29:33Z</time>
      </trkpt>
      <trkpt lat="45.05355" lon="6.0561">
        <ele>1186.8</ele>
        <time>2026-08-09T10:29:34Z</time>
      </trkpt>
      <trkpt lat="45.05352" lon="6.05615">
        <ele>1187.2</ele>
        <time>2026-08-09T10:29:36Z</time>
      </trkpt>
      <trkpt lat="45.05349" lon="6.05619">
        <ele>1187.2</ele>
        <time>2026-08-09T10:29:38Z</time>
      </trkpt>
      <trkpt lat="45.05346" lon="6.05623">
        <ele>1187.6</ele>
        <time>2026-08-09T10:29:40Z</time>
      </trkpt>
      <trkpt lat="45.05342" lon="6.05627">
        <ele>1187.8</ele>
        <time>2026-08-09T10:29:42Z</time>
      </trkpt>
      <trkpt lat="45.05339" lon="6.0563">
        <ele>1188.2</ele>
        <time>2026-08-09T10:29:44Z</time>
      </trkpt>
      <trkpt lat="45.05336" lon="6.05633">
        <ele>1188.8</ele>
        <time>2026-08-09T10:29:46Z</time>
      </trkpt>
      <trkpt lat="45.05333" lon="6.05637">
        <ele>1189.2</ele>
        <time>2026-08-09T10:29:48Z</time>
      </trkpt>
      <trkpt lat="45.05331" lon="6.05638">
        <ele>1189.2</ele>
        <time>2026-08-09T10:29:49Z</time>
      </trkpt>
      <trkpt lat="45.05329" lon="6.05639">
        <ele>1189.4</ele>
        <time>2026-08-09T10:29:50Z</time>
      </trkpt>
      <trkpt lat="45.05325" lon="6.05642">
        <ele>1189.8</ele>
        <time>2026-08-09T10:29:52Z</time>
      </trkpt>
      <trkpt lat="45.05322" lon="6.05646">
        <ele>1190.2</ele>
        <time>2026-08-09T10:29:54Z</time>
      </trkpt>
      <trkpt lat="45.0532" lon="6.05648">
        <ele>1190.4</ele>
        <time>2026-08-09T10:29:55Z</time>
      </trkpt>
      <trkpt lat="45.05318" lon="6.0565">
        <ele>1190.6</ele>
        <time>2026-08-09T10:29:56Z</time>
      </trkpt>
      <trkpt lat="45.05315" lon="6.05653">
        <ele>1191</ele>
        <time>2026-08-09T10:29:58Z</time>
      </trkpt>
      <trkpt lat="45.05312" lon="6.05656">
        <ele>1191.4</ele>
        <time>2026-08-09T10:30:00Z</time>
      </trkpt>
      <trkpt lat="45.0531" lon="6.05658">
        <ele>1191.6</ele>
        <time>2026-08-09T10:30:01Z</time>
      </trkpt>
      <trkpt lat="45.05309" lon="6.0566">
        <ele>1191.8</ele>
        <time>2026-08-09T10:30:02Z</time>
      </trkpt>
      <trkpt lat="45.05308" lon="6.05662">
        <ele>1192</ele>
        <time>2026-08-09T10:30:03Z</time>
      </trkpt>
      <trkpt lat="45.05306" lon="6.05664">
        <ele>1192.2</ele>
        <time>2026-08-09T10:30:04Z</time>
      </trkpt>
      <trkpt lat="45.05303" lon="6.05668">
        <ele>1192.6</ele>
        <time>2026-08-09T10:30:06Z</time>
      </trkpt>
      <trkpt lat="45.05301" lon="6.0567">
        <ele>1192.8</ele>
        <time>2026-08-09T10:30:07Z</time>
      </trkpt>
      <trkpt lat="45.053" lon="6.05671">
        <ele>1193.2</ele>
        <time>2026-08-09T10:30:08Z</time>
      </trkpt>
      <trkpt lat="45.05297" lon="6.05675">
        <ele>1193.6</ele>
        <time>2026-08-09T10:30:10Z</time>
      </trkpt>
      <trkpt lat="45.05296" lon="6.05677">
        <ele>1193.8</ele>
        <time>2026-08-09T10:30:11Z</time>
      </trkpt>
      <trkpt lat="45.05294" lon="6.05679">
        <ele>1194</ele>
        <time>2026-08-09T10:30:12Z</time>
      </trkpt>
      <trkpt lat="45.05291" lon="6.05683">
        <ele>1194.4</ele>
        <time>2026-08-09T10:30:14Z</time>
      </trkpt>
      <trkpt lat="45.05289" lon="6.05688">
        <ele>1194.6</ele>
        <time>2026-08-09T10:30:16Z</time>
      </trkpt>
      <trkpt lat="45.05286" lon="6.05692">
        <ele>1195</ele>
        <time>2026-08-09T10:30:18Z</time>
      </trkpt>
      <trkpt lat="45.05284" lon="6.05694">
        <ele>1195.2</ele>
        <time>2026-08-09T10:30:19Z</time>
      </trkpt>
      <trkpt lat="45.05283" lon="6.05697">
        <ele>1195.4</ele>
        <time>2026-08-09T10:30:20Z</time>
      </trkpt>
      <trkpt lat="45.0528" lon="6.05701">
        <ele>1195.6</ele>
        <time>2026-08-09T10:30:22Z</time>
      </trkpt>
      <trkpt lat="45.05277" lon="6.05705">
        <ele>1195.8</ele>
        <time>2026-08-09T10:30:24Z</time>
      </trkpt>
      <trkpt lat="45.05274" lon="6.0571">
        <ele>1196.2</ele>
        <time>2026-08-09T10:30:26Z</time>
      </trkpt>
      <trkpt lat="45.05273" lon="6.05712">
        <ele>1196.4</ele>
        <time>2026-08-09T10:30:27Z</time>
      </trkpt>
      <trkpt lat="45.05272" lon="6.05714">
        <ele>1196.8</ele>
        <time>2026-08-09T10:30:28Z</time>
      </trkpt>
      <trkpt lat="45.05269" lon="6.05718">
        <ele>1197</ele>
        <time>2026-08-09T10:30:30Z</time>
      </trkpt>
      <trkpt lat="45.05266" lon="6.05722">
        <ele>1197.2</ele>
        <time>2026-08-09T10:30:32Z</time>
      </trkpt>
      <trkpt lat="45.05264" lon="6.05728">
        <ele>1197.6</ele>
        <time>2026-08-09T10:30:34Z</time>
      </trkpt>
      <trkpt lat="45.05263" lon="6.0573">
        <ele>1197.8</ele>
        <time>2026-08-09T10:30:35Z</time>
      </trkpt>
      <trkpt lat="45.05263" lon="6.05734">
        <ele>1198</ele>
        <time>2026-08-09T10:30:36Z</time>
      </trkpt>
      <trkpt lat="45.05262" lon="6.05737">
        <ele>1198.4</ele>
        <time>2026-08-09T10:30:37Z</time>
      </trkpt>
      <trkpt lat="45.05262" lon="6.0574">
        <ele>1198.6</ele>
        <time>2026-08-09T10:30:38Z</time>
      </trkpt>
      <trkpt lat="45.05261" lon="6.05745">
        <ele>1199</ele>
        <time>2026-08-09T10:30:40Z</time>
      </trkpt>
      <trkpt lat="45.05261" lon="6.05747">
        <ele>1199.2</ele>
        <time>2026-08-09T10:30:41Z</time>
      </trkpt>
      <trkpt lat="45.0526" lon="6.05749">
        <ele>1199.4</ele>
        <time>2026-08-09T10:30:42Z</time>
      </trkpt>
      <trkpt lat="45.0526" lon="6.05754">
        <ele>1199.6</ele>
        <time>2026-08-09T10:30:44Z</time>
      </trkpt>
      <trkpt lat="45.0526" lon="6.05759">
        <ele>1199.8</ele>
        <time>2026-08-09T10:30:46Z</time>
      </trkpt>
      <trkpt lat="45.05259" lon="6.05764">
        <ele>1200</ele>
        <time>2026-08-09T10:30:48Z</time>
      </trkpt>
      <trkpt lat="45.05259" lon="6.05767">
        <ele>1200.2</ele>
        <time>2026-08-09T10:30:49Z</time>
      </trkpt>
      <trkpt lat="45.05258" lon="6.05769">
        <ele>1200.4</ele>
        <time>2026-08-09T10:30:50Z</time>
      </trkpt>
      <trkpt lat="45.05256" lon="6.05775">
        <ele>1200.8</ele>
        <time>2026-08-09T10:30:52Z</time>
      </trkpt>
      <trkpt lat="45.05253" lon="6.05779">
        <ele>1201.2</ele>
        <time>2026-08-09T10:30:54Z</time>
      </trkpt>
      <trkpt lat="45.05249" lon="6.05782">
        <ele>1201.6</ele>
        <time>2026-08-09T10:30:56Z</time>
      </trkpt>
      <trkpt lat="45.05244" lon="6.05785">
        <ele>1202</ele>
        <time>2026-08-09T10:30:58Z</time>
      </trkpt>
      <trkpt lat="45.0524" lon="6.05787">
        <ele>1202.4</ele>
        <time>2026-08-09T10:31:00Z</time>
      </trkpt>
      <trkpt lat="45.05239" lon="6.05789">
        <ele>1202.6</ele>
        <time>2026-08-09T10:31:01Z</time>
      </trkpt>
      <trkpt lat="45.05237" lon="6.0579">
        <ele>1202.6</ele>
        <time>2026-08-09T10:31:02Z</time>
      </trkpt>
      <trkpt lat="45.05234" lon="6.05792">
        <ele>1203</ele>
        <time>2026-08-09T10:31:04Z</time>
      </trkpt>
      <trkpt lat="45.0523" lon="6.05796">
        <ele>1203.8</ele>
        <time>2026-08-09T10:31:06Z</time>
      </trkpt>
      <trkpt lat="45.05228" lon="6.058">
        <ele>1204.4</ele>
        <time>2026-08-09T10:31:08Z</time>
      </trkpt>
      <trkpt lat="45.05224" lon="6.05805">
        <ele>1204.6</ele>
        <time>2026-08-09T10:31:10Z</time>
      </trkpt>
      <trkpt lat="45.05221" lon="6.05809">
        <ele>1204.8</ele>
        <time>2026-08-09T10:31:12Z</time>
      </trkpt>
      <trkpt lat="45.05219" lon="6.05814">
        <ele>1205</ele>
        <time>2026-08-09T10:31:14Z</time>
      </trkpt>
      <trkpt lat="45.05217" lon="6.0582">
        <ele>1205.2</ele>
        <time>2026-08-09T10:31:16Z</time>
      </trkpt>
      <trkpt lat="45.05216" lon="6.05825">
        <ele>1205.6</ele>
        <time>2026-08-09T10:31:18Z</time>
      </trkpt>
      <trkpt lat="45.05214" lon="6.05827">
        <ele>1205.8</ele>
        <time>2026-08-09T10:31:19Z</time>
      </trkpt>
      <trkpt lat="45.05214" lon="6.05829">
        <ele>1206</ele>
        <time>2026-08-09T10:31:20Z</time>
      </trkpt>
      <trkpt lat="45.05213" lon="6.05832">
        <ele>1206</ele>
        <time>2026-08-09T10:31:21Z</time>
      </trkpt>
      <trkpt lat="45.05212" lon="6.05834">
        <ele>1206.2</ele>
        <time>2026-08-09T10:31:22Z</time>
      </trkpt>
      <trkpt lat="45.0521" lon="6.05839">
        <ele>1206.8</ele>
        <time>2026-08-09T10:31:24Z</time>
      </trkpt>
      <trkpt lat="45.05209" lon="6.05843">
        <ele>1207</ele>
        <time>2026-08-09T10:31:26Z</time>
      </trkpt>
      <trkpt lat="45.05207" lon="6.05848">
        <ele>1207.2</ele>
        <time>2026-08-09T10:31:28Z</time>
      </trkpt>
      <trkpt lat="45.05206" lon="6.05851">
        <ele>1207.4</ele>
        <time>2026-08-09T10:31:29Z</time>
      </trkpt>
      <trkpt lat="45.05205" lon="6.05853">
        <ele>1207.6</ele>
        <time>2026-08-09T10:31:30Z</time>
      </trkpt>
      <trkpt lat="45.05204" lon="6.05856">
        <ele>1207.8</ele>
        <time>2026-08-09T10:31:31Z</time>
      </trkpt>
      <trkpt lat="45.05203" lon="6.05858">
        <ele>1208.2</ele>
        <time>2026-08-09T10:31:32Z</time>
      </trkpt>
      <trkpt lat="45.05201" lon="6.05863">
        <ele>1208.8</ele>
        <time>2026-08-09T10:31:34Z</time>
      </trkpt>
      <trkpt lat="45.052" lon="6.05868">
        <ele>1209.2</ele>
        <time>2026-08-09T10:31:36Z</time>
      </trkpt>
      <trkpt lat="45.05199" lon="6.0587">
        <ele>1209.2</ele>
        <time>2026-08-09T10:31:37Z</time>
      </trkpt>
      <trkpt lat="45.05198" lon="6.05873">
        <ele>1209.4</ele>
        <time>2026-08-09T10:31:38Z</time>
      </trkpt>
      <trkpt lat="45.05197" lon="6.05878">
        <ele>1209.6</ele>
        <time>2026-08-09T10:31:40Z</time>
      </trkpt>
      <trkpt lat="45.05196" lon="6.05883">
        <ele>1210</ele>
        <time>2026-08-09T10:31:42Z</time>
      </trkpt>
      <trkpt lat="45.05194" lon="6.05887">
        <ele>1210.2</ele>
        <time>2026-08-09T10:31:44Z</time>
      </trkpt>
      <trkpt lat="45.05193" lon="6.05892">
        <ele>1210.4</ele>
        <time>2026-08-09T10:31:46Z</time>
      </trkpt>
      <trkpt lat="45.0519" lon="6.05896">
        <ele>1210.8</ele>
        <time>2026-08-09T10:31:48Z</time>
      </trkpt>
      <trkpt lat="45.05187" lon="6.059">
        <ele>1211.2</ele>
        <time>2026-08-09T10:31:50Z</time>
      </trkpt>
      <trkpt lat="45.05185" lon="6.05902">
        <ele>1211.2</ele>
        <time>2026-08-09T10:31:51Z</time>
      </trkpt>
      <trkpt lat="45.05184" lon="6.05904">
        <ele>1211.6</ele>
        <time>2026-08-09T10:31:52Z</time>
      </trkpt>
      <trkpt lat="45.05181" lon="6.05907">
        <ele>1211.8</ele>
        <time>2026-08-09T10:31:54Z</time>
      </trkpt>
      <trkpt lat="45.05178" lon="6.0591">
        <ele>1212.2</ele>
        <time>2026-08-09T10:31:56Z</time>
      </trkpt>
      <trkpt lat="45.05176" lon="6.05911">
        <ele>1212.4</ele>
        <time>2026-08-09T10:31:57Z</time>
      </trkpt>
      <trkpt lat="45.05174" lon="6.05913">
        <ele>1212.6</ele>
        <time>2026-08-09T10:31:58Z</time>
      </trkpt>
      <trkpt lat="45.05171" lon="6.05917">
        <ele>1212.8</ele>
        <time>2026-08-09T10:32:00Z</time>
      </trkpt>
      <trkpt lat="45.05168" lon="6.0592">
        <ele>1213.2</ele>
        <time>2026-08-09T10:32:02Z</time>
      </trkpt>
      <trkpt lat="45.05165" lon="6.05924">
        <ele>1213.8</ele>
        <time>2026-08-09T10:32:04Z</time>
      </trkpt>
      <trkpt lat="45.05162" lon="6.05928">
        <ele>1214.4</ele>
        <time>2026-08-09T10:32:06Z</time>
      </trkpt>
      <trkpt lat="45.05161" lon="6.0593">
        <ele>1214.6</ele>
        <time>2026-08-09T10:32:07Z</time>
      </trkpt>
      <trkpt lat="45.0516" lon="6.05932">
        <ele>1214.8</ele>
        <time>2026-08-09T10:32:08Z</time>
      </trkpt>
      <trkpt lat="45.05156" lon="6.05936">
        <ele>1215</ele>
        <time>2026-08-09T10:32:10Z</time>
      </trkpt>
      <trkpt lat="45.05154" lon="6.0594">
        <ele>1215.4</ele>
        <time>2026-08-09T10:32:12Z</time>
      </trkpt>
      <trkpt lat="45.05152" lon="6.05941">
        <ele>1215.6</ele>
        <time>2026-08-09T10:32:13Z</time>
      </trkpt>
      <trkpt lat="45.05151" lon="6.05943">
        <ele>1216</ele>
        <time>2026-08-09T10:32:14Z</time>
      </trkpt>
      <trkpt lat="45.05147" lon="6.05947">
        <ele>1216.2</ele>
        <time>2026-08-09T10:32:16Z</time>
      </trkpt>
      <trkpt lat="45.05144" lon="6.0595">
        <ele>1216.6</ele>
        <time>2026-08-09T10:32:18Z</time>
      </trkpt>
      <trkpt lat="45.05142" lon="6.05952">
        <ele>1216.8</ele>
        <time>2026-08-09T10:32:19Z</time>
      </trkpt>
      <trkpt lat="45.05141" lon="6.05954">
        <ele>1217</ele>
        <time>2026-08-09T10:32:20Z</time>
      </trkpt>
      <trkpt lat="45.05139" lon="6.05959">
        <ele>1217.2</ele>
        <time>2026-08-09T10:32:22Z</time>
      </trkpt>
      <trkpt lat="45.05136" lon="6.05963">
        <ele>1217.6</ele>
        <time>2026-08-09T10:32:24Z</time>
      </trkpt>
      <trkpt lat="45.05134" lon="6.05965">
        <ele>1217.8</ele>
        <time>2026-08-09T10:32:25Z</time>
      </trkpt>
      <trkpt lat="45.05132" lon="6.05967">
        <ele>1218</ele>
        <time>2026-08-09T10:32:26Z</time>
      </trkpt>
      <trkpt lat="45.05129" lon="6.05972">
        <ele>1218.4</ele>
        <time>2026-08-09T10:32:28Z</time>
      </trkpt>
      <trkpt lat="45.05125" lon="6.05975">
        <ele>1218.6</ele>
        <time>2026-08-09T10:32:30Z</time>
      </trkpt>
      <trkpt lat="45.05124" lon="6.05977">
        <ele>1218.8</ele>
        <time>2026-08-09T10:32:31Z</time>
      </trkpt>
      <trkpt lat="45.05122" lon="6.05979">
        <ele>1219</ele>
        <time>2026-08-09T10:32:32Z</time>
      </trkpt>
      <trkpt lat="45.05119" lon="6.05983">
        <ele>1219.2</ele>
        <time>2026-08-09T10:32:34Z</time>
      </trkpt>
      <trkpt lat="45.05117" lon="6.05984">
        <ele>1219.4</ele>
        <time>2026-08-09T10:32:35Z</time>
      </trkpt>
      <trkpt lat="45.05116" lon="6.05986">
        <ele>1219.4</ele>
        <time>2026-08-09T10:32:36Z</time>
      </trkpt>
      <trkpt lat="45.05113" lon="6.0599">
        <ele>1219.8</ele>
        <time>2026-08-09T10:32:38Z</time>
      </trkpt>
      <trkpt lat="45.0511" lon="6.05994">
        <ele>1220.2</ele>
        <time>2026-08-09T10:32:40Z</time>
      </trkpt>
      <trkpt lat="45.05107" lon="6.05998">
        <ele>1220.6</ele>
        <time>2026-08-09T10:32:42Z</time>
      </trkpt>
      <trkpt lat="45.05105" lon="6.05999">
        <ele>1221</ele>
        <time>2026-08-09T10:32:43Z</time>
      </trkpt>
      <trkpt lat="45.05103" lon="6.06">
        <ele>1221.2</ele>
        <time>2026-08-09T10:32:44Z</time>
      </trkpt>
      <trkpt lat="45.05097" lon="6.06001">
        <ele>1221.6</ele>
        <time>2026-08-09T10:32:46Z</time>
      </trkpt>
      <trkpt lat="45.05093" lon="6.06001">
        <ele>1221.8</ele>
        <time>2026-08-09T10:32:48Z</time>
      </trkpt>
      <trkpt lat="45.05091" lon="6.06002">
        <ele>1222</ele>
        <time>2026-08-09T10:32:49Z</time>
      </trkpt>
      <trkpt lat="45.05089" lon="6.06003">
        <ele>1222.2</ele>
        <time>2026-08-09T10:32:50Z</time>
      </trkpt>
      <trkpt lat="45.05085" lon="6.06005">
        <ele>1222.6</ele>
        <time>2026-08-09T10:32:52Z</time>
      </trkpt>
      <trkpt lat="45.05082" lon="6.06009">
        <ele>1223.2</ele>
        <time>2026-08-09T10:32:54Z</time>
      </trkpt>
      <trkpt lat="45.05079" lon="6.06012">
        <ele>1223.6</ele>
        <time>2026-08-09T10:32:56Z</time>
      </trkpt>
      <trkpt lat="45.05076" lon="6.06016">
        <ele>1224.2</ele>
        <time>2026-08-09T10:32:58Z</time>
      </trkpt>
      <trkpt lat="45.05074" lon="6.06018">
        <ele>1224.4</ele>
        <time>2026-08-09T10:32:59Z</time>
      </trkpt>
      <trkpt lat="45.05073" lon="6.06019">
        <ele>1224.8</ele>
        <time>2026-08-09T10:33:00Z</time>
      </trkpt>
      <trkpt lat="45.05071" lon="6.06021">
        <ele>1225</ele>
        <time>2026-08-09T10:33:01Z</time>
      </trkpt>
      <trkpt lat="45.0507" lon="6.06023">
        <ele>1225.2</ele>
        <time>2026-08-09T10:33:02Z</time>
      </trkpt>
      <trkpt lat="45.05068" lon="6.06025">
        <ele>1225.4</ele>
        <time>2026-08-09T10:33:03Z</time>
      </trkpt>
      <trkpt lat="45.05067" lon="6.06027">
        <ele>1225.8</ele>
        <time>2026-08-09T10:33:04Z</time>
      </trkpt>
      <trkpt lat="45.05063" lon="6.0603">
        <ele>1226.2</ele>
        <time>2026-08-09T10:33:06Z</time>
      </trkpt>
      <trkpt lat="45.0506" lon="6.06034">
        <ele>1226.4</ele>
        <time>2026-08-09T10:33:08Z</time>
      </trkpt>
      <trkpt lat="45.05058" lon="6.06036">
        <ele>1226.6</ele>
        <time>2026-08-09T10:33:09Z</time>
      </trkpt>
      <trkpt lat="45.05056" lon="6.06038">
        <ele>1226.6</ele>
        <time>2026-08-09T10:33:10Z</time>
      </trkpt>
      <trkpt lat="45.05055" lon="6.0604">
        <ele>1226.8</ele>
        <time>2026-08-09T10:33:11Z</time>
      </trkpt>
      <trkpt lat="45.05053" lon="6.06042">
        <ele>1227</ele>
        <time>2026-08-09T10:33:12Z</time>
      </trkpt>
      <trkpt lat="45.05049" lon="6.06045">
        <ele>1227.4</ele>
        <time>2026-08-09T10:33:14Z</time>
      </trkpt>
      <trkpt lat="45.05048" lon="6.06047">
        <ele>1227.6</ele>
        <time>2026-08-09T10:33:15Z</time>
      </trkpt>
      <trkpt lat="45.05047" lon="6.06048">
        <ele>1227.8</ele>
        <time>2026-08-09T10:33:16Z</time>
      </trkpt>
      <trkpt lat="45.05043" lon="6.0605">
        <ele>1228</ele>
        <time>2026-08-09T10:33:18Z</time>
      </trkpt>
      <trkpt lat="45.05042" lon="6.06051">
        <ele>1228.2</ele>
        <time>2026-08-09T10:33:19Z</time>
      </trkpt>
      <trkpt lat="45.05041" lon="6.06052">
        <ele>1228.2</ele>
        <time>2026-08-09T10:33:20Z</time>
      </trkpt>
      <trkpt lat="45.05039" lon="6.06053">
        <ele>1228.6</ele>
        <time>2026-08-09T10:33:21Z</time>
      </trkpt>
      <trkpt lat="45.05038" lon="6.06055">
        <ele>1228.8</ele>
        <time>2026-08-09T10:33:22Z</time>
      </trkpt>
      <trkpt lat="45.05035" lon="6.06057">
        <ele>1229.2</ele>
        <time>2026-08-09T10:33:24Z</time>
      </trkpt>
      <trkpt lat="45.05034" lon="6.06059">
        <ele>1229.4</ele>
        <time>2026-08-09T10:33:25Z</time>
      </trkpt>
      <trkpt lat="45.05033" lon="6.06061">
        <ele>1229.8</ele>
        <time>2026-08-09T10:33:26Z</time>
      </trkpt>
      <trkpt lat="45.0503" lon="6.06064">
        <ele>1230</ele>
        <time>2026-08-09T10:33:28Z</time>
      </trkpt>
      <trkpt lat="45.05026" lon="6.06067">
        <ele>1230.6</ele>
        <time>2026-08-09T10:33:30Z</time>
      </trkpt>
      <trkpt lat="45.05023" lon="6.06069">
        <ele>1230.6</ele>
        <time>2026-08-09T10:33:31Z</time>
      </trkpt>
      <trkpt lat="45.05021" lon="6.06071">
        <ele>1230.8</ele>
        <time>2026-08-09T10:33:32Z</time>
      </trkpt>
      <trkpt lat="45.05019" lon="6.06072">
        <ele>1230.8</ele>
        <time>2026-08-09T10:33:33Z</time>
      </trkpt>
      <trkpt lat="45.05018" lon="6.06074">
        <ele>1231</ele>
        <time>2026-08-09T10:33:34Z</time>
      </trkpt>
      <trkpt lat="45.05014" lon="6.06077">
        <ele>1231.4</ele>
        <time>2026-08-09T10:33:36Z</time>
      </trkpt>
      <trkpt lat="45.05013" lon="6.06079">
        <ele>1231.6</ele>
        <time>2026-08-09T10:33:37Z</time>
      </trkpt>
      <trkpt lat="45.05012" lon="6.06081">
        <ele>1231.8</ele>
        <time>2026-08-09T10:33:38Z</time>
      </trkpt>
      <trkpt lat="45.0501" lon="6.06082">
        <ele>1232</ele>
        <time>2026-08-09T10:33:39Z</time>
      </trkpt>
      <trkpt lat="45.05009" lon="6.06083">
        <ele>1232</ele>
        <time>2026-08-09T10:33:40Z</time>
      </trkpt>
      <trkpt lat="45.05006" lon="6.06086">
        <ele>1232.8</ele>
        <time>2026-08-09T10:33:42Z</time>
      </trkpt>
      <trkpt lat="45.05002" lon="6.06088">
        <ele>1233</ele>
        <time>2026-08-09T10:33:44Z</time>
      </trkpt>
      <trkpt lat="45.05001" lon="6.06089">
        <ele>1233</ele>
        <time>2026-08-09T10:33:45Z</time>
      </trkpt>
      <trkpt lat="45.04999" lon="6.0609">
        <ele>1233.2</ele>
        <time>2026-08-09T10:33:46Z</time>
      </trkpt>
      <trkpt lat="45.04996" lon="6.06092">
        <ele>1233.4</ele>
        <time>2026-08-09T10:33:48Z</time>
      </trkpt>
      <trkpt lat="45.04992" lon="6.06095">
        <ele>1233.8</ele>
        <time>2026-08-09T10:33:50Z</time>
      </trkpt>
      <trkpt lat="45.04989" lon="6.06097">
        <ele>1234</ele>
        <time>2026-08-09T10:33:52Z</time>
      </trkpt>
      <trkpt lat="45.04986" lon="6.06098">
        <ele>1234.4</ele>
        <time>2026-08-09T10:33:54Z</time>
      </trkpt>
      <trkpt lat="45.04983" lon="6.061">
        <ele>1234.6</ele>
        <time>2026-08-09T10:33:56Z</time>
      </trkpt>
      <trkpt lat="45.0498" lon="6.06102">
        <ele>1234.8</ele>
        <time>2026-08-09T10:33:58Z</time>
      </trkpt>
      <trkpt lat="45.04977" lon="6.06103">
        <ele>1235.2</ele>
        <time>2026-08-09T10:34:00Z</time>
      </trkpt>
      <trkpt lat="45.04975" lon="6.06104">
        <ele>1235.4</ele>
        <time>2026-08-09T10:34:01Z</time>
      </trkpt>
      <trkpt lat="45.04974" lon="6.06104">
        <ele>1235.6</ele>
        <time>2026-08-09T10:34:02Z</time>
      </trkpt>
      <trkpt lat="45.04972" lon="6.06105">
        <ele>1236</ele>
        <time>2026-08-09T10:34:04Z</time>
      </trkpt>
      <trkpt lat="45.04969" lon="6.06108">
        <ele>1236.4</ele>
        <time>2026-08-09T10:34:06Z</time>
      </trkpt>
      <trkpt lat="45.04968" lon="6.06109">
        <ele>1236.6</ele>
        <time>2026-08-09T10:34:07Z</time>
      </trkpt>
      <trkpt lat="45.04966" lon="6.0611">
        <ele>1237</ele>
        <time>2026-08-09T10:34:08Z</time>
      </trkpt>
      <trkpt lat="45.04964" lon="6.06113">
        <ele>1237</ele>
        <time>2026-08-09T10:34:10Z</time>
      </trkpt>
      <trkpt lat="45.04961" lon="6.06115">
        <ele>1237.4</ele>
        <time>2026-08-09T10:34:12Z</time>
      </trkpt>
      <trkpt lat="45.0496" lon="6.06115">
        <ele>1237.4</ele>
        <time>2026-08-09T10:34:13Z</time>
      </trkpt>
      <trkpt lat="45.04959" lon="6.06116">
        <ele>1237.6</ele>
        <time>2026-08-09T10:34:14Z</time>
      </trkpt>
      <trkpt lat="45.04957" lon="6.06118">
        <ele>1237.8</ele>
        <time>2026-08-09T10:34:16Z</time>
      </trkpt>
      <trkpt lat="45.04955" lon="6.06121">
        <ele>1237.8</ele>
        <time>2026-08-09T10:34:18Z</time>
      </trkpt>
      <trkpt lat="45.04954" lon="6.06122">
        <ele>1238</ele>
        <time>2026-08-09T10:34:19Z</time>
      </trkpt>
      <trkpt lat="45.04953" lon="6.06124">
        <ele>1238.2</ele>
        <time>2026-08-09T10:34:20Z</time>
      </trkpt>
      <trkpt lat="45.04951" lon="6.06126">
        <ele>1238.4</ele>
        <time>2026-08-09T10:34:22Z</time>
      </trkpt>
      <trkpt lat="45.04949" lon="6.0613">
        <ele>1238.6</ele>
        <time>2026-08-09T10:34:24Z</time>
      </trkpt>
      <trkpt lat="45.04949" lon="6.06131">
        <ele>1238.8</ele>
        <time>2026-08-09T10:34:25Z</time>
      </trkpt>
      <trkpt lat="45.04948" lon="6.06133">
        <ele>1239</ele>
        <time>2026-08-09T10:34:26Z</time>
      </trkpt>
      <trkpt lat="45.04947" lon="6.06137">
        <ele>1239.2</ele>
        <time>2026-08-09T10:34:28Z</time>
      </trkpt>
      <trkpt lat="45.04946" lon="6.06141">
        <ele>1239.4</ele>
        <time>2026-08-09T10:34:30Z</time>
      </trkpt>
      <trkpt lat="45.04944" lon="6.06145">
        <ele>1239.6</ele>
        <time>2026-08-09T10:34:32Z</time>
      </trkpt>
      <trkpt lat="45.04942" lon="6.06149">
        <ele>1239.8</ele>
        <time>2026-08-09T10:34:34Z</time>
      </trkpt>
      <trkpt lat="45.0494" lon="6.06153">
        <ele>1240.2</ele>
        <time>2026-08-09T10:34:36Z</time>
      </trkpt>
      <trkpt lat="45.04938" lon="6.06156">
        <ele>1240.4</ele>
        <time>2026-08-09T10:34:38Z</time>
      </trkpt>
      <trkpt lat="45.04935" lon="6.06159">
        <ele>1240.8</ele>
        <time>2026-08-09T10:34:40Z</time>
      </trkpt>
      <trkpt lat="45.04933" lon="6.06162">
        <ele>1241.2</ele>
        <time>2026-08-09T10:34:42Z</time>
      </trkpt>
      <trkpt lat="45.04931" lon="6.06165">
        <ele>1241.6</ele>
        <time>2026-08-09T10:34:44Z</time>
      </trkpt>
      <trkpt lat="45.04928" lon="6.06168">
        <ele>1241.8</ele>
        <time>2026-08-09T10:34:46Z</time>
      </trkpt>
      <trkpt lat="45.04927" lon="6.06169">
        <ele>1241.8</ele>
        <time>2026-08-09T10:34:47Z</time>
      </trkpt>
      <trkpt lat="45.04926" lon="6.0617">
        <ele>1242</ele>
        <time>2026-08-09T10:34:48Z</time>
      </trkpt>
      <trkpt lat="45.04925" lon="6.06173">
        <ele>1242.2</ele>
        <time>2026-08-09T10:34:50Z</time>
      </trkpt>
      <trkpt lat="45.04924" lon="6.06175">
        <ele>1242.2</ele>
        <time>2026-08-09T10:34:51Z</time>
      </trkpt>
      <trkpt lat="45.04923" lon="6.06176">
        <ele>1242.4</ele>
        <time>2026-08-09T10:34:52Z</time>
      </trkpt>
      <trkpt lat="45.04921" lon="6.06179">
        <ele>1243</ele>
        <time>2026-08-09T10:34:54Z</time>
      </trkpt>
      <trkpt lat="45.04919" lon="6.06182">
        <ele>1243.4</ele>
        <time>2026-08-09T10:34:56Z</time>
      </trkpt>
      <trkpt lat="45.04917" lon="6.06185">
        <ele>1243.6</ele>
        <time>2026-08-09T10:34:58Z</time>
      </trkpt>
      <trkpt lat="45.04915" lon="6.06188">
        <ele>1243.8</ele>
        <time>2026-08-09T10:35:00Z</time>
      </trkpt>
      <trkpt lat="45.04913" lon="6.0619">
        <ele>1244</ele>
        <time>2026-08-09T10:35:02Z</time>
      </trkpt>
      <trkpt lat="45.04912" lon="6.06192">
        <ele>1244.2</ele>
        <time>2026-08-09T10:35:03Z</time>
      </trkpt>
      <trkpt lat="45.0491" lon="6.06193">
        <ele>1244.2</ele>
        <time>2026-08-09T10:35:04Z</time>
      </trkpt>
      <trkpt lat="45.04909" lon="6.06196">
        <ele>1244.4</ele>
        <time>2026-08-09T10:35:06Z</time>
      </trkpt>
      <trkpt lat="45.04908" lon="6.06198">
        <ele>1244.2</ele>
        <time>2026-08-09T10:35:07Z</time>
      </trkpt>
      <trkpt lat="45.04907" lon="6.06199">
        <ele>1244.4</ele>
        <time>2026-08-09T10:35:08Z</time>
      </trkpt>
      <trkpt lat="45.04906" lon="6.062">
        <ele>1244.6</ele>
        <time>2026-08-09T10:35:09Z</time>
      </trkpt>
      <trkpt lat="45.04905" lon="6.06202">
        <ele>1244.8</ele>
        <time>2026-08-09T10:35:10Z</time>
      </trkpt>
      <trkpt lat="45.04903" lon="6.06205">
        <ele>1245.2</ele>
        <time>2026-08-09T10:35:12Z</time>
      </trkpt>
      <trkpt lat="45.04903" lon="6.06207">
        <ele>1245.4</ele>
        <time>2026-08-09T10:35:13Z</time>
      </trkpt>
      <trkpt lat="45.04902" lon="6.06208">
        <ele>1245.4</ele>
        <time>2026-08-09T10:35:14Z</time>
      </trkpt>
      <trkpt lat="45.049" lon="6.06212">
        <ele>1245.8</ele>
        <time>2026-08-09T10:35:16Z</time>
      </trkpt>
      <trkpt lat="45.04898" lon="6.06215">
        <ele>1246</ele>
        <time>2026-08-09T10:35:18Z</time>
      </trkpt>
      <trkpt lat="45.04896" lon="6.06217">
        <ele>1246.4</ele>
        <time>2026-08-09T10:35:20Z</time>
      </trkpt>
      <trkpt lat="45.04895" lon="6.06219">
        <ele>1246.4</ele>
        <time>2026-08-09T10:35:21Z</time>
      </trkpt>
      <trkpt lat="45.04895" lon="6.0622">
        <ele>1247</ele>
        <time>2026-08-09T10:35:22Z</time>
      </trkpt>
      <trkpt lat="45.04893" lon="6.06224">
        <ele>1247.2</ele>
        <time>2026-08-09T10:35:24Z</time>
      </trkpt>
      <trkpt lat="45.04891" lon="6.06227">
        <ele>1247.6</ele>
        <time>2026-08-09T10:35:26Z</time>
      </trkpt>
      <trkpt lat="45.04888" lon="6.0623">
        <ele>1247.8</ele>
        <time>2026-08-09T10:35:28Z</time>
      </trkpt>
      <trkpt lat="45.04886" lon="6.06231">
        <ele>1248</ele>
        <time>2026-08-09T10:35:29Z</time>
      </trkpt>
      <trkpt lat="45.04885" lon="6.06233">
        <ele>1248.2</ele>
        <time>2026-08-09T10:35:30Z</time>
      </trkpt>
      <trkpt lat="45.04881" lon="6.06233">
        <ele>1248.4</ele>
        <time>2026-08-09T10:35:32Z</time>
      </trkpt>
      <trkpt lat="45.04876" lon="6.06233">
        <ele>1248.8</ele>
        <time>2026-08-09T10:35:34Z</time>
      </trkpt>
      <trkpt lat="45.04872" lon="6.06233">
        <ele>1249</ele>
        <time>2026-08-09T10:35:36Z</time>
      </trkpt>
      <trkpt lat="45.04868" lon="6.06232">
        <ele>1249</ele>
        <time>2026-08-09T10:35:38Z</time>
      </trkpt>
      <trkpt lat="45.04864" lon="6.06232">
        <ele>1249.2</ele>
        <time>2026-08-09T10:35:40Z</time>
      </trkpt>
      <trkpt lat="45.0486" lon="6.06232">
        <ele>1249.4</ele>
        <time>2026-08-09T10:35:42Z</time>
      </trkpt>
      <trkpt lat="45.04856" lon="6.06234">
        <ele>1249.6</ele>
        <time>2026-08-09T10:35:44Z</time>
      </trkpt>
      <trkpt lat="45.04854" lon="6.06236">
        <ele>1250</ele>
        <time>2026-08-09T10:35:46Z</time>
      </trkpt>
      <trkpt lat="45.04851" lon="6.06239">
        <ele>1250.4</ele>
        <time>2026-08-09T10:35:48Z</time>
      </trkpt>
      <trkpt lat="45.04851" lon="6.0624">
        <ele>1250.4</ele>
        <time>2026-08-09T10:35:49Z</time>
      </trkpt>
      <trkpt lat="45.0485" lon="6.06241">
        <ele>1250.6</ele>
        <time>2026-08-09T10:35:50Z</time>
      </trkpt>
      <trkpt lat="45.04848" lon="6.06245">
        <ele>1251</ele>
        <time>2026-08-09T10:35:52Z</time>
      </trkpt>
      <trkpt lat="45.04847" lon="6.06248">
        <ele>1251.4</ele>
        <time>2026-08-09T10:35:54Z</time>
      </trkpt>
      <trkpt lat="45.04845" lon="6.06252">
        <ele>1251.8</ele>
        <time>2026-08-09T10:35:56Z</time>
      </trkpt>
      <trkpt lat="45.04843" lon="6.06255">
        <ele>1252</ele>
        <time>2026-08-09T10:35:58Z</time>
      </trkpt>
      <trkpt lat="45.04841" lon="6.06258">
        <ele>1252.4</ele>
        <time>2026-08-09T10:36:00Z</time>
      </trkpt>
      <trkpt lat="45.04839" lon="6.06261">
        <ele>1252.6</ele>
        <time>2026-08-09T10:36:02Z</time>
      </trkpt>
      <trkpt lat="45.04838" lon="6.06265">
        <ele>1252.8</ele>
        <time>2026-08-09T10:36:04Z</time>
      </trkpt>
      <trkpt lat="45.04835" lon="6.06268">
        <ele>1253</ele>
        <time>2026-08-09T10:36:06Z</time>
      </trkpt>
      <trkpt lat="45.04834" lon="6.0627">
        <ele>1253.2</ele>
        <time>2026-08-09T10:36:07Z</time>
      </trkpt>
      <trkpt lat="45.04833" lon="6.06271">
        <ele>1253.4</ele>
        <time>2026-08-09T10:36:08Z</time>
      </trkpt>
      <trkpt lat="45.04829" lon="6.06274">
        <ele>1253.6</ele>
        <time>2026-08-09T10:36:10Z</time>
      </trkpt>
      <trkpt lat="45.04826" lon="6.06277">
        <ele>1253.8</ele>
        <time>2026-08-09T10:36:12Z</time>
      </trkpt>
      <trkpt lat="45.04824" lon="6.0628">
        <ele>1254</ele>
        <time>2026-08-09T10:36:14Z</time>
      </trkpt>
      <trkpt lat="45.04822" lon="6.06281">
        <ele>1254.2</ele>
        <time>2026-08-09T10:36:15Z</time>
      </trkpt>
      <trkpt lat="45.04821" lon="6.06282">
        <ele>1254.4</ele>
        <time>2026-08-09T10:36:16Z</time>
      </trkpt>
      <trkpt lat="45.04818" lon="6.06284">
        <ele>1254.6</ele>
        <time>2026-08-09T10:36:18Z</time>
      </trkpt>
      <trkpt lat="45.04817" lon="6.06285">
        <ele>1255</ele>
        <time>2026-08-09T10:36:19Z</time>
      </trkpt>
      <trkpt lat="45.04816" lon="6.06286">
        <ele>1255.2</ele>
        <time>2026-08-09T10:36:20Z</time>
      </trkpt>
      <trkpt lat="45.04813" lon="6.06287">
        <ele>1255.4</ele>
        <time>2026-08-09T10:36:22Z</time>
      </trkpt>
      <trkpt lat="45.04811" lon="6.06291">
        <ele>1255.8</ele>
        <time>2026-08-09T10:36:24Z</time>
      </trkpt>
      <trkpt lat="45.04808" lon="6.06296">
        <ele>1256</ele>
        <time>2026-08-09T10:36:26Z</time>
      </trkpt>
      <trkpt lat="45.04805" lon="6.063">
        <ele>1256.6</ele>
        <time>2026-08-09T10:36:28Z</time>
      </trkpt>
      <trkpt lat="45.04802" lon="6.06303">
        <ele>1257</ele>
        <time>2026-08-09T10:36:30Z</time>
      </trkpt>
      <trkpt lat="45.048" lon="6.06306">
        <ele>1257.2</ele>
        <time>2026-08-09T10:36:31Z</time>
      </trkpt>
      <trkpt lat="45.04799" lon="6.06308">
        <ele>1257.4</ele>
        <time>2026-08-09T10:36:32Z</time>
      </trkpt>
      <trkpt lat="45.04796" lon="6.06313">
        <ele>1257.8</ele>
        <time>2026-08-09T10:36:34Z</time>
      </trkpt>
      <trkpt lat="45.04794" lon="6.06315">
        <ele>1258</ele>
        <time>2026-08-09T10:36:36Z</time>
      </trkpt>
      <trkpt lat="45.04793" lon="6.06317">
        <ele>1258</ele>
        <time>2026-08-09T10:36:37Z</time>
      </trkpt>
      <trkpt lat="45.04792" lon="6.06319">
        <ele>1258</ele>
        <time>2026-08-09T10:36:38Z</time>
      </trkpt>
      <trkpt lat="45.0479" lon="6.06323">
        <ele>1258.2</ele>
        <time>2026-08-09T10:36:40Z</time>
      </trkpt>
      <trkpt lat="45.04789" lon="6.06329">
        <ele>1258.6</ele>
        <time>2026-08-09T10:36:42Z</time>
      </trkpt>
      <trkpt lat="45.04789" lon="6.06331">
        <ele>1258.6</ele>
        <time>2026-08-09T10:36:43Z</time>
      </trkpt>
      <trkpt lat="45.04788" lon="6.06332">
        <ele>1258.8</ele>
        <time>2026-08-09T10:36:44Z</time>
      </trkpt>
      <trkpt lat="45.04788" lon="6.06334">
        <ele>1259.2</ele>
        <time>2026-08-09T10:36:46Z</time>
      </trkpt>
      <trkpt lat="45.04787" lon="6.06336">
        <ele>1259.6</ele>
        <time>2026-08-09T10:36:47Z</time>
      </trkpt>
      <trkpt lat="45.04787" lon="6.06336">
        <ele>1259.8</ele>
        <time>2026-08-09T10:36:48Z</time>
      </trkpt>
      <trkpt lat="45.04789" lon="6.06337">
        <ele>1259.8</ele>
        <time>2026-08-09T10:36:50Z</time>
      </trkpt>
      <trkpt lat="45.04788" lon="6.06339">
        <ele>1260.2</ele>
        <time>2026-08-09T10:36:52Z</time>
      </trkpt>
      <trkpt lat="45.04785" lon="6.06345">
        <ele>1260.4</ele>
        <time>2026-08-09T10:36:53Z</time>
      </trkpt>
      <trkpt lat="45.04783" lon="6.06348">
        <ele>1260.6</ele>
        <time>2026-08-09T10:36:54Z</time>
      </trkpt>
      <trkpt lat="45.04779" lon="6.06357">
        <ele>1261</ele>
        <time>2026-08-09T10:36:56Z</time>
      </trkpt>
      <trkpt lat="45.04774" lon="6.06359">
        <ele>1261.2</ele>
        <time>2026-08-09T10:36:58Z</time>
      </trkpt>
      <trkpt lat="45.04772" lon="6.06357">
        <ele>1261.4</ele>
        <time>2026-08-09T10:36:59Z</time>
      </trkpt>
      <trkpt lat="45.04769" lon="6.06354">
        <ele>1261.6</ele>
        <time>2026-08-09T10:37:00Z</time>
      </trkpt>
      <trkpt lat="45.04764" lon="6.06353">
        <ele>1261.6</ele>
        <time>2026-08-09T10:37:01Z</time>
      </trkpt>
      <trkpt lat="45.04764" lon="6.06353">
        <ele>1261.8</ele>
        <time>2026-08-09T10:37:02Z</time>
      </trkpt>
      <trkpt lat="45.04757" lon="6.06348">
        <ele>1262</ele>
        <time>2026-08-09T10:37:04Z</time>
      </trkpt>
      <trkpt lat="45.04752" lon="6.06345">
        <ele>1262.4</ele>
        <time>2026-08-09T10:37:06Z</time>
      </trkpt>
      <trkpt lat="45.0475" lon="6.06344">
        <ele>1262.6</ele>
        <time>2026-08-09T10:37:07Z</time>
      </trkpt>
      <trkpt lat="45.04748" lon="6.06343">
        <ele>1262.8</ele>
        <time>2026-08-09T10:37:08Z</time>
      </trkpt>
      <trkpt lat="45.04746" lon="6.06341">
        <ele>1262.8</ele>
        <time>2026-08-09T10:37:09Z</time>
      </trkpt>
      <trkpt lat="45.04744" lon="6.0634">
        <ele>1263</ele>
        <time>2026-08-09T10:37:10Z</time>
      </trkpt>
      <trkpt lat="45.04741" lon="6.06338">
        <ele>1263.4</ele>
        <time>2026-08-09T10:37:12Z</time>
      </trkpt>
      <trkpt lat="45.04737" lon="6.06335">
        <ele>1263.8</ele>
        <time>2026-08-09T10:37:14Z</time>
      </trkpt>
      <trkpt lat="45.04733" lon="6.06335">
        <ele>1264.2</ele>
        <time>2026-08-09T10:37:16Z</time>
      </trkpt>
      <trkpt lat="45.04729" lon="6.06335">
        <ele>1264.6</ele>
        <time>2026-08-09T10:37:18Z</time>
      </trkpt>
      <trkpt lat="45.04725" lon="6.06335">
        <ele>1265</ele>
        <time>2026-08-09T10:37:20Z</time>
      </trkpt>
      <trkpt lat="45.0472" lon="6.06337">
        <ele>1265.4</ele>
        <time>2026-08-09T10:37:22Z</time>
      </trkpt>
      <trkpt lat="45.04718" lon="6.06338">
        <ele>1265.6</ele>
        <time>2026-08-09T10:37:23Z</time>
      </trkpt>
      <trkpt lat="45.04716" lon="6.0634">
        <ele>1266</ele>
        <time>2026-08-09T10:37:24Z</time>
      </trkpt>
      <trkpt lat="45.04713" lon="6.06344">
        <ele>1266.4</ele>
        <time>2026-08-09T10:37:26Z</time>
      </trkpt>
      <trkpt lat="45.04711" lon="6.06347">
        <ele>1266.8</ele>
        <time>2026-08-09T10:37:28Z</time>
      </trkpt>
      <trkpt lat="45.04709" lon="6.06349">
        <ele>1267.2</ele>
        <time>2026-08-09T10:37:30Z</time>
      </trkpt>
      <trkpt lat="45.04707" lon="6.06353">
        <ele>1267.4</ele>
        <time>2026-08-09T10:37:32Z</time>
      </trkpt>
      <trkpt lat="45.04706" lon="6.06354">
        <ele>1267.6</ele>
        <time>2026-08-09T10:37:33Z</time>
      </trkpt>
      <trkpt lat="45.04706" lon="6.06356">
        <ele>1267.6</ele>
        <time>2026-08-09T10:37:34Z</time>
      </trkpt>
      <trkpt lat="45.04706" lon="6.06359">
        <ele>1268</ele>
        <time>2026-08-09T10:37:35Z</time>
      </trkpt>
      <trkpt lat="45.04706" lon="6.0636">
        <ele>1268.2</ele>
        <time>2026-08-09T10:37:36Z</time>
      </trkpt>
      <trkpt lat="45.04705" lon="6.06362">
        <ele>1268.4</ele>
        <time>2026-08-09T10:37:37Z</time>
      </trkpt>
      <trkpt lat="45.04705" lon="6.06364">
        <ele>1268.4</ele>
        <time>2026-08-09T10:37:38Z</time>
      </trkpt>
      <trkpt lat="45.04703" lon="6.06369">
        <ele>1268.6</ele>
        <time>2026-08-09T10:37:40Z</time>
      </trkpt>
      <trkpt lat="45.047" lon="6.06373">
        <ele>1269</ele>
        <time>2026-08-09T10:37:42Z</time>
      </trkpt>
      <trkpt lat="45.04699" lon="6.06375">
        <ele>1269</ele>
        <time>2026-08-09T10:37:43Z</time>
      </trkpt>
      <trkpt lat="45.04699" lon="6.06375">
        <ele>1269.2</ele>
        <time>2026-08-09T10:37:44Z</time>
      </trkpt>
      <trkpt lat="45.04697" lon="6.06377">
        <ele>1269.8</ele>
        <time>2026-08-09T10:37:46Z</time>
      </trkpt>
      <trkpt lat="45.04693" lon="6.0638">
        <ele>1270</ele>
        <time>2026-08-09T10:37:48Z</time>
      </trkpt>
      <trkpt lat="45.04691" lon="6.06381">
        <ele>1270.2</ele>
        <time>2026-08-09T10:37:49Z</time>
      </trkpt>
      <trkpt lat="45.04689" lon="6.06381">
        <ele>1270.4</ele>
        <time>2026-08-09T10:37:50Z</time>
      </trkpt>
      <trkpt lat="45.04687" lon="6.06382">
        <ele>1270.6</ele>
        <time>2026-08-09T10:37:51Z</time>
      </trkpt>
      <trkpt lat="45.04685" lon="6.06383">
        <ele>1270.6</ele>
        <time>2026-08-09T10:37:52Z</time>
      </trkpt>
      <trkpt lat="45.04681" lon="6.06385">
        <ele>1271</ele>
        <time>2026-08-09T10:37:54Z</time>
      </trkpt>
      <trkpt lat="45.04678" lon="6.06389">
        <ele>1271.2</ele>
        <time>2026-08-09T10:37:56Z</time>
      </trkpt>
      <trkpt lat="45.04677" lon="6.06391">
        <ele>1271.2</ele>
        <time>2026-08-09T10:37:57Z</time>
      </trkpt>
      <trkpt lat="45.04675" lon="6.06392">
        <ele>1271.2</ele>
        <time>2026-08-09T10:37:58Z</time>
      </trkpt>
      <trkpt lat="45.04673" lon="6.06396">
        <ele>1271.4</ele>
        <time>2026-08-09T10:38:00Z</time>
      </trkpt>
      <trkpt lat="45.04671" lon="6.064">
        <ele>1271.4</ele>
        <time>2026-08-09T10:38:02Z</time>
      </trkpt>
      <trkpt lat="45.04668" lon="6.06403">
        <ele>1271.8</ele>
        <time>2026-08-09T10:38:04Z</time>
      </trkpt>
      <trkpt lat="45.04667" lon="6.06405">
        <ele>1271.8</ele>
        <time>2026-08-09T10:38:05Z</time>
      </trkpt>
      <trkpt lat="45.04665" lon="6.06407">
        <ele>1272</ele>
        <time>2026-08-09T10:38:06Z</time>
      </trkpt>
      <trkpt lat="45.04662" lon="6.06411">
        <ele>1272.2</ele>
        <time>2026-08-09T10:38:08Z</time>
      </trkpt>
      <trkpt lat="45.04659" lon="6.06414">
        <ele>1272.6</ele>
        <time>2026-08-09T10:38:10Z</time>
      </trkpt>
      <trkpt lat="45.04656" lon="6.06417">
        <ele>1273</ele>
        <time>2026-08-09T10:38:12Z</time>
      </trkpt>
      <trkpt lat="45.04655" lon="6.06419">
        <ele>1273.4</ele>
        <time>2026-08-09T10:38:13Z</time>
      </trkpt>
      <trkpt lat="45.04653" lon="6.06421">
        <ele>1273.6</ele>
        <time>2026-08-09T10:38:14Z</time>
      </trkpt>
      <trkpt lat="45.04649" lon="6.06426">
        <ele>1274</ele>
        <time>2026-08-09T10:38:16Z</time>
      </trkpt>
      <trkpt lat="45.04647" lon="6.06427">
        <ele>1274.4</ele>
        <time>2026-08-09T10:38:18Z</time>
      </trkpt>
      <trkpt lat="45.04646" lon="6.06429">
        <ele>1274.4</ele>
        <time>2026-08-09T10:38:19Z</time>
      </trkpt>
      <trkpt lat="45.04645" lon="6.06431">
        <ele>1274.4</ele>
        <time>2026-08-09T10:38:20Z</time>
      </trkpt>
      <trkpt lat="45.04644" lon="6.06433">
        <ele>1274.6</ele>
        <time>2026-08-09T10:38:21Z</time>
      </trkpt>
      <trkpt lat="45.04643" lon="6.06435">
        <ele>1274.8</ele>
        <time>2026-08-09T10:38:22Z</time>
      </trkpt>
      <trkpt lat="45.04641" lon="6.06439">
        <ele>1274.8</ele>
        <time>2026-08-09T10:38:24Z</time>
      </trkpt>
      <trkpt lat="45.04639" lon="6.06444">
        <ele>1275</ele>
        <time>2026-08-09T10:38:26Z</time>
      </trkpt>
      <trkpt lat="45.04676" lon="6.06457">
        <ele>1275.4</ele>
        <time>2026-08-09T10:38:27Z</time>
      </trkpt>
      <trkpt lat="45.04549" lon="6.06474">
        <ele>1283.2</ele>
        <time>2026-08-09T10:39:10Z</time>
      </trkpt>
      <trkpt lat="45.04549" lon="6.06474">
        <ele>1283.4</ele>
        <time>2026-08-09T10:39:11Z</time>
      </trkpt>
      <trkpt lat="45.04642" lon="6.06858">
        <ele>1283.6</ele>
        <time>2026-08-09T10:39:12Z</time>
      </trkpt>
      <trkpt lat="45.04559" lon="6.06491">
        <ele>1283.6</ele>
        <time>2026-08-09T10:39:13Z</time>
      </trkpt>
      <trkpt lat="45.04559" lon="6.06486">
        <ele>1283.8</ele>
        <time>2026-08-09T10:39:14Z</time>
      </trkpt>
      <trkpt lat="45.04548" lon="6.06486">
        <ele>1284</ele>
        <time>2026-08-09T10:39:16Z</time>
      </trkpt>
      <trkpt lat="45.04545" lon="6.06485">
        <ele>1284</ele>
        <time>2026-08-09T10:39:17Z</time>
      </trkpt>
      <trkpt lat="45.04541" lon="6.06486">
        <ele>1284.2</ele>
        <time>2026-08-09T10:39:18Z</time>
      </trkpt>
      <trkpt lat="45.04536" lon="6.0649">
        <ele>1284.6</ele>
        <time>2026-08-09T10:39:20Z</time>
      </trkpt>
      <trkpt lat="45.04532" lon="6.06493">
        <ele>1284.8</ele>
        <time>2026-08-09T10:39:22Z</time>
      </trkpt>
      <trkpt lat="45.0453" lon="6.06494">
        <ele>1284.8</ele>
        <time>2026-08-09T10:39:23Z</time>
      </trkpt>
      <trkpt lat="45.04528" lon="6.06495">
        <ele>1285</ele>
        <time>2026-08-09T10:39:24Z</time>
      </trkpt>
      <trkpt lat="45.04526" lon="6.06496">
        <ele>1285.2</ele>
        <time>2026-08-09T10:39:25Z</time>
      </trkpt>
      <trkpt lat="45.04524" lon="6.06498">
        <ele>1285.4</ele>
        <time>2026-08-09T10:39:26Z</time>
      </trkpt>
      <trkpt lat="45.04519" lon="6.065">
        <ele>1285.6</ele>
        <time>2026-08-09T10:39:28Z</time>
      </trkpt>
      <trkpt lat="45.04514" lon="6.06502">
        <ele>1285.8</ele>
        <time>2026-08-09T10:39:30Z</time>
      </trkpt>
      <trkpt lat="45.04509" lon="6.06505">
        <ele>1286</ele>
        <time>2026-08-09T10:39:32Z</time>
      </trkpt>
      <trkpt lat="45.04504" lon="6.06506">
        <ele>1286.2</ele>
        <time>2026-08-09T10:39:34Z</time>
      </trkpt>
      <trkpt lat="45.04502" lon="6.06507">
        <ele>1286.6</ele>
        <time>2026-08-09T10:39:35Z</time>
      </trkpt>
      <trkpt lat="45.045" lon="6.06508">
        <ele>1286.6</ele>
        <time>2026-08-09T10:39:36Z</time>
      </trkpt>
      <trkpt lat="45.04496" lon="6.0651">
        <ele>1287.2</ele>
        <time>2026-08-09T10:39:38Z</time>
      </trkpt>
      <trkpt lat="45.04493" lon="6.06512">
        <ele>1287.4</ele>
        <time>2026-08-09T10:39:40Z</time>
      </trkpt>
      <trkpt lat="45.0449" lon="6.06516">
        <ele>1287.8</ele>
        <time>2026-08-09T10:39:42Z</time>
      </trkpt>
      <trkpt lat="45.04487" lon="6.0652">
        <ele>1288.2</ele>
        <time>2026-08-09T10:39:44Z</time>
      </trkpt>
      <trkpt lat="45.04484" lon="6.06524">
        <ele>1288.4</ele>
        <time>2026-08-09T10:39:46Z</time>
      </trkpt>
      <trkpt lat="45.0448" lon="6.06526">
        <ele>1288.6</ele>
        <time>2026-08-09T10:39:48Z</time>
      </trkpt>
      <trkpt lat="45.04478" lon="6.06527">
        <ele>1288.6</ele>
        <time>2026-08-09T10:39:49Z</time>
      </trkpt>
      <trkpt lat="45.04476" lon="6.06528">
        <ele>1288.6</ele>
        <time>2026-08-09T10:39:50Z</time>
      </trkpt>
      <trkpt lat="45.04473" lon="6.0653">
        <ele>1289.2</ele>
        <time>2026-08-09T10:39:52Z</time>
      </trkpt>
      <trkpt lat="45.04471" lon="6.06531">
        <ele>1289.4</ele>
        <time>2026-08-09T10:39:53Z</time>
      </trkpt>
      <trkpt lat="45.04469" lon="6.06532">
        <ele>1289.6</ele>
        <time>2026-08-09T10:39:54Z</time>
      </trkpt>
      <trkpt lat="45.04465" lon="6.06534">
        <ele>1289.8</ele>
        <time>2026-08-09T10:39:56Z</time>
      </trkpt>
      <trkpt lat="45.04462" lon="6.06537">
        <ele>1290</ele>
        <time>2026-08-09T10:39:58Z</time>
      </trkpt>
      <trkpt lat="45.04459" lon="6.06541">
        <ele>1290.4</ele>
        <time>2026-08-09T10:40:00Z</time>
      </trkpt>
      <trkpt lat="45.04457" lon="6.06543">
        <ele>1290.6</ele>
        <time>2026-08-09T10:40:01Z</time>
      </trkpt>
      <trkpt lat="45.04455" lon="6.06545">
        <ele>1290.8</ele>
        <time>2026-08-09T10:40:02Z</time>
      </trkpt>
      <trkpt lat="45.04452" lon="6.06549">
        <ele>1291</ele>
        <time>2026-08-09T10:40:04Z</time>
      </trkpt>
      <trkpt lat="45.04449" lon="6.06553">
        <ele>1291.6</ele>
        <time>2026-08-09T10:40:06Z</time>
      </trkpt>
      <trkpt lat="45.04447" lon="6.06555">
        <ele>1291.6</ele>
        <time>2026-08-09T10:40:07Z</time>
      </trkpt>
      <trkpt lat="45.04446" lon="6.06558">
        <ele>1291.8</ele>
        <time>2026-08-09T10:40:08Z</time>
      </trkpt>
      <trkpt lat="45.04442" lon="6.06562">
        <ele>1292</ele>
        <time>2026-08-09T10:40:10Z</time>
      </trkpt>
      <trkpt lat="45.04439" lon="6.06567">
        <ele>1292.4</ele>
        <time>2026-08-09T10:40:12Z</time>
      </trkpt>
      <trkpt lat="45.04438" lon="6.0657">
        <ele>1292.6</ele>
        <time>2026-08-09T10:40:13Z</time>
      </trkpt>
      <trkpt lat="45.04436" lon="6.06572">
        <ele>1292.6</ele>
        <time>2026-08-09T10:40:14Z</time>
      </trkpt>
      <trkpt lat="45.04435" lon="6.06575">
        <ele>1293</ele>
        <time>2026-08-09T10:40:15Z</time>
      </trkpt>
      <trkpt lat="45.04433" lon="6.06578">
        <ele>1293.2</ele>
        <time>2026-08-09T10:40:16Z</time>
      </trkpt>
      <trkpt lat="45.04431" lon="6.06584">
        <ele>1293.4</ele>
        <time>2026-08-09T10:40:18Z</time>
      </trkpt>
      <trkpt lat="45.0443" lon="6.0659">
        <ele>1293.8</ele>
        <time>2026-08-09T10:40:20Z</time>
      </trkpt>
      <trkpt lat="45.04429" lon="6.06597">
        <ele>1294</ele>
        <time>2026-08-09T10:40:22Z</time>
      </trkpt>
      <trkpt lat="45.04428" lon="6.06603">
        <ele>1294.4</ele>
        <time>2026-08-09T10:40:24Z</time>
      </trkpt>
      <trkpt lat="45.04426" lon="6.06608">
        <ele>1294.8</ele>
        <time>2026-08-09T10:40:26Z</time>
      </trkpt>
      <trkpt lat="45.04425" lon="6.06613">
        <ele>1295</ele>
        <time>2026-08-09T10:40:28Z</time>
      </trkpt>
      <trkpt lat="45.04424" lon="6.0662">
        <ele>1295.4</ele>
        <time>2026-08-09T10:40:30Z</time>
      </trkpt>
      <trkpt lat="45.04422" lon="6.06628">
        <ele>1295.4</ele>
        <time>2026-08-09T10:40:32Z</time>
      </trkpt>
      <trkpt lat="45.0442" lon="6.06633">
        <ele>1295.8</ele>
        <time>2026-08-09T10:40:34Z</time>
      </trkpt>
      <trkpt lat="45.04419" lon="6.06637">
        <ele>1296.2</ele>
        <time>2026-08-09T10:40:36Z</time>
      </trkpt>
      <trkpt lat="45.04415" lon="6.0664">
        <ele>1296.6</ele>
        <time>2026-08-09T10:40:38Z</time>
      </trkpt>
      <trkpt lat="45.04413" lon="6.06642">
        <ele>1297</ele>
        <time>2026-08-09T10:40:40Z</time>
      </trkpt>
      <trkpt lat="45.0441" lon="6.06646">
        <ele>1297.4</ele>
        <time>2026-08-09T10:40:42Z</time>
      </trkpt>
      <trkpt lat="45.04408" lon="6.06647">
        <ele>1297.6</ele>
        <time>2026-08-09T10:40:43Z</time>
      </trkpt>
      <trkpt lat="45.04406" lon="6.06649">
        <ele>1297.8</ele>
        <time>2026-08-09T10:40:44Z</time>
      </trkpt>
      <trkpt lat="45.04402" lon="6.06651">
        <ele>1298</ele>
        <time>2026-08-09T10:40:46Z</time>
      </trkpt>
      <trkpt lat="45.04397" lon="6.06654">
        <ele>1298.2</ele>
        <time>2026-08-09T10:40:48Z</time>
      </trkpt>
      <trkpt lat="45.04393" lon="6.06657">
        <ele>1298.4</ele>
        <time>2026-08-09T10:40:50Z</time>
      </trkpt>
      <trkpt lat="45.04389" lon="6.0666">
        <ele>1298.6</ele>
        <time>2026-08-09T10:40:52Z</time>
      </trkpt>
      <trkpt lat="45.04385" lon="6.06664">
        <ele>1298.8</ele>
        <time>2026-08-09T10:40:54Z</time>
      </trkpt>
      <trkpt lat="45.0438" lon="6.06667">
        <ele>1298.8</ele>
        <time>2026-08-09T10:40:56Z</time>
      </trkpt>
      <trkpt lat="45.04376" lon="6.0667">
        <ele>1299.2</ele>
        <time>2026-08-09T10:40:58Z</time>
      </trkpt>
      <trkpt lat="45.04372" lon="6.06673">
        <ele>1299.6</ele>
        <time>2026-08-09T10:41:00Z</time>
      </trkpt>
      <trkpt lat="45.04368" lon="6.06677">
        <ele>1299.8</ele>
        <time>2026-08-09T10:41:02Z</time>
      </trkpt>
      <trkpt lat="45.04364" lon="6.0668">
        <ele>1300.2</ele>
        <time>2026-08-09T10:41:04Z</time>
      </trkpt>
      <trkpt lat="45.04361" lon="6.06684">
        <ele>1300.4</ele>
        <time>2026-08-09T10:41:06Z</time>
      </trkpt>
      <trkpt lat="45.04359" lon="6.06687">
        <ele>1300.6</ele>
        <time>2026-08-09T10:41:07Z</time>
      </trkpt>
      <trkpt lat="45.04358" lon="6.0669">
        <ele>1300.6</ele>
        <time>2026-08-09T10:41:08Z</time>
      </trkpt>
      <trkpt lat="45.04356" lon="6.06695">
        <ele>1300.8</ele>
        <time>2026-08-09T10:41:10Z</time>
      </trkpt>
      <trkpt lat="45.04353" lon="6.067">
        <ele>1301</ele>
        <time>2026-08-09T10:41:12Z</time>
      </trkpt>
      <trkpt lat="45.04351" lon="6.06705">
        <ele>1301.2</ele>
        <time>2026-08-09T10:41:14Z</time>
      </trkpt>
      <trkpt lat="45.04349" lon="6.06707">
        <ele>1301.4</ele>
        <time>2026-08-09T10:41:15Z</time>
      </trkpt>
      <trkpt lat="45.04348" lon="6.06709">
        <ele>1301.4</ele>
        <time>2026-08-09T10:41:16Z</time>
      </trkpt>
      <trkpt lat="45.04344" lon="6.06714">
        <ele>1301.6</ele>
        <time>2026-08-09T10:41:18Z</time>
      </trkpt>
      <trkpt lat="45.04339" lon="6.06719">
        <ele>1301.8</ele>
        <time>2026-08-09T10:41:20Z</time>
      </trkpt>
      <trkpt lat="45.04335" lon="6.06725">
        <ele>1302</ele>
        <time>2026-08-09T10:41:22Z</time>
      </trkpt>
      <trkpt lat="45.04333" lon="6.06728">
        <ele>1302</ele>
        <time>2026-08-09T10:41:23Z</time>
      </trkpt>
      <trkpt lat="45.04331" lon="6.06731">
        <ele>1302</ele>
        <time>2026-08-09T10:41:24Z</time>
      </trkpt>
      <trkpt lat="45.04327" lon="6.06737">
        <ele>1302.2</ele>
        <time>2026-08-09T10:41:26Z</time>
      </trkpt>
      <trkpt lat="45.04323" lon="6.06744">
        <ele>1302.4</ele>
        <time>2026-08-09T10:41:28Z</time>
      </trkpt>
      <trkpt lat="45.04319" lon="6.0675">
        <ele>1302.4</ele>
        <time>2026-08-09T10:41:30Z</time>
      </trkpt>
      <trkpt lat="45.04317" lon="6.06753">
        <ele>1302.6</ele>
        <time>2026-08-09T10:41:31Z</time>
      </trkpt>
      <trkpt lat="45.04314" lon="6.06757">
        <ele>1302.6</ele>
        <time>2026-08-09T10:41:32Z</time>
      </trkpt>
      <trkpt lat="45.04312" lon="6.0676">
        <ele>1303</ele>
        <time>2026-08-09T10:41:33Z</time>
      </trkpt>
      <trkpt lat="45.0431" lon="6.06763">
        <ele>1303.2</ele>
        <time>2026-08-09T10:41:34Z</time>
      </trkpt>
      <trkpt lat="45.04306" lon="6.0677">
        <ele>1303.6</ele>
        <time>2026-08-09T10:41:36Z</time>
      </trkpt>
      <trkpt lat="45.04302" lon="6.06776">
        <ele>1303.8</ele>
        <time>2026-08-09T10:41:38Z</time>
      </trkpt>
      <trkpt lat="45.04297" lon="6.06782">
        <ele>1304</ele>
        <time>2026-08-09T10:41:40Z</time>
      </trkpt>
      <trkpt lat="45.04293" lon="6.06788">
        <ele>1304</ele>
        <time>2026-08-09T10:41:42Z</time>
      </trkpt>
      <trkpt lat="45.04288" lon="6.06794">
        <ele>1304.4</ele>
        <time>2026-08-09T10:41:44Z</time>
      </trkpt>
      <trkpt lat="45.04284" lon="6.06798">
        <ele>1304.4</ele>
        <time>2026-08-09T10:41:46Z</time>
      </trkpt>
      <trkpt lat="45.04279" lon="6.06803">
        <ele>1304.6</ele>
        <time>2026-08-09T10:41:48Z</time>
      </trkpt>
      <trkpt lat="45.04275" lon="6.06808">
        <ele>1304.8</ele>
        <time>2026-08-09T10:41:50Z</time>
      </trkpt>
      <trkpt lat="45.0427" lon="6.06813">
        <ele>1305</ele>
        <time>2026-08-09T10:41:52Z</time>
      </trkpt>
      <trkpt lat="45.04266" lon="6.06819">
        <ele>1305.2</ele>
        <time>2026-08-09T10:41:54Z</time>
      </trkpt>
      <trkpt lat="45.04264" lon="6.06823">
        <ele>1305.2</ele>
        <time>2026-08-09T10:41:55Z</time>
      </trkpt>
      <trkpt lat="45.04263" lon="6.06826">
        <ele>1305.4</ele>
        <time>2026-08-09T10:41:56Z</time>
      </trkpt>
      <trkpt lat="45.0426" lon="6.06835">
        <ele>1305.4</ele>
        <time>2026-08-09T10:41:58Z</time>
      </trkpt>
      <trkpt lat="45.04259" lon="6.06839">
        <ele>1305.4</ele>
        <time>2026-08-09T10:41:59Z</time>
      </trkpt>
      <trkpt lat="45.04257" lon="6.06843">
        <ele>1305.6</ele>
        <time>2026-08-09T10:42:00Z</time>
      </trkpt>
      <trkpt lat="45.04253" lon="6.06849">
        <ele>1305.8</ele>
        <time>2026-08-09T10:42:02Z</time>
      </trkpt>
      <trkpt lat="45.0425" lon="6.06851">
        <ele>1306</ele>
        <time>2026-08-09T10:42:03Z</time>
      </trkpt>
      <trkpt lat="45.04247" lon="6.06853">
        <ele>1306</ele>
        <time>2026-08-09T10:42:04Z</time>
      </trkpt>
      <trkpt lat="45.04243" lon="6.06853">
        <ele>1306</ele>
        <time>2026-08-09T10:42:05Z</time>
      </trkpt>
      <trkpt lat="45.0424" lon="6.06854">
        <ele>1306.2</ele>
        <time>2026-08-09T10:42:06Z</time>
      </trkpt>
      <trkpt lat="45.04234" lon="6.06855">
        <ele>1306.2</ele>
        <time>2026-08-09T10:42:08Z</time>
      </trkpt>
      <trkpt lat="45.04232" lon="6.06856">
        <ele>1306.2</ele>
        <time>2026-08-09T10:42:09Z</time>
      </trkpt>
      <trkpt lat="45.0423" lon="6.06857">
        <ele>1306.2</ele>
        <time>2026-08-09T10:42:10Z</time>
      </trkpt>
      <trkpt lat="45.04225" lon="6.06859">
        <ele>1306.4</ele>
        <time>2026-08-09T10:42:12Z</time>
      </trkpt>
      <trkpt lat="45.0422" lon="6.06863">
        <ele>1306.4</ele>
        <time>2026-08-09T10:42:14Z</time>
      </trkpt>
      <trkpt lat="45.04218" lon="6.06864">
        <ele>1306.6</ele>
        <time>2026-08-09T10:42:15Z</time>
      </trkpt>
      <trkpt lat="45.04215" lon="6.06866">
        <ele>1307</ele>
        <time>2026-08-09T10:42:16Z</time>
      </trkpt>
      <trkpt lat="45.04212" lon="6.06868">
        <ele>1307.2</ele>
        <time>2026-08-09T10:42:17Z</time>
      </trkpt>
      <trkpt lat="45.0421" lon="6.06869">
        <ele>1307.4</ele>
        <time>2026-08-09T10:42:18Z</time>
      </trkpt>
      <trkpt lat="45.04203" lon="6.06872">
        <ele>1307.8</ele>
        <time>2026-08-09T10:42:20Z</time>
      </trkpt>
      <trkpt lat="45.042" lon="6.06873">
        <ele>1307.8</ele>
        <time>2026-08-09T10:42:21Z</time>
      </trkpt>
      <trkpt lat="45.04197" lon="6.06875">
        <ele>1307.8</ele>
        <time>2026-08-09T10:42:22Z</time>
      </trkpt>
      <trkpt lat="45.04193" lon="6.06879">
        <ele>1308</ele>
        <time>2026-08-09T10:42:24Z</time>
      </trkpt>
      <trkpt lat="45.04189" lon="6.06885">
        <ele>1308</ele>
        <time>2026-08-09T10:42:26Z</time>
      </trkpt>
      <trkpt lat="45.04187" lon="6.06887">
        <ele>1308.2</ele>
        <time>2026-08-09T10:42:27Z</time>
      </trkpt>
      <trkpt lat="45.04185" lon="6.0689">
        <ele>1308.2</ele>
        <time>2026-08-09T10:42:28Z</time>
      </trkpt>
      <trkpt lat="45.04181" lon="6.06894">
        <ele>1308.6</ele>
        <time>2026-08-09T10:42:30Z</time>
      </trkpt>
      <trkpt lat="45.04177" lon="6.06899">
        <ele>1309</ele>
        <time>2026-08-09T10:42:32Z</time>
      </trkpt>
      <trkpt lat="45.04173" lon="6.06903">
        <ele>1309.2</ele>
        <time>2026-08-09T10:42:34Z</time>
      </trkpt>
      <trkpt lat="45.04171" lon="6.06905">
        <ele>1309.4</ele>
        <time>2026-08-09T10:42:35Z</time>
      </trkpt>
      <trkpt lat="45.04169" lon="6.06907">
        <ele>1309.8</ele>
        <time>2026-08-09T10:42:36Z</time>
      </trkpt>
      <trkpt lat="45.04166" lon="6.06911">
        <ele>1310.2</ele>
        <time>2026-08-09T10:42:38Z</time>
      </trkpt>
      <trkpt lat="45.04163" lon="6.06915">
        <ele>1310.4</ele>
        <time>2026-08-09T10:42:40Z</time>
      </trkpt>
      <trkpt lat="45.0416" lon="6.06918">
        <ele>1310.6</ele>
        <time>2026-08-09T10:42:41Z</time>
      </trkpt>
      <trkpt lat="45.04158" lon="6.06921">
        <ele>1310.8</ele>
        <time>2026-08-09T10:42:42Z</time>
      </trkpt>
      <trkpt lat="45.04153" lon="6.06927">
        <ele>1311</ele>
        <time>2026-08-09T10:42:44Z</time>
      </trkpt>
      <trkpt lat="45.0415" lon="6.06934">
        <ele>1311.6</ele>
        <time>2026-08-09T10:42:46Z</time>
      </trkpt>
      <trkpt lat="45.0415" lon="6.06941">
        <ele>1311.8</ele>
        <time>2026-08-09T10:42:48Z</time>
      </trkpt>
      <trkpt lat="45.04147" lon="6.06948">
        <ele>1312.2</ele>
        <time>2026-08-09T10:42:50Z</time>
      </trkpt>
      <trkpt lat="45.04145" lon="6.06957">
        <ele>1312.6</ele>
        <time>2026-08-09T10:42:52Z</time>
      </trkpt>
      <trkpt lat="45.04141" lon="6.06965">
        <ele>1313</ele>
        <time>2026-08-09T10:42:54Z</time>
      </trkpt>
      <trkpt lat="45.04137" lon="6.06971">
        <ele>1313.2</ele>
        <time>2026-08-09T10:42:56Z</time>
      </trkpt>
      <trkpt lat="45.04131" lon="6.06976">
        <ele>1313.2</ele>
        <time>2026-08-09T10:42:58Z</time>
      </trkpt>
      <trkpt lat="45.04123" lon="6.06977">
        <ele>1313.6</ele>
        <time>2026-08-09T10:43:00Z</time>
      </trkpt>
      <trkpt lat="45.04115" lon="6.06976">
        <ele>1313.6</ele>
        <time>2026-08-09T10:43:02Z</time>
      </trkpt>
      <trkpt lat="45.04107" lon="6.06974">
        <ele>1313.8</ele>
        <time>2026-08-09T10:43:04Z</time>
      </trkpt>
      <trkpt lat="45.04104" lon="6.06973">
        <ele>1313.6</ele>
        <time>2026-08-09T10:43:05Z</time>
      </trkpt>
      <trkpt lat="45.041" lon="6.06972">
        <ele>1313.8</ele>
        <time>2026-08-09T10:43:06Z</time>
      </trkpt>
      <trkpt lat="45.04093" lon="6.0697">
        <ele>1314</ele>
        <time>2026-08-09T10:43:08Z</time>
      </trkpt>
      <trkpt lat="45.04085" lon="6.0697">
        <ele>1314.4</ele>
        <time>2026-08-09T10:43:10Z</time>
      </trkpt>
      <trkpt lat="45.04082" lon="6.0697">
        <ele>1314.6</ele>
        <time>2026-08-09T10:43:11Z</time>
      </trkpt>
      <trkpt lat="45.04079" lon="6.06969">
        <ele>1314.6</ele>
        <time>2026-08-09T10:43:12Z</time>
      </trkpt>
      <trkpt lat="45.04073" lon="6.0697">
        <ele>1315</ele>
        <time>2026-08-09T10:43:14Z</time>
      </trkpt>
      <trkpt lat="45.04066" lon="6.06973">
        <ele>1315.4</ele>
        <time>2026-08-09T10:43:16Z</time>
      </trkpt>
      <trkpt lat="45.04062" lon="6.06976">
        <ele>1315.4</ele>
        <time>2026-08-09T10:43:17Z</time>
      </trkpt>
      <trkpt lat="45.04059" lon="6.06978">
        <ele>1315.6</ele>
        <time>2026-08-09T10:43:18Z</time>
      </trkpt>
      <trkpt lat="45.04053" lon="6.06983">
        <ele>1316</ele>
        <time>2026-08-09T10:43:20Z</time>
      </trkpt>
      <trkpt lat="45.04049" lon="6.06988">
        <ele>1316.2</ele>
        <time>2026-08-09T10:43:22Z</time>
      </trkpt>
      <trkpt lat="45.04046" lon="6.06993">
        <ele>1316.4</ele>
        <time>2026-08-09T10:43:24Z</time>
      </trkpt>
      <trkpt lat="45.04044" lon="6.06994">
        <ele>1316.6</ele>
        <time>2026-08-09T10:43:25Z</time>
      </trkpt>
      <trkpt lat="45.04042" lon="6.06996">
        <ele>1316.6</ele>
        <time>2026-08-09T10:43:26Z</time>
      </trkpt>
      <trkpt lat="45.04038" lon="6.06998">
        <ele>1317.2</ele>
        <time>2026-08-09T10:43:28Z</time>
      </trkpt>
      <trkpt lat="45.04036" lon="6.06998">
        <ele>1317.2</ele>
        <time>2026-08-09T10:43:29Z</time>
      </trkpt>
      <trkpt lat="45.04034" lon="6.06999">
        <ele>1317.4</ele>
        <time>2026-08-09T10:43:30Z</time>
      </trkpt>
      <trkpt lat="45.04027" lon="6.07">
        <ele>1317.4</ele>
        <time>2026-08-09T10:43:32Z</time>
      </trkpt>
      <trkpt lat="45.0402" lon="6.07001">
        <ele>1317.6</ele>
        <time>2026-08-09T10:43:34Z</time>
      </trkpt>
      <trkpt lat="45.04013" lon="6.07002">
        <ele>1317.6</ele>
        <time>2026-08-09T10:43:36Z</time>
      </trkpt>
      <trkpt lat="45.04006" lon="6.07002">
        <ele>1317.8</ele>
        <time>2026-08-09T10:43:38Z</time>
      </trkpt>
      <trkpt lat="45.03999" lon="6.07004">
        <ele>1317.8</ele>
        <time>2026-08-09T10:43:40Z</time>
      </trkpt>
      <trkpt lat="45.03992" lon="6.07006">
        <ele>1318</ele>
        <time>2026-08-09T10:43:42Z</time>
      </trkpt>
      <trkpt lat="45.03985" lon="6.07009">
        <ele>1318.2</ele>
        <time>2026-08-09T10:43:44Z</time>
      </trkpt>
      <trkpt lat="45.03977" lon="6.07011">
        <ele>1318.4</ele>
        <time>2026-08-09T10:43:46Z</time>
      </trkpt>
      <trkpt lat="45.03969" lon="6.07014">
        <ele>1318.4</ele>
        <time>2026-08-09T10:43:48Z</time>
      </trkpt>
      <trkpt lat="45.03962" lon="6.07016">
        <ele>1318.6</ele>
        <time>2026-08-09T10:43:50Z</time>
      </trkpt>
      <trkpt lat="45.03954" lon="6.07018">
        <ele>1318.8</ele>
        <time>2026-08-09T10:43:52Z</time>
      </trkpt>
      <trkpt lat="45.03948" lon="6.07021">
        <ele>1318.8</ele>
        <time>2026-08-09T10:43:54Z</time>
      </trkpt>
      <trkpt lat="45.03942" lon="6.07026">
        <ele>1319.2</ele>
        <time>2026-08-09T10:43:56Z</time>
      </trkpt>
      <trkpt lat="45.03936" lon="6.07032">
        <ele>1319.6</ele>
        <time>2026-08-09T10:43:58Z</time>
      </trkpt>
      <trkpt lat="45.03933" lon="6.07035">
        <ele>1319.6</ele>
        <time>2026-08-09T10:43:59Z</time>
      </trkpt>
      <trkpt lat="45.0393" lon="6.07038">
        <ele>1319.8</ele>
        <time>2026-08-09T10:44:00Z</time>
      </trkpt>
      <trkpt lat="45.03923" lon="6.07043">
        <ele>1320.2</ele>
        <time>2026-08-09T10:44:02Z</time>
      </trkpt>
      <trkpt lat="45.03917" lon="6.07046">
        <ele>1320.4</ele>
        <time>2026-08-09T10:44:04Z</time>
      </trkpt>
      <trkpt lat="45.03914" lon="6.07048">
        <ele>1320.4</ele>
        <time>2026-08-09T10:44:05Z</time>
      </trkpt>
      <trkpt lat="45.03911" lon="6.0705">
        <ele>1320.6</ele>
        <time>2026-08-09T10:44:06Z</time>
      </trkpt>
      <trkpt lat="45.03908" lon="6.07052">
        <ele>1320.6</ele>
        <time>2026-08-09T10:44:07Z</time>
      </trkpt>
      <trkpt lat="45.03906" lon="6.07054">
        <ele>1320.8</ele>
        <time>2026-08-09T10:44:08Z</time>
      </trkpt>
      <trkpt lat="45.03899" lon="6.07059">
        <ele>1321</ele>
        <time>2026-08-09T10:44:10Z</time>
      </trkpt>
      <trkpt lat="45.03893" lon="6.07063">
        <ele>1321.2</ele>
        <time>2026-08-09T10:44:12Z</time>
      </trkpt>
      <trkpt lat="45.03886" lon="6.07064">
        <ele>1321.6</ele>
        <time>2026-08-09T10:44:14Z</time>
      </trkpt>
      <trkpt lat="45.03883" lon="6.07064">
        <ele>1322</ele>
        <time>2026-08-09T10:44:15Z</time>
      </trkpt>
      <trkpt lat="45.0388" lon="6.07064">
        <ele>1322</ele>
        <time>2026-08-09T10:44:16Z</time>
      </trkpt>
      <trkpt lat="45.03874" lon="6.07063">
        <ele>1322.2</ele>
        <time>2026-08-09T10:44:18Z</time>
      </trkpt>
      <trkpt lat="45.03869" lon="6.07063">
        <ele>1322.4</ele>
        <time>2026-08-09T10:44:20Z</time>
      </trkpt>
      <trkpt lat="45.03864" lon="6.07064">
        <ele>1322.6</ele>
        <time>2026-08-09T10:44:22Z</time>
      </trkpt>
      <trkpt lat="45.03862" lon="6.07064">
        <ele>1322.8</ele>
        <time>2026-08-09T10:44:23Z</time>
      </trkpt>
      <trkpt lat="45.03859" lon="6.07064">
        <ele>1323.2</ele>
        <time>2026-08-09T10:44:24Z</time>
      </trkpt>
      <trkpt lat="45.03854" lon="6.07066">
        <ele>1323.8</ele>
        <time>2026-08-09T10:44:26Z</time>
      </trkpt>
      <trkpt lat="45.03851" lon="6.07068">
        <ele>1324</ele>
        <time>2026-08-09T10:44:28Z</time>
      </trkpt>
      <trkpt lat="45.0385" lon="6.07069">
        <ele>1324</ele>
        <time>2026-08-09T10:44:29Z</time>
      </trkpt>
      <trkpt lat="45.0385" lon="6.07068">
        <ele>1324</ele>
        <time>2026-08-09T10:44:30Z</time>
      </trkpt>
      <trkpt lat="45.03849" lon="6.07068">
        <ele>1324</ele>
        <time>2026-08-09T10:44:32Z</time>
      </trkpt>
      <trkpt lat="45.03849" lon="6.07068">
        <ele>1324.2</ele>
        <time>2026-08-09T10:44:34Z</time>
      </trkpt>
      <trkpt lat="45.03849" lon="6.07068">
        <ele>1324.2</ele>
        <time>2026-08-09T10:44:36Z</time>
      </trkpt>
      <trkpt lat="45.03849" lon="6.07068">
        <ele>1324.2</ele>
        <time>2026-08-09T10:44:38Z</time>
      </trkpt>
      <trkpt lat="45.03849" lon="6.07068">
        <ele>1324.2</ele>
        <time>2026-08-09T10:44:40Z</time>
      </trkpt>
      <trkpt lat="45.03848" lon="6.0707">
        <ele>1324.2</ele>
        <time>2026-08-09T10:44:42Z</time>
      </trkpt>
      <trkpt lat="45.03846" lon="6.07074">
        <ele>1324.2</ele>
        <time>2026-08-09T10:44:44Z</time>
      </trkpt>
      <trkpt lat="45.03843" lon="6.07081">
        <ele>1324.2</ele>
        <time>2026-08-09T10:44:46Z</time>
      </trkpt>
      <trkpt lat="45.03842" lon="6.07085">
        <ele>1324.2</ele>
        <time>2026-08-09T10:44:47Z</time>
      </trkpt>
      <trkpt lat="45.0384" lon="6.0709">
        <ele>1324.2</ele>
        <time>2026-08-09T10:44:48Z</time>
      </trkpt>
      <trkpt lat="45.03838" lon="6.071">
        <ele>1324</ele>
        <time>2026-08-09T10:44:50Z</time>
      </trkpt>
      <trkpt lat="45.03836" lon="6.07111">
        <ele>1323.8</ele>
        <time>2026-08-09T10:44:52Z</time>
      </trkpt>
      <trkpt lat="45.03834" lon="6.07117">
        <ele>1323.8</ele>
        <time>2026-08-09T10:44:53Z</time>
      </trkpt>
      <trkpt lat="45.03832" lon="6.07124">
        <ele>1323.4</ele>
        <time>2026-08-09T10:44:54Z</time>
      </trkpt>
      <trkpt lat="45.03828" lon="6.07137">
        <ele>1323.2</ele>
        <time>2026-08-09T10:44:56Z</time>
      </trkpt>
      <trkpt lat="45.03822" lon="6.0715">
        <ele>1323</ele>
        <time>2026-08-09T10:44:58Z</time>
      </trkpt>
      <trkpt lat="45.03818" lon="6.07157">
        <ele>1322.8</ele>
        <time>2026-08-09T10:44:59Z</time>
      </trkpt>
      <trkpt lat="45.03814" lon="6.07164">
        <ele>1322.4</ele>
        <time>2026-08-09T10:45:00Z</time>
      </trkpt>
      <trkpt lat="45.0381" lon="6.07172">
        <ele>1322</ele>
        <time>2026-08-09T10:45:01Z</time>
      </trkpt>
      <trkpt lat="45.03806" lon="6.0718">
        <ele>1321.6</ele>
        <time>2026-08-09T10:45:02Z</time>
      </trkpt>
      <trkpt lat="45.03796" lon="6.07194">
        <ele>1321.2</ele>
        <time>2026-08-09T10:45:03Z</time>
      </trkpt>
      <trkpt lat="45.03791" lon="6.07201">
        <ele>1320.8</ele>
        <time>2026-08-09T10:45:04Z</time>
      </trkpt>
      <trkpt lat="45.03786" lon="6.07209">
        <ele>1320.4</ele>
        <time>2026-08-09T10:45:05Z</time>
      </trkpt>
      <trkpt lat="45.03786" lon="6.07209">
        <ele>1320</ele>
        <time>2026-08-09T10:45:06Z</time>
      </trkpt>
      <trkpt lat="45.03779" lon="6.07227">
        <ele>1319.8</ele>
        <time>2026-08-09T10:45:07Z</time>
      </trkpt>
      <trkpt lat="45.03779" lon="6.07227">
        <ele>1319.6</ele>
        <time>2026-08-09T10:45:08Z</time>
      </trkpt>
      <trkpt lat="45.03774" lon="6.07236">
        <ele>1319.2</ele>
        <time>2026-08-09T10:45:09Z</time>
      </trkpt>
      <trkpt lat="45.03764" lon="6.07252">
        <ele>1318.6</ele>
        <time>2026-08-09T10:45:10Z</time>
      </trkpt>
      <trkpt lat="45.03758" lon="6.07258">
        <ele>1318.4</ele>
        <time>2026-08-09T10:45:11Z</time>
      </trkpt>
      <trkpt lat="45.03758" lon="6.07258">
        <ele>1318.2</ele>
        <time>2026-08-09T10:45:12Z</time>
      </trkpt>
      <trkpt lat="45.03747" lon="6.0727">
        <ele>1318</ele>
        <time>2026-08-09T10:45:14Z</time>
      </trkpt>
      <trkpt lat="45.03743" lon="6.07277">
        <ele>1318</ele>
        <time>2026-08-09T10:45:15Z</time>
      </trkpt>
      <trkpt lat="45.0374" lon="6.07283">
        <ele>1317.8</ele>
        <time>2026-08-09T10:45:16Z</time>
      </trkpt>
      <trkpt lat="45.0374" lon="6.07297">
        <ele>1317.4</ele>
        <time>2026-08-09T10:45:18Z</time>
      </trkpt>
      <trkpt lat="45.03743" lon="6.07304">
        <ele>1316.6</ele>
        <time>2026-08-09T10:45:19Z</time>
      </trkpt>
      <trkpt lat="45.03747" lon="6.0731">
        <ele>1316.2</ele>
        <time>2026-08-09T10:45:20Z</time>
      </trkpt>
      <trkpt lat="45.03751" lon="6.07316">
        <ele>1315.8</ele>
        <time>2026-08-09T10:45:21Z</time>
      </trkpt>
      <trkpt lat="45.03755" lon="6.07322">
        <ele>1315.4</ele>
        <time>2026-08-09T10:45:22Z</time>
      </trkpt>
      <trkpt lat="45.0376" lon="6.07328">
        <ele>1315.2</ele>
        <time>2026-08-09T10:45:23Z</time>
      </trkpt>
      <trkpt lat="45.03764" lon="6.07333">
        <ele>1314.8</ele>
        <time>2026-08-09T10:45:24Z</time>
      </trkpt>
      <trkpt lat="45.03767" lon="6.07337">
        <ele>1314.6</ele>
        <time>2026-08-09T10:45:25Z</time>
      </trkpt>
      <trkpt lat="45.0377" lon="6.07342">
        <ele>1314.6</ele>
        <time>2026-08-09T10:45:26Z</time>
      </trkpt>
      <trkpt lat="45.03774" lon="6.07351">
        <ele>1314.4</ele>
        <time>2026-08-09T10:45:28Z</time>
      </trkpt>
      <trkpt lat="45.03776" lon="6.07355">
        <ele>1314.2</ele>
        <time>2026-08-09T10:45:29Z</time>
      </trkpt>
      <trkpt lat="45.03777" lon="6.0736">
        <ele>1314</ele>
        <time>2026-08-09T10:45:30Z</time>
      </trkpt>
      <trkpt lat="45.03779" lon="6.07369">
        <ele>1313.6</ele>
        <time>2026-08-09T10:45:32Z</time>
      </trkpt>
      <trkpt lat="45.0378" lon="6.07375">
        <ele>1313.4</ele>
        <time>2026-08-09T10:45:33Z</time>
      </trkpt>
      <trkpt lat="45.03779" lon="6.07382">
        <ele>1313.4</ele>
        <time>2026-08-09T10:45:34Z</time>
      </trkpt>
      <trkpt lat="45.03779" lon="6.07389">
        <ele>1313.2</ele>
        <time>2026-08-09T10:45:35Z</time>
      </trkpt>
      <trkpt lat="45.0378" lon="6.07398">
        <ele>1313.2</ele>
        <time>2026-08-09T10:45:36Z</time>
      </trkpt>
      <trkpt lat="45.03786" lon="6.07416">
        <ele>1312.8</ele>
        <time>2026-08-09T10:45:38Z</time>
      </trkpt>
      <trkpt lat="45.03791" lon="6.07426">
        <ele>1312.4</ele>
        <time>2026-08-09T10:45:39Z</time>
      </trkpt>
      <trkpt lat="45.03797" lon="6.07433">
        <ele>1312</ele>
        <time>2026-08-09T10:45:40Z</time>
      </trkpt>
      <trkpt lat="45.0381" lon="6.07446">
        <ele>1311</ele>
        <time>2026-08-09T10:45:42Z</time>
      </trkpt>
      <trkpt lat="45.03821" lon="6.07457">
        <ele>1309.6</ele>
        <time>2026-08-09T10:45:44Z</time>
      </trkpt>
      <trkpt lat="45.03829" lon="6.07467">
        <ele>1308.2</ele>
        <time>2026-08-09T10:45:46Z</time>
      </trkpt>
      <trkpt lat="45.03831" lon="6.07471">
        <ele>1307.2</ele>
        <time>2026-08-09T10:45:47Z</time>
      </trkpt>
      <trkpt lat="45.03834" lon="6.07476">
        <ele>1306.4</ele>
        <time>2026-08-09T10:45:48Z</time>
      </trkpt>
      <trkpt lat="45.03839" lon="6.07486">
        <ele>1305</ele>
        <time>2026-08-09T10:45:50Z</time>
      </trkpt>
      <trkpt lat="45.03845" lon="6.075">
        <ele>1304</ele>
        <time>2026-08-09T10:45:52Z</time>
      </trkpt>
      <trkpt lat="45.03853" lon="6.07518">
        <ele>1303.8</ele>
        <time>2026-08-09T10:45:54Z</time>
      </trkpt>
      <trkpt lat="45.03857" lon="6.07528">
        <ele>1303.8</ele>
        <time>2026-08-09T10:45:55Z</time>
      </trkpt>
      <trkpt lat="45.0386" lon="6.07538">
        <ele>1303.2</ele>
        <time>2026-08-09T10:45:56Z</time>
      </trkpt>
      <trkpt lat="45.03864" lon="6.07548">
        <ele>1302.4</ele>
        <time>2026-08-09T10:45:57Z</time>
      </trkpt>
      <trkpt lat="45.03868" lon="6.07558">
        <ele>1302</ele>
        <time>2026-08-09T10:45:58Z</time>
      </trkpt>
      <trkpt lat="45.03876" lon="6.07578">
        <ele>1301.2</ele>
        <time>2026-08-09T10:46:00Z</time>
      </trkpt>
      <trkpt lat="45.03879" lon="6.07588">
        <ele>1300</ele>
        <time>2026-08-09T10:46:01Z</time>
      </trkpt>
      <trkpt lat="45.03883" lon="6.07597">
        <ele>1298.8</ele>
        <time>2026-08-09T10:46:02Z</time>
      </trkpt>
      <trkpt lat="45.03889" lon="6.07617">
        <ele>1297.2</ele>
        <time>2026-08-09T10:46:04Z</time>
      </trkpt>
      <trkpt lat="45.03895" lon="6.07637">
        <ele>1295.6</ele>
        <time>2026-08-09T10:46:06Z</time>
      </trkpt>
      <trkpt lat="45.039" lon="6.07645">
        <ele>1294.8</ele>
        <time>2026-08-09T10:46:07Z</time>
      </trkpt>
      <trkpt lat="45.03907" lon="6.07652">
        <ele>1294</ele>
        <time>2026-08-09T10:46:08Z</time>
      </trkpt>
      <trkpt lat="45.03923" lon="6.0766">
        <ele>1292.6</ele>
        <time>2026-08-09T10:46:10Z</time>
      </trkpt>
      <trkpt lat="45.03931" lon="6.07663">
        <ele>1291.4</ele>
        <time>2026-08-09T10:46:11Z</time>
      </trkpt>
      <trkpt lat="45.03939" lon="6.07668">
        <ele>1290.8</ele>
        <time>2026-08-09T10:46:12Z</time>
      </trkpt>
      <trkpt lat="45.03945" lon="6.07675">
        <ele>1290.2</ele>
        <time>2026-08-09T10:46:13Z</time>
      </trkpt>
      <trkpt lat="45.03949" lon="6.07691">
        <ele>1289.8</ele>
        <time>2026-08-09T10:46:14Z</time>
      </trkpt>
      <trkpt lat="45.03947" lon="6.07699">
        <ele>1289.2</ele>
        <time>2026-08-09T10:46:15Z</time>
      </trkpt>
      <trkpt lat="45.03944" lon="6.07706">
        <ele>1288.8</ele>
        <time>2026-08-09T10:46:16Z</time>
      </trkpt>
      <trkpt lat="45.03939" lon="6.07713">
        <ele>1287.4</ele>
        <time>2026-08-09T10:46:18Z</time>
      </trkpt>
      <trkpt lat="45.03934" lon="6.07719">
        <ele>1287</ele>
        <time>2026-08-09T10:46:19Z</time>
      </trkpt>
      <trkpt lat="45.03928" lon="6.07724">
        <ele>1286.2</ele>
        <time>2026-08-09T10:46:20Z</time>
      </trkpt>
      <trkpt lat="45.03916" lon="6.07733">
        <ele>1285.8</ele>
        <time>2026-08-09T10:46:21Z</time>
      </trkpt>
      <trkpt lat="45.0391" lon="6.07737">
        <ele>1285.8</ele>
        <time>2026-08-09T10:46:22Z</time>
      </trkpt>
      <trkpt lat="45.03904" lon="6.07742">
        <ele>1285.4</ele>
        <time>2026-08-09T10:46:23Z</time>
      </trkpt>
      <trkpt lat="45.03904" lon="6.07742">
        <ele>1285</ele>
        <time>2026-08-09T10:46:24Z</time>
      </trkpt>
      <trkpt lat="45.03893" lon="6.07753">
        <ele>1283.2</ele>
        <time>2026-08-09T10:46:26Z</time>
      </trkpt>
      <trkpt lat="45.03882" lon="6.07771">
        <ele>1281.4</ele>
        <time>2026-08-09T10:46:28Z</time>
      </trkpt>
      <trkpt lat="45.03878" lon="6.07783">
        <ele>1280.4</ele>
        <time>2026-08-09T10:46:29Z</time>
      </trkpt>
      <trkpt lat="45.03875" lon="6.07795">
        <ele>1280</ele>
        <time>2026-08-09T10:46:30Z</time>
      </trkpt>
      <trkpt lat="45.03868" lon="6.0782">
        <ele>1279.4</ele>
        <time>2026-08-09T10:46:32Z</time>
      </trkpt>
      <trkpt lat="45.03863" lon="6.07831">
        <ele>1279</ele>
        <time>2026-08-09T10:46:33Z</time>
      </trkpt>
      <trkpt lat="45.03856" lon="6.0784">
        <ele>1278.4</ele>
        <time>2026-08-09T10:46:34Z</time>
      </trkpt>
      <trkpt lat="45.03846" lon="6.07849">
        <ele>1277.6</ele>
        <time>2026-08-09T10:46:35Z</time>
      </trkpt>
      <trkpt lat="45.03838" lon="6.07856">
        <ele>1276.6</ele>
        <time>2026-08-09T10:46:36Z</time>
      </trkpt>
      <trkpt lat="45.03831" lon="6.07862">
        <ele>1275.6</ele>
        <time>2026-08-09T10:46:37Z</time>
      </trkpt>
      <trkpt lat="45.03825" lon="6.07868">
        <ele>1274.8</ele>
        <time>2026-08-09T10:46:38Z</time>
      </trkpt>
      <trkpt lat="45.03821" lon="6.07876">
        <ele>1273.6</ele>
        <time>2026-08-09T10:46:39Z</time>
      </trkpt>
      <trkpt lat="45.03817" lon="6.07887">
        <ele>1272</ele>
        <time>2026-08-09T10:46:40Z</time>
      </trkpt>
      <trkpt lat="45.03813" lon="6.07911">
        <ele>1270.2</ele>
        <time>2026-08-09T10:46:42Z</time>
      </trkpt>
      <trkpt lat="45.03811" lon="6.07923">
        <ele>1268.6</ele>
        <time>2026-08-09T10:46:43Z</time>
      </trkpt>
      <trkpt lat="45.03808" lon="6.07936">
        <ele>1267.8</ele>
        <time>2026-08-09T10:46:44Z</time>
      </trkpt>
      <trkpt lat="45.03804" lon="6.07949">
        <ele>1267.4</ele>
        <time>2026-08-09T10:46:45Z</time>
      </trkpt>
      <trkpt lat="45.038" lon="6.07963">
        <ele>1267</ele>
        <time>2026-08-09T10:46:46Z</time>
      </trkpt>
      <trkpt lat="45.03795" lon="6.07976">
        <ele>1266.8</ele>
        <time>2026-08-09T10:46:47Z</time>
      </trkpt>
      <trkpt lat="45.03785" lon="6.07999">
        <ele>1266.4</ele>
        <time>2026-08-09T10:46:48Z</time>
      </trkpt>
      <trkpt lat="45.0378" lon="6.0801">
        <ele>1265.8</ele>
        <time>2026-08-09T10:46:49Z</time>
      </trkpt>
      <trkpt lat="45.0378" lon="6.0801">
        <ele>1265</ele>
        <time>2026-08-09T10:46:50Z</time>
      </trkpt>
      <trkpt lat="45.03775" lon="6.08022">
        <ele>1264</ele>
        <time>2026-08-09T10:46:51Z</time>
      </trkpt>
      <trkpt lat="45.03767" lon="6.08044">
        <ele>1263</ele>
        <time>2026-08-09T10:46:52Z</time>
      </trkpt>
      <trkpt lat="45.03767" lon="6.08044">
        <ele>1262</ele>
        <time>2026-08-09T10:46:53Z</time>
      </trkpt>
      <trkpt lat="45.03761" lon="6.08063">
        <ele>1261.4</ele>
        <time>2026-08-09T10:46:54Z</time>
      </trkpt>
      <trkpt lat="45.03761" lon="6.08063">
        <ele>1260.6</ele>
        <time>2026-08-09T10:46:55Z</time>
      </trkpt>
      <trkpt lat="45.03755" lon="6.08085">
        <ele>1259.8</ele>
        <time>2026-08-09T10:46:56Z</time>
      </trkpt>
      <trkpt lat="45.03753" lon="6.08096">
        <ele>1259.4</ele>
        <time>2026-08-09T10:46:57Z</time>
      </trkpt>
      <trkpt lat="45.03751" lon="6.08107">
        <ele>1258.8</ele>
        <time>2026-08-09T10:46:58Z</time>
      </trkpt>
      <trkpt lat="45.03751" lon="6.08107">
        <ele>1258.4</ele>
        <time>2026-08-09T10:46:59Z</time>
      </trkpt>
      <trkpt lat="45.03749" lon="6.08117">
        <ele>1258</ele>
        <time>2026-08-09T10:47:00Z</time>
      </trkpt>
      <trkpt lat="45.03748" lon="6.08128">
        <ele>1257.6</ele>
        <time>2026-08-09T10:47:01Z</time>
      </trkpt>
      <trkpt lat="45.03748" lon="6.08138">
        <ele>1257.4</ele>
        <time>2026-08-09T10:47:02Z</time>
      </trkpt>
      <trkpt lat="45.03749" lon="6.08149">
        <ele>1256.8</ele>
        <time>2026-08-09T10:47:03Z</time>
      </trkpt>
      <trkpt lat="45.03751" lon="6.0816">
        <ele>1256.4</ele>
        <time>2026-08-09T10:47:04Z</time>
      </trkpt>
      <trkpt lat="45.03754" lon="6.08171">
        <ele>1255.4</ele>
        <time>2026-08-09T10:47:05Z</time>
      </trkpt>
      <trkpt lat="45.03757" lon="6.08182">
        <ele>1254.6</ele>
        <time>2026-08-09T10:47:06Z</time>
      </trkpt>
      <trkpt lat="45.03762" lon="6.08191">
        <ele>1254</ele>
        <time>2026-08-09T10:47:07Z</time>
      </trkpt>
      <trkpt lat="45.03768" lon="6.08199">
        <ele>1253.6</ele>
        <time>2026-08-09T10:47:08Z</time>
      </trkpt>
      <trkpt lat="45.03781" lon="6.08214">
        <ele>1253</ele>
        <time>2026-08-09T10:47:10Z</time>
      </trkpt>
      <trkpt lat="45.03798" lon="6.08227">
        <ele>1251.6</ele>
        <time>2026-08-09T10:47:12Z</time>
      </trkpt>
      <trkpt lat="45.03807" lon="6.08235">
        <ele>1251</ele>
        <time>2026-08-09T10:47:13Z</time>
      </trkpt>
      <trkpt lat="45.03815" lon="6.08244">
        <ele>1250.4</ele>
        <time>2026-08-09T10:47:14Z</time>
      </trkpt>
      <trkpt lat="45.03833" lon="6.08263">
        <ele>1248.2</ele>
        <time>2026-08-09T10:47:16Z</time>
      </trkpt>
      <trkpt lat="45.03842" lon="6.08273">
        <ele>1247</ele>
        <time>2026-08-09T10:47:17Z</time>
      </trkpt>
      <trkpt lat="45.03852" lon="6.08282">
        <ele>1245.8</ele>
        <time>2026-08-09T10:47:18Z</time>
      </trkpt>
      <trkpt lat="45.03861" lon="6.08291">
        <ele>1244.2</ele>
        <time>2026-08-09T10:47:19Z</time>
      </trkpt>
      <trkpt lat="45.03871" lon="6.08299">
        <ele>1242.8</ele>
        <time>2026-08-09T10:47:20Z</time>
      </trkpt>
      <trkpt lat="45.03879" lon="6.08306">
        <ele>1241.6</ele>
        <time>2026-08-09T10:47:21Z</time>
      </trkpt>
      <trkpt lat="45.03885" lon="6.08312">
        <ele>1240.4</ele>
        <time>2026-08-09T10:47:22Z</time>
      </trkpt>
      <trkpt lat="45.03895" lon="6.08317">
        <ele>1238.8</ele>
        <time>2026-08-09T10:47:24Z</time>
      </trkpt>
      <trkpt lat="45.03902" lon="6.0832">
        <ele>1238</ele>
        <time>2026-08-09T10:47:26Z</time>
      </trkpt>
      <trkpt lat="45.0391" lon="6.08323">
        <ele>1237.6</ele>
        <time>2026-08-09T10:47:28Z</time>
      </trkpt>
      <trkpt lat="45.0392" lon="6.08332">
        <ele>1237.4</ele>
        <time>2026-08-09T10:47:30Z</time>
      </trkpt>
      <trkpt lat="45.03923" lon="6.08335">
        <ele>1237</ele>
        <time>2026-08-09T10:47:32Z</time>
      </trkpt>
      <trkpt lat="45.03935" lon="6.08343">
        <ele>1237</ele>
        <time>2026-08-09T10:47:34Z</time>
      </trkpt>
      <trkpt lat="45.03941" lon="6.08348">
        <ele>1237</ele>
        <time>2026-08-09T10:47:36Z</time>
      </trkpt>
      <trkpt lat="45.03944" lon="6.0835">
        <ele>1237</ele>
        <time>2026-08-09T10:47:38Z</time>
      </trkpt>
      <trkpt lat="45.03948" lon="6.08354">
        <ele>1237</ele>
        <time>2026-08-09T10:47:40Z</time>
      </trkpt>
      <trkpt lat="45.03951" lon="6.08357">
        <ele>1237</ele>
        <time>2026-08-09T10:47:42Z</time>
      </trkpt>
      <trkpt lat="45.03955" lon="6.0836">
        <ele>1237</ele>
        <time>2026-08-09T10:47:44Z</time>
      </trkpt>
      <trkpt lat="45.03959" lon="6.08362">
        <ele>1237</ele>
        <time>2026-08-09T10:47:46Z</time>
      </trkpt>
      <trkpt lat="45.03962" lon="6.08363">
        <ele>1236.8</ele>
        <time>2026-08-09T10:47:48Z</time>
      </trkpt>
      <trkpt lat="45.03964" lon="6.08365">
        <ele>1236.6</ele>
        <time>2026-08-09T10:47:50Z</time>
      </trkpt>
      <trkpt lat="45.03968" lon="6.08365">
        <ele>1236.6</ele>
        <time>2026-08-09T10:47:52Z</time>
      </trkpt>
      <trkpt lat="45.0397" lon="6.08365">
        <ele>1236.4</ele>
        <time>2026-08-09T10:47:54Z</time>
      </trkpt>
      <trkpt lat="45.03971" lon="6.08364">
        <ele>1236.4</ele>
        <time>2026-08-09T10:47:56Z</time>
      </trkpt>
      <trkpt lat="45.03971" lon="6.08364">
        <ele>1236.6</ele>
        <time>2026-08-09T10:47:58Z</time>
      </trkpt>
      <trkpt lat="45.03971" lon="6.08364">
        <ele>1236.4</ele>
        <time>2026-08-09T10:48:00Z</time>
      </trkpt>
      <trkpt lat="45.03971" lon="6.08365">
        <ele>1236.2</ele>
        <time>2026-08-09T10:48:02Z</time>
      </trkpt>
      <trkpt lat="45.03971" lon="6.08365">
        <ele>1236.2</ele>
        <time>2026-08-09T10:48:04Z</time>
      </trkpt>
      <trkpt lat="45.03971" lon="6.08365">
        <ele>1236.2</ele>
        <time>2026-08-09T10:48:06Z</time>
      </trkpt>
      <trkpt lat="45.03971" lon="6.08365">
        <ele>1236.2</ele>
        <time>2026-08-09T10:48:08Z</time>
      </trkpt>
      <trkpt lat="45.03971" lon="6.08365">
        <ele>1236.2</ele>
        <time>2026-08-09T10:48:10Z</time>
      </trkpt>
      <trkpt lat="45.03971" lon="6.08365">
        <ele>1236.2</ele>
        <time>2026-08-09T10:48:12Z</time>
      </trkpt>
      <trkpt lat="45.03971" lon="6.08365">
        <ele>1236.2</ele>
        <time>2026-08-09T10:48:14Z</time>
      </trkpt>
      <trkpt lat="45.03973" lon="6.08366">
        <ele>1236.2</ele>
        <time>2026-08-09T10:48:16Z</time>
      </trkpt>
      <trkpt lat="45.03976" lon="6.08368">
        <ele>1236.2</ele>
        <time>2026-08-09T10:48:18Z</time>
      </trkpt>
      <trkpt lat="45.0398" lon="6.08372">
        <ele>1236.2</ele>
        <time>2026-08-09T10:48:20Z</time>
      </trkpt>
      <trkpt lat="45.03985" lon="6.08377">
        <ele>1236.2</ele>
        <time>2026-08-09T10:48:22Z</time>
      </trkpt>
      <trkpt lat="45.03988" lon="6.08381">
        <ele>1236.2</ele>
        <time>2026-08-09T10:48:23Z</time>
      </trkpt>
      <trkpt lat="45.03992" lon="6.08384">
        <ele>1236</ele>
        <time>2026-08-09T10:48:24Z</time>
      </trkpt>
      <trkpt lat="45.03999" lon="6.08391">
        <ele>1236</ele>
        <time>2026-08-09T10:48:26Z</time>
      </trkpt>
      <trkpt lat="45.04006" lon="6.08398">
        <ele>1235.8</ele>
        <time>2026-08-09T10:48:28Z</time>
      </trkpt>
      <trkpt lat="45.04014" lon="6.08408">
        <ele>1235.6</ele>
        <time>2026-08-09T10:48:30Z</time>
      </trkpt>
      <trkpt lat="45.04021" lon="6.08417">
        <ele>1235</ele>
        <time>2026-08-09T10:48:32Z</time>
      </trkpt>
      <trkpt lat="45.04025" lon="6.08424">
        <ele>1234.6</ele>
        <time>2026-08-09T10:48:34Z</time>
      </trkpt>
      <trkpt lat="45.04026" lon="6.08428">
        <ele>1234.2</ele>
        <time>2026-08-09T10:48:35Z</time>
      </trkpt>
      <trkpt lat="45.04027" lon="6.08432">
        <ele>1234.2</ele>
        <time>2026-08-09T10:48:36Z</time>
      </trkpt>
      <trkpt lat="45.04029" lon="6.08435">
        <ele>1234</ele>
        <time>2026-08-09T10:48:37Z</time>
      </trkpt>
      <trkpt lat="45.04031" lon="6.08439">
        <ele>1234</ele>
        <time>2026-08-09T10:48:38Z</time>
      </trkpt>
      <trkpt lat="45.04037" lon="6.08446">
        <ele>1233.8</ele>
        <time>2026-08-09T10:48:40Z</time>
      </trkpt>
      <trkpt lat="45.04043" lon="6.08453">
        <ele>1233.6</ele>
        <time>2026-08-09T10:48:42Z</time>
      </trkpt>
      <trkpt lat="45.04051" lon="6.08461">
        <ele>1233.4</ele>
        <time>2026-08-09T10:48:44Z</time>
      </trkpt>
      <trkpt lat="45.04055" lon="6.08466">
        <ele>1233.4</ele>
        <time>2026-08-09T10:48:45Z</time>
      </trkpt>
      <trkpt lat="45.04058" lon="6.0847">
        <ele>1233.2</ele>
        <time>2026-08-09T10:48:46Z</time>
      </trkpt>
      <trkpt lat="45.04067" lon="6.0848">
        <ele>1232.6</ele>
        <time>2026-08-09T10:48:48Z</time>
      </trkpt>
      <trkpt lat="45.04071" lon="6.08485">
        <ele>1232.4</ele>
        <time>2026-08-09T10:48:49Z</time>
      </trkpt>
      <trkpt lat="45.04076" lon="6.0849">
        <ele>1232</ele>
        <time>2026-08-09T10:48:50Z</time>
      </trkpt>
      <trkpt lat="45.04082" lon="6.08494">
        <ele>1231.8</ele>
        <time>2026-08-09T10:48:51Z</time>
      </trkpt>
      <trkpt lat="45.04087" lon="6.08498">
        <ele>1231.6</ele>
        <time>2026-08-09T10:48:52Z</time>
      </trkpt>
      <trkpt lat="45.04099" lon="6.08506">
        <ele>1231.2</ele>
        <time>2026-08-09T10:48:54Z</time>
      </trkpt>
      <trkpt lat="45.04112" lon="6.08514">
        <ele>1230.4</ele>
        <time>2026-08-09T10:48:56Z</time>
      </trkpt>
      <trkpt lat="45.04119" lon="6.08519">
        <ele>1230</ele>
        <time>2026-08-09T10:48:57Z</time>
      </trkpt>
      <trkpt lat="45.04126" lon="6.08524">
        <ele>1229.6</ele>
        <time>2026-08-09T10:48:58Z</time>
      </trkpt>
      <trkpt lat="45.0414" lon="6.08534">
        <ele>1229</ele>
        <time>2026-08-09T10:49:00Z</time>
      </trkpt>
      <trkpt lat="45.04145" lon="6.08542">
        <ele>1228.6</ele>
        <time>2026-08-09T10:49:01Z</time>
      </trkpt>
      <trkpt lat="45.0415" lon="6.08552">
        <ele>1228.4</ele>
        <time>2026-08-09T10:49:02Z</time>
      </trkpt>
      <trkpt lat="45.04156" lon="6.08578">
        <ele>1227</ele>
        <time>2026-08-09T10:49:04Z</time>
      </trkpt>
      <trkpt lat="45.0416" lon="6.08591">
        <ele>1226</ele>
        <time>2026-08-09T10:49:05Z</time>
      </trkpt>
      <trkpt lat="45.04165" lon="6.08603">
        <ele>1225.2</ele>
        <time>2026-08-09T10:49:06Z</time>
      </trkpt>
      <trkpt lat="45.04171" lon="6.08615">
        <ele>1224.8</ele>
        <time>2026-08-09T10:49:07Z</time>
      </trkpt>
      <trkpt lat="45.04177" lon="6.08628">
        <ele>1224.4</ele>
        <time>2026-08-09T10:49:08Z</time>
      </trkpt>
      <trkpt lat="45.04183" lon="6.08641">
        <ele>1223.8</ele>
        <time>2026-08-09T10:49:09Z</time>
      </trkpt>
      <trkpt lat="45.0419" lon="6.08654">
        <ele>1222.4</ele>
        <time>2026-08-09T10:49:10Z</time>
      </trkpt>
      <trkpt lat="45.04197" lon="6.08665">
        <ele>1220.2</ele>
        <time>2026-08-09T10:49:11Z</time>
      </trkpt>
      <trkpt lat="45.04207" lon="6.08675">
        <ele>1219.6</ele>
        <time>2026-08-09T10:49:12Z</time>
      </trkpt>
      <trkpt lat="45.04216" lon="6.08684">
        <ele>1219</ele>
        <time>2026-08-09T10:49:13Z</time>
      </trkpt>
      <trkpt lat="45.04225" lon="6.08694">
        <ele>1218.6</ele>
        <time>2026-08-09T10:49:14Z</time>
      </trkpt>
      <trkpt lat="45.04233" lon="6.08705">
        <ele>1218</ele>
        <time>2026-08-09T10:49:15Z</time>
      </trkpt>
      <trkpt lat="45.04239" lon="6.08719">
        <ele>1217</ele>
        <time>2026-08-09T10:49:16Z</time>
      </trkpt>
      <trkpt lat="45.04245" lon="6.08732">
        <ele>1216</ele>
        <time>2026-08-09T10:49:17Z</time>
      </trkpt>
      <trkpt lat="45.04252" lon="6.08745">
        <ele>1215</ele>
        <time>2026-08-09T10:49:18Z</time>
      </trkpt>
      <trkpt lat="45.0426" lon="6.08757">
        <ele>1213.8</ele>
        <time>2026-08-09T10:49:19Z</time>
      </trkpt>
      <trkpt lat="45.04268" lon="6.08767">
        <ele>1212.8</ele>
        <time>2026-08-09T10:49:20Z</time>
      </trkpt>
      <trkpt lat="45.04286" lon="6.08789">
        <ele>1210.8</ele>
        <time>2026-08-09T10:49:22Z</time>
      </trkpt>
      <trkpt lat="45.04294" lon="6.088">
        <ele>1209.4</ele>
        <time>2026-08-09T10:49:23Z</time>
      </trkpt>
      <trkpt lat="45.04301" lon="6.08812">
        <ele>1208.4</ele>
        <time>2026-08-09T10:49:24Z</time>
      </trkpt>
      <trkpt lat="45.04308" lon="6.08825">
        <ele>1207.8</ele>
        <time>2026-08-09T10:49:25Z</time>
      </trkpt>
      <trkpt lat="45.04314" lon="6.08839">
        <ele>1207.6</ele>
        <time>2026-08-09T10:49:26Z</time>
      </trkpt>
      <trkpt lat="45.04319" lon="6.08854">
        <ele>1207.2</ele>
        <time>2026-08-09T10:49:27Z</time>
      </trkpt>
      <trkpt lat="45.04324" lon="6.08869">
        <ele>1206.6</ele>
        <time>2026-08-09T10:49:28Z</time>
      </trkpt>
      <trkpt lat="45.04328" lon="6.08884">
        <ele>1206</ele>
        <time>2026-08-09T10:49:29Z</time>
      </trkpt>
      <trkpt lat="45.04332" lon="6.08899">
        <ele>1205.6</ele>
        <time>2026-08-09T10:49:30Z</time>
      </trkpt>
      <trkpt lat="45.04337" lon="6.08914">
        <ele>1204.6</ele>
        <time>2026-08-09T10:49:31Z</time>
      </trkpt>
      <trkpt lat="45.04341" lon="6.08928">
        <ele>1203.6</ele>
        <time>2026-08-09T10:49:32Z</time>
      </trkpt>
      <trkpt lat="45.04346" lon="6.08942">
        <ele>1203</ele>
        <time>2026-08-09T10:49:33Z</time>
      </trkpt>
      <trkpt lat="45.04352" lon="6.08956">
        <ele>1202.6</ele>
        <time>2026-08-09T10:49:34Z</time>
      </trkpt>
      <trkpt lat="45.04358" lon="6.08968">
        <ele>1202.4</ele>
        <time>2026-08-09T10:49:35Z</time>
      </trkpt>
      <trkpt lat="45.04364" lon="6.08981">
        <ele>1201.6</ele>
        <time>2026-08-09T10:49:36Z</time>
      </trkpt>
      <trkpt lat="45.04378" lon="6.09008">
        <ele>1200.2</ele>
        <time>2026-08-09T10:49:38Z</time>
      </trkpt>
      <trkpt lat="45.04385" lon="6.09019">
        <ele>1199</ele>
        <time>2026-08-09T10:49:39Z</time>
      </trkpt>
      <trkpt lat="45.04392" lon="6.09028">
        <ele>1198.6</ele>
        <time>2026-08-09T10:49:40Z</time>
      </trkpt>
      <trkpt lat="45.04407" lon="6.09038">
        <ele>1197.8</ele>
        <time>2026-08-09T10:49:42Z</time>
      </trkpt>
      <trkpt lat="45.04415" lon="6.09042">
        <ele>1197.2</ele>
        <time>2026-08-09T10:49:43Z</time>
      </trkpt>
      <trkpt lat="45.04424" lon="6.09046">
        <ele>1196.2</ele>
        <time>2026-08-09T10:49:44Z</time>
      </trkpt>
      <trkpt lat="45.04442" lon="6.09053">
        <ele>1195.4</ele>
        <time>2026-08-09T10:49:46Z</time>
      </trkpt>
      <trkpt lat="45.04451" lon="6.09055">
        <ele>1195.2</ele>
        <time>2026-08-09T10:49:47Z</time>
      </trkpt>
      <trkpt lat="45.04461" lon="6.09058">
        <ele>1195.2</ele>
        <time>2026-08-09T10:49:48Z</time>
      </trkpt>
      <trkpt lat="45.04481" lon="6.09062">
        <ele>1194.6</ele>
        <time>2026-08-09T10:49:50Z</time>
      </trkpt>
      <trkpt lat="45.04492" lon="6.09065">
        <ele>1193.8</ele>
        <time>2026-08-09T10:49:51Z</time>
      </trkpt>
      <trkpt lat="45.04502" lon="6.09069">
        <ele>1193.2</ele>
        <time>2026-08-09T10:49:52Z</time>
      </trkpt>
      <trkpt lat="45.04512" lon="6.09075">
        <ele>1192.6</ele>
        <time>2026-08-09T10:49:53Z</time>
      </trkpt>
      <trkpt lat="45.04522" lon="6.0908">
        <ele>1191.8</ele>
        <time>2026-08-09T10:49:54Z</time>
      </trkpt>
      <trkpt lat="45.04532" lon="6.09086">
        <ele>1191.2</ele>
        <time>2026-08-09T10:49:55Z</time>
      </trkpt>
      <trkpt lat="45.04543" lon="6.09093">
        <ele>1190.4</ele>
        <time>2026-08-09T10:49:56Z</time>
      </trkpt>
      <trkpt lat="45.04553" lon="6.091">
        <ele>1189.6</ele>
        <time>2026-08-09T10:49:57Z</time>
      </trkpt>
      <trkpt lat="45.04563" lon="6.09105">
        <ele>1188.4</ele>
        <time>2026-08-09T10:49:58Z</time>
      </trkpt>
      <trkpt lat="45.04574" lon="6.09109">
        <ele>1187.8</ele>
        <time>2026-08-09T10:49:59Z</time>
      </trkpt>
      <trkpt lat="45.04585" lon="6.09112">
        <ele>1187.2</ele>
        <time>2026-08-09T10:50:00Z</time>
      </trkpt>
      <trkpt lat="45.04596" lon="6.09113">
        <ele>1186.2</ele>
        <time>2026-08-09T10:50:01Z</time>
      </trkpt>
      <trkpt lat="45.04608" lon="6.09114">
        <ele>1185</ele>
        <time>2026-08-09T10:50:02Z</time>
      </trkpt>
      <trkpt lat="45.04618" lon="6.09113">
        <ele>1183.8</ele>
        <time>2026-08-09T10:50:03Z</time>
      </trkpt>
      <trkpt lat="45.04626" lon="6.09113">
        <ele>1182.4</ele>
        <time>2026-08-09T10:50:04Z</time>
      </trkpt>
      <trkpt lat="45.04634" lon="6.09114">
        <ele>1181</ele>
        <time>2026-08-09T10:50:05Z</time>
      </trkpt>
      <trkpt lat="45.04641" lon="6.09118">
        <ele>1180.2</ele>
        <time>2026-08-09T10:50:06Z</time>
      </trkpt>
      <trkpt lat="45.04643" lon="6.09126">
        <ele>1179</ele>
        <time>2026-08-09T10:50:07Z</time>
      </trkpt>
      <trkpt lat="45.04645" lon="6.09134">
        <ele>1178.6</ele>
        <time>2026-08-09T10:50:08Z</time>
      </trkpt>
      <trkpt lat="45.04645" lon="6.09151">
        <ele>1178.2</ele>
        <time>2026-08-09T10:50:10Z</time>
      </trkpt>
      <trkpt lat="45.04644" lon="6.09159">
        <ele>1178.2</ele>
        <time>2026-08-09T10:50:11Z</time>
      </trkpt>
      <trkpt lat="45.04644" lon="6.09168">
        <ele>1178.2</ele>
        <time>2026-08-09T10:50:12Z</time>
      </trkpt>
      <trkpt lat="45.04648" lon="6.09183">
        <ele>1178</ele>
        <time>2026-08-09T10:50:14Z</time>
      </trkpt>
      <trkpt lat="45.04651" lon="6.0919">
        <ele>1178</ele>
        <time>2026-08-09T10:50:15Z</time>
      </trkpt>
      <trkpt lat="45.04654" lon="6.09197">
        <ele>1177.8</ele>
        <time>2026-08-09T10:50:16Z</time>
      </trkpt>
      <trkpt lat="45.0466" lon="6.09211">
        <ele>1177.8</ele>
        <time>2026-08-09T10:50:18Z</time>
      </trkpt>
      <trkpt lat="45.04663" lon="6.09218">
        <ele>1177.8</ele>
        <time>2026-08-09T10:50:19Z</time>
      </trkpt>
      <trkpt lat="45.04666" lon="6.09225">
        <ele>1177.8</ele>
        <time>2026-08-09T10:50:20Z</time>
      </trkpt>
      <trkpt lat="45.04673" lon="6.09237">
        <ele>1177.8</ele>
        <time>2026-08-09T10:50:22Z</time>
      </trkpt>
      <trkpt lat="45.04679" lon="6.09248">
        <ele>1177.6</ele>
        <time>2026-08-09T10:50:24Z</time>
      </trkpt>
      <trkpt lat="45.04683" lon="6.09257">
        <ele>1177.6</ele>
        <time>2026-08-09T10:50:26Z</time>
      </trkpt>
      <trkpt lat="45.04688" lon="6.09265">
        <ele>1177.6</ele>
        <time>2026-08-09T10:50:28Z</time>
      </trkpt>
      <trkpt lat="45.04689" lon="6.09269">
        <ele>1177.6</ele>
        <time>2026-08-09T10:50:29Z</time>
      </trkpt>
      <trkpt lat="45.04691" lon="6.09273">
        <ele>1177.6</ele>
        <time>2026-08-09T10:50:30Z</time>
      </trkpt>
      <trkpt lat="45.04695" lon="6.0928">
        <ele>1177.6</ele>
        <time>2026-08-09T10:50:32Z</time>
      </trkpt>
      <trkpt lat="45.04699" lon="6.09287">
        <ele>1178.2</ele>
        <time>2026-08-09T10:50:34Z</time>
      </trkpt>
      <trkpt lat="45.04701" lon="6.0929">
        <ele>1178.4</ele>
        <time>2026-08-09T10:50:35Z</time>
      </trkpt>
      <trkpt lat="45.04702" lon="6.09293">
        <ele>1179</ele>
        <time>2026-08-09T10:50:36Z</time>
      </trkpt>
      <trkpt lat="45.04704" lon="6.09297">
        <ele>1179</ele>
        <time>2026-08-09T10:50:37Z</time>
      </trkpt>
      <trkpt lat="45.04705" lon="6.09301">
        <ele>1179.4</ele>
        <time>2026-08-09T10:50:38Z</time>
      </trkpt>
      <trkpt lat="45.04709" lon="6.09307">
        <ele>1180</ele>
        <time>2026-08-09T10:50:40Z</time>
      </trkpt>
      <trkpt lat="45.0471" lon="6.0931">
        <ele>1180.2</ele>
        <time>2026-08-09T10:50:41Z</time>
      </trkpt>
      <trkpt lat="45.04712" lon="6.09312">
        <ele>1180.6</ele>
        <time>2026-08-09T10:50:42Z</time>
      </trkpt>
      <trkpt lat="45.04715" lon="6.09318">
        <ele>1181</ele>
        <time>2026-08-09T10:50:44Z</time>
      </trkpt>
      <trkpt lat="45.04718" lon="6.09322">
        <ele>1181.4</ele>
        <time>2026-08-09T10:50:46Z</time>
      </trkpt>
      <trkpt lat="45.04721" lon="6.09327">
        <ele>1181.8</ele>
        <time>2026-08-09T10:50:48Z</time>
      </trkpt>
      <trkpt lat="45.04723" lon="6.09329">
        <ele>1181.8</ele>
        <time>2026-08-09T10:50:49Z</time>
      </trkpt>
      <trkpt lat="45.04725" lon="6.09331">
        <ele>1182</ele>
        <time>2026-08-09T10:50:50Z</time>
      </trkpt>
      <trkpt lat="45.04729" lon="6.09335">
        <ele>1182.4</ele>
        <time>2026-08-09T10:50:52Z</time>
      </trkpt>
      <trkpt lat="45.0473" lon="6.09338">
        <ele>1182.6</ele>
        <time>2026-08-09T10:50:53Z</time>
      </trkpt>
      <trkpt lat="45.04732" lon="6.09341">
        <ele>1182.6</ele>
        <time>2026-08-09T10:50:54Z</time>
      </trkpt>
      <trkpt lat="45.04734" lon="6.09344">
        <ele>1182.6</ele>
        <time>2026-08-09T10:50:55Z</time>
      </trkpt>
      <trkpt lat="45.04736" lon="6.09347">
        <ele>1182.8</ele>
        <time>2026-08-09T10:50:56Z</time>
      </trkpt>
      <trkpt lat="45.0474" lon="6.09354">
        <ele>1183</ele>
        <time>2026-08-09T10:50:58Z</time>
      </trkpt>
      <trkpt lat="45.04743" lon="6.09361">
        <ele>1183</ele>
        <time>2026-08-09T10:51:00Z</time>
      </trkpt>
      <trkpt lat="45.04747" lon="6.09367">
        <ele>1183</ele>
        <time>2026-08-09T10:51:02Z</time>
      </trkpt>
      <trkpt lat="45.0475" lon="6.09374">
        <ele>1183</ele>
        <time>2026-08-09T10:51:04Z</time>
      </trkpt>
      <trkpt lat="45.04754" lon="6.09381">
        <ele>1183</ele>
        <time>2026-08-09T10:51:06Z</time>
      </trkpt>
      <trkpt lat="45.04756" lon="6.09384">
        <ele>1183</ele>
        <time>2026-08-09T10:51:07Z</time>
      </trkpt>
      <trkpt lat="45.04757" lon="6.09386">
        <ele>1183</ele>
        <time>2026-08-09T10:51:08Z</time>
      </trkpt>
      <trkpt lat="45.0476" lon="6.09392">
        <ele>1183</ele>
        <time>2026-08-09T10:51:10Z</time>
      </trkpt>
      <trkpt lat="45.04763" lon="6.09397">
        <ele>1183</ele>
        <time>2026-08-09T10:51:12Z</time>
      </trkpt>
      <trkpt lat="45.04766" lon="6.09403">
        <ele>1183</ele>
        <time>2026-08-09T10:51:14Z</time>
      </trkpt>
      <trkpt lat="45.04769" lon="6.0941">
        <ele>1183.2</ele>
        <time>2026-08-09T10:51:16Z</time>
      </trkpt>
      <trkpt lat="45.04772" lon="6.09418">
        <ele>1183.4</ele>
        <time>2026-08-09T10:51:18Z</time>
      </trkpt>
      <trkpt lat="45.04774" lon="6.09425">
        <ele>1183.4</ele>
        <time>2026-08-09T10:51:20Z</time>
      </trkpt>
      <trkpt lat="45.04774" lon="6.09428">
        <ele>1183.6</ele>
        <time>2026-08-09T10:51:21Z</time>
      </trkpt>
      <trkpt lat="45.04775" lon="6.09431">
        <ele>1183.6</ele>
        <time>2026-08-09T10:51:22Z</time>
      </trkpt>
      <trkpt lat="45.04777" lon="6.09439">
        <ele>1183.6</ele>
        <time>2026-08-09T10:51:24Z</time>
      </trkpt>
      <trkpt lat="45.04777" lon="6.09447">
        <ele>1183.6</ele>
        <time>2026-08-09T10:51:26Z</time>
      </trkpt>
      <trkpt lat="45.04779" lon="6.09455">
        <ele>1183.8</ele>
        <time>2026-08-09T10:51:28Z</time>
      </trkpt>
      <trkpt lat="45.04779" lon="6.09459">
        <ele>1183.8</ele>
        <time>2026-08-09T10:51:29Z</time>
      </trkpt>
      <trkpt lat="45.0478" lon="6.09463">
        <ele>1183.8</ele>
        <time>2026-08-09T10:51:30Z</time>
      </trkpt>
      <trkpt lat="45.0478" lon="6.09471">
        <ele>1183.8</ele>
        <time>2026-08-09T10:51:32Z</time>
      </trkpt>
      <trkpt lat="45.0478" lon="6.09477">
        <ele>1184</ele>
        <time>2026-08-09T10:51:34Z</time>
      </trkpt>
      <trkpt lat="45.04781" lon="6.09484">
        <ele>1184</ele>
        <time>2026-08-09T10:51:36Z</time>
      </trkpt>
      <trkpt lat="45.04781" lon="6.09491">
        <ele>1184</ele>
        <time>2026-08-09T10:51:38Z</time>
      </trkpt>
      <trkpt lat="45.04782" lon="6.09498">
        <ele>1184</ele>
        <time>2026-08-09T10:51:40Z</time>
      </trkpt>
      <trkpt lat="45.04782" lon="6.09502">
        <ele>1184</ele>
        <time>2026-08-09T10:51:41Z</time>
      </trkpt>
      <trkpt lat="45.04782" lon="6.09506">
        <ele>1184</ele>
        <time>2026-08-09T10:51:42Z</time>
      </trkpt>
      <trkpt lat="45.04783" lon="6.09513">
        <ele>1184</ele>
        <time>2026-08-09T10:51:44Z</time>
      </trkpt>
      <trkpt lat="45.04784" lon="6.09521">
        <ele>1184</ele>
        <time>2026-08-09T10:51:46Z</time>
      </trkpt>
      <trkpt lat="45.04784" lon="6.09524">
        <ele>1184</ele>
        <time>2026-08-09T10:51:47Z</time>
      </trkpt>
      <trkpt lat="45.04784" lon="6.09528">
        <ele>1183.8</ele>
        <time>2026-08-09T10:51:48Z</time>
      </trkpt>
      <trkpt lat="45.04785" lon="6.09534">
        <ele>1183.8</ele>
        <time>2026-08-09T10:51:50Z</time>
      </trkpt>
      <trkpt lat="45.04786" lon="6.0954">
        <ele>1183.6</ele>
        <time>2026-08-09T10:51:52Z</time>
      </trkpt>
      <trkpt lat="45.04787" lon="6.09543">
        <ele>1183.6</ele>
        <time>2026-08-09T10:51:53Z</time>
      </trkpt>
      <trkpt lat="45.04788" lon="6.09543">
        <ele>1183.6</ele>
        <time>2026-08-09T10:51:54Z</time>
      </trkpt>
      <trkpt lat="45.0479" lon="6.0954">
        <ele>1183.6</ele>
        <time>2026-08-09T10:51:56Z</time>
      </trkpt>
      <trkpt lat="45.0479" lon="6.09535">
        <ele>1183.6</ele>
        <time>2026-08-09T10:51:58Z</time>
      </trkpt>
      <trkpt lat="45.04789" lon="6.09528">
        <ele>1183.6</ele>
        <time>2026-08-09T10:52:00Z</time>
      </trkpt>
      <trkpt lat="45.0479" lon="6.09525">
        <ele>1183.6</ele>
        <time>2026-08-09T10:52:01Z</time>
      </trkpt>
      <trkpt lat="45.04789" lon="6.09522">
        <ele>1183.6</ele>
        <time>2026-08-09T10:52:02Z</time>
      </trkpt>
      <trkpt lat="45.04788" lon="6.09515">
        <ele>1183.6</ele>
        <time>2026-08-09T10:52:04Z</time>
      </trkpt>
      <trkpt lat="45.04787" lon="6.09507">
        <ele>1183.6</ele>
        <time>2026-08-09T10:52:06Z</time>
      </trkpt>
      <trkpt lat="45.04786" lon="6.095">
        <ele>1183.6</ele>
        <time>2026-08-09T10:52:08Z</time>
      </trkpt>
      <trkpt lat="45.04785" lon="6.09491">
        <ele>1183.6</ele>
        <time>2026-08-09T10:52:10Z</time>
      </trkpt>
      <trkpt lat="45.04784" lon="6.09484">
        <ele>1183.8</ele>
        <time>2026-08-09T10:52:12Z</time>
      </trkpt>
      <trkpt lat="45.04783" lon="6.09477">
        <ele>1183.8</ele>
        <time>2026-08-09T10:52:14Z</time>
      </trkpt>
      <trkpt lat="45.04783" lon="6.0947">
        <ele>1183.8</ele>
        <time>2026-08-09T10:52:16Z</time>
      </trkpt>
      <trkpt lat="45.04782" lon="6.09462">
        <ele>1183.8</ele>
        <time>2026-08-09T10:52:18Z</time>
      </trkpt>
      <trkpt lat="45.04782" lon="6.09455">
        <ele>1184</ele>
        <time>2026-08-09T10:52:20Z</time>
      </trkpt>
      <trkpt lat="45.04781" lon="6.09447">
        <ele>1184</ele>
        <time>2026-08-09T10:52:22Z</time>
      </trkpt>
      <trkpt lat="45.0478" lon="6.0944">
        <ele>1184</ele>
        <time>2026-08-09T10:52:24Z</time>
      </trkpt>
      <trkpt lat="45.0478" lon="6.09436">
        <ele>1184</ele>
        <time>2026-08-09T10:52:25Z</time>
      </trkpt>
      <trkpt lat="45.04779" lon="6.09432">
        <ele>1184</ele>
        <time>2026-08-09T10:52:26Z</time>
      </trkpt>
      <trkpt lat="45.04778" lon="6.09423">
        <ele>1184</ele>
        <time>2026-08-09T10:52:28Z</time>
      </trkpt>
      <trkpt lat="45.04777" lon="6.09415">
        <ele>1183.8</ele>
        <time>2026-08-09T10:52:30Z</time>
      </trkpt>
      <trkpt lat="45.04775" lon="6.09407">
        <ele>1183.8</ele>
        <time>2026-08-09T10:52:32Z</time>
      </trkpt>
      <trkpt lat="45.04774" lon="6.09401">
        <ele>1183.8</ele>
        <time>2026-08-09T10:52:34Z</time>
      </trkpt>
      <trkpt lat="45.04771" lon="6.09394">
        <ele>1183.8</ele>
        <time>2026-08-09T10:52:36Z</time>
      </trkpt>
      <trkpt lat="45.0477" lon="6.09388">
        <ele>1183.8</ele>
        <time>2026-08-09T10:52:38Z</time>
      </trkpt>
      <trkpt lat="45.04769" lon="6.09386">
        <ele>1183.8</ele>
        <time>2026-08-09T10:52:39Z</time>
      </trkpt>
      <trkpt lat="45.04768" lon="6.09383">
        <ele>1183.8</ele>
        <time>2026-08-09T10:52:40Z</time>
      </trkpt>
      <trkpt lat="45.04765" lon="6.09377">
        <ele>1183.8</ele>
        <time>2026-08-09T10:52:42Z</time>
      </trkpt>
      <trkpt lat="45.04762" lon="6.09372">
        <ele>1183.8</ele>
        <time>2026-08-09T10:52:44Z</time>
      </trkpt>
      <trkpt lat="45.04759" lon="6.09365">
        <ele>1183.8</ele>
        <time>2026-08-09T10:52:46Z</time>
      </trkpt>
      <trkpt lat="45.04756" lon="6.09358">
        <ele>1183.6</ele>
        <time>2026-08-09T10:52:48Z</time>
      </trkpt>
      <trkpt lat="45.04751" lon="6.09351">
        <ele>1183.6</ele>
        <time>2026-08-09T10:52:50Z</time>
      </trkpt>
      <trkpt lat="45.04748" lon="6.09346">
        <ele>1183.6</ele>
        <time>2026-08-09T10:52:52Z</time>
      </trkpt>
      <trkpt lat="45.04746" lon="6.09344">
        <ele>1183.6</ele>
        <time>2026-08-09T10:52:53Z</time>
      </trkpt>
      <trkpt lat="45.04745" lon="6.09342">
        <ele>1183.6</ele>
        <time>2026-08-09T10:52:54Z</time>
      </trkpt>
      <trkpt lat="45.04742" lon="6.09338">
        <ele>1183.4</ele>
        <time>2026-08-09T10:52:56Z</time>
      </trkpt>
      <trkpt lat="45.0474" lon="6.09336">
        <ele>1183.4</ele>
        <time>2026-08-09T10:52:58Z</time>
      </trkpt>
      <trkpt lat="45.04739" lon="6.09335">
        <ele>1183.4</ele>
        <time>2026-08-09T10:52:59Z</time>
      </trkpt>
      <trkpt lat="45.04738" lon="6.09335">
        <ele>1183.4</ele>
        <time>2026-08-09T10:53:00Z</time>
      </trkpt>
      <trkpt lat="45.04738" lon="6.09338">
        <ele>1183.6</ele>
        <time>2026-08-09T10:53:02Z</time>
      </trkpt>
      <trkpt lat="45.04738" lon="6.0934">
        <ele>1183.6</ele>
        <time>2026-08-09T10:53:03Z</time>
      </trkpt>
      <trkpt lat="45.04739" lon="6.09342">
        <ele>1183.4</ele>
        <time>2026-08-09T10:53:04Z</time>
      </trkpt>
      <trkpt lat="45.04743" lon="6.09347">
        <ele>1183.6</ele>
        <time>2026-08-09T10:53:06Z</time>
      </trkpt>
      <trkpt lat="45.04746" lon="6.09353">
        <ele>1183.4</ele>
        <time>2026-08-09T10:53:08Z</time>
      </trkpt>
      <trkpt lat="45.04748" lon="6.09356">
        <ele>1183.4</ele>
        <time>2026-08-09T10:53:09Z</time>
      </trkpt>
      <trkpt lat="45.04749" lon="6.09358">
        <ele>1183.4</ele>
        <time>2026-08-09T10:53:10Z</time>
      </trkpt>
      <trkpt lat="45.04751" lon="6.09364">
        <ele>1183.6</ele>
        <time>2026-08-09T10:53:12Z</time>
      </trkpt>
      <trkpt lat="45.04754" lon="6.09368">
        <ele>1183.6</ele>
        <time>2026-08-09T10:53:14Z</time>
      </trkpt>
      <trkpt lat="45.04756" lon="6.09373">
        <ele>1183.6</ele>
        <time>2026-08-09T10:53:16Z</time>
      </trkpt>
      <trkpt lat="45.04758" lon="6.09378">
        <ele>1183.6</ele>
        <time>2026-08-09T10:53:18Z</time>
      </trkpt>
      <trkpt lat="45.04761" lon="6.09384">
        <ele>1183.6</ele>
        <time>2026-08-09T10:53:20Z</time>
      </trkpt>
      <trkpt lat="45.04765" lon="6.09391">
        <ele>1183.6</ele>
        <time>2026-08-09T10:53:22Z</time>
      </trkpt>
      <trkpt lat="45.04768" lon="6.09398">
        <ele>1183.6</ele>
        <time>2026-08-09T10:53:24Z</time>
      </trkpt>
      <trkpt lat="45.04771" lon="6.09405">
        <ele>1183.6</ele>
        <time>2026-08-09T10:53:26Z</time>
      </trkpt>
      <trkpt lat="45.04773" lon="6.09412">
        <ele>1183.6</ele>
        <time>2026-08-09T10:53:28Z</time>
      </trkpt>
      <trkpt lat="45.04774" lon="6.09416">
        <ele>1183.6</ele>
        <time>2026-08-09T10:53:29Z</time>
      </trkpt>
      <trkpt lat="45.04774" lon="6.0942">
        <ele>1183.4</ele>
        <time>2026-08-09T10:53:30Z</time>
      </trkpt>
      <trkpt lat="45.04775" lon="6.0943">
        <ele>1183.4</ele>
        <time>2026-08-09T10:53:32Z</time>
      </trkpt>
      <trkpt lat="45.04777" lon="6.0944">
        <ele>1183.4</ele>
        <time>2026-08-09T10:53:34Z</time>
      </trkpt>
      <trkpt lat="45.04777" lon="6.09446">
        <ele>1183.4</ele>
        <time>2026-08-09T10:53:35Z</time>
      </trkpt>
      <trkpt lat="45.04776" lon="6.09451">
        <ele>1183.4</ele>
        <time>2026-08-09T10:53:36Z</time>
      </trkpt>
      <trkpt lat="45.04776" lon="6.09462">
        <ele>1183.4</ele>
        <time>2026-08-09T10:53:38Z</time>
      </trkpt>
      <trkpt lat="45.04776" lon="6.09473">
        <ele>1183.4</ele>
        <time>2026-08-09T10:53:40Z</time>
      </trkpt>
      <trkpt lat="45.04776" lon="6.09484">
        <ele>1183.2</ele>
        <time>2026-08-09T10:53:42Z</time>
      </trkpt>
      <trkpt lat="45.04776" lon="6.09496">
        <ele>1183.2</ele>
        <time>2026-08-09T10:53:44Z</time>
      </trkpt>
      <trkpt lat="45.04777" lon="6.09508">
        <ele>1183.2</ele>
        <time>2026-08-09T10:53:46Z</time>
      </trkpt>
      <trkpt lat="45.04778" lon="6.09521">
        <ele>1183.2</ele>
        <time>2026-08-09T10:53:48Z</time>
      </trkpt>
      <trkpt lat="45.04779" lon="6.09527">
        <ele>1183.2</ele>
        <time>2026-08-09T10:53:49Z</time>
      </trkpt>
      <trkpt lat="45.04779" lon="6.09534">
        <ele>1183.2</ele>
        <time>2026-08-09T10:53:50Z</time>
      </trkpt>
      <trkpt lat="45.04781" lon="6.09547">
        <ele>1183</ele>
        <time>2026-08-09T10:53:52Z</time>
      </trkpt>
      <trkpt lat="45.04784" lon="6.09562">
        <ele>1182.8</ele>
        <time>2026-08-09T10:53:54Z</time>
      </trkpt>
      <trkpt lat="45.04785" lon="6.09578">
        <ele>1182.8</ele>
        <time>2026-08-09T10:53:56Z</time>
      </trkpt>
      <trkpt lat="45.04787" lon="6.09586">
        <ele>1182.6</ele>
        <time>2026-08-09T10:53:57Z</time>
      </trkpt>
      <trkpt lat="45.04788" lon="6.09594">
        <ele>1182.6</ele>
        <time>2026-08-09T10:53:58Z</time>
      </trkpt>
      <trkpt lat="45.0479" lon="6.09611">
        <ele>1182.2</ele>
        <time>2026-08-09T10:54:00Z</time>
      </trkpt>
      <trkpt lat="45.04791" lon="6.0963">
        <ele>1182.2</ele>
        <time>2026-08-09T10:54:02Z</time>
      </trkpt>
      <trkpt lat="45.04792" lon="6.09651">
        <ele>1181.6</ele>
        <time>2026-08-09T10:54:04Z</time>
      </trkpt>
      <trkpt lat="45.04792" lon="6.09672">
        <ele>1180.8</ele>
        <time>2026-08-09T10:54:06Z</time>
      </trkpt>
      <trkpt lat="45.04791" lon="6.09695">
        <ele>1180.2</ele>
        <time>2026-08-09T10:54:08Z</time>
      </trkpt>
      <trkpt lat="45.04788" lon="6.09718">
        <ele>1179.4</ele>
        <time>2026-08-09T10:54:10Z</time>
      </trkpt>
      <trkpt lat="45.04788" lon="6.09744">
        <ele>1178.6</ele>
        <time>2026-08-09T10:54:12Z</time>
      </trkpt>
      <trkpt lat="45.04788" lon="6.09757">
        <ele>1177.8</ele>
        <time>2026-08-09T10:54:13Z</time>
      </trkpt>
      <trkpt lat="45.0479" lon="6.0977">
        <ele>1177</ele>
        <time>2026-08-09T10:54:14Z</time>
      </trkpt>
      <trkpt lat="45.04795" lon="6.09797">
        <ele>1175.8</ele>
        <time>2026-08-09T10:54:16Z</time>
      </trkpt>
      <trkpt lat="45.04801" lon="6.0981">
        <ele>1175.2</ele>
        <time>2026-08-09T10:54:17Z</time>
      </trkpt>
      <trkpt lat="45.04805" lon="6.09823">
        <ele>1174.2</ele>
        <time>2026-08-09T10:54:18Z</time>
      </trkpt>
      <trkpt lat="45.0481" lon="6.09836">
        <ele>1173.2</ele>
        <time>2026-08-09T10:54:19Z</time>
      </trkpt>
      <trkpt lat="45.04815" lon="6.09849">
        <ele>1172.6</ele>
        <time>2026-08-09T10:54:20Z</time>
      </trkpt>
      <trkpt lat="45.04827" lon="6.09874">
        <ele>1171.4</ele>
        <time>2026-08-09T10:54:22Z</time>
      </trkpt>
      <trkpt lat="45.04835" lon="6.09883">
        <ele>1169.4</ele>
        <time>2026-08-09T10:54:23Z</time>
      </trkpt>
      <trkpt lat="45.04843" lon="6.0989">
        <ele>1168.4</ele>
        <time>2026-08-09T10:54:24Z</time>
      </trkpt>
      <trkpt lat="45.04851" lon="6.09896">
        <ele>1167.2</ele>
        <time>2026-08-09T10:54:25Z</time>
      </trkpt>
      <trkpt lat="45.0486" lon="6.09903">
        <ele>1166.6</ele>
        <time>2026-08-09T10:54:26Z</time>
      </trkpt>
      <trkpt lat="45.04865" lon="6.09912">
        <ele>1166.2</ele>
        <time>2026-08-09T10:54:27Z</time>
      </trkpt>
      <trkpt lat="45.04869" lon="6.09924">
        <ele>1165.8</ele>
        <time>2026-08-09T10:54:28Z</time>
      </trkpt>
      <trkpt lat="45.04872" lon="6.09951">
        <ele>1165.6</ele>
        <time>2026-08-09T10:54:30Z</time>
      </trkpt>
      <trkpt lat="45.04871" lon="6.09964">
        <ele>1165.4</ele>
        <time>2026-08-09T10:54:31Z</time>
      </trkpt>
      <trkpt lat="45.0487" lon="6.09978">
        <ele>1165.4</ele>
        <time>2026-08-09T10:54:32Z</time>
      </trkpt>
      <trkpt lat="45.04868" lon="6.09992">
        <ele>1165</ele>
        <time>2026-08-09T10:54:33Z</time>
      </trkpt>
      <trkpt lat="45.04865" lon="6.10005">
        <ele>1164.6</ele>
        <time>2026-08-09T10:54:34Z</time>
      </trkpt>
      <trkpt lat="45.04861" lon="6.10017">
        <ele>1163.6</ele>
        <time>2026-08-09T10:54:35Z</time>
      </trkpt>
      <trkpt lat="45.04855" lon="6.10028">
        <ele>1162.4</ele>
        <time>2026-08-09T10:54:36Z</time>
      </trkpt>
      <trkpt lat="45.0484" lon="6.10048">
        <ele>1161</ele>
        <time>2026-08-09T10:54:38Z</time>
      </trkpt>
      <trkpt lat="45.04834" lon="6.10058">
        <ele>1160.6</ele>
        <time>2026-08-09T10:54:39Z</time>
      </trkpt>
      <trkpt lat="45.04828" lon="6.1007">
        <ele>1160.4</ele>
        <time>2026-08-09T10:54:40Z</time>
      </trkpt>
      <trkpt lat="45.04826" lon="6.10083">
        <ele>1159.6</ele>
        <time>2026-08-09T10:54:41Z</time>
      </trkpt>
      <trkpt lat="45.04826" lon="6.10095">
        <ele>1158.8</ele>
        <time>2026-08-09T10:54:42Z</time>
      </trkpt>
      <trkpt lat="45.04827" lon="6.10106">
        <ele>1158</ele>
        <time>2026-08-09T10:54:43Z</time>
      </trkpt>
      <trkpt lat="45.04832" lon="6.10116">
        <ele>1157.4</ele>
        <time>2026-08-09T10:54:44Z</time>
      </trkpt>
      <trkpt lat="45.04837" lon="6.10125">
        <ele>1156.8</ele>
        <time>2026-08-09T10:54:45Z</time>
      </trkpt>
      <trkpt lat="45.04842" lon="6.10133">
        <ele>1156.2</ele>
        <time>2026-08-09T10:54:46Z</time>
      </trkpt>
      <trkpt lat="45.04848" lon="6.10142">
        <ele>1155.8</ele>
        <time>2026-08-09T10:54:47Z</time>
      </trkpt>
      <trkpt lat="45.04854" lon="6.1015">
        <ele>1155.6</ele>
        <time>2026-08-09T10:54:48Z</time>
      </trkpt>
      <trkpt lat="45.04865" lon="6.10165">
        <ele>1155.2</ele>
        <time>2026-08-09T10:54:50Z</time>
      </trkpt>
      <trkpt lat="45.04876" lon="6.1018">
        <ele>1154.4</ele>
        <time>2026-08-09T10:54:52Z</time>
      </trkpt>
      <trkpt lat="45.04886" lon="6.10194">
        <ele>1153.4</ele>
        <time>2026-08-09T10:54:54Z</time>
      </trkpt>
      <trkpt lat="45.04892" lon="6.102">
        <ele>1153.2</ele>
        <time>2026-08-09T10:54:55Z</time>
      </trkpt>
      <trkpt lat="45.04897" lon="6.10206">
        <ele>1153.2</ele>
        <time>2026-08-09T10:54:56Z</time>
      </trkpt>
      <trkpt lat="45.04909" lon="6.10214">
        <ele>1153</ele>
        <time>2026-08-09T10:54:58Z</time>
      </trkpt>
      <trkpt lat="45.04916" lon="6.10215">
        <ele>1153</ele>
        <time>2026-08-09T10:54:59Z</time>
      </trkpt>
      <trkpt lat="45.04922" lon="6.10217">
        <ele>1153</ele>
        <time>2026-08-09T10:55:00Z</time>
      </trkpt>
      <trkpt lat="45.04933" lon="6.10221">
        <ele>1153</ele>
        <time>2026-08-09T10:55:02Z</time>
      </trkpt>
      <trkpt lat="45.04944" lon="6.10224">
        <ele>1153</ele>
        <time>2026-08-09T10:55:04Z</time>
      </trkpt>
      <trkpt lat="45.04948" lon="6.10227">
        <ele>1153.2</ele>
        <time>2026-08-09T10:55:05Z</time>
      </trkpt>
      <trkpt lat="45.04953" lon="6.1023">
        <ele>1153.2</ele>
        <time>2026-08-09T10:55:06Z</time>
      </trkpt>
      <trkpt lat="45.04957" lon="6.10233">
        <ele>1153.4</ele>
        <time>2026-08-09T10:55:07Z</time>
      </trkpt>
      <trkpt lat="45.0496" lon="6.10238">
        <ele>1153.6</ele>
        <time>2026-08-09T10:55:08Z</time>
      </trkpt>
      <trkpt lat="45.04962" lon="6.10245">
        <ele>1153.8</ele>
        <time>2026-08-09T10:55:09Z</time>
      </trkpt>
      <trkpt lat="45.04962" lon="6.10251">
        <ele>1153.8</ele>
        <time>2026-08-09T10:55:10Z</time>
      </trkpt>
      <trkpt lat="45.04958" lon="6.10261">
        <ele>1154</ele>
        <time>2026-08-09T10:55:12Z</time>
      </trkpt>
      <trkpt lat="45.04953" lon="6.10267">
        <ele>1154</ele>
        <time>2026-08-09T10:55:14Z</time>
      </trkpt>
      <trkpt lat="45.04945" lon="6.1027">
        <ele>1154.2</ele>
        <time>2026-08-09T10:55:16Z</time>
      </trkpt>
      <trkpt lat="45.04942" lon="6.10272">
        <ele>1154.4</ele>
        <time>2026-08-09T10:55:17Z</time>
      </trkpt>
      <trkpt lat="45.04938" lon="6.10274">
        <ele>1154.4</ele>
        <time>2026-08-09T10:55:18Z</time>
      </trkpt>
      <trkpt lat="45.04931" lon="6.10277">
        <ele>1155</ele>
        <time>2026-08-09T10:55:20Z</time>
      </trkpt>
      <trkpt lat="45.04928" lon="6.10279">
        <ele>1155.4</ele>
        <time>2026-08-09T10:55:21Z</time>
      </trkpt>
      <trkpt lat="45.04924" lon="6.1028">
        <ele>1155.6</ele>
        <time>2026-08-09T10:55:22Z</time>
      </trkpt>
      <trkpt lat="45.04918" lon="6.10285">
        <ele>1156</ele>
        <time>2026-08-09T10:55:24Z</time>
      </trkpt>
      <trkpt lat="45.04911" lon="6.10289">
        <ele>1156.2</ele>
        <time>2026-08-09T10:55:26Z</time>
      </trkpt>
      <trkpt lat="45.04905" lon="6.10293">
        <ele>1156.6</ele>
        <time>2026-08-09T10:55:28Z</time>
      </trkpt>
      <trkpt lat="45.04902" lon="6.10295">
        <ele>1156.8</ele>
        <time>2026-08-09T10:55:29Z</time>
      </trkpt>
      <trkpt lat="45.049" lon="6.10297">
        <ele>1156.8</ele>
        <time>2026-08-09T10:55:30Z</time>
      </trkpt>
      <trkpt lat="45.04894" lon="6.10303">
        <ele>1157</ele>
        <time>2026-08-09T10:55:32Z</time>
      </trkpt>
      <trkpt lat="45.04889" lon="6.10307">
        <ele>1157.4</ele>
        <time>2026-08-09T10:55:34Z</time>
      </trkpt>
      <trkpt lat="45.04886" lon="6.10309">
        <ele>1157.6</ele>
        <time>2026-08-09T10:55:35Z</time>
      </trkpt>
      <trkpt lat="45.04884" lon="6.10311">
        <ele>1157.8</ele>
        <time>2026-08-09T10:55:36Z</time>
      </trkpt>
      <trkpt lat="45.04879" lon="6.10316">
        <ele>1158</ele>
        <time>2026-08-09T10:55:38Z</time>
      </trkpt>
      <trkpt lat="45.04874" lon="6.10321">
        <ele>1158.4</ele>
        <time>2026-08-09T10:55:40Z</time>
      </trkpt>
      <trkpt lat="45.04871" lon="6.10323">
        <ele>1158.6</ele>
        <time>2026-08-09T10:55:41Z</time>
      </trkpt>
      <trkpt lat="45.04868" lon="6.10326">
        <ele>1158.8</ele>
        <time>2026-08-09T10:55:42Z</time>
      </trkpt>
      <trkpt lat="45.04863" lon="6.1033">
        <ele>1159</ele>
        <time>2026-08-09T10:55:44Z</time>
      </trkpt>
      <trkpt lat="45.04859" lon="6.10333">
        <ele>1159.2</ele>
        <time>2026-08-09T10:55:46Z</time>
      </trkpt>
      <trkpt lat="45.04854" lon="6.10337">
        <ele>1159.6</ele>
        <time>2026-08-09T10:55:48Z</time>
      </trkpt>
      <trkpt lat="45.0485" lon="6.1034">
        <ele>1159.8</ele>
        <time>2026-08-09T10:55:50Z</time>
      </trkpt>
      <trkpt lat="45.04847" lon="6.10342">
        <ele>1159.8</ele>
        <time>2026-08-09T10:55:51Z</time>
      </trkpt>
      <trkpt lat="45.04844" lon="6.10344">
        <ele>1160.4</ele>
        <time>2026-08-09T10:55:52Z</time>
      </trkpt>
      <trkpt lat="45.04842" lon="6.10347">
        <ele>1160.6</ele>
        <time>2026-08-09T10:55:53Z</time>
      </trkpt>
      <trkpt lat="45.0484" lon="6.10349">
        <ele>1160.6</ele>
        <time>2026-08-09T10:55:54Z</time>
      </trkpt>
      <trkpt lat="45.04835" lon="6.10354">
        <ele>1161</ele>
        <time>2026-08-09T10:55:56Z</time>
      </trkpt>
      <trkpt lat="45.04833" lon="6.10355">
        <ele>1161.2</ele>
        <time>2026-08-09T10:55:57Z</time>
      </trkpt>
      <trkpt lat="45.0483" lon="6.10357">
        <ele>1161.6</ele>
        <time>2026-08-09T10:55:58Z</time>
      </trkpt>
      <trkpt lat="45.04827" lon="6.10359">
        <ele>1162</ele>
        <time>2026-08-09T10:56:00Z</time>
      </trkpt>
      <trkpt lat="45.04823" lon="6.10361">
        <ele>1162.4</ele>
        <time>2026-08-09T10:56:02Z</time>
      </trkpt>
      <trkpt lat="45.0482" lon="6.10363">
        <ele>1163</ele>
        <time>2026-08-09T10:56:04Z</time>
      </trkpt>
      <trkpt lat="45.04816" lon="6.10365">
        <ele>1163.4</ele>
        <time>2026-08-09T10:56:06Z</time>
      </trkpt>
      <trkpt lat="45.04815" lon="6.10366">
        <ele>1163.6</ele>
        <time>2026-08-09T10:56:07Z</time>
      </trkpt>
      <trkpt lat="45.04813" lon="6.10366">
        <ele>1163.8</ele>
        <time>2026-08-09T10:56:08Z</time>
      </trkpt>
      <trkpt lat="45.0481" lon="6.10368">
        <ele>1164.2</ele>
        <time>2026-08-09T10:56:10Z</time>
      </trkpt>
      <trkpt lat="45.04807" lon="6.10371">
        <ele>1164.4</ele>
        <time>2026-08-09T10:56:12Z</time>
      </trkpt>
      <trkpt lat="45.04804" lon="6.10373">
        <ele>1164.6</ele>
        <time>2026-08-09T10:56:13Z</time>
      </trkpt>
      <trkpt lat="45.04802" lon="6.10374">
        <ele>1164.8</ele>
        <time>2026-08-09T10:56:14Z</time>
      </trkpt>
      <trkpt lat="45.04797" lon="6.10376">
        <ele>1165.2</ele>
        <time>2026-08-09T10:56:16Z</time>
      </trkpt>
      <trkpt lat="45.04793" lon="6.10379">
        <ele>1165.6</ele>
        <time>2026-08-09T10:56:18Z</time>
      </trkpt>
      <trkpt lat="45.04791" lon="6.10381">
        <ele>1165.8</ele>
        <time>2026-08-09T10:56:19Z</time>
      </trkpt>
      <trkpt lat="45.0479" lon="6.10383">
        <ele>1165.8</ele>
        <time>2026-08-09T10:56:20Z</time>
      </trkpt>
      <trkpt lat="45.04787" lon="6.10387">
        <ele>1166.2</ele>
        <time>2026-08-09T10:56:22Z</time>
      </trkpt>
      <trkpt lat="45.04784" lon="6.10391">
        <ele>1166.6</ele>
        <time>2026-08-09T10:56:24Z</time>
      </trkpt>
      <trkpt lat="45.04782" lon="6.10394">
        <ele>1166.8</ele>
        <time>2026-08-09T10:56:26Z</time>
      </trkpt>
      <trkpt lat="45.0478" lon="6.10398">
        <ele>1167</ele>
        <time>2026-08-09T10:56:28Z</time>
      </trkpt>
      <trkpt lat="45.04779" lon="6.10402">
        <ele>1167.6</ele>
        <time>2026-08-09T10:56:30Z</time>
      </trkpt>
      <trkpt lat="45.04777" lon="6.10405">
        <ele>1168</ele>
        <time>2026-08-09T10:56:32Z</time>
      </trkpt>
      <trkpt lat="45.04776" lon="6.10408">
        <ele>1168.2</ele>
        <time>2026-08-09T10:56:33Z</time>
      </trkpt>
      <trkpt lat="45.04775" lon="6.1041">
        <ele>1168.4</ele>
        <time>2026-08-09T10:56:34Z</time>
      </trkpt>
      <trkpt lat="45.04774" lon="6.10413">
        <ele>1168.6</ele>
        <time>2026-08-09T10:56:36Z</time>
      </trkpt>
      <trkpt lat="45.04772" lon="6.10417">
        <ele>1169</ele>
        <time>2026-08-09T10:56:38Z</time>
      </trkpt>
      <trkpt lat="45.04771" lon="6.1042">
        <ele>1169.2</ele>
        <time>2026-08-09T10:56:40Z</time>
      </trkpt>
      <trkpt lat="45.04771" lon="6.10422">
        <ele>1169.4</ele>
        <time>2026-08-09T10:56:42Z</time>
      </trkpt>
      <trkpt lat="45.0477" lon="6.10424">
        <ele>1169.6</ele>
        <time>2026-08-09T10:56:43Z</time>
      </trkpt>
      <trkpt lat="45.04769" lon="6.10425">
        <ele>1169.6</ele>
        <time>2026-08-09T10:56:44Z</time>
      </trkpt>
      <trkpt lat="45.04768" lon="6.10429">
        <ele>1170.2</ele>
        <time>2026-08-09T10:56:46Z</time>
      </trkpt>
      <trkpt lat="45.04767" lon="6.10432">
        <ele>1170.4</ele>
        <time>2026-08-09T10:56:48Z</time>
      </trkpt>
      <trkpt lat="45.04765" lon="6.10435">
        <ele>1170.4</ele>
        <time>2026-08-09T10:56:50Z</time>
      </trkpt>
      <trkpt lat="45.04762" lon="6.10439">
        <ele>1170.8</ele>
        <time>2026-08-09T10:56:52Z</time>
      </trkpt>
      <trkpt lat="45.04758" lon="6.10442">
        <ele>1171</ele>
        <time>2026-08-09T10:56:54Z</time>
      </trkpt>
      <trkpt lat="45.04756" lon="6.10446">
        <ele>1171.4</ele>
        <time>2026-08-09T10:56:56Z</time>
      </trkpt>
      <trkpt lat="45.04755" lon="6.10447">
        <ele>1171.4</ele>
        <time>2026-08-09T10:56:57Z</time>
      </trkpt>
      <trkpt lat="45.04754" lon="6.10449">
        <ele>1171.6</ele>
        <time>2026-08-09T10:56:58Z</time>
      </trkpt>
      <trkpt lat="45.04752" lon="6.10452">
        <ele>1171.8</ele>
        <time>2026-08-09T10:57:00Z</time>
      </trkpt>
      <trkpt lat="45.04749" lon="6.10456">
        <ele>1172.2</ele>
        <time>2026-08-09T10:57:02Z</time>
      </trkpt>
      <trkpt lat="45.04747" lon="6.1046">
        <ele>1172.4</ele>
        <time>2026-08-09T10:57:04Z</time>
      </trkpt>
      <trkpt lat="45.04746" lon="6.10464">
        <ele>1172.8</ele>
        <time>2026-08-09T10:57:06Z</time>
      </trkpt>
      <trkpt lat="45.04744" lon="6.10468">
        <ele>1173.2</ele>
        <time>2026-08-09T10:57:08Z</time>
      </trkpt>
      <trkpt lat="45.04743" lon="6.10472">
        <ele>1173.4</ele>
        <time>2026-08-09T10:57:10Z</time>
      </trkpt>
      <trkpt lat="45.04744" lon="6.10473">
        <ele>1173.6</ele>
        <time>2026-08-09T10:57:11Z</time>
      </trkpt>
      <trkpt lat="45.04743" lon="6.10474">
        <ele>1173.6</ele>
        <time>2026-08-09T10:57:12Z</time>
      </trkpt>
      <trkpt lat="45.04742" lon="6.10479">
        <ele>1174</ele>
        <time>2026-08-09T10:57:14Z</time>
      </trkpt>
      <trkpt lat="45.0474" lon="6.10483">
        <ele>1174.4</ele>
        <time>2026-08-09T10:57:16Z</time>
      </trkpt>
      <trkpt lat="45.04737" lon="6.10487">
        <ele>1174.8</ele>
        <time>2026-08-09T10:57:18Z</time>
      </trkpt>
      <trkpt lat="45.04736" lon="6.10489">
        <ele>1174.8</ele>
        <time>2026-08-09T10:57:19Z</time>
      </trkpt>
      <trkpt lat="45.04735" lon="6.10491">
        <ele>1175</ele>
        <time>2026-08-09T10:57:20Z</time>
      </trkpt>
      <trkpt lat="45.04734" lon="6.10495">
        <ele>1175.2</ele>
        <time>2026-08-09T10:57:22Z</time>
      </trkpt>
      <trkpt lat="45.04732" lon="6.10498">
        <ele>1175.6</ele>
        <time>2026-08-09T10:57:24Z</time>
      </trkpt>
      <trkpt lat="45.04731" lon="6.105">
        <ele>1175.6</ele>
        <time>2026-08-09T10:57:25Z</time>
      </trkpt>
      <trkpt lat="45.04731" lon="6.10502">
        <ele>1175.8</ele>
        <time>2026-08-09T10:57:26Z</time>
      </trkpt>
      <trkpt lat="45.04728" lon="6.10507">
        <ele>1176</ele>
        <time>2026-08-09T10:57:28Z</time>
      </trkpt>
      <trkpt lat="45.04726" lon="6.10511">
        <ele>1176.4</ele>
        <time>2026-08-09T10:57:30Z</time>
      </trkpt>
      <trkpt lat="45.04725" lon="6.10513">
        <ele>1176.4</ele>
        <time>2026-08-09T10:57:31Z</time>
      </trkpt>
      <trkpt lat="45.04724" lon="6.10515">
        <ele>1176.6</ele>
        <time>2026-08-09T10:57:32Z</time>
      </trkpt>
      <trkpt lat="45.04722" lon="6.10519">
        <ele>1176.8</ele>
        <time>2026-08-09T10:57:34Z</time>
      </trkpt>
      <trkpt lat="45.0472" lon="6.10523">
        <ele>1177</ele>
        <time>2026-08-09T10:57:36Z</time>
      </trkpt>
      <trkpt lat="45.04719" lon="6.10527">
        <ele>1177.4</ele>
        <time>2026-08-09T10:57:38Z</time>
      </trkpt>
      <trkpt lat="45.04719" lon="6.10529">
        <ele>1177.6</ele>
        <time>2026-08-09T10:57:39Z</time>
      </trkpt>
      <trkpt lat="45.04718" lon="6.10531">
        <ele>1177.6</ele>
        <time>2026-08-09T10:57:40Z</time>
      </trkpt>
      <trkpt lat="45.04718" lon="6.10533">
        <ele>1178</ele>
        <time>2026-08-09T10:57:41Z</time>
      </trkpt>
      <trkpt lat="45.04718" lon="6.10535">
        <ele>1178</ele>
        <time>2026-08-09T10:57:42Z</time>
      </trkpt>
      <trkpt lat="45.04717" lon="6.10538">
        <ele>1178.2</ele>
        <time>2026-08-09T10:57:44Z</time>
      </trkpt>
      <trkpt lat="45.04716" lon="6.10542">
        <ele>1178.6</ele>
        <time>2026-08-09T10:57:46Z</time>
      </trkpt>
      <trkpt lat="45.04716" lon="6.10543">
        <ele>1178.8</ele>
        <time>2026-08-09T10:57:47Z</time>
      </trkpt>
      <trkpt lat="45.04715" lon="6.10545">
        <ele>1178.8</ele>
        <time>2026-08-09T10:57:48Z</time>
      </trkpt>
      <trkpt lat="45.04713" lon="6.10549">
        <ele>1179</ele>
        <time>2026-08-09T10:57:50Z</time>
      </trkpt>
      <trkpt lat="45.04711" lon="6.10553">
        <ele>1179.4</ele>
        <time>2026-08-09T10:57:52Z</time>
      </trkpt>
      <trkpt lat="45.04709" lon="6.10557">
        <ele>1179.6</ele>
        <time>2026-08-09T10:57:54Z</time>
      </trkpt>
      <trkpt lat="45.04707" lon="6.10563">
        <ele>1180</ele>
        <time>2026-08-09T10:57:56Z</time>
      </trkpt>
      <trkpt lat="45.04706" lon="6.10565">
        <ele>1180.2</ele>
        <time>2026-08-09T10:57:57Z</time>
      </trkpt>
      <trkpt lat="45.04705" lon="6.10568">
        <ele>1180.4</ele>
        <time>2026-08-09T10:57:58Z</time>
      </trkpt>
      <trkpt lat="45.04703" lon="6.10573">
        <ele>1180.8</ele>
        <time>2026-08-09T10:58:00Z</time>
      </trkpt>
      <trkpt lat="45.047" lon="6.10579">
        <ele>1181.4</ele>
        <time>2026-08-09T10:58:02Z</time>
      </trkpt>
      <trkpt lat="45.04699" lon="6.10581">
        <ele>1181.4</ele>
        <time>2026-08-09T10:58:03Z</time>
      </trkpt>
      <trkpt lat="45.04698" lon="6.10584">
        <ele>1181.6</ele>
        <time>2026-08-09T10:58:04Z</time>
      </trkpt>
      <trkpt lat="45.04696" lon="6.10589">
        <ele>1181.8</ele>
        <time>2026-08-09T10:58:06Z</time>
      </trkpt>
      <trkpt lat="45.04695" lon="6.10594">
        <ele>1182</ele>
        <time>2026-08-09T10:58:08Z</time>
      </trkpt>
      <trkpt lat="45.04694" lon="6.10599">
        <ele>1182.8</ele>
        <time>2026-08-09T10:58:10Z</time>
      </trkpt>
      <trkpt lat="45.04693" lon="6.10603">
        <ele>1183.2</ele>
        <time>2026-08-09T10:58:12Z</time>
      </trkpt>
      <trkpt lat="45.04692" lon="6.10607">
        <ele>1183.6</ele>
        <time>2026-08-09T10:58:14Z</time>
      </trkpt>
      <trkpt lat="45.04693" lon="6.1061">
        <ele>1183.8</ele>
        <time>2026-08-09T10:58:15Z</time>
      </trkpt>
      <trkpt lat="45.04692" lon="6.10613">
        <ele>1184</ele>
        <time>2026-08-09T10:58:16Z</time>
      </trkpt>
      <trkpt lat="45.04691" lon="6.10618">
        <ele>1184.2</ele>
        <time>2026-08-09T10:58:18Z</time>
      </trkpt>
      <trkpt lat="45.04691" lon="6.1062">
        <ele>1184.4</ele>
        <time>2026-08-09T10:58:19Z</time>
      </trkpt>
      <trkpt lat="45.0469" lon="6.10623">
        <ele>1184.6</ele>
        <time>2026-08-09T10:58:20Z</time>
      </trkpt>
      <trkpt lat="45.04689" lon="6.10628">
        <ele>1184.8</ele>
        <time>2026-08-09T10:58:22Z</time>
      </trkpt>
      <trkpt lat="45.04688" lon="6.10633">
        <ele>1185.2</ele>
        <time>2026-08-09T10:58:24Z</time>
      </trkpt>
      <trkpt lat="45.04687" lon="6.10635">
        <ele>1185.4</ele>
        <time>2026-08-09T10:58:25Z</time>
      </trkpt>
      <trkpt lat="45.04687" lon="6.10637">
        <ele>1185.6</ele>
        <time>2026-08-09T10:58:26Z</time>
      </trkpt>
      <trkpt lat="45.04686" lon="6.10642">
        <ele>1185.8</ele>
        <time>2026-08-09T10:58:28Z</time>
      </trkpt>
      <trkpt lat="45.04686" lon="6.10644">
        <ele>1185.8</ele>
        <time>2026-08-09T10:58:29Z</time>
      </trkpt>
      <trkpt lat="45.04686" lon="6.10646">
        <ele>1186</ele>
        <time>2026-08-09T10:58:30Z</time>
      </trkpt>
      <trkpt lat="45.04684" lon="6.10651">
        <ele>1186.2</ele>
        <time>2026-08-09T10:58:32Z</time>
      </trkpt>
      <trkpt lat="45.04684" lon="6.10653">
        <ele>1186.4</ele>
        <time>2026-08-09T10:58:33Z</time>
      </trkpt>
      <trkpt lat="45.04684" lon="6.10655">
        <ele>1186.6</ele>
        <time>2026-08-09T10:58:34Z</time>
      </trkpt>
      <trkpt lat="45.04682" lon="6.1066">
        <ele>1186.8</ele>
        <time>2026-08-09T10:58:36Z</time>
      </trkpt>
      <trkpt lat="45.04681" lon="6.10663">
        <ele>1187</ele>
        <time>2026-08-09T10:58:37Z</time>
      </trkpt>
      <trkpt lat="45.0468" lon="6.10666">
        <ele>1187.2</ele>
        <time>2026-08-09T10:58:38Z</time>
      </trkpt>
      <trkpt lat="45.04678" lon="6.10671">
        <ele>1187.6</ele>
        <time>2026-08-09T10:58:40Z</time>
      </trkpt>
      <trkpt lat="45.04677" lon="6.10673">
        <ele>1187.8</ele>
        <time>2026-08-09T10:58:41Z</time>
      </trkpt>
      <trkpt lat="45.04676" lon="6.10675">
        <ele>1188</ele>
        <time>2026-08-09T10:58:42Z</time>
      </trkpt>
      <trkpt lat="45.04674" lon="6.10678">
        <ele>1188</ele>
        <time>2026-08-09T10:58:43Z</time>
      </trkpt>
      <trkpt lat="45.04673" lon="6.1068">
        <ele>1188.2</ele>
        <time>2026-08-09T10:58:44Z</time>
      </trkpt>
      <trkpt lat="45.04669" lon="6.10686">
        <ele>1188.6</ele>
        <time>2026-08-09T10:58:46Z</time>
      </trkpt>
      <trkpt lat="45.04667" lon="6.1069">
        <ele>1188.8</ele>
        <time>2026-08-09T10:58:48Z</time>
      </trkpt>
      <trkpt lat="45.04665" lon="6.10695">
        <ele>1189.2</ele>
        <time>2026-08-09T10:58:50Z</time>
      </trkpt>
      <trkpt lat="45.04662" lon="6.107">
        <ele>1189.4</ele>
        <time>2026-08-09T10:58:52Z</time>
      </trkpt>
      <trkpt lat="45.04661" lon="6.10702">
        <ele>1189.6</ele>
        <time>2026-08-09T10:58:53Z</time>
      </trkpt>
      <trkpt lat="45.0466" lon="6.10704">
        <ele>1189.8</ele>
        <time>2026-08-09T10:58:54Z</time>
      </trkpt>
      <trkpt lat="45.04658" lon="6.10709">
        <ele>1190</ele>
        <time>2026-08-09T10:58:56Z</time>
      </trkpt>
      <trkpt lat="45.04655" lon="6.10713">
        <ele>1190.4</ele>
        <time>2026-08-09T10:58:58Z</time>
      </trkpt>
      <trkpt lat="45.04652" lon="6.10716">
        <ele>1190.8</ele>
        <time>2026-08-09T10:59:00Z</time>
      </trkpt>
      <trkpt lat="45.0465" lon="6.10719">
        <ele>1191.2</ele>
        <time>2026-08-09T10:59:02Z</time>
      </trkpt>
      <trkpt lat="45.04649" lon="6.1072">
        <ele>1191.4</ele>
        <time>2026-08-09T10:59:03Z</time>
      </trkpt>
      <trkpt lat="45.04648" lon="6.10722">
        <ele>1191.6</ele>
        <time>2026-08-09T10:59:04Z</time>
      </trkpt>
      <trkpt lat="45.04644" lon="6.10725">
        <ele>1192</ele>
        <time>2026-08-09T10:59:06Z</time>
      </trkpt>
      <trkpt lat="45.04643" lon="6.10726">
        <ele>1192.4</ele>
        <time>2026-08-09T10:59:07Z</time>
      </trkpt>
      <trkpt lat="45.04642" lon="6.10728">
        <ele>1192.6</ele>
        <time>2026-08-09T10:59:08Z</time>
      </trkpt>
      <trkpt lat="45.04638" lon="6.10731">
        <ele>1193</ele>
        <time>2026-08-09T10:59:10Z</time>
      </trkpt>
      <trkpt lat="45.04636" lon="6.10734">
        <ele>1193.2</ele>
        <time>2026-08-09T10:59:12Z</time>
      </trkpt>
      <trkpt lat="45.04633" lon="6.10737">
        <ele>1193.6</ele>
        <time>2026-08-09T10:59:14Z</time>
      </trkpt>
      <trkpt lat="45.0463" lon="6.1074">
        <ele>1194</ele>
        <time>2026-08-09T10:59:15Z</time>
      </trkpt>
      <trkpt lat="45.04628" lon="6.10741">
        <ele>1194</ele>
        <time>2026-08-09T10:59:16Z</time>
      </trkpt>
      <trkpt lat="45.04625" lon="6.10745">
        <ele>1194.2</ele>
        <time>2026-08-09T10:59:18Z</time>
      </trkpt>
      <trkpt lat="45.04622" lon="6.10747">
        <ele>1194.6</ele>
        <time>2026-08-09T10:59:20Z</time>
      </trkpt>
      <trkpt lat="45.0462" lon="6.10749">
        <ele>1194.8</ele>
        <time>2026-08-09T10:59:21Z</time>
      </trkpt>
      <trkpt lat="45.04619" lon="6.1075">
        <ele>1195</ele>
        <time>2026-08-09T10:59:22Z</time>
      </trkpt>
      <trkpt lat="45.04617" lon="6.10752">
        <ele>1195.6</ele>
        <time>2026-08-09T10:59:24Z</time>
      </trkpt>
      <trkpt lat="45.04614" lon="6.10754">
        <ele>1195.8</ele>
        <time>2026-08-09T10:59:26Z</time>
      </trkpt>
      <trkpt lat="45.04611" lon="6.10758">
        <ele>1196.2</ele>
        <time>2026-08-09T10:59:28Z</time>
      </trkpt>
      <trkpt lat="45.04608" lon="6.10761">
        <ele>1196.8</ele>
        <time>2026-08-09T10:59:30Z</time>
      </trkpt>
      <trkpt lat="45.04605" lon="6.10762">
        <ele>1197</ele>
        <time>2026-08-09T10:59:32Z</time>
      </trkpt>
      <trkpt lat="45.04599" lon="6.10764">
        <ele>1197.2</ele>
        <time>2026-08-09T10:59:34Z</time>
      </trkpt>
      <trkpt lat="45.04598" lon="6.10766">
        <ele>1197.4</ele>
        <time>2026-08-09T10:59:35Z</time>
      </trkpt>
      <trkpt lat="45.04596" lon="6.10767">
        <ele>1197.4</ele>
        <time>2026-08-09T10:59:36Z</time>
      </trkpt>
      <trkpt lat="45.04592" lon="6.1077">
        <ele>1198</ele>
        <time>2026-08-09T10:59:38Z</time>
      </trkpt>
      <trkpt lat="45.04589" lon="6.10772">
        <ele>1198.2</ele>
        <time>2026-08-09T10:59:40Z</time>
      </trkpt>
      <trkpt lat="45.04587" lon="6.10774">
        <ele>1198.4</ele>
        <time>2026-08-09T10:59:41Z</time>
      </trkpt>
      <trkpt lat="45.04585" lon="6.10775">
        <ele>1198.6</ele>
        <time>2026-08-09T10:59:42Z</time>
      </trkpt>
      <trkpt lat="45.04582" lon="6.10776">
        <ele>1198.8</ele>
        <time>2026-08-09T10:59:44Z</time>
      </trkpt>
      <trkpt lat="45.04577" lon="6.10779">
        <ele>1199.2</ele>
        <time>2026-08-09T10:59:46Z</time>
      </trkpt>
      <trkpt lat="45.04575" lon="6.1078">
        <ele>1199.4</ele>
        <time>2026-08-09T10:59:47Z</time>
      </trkpt>
      <trkpt lat="45.04573" lon="6.10782">
        <ele>1199.4</ele>
        <time>2026-08-09T10:59:48Z</time>
      </trkpt>
      <trkpt lat="45.04568" lon="6.10783">
        <ele>1199.8</ele>
        <time>2026-08-09T10:59:50Z</time>
      </trkpt>
      <trkpt lat="45.04564" lon="6.10786">
        <ele>1200</ele>
        <time>2026-08-09T10:59:52Z</time>
      </trkpt>
      <trkpt lat="45.04559" lon="6.10788">
        <ele>1200.4</ele>
        <time>2026-08-09T10:59:54Z</time>
      </trkpt>
      <trkpt lat="45.04557" lon="6.10789">
        <ele>1200.8</ele>
        <time>2026-08-09T10:59:55Z</time>
      </trkpt>
      <trkpt lat="45.04555" lon="6.1079">
        <ele>1201</ele>
        <time>2026-08-09T10:59:56Z</time>
      </trkpt>
      <trkpt lat="45.0455" lon="6.1079">
        <ele>1201.4</ele>
        <time>2026-08-09T10:59:58Z</time>
      </trkpt>
      <trkpt lat="45.04545" lon="6.1079">
        <ele>1201.6</ele>
        <time>2026-08-09T11:00:00Z</time>
      </trkpt>
      <trkpt lat="45.0454" lon="6.10791">
        <ele>1201.8</ele>
        <time>2026-08-09T11:00:02Z</time>
      </trkpt>
      <trkpt lat="45.04535" lon="6.10792">
        <ele>1202.2</ele>
        <time>2026-08-09T11:00:04Z</time>
      </trkpt>
      <trkpt lat="45.0453" lon="6.10793">
        <ele>1202.6</ele>
        <time>2026-08-09T11:00:06Z</time>
      </trkpt>
      <trkpt lat="45.04524" lon="6.10793">
        <ele>1202.8</ele>
        <time>2026-08-09T11:00:08Z</time>
      </trkpt>
      <trkpt lat="45.04522" lon="6.10793">
        <ele>1203</ele>
        <time>2026-08-09T11:00:09Z</time>
      </trkpt>
      <trkpt lat="45.04519" lon="6.10793">
        <ele>1203.2</ele>
        <time>2026-08-09T11:00:10Z</time>
      </trkpt>
      <trkpt lat="45.04516" lon="6.10793">
        <ele>1203.4</ele>
        <time>2026-08-09T11:00:11Z</time>
      </trkpt>
      <trkpt lat="45.04513" lon="6.10792">
        <ele>1203.6</ele>
        <time>2026-08-09T11:00:12Z</time>
      </trkpt>
      <trkpt lat="45.04508" lon="6.10789">
        <ele>1203.8</ele>
        <time>2026-08-09T11:00:14Z</time>
      </trkpt>
      <trkpt lat="45.04504" lon="6.10788">
        <ele>1204</ele>
        <time>2026-08-09T11:00:16Z</time>
      </trkpt>
      <trkpt lat="45.04502" lon="6.10786">
        <ele>1204.2</ele>
        <time>2026-08-09T11:00:17Z</time>
      </trkpt>
      <trkpt lat="45.045" lon="6.10786">
        <ele>1204.4</ele>
        <time>2026-08-09T11:00:18Z</time>
      </trkpt>
      <trkpt lat="45.04498" lon="6.10787">
        <ele>1204.6</ele>
        <time>2026-08-09T11:00:19Z</time>
      </trkpt>
      <trkpt lat="45.04496" lon="6.10786">
        <ele>1204.8</ele>
        <time>2026-08-09T11:00:20Z</time>
      </trkpt>
      <trkpt lat="45.04493" lon="6.10785">
        <ele>1205.2</ele>
        <time>2026-08-09T11:00:22Z</time>
      </trkpt>
      <trkpt lat="45.04489" lon="6.10783">
        <ele>1205.6</ele>
        <time>2026-08-09T11:00:24Z</time>
      </trkpt>
      <trkpt lat="45.04484" lon="6.10782">
        <ele>1205.8</ele>
        <time>2026-08-09T11:00:26Z</time>
      </trkpt>
      <trkpt lat="45.04479" lon="6.10782">
        <ele>1206</ele>
        <time>2026-08-09T11:00:28Z</time>
      </trkpt>
      <trkpt lat="45.04474" lon="6.10782">
        <ele>1206.4</ele>
        <time>2026-08-09T11:00:30Z</time>
      </trkpt>
      <trkpt lat="45.04469" lon="6.10784">
        <ele>1206.8</ele>
        <time>2026-08-09T11:00:32Z</time>
      </trkpt>
      <trkpt lat="45.04465" lon="6.10788">
        <ele>1207</ele>
        <time>2026-08-09T11:00:34Z</time>
      </trkpt>
      <trkpt lat="45.04463" lon="6.1079">
        <ele>1207.4</ele>
        <time>2026-08-09T11:00:35Z</time>
      </trkpt>
      <trkpt lat="45.04461" lon="6.10792">
        <ele>1207.4</ele>
        <time>2026-08-09T11:00:36Z</time>
      </trkpt>
      <trkpt lat="45.04456" lon="6.10795">
        <ele>1207.8</ele>
        <time>2026-08-09T11:00:38Z</time>
      </trkpt>
      <trkpt lat="45.04451" lon="6.10798">
        <ele>1208</ele>
        <time>2026-08-09T11:00:40Z</time>
      </trkpt>
      <trkpt lat="45.04446" lon="6.10801">
        <ele>1208.2</ele>
        <time>2026-08-09T11:00:42Z</time>
      </trkpt>
      <trkpt lat="45.04444" lon="6.10803">
        <ele>1208.2</ele>
        <time>2026-08-09T11:00:43Z</time>
      </trkpt>
      <trkpt lat="45.04442" lon="6.10804">
        <ele>1208.6</ele>
        <time>2026-08-09T11:00:44Z</time>
      </trkpt>
      <trkpt lat="45.04439" lon="6.10807">
        <ele>1208.8</ele>
        <time>2026-08-09T11:00:46Z</time>
      </trkpt>
      <trkpt lat="45.04435" lon="6.10809">
        <ele>1209</ele>
        <time>2026-08-09T11:00:48Z</time>
      </trkpt>
      <trkpt lat="45.0443" lon="6.10811">
        <ele>1209.4</ele>
        <time>2026-08-09T11:00:50Z</time>
      </trkpt>
      <trkpt lat="45.04426" lon="6.10814">
        <ele>1209.8</ele>
        <time>2026-08-09T11:00:52Z</time>
      </trkpt>
      <trkpt lat="45.04421" lon="6.10818">
        <ele>1210</ele>
        <time>2026-08-09T11:00:54Z</time>
      </trkpt>
      <trkpt lat="45.04417" lon="6.10822">
        <ele>1210.4</ele>
        <time>2026-08-09T11:00:56Z</time>
      </trkpt>
      <trkpt lat="45.04415" lon="6.10824">
        <ele>1210.4</ele>
        <time>2026-08-09T11:00:57Z</time>
      </trkpt>
      <trkpt lat="45.04413" lon="6.10826">
        <ele>1210.6</ele>
        <time>2026-08-09T11:00:58Z</time>
      </trkpt>
      <trkpt lat="45.04408" lon="6.10829">
        <ele>1211</ele>
        <time>2026-08-09T11:01:00Z</time>
      </trkpt>
      <trkpt lat="45.04404" lon="6.10834">
        <ele>1211.2</ele>
        <time>2026-08-09T11:01:02Z</time>
      </trkpt>
      <trkpt lat="45.04402" lon="6.10836">
        <ele>1211.4</ele>
        <time>2026-08-09T11:01:03Z</time>
      </trkpt>
      <trkpt lat="45.044" lon="6.10838">
        <ele>1211.4</ele>
        <time>2026-08-09T11:01:04Z</time>
      </trkpt>
      <trkpt lat="45.04396" lon="6.10843">
        <ele>1211.6</ele>
        <time>2026-08-09T11:01:06Z</time>
      </trkpt>
      <trkpt lat="45.04394" lon="6.10848">
        <ele>1211.8</ele>
        <time>2026-08-09T11:01:08Z</time>
      </trkpt>
      <trkpt lat="45.04392" lon="6.10854">
        <ele>1212</ele>
        <time>2026-08-09T11:01:10Z</time>
      </trkpt>
      <trkpt lat="45.04392" lon="6.10857">
        <ele>1212.2</ele>
        <time>2026-08-09T11:01:11Z</time>
      </trkpt>
      <trkpt lat="45.04391" lon="6.10859">
        <ele>1212.2</ele>
        <time>2026-08-09T11:01:12Z</time>
      </trkpt>
      <trkpt lat="45.0439" lon="6.10865">
        <ele>1212.8</ele>
        <time>2026-08-09T11:01:14Z</time>
      </trkpt>
      <trkpt lat="45.04389" lon="6.10872">
        <ele>1213.2</ele>
        <time>2026-08-09T11:01:16Z</time>
      </trkpt>
      <trkpt lat="45.04389" lon="6.10875">
        <ele>1213.2</ele>
        <time>2026-08-09T11:01:17Z</time>
      </trkpt>
      <trkpt lat="45.04389" lon="6.10878">
        <ele>1213.4</ele>
        <time>2026-08-09T11:01:18Z</time>
      </trkpt>
      <trkpt lat="45.04389" lon="6.10884">
        <ele>1213.8</ele>
        <time>2026-08-09T11:01:20Z</time>
      </trkpt>
      <trkpt lat="45.04389" lon="6.1089">
        <ele>1214</ele>
        <time>2026-08-09T11:01:22Z</time>
      </trkpt>
      <trkpt lat="45.04389" lon="6.10896">
        <ele>1214.4</ele>
        <time>2026-08-09T11:01:24Z</time>
      </trkpt>
      <trkpt lat="45.04389" lon="6.10899">
        <ele>1214.8</ele>
        <time>2026-08-09T11:01:25Z</time>
      </trkpt>
      <trkpt lat="45.04389" lon="6.10903">
        <ele>1214.8</ele>
        <time>2026-08-09T11:01:26Z</time>
      </trkpt>
      <trkpt lat="45.04389" lon="6.10909">
        <ele>1215.2</ele>
        <time>2026-08-09T11:01:28Z</time>
      </trkpt>
      <trkpt lat="45.04388" lon="6.10912">
        <ele>1215.4</ele>
        <time>2026-08-09T11:01:29Z</time>
      </trkpt>
      <trkpt lat="45.04388" lon="6.10915">
        <ele>1215.6</ele>
        <time>2026-08-09T11:01:30Z</time>
      </trkpt>
      <trkpt lat="45.04387" lon="6.10921">
        <ele>1216.2</ele>
        <time>2026-08-09T11:01:32Z</time>
      </trkpt>
      <trkpt lat="45.04387" lon="6.10927">
        <ele>1216.6</ele>
        <time>2026-08-09T11:01:34Z</time>
      </trkpt>
      <trkpt lat="45.04387" lon="6.1093">
        <ele>1216.8</ele>
        <time>2026-08-09T11:01:35Z</time>
      </trkpt>
      <trkpt lat="45.04386" lon="6.10933">
        <ele>1217</ele>
        <time>2026-08-09T11:01:36Z</time>
      </trkpt>
      <trkpt lat="45.04385" lon="6.10939">
        <ele>1217.2</ele>
        <time>2026-08-09T11:01:38Z</time>
      </trkpt>
      <trkpt lat="45.04385" lon="6.10943">
        <ele>1217.4</ele>
        <time>2026-08-09T11:01:40Z</time>
      </trkpt>
      <trkpt lat="45.04384" lon="6.10948">
        <ele>1217.8</ele>
        <time>2026-08-09T11:01:42Z</time>
      </trkpt>
      <trkpt lat="45.04384" lon="6.10949">
        <ele>1217.8</ele>
        <time>2026-08-09T11:01:43Z</time>
      </trkpt>
      <trkpt lat="45.04383" lon="6.10951">
        <ele>1218</ele>
        <time>2026-08-09T11:01:44Z</time>
      </trkpt>
      <trkpt lat="45.04382" lon="6.10956">
        <ele>1218.4</ele>
        <time>2026-08-09T11:01:46Z</time>
      </trkpt>
      <trkpt lat="45.04381" lon="6.10958">
        <ele>1218.6</ele>
        <time>2026-08-09T11:01:47Z</time>
      </trkpt>
      <trkpt lat="45.04381" lon="6.1096">
        <ele>1219</ele>
        <time>2026-08-09T11:01:48Z</time>
      </trkpt>
      <trkpt lat="45.04379" lon="6.10964">
        <ele>1219.4</ele>
        <time>2026-08-09T11:01:50Z</time>
      </trkpt>
      <trkpt lat="45.04378" lon="6.10968">
        <ele>1219.8</ele>
        <time>2026-08-09T11:01:52Z</time>
      </trkpt>
      <trkpt lat="45.04378" lon="6.1097">
        <ele>1220</ele>
        <time>2026-08-09T11:01:53Z</time>
      </trkpt>
      <trkpt lat="45.04377" lon="6.10973">
        <ele>1220.2</ele>
        <time>2026-08-09T11:01:54Z</time>
      </trkpt>
      <trkpt lat="45.04376" lon="6.10978">
        <ele>1220.6</ele>
        <time>2026-08-09T11:01:56Z</time>
      </trkpt>
      <trkpt lat="45.04375" lon="6.10982">
        <ele>1220.8</ele>
        <time>2026-08-09T11:01:58Z</time>
      </trkpt>
      <trkpt lat="45.04375" lon="6.10984">
        <ele>1221</ele>
        <time>2026-08-09T11:01:59Z</time>
      </trkpt>
      <trkpt lat="45.04375" lon="6.10986">
        <ele>1221.2</ele>
        <time>2026-08-09T11:02:00Z</time>
      </trkpt>
      <trkpt lat="45.04376" lon="6.1099">
        <ele>1221.6</ele>
        <time>2026-08-09T11:02:02Z</time>
      </trkpt>
      <trkpt lat="45.04377" lon="6.10994">
        <ele>1222</ele>
        <time>2026-08-09T11:02:04Z</time>
      </trkpt>
      <trkpt lat="45.0438" lon="6.10997">
        <ele>1222.2</ele>
        <time>2026-08-09T11:02:06Z</time>
      </trkpt>
      <trkpt lat="45.04381" lon="6.10999">
        <ele>1222.4</ele>
        <time>2026-08-09T11:02:07Z</time>
      </trkpt>
      <trkpt lat="45.04383" lon="6.11001">
        <ele>1222.4</ele>
        <time>2026-08-09T11:02:08Z</time>
      </trkpt>
      <trkpt lat="45.04386" lon="6.11005">
        <ele>1222.8</ele>
        <time>2026-08-09T11:02:10Z</time>
      </trkpt>
      <trkpt lat="45.0439" lon="6.11008">
        <ele>1223</ele>
        <time>2026-08-09T11:02:12Z</time>
      </trkpt>
      <trkpt lat="45.04395" lon="6.1101">
        <ele>1223.6</ele>
        <time>2026-08-09T11:02:14Z</time>
      </trkpt>
      <trkpt lat="45.04399" lon="6.11013">
        <ele>1223.8</ele>
        <time>2026-08-09T11:02:16Z</time>
      </trkpt>
      <trkpt lat="45.04403" lon="6.11015">
        <ele>1224</ele>
        <time>2026-08-09T11:02:18Z</time>
      </trkpt>
      <trkpt lat="45.04407" lon="6.11019">
        <ele>1224.2</ele>
        <time>2026-08-09T11:02:20Z</time>
      </trkpt>
      <trkpt lat="45.04409" lon="6.11021">
        <ele>1224.4</ele>
        <time>2026-08-09T11:02:21Z</time>
      </trkpt>
      <trkpt lat="45.04411" lon="6.11023">
        <ele>1224.4</ele>
        <time>2026-08-09T11:02:22Z</time>
      </trkpt>
      <trkpt lat="45.04414" lon="6.11027">
        <ele>1224.8</ele>
        <time>2026-08-09T11:02:24Z</time>
      </trkpt>
      <trkpt lat="45.04417" lon="6.11032">
        <ele>1225</ele>
        <time>2026-08-09T11:02:26Z</time>
      </trkpt>
      <trkpt lat="45.04421" lon="6.11036">
        <ele>1225.4</ele>
        <time>2026-08-09T11:02:28Z</time>
      </trkpt>
      <trkpt lat="45.04423" lon="6.11042">
        <ele>1225.8</ele>
        <time>2026-08-09T11:02:30Z</time>
      </trkpt>
      <trkpt lat="45.04426" lon="6.11047">
        <ele>1226</ele>
        <time>2026-08-09T11:02:32Z</time>
      </trkpt>
      <trkpt lat="45.04429" lon="6.11052">
        <ele>1226.4</ele>
        <time>2026-08-09T11:02:34Z</time>
      </trkpt>
      <trkpt lat="45.0443" lon="6.11054">
        <ele>1226.6</ele>
        <time>2026-08-09T11:02:35Z</time>
      </trkpt>
      <trkpt lat="45.04431" lon="6.11056">
        <ele>1226.8</ele>
        <time>2026-08-09T11:02:36Z</time>
      </trkpt>
      <trkpt lat="45.04434" lon="6.11061">
        <ele>1227</ele>
        <time>2026-08-09T11:02:38Z</time>
      </trkpt>
      <trkpt lat="45.04437" lon="6.11066">
        <ele>1227.6</ele>
        <time>2026-08-09T11:02:40Z</time>
      </trkpt>
      <trkpt lat="45.04438" lon="6.11068">
        <ele>1227.8</ele>
        <time>2026-08-09T11:02:41Z</time>
      </trkpt>
      <trkpt lat="45.04439" lon="6.11071">
        <ele>1227.8</ele>
        <time>2026-08-09T11:02:42Z</time>
      </trkpt>
      <trkpt lat="45.04441" lon="6.11074">
        <ele>1228</ele>
        <time>2026-08-09T11:02:43Z</time>
      </trkpt>
      <trkpt lat="45.04441" lon="6.11077">
        <ele>1228.2</ele>
        <time>2026-08-09T11:02:44Z</time>
      </trkpt>
      <trkpt lat="45.04444" lon="6.11082">
        <ele>1228.8</ele>
        <time>2026-08-09T11:02:46Z</time>
      </trkpt>
      <trkpt lat="45.04448" lon="6.11088">
        <ele>1229.2</ele>
        <time>2026-08-09T11:02:48Z</time>
      </trkpt>
      <trkpt lat="45.0445" lon="6.11091">
        <ele>1229.4</ele>
        <time>2026-08-09T11:02:49Z</time>
      </trkpt>
      <trkpt lat="45.04452" lon="6.11094">
        <ele>1229.4</ele>
        <time>2026-08-09T11:02:50Z</time>
      </trkpt>
      <trkpt lat="45.04456" lon="6.111">
        <ele>1229.8</ele>
        <time>2026-08-09T11:02:52Z</time>
      </trkpt>
      <trkpt lat="45.04461" lon="6.11106">
        <ele>1230</ele>
        <time>2026-08-09T11:02:54Z</time>
      </trkpt>
      <trkpt lat="45.04463" lon="6.11109">
        <ele>1230.2</ele>
        <time>2026-08-09T11:02:55Z</time>
      </trkpt>
      <trkpt lat="45.04465" lon="6.11113">
        <ele>1230.2</ele>
        <time>2026-08-09T11:02:56Z</time>
      </trkpt>
      <trkpt lat="45.04469" lon="6.11121">
        <ele>1230.2</ele>
        <time>2026-08-09T11:02:58Z</time>
      </trkpt>
      <trkpt lat="45.04473" lon="6.11128">
        <ele>1230.4</ele>
        <time>2026-08-09T11:03:00Z</time>
      </trkpt>
      <trkpt lat="45.04475" lon="6.11132">
        <ele>1230.4</ele>
        <time>2026-08-09T11:03:01Z</time>
      </trkpt>
      <trkpt lat="45.04477" lon="6.11135">
        <ele>1230.4</ele>
        <time>2026-08-09T11:03:02Z</time>
      </trkpt>
      <trkpt lat="45.04481" lon="6.11141">
        <ele>1230.6</ele>
        <time>2026-08-09T11:03:04Z</time>
      </trkpt>
      <trkpt lat="45.04483" lon="6.11147">
        <ele>1230.6</ele>
        <time>2026-08-09T11:03:06Z</time>
      </trkpt>
      <trkpt lat="45.04484" lon="6.1115">
        <ele>1230.6</ele>
        <time>2026-08-09T11:03:07Z</time>
      </trkpt>
      <trkpt lat="45.04484" lon="6.11154">
        <ele>1230.8</ele>
        <time>2026-08-09T11:03:08Z</time>
      </trkpt>
      <trkpt lat="45.04485" lon="6.11163">
        <ele>1230.8</ele>
        <time>2026-08-09T11:03:10Z</time>
      </trkpt>
      <trkpt lat="45.04485" lon="6.11172">
        <ele>1231</ele>
        <time>2026-08-09T11:03:12Z</time>
      </trkpt>
      <trkpt lat="45.04484" lon="6.11176">
        <ele>1231.2</ele>
        <time>2026-08-09T11:03:13Z</time>
      </trkpt>
      <trkpt lat="45.04484" lon="6.11179">
        <ele>1231.2</ele>
        <time>2026-08-09T11:03:14Z</time>
      </trkpt>
      <trkpt lat="45.04481" lon="6.11188">
        <ele>1231.2</ele>
        <time>2026-08-09T11:03:16Z</time>
      </trkpt>
      <trkpt lat="45.04478" lon="6.11197">
        <ele>1231.6</ele>
        <time>2026-08-09T11:03:18Z</time>
      </trkpt>
      <trkpt lat="45.04474" lon="6.11206">
        <ele>1231.8</ele>
        <time>2026-08-09T11:03:20Z</time>
      </trkpt>
      <trkpt lat="45.04472" lon="6.11212">
        <ele>1231.8</ele>
        <time>2026-08-09T11:03:22Z</time>
      </trkpt>
      <trkpt lat="45.0447" lon="6.11214">
        <ele>1231.8</ele>
        <time>2026-08-09T11:03:23Z</time>
      </trkpt>
      <trkpt lat="45.04469" lon="6.11216">
        <ele>1231.8</ele>
        <time>2026-08-09T11:03:24Z</time>
      </trkpt>
      <trkpt lat="45.04465" lon="6.11219">
        <ele>1232</ele>
        <time>2026-08-09T11:03:26Z</time>
      </trkpt>
      <trkpt lat="45.04463" lon="6.11221">
        <ele>1232.2</ele>
        <time>2026-08-09T11:03:27Z</time>
      </trkpt>
      <trkpt lat="45.0446" lon="6.11221">
        <ele>1232.2</ele>
        <time>2026-08-09T11:03:28Z</time>
      </trkpt>
      <trkpt lat="45.04458" lon="6.11221">
        <ele>1232.2</ele>
        <time>2026-08-09T11:03:29Z</time>
      </trkpt>
      <trkpt lat="45.04456" lon="6.11222">
        <ele>1232.4</ele>
        <time>2026-08-09T11:03:30Z</time>
      </trkpt>
      <trkpt lat="45.04451" lon="6.11223">
        <ele>1232.8</ele>
        <time>2026-08-09T11:03:32Z</time>
      </trkpt>
      <trkpt lat="45.04445" lon="6.11226">
        <ele>1233</ele>
        <time>2026-08-09T11:03:34Z</time>
      </trkpt>
      <trkpt lat="45.04443" lon="6.11229">
        <ele>1233</ele>
        <time>2026-08-09T11:03:35Z</time>
      </trkpt>
      <trkpt lat="45.04441" lon="6.11231">
        <ele>1233.2</ele>
        <time>2026-08-09T11:03:36Z</time>
      </trkpt>
      <trkpt lat="45.04437" lon="6.11239">
        <ele>1233.8</ele>
        <time>2026-08-09T11:03:38Z</time>
      </trkpt>
      <trkpt lat="45.04434" lon="6.11248">
        <ele>1234.4</ele>
        <time>2026-08-09T11:03:40Z</time>
      </trkpt>
      <trkpt lat="45.04431" lon="6.11256">
        <ele>1234.6</ele>
        <time>2026-08-09T11:03:42Z</time>
      </trkpt>
      <trkpt lat="45.0443" lon="6.11265">
        <ele>1235</ele>
        <time>2026-08-09T11:03:44Z</time>
      </trkpt>
      <trkpt lat="45.04429" lon="6.11274">
        <ele>1235.4</ele>
        <time>2026-08-09T11:03:46Z</time>
      </trkpt>
      <trkpt lat="45.04429" lon="6.11285">
        <ele>1235.6</ele>
        <time>2026-08-09T11:03:48Z</time>
      </trkpt>
      <trkpt lat="45.04428" lon="6.11297">
        <ele>1235.8</ele>
        <time>2026-08-09T11:03:50Z</time>
      </trkpt>
      <trkpt lat="45.04427" lon="6.11308">
        <ele>1235.8</ele>
        <time>2026-08-09T11:03:52Z</time>
      </trkpt>
      <trkpt lat="45.04426" lon="6.11315">
        <ele>1235.8</ele>
        <time>2026-08-09T11:03:54Z</time>
      </trkpt>
      <trkpt lat="45.04424" lon="6.1132">
        <ele>1235.6</ele>
        <time>2026-08-09T11:03:56Z</time>
      </trkpt>
      <trkpt lat="45.04423" lon="6.11322">
        <ele>1235.4</ele>
        <time>2026-08-09T11:03:58Z</time>
      </trkpt>
      <trkpt lat="45.04423" lon="6.11323">
        <ele>1235.2</ele>
        <time>2026-08-09T11:04:00Z</time>
      </trkpt>
      <trkpt lat="45.04423" lon="6.11323">
        <ele>1235</ele>
        <time>2026-08-09T11:04:02Z</time>
      </trkpt>
      <trkpt lat="45.04423" lon="6.11325">
        <ele>1235</ele>
        <time>2026-08-09T11:04:04Z</time>
      </trkpt>
      <trkpt lat="45.04423" lon="6.11325">
        <ele>1235</ele>
        <time>2026-08-09T11:04:06Z</time>
      </trkpt>
      <trkpt lat="45.04423" lon="6.11325">
        <ele>1235</ele>
        <time>2026-08-09T11:04:08Z</time>
      </trkpt>
      <trkpt lat="45.04423" lon="6.11325">
        <ele>1235</ele>
        <time>2026-08-09T11:04:10Z</time>
      </trkpt>
      <trkpt lat="45.04423" lon="6.11325">
        <ele>1234.8</ele>
        <time>2026-08-09T11:04:12Z</time>
      </trkpt>
      <trkpt lat="45.04423" lon="6.11325">
        <ele>1234.8</ele>
        <time>2026-08-09T11:04:14Z</time>
      </trkpt>
      <trkpt lat="45.04423" lon="6.11325">
        <ele>1234.8</ele>
        <time>2026-08-09T11:04:16Z</time>
      </trkpt>
      <trkpt lat="45.04422" lon="6.11325">
        <ele>1234.8</ele>
        <time>2026-08-09T11:04:18Z</time>
      </trkpt>
      <trkpt lat="45.04422" lon="6.11325">
        <ele>1234.8</ele>
        <time>2026-08-09T11:04:20Z</time>
      </trkpt>
      <trkpt lat="45.04422" lon="6.11325">
        <ele>1234.8</ele>
        <time>2026-08-09T11:04:22Z</time>
      </trkpt>
      <trkpt lat="45.04422" lon="6.11325">
        <ele>1235</ele>
        <time>2026-08-09T11:04:24Z</time>
      </trkpt>
      <trkpt lat="45.04422" lon="6.11325">
        <ele>1235</ele>
        <time>2026-08-09T11:04:25Z</time>
      </trkpt>
      <trkpt lat="45.04422" lon="6.11325">
        <ele>1235</ele>
        <time>2026-08-09T11:04:26Z</time>
      </trkpt>
      <trkpt lat="45.04422" lon="6.11325">
        <ele>1234.8</ele>
        <time>2026-08-09T11:04:28Z</time>
      </trkpt>
      <trkpt lat="45.04422" lon="6.11324">
        <ele>1234.8</ele>
        <time>2026-08-09T11:04:30Z</time>
      </trkpt>
      <trkpt lat="45.04422" lon="6.11324">
        <ele>1234.8</ele>
        <time>2026-08-09T11:04:32Z</time>
      </trkpt>
      <trkpt lat="45.04422" lon="6.11324">
        <ele>1234.8</ele>
        <time>2026-08-09T11:04:34Z</time>
      </trkpt>
      <trkpt lat="45.04422" lon="6.11324">
        <ele>1234.8</ele>
        <time>2026-08-09T11:04:36Z</time>
      </trkpt>
      <trkpt lat="45.04422" lon="6.11324">
        <ele>1234.8</ele>
        <time>2026-08-09T11:04:38Z</time>
      </trkpt>
      <trkpt lat="45.04422" lon="6.11324">
        <ele>1234.8</ele>
        <time>2026-08-09T11:04:40Z</time>
      </trkpt>
      <trkpt lat="45.04422" lon="6.11324">
        <ele>1234.8</ele>
        <time>2026-08-09T11:04:42Z</time>
      </trkpt>
      <trkpt lat="45.04422" lon="6.11324">
        <ele>1234.6</ele>
        <time>2026-08-09T11:04:44Z</time>
      </trkpt>
      <trkpt lat="45.04422" lon="6.11324">
        <ele>1234.6</ele>
        <time>2026-08-09T11:04:45Z</time>
      </trkpt>
      <trkpt lat="45.04422" lon="6.11324">
        <ele>1234.6</ele>
        <time>2026-08-09T11:04:46Z</time>
      </trkpt>
      <trkpt lat="45.04422" lon="6.11324">
        <ele>1234.6</ele>
        <time>2026-08-09T11:04:48Z</time>
      </trkpt>
      <trkpt lat="45.04422" lon="6.11324">
        <ele>1234.6</ele>
        <time>2026-08-09T11:04:50Z</time>
      </trkpt>
      <trkpt lat="45.04422" lon="6.11324">
        <ele>1234.6</ele>
        <time>2026-08-09T11:04:52Z</time>
      </trkpt>
      <trkpt lat="45.04422" lon="6.11324">
        <ele>1234.6</ele>
        <time>2026-08-09T11:04:54Z</time>
      </trkpt>
      <trkpt lat="45.04422" lon="6.11324">
        <ele>1234.6</ele>
        <time>2026-08-09T11:04:56Z</time>
      </trkpt>
      <trkpt lat="45.04422" lon="6.11324">
        <ele>1234.4</ele>
        <time>2026-08-09T11:04:58Z</time>
      </trkpt>
      <trkpt lat="45.04422" lon="6.11324">
        <ele>1234.4</ele>
        <time>2026-08-09T11:05:00Z</time>
      </trkpt>
      <trkpt lat="45.04422" lon="6.11324">
        <ele>1234.4</ele>
        <time>2026-08-09T11:05:02Z</time>
      </trkpt>
      <trkpt lat="45.04422" lon="6.11324">
        <ele>1234.4</ele>
        <time>2026-08-09T11:05:04Z</time>
      </trkpt>
      <trkpt lat="45.04422" lon="6.11324">
        <ele>1234.4</ele>
        <time>2026-08-09T11:05:06Z</time>
      </trkpt>
      <trkpt lat="45.04422" lon="6.11324">
        <ele>1234.4</ele>
        <time>2026-08-09T11:05:08Z</time>
      </trkpt>
      <trkpt lat="45.04422" lon="6.11324">
        <ele>1234.4</ele>
        <time>2026-08-09T11:05:10Z</time>
      </trkpt>
      <trkpt lat="45.04422" lon="6.11324">
        <ele>1234.4</ele>
        <time>2026-08-09T11:05:12Z</time>
      </trkpt>
      <trkpt lat="45.04422" lon="6.11324">
        <ele>1234.4</ele>
        <time>2026-08-09T11:05:14Z</time>
      </trkpt>
      <trkpt lat="45.04422" lon="6.11324">
        <ele>1234.4</ele>
        <time>2026-08-09T11:05:16Z</time>
      </trkpt>
      <trkpt lat="45.04422" lon="6.11324">
        <ele>1234.6</ele>
        <time>2026-08-09T11:05:18Z</time>
      </trkpt>
      <trkpt lat="45.04422" lon="6.11324">
        <ele>1234.6</ele>
        <time>2026-08-09T11:05:20Z</time>
      </trkpt>
      <trkpt lat="45.04422" lon="6.11324">
        <ele>1234.6</ele>
        <time>2026-08-09T11:05:22Z</time>
      </trkpt>
      <trkpt lat="45.04422" lon="6.11324">
        <ele>1234.6</ele>
        <time>2026-08-09T11:05:24Z</time>
      </trkpt>
      <trkpt lat="45.04422" lon="6.11324">
        <ele>1234.6</ele>
        <time>2026-08-09T11:05:26Z</time>
      </trkpt>
      <trkpt lat="45.04422" lon="6.11324">
        <ele>1234.6</ele>
        <time>2026-08-09T11:05:28Z</time>
      </trkpt>
      <trkpt lat="45.04422" lon="6.11324">
        <ele>1234.6</ele>
        <time>2026-08-09T11:05:30Z</time>
      </trkpt>
      <trkpt lat="45.04422" lon="6.11324">
        <ele>1234.6</ele>
        <time>2026-08-09T11:05:32Z</time>
      </trkpt>
      <trkpt lat="45.04422" lon="6.11324">
        <ele>1234.6</ele>
        <time>2026-08-09T11:05:34Z</time>
      </trkpt>
      <trkpt lat="45.04422" lon="6.11324">
        <ele>1234.6</ele>
        <time>2026-08-09T11:05:35Z</time>
      </trkpt>
      <trkpt lat="45.04422" lon="6.11324">
        <ele>1234.6</ele>
        <time>2026-08-09T11:05:36Z</time>
      </trkpt>
      <trkpt lat="45.04422" lon="6.11324">
        <ele>1234.6</ele>
        <time>2026-08-09T11:05:38Z</time>
      </trkpt>
      <trkpt lat="45.04422" lon="6.11324">
        <ele>1234.8</ele>
        <time>2026-08-09T11:05:40Z</time>
      </trkpt>
      <trkpt lat="45.04422" lon="6.11324">
        <ele>1234.8</ele>
        <time>2026-08-09T11:05:42Z</time>
      </trkpt>
      <trkpt lat="45.04422" lon="6.11324">
        <ele>1234.8</ele>
        <time>2026-08-09T11:05:44Z</time>
      </trkpt>
      <trkpt lat="45.04422" lon="6.11324">
        <ele>1234.8</ele>
        <time>2026-08-09T11:05:46Z</time>
      </trkpt>
      <trkpt lat="45.04422" lon="6.11324">
        <ele>1234.8</ele>
        <time>2026-08-09T11:05:48Z</time>
      </trkpt>
      <trkpt lat="45.04422" lon="6.11324">
        <ele>1234.8</ele>
        <time>2026-08-09T11:05:50Z</time>
      </trkpt>
      <trkpt lat="45.04422" lon="6.11324">
        <ele>1234.8</ele>
        <time>2026-08-09T11:05:52Z</time>
      </trkpt>
      <trkpt lat="45.04422" lon="6.11324">
        <ele>1234.8</ele>
        <time>2026-08-09T11:05:54Z</time>
      </trkpt>
      <trkpt lat="45.04422" lon="6.11324">
        <ele>1234.8</ele>
        <time>2026-08-09T11:05:56Z</time>
      </trkpt>
      <trkpt lat="45.04422" lon="6.11324">
        <ele>1234.8</ele>
        <time>2026-08-09T11:05:58Z</time>
      </trkpt>
      <trkpt lat="45.04422" lon="6.11324">
        <ele>1234.8</ele>
        <time>2026-08-09T11:06:00Z</time>
      </trkpt>
      <trkpt lat="45.04422" lon="6.11324">
        <ele>1234.8</ele>
        <time>2026-08-09T11:06:02Z</time>
      </trkpt>
      <trkpt lat="45.04422" lon="6.11324">
        <ele>1234.8</ele>
        <time>2026-08-09T11:06:04Z</time>
      </trkpt>
      <trkpt lat="45.04422" lon="6.11324">
        <ele>1234.8</ele>
        <time>2026-08-09T11:06:06Z</time>
      </trkpt>
      <trkpt lat="45.04422" lon="6.11324">
        <ele>1234.8</ele>
        <time>2026-08-09T11:06:08Z</time>
      </trkpt>
      <trkpt lat="45.04422" lon="6.11324">
        <ele>1234.8</ele>
        <time>2026-08-09T11:06:10Z</time>
      </trkpt>
      <trkpt lat="45.04422" lon="6.11324">
        <ele>1234.8</ele>
        <time>2026-08-09T11:06:12Z</time>
      </trkpt>
      <trkpt lat="45.04422" lon="6.11324">
        <ele>1234.8</ele>
        <time>2026-08-09T11:06:14Z</time>
      </trkpt>
      <trkpt lat="45.04422" lon="6.11324">
        <ele>1234.8</ele>
        <time>2026-08-09T11:06:16Z</time>
      </trkpt>
      <trkpt lat="45.04422" lon="6.11324">
        <ele>1234.8</ele>
        <time>2026-08-09T11:06:18Z</time>
      </trkpt>
      <trkpt lat="45.04422" lon="6.11324">
        <ele>1234.8</ele>
        <time>2026-08-09T11:06:20Z</time>
      </trkpt>
      <trkpt lat="45.04422" lon="6.11324">
        <ele>1234.8</ele>
        <time>2026-08-09T11:06:22Z</time>
      </trkpt>
      <trkpt lat="45.04422" lon="6.11324">
        <ele>1235</ele>
        <time>2026-08-09T11:06:24Z</time>
      </trkpt>
      <trkpt lat="45.04422" lon="6.11324">
        <ele>1235</ele>
        <time>2026-08-09T11:06:26Z</time>
      </trkpt>
      <trkpt lat="45.04422" lon="6.11324">
        <ele>1235</ele>
        <time>2026-08-09T11:06:28Z</time>
      </trkpt>
      <trkpt lat="45.04422" lon="6.11324">
        <ele>1235</ele>
        <time>2026-08-09T11:06:30Z</time>
      </trkpt>
      <trkpt lat="45.04422" lon="6.11324">
        <ele>1235</ele>
        <time>2026-08-09T11:06:32Z</time>
      </trkpt>
      <trkpt lat="45.04422" lon="6.11324">
        <ele>1235</ele>
        <time>2026-08-09T11:06:34Z</time>
      </trkpt>
      <trkpt lat="45.04422" lon="6.11324">
        <ele>1235</ele>
        <time>2026-08-09T11:06:36Z</time>
      </trkpt>
      <trkpt lat="45.04422" lon="6.11324">
        <ele>1235</ele>
        <time>2026-08-09T11:06:38Z</time>
      </trkpt>
      <trkpt lat="45.04422" lon="6.11324">
        <ele>1235</ele>
        <time>2026-08-09T11:06:40Z</time>
      </trkpt>
      <trkpt lat="45.04422" lon="6.11324">
        <ele>1235</ele>
        <time>2026-08-09T11:06:42Z</time>
      </trkpt>
      <trkpt lat="45.04422" lon="6.11324">
        <ele>1235</ele>
        <time>2026-08-09T11:06:44Z</time>
      </trkpt>
      <trkpt lat="45.04422" lon="6.11324">
        <ele>1234.8</ele>
        <time>2026-08-09T11:06:46Z</time>
      </trkpt>
      <trkpt lat="45.04422" lon="6.11324">
        <ele>1234.8</ele>
        <time>2026-08-09T11:06:48Z</time>
      </trkpt>
      <trkpt lat="45.04422" lon="6.11324">
        <ele>1234.8</ele>
        <time>2026-08-09T11:06:50Z</time>
      </trkpt>
      <trkpt lat="45.04422" lon="6.11324">
        <ele>1234.8</ele>
        <time>2026-08-09T11:06:52Z</time>
      </trkpt>
      <trkpt lat="45.04422" lon="6.11324">
        <ele>1234.8</ele>
        <time>2026-08-09T11:06:54Z</time>
      </trkpt>
      <trkpt lat="45.04422" lon="6.11324">
        <ele>1234.8</ele>
        <time>2026-08-09T11:06:56Z</time>
      </trkpt>
      <trkpt lat="45.04422" lon="6.11324">
        <ele>1234.8</ele>
        <time>2026-08-09T11:06:58Z</time>
      </trkpt>
      <trkpt lat="45.04422" lon="6.11324">
        <ele>1234.8</ele>
        <time>2026-08-09T11:07:00Z</time>
      </trkpt>
      <trkpt lat="45.04422" lon="6.11323">
        <ele>1234.8</ele>
        <time>2026-08-09T11:07:02Z</time>
      </trkpt>
      <trkpt lat="45.04422" lon="6.11323">
        <ele>1234.8</ele>
        <time>2026-08-09T11:07:04Z</time>
      </trkpt>
      <trkpt lat="45.04422" lon="6.11324">
        <ele>1234.8</ele>
        <time>2026-08-09T11:07:05Z</time>
      </trkpt>
      <trkpt lat="45.04422" lon="6.11324">
        <ele>1234.8</ele>
        <time>2026-08-09T11:07:06Z</time>
      </trkpt>
      <trkpt lat="45.04422" lon="6.11324">
        <ele>1234.8</ele>
        <time>2026-08-09T11:07:08Z</time>
      </trkpt>
      <trkpt lat="45.04421" lon="6.11324">
        <ele>1235</ele>
        <time>2026-08-09T11:07:10Z</time>
      </trkpt>
      <trkpt lat="45.04421" lon="6.11324">
        <ele>1235</ele>
        <time>2026-08-09T11:07:12Z</time>
      </trkpt>
      <trkpt lat="45.04421" lon="6.11324">
        <ele>1235</ele>
        <time>2026-08-09T11:07:14Z</time>
      </trkpt>
      <trkpt lat="45.04421" lon="6.11324">
        <ele>1235</ele>
        <time>2026-08-09T11:07:16Z</time>
      </trkpt>
      <trkpt lat="45.04421" lon="6.11324">
        <ele>1235</ele>
        <time>2026-08-09T11:07:17Z</time>
      </trkpt>
      <trkpt lat="45.04421" lon="6.11324">
        <ele>1235</ele>
        <time>2026-08-09T11:07:18Z</time>
      </trkpt>
      <trkpt lat="45.04421" lon="6.11324">
        <ele>1235</ele>
        <time>2026-08-09T11:07:20Z</time>
      </trkpt>
      <trkpt lat="45.04421" lon="6.11324">
        <ele>1235</ele>
        <time>2026-08-09T11:07:22Z</time>
      </trkpt>
      <trkpt lat="45.04421" lon="6.11324">
        <ele>1235</ele>
        <time>2026-08-09T11:07:24Z</time>
      </trkpt>
      <trkpt lat="45.04421" lon="6.11324">
        <ele>1235</ele>
        <time>2026-08-09T11:07:26Z</time>
      </trkpt>
      <trkpt lat="45.04421" lon="6.11324">
        <ele>1235</ele>
        <time>2026-08-09T11:07:28Z</time>
      </trkpt>
      <trkpt lat="45.04421" lon="6.11324">
        <ele>1235</ele>
        <time>2026-08-09T11:07:30Z</time>
      </trkpt>
      <trkpt lat="45.04421" lon="6.11324">
        <ele>1235</ele>
        <time>2026-08-09T11:07:32Z</time>
      </trkpt>
      <trkpt lat="45.04421" lon="6.11324">
        <ele>1235</ele>
        <time>2026-08-09T11:07:34Z</time>
      </trkpt>
      <trkpt lat="45.04421" lon="6.11324">
        <ele>1235</ele>
        <time>2026-08-09T11:07:36Z</time>
      </trkpt>
      <trkpt lat="45.04421" lon="6.11324">
        <ele>1235</ele>
        <time>2026-08-09T11:07:38Z</time>
      </trkpt>
      <trkpt lat="45.04421" lon="6.11324">
        <ele>1235</ele>
        <time>2026-08-09T11:07:40Z</time>
      </trkpt>
      <trkpt lat="45.04421" lon="6.11324">
        <ele>1235</ele>
        <time>2026-08-09T11:07:42Z</time>
      </trkpt>
      <trkpt lat="45.04421" lon="6.11324">
        <ele>1235</ele>
        <time>2026-08-09T11:07:44Z</time>
      </trkpt>
      <trkpt lat="45.04421" lon="6.11324">
        <ele>1235</ele>
        <time>2026-08-09T11:07:46Z</time>
      </trkpt>
      <trkpt lat="45.04421" lon="6.11324">
        <ele>1235</ele>
        <time>2026-08-09T11:07:48Z</time>
      </trkpt>
      <trkpt lat="45.04421" lon="6.11324">
        <ele>1235</ele>
        <time>2026-08-09T11:07:50Z</time>
      </trkpt>
      <trkpt lat="45.04421" lon="6.11324">
        <ele>1235</ele>
        <time>2026-08-09T11:07:52Z</time>
      </trkpt>
      <trkpt lat="45.04421" lon="6.11324">
        <ele>1235</ele>
        <time>2026-08-09T11:07:54Z</time>
      </trkpt>
      <trkpt lat="45.04421" lon="6.11324">
        <ele>1235</ele>
        <time>2026-08-09T11:07:55Z</time>
      </trkpt>
      <trkpt lat="45.04421" lon="6.11324">
        <ele>1235</ele>
        <time>2026-08-09T11:07:56Z</time>
      </trkpt>
      <trkpt lat="45.04421" lon="6.11324">
        <ele>1235</ele>
        <time>2026-08-09T11:07:58Z</time>
      </trkpt>
      <trkpt lat="45.04421" lon="6.11324">
        <ele>1235</ele>
        <time>2026-08-09T11:08:00Z</time>
      </trkpt>
      <trkpt lat="45.04421" lon="6.11324">
        <ele>1235</ele>
        <time>2026-08-09T11:08:02Z</time>
      </trkpt>
      <trkpt lat="45.04421" lon="6.11324">
        <ele>1235</ele>
        <time>2026-08-09T11:08:04Z</time>
      </trkpt>
      <trkpt lat="45.04421" lon="6.11324">
        <ele>1235</ele>
        <time>2026-08-09T11:08:06Z</time>
      </trkpt>
      <trkpt lat="45.04421" lon="6.11324">
        <ele>1235</ele>
        <time>2026-08-09T11:08:08Z</time>
      </trkpt>
      <trkpt lat="45.04421" lon="6.11324">
        <ele>1235</ele>
        <time>2026-08-09T11:08:10Z</time>
      </trkpt>
      <trkpt lat="45.04421" lon="6.11324">
        <ele>1235</ele>
        <time>2026-08-09T11:08:12Z</time>
      </trkpt>
      <trkpt lat="45.04421" lon="6.11324">
        <ele>1234.8</ele>
        <time>2026-08-09T11:08:13Z</time>
      </trkpt>
      <trkpt lat="45.04421" lon="6.11324">
        <ele>1234.8</ele>
        <time>2026-08-09T11:08:14Z</time>
      </trkpt>
      <trkpt lat="45.04421" lon="6.11324">
        <ele>1234.8</ele>
        <time>2026-08-09T11:08:16Z</time>
      </trkpt>
      <trkpt lat="45.04421" lon="6.11324">
        <ele>1234.8</ele>
        <time>2026-08-09T11:08:18Z</time>
      </trkpt>
      <trkpt lat="45.04421" lon="6.11324">
        <ele>1234.8</ele>
        <time>2026-08-09T11:08:20Z</time>
      </trkpt>
      <trkpt lat="45.04421" lon="6.11324">
        <ele>1234.8</ele>
        <time>2026-08-09T11:08:22Z</time>
      </trkpt>
      <trkpt lat="45.04421" lon="6.11324">
        <ele>1234.8</ele>
        <time>2026-08-09T11:08:24Z</time>
      </trkpt>
      <trkpt lat="45.04421" lon="6.11324">
        <ele>1235</ele>
        <time>2026-08-09T11:08:25Z</time>
      </trkpt>
      <trkpt lat="45.04421" lon="6.11324">
        <ele>1235</ele>
        <time>2026-08-09T11:08:26Z</time>
      </trkpt>
      <trkpt lat="45.04421" lon="6.11324">
        <ele>1235.2</ele>
        <time>2026-08-09T11:08:28Z</time>
      </trkpt>
      <trkpt lat="45.04422" lon="6.11325">
        <ele>1235.2</ele>
        <time>2026-08-09T11:08:30Z</time>
      </trkpt>
      <trkpt lat="45.04423" lon="6.11326">
        <ele>1235.2</ele>
        <time>2026-08-09T11:08:32Z</time>
      </trkpt>
      <trkpt lat="45.04424" lon="6.11326">
        <ele>1235.2</ele>
        <time>2026-08-09T11:08:34Z</time>
      </trkpt>
      <trkpt lat="45.04425" lon="6.11326">
        <ele>1235.2</ele>
        <time>2026-08-09T11:08:36Z</time>
      </trkpt>
      <trkpt lat="45.04426" lon="6.11328">
        <ele>1235.2</ele>
        <time>2026-08-09T11:08:38Z</time>
      </trkpt>
      <trkpt lat="45.04428" lon="6.11329">
        <ele>1235.4</ele>
        <time>2026-08-09T11:08:39Z</time>
      </trkpt>
      <trkpt lat="45.04429" lon="6.1133">
        <ele>1235.4</ele>
        <time>2026-08-09T11:08:40Z</time>
      </trkpt>
      <trkpt lat="45.04432" lon="6.11334">
        <ele>1235.2</ele>
        <time>2026-08-09T11:08:42Z</time>
      </trkpt>
      <trkpt lat="45.04435" lon="6.11337">
        <ele>1235.2</ele>
        <time>2026-08-09T11:08:44Z</time>
      </trkpt>
      <trkpt lat="45.04436" lon="6.11338">
        <ele>1235.2</ele>
        <time>2026-08-09T11:08:45Z</time>
      </trkpt>
      <trkpt lat="45.04435" lon="6.11338">
        <ele>1235.2</ele>
        <time>2026-08-09T11:08:46Z</time>
      </trkpt>
      <trkpt lat="45.04436" lon="6.11339">
        <ele>1235.2</ele>
        <time>2026-08-09T11:08:48Z</time>
      </trkpt>
      <trkpt lat="45.04436" lon="6.11339">
        <ele>1235.2</ele>
        <time>2026-08-09T11:08:50Z</time>
      </trkpt>
      <trkpt lat="45.04436" lon="6.11339">
        <ele>1235</ele>
        <time>2026-08-09T11:08:52Z</time>
      </trkpt>
      <trkpt lat="45.04436" lon="6.11339">
        <ele>1235</ele>
        <time>2026-08-09T11:08:54Z</time>
      </trkpt>
      <trkpt lat="45.04436" lon="6.11339">
        <ele>1235</ele>
        <time>2026-08-09T11:08:56Z</time>
      </trkpt>
      <trkpt lat="45.04436" lon="6.11339">
        <ele>1235</ele>
        <time>2026-08-09T11:08:58Z</time>
      </trkpt>
      <trkpt lat="45.04436" lon="6.11339">
        <ele>1235</ele>
        <time>2026-08-09T11:09:00Z</time>
      </trkpt>
      <trkpt lat="45.04436" lon="6.11339">
        <ele>1235</ele>
        <time>2026-08-09T11:09:02Z</time>
      </trkpt>
      <trkpt lat="45.04435" lon="6.1134">
        <ele>1235</ele>
        <time>2026-08-09T11:09:04Z</time>
      </trkpt>
      <trkpt lat="45.04433" lon="6.11339">
        <ele>1234.8</ele>
        <time>2026-08-09T11:09:06Z</time>
      </trkpt>
      <trkpt lat="45.0443" lon="6.11337">
        <ele>1234.8</ele>
        <time>2026-08-09T11:09:08Z</time>
      </trkpt>
      <trkpt lat="45.04428" lon="6.11336">
        <ele>1234.8</ele>
        <time>2026-08-09T11:09:10Z</time>
      </trkpt>
      <trkpt lat="45.04428" lon="6.11338">
        <ele>1234.8</ele>
        <time>2026-08-09T11:09:11Z</time>
      </trkpt>
      <trkpt lat="45.04427" lon="6.11339">
        <ele>1234.6</ele>
        <time>2026-08-09T11:09:12Z</time>
      </trkpt>
      <trkpt lat="45.04427" lon="6.1134">
        <ele>1234.6</ele>
        <time>2026-08-09T11:09:14Z</time>
      </trkpt>
      <trkpt lat="45.04427" lon="6.1134">
        <ele>1234.6</ele>
        <time>2026-08-09T11:09:16Z</time>
      </trkpt>
      <trkpt lat="45.04427" lon="6.1134">
        <ele>1234.6</ele>
        <time>2026-08-09T11:09:17Z</time>
      </trkpt>
      <trkpt lat="45.04427" lon="6.11341">
        <ele>1234.8</ele>
        <time>2026-08-09T11:09:18Z</time>
      </trkpt>
      <trkpt lat="45.04427" lon="6.11341">
        <ele>1235.2</ele>
        <time>2026-08-09T11:09:20Z</time>
      </trkpt>
      <trkpt lat="45.04427" lon="6.11341">
        <ele>1235.2</ele>
        <time>2026-08-09T11:09:22Z</time>
      </trkpt>
      <trkpt lat="45.04427" lon="6.11341">
        <ele>1235.4</ele>
        <time>2026-08-09T11:09:24Z</time>
      </trkpt>
      <trkpt lat="45.04428" lon="6.11343">
        <ele>1235.4</ele>
        <time>2026-08-09T11:09:26Z</time>
      </trkpt>
      <trkpt lat="45.04429" lon="6.11347">
        <ele>1235.4</ele>
        <time>2026-08-09T11:09:28Z</time>
      </trkpt>
      <trkpt lat="45.0443" lon="6.11349">
        <ele>1235.4</ele>
        <time>2026-08-09T11:09:30Z</time>
      </trkpt>
      <trkpt lat="45.04429" lon="6.11349">
        <ele>1235.4</ele>
        <time>2026-08-09T11:09:31Z</time>
      </trkpt>
      <trkpt lat="45.0443" lon="6.11349">
        <ele>1235.4</ele>
        <time>2026-08-09T11:09:32Z</time>
      </trkpt>
      <trkpt lat="45.0443" lon="6.1135">
        <ele>1235.4</ele>
        <time>2026-08-09T11:09:34Z</time>
      </trkpt>
      <trkpt lat="45.0443" lon="6.1135">
        <ele>1235.4</ele>
        <time>2026-08-09T11:09:36Z</time>
      </trkpt>
      <trkpt lat="45.0443" lon="6.11351">
        <ele>1235.4</ele>
        <time>2026-08-09T11:09:37Z</time>
      </trkpt>
      <trkpt lat="45.04431" lon="6.11352">
        <ele>1235.4</ele>
        <time>2026-08-09T11:09:38Z</time>
      </trkpt>
      <trkpt lat="45.04433" lon="6.11356">
        <ele>1235.4</ele>
        <time>2026-08-09T11:09:40Z</time>
      </trkpt>
      <trkpt lat="45.04435" lon="6.11361">
        <ele>1235.4</ele>
        <time>2026-08-09T11:09:42Z</time>
      </trkpt>
      <trkpt lat="45.04438" lon="6.11367">
        <ele>1235.2</ele>
        <time>2026-08-09T11:09:44Z</time>
      </trkpt>
      <trkpt lat="45.04441" lon="6.11374">
        <ele>1235.2</ele>
        <time>2026-08-09T11:09:46Z</time>
      </trkpt>
      <trkpt lat="45.04446" lon="6.1138">
        <ele>1235.2</ele>
        <time>2026-08-09T11:09:48Z</time>
      </trkpt>
      <trkpt lat="45.04451" lon="6.11387">
        <ele>1235</ele>
        <time>2026-08-09T11:09:50Z</time>
      </trkpt>
      <trkpt lat="45.04455" lon="6.1139">
        <ele>1235</ele>
        <time>2026-08-09T11:09:51Z</time>
      </trkpt>
      <trkpt lat="45.04458" lon="6.11392">
        <ele>1234.8</ele>
        <time>2026-08-09T11:09:52Z</time>
      </trkpt>
      <trkpt lat="45.04461" lon="6.11396">
        <ele>1234.6</ele>
        <time>2026-08-09T11:09:53Z</time>
      </trkpt>
      <trkpt lat="45.04465" lon="6.11399">
        <ele>1234.6</ele>
        <time>2026-08-09T11:09:54Z</time>
      </trkpt>
      <trkpt lat="45.04472" lon="6.11404">
        <ele>1234.4</ele>
        <time>2026-08-09T11:09:56Z</time>
      </trkpt>
      <trkpt lat="45.04474" lon="6.11406">
        <ele>1234.2</ele>
        <time>2026-08-09T11:09:57Z</time>
      </trkpt>
      <trkpt lat="45.04475" lon="6.11407">
        <ele>1234.2</ele>
        <time>2026-08-09T11:09:58Z</time>
      </trkpt>
      <trkpt lat="45.04476" lon="6.11407">
        <ele>1234</ele>
        <time>2026-08-09T11:10:00Z</time>
      </trkpt>
      <trkpt lat="45.04476" lon="6.11408">
        <ele>1234</ele>
        <time>2026-08-09T11:10:01Z</time>
      </trkpt>
      <trkpt lat="45.04476" lon="6.11408">
        <ele>1233.8</ele>
        <time>2026-08-09T11:10:02Z</time>
      </trkpt>
      <trkpt lat="45.04476" lon="6.11408">
        <ele>1233.8</ele>
        <time>2026-08-09T11:10:04Z</time>
      </trkpt>
      <trkpt lat="45.04476" lon="6.11408">
        <ele>1233.8</ele>
        <time>2026-08-09T11:10:06Z</time>
      </trkpt>
      <trkpt lat="45.04476" lon="6.11408">
        <ele>1233.6</ele>
        <time>2026-08-09T11:10:08Z</time>
      </trkpt>
      <trkpt lat="45.04477" lon="6.11408">
        <ele>1233.6</ele>
        <time>2026-08-09T11:10:10Z</time>
      </trkpt>
      <trkpt lat="45.0448" lon="6.11408">
        <ele>1233.8</ele>
        <time>2026-08-09T11:10:12Z</time>
      </trkpt>
      <trkpt lat="45.04482" lon="6.11408">
        <ele>1233.8</ele>
        <time>2026-08-09T11:10:13Z</time>
      </trkpt>
      <trkpt lat="45.04484" lon="6.11409">
        <ele>1233.8</ele>
        <time>2026-08-09T11:10:14Z</time>
      </trkpt>
      <trkpt lat="45.04489" lon="6.11411">
        <ele>1233.8</ele>
        <time>2026-08-09T11:10:16Z</time>
      </trkpt>
      <trkpt lat="45.04495" lon="6.11413">
        <ele>1233.8</ele>
        <time>2026-08-09T11:10:18Z</time>
      </trkpt>
      <trkpt lat="45.04503" lon="6.11418">
        <ele>1233.8</ele>
        <time>2026-08-09T11:10:20Z</time>
      </trkpt>
      <trkpt lat="45.04511" lon="6.11427">
        <ele>1233.8</ele>
        <time>2026-08-09T11:10:22Z</time>
      </trkpt>
      <trkpt lat="45.04521" lon="6.11438">
        <ele>1233.8</ele>
        <time>2026-08-09T11:10:24Z</time>
      </trkpt>
      <trkpt lat="45.04534" lon="6.11451">
        <ele>1233.6</ele>
        <time>2026-08-09T11:10:26Z</time>
      </trkpt>
      <trkpt lat="45.04541" lon="6.11456">
        <ele>1233.2</ele>
        <time>2026-08-09T11:10:27Z</time>
      </trkpt>
      <trkpt lat="45.04549" lon="6.11462">
        <ele>1232.4</ele>
        <time>2026-08-09T11:10:28Z</time>
      </trkpt>
      <trkpt lat="45.04558" lon="6.11468">
        <ele>1232.2</ele>
        <time>2026-08-09T11:10:29Z</time>
      </trkpt>
      <trkpt lat="45.04567" lon="6.11475">
        <ele>1231.8</ele>
        <time>2026-08-09T11:10:30Z</time>
      </trkpt>
      <trkpt lat="45.04585" lon="6.11489">
        <ele>1230.6</ele>
        <time>2026-08-09T11:10:32Z</time>
      </trkpt>
      <trkpt lat="45.04606" lon="6.11503">
        <ele>1229</ele>
        <time>2026-08-09T11:10:34Z</time>
      </trkpt>
      <trkpt lat="45.04617" lon="6.11509">
        <ele>1228.2</ele>
        <time>2026-08-09T11:10:35Z</time>
      </trkpt>
      <trkpt lat="45.04629" lon="6.11514">
        <ele>1226.8</ele>
        <time>2026-08-09T11:10:36Z</time>
      </trkpt>
      <trkpt lat="45.04642" lon="6.11519">
        <ele>1225.2</ele>
        <time>2026-08-09T11:10:37Z</time>
      </trkpt>
      <trkpt lat="45.04655" lon="6.11524">
        <ele>1223.6</ele>
        <time>2026-08-09T11:10:38Z</time>
      </trkpt>
      <trkpt lat="45.04667" lon="6.1153">
        <ele>1222.2</ele>
        <time>2026-08-09T11:10:39Z</time>
      </trkpt>
      <trkpt lat="45.04679" lon="6.11536">
        <ele>1221.2</ele>
        <time>2026-08-09T11:10:40Z</time>
      </trkpt>
      <trkpt lat="45.0469" lon="6.11541">
        <ele>1220</ele>
        <time>2026-08-09T11:10:41Z</time>
      </trkpt>
      <trkpt lat="45.047" lon="6.11545">
        <ele>1218.4</ele>
        <time>2026-08-09T11:10:42Z</time>
      </trkpt>
      <trkpt lat="45.0471" lon="6.1155">
        <ele>1216.2</ele>
        <time>2026-08-09T11:10:43Z</time>
      </trkpt>
      <trkpt lat="45.0472" lon="6.11554">
        <ele>1214.4</ele>
        <time>2026-08-09T11:10:44Z</time>
      </trkpt>
      <trkpt lat="45.0473" lon="6.11559">
        <ele>1213</ele>
        <time>2026-08-09T11:10:45Z</time>
      </trkpt>
      <trkpt lat="45.0474" lon="6.11563">
        <ele>1211.8</ele>
        <time>2026-08-09T11:10:46Z</time>
      </trkpt>
      <trkpt lat="45.04748" lon="6.11568">
        <ele>1210.4</ele>
        <time>2026-08-09T11:10:47Z</time>
      </trkpt>
      <trkpt lat="45.04756" lon="6.11571">
        <ele>1209.2</ele>
        <time>2026-08-09T11:10:48Z</time>
      </trkpt>
      <trkpt lat="45.04764" lon="6.11575">
        <ele>1208</ele>
        <time>2026-08-09T11:10:49Z</time>
      </trkpt>
      <trkpt lat="45.04775" lon="6.1158">
        <ele>1207</ele>
        <time>2026-08-09T11:10:50Z</time>
      </trkpt>
      <trkpt lat="45.04779" lon="6.11584">
        <ele>1206.4</ele>
        <time>2026-08-09T11:10:51Z</time>
      </trkpt>
      <trkpt lat="45.04779" lon="6.11584">
        <ele>1206</ele>
        <time>2026-08-09T11:10:52Z</time>
      </trkpt>
      <trkpt lat="45.04783" lon="6.11586">
        <ele>1204.8</ele>
        <time>2026-08-09T11:10:53Z</time>
      </trkpt>
      <trkpt lat="45.04787" lon="6.11588">
        <ele>1203.8</ele>
        <time>2026-08-09T11:10:54Z</time>
      </trkpt>
      <trkpt lat="45.04798" lon="6.11595">
        <ele>1202.6</ele>
        <time>2026-08-09T11:10:56Z</time>
      </trkpt>
      <trkpt lat="45.04805" lon="6.11599">
        <ele>1202.2</ele>
        <time>2026-08-09T11:10:57Z</time>
      </trkpt>
      <trkpt lat="45.04812" lon="6.11604">
        <ele>1202.2</ele>
        <time>2026-08-09T11:10:58Z</time>
      </trkpt>
      <trkpt lat="45.04819" lon="6.11612">
        <ele>1202</ele>
        <time>2026-08-09T11:10:59Z</time>
      </trkpt>
      <trkpt lat="45.04827" lon="6.11619">
        <ele>1202</ele>
        <time>2026-08-09T11:11:00Z</time>
      </trkpt>
      <trkpt lat="45.04835" lon="6.11628">
        <ele>1201.8</ele>
        <time>2026-08-09T11:11:01Z</time>
      </trkpt>
      <trkpt lat="45.04843" lon="6.11639">
        <ele>1201.4</ele>
        <time>2026-08-09T11:11:02Z</time>
      </trkpt>
      <trkpt lat="45.0486" lon="6.11661">
        <ele>1199</ele>
        <time>2026-08-09T11:11:04Z</time>
      </trkpt>
      <trkpt lat="45.04868" lon="6.11672">
        <ele>1197.8</ele>
        <time>2026-08-09T11:11:05Z</time>
      </trkpt>
      <trkpt lat="45.04874" lon="6.11681">
        <ele>1196.4</ele>
        <time>2026-08-09T11:11:06Z</time>
      </trkpt>
      <trkpt lat="45.04879" lon="6.11688">
        <ele>1195</ele>
        <time>2026-08-09T11:11:07Z</time>
      </trkpt>
      <trkpt lat="45.04883" lon="6.11694">
        <ele>1193.6</ele>
        <time>2026-08-09T11:11:08Z</time>
      </trkpt>
      <trkpt lat="45.04883" lon="6.11699">
        <ele>1192.2</ele>
        <time>2026-08-09T11:11:09Z</time>
      </trkpt>
      <trkpt lat="45.04885" lon="6.11701">
        <ele>1190.4</ele>
        <time>2026-08-09T11:11:10Z</time>
      </trkpt>
      <trkpt lat="45.04886" lon="6.11704">
        <ele>1189.4</ele>
        <time>2026-08-09T11:11:11Z</time>
      </trkpt>
      <trkpt lat="45.04886" lon="6.11706">
        <ele>1189</ele>
        <time>2026-08-09T11:11:12Z</time>
      </trkpt>
      <trkpt lat="45.04885" lon="6.11711">
        <ele>1188.4</ele>
        <time>2026-08-09T11:11:14Z</time>
      </trkpt>
      <trkpt lat="45.04881" lon="6.11716">
        <ele>1188</ele>
        <time>2026-08-09T11:11:16Z</time>
      </trkpt>
      <trkpt lat="45.04879" lon="6.11717">
        <ele>1187.8</ele>
        <time>2026-08-09T11:11:17Z</time>
      </trkpt>
      <trkpt lat="45.04877" lon="6.11716">
        <ele>1187.4</ele>
        <time>2026-08-09T11:11:18Z</time>
      </trkpt>
      <trkpt lat="45.04873" lon="6.11713">
        <ele>1186.8</ele>
        <time>2026-08-09T11:11:20Z</time>
      </trkpt>
      <trkpt lat="45.04867" lon="6.11706">
        <ele>1186.8</ele>
        <time>2026-08-09T11:11:22Z</time>
      </trkpt>
      <trkpt lat="45.04859" lon="6.11697">
        <ele>1186.8</ele>
        <time>2026-08-09T11:11:24Z</time>
      </trkpt>
      <trkpt lat="45.04849" lon="6.11687">
        <ele>1186.6</ele>
        <time>2026-08-09T11:11:26Z</time>
      </trkpt>
      <trkpt lat="45.04835" lon="6.11679">
        <ele>1186.4</ele>
        <time>2026-08-09T11:11:28Z</time>
      </trkpt>
      <trkpt lat="45.04821" lon="6.11672">
        <ele>1185.6</ele>
        <time>2026-08-09T11:11:30Z</time>
      </trkpt>
      <trkpt lat="45.04806" lon="6.11666">
        <ele>1183.6</ele>
        <time>2026-08-09T11:11:32Z</time>
      </trkpt>
      <trkpt lat="45.04798" lon="6.11663">
        <ele>1182.6</ele>
        <time>2026-08-09T11:11:33Z</time>
      </trkpt>
      <trkpt lat="45.04789" lon="6.11659">
        <ele>1181.6</ele>
        <time>2026-08-09T11:11:34Z</time>
      </trkpt>
      <trkpt lat="45.0478" lon="6.11657">
        <ele>1180.6</ele>
        <time>2026-08-09T11:11:35Z</time>
      </trkpt>
      <trkpt lat="45.0477" lon="6.11655">
        <ele>1179.6</ele>
        <time>2026-08-09T11:11:36Z</time>
      </trkpt>
      <trkpt lat="45.04759" lon="6.11654">
        <ele>1178.6</ele>
        <time>2026-08-09T11:11:37Z</time>
      </trkpt>
      <trkpt lat="45.04748" lon="6.11654">
        <ele>1177.2</ele>
        <time>2026-08-09T11:11:38Z</time>
      </trkpt>
      <trkpt lat="45.04736" lon="6.11653">
        <ele>1176</ele>
        <time>2026-08-09T11:11:39Z</time>
      </trkpt>
      <trkpt lat="45.04725" lon="6.11652">
        <ele>1175</ele>
        <time>2026-08-09T11:11:40Z</time>
      </trkpt>
      <trkpt lat="45.04715" lon="6.1165">
        <ele>1174</ele>
        <time>2026-08-09T11:11:41Z</time>
      </trkpt>
      <trkpt lat="45.04706" lon="6.11648">
        <ele>1172.6</ele>
        <time>2026-08-09T11:11:42Z</time>
      </trkpt>
      <trkpt lat="45.04697" lon="6.11646">
        <ele>1171.2</ele>
        <time>2026-08-09T11:11:43Z</time>
      </trkpt>
      <trkpt lat="45.04689" lon="6.11644">
        <ele>1169.6</ele>
        <time>2026-08-09T11:11:44Z</time>
      </trkpt>
      <trkpt lat="45.04681" lon="6.11643">
        <ele>1168.2</ele>
        <time>2026-08-09T11:11:45Z</time>
      </trkpt>
      <trkpt lat="45.04673" lon="6.11643">
        <ele>1166.4</ele>
        <time>2026-08-09T11:11:46Z</time>
      </trkpt>
      <trkpt lat="45.04664" lon="6.11644">
        <ele>1165</ele>
        <time>2026-08-09T11:11:47Z</time>
      </trkpt>
      <trkpt lat="45.04654" lon="6.11645">
        <ele>1163.8</ele>
        <time>2026-08-09T11:11:48Z</time>
      </trkpt>
      <trkpt lat="45.04645" lon="6.11646">
        <ele>1162.8</ele>
        <time>2026-08-09T11:11:49Z</time>
      </trkpt>
      <trkpt lat="45.04635" lon="6.11644">
        <ele>1162.2</ele>
        <time>2026-08-09T11:11:50Z</time>
      </trkpt>
      <trkpt lat="45.04625" lon="6.11641">
        <ele>1161.6</ele>
        <time>2026-08-09T11:11:51Z</time>
      </trkpt>
      <trkpt lat="45.04605" lon="6.1163">
        <ele>1161.2</ele>
        <time>2026-08-09T11:11:52Z</time>
      </trkpt>
      <trkpt lat="45.04595" lon="6.11625">
        <ele>1160</ele>
        <time>2026-08-09T11:11:54Z</time>
      </trkpt>
      <trkpt lat="45.04585" lon="6.1162">
        <ele>1158.8</ele>
        <time>2026-08-09T11:11:55Z</time>
      </trkpt>
      <trkpt lat="45.04576" lon="6.11616">
        <ele>1157.4</ele>
        <time>2026-08-09T11:11:56Z</time>
      </trkpt>
      <trkpt lat="45.04567" lon="6.11612">
        <ele>1156</ele>
        <time>2026-08-09T11:11:57Z</time>
      </trkpt>
      <trkpt lat="45.04558" lon="6.11607">
        <ele>1154.6</ele>
        <time>2026-08-09T11:11:58Z</time>
      </trkpt>
      <trkpt lat="45.0455" lon="6.11603">
        <ele>1153.4</ele>
        <time>2026-08-09T11:11:59Z</time>
      </trkpt>
      <trkpt lat="45.04541" lon="6.11599">
        <ele>1152</ele>
        <time>2026-08-09T11:12:00Z</time>
      </trkpt>
      <trkpt lat="45.04532" lon="6.11595">
        <ele>1148.8</ele>
        <time>2026-08-09T11:12:01Z</time>
      </trkpt>
      <trkpt lat="45.04522" lon="6.1159">
        <ele>1147.8</ele>
        <time>2026-08-09T11:12:02Z</time>
      </trkpt>
      <trkpt lat="45.04503" lon="6.1158">
        <ele>1146.6</ele>
        <time>2026-08-09T11:12:04Z</time>
      </trkpt>
      <trkpt lat="45.04483" lon="6.11576">
        <ele>1145.6</ele>
        <time>2026-08-09T11:12:06Z</time>
      </trkpt>
      <trkpt lat="45.04474" lon="6.11574">
        <ele>1144.6</ele>
        <time>2026-08-09T11:12:07Z</time>
      </trkpt>
      <trkpt lat="45.04463" lon="6.11575">
        <ele>1143.4</ele>
        <time>2026-08-09T11:12:08Z</time>
      </trkpt>
      <trkpt lat="45.04451" lon="6.11577">
        <ele>1142.2</ele>
        <time>2026-08-09T11:12:09Z</time>
      </trkpt>
      <trkpt lat="45.0444" lon="6.11579">
        <ele>1140.6</ele>
        <time>2026-08-09T11:12:10Z</time>
      </trkpt>
      <trkpt lat="45.0443" lon="6.11579">
        <ele>1139.2</ele>
        <time>2026-08-09T11:12:11Z</time>
      </trkpt>
      <trkpt lat="45.0442" lon="6.11578">
        <ele>1138.2</ele>
        <time>2026-08-09T11:12:12Z</time>
      </trkpt>
      <trkpt lat="45.0441" lon="6.11575">
        <ele>1137.2</ele>
        <time>2026-08-09T11:12:13Z</time>
      </trkpt>
      <trkpt lat="45.04402" lon="6.11573">
        <ele>1136.2</ele>
        <time>2026-08-09T11:12:14Z</time>
      </trkpt>
      <trkpt lat="45.04392" lon="6.11574">
        <ele>1134.6</ele>
        <time>2026-08-09T11:12:15Z</time>
      </trkpt>
      <trkpt lat="45.04383" lon="6.11582">
        <ele>1132.8</ele>
        <time>2026-08-09T11:12:16Z</time>
      </trkpt>
      <trkpt lat="45.04375" lon="6.11592">
        <ele>1131.2</ele>
        <time>2026-08-09T11:12:17Z</time>
      </trkpt>
      <trkpt lat="45.04372" lon="6.11599">
        <ele>1130.2</ele>
        <time>2026-08-09T11:12:18Z</time>
      </trkpt>
      <trkpt lat="45.04372" lon="6.11607">
        <ele>1129.8</ele>
        <time>2026-08-09T11:12:19Z</time>
      </trkpt>
      <trkpt lat="45.04372" lon="6.11611">
        <ele>1129.4</ele>
        <time>2026-08-09T11:12:20Z</time>
      </trkpt>
      <trkpt lat="45.04371" lon="6.11617">
        <ele>1129.2</ele>
        <time>2026-08-09T11:12:22Z</time>
      </trkpt>
      <trkpt lat="45.04371" lon="6.11619">
        <ele>1129.2</ele>
        <time>2026-08-09T11:12:23Z</time>
      </trkpt>
      <trkpt lat="45.04372" lon="6.1162">
        <ele>1129.2</ele>
        <time>2026-08-09T11:12:24Z</time>
      </trkpt>
      <trkpt lat="45.04375" lon="6.11622">
        <ele>1129</ele>
        <time>2026-08-09T11:12:26Z</time>
      </trkpt>
      <trkpt lat="45.04377" lon="6.11622">
        <ele>1128.8</ele>
        <time>2026-08-09T11:12:28Z</time>
      </trkpt>
      <trkpt lat="45.04379" lon="6.11623">
        <ele>1128.8</ele>
        <time>2026-08-09T11:12:30Z</time>
      </trkpt>
      <trkpt lat="45.04381" lon="6.11623">
        <ele>1128.8</ele>
        <time>2026-08-09T11:12:32Z</time>
      </trkpt>
      <trkpt lat="45.04384" lon="6.11623">
        <ele>1128.8</ele>
        <time>2026-08-09T11:12:34Z</time>
      </trkpt>
      <trkpt lat="45.04385" lon="6.11623">
        <ele>1128.8</ele>
        <time>2026-08-09T11:12:35Z</time>
      </trkpt>
      <trkpt lat="45.04388" lon="6.11622">
        <ele>1128.8</ele>
        <time>2026-08-09T11:12:36Z</time>
      </trkpt>
      <trkpt lat="45.04395" lon="6.11621">
        <ele>1128.6</ele>
        <time>2026-08-09T11:12:38Z</time>
      </trkpt>
      <trkpt lat="45.04399" lon="6.11621">
        <ele>1128.6</ele>
        <time>2026-08-09T11:12:39Z</time>
      </trkpt>
      <trkpt lat="45.04403" lon="6.11621">
        <ele>1128.6</ele>
        <time>2026-08-09T11:12:40Z</time>
      </trkpt>
      <trkpt lat="45.04415" lon="6.1162">
        <ele>1128.2</ele>
        <time>2026-08-09T11:12:42Z</time>
      </trkpt>
      <trkpt lat="45.04423" lon="6.1162">
        <ele>1127.8</ele>
        <time>2026-08-09T11:12:43Z</time>
      </trkpt>
      <trkpt lat="45.0443" lon="6.11621">
        <ele>1127.6</ele>
        <time>2026-08-09T11:12:44Z</time>
      </trkpt>
      <trkpt lat="45.04438" lon="6.11623">
        <ele>1127.2</ele>
        <time>2026-08-09T11:12:45Z</time>
      </trkpt>
      <trkpt lat="45.04447" lon="6.11626">
        <ele>1126.4</ele>
        <time>2026-08-09T11:12:46Z</time>
      </trkpt>
      <trkpt lat="45.04455" lon="6.1163">
        <ele>1125.8</ele>
        <time>2026-08-09T11:12:47Z</time>
      </trkpt>
      <trkpt lat="45.04464" lon="6.11636">
        <ele>1125</ele>
        <time>2026-08-09T11:12:48Z</time>
      </trkpt>
      <trkpt lat="45.04477" lon="6.11658">
        <ele>1123.4</ele>
        <time>2026-08-09T11:12:50Z</time>
      </trkpt>
      <trkpt lat="45.04487" lon="6.11687">
        <ele>1121.4</ele>
        <time>2026-08-09T11:12:52Z</time>
      </trkpt>
      <trkpt lat="45.0449" lon="6.11702">
        <ele>1120.2</ele>
        <time>2026-08-09T11:12:53Z</time>
      </trkpt>
      <trkpt lat="45.04495" lon="6.11717">
        <ele>1118.8</ele>
        <time>2026-08-09T11:12:54Z</time>
      </trkpt>
      <trkpt lat="45.04499" lon="6.11731">
        <ele>1117.2</ele>
        <time>2026-08-09T11:12:55Z</time>
      </trkpt>
      <trkpt lat="45.04505" lon="6.11743">
        <ele>1115.6</ele>
        <time>2026-08-09T11:12:56Z</time>
      </trkpt>
      <trkpt lat="45.04513" lon="6.11755">
        <ele>1114</ele>
        <time>2026-08-09T11:12:57Z</time>
      </trkpt>
      <trkpt lat="45.04523" lon="6.11765">
        <ele>1112.4</ele>
        <time>2026-08-09T11:12:58Z</time>
      </trkpt>
      <trkpt lat="45.04533" lon="6.11774">
        <ele>1109.2</ele>
        <time>2026-08-09T11:12:59Z</time>
      </trkpt>
      <trkpt lat="45.04544" lon="6.11782">
        <ele>1108.2</ele>
        <time>2026-08-09T11:13:00Z</time>
      </trkpt>
      <trkpt lat="45.04554" lon="6.11792">
        <ele>1107.6</ele>
        <time>2026-08-09T11:13:01Z</time>
      </trkpt>
      <trkpt lat="45.04565" lon="6.118">
        <ele>1106.8</ele>
        <time>2026-08-09T11:13:02Z</time>
      </trkpt>
      <trkpt lat="45.04578" lon="6.11808">
        <ele>1105.8</ele>
        <time>2026-08-09T11:13:03Z</time>
      </trkpt>
      <trkpt lat="45.0459" lon="6.11817">
        <ele>1104.8</ele>
        <time>2026-08-09T11:13:04Z</time>
      </trkpt>
      <trkpt lat="45.04614" lon="6.11836">
        <ele>1103.4</ele>
        <time>2026-08-09T11:13:05Z</time>
      </trkpt>
      <trkpt lat="45.04614" lon="6.11836">
        <ele>1101.8</ele>
        <time>2026-08-09T11:13:06Z</time>
      </trkpt>
      <trkpt lat="45.04625" lon="6.11849">
        <ele>1100.2</ele>
        <time>2026-08-09T11:13:07Z</time>
      </trkpt>
      <trkpt lat="45.04637" lon="6.11861">
        <ele>1098.4</ele>
        <time>2026-08-09T11:13:08Z</time>
      </trkpt>
      <trkpt lat="45.04648" lon="6.11872">
        <ele>1096.6</ele>
        <time>2026-08-09T11:13:09Z</time>
      </trkpt>
      <trkpt lat="45.04658" lon="6.11881">
        <ele>1094.8</ele>
        <time>2026-08-09T11:13:10Z</time>
      </trkpt>
      <trkpt lat="45.04668" lon="6.1189">
        <ele>1093.2</ele>
        <time>2026-08-09T11:13:11Z</time>
      </trkpt>
      <trkpt lat="45.04677" lon="6.11898">
        <ele>1091.4</ele>
        <time>2026-08-09T11:13:12Z</time>
      </trkpt>
      <trkpt lat="45.04687" lon="6.11905">
        <ele>1089.8</ele>
        <time>2026-08-09T11:13:13Z</time>
      </trkpt>
      <trkpt lat="45.04695" lon="6.11913">
        <ele>1088.2</ele>
        <time>2026-08-09T11:13:14Z</time>
      </trkpt>
      <trkpt lat="45.04704" lon="6.11925">
        <ele>1086.4</ele>
        <time>2026-08-09T11:13:15Z</time>
      </trkpt>
      <trkpt lat="45.04711" lon="6.11939">
        <ele>1084.6</ele>
        <time>2026-08-09T11:13:16Z</time>
      </trkpt>
      <trkpt lat="45.0472" lon="6.11969">
        <ele>1083</ele>
        <time>2026-08-09T11:13:18Z</time>
      </trkpt>
      <trkpt lat="45.04724" lon="6.11985">
        <ele>1082.4</ele>
        <time>2026-08-09T11:13:19Z</time>
      </trkpt>
      <trkpt lat="45.04729" lon="6.12001">
        <ele>1082</ele>
        <time>2026-08-09T11:13:20Z</time>
      </trkpt>
      <trkpt lat="45.04738" lon="6.12016">
        <ele>1081.6</ele>
        <time>2026-08-09T11:13:21Z</time>
      </trkpt>
      <trkpt lat="45.04748" lon="6.12028">
        <ele>1080.8</ele>
        <time>2026-08-09T11:13:22Z</time>
      </trkpt>
      <trkpt lat="45.04758" lon="6.12039">
        <ele>1079.6</ele>
        <time>2026-08-09T11:13:23Z</time>
      </trkpt>
      <trkpt lat="45.04768" lon="6.12049">
        <ele>1077.8</ele>
        <time>2026-08-09T11:13:24Z</time>
      </trkpt>
      <trkpt lat="45.04777" lon="6.12057">
        <ele>1076</ele>
        <time>2026-08-09T11:13:25Z</time>
      </trkpt>
      <trkpt lat="45.04785" lon="6.12063">
        <ele>1074.2</ele>
        <time>2026-08-09T11:13:26Z</time>
      </trkpt>
      <trkpt lat="45.04793" lon="6.12069">
        <ele>1071</ele>
        <time>2026-08-09T11:13:27Z</time>
      </trkpt>
      <trkpt lat="45.04799" lon="6.12074">
        <ele>1069.4</ele>
        <time>2026-08-09T11:13:28Z</time>
      </trkpt>
      <trkpt lat="45.04806" lon="6.12078">
        <ele>1067.8</ele>
        <time>2026-08-09T11:13:29Z</time>
      </trkpt>
      <trkpt lat="45.04811" lon="6.1208">
        <ele>1066</ele>
        <time>2026-08-09T11:13:30Z</time>
      </trkpt>
      <trkpt lat="45.04817" lon="6.12088">
        <ele>1064.2</ele>
        <time>2026-08-09T11:13:32Z</time>
      </trkpt>
      <trkpt lat="45.04815" lon="6.1209">
        <ele>1063.8</ele>
        <time>2026-08-09T11:13:34Z</time>
      </trkpt>
      <trkpt lat="45.04812" lon="6.12091">
        <ele>1063.8</ele>
        <time>2026-08-09T11:13:35Z</time>
      </trkpt>
      <trkpt lat="45.04809" lon="6.12093">
        <ele>1063.6</ele>
        <time>2026-08-09T11:13:36Z</time>
      </trkpt>
      <trkpt lat="45.04804" lon="6.12095">
        <ele>1063.4</ele>
        <time>2026-08-09T11:13:38Z</time>
      </trkpt>
      <trkpt lat="45.04803" lon="6.12095">
        <ele>1063.4</ele>
        <time>2026-08-09T11:13:39Z</time>
      </trkpt>
      <trkpt lat="45.04803" lon="6.12095">
        <ele>1063.4</ele>
        <time>2026-08-09T11:13:40Z</time>
      </trkpt>
      <trkpt lat="45.04802" lon="6.12095">
        <ele>1063.2</ele>
        <time>2026-08-09T11:13:42Z</time>
      </trkpt>
      <trkpt lat="45.04802" lon="6.12095">
        <ele>1063.2</ele>
        <time>2026-08-09T11:13:44Z</time>
      </trkpt>
      <trkpt lat="45.04802" lon="6.12095">
        <ele>1063.2</ele>
        <time>2026-08-09T11:13:46Z</time>
      </trkpt>
      <trkpt lat="45.04802" lon="6.12095">
        <ele>1063.2</ele>
        <time>2026-08-09T11:13:48Z</time>
      </trkpt>
      <trkpt lat="45.04802" lon="6.12095">
        <ele>1063.2</ele>
        <time>2026-08-09T11:13:50Z</time>
      </trkpt>
      <trkpt lat="45.04802" lon="6.12095">
        <ele>1063.2</ele>
        <time>2026-08-09T11:13:51Z</time>
      </trkpt>
      <trkpt lat="45.04802" lon="6.12095">
        <ele>1063</ele>
        <time>2026-08-09T11:13:52Z</time>
      </trkpt>
      <trkpt lat="45.04802" lon="6.12095">
        <ele>1063</ele>
        <time>2026-08-09T11:13:54Z</time>
      </trkpt>
      <trkpt lat="45.04802" lon="6.12095">
        <ele>1063</ele>
        <time>2026-08-09T11:13:56Z</time>
      </trkpt>
      <trkpt lat="45.04801" lon="6.12094">
        <ele>1063</ele>
        <time>2026-08-09T11:13:58Z</time>
      </trkpt>
      <trkpt lat="45.04799" lon="6.12093">
        <ele>1063</ele>
        <time>2026-08-09T11:13:59Z</time>
      </trkpt>
      <trkpt lat="45.04798" lon="6.12092">
        <ele>1063</ele>
        <time>2026-08-09T11:14:00Z</time>
      </trkpt>
      <trkpt lat="45.04791" lon="6.12089">
        <ele>1063</ele>
        <time>2026-08-09T11:14:02Z</time>
      </trkpt>
      <trkpt lat="45.04787" lon="6.12087">
        <ele>1063</ele>
        <time>2026-08-09T11:14:03Z</time>
      </trkpt>
      <trkpt lat="45.04782" lon="6.12085">
        <ele>1063</ele>
        <time>2026-08-09T11:14:04Z</time>
      </trkpt>
      <trkpt lat="45.0477" lon="6.1208">
        <ele>1063</ele>
        <time>2026-08-09T11:14:06Z</time>
      </trkpt>
      <trkpt lat="45.04754" lon="6.12077">
        <ele>1062.6</ele>
        <time>2026-08-09T11:14:08Z</time>
      </trkpt>
      <trkpt lat="45.04746" lon="6.12075">
        <ele>1062.2</ele>
        <time>2026-08-09T11:14:09Z</time>
      </trkpt>
      <trkpt lat="45.04736" lon="6.12074">
        <ele>1061.8</ele>
        <time>2026-08-09T11:14:10Z</time>
      </trkpt>
      <trkpt lat="45.04726" lon="6.12073">
        <ele>1061.4</ele>
        <time>2026-08-09T11:14:11Z</time>
      </trkpt>
      <trkpt lat="45.04715" lon="6.12073">
        <ele>1061</ele>
        <time>2026-08-09T11:14:12Z</time>
      </trkpt>
      <trkpt lat="45.04694" lon="6.12074">
        <ele>1059.4</ele>
        <time>2026-08-09T11:14:14Z</time>
      </trkpt>
      <trkpt lat="45.04683" lon="6.12075">
        <ele>1058</ele>
        <time>2026-08-09T11:14:15Z</time>
      </trkpt>
      <trkpt lat="45.04673" lon="6.12077">
        <ele>1056.8</ele>
        <time>2026-08-09T11:14:16Z</time>
      </trkpt>
      <trkpt lat="45.04663" lon="6.12079">
        <ele>1055.4</ele>
        <time>2026-08-09T11:14:17Z</time>
      </trkpt>
      <trkpt lat="45.04653" lon="6.12081">
        <ele>1054.2</ele>
        <time>2026-08-09T11:14:18Z</time>
      </trkpt>
      <trkpt lat="45.04644" lon="6.12083">
        <ele>1052.4</ele>
        <time>2026-08-09T11:14:19Z</time>
      </trkpt>
      <trkpt lat="45.04636" lon="6.12082">
        <ele>1050.4</ele>
        <time>2026-08-09T11:14:20Z</time>
      </trkpt>
      <trkpt lat="45.04628" lon="6.12079">
        <ele>1048.4</ele>
        <time>2026-08-09T11:14:21Z</time>
      </trkpt>
      <trkpt lat="45.04622" lon="6.12077">
        <ele>1047</ele>
        <time>2026-08-09T11:14:22Z</time>
      </trkpt>
      <trkpt lat="45.04615" lon="6.12077">
        <ele>1045.6</ele>
        <time>2026-08-09T11:14:23Z</time>
      </trkpt>
      <trkpt lat="45.04608" lon="6.12079">
        <ele>1043.2</ele>
        <time>2026-08-09T11:14:24Z</time>
      </trkpt>
      <trkpt lat="45.046" lon="6.12084">
        <ele>1042.4</ele>
        <time>2026-08-09T11:14:25Z</time>
      </trkpt>
      <trkpt lat="45.04592" lon="6.12091">
        <ele>1041.6</ele>
        <time>2026-08-09T11:14:26Z</time>
      </trkpt>
      <trkpt lat="45.04585" lon="6.12099">
        <ele>1040.8</ele>
        <time>2026-08-09T11:14:27Z</time>
      </trkpt>
      <trkpt lat="45.04577" lon="6.12106">
        <ele>1040</ele>
        <time>2026-08-09T11:14:28Z</time>
      </trkpt>
      <trkpt lat="45.04563" lon="6.12117">
        <ele>1038.6</ele>
        <time>2026-08-09T11:14:30Z</time>
      </trkpt>
      <trkpt lat="45.04557" lon="6.12132">
        <ele>1036.8</ele>
        <time>2026-08-09T11:14:32Z</time>
      </trkpt>
      <trkpt lat="45.04561" lon="6.12138">
        <ele>1035.8</ele>
        <time>2026-08-09T11:14:33Z</time>
      </trkpt>
      <trkpt lat="45.04565" lon="6.12142">
        <ele>1034.2</ele>
        <time>2026-08-09T11:14:34Z</time>
      </trkpt>
      <trkpt lat="45.04579" lon="6.12144">
        <ele>1032.8</ele>
        <time>2026-08-09T11:14:36Z</time>
      </trkpt>
      <trkpt lat="45.04596" lon="6.12141">
        <ele>1032.2</ele>
        <time>2026-08-09T11:14:38Z</time>
      </trkpt>
      <trkpt lat="45.04605" lon="6.12146">
        <ele>1031.8</ele>
        <time>2026-08-09T11:14:39Z</time>
      </trkpt>
      <trkpt lat="45.04614" lon="6.12156">
        <ele>1031.6</ele>
        <time>2026-08-09T11:14:40Z</time>
      </trkpt>
      <trkpt lat="45.04622" lon="6.12167">
        <ele>1031.4</ele>
        <time>2026-08-09T11:14:41Z</time>
      </trkpt>
      <trkpt lat="45.0463" lon="6.12176">
        <ele>1030.6</ele>
        <time>2026-08-09T11:14:42Z</time>
      </trkpt>
      <trkpt lat="45.04649" lon="6.12189">
        <ele>1028.6</ele>
        <time>2026-08-09T11:14:44Z</time>
      </trkpt>
      <trkpt lat="45.0466" lon="6.12194">
        <ele>1027.2</ele>
        <time>2026-08-09T11:14:45Z</time>
      </trkpt>
      <trkpt lat="45.0467" lon="6.12199">
        <ele>1025.8</ele>
        <time>2026-08-09T11:14:46Z</time>
      </trkpt>
      <trkpt lat="45.0468" lon="6.12205">
        <ele>1024.2</ele>
        <time>2026-08-09T11:14:47Z</time>
      </trkpt>
      <trkpt lat="45.04689" lon="6.1221">
        <ele>1022.6</ele>
        <time>2026-08-09T11:14:48Z</time>
      </trkpt>
      <trkpt lat="45.04697" lon="6.12216">
        <ele>1021.2</ele>
        <time>2026-08-09T11:14:49Z</time>
      </trkpt>
      <trkpt lat="45.04705" lon="6.12224">
        <ele>1020.2</ele>
        <time>2026-08-09T11:14:50Z</time>
      </trkpt>
      <trkpt lat="45.04719" lon="6.12246">
        <ele>1017</ele>
        <time>2026-08-09T11:14:52Z</time>
      </trkpt>
      <trkpt lat="45.04726" lon="6.12258">
        <ele>1015.6</ele>
        <time>2026-08-09T11:14:53Z</time>
      </trkpt>
      <trkpt lat="45.04733" lon="6.1227">
        <ele>1014.2</ele>
        <time>2026-08-09T11:14:54Z</time>
      </trkpt>
      <trkpt lat="45.04739" lon="6.12282">
        <ele>1012.8</ele>
        <time>2026-08-09T11:14:55Z</time>
      </trkpt>
      <trkpt lat="45.04745" lon="6.12293">
        <ele>1012</ele>
        <time>2026-08-09T11:14:56Z</time>
      </trkpt>
      <trkpt lat="45.0475" lon="6.12306">
        <ele>1010.8</ele>
        <time>2026-08-09T11:14:57Z</time>
      </trkpt>
      <trkpt lat="45.04755" lon="6.12319">
        <ele>1009.8</ele>
        <time>2026-08-09T11:14:58Z</time>
      </trkpt>
      <trkpt lat="45.04759" lon="6.12332">
        <ele>1008.4</ele>
        <time>2026-08-09T11:14:59Z</time>
      </trkpt>
      <trkpt lat="45.04764" lon="6.12344">
        <ele>1007.2</ele>
        <time>2026-08-09T11:15:00Z</time>
      </trkpt>
      <trkpt lat="45.04768" lon="6.12357">
        <ele>1006</ele>
        <time>2026-08-09T11:15:01Z</time>
      </trkpt>
      <trkpt lat="45.04773" lon="6.12371">
        <ele>1005</ele>
        <time>2026-08-09T11:15:02Z</time>
      </trkpt>
      <trkpt lat="45.04778" lon="6.12403">
        <ele>1003</ele>
        <time>2026-08-09T11:15:04Z</time>
      </trkpt>
      <trkpt lat="45.04779" lon="6.1242">
        <ele>1001.4</ele>
        <time>2026-08-09T11:15:05Z</time>
      </trkpt>
      <trkpt lat="45.04779" lon="6.12439">
        <ele>1000</ele>
        <time>2026-08-09T11:15:06Z</time>
      </trkpt>
      <trkpt lat="45.04779" lon="6.12457">
        <ele>999</ele>
        <time>2026-08-09T11:15:07Z</time>
      </trkpt>
      <trkpt lat="45.04778" lon="6.12476">
        <ele>998</ele>
        <time>2026-08-09T11:15:08Z</time>
      </trkpt>
      <trkpt lat="45.04777" lon="6.12493">
        <ele>996.6</ele>
        <time>2026-08-09T11:15:09Z</time>
      </trkpt>
      <trkpt lat="45.04776" lon="6.12509">
        <ele>995.2</ele>
        <time>2026-08-09T11:15:10Z</time>
      </trkpt>
      <trkpt lat="45.04777" lon="6.12523">
        <ele>993.8</ele>
        <time>2026-08-09T11:15:11Z</time>
      </trkpt>
      <trkpt lat="45.04777" lon="6.12535">
        <ele>992.2</ele>
        <time>2026-08-09T11:15:12Z</time>
      </trkpt>
      <trkpt lat="45.04778" lon="6.12546">
        <ele>990.2</ele>
        <time>2026-08-09T11:15:13Z</time>
      </trkpt>
      <trkpt lat="45.0478" lon="6.12556">
        <ele>987.8</ele>
        <time>2026-08-09T11:15:14Z</time>
      </trkpt>
      <trkpt lat="45.04783" lon="6.12565">
        <ele>985.4</ele>
        <time>2026-08-09T11:15:15Z</time>
      </trkpt>
      <trkpt lat="45.04788" lon="6.12573">
        <ele>983.4</ele>
        <time>2026-08-09T11:15:16Z</time>
      </trkpt>
      <trkpt lat="45.04793" lon="6.12578">
        <ele>982.4</ele>
        <time>2026-08-09T11:15:17Z</time>
      </trkpt>
      <trkpt lat="45.048" lon="6.12582">
        <ele>981.8</ele>
        <time>2026-08-09T11:15:18Z</time>
      </trkpt>
      <trkpt lat="45.04807" lon="6.12584">
        <ele>981.4</ele>
        <time>2026-08-09T11:15:19Z</time>
      </trkpt>
      <trkpt lat="45.04815" lon="6.12587">
        <ele>981</ele>
        <time>2026-08-09T11:15:20Z</time>
      </trkpt>
      <trkpt lat="45.04831" lon="6.12591">
        <ele>980</ele>
        <time>2026-08-09T11:15:22Z</time>
      </trkpt>
      <trkpt lat="45.04839" lon="6.12592">
        <ele>979.8</ele>
        <time>2026-08-09T11:15:23Z</time>
      </trkpt>
      <trkpt lat="45.04846" lon="6.12591">
        <ele>979.6</ele>
        <time>2026-08-09T11:15:24Z</time>
      </trkpt>
      <trkpt lat="45.04856" lon="6.1259">
        <ele>979.4</ele>
        <time>2026-08-09T11:15:25Z</time>
      </trkpt>
      <trkpt lat="45.04861" lon="6.12592">
        <ele>978.8</ele>
        <time>2026-08-09T11:15:26Z</time>
      </trkpt>
      <trkpt lat="45.04861" lon="6.12592">
        <ele>978</ele>
        <time>2026-08-09T11:15:27Z</time>
      </trkpt>
      <trkpt lat="45.04864" lon="6.12597">
        <ele>977.4</ele>
        <time>2026-08-09T11:15:28Z</time>
      </trkpt>
      <trkpt lat="45.04864" lon="6.126">
        <ele>975.4</ele>
        <time>2026-08-09T11:15:30Z</time>
      </trkpt>
      <trkpt lat="45.04862" lon="6.12602">
        <ele>974.4</ele>
        <time>2026-08-09T11:15:32Z</time>
      </trkpt>
      <trkpt lat="45.04861" lon="6.12602">
        <ele>974.2</ele>
        <time>2026-08-09T11:15:33Z</time>
      </trkpt>
      <trkpt lat="45.04859" lon="6.12601">
        <ele>974</ele>
        <time>2026-08-09T11:15:34Z</time>
      </trkpt>
      <trkpt lat="45.04857" lon="6.126">
        <ele>973.8</ele>
        <time>2026-08-09T11:15:36Z</time>
      </trkpt>
      <trkpt lat="45.04858" lon="6.12599">
        <ele>973.6</ele>
        <time>2026-08-09T11:15:38Z</time>
      </trkpt>
      <trkpt lat="45.04858" lon="6.12598">
        <ele>973.4</ele>
        <time>2026-08-09T11:15:40Z</time>
      </trkpt>
      <trkpt lat="45.04858" lon="6.12598">
        <ele>973.4</ele>
        <time>2026-08-09T11:15:42Z</time>
      </trkpt>
      <trkpt lat="45.04856" lon="6.12598">
        <ele>973.2</ele>
        <time>2026-08-09T11:15:44Z</time>
      </trkpt>
      <trkpt lat="45.04854" lon="6.12599">
        <ele>973</ele>
        <time>2026-08-09T11:15:45Z</time>
      </trkpt>
      <trkpt lat="45.04851" lon="6.126">
        <ele>973</ele>
        <time>2026-08-09T11:15:46Z</time>
      </trkpt>
      <trkpt lat="45.04841" lon="6.12603">
        <ele>973</ele>
        <time>2026-08-09T11:15:48Z</time>
      </trkpt>
      <trkpt lat="45.0483" lon="6.12606">
        <ele>973</ele>
        <time>2026-08-09T11:15:50Z</time>
      </trkpt>
      <trkpt lat="45.04815" lon="6.12609">
        <ele>972.6</ele>
        <time>2026-08-09T11:15:52Z</time>
      </trkpt>
      <trkpt lat="45.04808" lon="6.12612">
        <ele>972.2</ele>
        <time>2026-08-09T11:15:53Z</time>
      </trkpt>
      <trkpt lat="45.048" lon="6.12613">
        <ele>971.8</ele>
        <time>2026-08-09T11:15:54Z</time>
      </trkpt>
      <trkpt lat="45.04793" lon="6.12614">
        <ele>971</ele>
        <time>2026-08-09T11:15:55Z</time>
      </trkpt>
      <trkpt lat="45.04785" lon="6.12614">
        <ele>970</ele>
        <time>2026-08-09T11:15:56Z</time>
      </trkpt>
      <trkpt lat="45.04778" lon="6.12613">
        <ele>969</ele>
        <time>2026-08-09T11:15:57Z</time>
      </trkpt>
      <trkpt lat="45.04772" lon="6.1261">
        <ele>967.8</ele>
        <time>2026-08-09T11:15:58Z</time>
      </trkpt>
      <trkpt lat="45.04765" lon="6.12605">
        <ele>966.6</ele>
        <time>2026-08-09T11:15:59Z</time>
      </trkpt>
      <trkpt lat="45.0476" lon="6.12597">
        <ele>965.6</ele>
        <time>2026-08-09T11:16:00Z</time>
      </trkpt>
      <trkpt lat="45.04752" lon="6.12581">
        <ele>963.8</ele>
        <time>2026-08-09T11:16:02Z</time>
      </trkpt>
      <trkpt lat="45.04743" lon="6.12571">
        <ele>962.4</ele>
        <time>2026-08-09T11:16:04Z</time>
      </trkpt>
      <trkpt lat="45.04735" lon="6.12576">
        <ele>961.6</ele>
        <time>2026-08-09T11:16:06Z</time>
      </trkpt>
      <trkpt lat="45.04733" lon="6.12582">
        <ele>961.2</ele>
        <time>2026-08-09T11:16:07Z</time>
      </trkpt>
      <trkpt lat="45.04733" lon="6.1259">
        <ele>961</ele>
        <time>2026-08-09T11:16:08Z</time>
      </trkpt>
      <trkpt lat="45.04735" lon="6.12599">
        <ele>960.2</ele>
        <time>2026-08-09T11:16:09Z</time>
      </trkpt>
      <trkpt lat="45.04737" lon="6.12609">
        <ele>959.4</ele>
        <time>2026-08-09T11:16:10Z</time>
      </trkpt>
      <trkpt lat="45.04738" lon="6.1262">
        <ele>959</ele>
        <time>2026-08-09T11:16:11Z</time>
      </trkpt>
      <trkpt lat="45.04736" lon="6.12632">
        <ele>958.6</ele>
        <time>2026-08-09T11:16:12Z</time>
      </trkpt>
      <trkpt lat="45.0473" lon="6.12656">
        <ele>958.2</ele>
        <time>2026-08-09T11:16:14Z</time>
      </trkpt>
      <trkpt lat="45.04727" lon="6.12668">
        <ele>957.8</ele>
        <time>2026-08-09T11:16:15Z</time>
      </trkpt>
      <trkpt lat="45.04724" lon="6.1268">
        <ele>957.4</ele>
        <time>2026-08-09T11:16:16Z</time>
      </trkpt>
      <trkpt lat="45.04722" lon="6.12693">
        <ele>956.8</ele>
        <time>2026-08-09T11:16:17Z</time>
      </trkpt>
      <trkpt lat="45.04723" lon="6.12704">
        <ele>955</ele>
        <time>2026-08-09T11:16:18Z</time>
      </trkpt>
      <trkpt lat="45.04727" lon="6.12714">
        <ele>953.8</ele>
        <time>2026-08-09T11:16:19Z</time>
      </trkpt>
      <trkpt lat="45.04732" lon="6.12723">
        <ele>952.4</ele>
        <time>2026-08-09T11:16:20Z</time>
      </trkpt>
      <trkpt lat="45.04737" lon="6.12732">
        <ele>951</ele>
        <time>2026-08-09T11:16:21Z</time>
      </trkpt>
      <trkpt lat="45.04741" lon="6.12742">
        <ele>950</ele>
        <time>2026-08-09T11:16:22Z</time>
      </trkpt>
      <trkpt lat="45.04744" lon="6.12752">
        <ele>949.4</ele>
        <time>2026-08-09T11:16:23Z</time>
      </trkpt>
      <trkpt lat="45.04744" lon="6.12763">
        <ele>948.8</ele>
        <time>2026-08-09T11:16:24Z</time>
      </trkpt>
      <trkpt lat="45.04734" lon="6.12778">
        <ele>948.4</ele>
        <time>2026-08-09T11:16:25Z</time>
      </trkpt>
      <trkpt lat="45.04728" lon="6.1278">
        <ele>948</ele>
        <time>2026-08-09T11:16:26Z</time>
      </trkpt>
      <trkpt lat="45.04723" lon="6.1278">
        <ele>947.2</ele>
        <time>2026-08-09T11:16:27Z</time>
      </trkpt>
      <trkpt lat="45.04719" lon="6.12778">
        <ele>946.6</ele>
        <time>2026-08-09T11:16:28Z</time>
      </trkpt>
      <trkpt lat="45.04719" lon="6.12778">
        <ele>946</ele>
        <time>2026-08-09T11:16:29Z</time>
      </trkpt>
      <trkpt lat="45.04713" lon="6.12776">
        <ele>945.4</ele>
        <time>2026-08-09T11:16:30Z</time>
      </trkpt>
      <trkpt lat="45.04713" lon="6.12776">
        <ele>945.2</ele>
        <time>2026-08-09T11:16:31Z</time>
      </trkpt>
      <trkpt lat="45.0471" lon="6.12774">
        <ele>945</ele>
        <time>2026-08-09T11:16:32Z</time>
      </trkpt>
      <trkpt lat="45.04703" lon="6.12769">
        <ele>944.8</ele>
        <time>2026-08-09T11:16:34Z</time>
      </trkpt>
      <trkpt lat="45.04694" lon="6.12766">
        <ele>944.8</ele>
        <time>2026-08-09T11:16:36Z</time>
      </trkpt>
      <trkpt lat="45.04691" lon="6.12764">
        <ele>944.8</ele>
        <time>2026-08-09T11:16:37Z</time>
      </trkpt>
      <trkpt lat="45.04687" lon="6.12763">
        <ele>944.8</ele>
        <time>2026-08-09T11:16:38Z</time>
      </trkpt>
      <trkpt lat="45.04679" lon="6.1276">
        <ele>944.8</ele>
        <time>2026-08-09T11:16:40Z</time>
      </trkpt>
      <trkpt lat="45.04671" lon="6.12757">
        <ele>944.8</ele>
        <time>2026-08-09T11:16:42Z</time>
      </trkpt>
      <trkpt lat="45.04668" lon="6.12756">
        <ele>944.8</ele>
        <time>2026-08-09T11:16:43Z</time>
      </trkpt>
      <trkpt lat="45.04664" lon="6.12754">
        <ele>944.8</ele>
        <time>2026-08-09T11:16:44Z</time>
      </trkpt>
      <trkpt lat="45.04659" lon="6.12751">
        <ele>944.8</ele>
        <time>2026-08-09T11:16:46Z</time>
      </trkpt>
      <trkpt lat="45.04655" lon="6.12748">
        <ele>945</ele>
        <time>2026-08-09T11:16:48Z</time>
      </trkpt>
      <trkpt lat="45.04653" lon="6.12747">
        <ele>945.2</ele>
        <time>2026-08-09T11:16:49Z</time>
      </trkpt>
      <trkpt lat="45.04651" lon="6.12746">
        <ele>945.4</ele>
        <time>2026-08-09T11:16:50Z</time>
      </trkpt>
      <trkpt lat="45.04648" lon="6.12746">
        <ele>945.6</ele>
        <time>2026-08-09T11:16:52Z</time>
      </trkpt>
      <trkpt lat="45.04646" lon="6.12747">
        <ele>946</ele>
        <time>2026-08-09T11:16:54Z</time>
      </trkpt>
      <trkpt lat="45.04645" lon="6.12748">
        <ele>946</ele>
        <time>2026-08-09T11:16:55Z</time>
      </trkpt>
      <trkpt lat="45.04644" lon="6.12748">
        <ele>946.4</ele>
        <time>2026-08-09T11:16:56Z</time>
      </trkpt>
      <trkpt lat="45.04643" lon="6.12748">
        <ele>946.8</ele>
        <time>2026-08-09T11:16:57Z</time>
      </trkpt>
      <trkpt lat="45.04642" lon="6.12747">
        <ele>947</ele>
        <time>2026-08-09T11:16:58Z</time>
      </trkpt>
      <trkpt lat="45.04639" lon="6.12745">
        <ele>947.2</ele>
        <time>2026-08-09T11:17:00Z</time>
      </trkpt>
      <trkpt lat="45.04638" lon="6.12745">
        <ele>947.4</ele>
        <time>2026-08-09T11:17:01Z</time>
      </trkpt>
      <trkpt lat="45.04636" lon="6.12742">
        <ele>947.4</ele>
        <time>2026-08-09T11:17:02Z</time>
      </trkpt>
      <trkpt lat="45.04631" lon="6.12739">
        <ele>947.8</ele>
        <time>2026-08-09T11:17:04Z</time>
      </trkpt>
      <trkpt lat="45.04629" lon="6.12738">
        <ele>947.8</ele>
        <time>2026-08-09T11:17:05Z</time>
      </trkpt>
      <trkpt lat="45.04627" lon="6.12736">
        <ele>948</ele>
        <time>2026-08-09T11:17:06Z</time>
      </trkpt>
      <trkpt lat="45.04625" lon="6.12733">
        <ele>948</ele>
        <time>2026-08-09T11:17:07Z</time>
      </trkpt>
      <trkpt lat="45.04623" lon="6.12731">
        <ele>948.2</ele>
        <time>2026-08-09T11:17:08Z</time>
      </trkpt>
      <trkpt lat="45.04619" lon="6.12727">
        <ele>948.4</ele>
        <time>2026-08-09T11:17:10Z</time>
      </trkpt>
      <trkpt lat="45.04615" lon="6.12723">
        <ele>948.8</ele>
        <time>2026-08-09T11:17:12Z</time>
      </trkpt>
      <trkpt lat="45.04611" lon="6.1272">
        <ele>949</ele>
        <time>2026-08-09T11:17:14Z</time>
      </trkpt>
      <trkpt lat="45.04609" lon="6.12719">
        <ele>949.6</ele>
        <time>2026-08-09T11:17:15Z</time>
      </trkpt>
      <trkpt lat="45.04607" lon="6.12717">
        <ele>949.6</ele>
        <time>2026-08-09T11:17:16Z</time>
      </trkpt>
      <trkpt lat="45.04603" lon="6.12715">
        <ele>950</ele>
        <time>2026-08-09T11:17:18Z</time>
      </trkpt>
      <trkpt lat="45.04599" lon="6.12713">
        <ele>950.2</ele>
        <time>2026-08-09T11:17:20Z</time>
      </trkpt>
      <trkpt lat="45.04595" lon="6.12712">
        <ele>950.2</ele>
        <time>2026-08-09T11:17:22Z</time>
      </trkpt>
      <trkpt lat="45.04591" lon="6.1271">
        <ele>950.2</ele>
        <time>2026-08-09T11:17:24Z</time>
      </trkpt>
      <trkpt lat="45.04589" lon="6.12709">
        <ele>950.4</ele>
        <time>2026-08-09T11:17:25Z</time>
      </trkpt>
      <trkpt lat="45.04587" lon="6.12708">
        <ele>950.4</ele>
        <time>2026-08-09T11:17:26Z</time>
      </trkpt>
      <trkpt lat="45.04585" lon="6.12707">
        <ele>950.4</ele>
        <time>2026-08-09T11:17:27Z</time>
      </trkpt>
      <trkpt lat="45.04583" lon="6.12706">
        <ele>950.4</ele>
        <time>2026-08-09T11:17:28Z</time>
      </trkpt>
      <trkpt lat="45.04579" lon="6.12705">
        <ele>950.6</ele>
        <time>2026-08-09T11:17:30Z</time>
      </trkpt>
      <trkpt lat="45.04575" lon="6.12705">
        <ele>950.6</ele>
        <time>2026-08-09T11:17:32Z</time>
      </trkpt>
      <trkpt lat="45.04572" lon="6.12705">
        <ele>950.8</ele>
        <time>2026-08-09T11:17:33Z</time>
      </trkpt>
      <trkpt lat="45.04569" lon="6.12705">
        <ele>951</ele>
        <time>2026-08-09T11:17:34Z</time>
      </trkpt>
      <trkpt lat="45.04565" lon="6.12709">
        <ele>951</ele>
        <time>2026-08-09T11:17:36Z</time>
      </trkpt>
      <trkpt lat="45.04563" lon="6.12711">
        <ele>951.4</ele>
        <time>2026-08-09T11:17:37Z</time>
      </trkpt>
      <trkpt lat="45.04561" lon="6.12714">
        <ele>951.6</ele>
        <time>2026-08-09T11:17:38Z</time>
      </trkpt>
      <trkpt lat="45.04556" lon="6.12721">
        <ele>952</ele>
        <time>2026-08-09T11:17:40Z</time>
      </trkpt>
      <trkpt lat="45.04553" lon="6.12724">
        <ele>952</ele>
        <time>2026-08-09T11:17:42Z</time>
      </trkpt>
      <trkpt lat="45.0455" lon="6.12726">
        <ele>952.2</ele>
        <time>2026-08-09T11:17:44Z</time>
      </trkpt>
      <trkpt lat="45.04548" lon="6.12727">
        <ele>952.4</ele>
        <time>2026-08-09T11:17:46Z</time>
      </trkpt>
      <trkpt lat="45.04541" lon="6.1273">
        <ele>952.6</ele>
        <time>2026-08-09T11:17:48Z</time>
      </trkpt>
      <trkpt lat="45.04539" lon="6.12731">
        <ele>953.2</ele>
        <time>2026-08-09T11:17:50Z</time>
      </trkpt>
      <trkpt lat="45.04535" lon="6.12732">
        <ele>953.6</ele>
        <time>2026-08-09T11:17:52Z</time>
      </trkpt>
      <trkpt lat="45.0453" lon="6.12733">
        <ele>953.8</ele>
        <time>2026-08-09T11:17:53Z</time>
      </trkpt>
      <trkpt lat="45.0453" lon="6.12733">
        <ele>953.8</ele>
        <time>2026-08-09T11:17:54Z</time>
      </trkpt>
      <trkpt lat="45.04526" lon="6.12734">
        <ele>954.4</ele>
        <time>2026-08-09T11:17:56Z</time>
      </trkpt>
      <trkpt lat="45.04522" lon="6.12735">
        <ele>954.6</ele>
        <time>2026-08-09T11:17:58Z</time>
      </trkpt>
      <trkpt lat="45.04518" lon="6.12736">
        <ele>954.6</ele>
        <time>2026-08-09T11:18:00Z</time>
      </trkpt>
      <trkpt lat="45.04511" lon="6.12737">
        <ele>954.8</ele>
        <time>2026-08-09T11:18:02Z</time>
      </trkpt>
      <trkpt lat="45.04507" lon="6.12738">
        <ele>955</ele>
        <time>2026-08-09T11:18:04Z</time>
      </trkpt>
      <trkpt lat="45.04505" lon="6.12738">
        <ele>955</ele>
        <time>2026-08-09T11:18:06Z</time>
      </trkpt>
      <trkpt lat="45.045" lon="6.12738">
        <ele>955.2</ele>
        <time>2026-08-09T11:18:08Z</time>
      </trkpt>
      <trkpt lat="45.04496" lon="6.12739">
        <ele>955.4</ele>
        <time>2026-08-09T11:18:10Z</time>
      </trkpt>
      <trkpt lat="45.04492" lon="6.12739">
        <ele>956</ele>
        <time>2026-08-09T11:18:12Z</time>
      </trkpt>
      <trkpt lat="45.0449" lon="6.1274">
        <ele>956</ele>
        <time>2026-08-09T11:18:13Z</time>
      </trkpt>
      <trkpt lat="45.04488" lon="6.1274">
        <ele>956</ele>
        <time>2026-08-09T11:18:14Z</time>
      </trkpt>
      <trkpt lat="45.04484" lon="6.12741">
        <ele>956.2</ele>
        <time>2026-08-09T11:18:16Z</time>
      </trkpt>
      <trkpt lat="45.0448" lon="6.12741">
        <ele>956.2</ele>
        <time>2026-08-09T11:18:18Z</time>
      </trkpt>
      <trkpt lat="45.04477" lon="6.12742">
        <ele>956.4</ele>
        <time>2026-08-09T11:18:20Z</time>
      </trkpt>
      <trkpt lat="45.04472" lon="6.12741">
        <ele>956.4</ele>
        <time>2026-08-09T11:18:22Z</time>
      </trkpt>
      <trkpt lat="45.04468" lon="6.1274">
        <ele>956.8</ele>
        <time>2026-08-09T11:18:24Z</time>
      </trkpt>
      <trkpt lat="45.04464" lon="6.1274">
        <ele>957.2</ele>
        <time>2026-08-09T11:18:26Z</time>
      </trkpt>
      <trkpt lat="45.04462" lon="6.12741">
        <ele>957.2</ele>
        <time>2026-08-09T11:18:27Z</time>
      </trkpt>
      <trkpt lat="45.0446" lon="6.12741">
        <ele>957.2</ele>
        <time>2026-08-09T11:18:28Z</time>
      </trkpt>
      <trkpt lat="45.04454" lon="6.12739">
        <ele>957.6</ele>
        <time>2026-08-09T11:18:30Z</time>
      </trkpt>
      <trkpt lat="45.04449" lon="6.12739">
        <ele>957.8</ele>
        <time>2026-08-09T11:18:31Z</time>
      </trkpt>
      <trkpt lat="45.04449" lon="6.12739">
        <ele>958.2</ele>
        <time>2026-08-09T11:18:32Z</time>
      </trkpt>
      <trkpt lat="45.04445" lon="6.12739">
        <ele>958.4</ele>
        <time>2026-08-09T11:18:33Z</time>
      </trkpt>
      <trkpt lat="45.04445" lon="6.12739">
        <ele>958.6</ele>
        <time>2026-08-09T11:18:34Z</time>
      </trkpt>
      <trkpt lat="45.0444" lon="6.12739">
        <ele>959</ele>
        <time>2026-08-09T11:18:36Z</time>
      </trkpt>
      <trkpt lat="45.04435" lon="6.1274">
        <ele>959.2</ele>
        <time>2026-08-09T11:18:38Z</time>
      </trkpt>
      <trkpt lat="45.04433" lon="6.12741">
        <ele>959.4</ele>
        <time>2026-08-09T11:18:39Z</time>
      </trkpt>
      <trkpt lat="45.04431" lon="6.12741">
        <ele>959.6</ele>
        <time>2026-08-09T11:18:40Z</time>
      </trkpt>
      <trkpt lat="45.04427" lon="6.12742">
        <ele>960</ele>
        <time>2026-08-09T11:18:42Z</time>
      </trkpt>
      <trkpt lat="45.04423" lon="6.12741">
        <ele>960</ele>
        <time>2026-08-09T11:18:44Z</time>
      </trkpt>
      <trkpt lat="45.04419" lon="6.12741">
        <ele>960.2</ele>
        <time>2026-08-09T11:18:46Z</time>
      </trkpt>
      <trkpt lat="45.04417" lon="6.12741">
        <ele>960.4</ele>
        <time>2026-08-09T11:18:47Z</time>
      </trkpt>
      <trkpt lat="45.04415" lon="6.12741">
        <ele>960.6</ele>
        <time>2026-08-09T11:18:48Z</time>
      </trkpt>
      <trkpt lat="45.0441" lon="6.12741">
        <ele>961</ele>
        <time>2026-08-09T11:18:50Z</time>
      </trkpt>
      <trkpt lat="45.04406" lon="6.12741">
        <ele>961</ele>
        <time>2026-08-09T11:18:52Z</time>
      </trkpt>
      <trkpt lat="45.04403" lon="6.12742">
        <ele>961.2</ele>
        <time>2026-08-09T11:18:53Z</time>
      </trkpt>
      <trkpt lat="45.04401" lon="6.12743">
        <ele>961.2</ele>
        <time>2026-08-09T11:18:54Z</time>
      </trkpt>
      <trkpt lat="45.04397" lon="6.12743">
        <ele>961.4</ele>
        <time>2026-08-09T11:18:56Z</time>
      </trkpt>
      <trkpt lat="45.04392" lon="6.12744">
        <ele>961.6</ele>
        <time>2026-08-09T11:18:58Z</time>
      </trkpt>
      <trkpt lat="45.04387" lon="6.12743">
        <ele>961.8</ele>
        <time>2026-08-09T11:19:00Z</time>
      </trkpt>
      <trkpt lat="45.04383" lon="6.12741">
        <ele>962</ele>
        <time>2026-08-09T11:19:02Z</time>
      </trkpt>
      <trkpt lat="45.04379" lon="6.1274">
        <ele>962.2</ele>
        <time>2026-08-09T11:19:04Z</time>
      </trkpt>
      <trkpt lat="45.04374" lon="6.12739">
        <ele>962.4</ele>
        <time>2026-08-09T11:19:06Z</time>
      </trkpt>
      <trkpt lat="45.04369" lon="6.12739">
        <ele>962.8</ele>
        <time>2026-08-09T11:19:08Z</time>
      </trkpt>
      <trkpt lat="45.04365" lon="6.1274">
        <ele>963</ele>
        <time>2026-08-09T11:19:10Z</time>
      </trkpt>
      <trkpt lat="45.0436" lon="6.12738">
        <ele>963.2</ele>
        <time>2026-08-09T11:19:12Z</time>
      </trkpt>
      <trkpt lat="45.04351" lon="6.12738">
        <ele>963.4</ele>
        <time>2026-08-09T11:19:14Z</time>
      </trkpt>
      <trkpt lat="45.04346" lon="6.12739">
        <ele>963.6</ele>
        <time>2026-08-09T11:19:16Z</time>
      </trkpt>
      <trkpt lat="45.0434" lon="6.12739">
        <ele>963.8</ele>
        <time>2026-08-09T11:19:18Z</time>
      </trkpt>
      <trkpt lat="45.04335" lon="6.12739">
        <ele>964.4</ele>
        <time>2026-08-09T11:19:20Z</time>
      </trkpt>
      <trkpt lat="45.04329" lon="6.12738">
        <ele>964.6</ele>
        <time>2026-08-09T11:19:22Z</time>
      </trkpt>
      <trkpt lat="45.04323" lon="6.12738">
        <ele>964.8</ele>
        <time>2026-08-09T11:19:24Z</time>
      </trkpt>
      <trkpt lat="45.04319" lon="6.12738">
        <ele>965</ele>
        <time>2026-08-09T11:19:26Z</time>
      </trkpt>
      <trkpt lat="45.04313" lon="6.12738">
        <ele>965.2</ele>
        <time>2026-08-09T11:19:28Z</time>
      </trkpt>
      <trkpt lat="45.04313" lon="6.12738">
        <ele>965.4</ele>
        <time>2026-08-09T11:19:29Z</time>
      </trkpt>
      <trkpt lat="45.04308" lon="6.12739">
        <ele>965.6</ele>
        <time>2026-08-09T11:19:30Z</time>
      </trkpt>
      <trkpt lat="45.04305" lon="6.12739">
        <ele>965.8</ele>
        <time>2026-08-09T11:19:32Z</time>
      </trkpt>
      <trkpt lat="45.04302" lon="6.12738">
        <ele>966</ele>
        <time>2026-08-09T11:19:33Z</time>
      </trkpt>
      <trkpt lat="45.043" lon="6.12738">
        <ele>966.2</ele>
        <time>2026-08-09T11:19:34Z</time>
      </trkpt>
      <trkpt lat="45.04294" lon="6.12736">
        <ele>966.6</ele>
        <time>2026-08-09T11:19:36Z</time>
      </trkpt>
      <trkpt lat="45.04292" lon="6.12737">
        <ele>966.6</ele>
        <time>2026-08-09T11:19:37Z</time>
      </trkpt>
      <trkpt lat="45.04289" lon="6.12736">
        <ele>966.8</ele>
        <time>2026-08-09T11:19:38Z</time>
      </trkpt>
      <trkpt lat="45.04285" lon="6.12736">
        <ele>967.2</ele>
        <time>2026-08-09T11:19:40Z</time>
      </trkpt>
      <trkpt lat="45.0428" lon="6.12736">
        <ele>967.4</ele>
        <time>2026-08-09T11:19:42Z</time>
      </trkpt>
      <trkpt lat="45.04278" lon="6.12735">
        <ele>967.4</ele>
        <time>2026-08-09T11:19:43Z</time>
      </trkpt>
      <trkpt lat="45.04276" lon="6.12733">
        <ele>967.6</ele>
        <time>2026-08-09T11:19:44Z</time>
      </trkpt>
      <trkpt lat="45.04272" lon="6.1273">
        <ele>968</ele>
        <time>2026-08-09T11:19:46Z</time>
      </trkpt>
      <trkpt lat="45.04267" lon="6.12726">
        <ele>968.4</ele>
        <time>2026-08-09T11:19:48Z</time>
      </trkpt>
      <trkpt lat="45.04265" lon="6.12723">
        <ele>968.6</ele>
        <time>2026-08-09T11:19:49Z</time>
      </trkpt>
      <trkpt lat="45.04263" lon="6.12721">
        <ele>968.6</ele>
        <time>2026-08-09T11:19:50Z</time>
      </trkpt>
      <trkpt lat="45.04259" lon="6.12717">
        <ele>969</ele>
        <time>2026-08-09T11:19:52Z</time>
      </trkpt>
      <trkpt lat="45.04252" lon="6.12713">
        <ele>969.4</ele>
        <time>2026-08-09T11:19:54Z</time>
      </trkpt>
      <trkpt lat="45.0425" lon="6.12712">
        <ele>969.6</ele>
        <time>2026-08-09T11:19:55Z</time>
      </trkpt>
      <trkpt lat="45.04248" lon="6.1271">
        <ele>969.6</ele>
        <time>2026-08-09T11:19:56Z</time>
      </trkpt>
      <trkpt lat="45.04242" lon="6.12707">
        <ele>969.6</ele>
        <time>2026-08-09T11:19:58Z</time>
      </trkpt>
      <trkpt lat="45.04236" lon="6.12705">
        <ele>970</ele>
        <time>2026-08-09T11:20:00Z</time>
      </trkpt>
      <trkpt lat="45.0423" lon="6.12699">
        <ele>970.4</ele>
        <time>2026-08-09T11:20:02Z</time>
      </trkpt>
      <trkpt lat="45.04226" lon="6.12697">
        <ele>970.6</ele>
        <time>2026-08-09T11:20:04Z</time>
      </trkpt>
      <trkpt lat="45.04222" lon="6.12693">
        <ele>970.8</ele>
        <time>2026-08-09T11:20:06Z</time>
      </trkpt>
      <trkpt lat="45.04219" lon="6.12692">
        <ele>971.2</ele>
        <time>2026-08-09T11:20:08Z</time>
      </trkpt>
      <trkpt lat="45.04215" lon="6.1269">
        <ele>971.6</ele>
        <time>2026-08-09T11:20:10Z</time>
      </trkpt>
      <trkpt lat="45.0421" lon="6.1269">
        <ele>972</ele>
        <time>2026-08-09T11:20:12Z</time>
      </trkpt>
      <trkpt lat="45.04206" lon="6.1269">
        <ele>972.4</ele>
        <time>2026-08-09T11:20:14Z</time>
      </trkpt>
      <trkpt lat="45.04201" lon="6.12688">
        <ele>972.6</ele>
        <time>2026-08-09T11:20:16Z</time>
      </trkpt>
      <trkpt lat="45.04196" lon="6.12686">
        <ele>972.6</ele>
        <time>2026-08-09T11:20:18Z</time>
      </trkpt>
      <trkpt lat="45.0419" lon="6.12683">
        <ele>972.8</ele>
        <time>2026-08-09T11:20:20Z</time>
      </trkpt>
      <trkpt lat="45.04185" lon="6.12683">
        <ele>973</ele>
        <time>2026-08-09T11:20:22Z</time>
      </trkpt>
      <trkpt lat="45.04179" lon="6.12683">
        <ele>973.4</ele>
        <time>2026-08-09T11:20:24Z</time>
      </trkpt>
      <trkpt lat="45.04175" lon="6.12682">
        <ele>973.4</ele>
        <time>2026-08-09T11:20:26Z</time>
      </trkpt>
      <trkpt lat="45.0417" lon="6.12677">
        <ele>973.6</ele>
        <time>2026-08-09T11:20:28Z</time>
      </trkpt>
      <trkpt lat="45.04166" lon="6.12673">
        <ele>974</ele>
        <time>2026-08-09T11:20:30Z</time>
      </trkpt>
      <trkpt lat="45.04157" lon="6.12663">
        <ele>974.2</ele>
        <time>2026-08-09T11:20:32Z</time>
      </trkpt>
      <trkpt lat="45.04154" lon="6.12661">
        <ele>974.2</ele>
        <time>2026-08-09T11:20:33Z</time>
      </trkpt>
      <trkpt lat="45.04151" lon="6.12659">
        <ele>974.4</ele>
        <time>2026-08-09T11:20:34Z</time>
      </trkpt>
      <trkpt lat="45.04146" lon="6.12655">
        <ele>974.6</ele>
        <time>2026-08-09T11:20:36Z</time>
      </trkpt>
      <trkpt lat="45.0414" lon="6.1265">
        <ele>974.8</ele>
        <time>2026-08-09T11:20:38Z</time>
      </trkpt>
      <trkpt lat="45.04134" lon="6.12645">
        <ele>974.8</ele>
        <time>2026-08-09T11:20:40Z</time>
      </trkpt>
      <trkpt lat="45.04132" lon="6.12642">
        <ele>975.2</ele>
        <time>2026-08-09T11:20:41Z</time>
      </trkpt>
      <trkpt lat="45.04129" lon="6.12638">
        <ele>975.2</ele>
        <time>2026-08-09T11:20:42Z</time>
      </trkpt>
      <trkpt lat="45.04125" lon="6.12631">
        <ele>975.6</ele>
        <time>2026-08-09T11:20:44Z</time>
      </trkpt>
      <trkpt lat="45.04121" lon="6.12625">
        <ele>976</ele>
        <time>2026-08-09T11:20:46Z</time>
      </trkpt>
      <trkpt lat="45.04119" lon="6.1262">
        <ele>976</ele>
        <time>2026-08-09T11:20:47Z</time>
      </trkpt>
      <trkpt lat="45.04118" lon="6.12616">
        <ele>976.2</ele>
        <time>2026-08-09T11:20:48Z</time>
      </trkpt>
      <trkpt lat="45.04115" lon="6.12605">
        <ele>976.6</ele>
        <time>2026-08-09T11:20:50Z</time>
      </trkpt>
      <trkpt lat="45.04113" lon="6.12596">
        <ele>976.8</ele>
        <time>2026-08-09T11:20:52Z</time>
      </trkpt>
      <trkpt lat="45.04111" lon="6.12586">
        <ele>977.2</ele>
        <time>2026-08-09T11:20:54Z</time>
      </trkpt>
      <trkpt lat="45.0411" lon="6.12582">
        <ele>977.4</ele>
        <time>2026-08-09T11:20:55Z</time>
      </trkpt>
      <trkpt lat="45.04109" lon="6.12579">
        <ele>977.6</ele>
        <time>2026-08-09T11:20:56Z</time>
      </trkpt>
      <trkpt lat="45.04107" lon="6.1257">
        <ele>977.8</ele>
        <time>2026-08-09T11:20:58Z</time>
      </trkpt>
      <trkpt lat="45.04106" lon="6.12561">
        <ele>978</ele>
        <time>2026-08-09T11:21:00Z</time>
      </trkpt>
      <trkpt lat="45.04105" lon="6.12554">
        <ele>978.2</ele>
        <time>2026-08-09T11:21:02Z</time>
      </trkpt>
      <trkpt lat="45.04105" lon="6.12546">
        <ele>978.8</ele>
        <time>2026-08-09T11:21:04Z</time>
      </trkpt>
      <trkpt lat="45.04104" lon="6.12538">
        <ele>979</ele>
        <time>2026-08-09T11:21:06Z</time>
      </trkpt>
      <trkpt lat="45.04104" lon="6.12531">
        <ele>979.2</ele>
        <time>2026-08-09T11:21:08Z</time>
      </trkpt>
      <trkpt lat="45.04104" lon="6.12528">
        <ele>979.2</ele>
        <time>2026-08-09T11:21:09Z</time>
      </trkpt>
      <trkpt lat="45.04104" lon="6.12524">
        <ele>979.2</ele>
        <time>2026-08-09T11:21:10Z</time>
      </trkpt>
      <trkpt lat="45.04105" lon="6.12516">
        <ele>979.4</ele>
        <time>2026-08-09T11:21:12Z</time>
      </trkpt>
      <trkpt lat="45.04104" lon="6.12509">
        <ele>979.6</ele>
        <time>2026-08-09T11:21:14Z</time>
      </trkpt>
      <trkpt lat="45.04104" lon="6.12503">
        <ele>979.8</ele>
        <time>2026-08-09T11:21:16Z</time>
      </trkpt>
      <trkpt lat="45.04104" lon="6.125">
        <ele>979.8</ele>
        <time>2026-08-09T11:21:17Z</time>
      </trkpt>
      <trkpt lat="45.04104" lon="6.12497">
        <ele>980</ele>
        <time>2026-08-09T11:21:18Z</time>
      </trkpt>
      <trkpt lat="45.04102" lon="6.12491">
        <ele>980.2</ele>
        <time>2026-08-09T11:21:20Z</time>
      </trkpt>
      <trkpt lat="45.04101" lon="6.12486">
        <ele>980.6</ele>
        <time>2026-08-09T11:21:22Z</time>
      </trkpt>
      <trkpt lat="45.04099" lon="6.12475">
        <ele>980.6</ele>
        <time>2026-08-09T11:21:24Z</time>
      </trkpt>
      <trkpt lat="45.04098" lon="6.12469">
        <ele>980.6</ele>
        <time>2026-08-09T11:21:25Z</time>
      </trkpt>
      <trkpt lat="45.04096" lon="6.12464">
        <ele>980.8</ele>
        <time>2026-08-09T11:21:26Z</time>
      </trkpt>
      <trkpt lat="45.04093" lon="6.12457">
        <ele>981</ele>
        <time>2026-08-09T11:21:28Z</time>
      </trkpt>
      <trkpt lat="45.04091" lon="6.12455">
        <ele>981</ele>
        <time>2026-08-09T11:21:29Z</time>
      </trkpt>
      <trkpt lat="45.04089" lon="6.12453">
        <ele>981.2</ele>
        <time>2026-08-09T11:21:30Z</time>
      </trkpt>
      <trkpt lat="45.04085" lon="6.12452">
        <ele>981.8</ele>
        <time>2026-08-09T11:21:32Z</time>
      </trkpt>
      <trkpt lat="45.0408" lon="6.12451">
        <ele>982</ele>
        <time>2026-08-09T11:21:34Z</time>
      </trkpt>
      <trkpt lat="45.04078" lon="6.12451">
        <ele>982</ele>
        <time>2026-08-09T11:21:35Z</time>
      </trkpt>
      <trkpt lat="45.04076" lon="6.12451">
        <ele>982.2</ele>
        <time>2026-08-09T11:21:36Z</time>
      </trkpt>
      <trkpt lat="45.04072" lon="6.12451">
        <ele>982.4</ele>
        <time>2026-08-09T11:21:38Z</time>
      </trkpt>
      <trkpt lat="45.04068" lon="6.12451">
        <ele>982.8</ele>
        <time>2026-08-09T11:21:40Z</time>
      </trkpt>
      <trkpt lat="45.04065" lon="6.12452">
        <ele>983.2</ele>
        <time>2026-08-09T11:21:42Z</time>
      </trkpt>
      <trkpt lat="45.04063" lon="6.12453">
        <ele>983.4</ele>
        <time>2026-08-09T11:21:43Z</time>
      </trkpt>
      <trkpt lat="45.04062" lon="6.12455">
        <ele>983.6</ele>
        <time>2026-08-09T11:21:44Z</time>
      </trkpt>
      <trkpt lat="45.0406" lon="6.12458">
        <ele>983.8</ele>
        <time>2026-08-09T11:21:46Z</time>
      </trkpt>
      <trkpt lat="45.04058" lon="6.12463">
        <ele>984</ele>
        <time>2026-08-09T11:21:48Z</time>
      </trkpt>
      <trkpt lat="45.04055" lon="6.12472">
        <ele>984.6</ele>
        <time>2026-08-09T11:21:50Z</time>
      </trkpt>
      <trkpt lat="45.04054" lon="6.1248">
        <ele>984.8</ele>
        <time>2026-08-09T11:21:52Z</time>
      </trkpt>
      <trkpt lat="45.04053" lon="6.12489">
        <ele>985.2</ele>
        <time>2026-08-09T11:21:54Z</time>
      </trkpt>
      <trkpt lat="45.04053" lon="6.12498">
        <ele>985.6</ele>
        <time>2026-08-09T11:21:56Z</time>
      </trkpt>
      <trkpt lat="45.04052" lon="6.12507">
        <ele>986.2</ele>
        <time>2026-08-09T11:21:58Z</time>
      </trkpt>
      <trkpt lat="45.04053" lon="6.1252">
        <ele>986.6</ele>
        <time>2026-08-09T11:22:00Z</time>
      </trkpt>
      <trkpt lat="45.04053" lon="6.12524">
        <ele>986.8</ele>
        <time>2026-08-09T11:22:02Z</time>
      </trkpt>
      <trkpt lat="45.04054" lon="6.12536">
        <ele>987.2</ele>
        <time>2026-08-09T11:22:04Z</time>
      </trkpt>
      <trkpt lat="45.04055" lon="6.12539">
        <ele>987.2</ele>
        <time>2026-08-09T11:22:06Z</time>
      </trkpt>
      <trkpt lat="45.04056" lon="6.12546">
        <ele>987.4</ele>
        <time>2026-08-09T11:22:08Z</time>
      </trkpt>
      <trkpt lat="45.04056" lon="6.12554">
        <ele>987.6</ele>
        <time>2026-08-09T11:22:10Z</time>
      </trkpt>
      <trkpt lat="45.04056" lon="6.12567">
        <ele>987.8</ele>
        <time>2026-08-09T11:22:12Z</time>
      </trkpt>
      <trkpt lat="45.04056" lon="6.12571">
        <ele>988</ele>
        <time>2026-08-09T11:22:14Z</time>
      </trkpt>
      <trkpt lat="45.04057" lon="6.12579">
        <ele>988.4</ele>
        <time>2026-08-09T11:22:16Z</time>
      </trkpt>
      <trkpt lat="45.04058" lon="6.12588">
        <ele>988.8</ele>
        <time>2026-08-09T11:22:18Z</time>
      </trkpt>
      <trkpt lat="45.04061" lon="6.12599">
        <ele>989</ele>
        <time>2026-08-09T11:22:20Z</time>
      </trkpt>
      <trkpt lat="45.04062" lon="6.12602">
        <ele>989.4</ele>
        <time>2026-08-09T11:22:22Z</time>
      </trkpt>
      <trkpt lat="45.04063" lon="6.1261">
        <ele>990</ele>
        <time>2026-08-09T11:22:24Z</time>
      </trkpt>
      <trkpt lat="45.04066" lon="6.1262">
        <ele>990.4</ele>
        <time>2026-08-09T11:22:26Z</time>
      </trkpt>
      <trkpt lat="45.04067" lon="6.12623">
        <ele>990.6</ele>
        <time>2026-08-09T11:22:27Z</time>
      </trkpt>
      <trkpt lat="45.04069" lon="6.12626">
        <ele>990.8</ele>
        <time>2026-08-09T11:22:28Z</time>
      </trkpt>
      <trkpt lat="45.04069" lon="6.12626">
        <ele>991.2</ele>
        <time>2026-08-09T11:22:29Z</time>
      </trkpt>
      <trkpt lat="45.04069" lon="6.12629">
        <ele>991.2</ele>
        <time>2026-08-09T11:22:30Z</time>
      </trkpt>
      <trkpt lat="45.04072" lon="6.12634">
        <ele>991.6</ele>
        <time>2026-08-09T11:22:32Z</time>
      </trkpt>
      <trkpt lat="45.04075" lon="6.12641">
        <ele>992</ele>
        <time>2026-08-09T11:22:34Z</time>
      </trkpt>
      <trkpt lat="45.04076" lon="6.12644">
        <ele>992.2</ele>
        <time>2026-08-09T11:22:35Z</time>
      </trkpt>
      <trkpt lat="45.04078" lon="6.12646">
        <ele>992.2</ele>
        <time>2026-08-09T11:22:36Z</time>
      </trkpt>
      <trkpt lat="45.04081" lon="6.12652">
        <ele>992.6</ele>
        <time>2026-08-09T11:22:38Z</time>
      </trkpt>
      <trkpt lat="45.04085" lon="6.12657">
        <ele>992.8</ele>
        <time>2026-08-09T11:22:40Z</time>
      </trkpt>
      <trkpt lat="45.04089" lon="6.12663">
        <ele>993</ele>
        <time>2026-08-09T11:22:42Z</time>
      </trkpt>
      <trkpt lat="45.04091" lon="6.12666">
        <ele>993.2</ele>
        <time>2026-08-09T11:22:43Z</time>
      </trkpt>
      <trkpt lat="45.04093" lon="6.12669">
        <ele>993.4</ele>
        <time>2026-08-09T11:22:44Z</time>
      </trkpt>
      <trkpt lat="45.04098" lon="6.12674">
        <ele>993.6</ele>
        <time>2026-08-09T11:22:46Z</time>
      </trkpt>
      <trkpt lat="45.04104" lon="6.12679">
        <ele>994</ele>
        <time>2026-08-09T11:22:48Z</time>
      </trkpt>
      <trkpt lat="45.04109" lon="6.12684">
        <ele>994.2</ele>
        <time>2026-08-09T11:22:50Z</time>
      </trkpt>
      <trkpt lat="45.04115" lon="6.12691">
        <ele>994.4</ele>
        <time>2026-08-09T11:22:52Z</time>
      </trkpt>
      <trkpt lat="45.04117" lon="6.12693">
        <ele>994.6</ele>
        <time>2026-08-09T11:22:54Z</time>
      </trkpt>
      <trkpt lat="45.04119" lon="6.12695">
        <ele>994.8</ele>
        <time>2026-08-09T11:22:55Z</time>
      </trkpt>
      <trkpt lat="45.04121" lon="6.12698">
        <ele>995</ele>
        <time>2026-08-09T11:22:56Z</time>
      </trkpt>
      <trkpt lat="45.04125" lon="6.12703">
        <ele>995.2</ele>
        <time>2026-08-09T11:22:58Z</time>
      </trkpt>
      <trkpt lat="45.04127" lon="6.12705">
        <ele>995.4</ele>
        <time>2026-08-09T11:22:59Z</time>
      </trkpt>
      <trkpt lat="45.04129" lon="6.12708">
        <ele>995.4</ele>
        <time>2026-08-09T11:23:00Z</time>
      </trkpt>
      <trkpt lat="45.04131" lon="6.12711">
        <ele>995.6</ele>
        <time>2026-08-09T11:23:01Z</time>
      </trkpt>
      <trkpt lat="45.04133" lon="6.12713">
        <ele>995.8</ele>
        <time>2026-08-09T11:23:02Z</time>
      </trkpt>
      <trkpt lat="45.04137" lon="6.12718">
        <ele>996</ele>
        <time>2026-08-09T11:23:04Z</time>
      </trkpt>
      <trkpt lat="45.0414" lon="6.12722">
        <ele>996.2</ele>
        <time>2026-08-09T11:23:06Z</time>
      </trkpt>
      <trkpt lat="45.04142" lon="6.12725">
        <ele>996.4</ele>
        <time>2026-08-09T11:23:07Z</time>
      </trkpt>
      <trkpt lat="45.04144" lon="6.12727">
        <ele>996.6</ele>
        <time>2026-08-09T11:23:08Z</time>
      </trkpt>
      <trkpt lat="45.04147" lon="6.12732">
        <ele>996.8</ele>
        <time>2026-08-09T11:23:10Z</time>
      </trkpt>
      <trkpt lat="45.0415" lon="6.12737">
        <ele>997</ele>
        <time>2026-08-09T11:23:12Z</time>
      </trkpt>
      <trkpt lat="45.04154" lon="6.12742">
        <ele>997.4</ele>
        <time>2026-08-09T11:23:14Z</time>
      </trkpt>
      <trkpt lat="45.04155" lon="6.12745">
        <ele>997.4</ele>
        <time>2026-08-09T11:23:15Z</time>
      </trkpt>
      <trkpt lat="45.04157" lon="6.12747">
        <ele>997.6</ele>
        <time>2026-08-09T11:23:16Z</time>
      </trkpt>
      <trkpt lat="45.04161" lon="6.12752">
        <ele>998</ele>
        <time>2026-08-09T11:23:18Z</time>
      </trkpt>
      <trkpt lat="45.04165" lon="6.12757">
        <ele>998.2</ele>
        <time>2026-08-09T11:23:20Z</time>
      </trkpt>
      <trkpt lat="45.04169" lon="6.12762">
        <ele>998.4</ele>
        <time>2026-08-09T11:23:22Z</time>
      </trkpt>
      <trkpt lat="45.04173" lon="6.12767">
        <ele>998.6</ele>
        <time>2026-08-09T11:23:24Z</time>
      </trkpt>
      <trkpt lat="45.04176" lon="6.12772">
        <ele>999.2</ele>
        <time>2026-08-09T11:23:26Z</time>
      </trkpt>
      <trkpt lat="45.04178" lon="6.12774">
        <ele>999.4</ele>
        <time>2026-08-09T11:23:27Z</time>
      </trkpt>
      <trkpt lat="45.0418" lon="6.12776">
        <ele>999.6</ele>
        <time>2026-08-09T11:23:28Z</time>
      </trkpt>
      <trkpt lat="45.04185" lon="6.12779">
        <ele>999.8</ele>
        <time>2026-08-09T11:23:30Z</time>
      </trkpt>
      <trkpt lat="45.0419" lon="6.12783">
        <ele>1000.2</ele>
        <time>2026-08-09T11:23:32Z</time>
      </trkpt>
      <trkpt lat="45.04193" lon="6.12786">
        <ele>1000.4</ele>
        <time>2026-08-09T11:23:34Z</time>
      </trkpt>
      <trkpt lat="45.04196" lon="6.12788">
        <ele>1000.6</ele>
        <time>2026-08-09T11:23:35Z</time>
      </trkpt>
      <trkpt lat="45.04198" lon="6.1279">
        <ele>1000.8</ele>
        <time>2026-08-09T11:23:36Z</time>
      </trkpt>
      <trkpt lat="45.04202" lon="6.12795">
        <ele>1001.2</ele>
        <time>2026-08-09T11:23:38Z</time>
      </trkpt>
      <trkpt lat="45.04205" lon="6.12799">
        <ele>1001.4</ele>
        <time>2026-08-09T11:23:40Z</time>
      </trkpt>
      <trkpt lat="45.04209" lon="6.12803">
        <ele>1001.8</ele>
        <time>2026-08-09T11:23:42Z</time>
      </trkpt>
      <trkpt lat="45.04213" lon="6.12807">
        <ele>1002</ele>
        <time>2026-08-09T11:23:44Z</time>
      </trkpt>
      <trkpt lat="45.04218" lon="6.12811">
        <ele>1002.2</ele>
        <time>2026-08-09T11:23:46Z</time>
      </trkpt>
      <trkpt lat="45.04226" lon="6.12816">
        <ele>1002.6</ele>
        <time>2026-08-09T11:23:48Z</time>
      </trkpt>
      <trkpt lat="45.04226" lon="6.12816">
        <ele>1002.8</ele>
        <time>2026-08-09T11:23:49Z</time>
      </trkpt>
      <trkpt lat="45.04228" lon="6.12818">
        <ele>1003</ele>
        <time>2026-08-09T11:23:50Z</time>
      </trkpt>
      <trkpt lat="45.04233" lon="6.12821">
        <ele>1003.2</ele>
        <time>2026-08-09T11:23:52Z</time>
      </trkpt>
      <trkpt lat="45.04237" lon="6.12825">
        <ele>1003.6</ele>
        <time>2026-08-09T11:23:54Z</time>
      </trkpt>
      <trkpt lat="45.04242" lon="6.12829">
        <ele>1004</ele>
        <time>2026-08-09T11:23:56Z</time>
      </trkpt>
      <trkpt lat="45.04245" lon="6.1283">
        <ele>1004.2</ele>
        <time>2026-08-09T11:23:57Z</time>
      </trkpt>
      <trkpt lat="45.04248" lon="6.12831">
        <ele>1004.2</ele>
        <time>2026-08-09T11:23:58Z</time>
      </trkpt>
      <trkpt lat="45.04253" lon="6.12834">
        <ele>1004.6</ele>
        <time>2026-08-09T11:24:00Z</time>
      </trkpt>
      <trkpt lat="45.04256" lon="6.12836">
        <ele>1004.8</ele>
        <time>2026-08-09T11:24:01Z</time>
      </trkpt>
      <trkpt lat="45.04258" lon="6.12837">
        <ele>1005</ele>
        <time>2026-08-09T11:24:02Z</time>
      </trkpt>
      <trkpt lat="45.04263" lon="6.12841">
        <ele>1005.4</ele>
        <time>2026-08-09T11:24:04Z</time>
      </trkpt>
      <trkpt lat="45.04268" lon="6.12844">
        <ele>1005.6</ele>
        <time>2026-08-09T11:24:06Z</time>
      </trkpt>
      <trkpt lat="45.04273" lon="6.12847">
        <ele>1006</ele>
        <time>2026-08-09T11:24:08Z</time>
      </trkpt>
      <trkpt lat="45.04275" lon="6.12849">
        <ele>1006</ele>
        <time>2026-08-09T11:24:09Z</time>
      </trkpt>
      <trkpt lat="45.04277" lon="6.1285">
        <ele>1006.2</ele>
        <time>2026-08-09T11:24:10Z</time>
      </trkpt>
      <trkpt lat="45.04281" lon="6.12853">
        <ele>1006.4</ele>
        <time>2026-08-09T11:24:12Z</time>
      </trkpt>
      <trkpt lat="45.04283" lon="6.12855">
        <ele>1006.6</ele>
        <time>2026-08-09T11:24:13Z</time>
      </trkpt>
      <trkpt lat="45.04286" lon="6.12857">
        <ele>1006.6</ele>
        <time>2026-08-09T11:24:14Z</time>
      </trkpt>
      <trkpt lat="45.04291" lon="6.1286">
        <ele>1007</ele>
        <time>2026-08-09T11:24:16Z</time>
      </trkpt>
      <trkpt lat="45.04293" lon="6.12862">
        <ele>1007</ele>
        <time>2026-08-09T11:24:17Z</time>
      </trkpt>
      <trkpt lat="45.04295" lon="6.12864">
        <ele>1007.2</ele>
        <time>2026-08-09T11:24:18Z</time>
      </trkpt>
      <trkpt lat="45.04299" lon="6.12868">
        <ele>1007.4</ele>
        <time>2026-08-09T11:24:20Z</time>
      </trkpt>
      <trkpt lat="45.04302" lon="6.12872">
        <ele>1007.8</ele>
        <time>2026-08-09T11:24:22Z</time>
      </trkpt>
      <trkpt lat="45.04306" lon="6.12878">
        <ele>1008.2</ele>
        <time>2026-08-09T11:24:24Z</time>
      </trkpt>
      <trkpt lat="45.04307" lon="6.12881">
        <ele>1008.4</ele>
        <time>2026-08-09T11:24:26Z</time>
      </trkpt>
      <trkpt lat="45.0431" lon="6.12885">
        <ele>1008.8</ele>
        <time>2026-08-09T11:24:28Z</time>
      </trkpt>
      <trkpt lat="45.04313" lon="6.1289">
        <ele>1009.2</ele>
        <time>2026-08-09T11:24:30Z</time>
      </trkpt>
      <trkpt lat="45.04314" lon="6.12893">
        <ele>1009.4</ele>
        <time>2026-08-09T11:24:31Z</time>
      </trkpt>
      <trkpt lat="45.04316" lon="6.12895">
        <ele>1009.4</ele>
        <time>2026-08-09T11:24:32Z</time>
      </trkpt>
      <trkpt lat="45.04318" lon="6.12899">
        <ele>1009.8</ele>
        <time>2026-08-09T11:24:34Z</time>
      </trkpt>
      <trkpt lat="45.04321" lon="6.12904">
        <ele>1010.2</ele>
        <time>2026-08-09T11:24:36Z</time>
      </trkpt>
      <trkpt lat="45.04322" lon="6.12906">
        <ele>1010.4</ele>
        <time>2026-08-09T11:24:37Z</time>
      </trkpt>
      <trkpt lat="45.04324" lon="6.12908">
        <ele>1010.4</ele>
        <time>2026-08-09T11:24:38Z</time>
      </trkpt>
      <trkpt lat="45.04329" lon="6.12911">
        <ele>1010.8</ele>
        <time>2026-08-09T11:24:40Z</time>
      </trkpt>
      <trkpt lat="45.04334" lon="6.12915">
        <ele>1011</ele>
        <time>2026-08-09T11:24:42Z</time>
      </trkpt>
      <trkpt lat="45.04339" lon="6.12919">
        <ele>1011.4</ele>
        <time>2026-08-09T11:24:44Z</time>
      </trkpt>
      <trkpt lat="45.04341" lon="6.1292">
        <ele>1011.6</ele>
        <time>2026-08-09T11:24:45Z</time>
      </trkpt>
      <trkpt lat="45.04344" lon="6.12921">
        <ele>1011.6</ele>
        <time>2026-08-09T11:24:46Z</time>
      </trkpt>
      <trkpt lat="45.04348" lon="6.12925">
        <ele>1011.8</ele>
        <time>2026-08-09T11:24:48Z</time>
      </trkpt>
      <trkpt lat="45.04352" lon="6.12928">
        <ele>1012.2</ele>
        <time>2026-08-09T11:24:50Z</time>
      </trkpt>
      <trkpt lat="45.04356" lon="6.12932">
        <ele>1012.8</ele>
        <time>2026-08-09T11:24:52Z</time>
      </trkpt>
      <trkpt lat="45.0436" lon="6.12936">
        <ele>1013.2</ele>
        <time>2026-08-09T11:24:54Z</time>
      </trkpt>
      <trkpt lat="45.04363" lon="6.1294">
        <ele>1013.4</ele>
        <time>2026-08-09T11:24:56Z</time>
      </trkpt>
      <trkpt lat="45.04366" lon="6.12945">
        <ele>1013.8</ele>
        <time>2026-08-09T11:24:58Z</time>
      </trkpt>
      <trkpt lat="45.04368" lon="6.12947">
        <ele>1013.8</ele>
        <time>2026-08-09T11:24:59Z</time>
      </trkpt>
      <trkpt lat="45.04369" lon="6.1295">
        <ele>1014</ele>
        <time>2026-08-09T11:25:00Z</time>
      </trkpt>
      <trkpt lat="45.04372" lon="6.12954">
        <ele>1014.4</ele>
        <time>2026-08-09T11:25:02Z</time>
      </trkpt>
      <trkpt lat="45.04376" lon="6.12959">
        <ele>1014.6</ele>
        <time>2026-08-09T11:25:04Z</time>
      </trkpt>
      <trkpt lat="45.04378" lon="6.12961">
        <ele>1014.8</ele>
        <time>2026-08-09T11:25:05Z</time>
      </trkpt>
      <trkpt lat="45.0438" lon="6.12962">
        <ele>1015</ele>
        <time>2026-08-09T11:25:06Z</time>
      </trkpt>
      <trkpt lat="45.04382" lon="6.12964">
        <ele>1015</ele>
        <time>2026-08-09T11:25:07Z</time>
      </trkpt>
      <trkpt lat="45.04384" lon="6.12966">
        <ele>1015.2</ele>
        <time>2026-08-09T11:25:08Z</time>
      </trkpt>
      <trkpt lat="45.04386" lon="6.12969">
        <ele>1015.6</ele>
        <time>2026-08-09T11:25:10Z</time>
      </trkpt>
      <trkpt lat="45.04389" lon="6.12971">
        <ele>1015.8</ele>
        <time>2026-08-09T11:25:11Z</time>
      </trkpt>
      <trkpt lat="45.04391" lon="6.12973">
        <ele>1015.8</ele>
        <time>2026-08-09T11:25:12Z</time>
      </trkpt>
      <trkpt lat="45.04394" lon="6.12975">
        <ele>1015.8</ele>
        <time>2026-08-09T11:25:13Z</time>
      </trkpt>
      <trkpt lat="45.04396" lon="6.12977">
        <ele>1016</ele>
        <time>2026-08-09T11:25:14Z</time>
      </trkpt>
      <trkpt lat="45.04401" lon="6.1298">
        <ele>1016.4</ele>
        <time>2026-08-09T11:25:16Z</time>
      </trkpt>
      <trkpt lat="45.04403" lon="6.12982">
        <ele>1016.8</ele>
        <time>2026-08-09T11:25:17Z</time>
      </trkpt>
      <trkpt lat="45.04404" lon="6.12984">
        <ele>1016.8</ele>
        <time>2026-08-09T11:25:18Z</time>
      </trkpt>
      <trkpt lat="45.04405" lon="6.12985">
        <ele>1017</ele>
        <time>2026-08-09T11:25:19Z</time>
      </trkpt>
      <trkpt lat="45.04407" lon="6.12987">
        <ele>1017</ele>
        <time>2026-08-09T11:25:20Z</time>
      </trkpt>
      <trkpt lat="45.04409" lon="6.1299">
        <ele>1017.6</ele>
        <time>2026-08-09T11:25:22Z</time>
      </trkpt>
      <trkpt lat="45.04411" lon="6.12992">
        <ele>1017.8</ele>
        <time>2026-08-09T11:25:23Z</time>
      </trkpt>
      <trkpt lat="45.04412" lon="6.12994">
        <ele>1017.8</ele>
        <time>2026-08-09T11:25:24Z</time>
      </trkpt>
      <trkpt lat="45.04414" lon="6.12996">
        <ele>1017.8</ele>
        <time>2026-08-09T11:25:25Z</time>
      </trkpt>
      <trkpt lat="45.04415" lon="6.12998">
        <ele>1018</ele>
        <time>2026-08-09T11:25:26Z</time>
      </trkpt>
      <trkpt lat="45.04418" lon="6.13002">
        <ele>1018.2</ele>
        <time>2026-08-09T11:25:28Z</time>
      </trkpt>
      <trkpt lat="45.04419" lon="6.13005">
        <ele>1018.4</ele>
        <time>2026-08-09T11:25:29Z</time>
      </trkpt>
      <trkpt lat="45.0442" lon="6.13007">
        <ele>1018.8</ele>
        <time>2026-08-09T11:25:30Z</time>
      </trkpt>
      <trkpt lat="45.04426" lon="6.13011">
        <ele>1019.2</ele>
        <time>2026-08-09T11:25:32Z</time>
      </trkpt>
      <trkpt lat="45.04429" lon="6.13015">
        <ele>1019.4</ele>
        <time>2026-08-09T11:25:34Z</time>
      </trkpt>
      <trkpt lat="45.04433" lon="6.13019">
        <ele>1019.8</ele>
        <time>2026-08-09T11:25:36Z</time>
      </trkpt>
      <trkpt lat="45.04435" lon="6.13024">
        <ele>1020.2</ele>
        <time>2026-08-09T11:25:38Z</time>
      </trkpt>
      <trkpt lat="45.0444" lon="6.13028">
        <ele>1020.6</ele>
        <time>2026-08-09T11:25:40Z</time>
      </trkpt>
      <trkpt lat="45.04448" lon="6.13031">
        <ele>1021</ele>
        <time>2026-08-09T11:25:42Z</time>
      </trkpt>
      <trkpt lat="45.04455" lon="6.13033">
        <ele>1021.2</ele>
        <time>2026-08-09T11:25:44Z</time>
      </trkpt>
      <trkpt lat="45.04459" lon="6.13035">
        <ele>1021.4</ele>
        <time>2026-08-09T11:25:45Z</time>
      </trkpt>
      <trkpt lat="45.04462" lon="6.13036">
        <ele>1021.4</ele>
        <time>2026-08-09T11:25:46Z</time>
      </trkpt>
      <trkpt lat="45.04468" lon="6.13039">
        <ele>1021.6</ele>
        <time>2026-08-09T11:25:48Z</time>
      </trkpt>
      <trkpt lat="45.04474" lon="6.13042">
        <ele>1022.2</ele>
        <time>2026-08-09T11:25:50Z</time>
      </trkpt>
      <trkpt lat="45.04479" lon="6.13045">
        <ele>1022.4</ele>
        <time>2026-08-09T11:25:52Z</time>
      </trkpt>
      <trkpt lat="45.04484" lon="6.13048">
        <ele>1022.6</ele>
        <time>2026-08-09T11:25:54Z</time>
      </trkpt>
      <trkpt lat="45.04485" lon="6.13051">
        <ele>1022.8</ele>
        <time>2026-08-09T11:25:55Z</time>
      </trkpt>
      <trkpt lat="45.04487" lon="6.13053">
        <ele>1022.8</ele>
        <time>2026-08-09T11:25:56Z</time>
      </trkpt>
      <trkpt lat="45.04492" lon="6.13056">
        <ele>1023</ele>
        <time>2026-08-09T11:25:58Z</time>
      </trkpt>
      <trkpt lat="45.04496" lon="6.13059">
        <ele>1023.2</ele>
        <time>2026-08-09T11:26:00Z</time>
      </trkpt>
      <trkpt lat="45.04498" lon="6.1306">
        <ele>1023.4</ele>
        <time>2026-08-09T11:26:01Z</time>
      </trkpt>
      <trkpt lat="45.04501" lon="6.13063">
        <ele>1023.6</ele>
        <time>2026-08-09T11:26:02Z</time>
      </trkpt>
      <trkpt lat="45.04505" lon="6.13066">
        <ele>1023.8</ele>
        <time>2026-08-09T11:26:04Z</time>
      </trkpt>
      <trkpt lat="45.04511" lon="6.1307">
        <ele>1024</ele>
        <time>2026-08-09T11:26:06Z</time>
      </trkpt>
      <trkpt lat="45.04516" lon="6.13073">
        <ele>1024.4</ele>
        <time>2026-08-09T11:26:08Z</time>
      </trkpt>
      <trkpt lat="45.04519" lon="6.13075">
        <ele>1024.4</ele>
        <time>2026-08-09T11:26:09Z</time>
      </trkpt>
      <trkpt lat="45.04521" lon="6.13077">
        <ele>1024.6</ele>
        <time>2026-08-09T11:26:10Z</time>
      </trkpt>
      <trkpt lat="45.04525" lon="6.1308">
        <ele>1025</ele>
        <time>2026-08-09T11:26:12Z</time>
      </trkpt>
      <trkpt lat="45.04528" lon="6.13084">
        <ele>1025.4</ele>
        <time>2026-08-09T11:26:14Z</time>
      </trkpt>
      <trkpt lat="45.04529" lon="6.13086">
        <ele>1025.4</ele>
        <time>2026-08-09T11:26:15Z</time>
      </trkpt>
      <trkpt lat="45.04531" lon="6.13088">
        <ele>1025.6</ele>
        <time>2026-08-09T11:26:16Z</time>
      </trkpt>
      <trkpt lat="45.04533" lon="6.1309">
        <ele>1025.8</ele>
        <time>2026-08-09T11:26:17Z</time>
      </trkpt>
      <trkpt lat="45.04534" lon="6.13092">
        <ele>1026</ele>
        <time>2026-08-09T11:26:18Z</time>
      </trkpt>
      <trkpt lat="45.04537" lon="6.13097">
        <ele>1026.2</ele>
        <time>2026-08-09T11:26:20Z</time>
      </trkpt>
      <trkpt lat="45.04538" lon="6.13099">
        <ele>1026.4</ele>
        <time>2026-08-09T11:26:21Z</time>
      </trkpt>
      <trkpt lat="45.0454" lon="6.13102">
        <ele>1026.6</ele>
        <time>2026-08-09T11:26:22Z</time>
      </trkpt>
      <trkpt lat="45.04544" lon="6.13104">
        <ele>1027</ele>
        <time>2026-08-09T11:26:24Z</time>
      </trkpt>
      <trkpt lat="45.04546" lon="6.1311">
        <ele>1027.4</ele>
        <time>2026-08-09T11:26:26Z</time>
      </trkpt>
      <trkpt lat="45.04549" lon="6.13114">
        <ele>1027.8</ele>
        <time>2026-08-09T11:26:28Z</time>
      </trkpt>
      <trkpt lat="45.04552" lon="6.1312">
        <ele>1028</ele>
        <time>2026-08-09T11:26:30Z</time>
      </trkpt>
      <trkpt lat="45.04555" lon="6.13127">
        <ele>1028.2</ele>
        <time>2026-08-09T11:26:32Z</time>
      </trkpt>
      <trkpt lat="45.04558" lon="6.13134">
        <ele>1028.8</ele>
        <time>2026-08-09T11:26:34Z</time>
      </trkpt>
      <trkpt lat="45.04559" lon="6.13137">
        <ele>1029</ele>
        <time>2026-08-09T11:26:35Z</time>
      </trkpt>
      <trkpt lat="45.0456" lon="6.1314">
        <ele>1029</ele>
        <time>2026-08-09T11:26:36Z</time>
      </trkpt>
      <trkpt lat="45.04562" lon="6.13145">
        <ele>1029.2</ele>
        <time>2026-08-09T11:26:38Z</time>
      </trkpt>
      <trkpt lat="45.04563" lon="6.13148">
        <ele>1029.4</ele>
        <time>2026-08-09T11:26:39Z</time>
      </trkpt>
      <trkpt lat="45.04564" lon="6.13151">
        <ele>1029.4</ele>
        <time>2026-08-09T11:26:40Z</time>
      </trkpt>
      <trkpt lat="45.04566" lon="6.13157">
        <ele>1029.6</ele>
        <time>2026-08-09T11:26:42Z</time>
      </trkpt>
      <trkpt lat="45.04569" lon="6.13163">
        <ele>1030</ele>
        <time>2026-08-09T11:26:44Z</time>
      </trkpt>
      <trkpt lat="45.04571" lon="6.13169">
        <ele>1030.6</ele>
        <time>2026-08-09T11:26:46Z</time>
      </trkpt>
      <trkpt lat="45.04573" lon="6.13175">
        <ele>1031</ele>
        <time>2026-08-09T11:26:48Z</time>
      </trkpt>
      <trkpt lat="45.04575" lon="6.13178">
        <ele>1031.2</ele>
        <time>2026-08-09T11:26:49Z</time>
      </trkpt>
      <trkpt lat="45.04576" lon="6.13181">
        <ele>1031.2</ele>
        <time>2026-08-09T11:26:50Z</time>
      </trkpt>
      <trkpt lat="45.04581" lon="6.13187">
        <ele>1031.8</ele>
        <time>2026-08-09T11:26:52Z</time>
      </trkpt>
      <trkpt lat="45.04587" lon="6.13193">
        <ele>1032</ele>
        <time>2026-08-09T11:26:54Z</time>
      </trkpt>
      <trkpt lat="45.0459" lon="6.13196">
        <ele>1032.2</ele>
        <time>2026-08-09T11:26:55Z</time>
      </trkpt>
      <trkpt lat="45.04592" lon="6.13199">
        <ele>1032.4</ele>
        <time>2026-08-09T11:26:56Z</time>
      </trkpt>
      <trkpt lat="45.04598" lon="6.13203">
        <ele>1032.6</ele>
        <time>2026-08-09T11:26:58Z</time>
      </trkpt>
      <trkpt lat="45.04599" lon="6.13205">
        <ele>1032.6</ele>
        <time>2026-08-09T11:26:59Z</time>
      </trkpt>
      <trkpt lat="45.04601" lon="6.13208">
        <ele>1032.8</ele>
        <time>2026-08-09T11:27:00Z</time>
      </trkpt>
      <trkpt lat="45.04604" lon="6.13212">
        <ele>1033.2</ele>
        <time>2026-08-09T11:27:02Z</time>
      </trkpt>
      <trkpt lat="45.04607" lon="6.13214">
        <ele>1033.4</ele>
        <time>2026-08-09T11:27:03Z</time>
      </trkpt>
      <trkpt lat="45.0461" lon="6.13216">
        <ele>1033.6</ele>
        <time>2026-08-09T11:27:04Z</time>
      </trkpt>
      <trkpt lat="45.04613" lon="6.13218">
        <ele>1033.6</ele>
        <time>2026-08-09T11:27:05Z</time>
      </trkpt>
      <trkpt lat="45.04615" lon="6.1322">
        <ele>1033.8</ele>
        <time>2026-08-09T11:27:06Z</time>
      </trkpt>
      <trkpt lat="45.04624" lon="6.13225">
        <ele>1034.2</ele>
        <time>2026-08-09T11:27:08Z</time>
      </trkpt>
      <trkpt lat="45.04627" lon="6.13227">
        <ele>1034.4</ele>
        <time>2026-08-09T11:27:09Z</time>
      </trkpt>
      <trkpt lat="45.04627" lon="6.13227">
        <ele>1034.4</ele>
        <time>2026-08-09T11:27:10Z</time>
      </trkpt>
      <trkpt lat="45.04633" lon="6.1323">
        <ele>1034.8</ele>
        <time>2026-08-09T11:27:12Z</time>
      </trkpt>
      <trkpt lat="45.04642" lon="6.13233">
        <ele>1035</ele>
        <time>2026-08-09T11:27:14Z</time>
      </trkpt>
      <trkpt lat="45.04645" lon="6.13233">
        <ele>1035.2</ele>
        <time>2026-08-09T11:27:16Z</time>
      </trkpt>
      <trkpt lat="45.04648" lon="6.13234">
        <ele>1035.4</ele>
        <time>2026-08-09T11:27:17Z</time>
      </trkpt>
      <trkpt lat="45.04651" lon="6.13235">
        <ele>1035.4</ele>
        <time>2026-08-09T11:27:18Z</time>
      </trkpt>
      <trkpt lat="45.04656" lon="6.13237">
        <ele>1035.8</ele>
        <time>2026-08-09T11:27:20Z</time>
      </trkpt>
      <trkpt lat="45.04662" lon="6.13239">
        <ele>1036</ele>
        <time>2026-08-09T11:27:22Z</time>
      </trkpt>
      <trkpt lat="45.04665" lon="6.13239">
        <ele>1036.2</ele>
        <time>2026-08-09T11:27:23Z</time>
      </trkpt>
      <trkpt lat="45.04667" lon="6.13241">
        <ele>1036.4</ele>
        <time>2026-08-09T11:27:24Z</time>
      </trkpt>
      <trkpt lat="45.0467" lon="6.13241">
        <ele>1036.6</ele>
        <time>2026-08-09T11:27:25Z</time>
      </trkpt>
      <trkpt lat="45.04673" lon="6.13243">
        <ele>1036.6</ele>
        <time>2026-08-09T11:27:26Z</time>
      </trkpt>
      <trkpt lat="45.04678" lon="6.13247">
        <ele>1037</ele>
        <time>2026-08-09T11:27:28Z</time>
      </trkpt>
      <trkpt lat="45.04682" lon="6.13252">
        <ele>1037.2</ele>
        <time>2026-08-09T11:27:30Z</time>
      </trkpt>
      <trkpt lat="45.04684" lon="6.13258">
        <ele>1037.4</ele>
        <time>2026-08-09T11:27:32Z</time>
      </trkpt>
      <trkpt lat="45.04685" lon="6.13261">
        <ele>1037.6</ele>
        <time>2026-08-09T11:27:33Z</time>
      </trkpt>
      <trkpt lat="45.04685" lon="6.13265">
        <ele>1037.6</ele>
        <time>2026-08-09T11:27:34Z</time>
      </trkpt>
      <trkpt lat="45.04685" lon="6.13272">
        <ele>1038</ele>
        <time>2026-08-09T11:27:36Z</time>
      </trkpt>
      <trkpt lat="45.04686" lon="6.13278">
        <ele>1038.4</ele>
        <time>2026-08-09T11:27:38Z</time>
      </trkpt>
      <trkpt lat="45.04686" lon="6.13283">
        <ele>1038.8</ele>
        <time>2026-08-09T11:27:40Z</time>
      </trkpt>
      <trkpt lat="45.04685" lon="6.1329">
        <ele>1039</ele>
        <time>2026-08-09T11:27:42Z</time>
      </trkpt>
      <trkpt lat="45.04683" lon="6.133">
        <ele>1039.4</ele>
        <time>2026-08-09T11:27:44Z</time>
      </trkpt>
      <trkpt lat="45.04686" lon="6.13339">
        <ele>1042.4</ele>
        <time>2026-08-09T11:27:56Z</time>
      </trkpt>
      <trkpt lat="45.04683" lon="6.13346">
        <ele>1042.8</ele>
        <time>2026-08-09T11:27:58Z</time>
      </trkpt>
      <trkpt lat="45.04674" lon="6.13357">
        <ele>1043</ele>
        <time>2026-08-09T11:28:00Z</time>
      </trkpt>
      <trkpt lat="45.04667" lon="6.13365">
        <ele>1043.4</ele>
        <time>2026-08-09T11:28:02Z</time>
      </trkpt>
      <trkpt lat="45.04667" lon="6.13365">
        <ele>1043.6</ele>
        <time>2026-08-09T11:28:03Z</time>
      </trkpt>
      <trkpt lat="45.04667" lon="6.1337">
        <ele>1043.8</ele>
        <time>2026-08-09T11:28:04Z</time>
      </trkpt>
      <trkpt lat="45.04662" lon="6.13379">
        <ele>1044</ele>
        <time>2026-08-09T11:28:06Z</time>
      </trkpt>
      <trkpt lat="45.04658" lon="6.13388">
        <ele>1044.4</ele>
        <time>2026-08-09T11:28:08Z</time>
      </trkpt>
      <trkpt lat="45.04655" lon="6.13392">
        <ele>1044.6</ele>
        <time>2026-08-09T11:28:09Z</time>
      </trkpt>
      <trkpt lat="45.04652" lon="6.13397">
        <ele>1044.8</ele>
        <time>2026-08-09T11:28:10Z</time>
      </trkpt>
      <trkpt lat="45.04648" lon="6.13404">
        <ele>1045.2</ele>
        <time>2026-08-09T11:28:12Z</time>
      </trkpt>
      <trkpt lat="45.04645" lon="6.1341">
        <ele>1045.6</ele>
        <time>2026-08-09T11:28:14Z</time>
      </trkpt>
      <trkpt lat="45.04643" lon="6.13413">
        <ele>1045.8</ele>
        <time>2026-08-09T11:28:15Z</time>
      </trkpt>
      <trkpt lat="45.04641" lon="6.13416">
        <ele>1046</ele>
        <time>2026-08-09T11:28:16Z</time>
      </trkpt>
      <trkpt lat="45.04637" lon="6.13422">
        <ele>1046.4</ele>
        <time>2026-08-09T11:28:18Z</time>
      </trkpt>
      <trkpt lat="45.04635" lon="6.13428">
        <ele>1046.6</ele>
        <time>2026-08-09T11:28:20Z</time>
      </trkpt>
      <trkpt lat="45.04633" lon="6.13434">
        <ele>1047.2</ele>
        <time>2026-08-09T11:28:22Z</time>
      </trkpt>
      <trkpt lat="45.04632" lon="6.13437">
        <ele>1047.4</ele>
        <time>2026-08-09T11:28:23Z</time>
      </trkpt>
      <trkpt lat="45.0463" lon="6.13441">
        <ele>1047.6</ele>
        <time>2026-08-09T11:28:24Z</time>
      </trkpt>
      <trkpt lat="45.04627" lon="6.13444">
        <ele>1047.6</ele>
        <time>2026-08-09T11:28:25Z</time>
      </trkpt>
      <trkpt lat="45.04625" lon="6.13447">
        <ele>1047.8</ele>
        <time>2026-08-09T11:28:26Z</time>
      </trkpt>
      <trkpt lat="45.04624" lon="6.13449">
        <ele>1048</ele>
        <time>2026-08-09T11:28:27Z</time>
      </trkpt>
      <trkpt lat="45.04623" lon="6.13452">
        <ele>1048</ele>
        <time>2026-08-09T11:28:28Z</time>
      </trkpt>
      <trkpt lat="45.04618" lon="6.13456">
        <ele>1048.2</ele>
        <time>2026-08-09T11:28:30Z</time>
      </trkpt>
      <trkpt lat="45.04613" lon="6.13459">
        <ele>1048.6</ele>
        <time>2026-08-09T11:28:32Z</time>
      </trkpt>
      <trkpt lat="45.0461" lon="6.1346">
        <ele>1048.8</ele>
        <time>2026-08-09T11:28:33Z</time>
      </trkpt>
      <trkpt lat="45.04608" lon="6.13461">
        <ele>1049</ele>
        <time>2026-08-09T11:28:34Z</time>
      </trkpt>
      <trkpt lat="45.04601" lon="6.13465">
        <ele>1049.2</ele>
        <time>2026-08-09T11:28:36Z</time>
      </trkpt>
      <trkpt lat="45.04596" lon="6.13467">
        <ele>1049.4</ele>
        <time>2026-08-09T11:28:38Z</time>
      </trkpt>
      <trkpt lat="45.04592" lon="6.13468">
        <ele>1049.6</ele>
        <time>2026-08-09T11:28:40Z</time>
      </trkpt>
      <trkpt lat="45.04587" lon="6.1347">
        <ele>1050</ele>
        <time>2026-08-09T11:28:42Z</time>
      </trkpt>
      <trkpt lat="45.04584" lon="6.13471">
        <ele>1050.2</ele>
        <time>2026-08-09T11:28:43Z</time>
      </trkpt>
      <trkpt lat="45.04581" lon="6.13473">
        <ele>1050.2</ele>
        <time>2026-08-09T11:28:44Z</time>
      </trkpt>
      <trkpt lat="45.04577" lon="6.13479">
        <ele>1050.4</ele>
        <time>2026-08-09T11:28:46Z</time>
      </trkpt>
      <trkpt lat="45.04572" lon="6.13485">
        <ele>1050.8</ele>
        <time>2026-08-09T11:28:48Z</time>
      </trkpt>
      <trkpt lat="45.0457" lon="6.13488">
        <ele>1051</ele>
        <time>2026-08-09T11:28:49Z</time>
      </trkpt>
      <trkpt lat="45.04569" lon="6.1349">
        <ele>1051.2</ele>
        <time>2026-08-09T11:28:50Z</time>
      </trkpt>
      <trkpt lat="45.04565" lon="6.13496">
        <ele>1051.4</ele>
        <time>2026-08-09T11:28:52Z</time>
      </trkpt>
      <trkpt lat="45.04563" lon="6.13502">
        <ele>1051.8</ele>
        <time>2026-08-09T11:28:54Z</time>
      </trkpt>
      <trkpt lat="45.04561" lon="6.13508">
        <ele>1051.8</ele>
        <time>2026-08-09T11:28:56Z</time>
      </trkpt>
      <trkpt lat="45.04557" lon="6.1351">
        <ele>1051.8</ele>
        <time>2026-08-09T11:28:58Z</time>
      </trkpt>
      <trkpt lat="45.04551" lon="6.13515">
        <ele>1051.8</ele>
        <time>2026-08-09T11:29:00Z</time>
      </trkpt>
      <trkpt lat="45.04548" lon="6.13519">
        <ele>1052</ele>
        <time>2026-08-09T11:29:02Z</time>
      </trkpt>
      <trkpt lat="45.04542" lon="6.13521">
        <ele>1052.4</ele>
        <time>2026-08-09T11:29:04Z</time>
      </trkpt>
      <trkpt lat="45.04536" lon="6.13522">
        <ele>1052.4</ele>
        <time>2026-08-09T11:29:06Z</time>
      </trkpt>
      <trkpt lat="45.0453" lon="6.13524">
        <ele>1052.6</ele>
        <time>2026-08-09T11:29:08Z</time>
      </trkpt>
      <trkpt lat="45.04526" lon="6.13528">
        <ele>1053</ele>
        <time>2026-08-09T11:29:10Z</time>
      </trkpt>
      <trkpt lat="45.04523" lon="6.13529">
        <ele>1053.2</ele>
        <time>2026-08-09T11:29:11Z</time>
      </trkpt>
      <trkpt lat="45.04522" lon="6.1353">
        <ele>1053.2</ele>
        <time>2026-08-09T11:29:12Z</time>
      </trkpt>
      <trkpt lat="45.04516" lon="6.13534">
        <ele>1053.4</ele>
        <time>2026-08-09T11:29:14Z</time>
      </trkpt>
      <trkpt lat="45.04514" lon="6.13536">
        <ele>1053.4</ele>
        <time>2026-08-09T11:29:15Z</time>
      </trkpt>
      <trkpt lat="45.04513" lon="6.13538">
        <ele>1053.6</ele>
        <time>2026-08-09T11:29:16Z</time>
      </trkpt>
      <trkpt lat="45.04512" lon="6.13544">
        <ele>1054</ele>
        <time>2026-08-09T11:29:18Z</time>
      </trkpt>
      <trkpt lat="45.04512" lon="6.13549">
        <ele>1054.2</ele>
        <time>2026-08-09T11:29:20Z</time>
      </trkpt>
      <trkpt lat="45.04512" lon="6.13554">
        <ele>1054.4</ele>
        <time>2026-08-09T11:29:21Z</time>
      </trkpt>
      <trkpt lat="45.04512" lon="6.13559">
        <ele>1054.4</ele>
        <time>2026-08-09T11:29:22Z</time>
      </trkpt>
      <trkpt lat="45.04513" lon="6.13567">
        <ele>1054.6</ele>
        <time>2026-08-09T11:29:24Z</time>
      </trkpt>
      <trkpt lat="45.04512" lon="6.13571">
        <ele>1054.8</ele>
        <time>2026-08-09T11:29:25Z</time>
      </trkpt>
      <trkpt lat="45.0451" lon="6.13575">
        <ele>1054.8</ele>
        <time>2026-08-09T11:29:26Z</time>
      </trkpt>
      <trkpt lat="45.04502" lon="6.13595">
        <ele>1055</ele>
        <time>2026-08-09T11:29:28Z</time>
      </trkpt>
      <trkpt lat="45.04502" lon="6.13609">
        <ele>1055</ele>
        <time>2026-08-09T11:29:30Z</time>
      </trkpt>
      <trkpt lat="45.04502" lon="6.13609">
        <ele>1055</ele>
        <time>2026-08-09T11:29:31Z</time>
      </trkpt>
      <trkpt lat="45.04507" lon="6.13624">
        <ele>1055.2</ele>
        <time>2026-08-09T11:29:32Z</time>
      </trkpt>
      <trkpt lat="45.04506" lon="6.13634">
        <ele>1055.2</ele>
        <time>2026-08-09T11:29:34Z</time>
      </trkpt>
      <trkpt lat="45.04506" lon="6.13651">
        <ele>1055.2</ele>
        <time>2026-08-09T11:29:36Z</time>
      </trkpt>
      <trkpt lat="45.04506" lon="6.13665">
        <ele>1055</ele>
        <time>2026-08-09T11:29:38Z</time>
      </trkpt>
      <trkpt lat="45.04506" lon="6.13681">
        <ele>1055</ele>
        <time>2026-08-09T11:29:40Z</time>
      </trkpt>
      <trkpt lat="45.04507" lon="6.13688">
        <ele>1055</ele>
        <time>2026-08-09T11:29:41Z</time>
      </trkpt>
      <trkpt lat="45.04508" lon="6.13695">
        <ele>1055</ele>
        <time>2026-08-09T11:29:42Z</time>
      </trkpt>
      <trkpt lat="45.04511" lon="6.13707">
        <ele>1054.8</ele>
        <time>2026-08-09T11:29:44Z</time>
      </trkpt>
      <trkpt lat="45.04514" lon="6.13719">
        <ele>1054.8</ele>
        <time>2026-08-09T11:29:46Z</time>
      </trkpt>
      <trkpt lat="45.04517" lon="6.13729">
        <ele>1054.6</ele>
        <time>2026-08-09T11:29:48Z</time>
      </trkpt>
      <trkpt lat="45.04521" lon="6.13738">
        <ele>1054.6</ele>
        <time>2026-08-09T11:29:50Z</time>
      </trkpt>
      <trkpt lat="45.04523" lon="6.13743">
        <ele>1054.6</ele>
        <time>2026-08-09T11:29:51Z</time>
      </trkpt>
      <trkpt lat="45.04525" lon="6.13747">
        <ele>1054.6</ele>
        <time>2026-08-09T11:29:52Z</time>
      </trkpt>
      <trkpt lat="45.0453" lon="6.13754">
        <ele>1054.8</ele>
        <time>2026-08-09T11:29:54Z</time>
      </trkpt>
      <trkpt lat="45.04535" lon="6.13762">
        <ele>1054.8</ele>
        <time>2026-08-09T11:29:56Z</time>
      </trkpt>
      <trkpt lat="45.04541" lon="6.13767">
        <ele>1054.8</ele>
        <time>2026-08-09T11:29:58Z</time>
      </trkpt>
      <trkpt lat="45.04546" lon="6.13773">
        <ele>1054.8</ele>
        <time>2026-08-09T11:30:00Z</time>
      </trkpt>
      <trkpt lat="45.04551" lon="6.13777">
        <ele>1054.8</ele>
        <time>2026-08-09T11:30:02Z</time>
      </trkpt>
      <trkpt lat="45.04557" lon="6.13781">
        <ele>1055</ele>
        <time>2026-08-09T11:30:04Z</time>
      </trkpt>
      <trkpt lat="45.04562" lon="6.13785">
        <ele>1055.2</ele>
        <time>2026-08-09T11:30:06Z</time>
      </trkpt>
      <trkpt lat="45.04567" lon="6.13788">
        <ele>1055.2</ele>
        <time>2026-08-09T11:30:08Z</time>
      </trkpt>
      <trkpt lat="45.04569" lon="6.13789">
        <ele>1055.2</ele>
        <time>2026-08-09T11:30:10Z</time>
      </trkpt>
      <trkpt lat="45.04569" lon="6.1379">
        <ele>1055.4</ele>
        <time>2026-08-09T11:30:12Z</time>
      </trkpt>
      <trkpt lat="45.04569" lon="6.13792">
        <ele>1055.4</ele>
        <time>2026-08-09T11:30:14Z</time>
      </trkpt>
      <trkpt lat="45.04569" lon="6.13792">
        <ele>1055.4</ele>
        <time>2026-08-09T11:30:16Z</time>
      </trkpt>
      <trkpt lat="45.04569" lon="6.13792">
        <ele>1055.6</ele>
        <time>2026-08-09T11:30:17Z</time>
      </trkpt>
      <trkpt lat="45.04569" lon="6.13792">
        <ele>1055.6</ele>
        <time>2026-08-09T11:30:18Z</time>
      </trkpt>
      <trkpt lat="45.04569" lon="6.13792">
        <ele>1056.4</ele>
        <time>2026-08-09T11:30:20Z</time>
      </trkpt>
      <trkpt lat="45.04569" lon="6.13792">
        <ele>1056.4</ele>
        <time>2026-08-09T11:30:22Z</time>
      </trkpt>
      <trkpt lat="45.04569" lon="6.13792">
        <ele>1056.4</ele>
        <time>2026-08-09T11:30:24Z</time>
      </trkpt>
      <trkpt lat="45.04569" lon="6.13792">
        <ele>1056.4</ele>
        <time>2026-08-09T11:30:26Z</time>
      </trkpt>
      <trkpt lat="45.04569" lon="6.13792">
        <ele>1056.4</ele>
        <time>2026-08-09T11:30:28Z</time>
      </trkpt>
      <trkpt lat="45.04569" lon="6.13792">
        <ele>1056.4</ele>
        <time>2026-08-09T11:30:29Z</time>
      </trkpt>
      <trkpt lat="45.04569" lon="6.13792">
        <ele>1056.4</ele>
        <time>2026-08-09T11:30:30Z</time>
      </trkpt>
      <trkpt lat="45.04569" lon="6.13792">
        <ele>1056.4</ele>
        <time>2026-08-09T11:30:32Z</time>
      </trkpt>
      <trkpt lat="45.04569" lon="6.13792">
        <ele>1056.4</ele>
        <time>2026-08-09T11:30:34Z</time>
      </trkpt>
      <trkpt lat="45.04569" lon="6.13792">
        <ele>1056.4</ele>
        <time>2026-08-09T11:30:36Z</time>
      </trkpt>
      <trkpt lat="45.0457" lon="6.13792">
        <ele>1056.2</ele>
        <time>2026-08-09T11:30:38Z</time>
      </trkpt>
      <trkpt lat="45.0457" lon="6.13792">
        <ele>1056.4</ele>
        <time>2026-08-09T11:30:40Z</time>
      </trkpt>
      <trkpt lat="45.0457" lon="6.13792">
        <ele>1056.2</ele>
        <time>2026-08-09T11:30:41Z</time>
      </trkpt>
      <trkpt lat="45.04571" lon="6.13792">
        <ele>1056.2</ele>
        <time>2026-08-09T11:30:42Z</time>
      </trkpt>
      <trkpt lat="45.04572" lon="6.13792">
        <ele>1056</ele>
        <time>2026-08-09T11:30:44Z</time>
      </trkpt>
      <trkpt lat="45.04573" lon="6.13793">
        <ele>1055.8</ele>
        <time>2026-08-09T11:30:46Z</time>
      </trkpt>
      <trkpt lat="45.04574" lon="6.13793">
        <ele>1055.8</ele>
        <time>2026-08-09T11:30:48Z</time>
      </trkpt>
      <trkpt lat="45.04575" lon="6.13793">
        <ele>1055.6</ele>
        <time>2026-08-09T11:30:50Z</time>
      </trkpt>
      <trkpt lat="45.04575" lon="6.13793">
        <ele>1055.6</ele>
        <time>2026-08-09T11:30:51Z</time>
      </trkpt>
      <trkpt lat="45.04575" lon="6.13793">
        <ele>1055.6</ele>
        <time>2026-08-09T11:30:52Z</time>
      </trkpt>
      <trkpt lat="45.04575" lon="6.13793">
        <ele>1055.4</ele>
        <time>2026-08-09T11:30:54Z</time>
      </trkpt>
      <trkpt lat="45.04575" lon="6.13793">
        <ele>1055.4</ele>
        <time>2026-08-09T11:30:56Z</time>
      </trkpt>
      <trkpt lat="45.04575" lon="6.13793">
        <ele>1055.4</ele>
        <time>2026-08-09T11:30:58Z</time>
      </trkpt>
      <trkpt lat="45.04575" lon="6.13793">
        <ele>1055.6</ele>
        <time>2026-08-09T11:31:00Z</time>
      </trkpt>
      <trkpt lat="45.04575" lon="6.13793">
        <ele>1055.6</ele>
        <time>2026-08-09T11:31:01Z</time>
      </trkpt>
      <trkpt lat="45.04575" lon="6.13793">
        <ele>1055.6</ele>
        <time>2026-08-09T11:31:02Z</time>
      </trkpt>
      <trkpt lat="45.04575" lon="6.13793">
        <ele>1055.8</ele>
        <time>2026-08-09T11:31:04Z</time>
      </trkpt>
      <trkpt lat="45.04575" lon="6.13793">
        <ele>1055.8</ele>
        <time>2026-08-09T11:31:06Z</time>
      </trkpt>
      <trkpt lat="45.04575" lon="6.13793">
        <ele>1055.8</ele>
        <time>2026-08-09T11:31:08Z</time>
      </trkpt>
      <trkpt lat="45.04575" lon="6.13792">
        <ele>1055.8</ele>
        <time>2026-08-09T11:31:10Z</time>
      </trkpt>
      <trkpt lat="45.04576" lon="6.13793">
        <ele>1055.8</ele>
        <time>2026-08-09T11:31:12Z</time>
      </trkpt>
      <trkpt lat="45.04577" lon="6.13793">
        <ele>1055.8</ele>
        <time>2026-08-09T11:31:13Z</time>
      </trkpt>
      <trkpt lat="45.04579" lon="6.13793">
        <ele>1055.8</ele>
        <time>2026-08-09T11:31:14Z</time>
      </trkpt>
      <trkpt lat="45.04583" lon="6.13794">
        <ele>1055.8</ele>
        <time>2026-08-09T11:31:16Z</time>
      </trkpt>
      <trkpt lat="45.04588" lon="6.13796">
        <ele>1055.8</ele>
        <time>2026-08-09T11:31:18Z</time>
      </trkpt>
      <trkpt lat="45.04594" lon="6.13797">
        <ele>1055.8</ele>
        <time>2026-08-09T11:31:20Z</time>
      </trkpt>
      <trkpt lat="45.04601" lon="6.13798">
        <ele>1055.4</ele>
        <time>2026-08-09T11:31:22Z</time>
      </trkpt>
      <trkpt lat="45.04609" lon="6.138">
        <ele>1055</ele>
        <time>2026-08-09T11:31:24Z</time>
      </trkpt>
      <trkpt lat="45.04613" lon="6.138">
        <ele>1054.8</ele>
        <time>2026-08-09T11:31:25Z</time>
      </trkpt>
      <trkpt lat="45.04616" lon="6.13801">
        <ele>1054.6</ele>
        <time>2026-08-09T11:31:26Z</time>
      </trkpt>
      <trkpt lat="45.04624" lon="6.13802">
        <ele>1054.4</ele>
        <time>2026-08-09T11:31:28Z</time>
      </trkpt>
      <trkpt lat="45.04633" lon="6.13804">
        <ele>1054.4</ele>
        <time>2026-08-09T11:31:30Z</time>
      </trkpt>
      <trkpt lat="45.04641" lon="6.13806">
        <ele>1054</ele>
        <time>2026-08-09T11:31:32Z</time>
      </trkpt>
      <trkpt lat="45.0465" lon="6.13807">
        <ele>1053.6</ele>
        <time>2026-08-09T11:31:34Z</time>
      </trkpt>
      <trkpt lat="45.04659" lon="6.13809">
        <ele>1053.4</ele>
        <time>2026-08-09T11:31:36Z</time>
      </trkpt>
      <trkpt lat="45.04668" lon="6.1381">
        <ele>1053.2</ele>
        <time>2026-08-09T11:31:38Z</time>
      </trkpt>
      <trkpt lat="45.04676" lon="6.13811">
        <ele>1053</ele>
        <time>2026-08-09T11:31:40Z</time>
      </trkpt>
      <trkpt lat="45.04681" lon="6.13812">
        <ele>1053</ele>
        <time>2026-08-09T11:31:41Z</time>
      </trkpt>
      <trkpt lat="45.04685" lon="6.13814">
        <ele>1052.8</ele>
        <time>2026-08-09T11:31:42Z</time>
      </trkpt>
      <trkpt lat="45.04693" lon="6.13821">
        <ele>1052.8</ele>
        <time>2026-08-09T11:31:44Z</time>
      </trkpt>
      <trkpt lat="45.04697" lon="6.13826">
        <ele>1052.8</ele>
        <time>2026-08-09T11:31:45Z</time>
      </trkpt>
      <trkpt lat="45.047" lon="6.13832">
        <ele>1052.8</ele>
        <time>2026-08-09T11:31:46Z</time>
      </trkpt>
      <trkpt lat="45.04703" lon="6.13844">
        <ele>1052.8</ele>
        <time>2026-08-09T11:31:48Z</time>
      </trkpt>
      <trkpt lat="45.04703" lon="6.1385">
        <ele>1052.6</ele>
        <time>2026-08-09T11:31:49Z</time>
      </trkpt>
      <trkpt lat="45.04702" lon="6.13856">
        <ele>1052.8</ele>
        <time>2026-08-09T11:31:50Z</time>
      </trkpt>
      <trkpt lat="45.04702" lon="6.13865">
        <ele>1053</ele>
        <time>2026-08-09T11:31:52Z</time>
      </trkpt>
      <trkpt lat="45.04703" lon="6.13874">
        <ele>1053</ele>
        <time>2026-08-09T11:31:54Z</time>
      </trkpt>
      <trkpt lat="45.04703" lon="6.13878">
        <ele>1053</ele>
        <time>2026-08-09T11:31:55Z</time>
      </trkpt>
      <trkpt lat="45.04704" lon="6.13882">
        <ele>1053</ele>
        <time>2026-08-09T11:31:56Z</time>
      </trkpt>
      <trkpt lat="45.04706" lon="6.13889">
        <ele>1053.2</ele>
        <time>2026-08-09T11:31:58Z</time>
      </trkpt>
      <trkpt lat="45.04708" lon="6.13895">
        <ele>1053.2</ele>
        <time>2026-08-09T11:32:00Z</time>
      </trkpt>
      <trkpt lat="45.04709" lon="6.13898">
        <ele>1053.8</ele>
        <time>2026-08-09T11:32:01Z</time>
      </trkpt>
      <trkpt lat="45.0471" lon="6.13901">
        <ele>1054</ele>
        <time>2026-08-09T11:32:02Z</time>
      </trkpt>
      <trkpt lat="45.04712" lon="6.13907">
        <ele>1054.6</ele>
        <time>2026-08-09T11:32:04Z</time>
      </trkpt>
      <trkpt lat="45.04714" lon="6.1391">
        <ele>1055</ele>
        <time>2026-08-09T11:32:05Z</time>
      </trkpt>
      <trkpt lat="45.04715" lon="6.13913">
        <ele>1055.2</ele>
        <time>2026-08-09T11:32:06Z</time>
      </trkpt>
      <trkpt lat="45.04717" lon="6.13916">
        <ele>1055.4</ele>
        <time>2026-08-09T11:32:07Z</time>
      </trkpt>
      <trkpt lat="45.04718" lon="6.13919">
        <ele>1055.6</ele>
        <time>2026-08-09T11:32:08Z</time>
      </trkpt>
      <trkpt lat="45.0472" lon="6.13925">
        <ele>1055.8</ele>
        <time>2026-08-09T11:32:10Z</time>
      </trkpt>
      <trkpt lat="45.04721" lon="6.13928">
        <ele>1056</ele>
        <time>2026-08-09T11:32:11Z</time>
      </trkpt>
      <trkpt lat="45.04723" lon="6.13931">
        <ele>1056.2</ele>
        <time>2026-08-09T11:32:12Z</time>
      </trkpt>
      <trkpt lat="45.04726" lon="6.13937">
        <ele>1056.8</ele>
        <time>2026-08-09T11:32:14Z</time>
      </trkpt>
      <trkpt lat="45.04729" lon="6.13942">
        <ele>1057.2</ele>
        <time>2026-08-09T11:32:16Z</time>
      </trkpt>
      <trkpt lat="45.04732" lon="6.13948">
        <ele>1057.4</ele>
        <time>2026-08-09T11:32:18Z</time>
      </trkpt>
      <trkpt lat="45.04733" lon="6.13951">
        <ele>1057.6</ele>
        <time>2026-08-09T11:32:19Z</time>
      </trkpt>
      <trkpt lat="45.04734" lon="6.13954">
        <ele>1057.6</ele>
        <time>2026-08-09T11:32:20Z</time>
      </trkpt>
      <trkpt lat="45.04736" lon="6.1396">
        <ele>1058</ele>
        <time>2026-08-09T11:32:22Z</time>
      </trkpt>
      <trkpt lat="45.04738" lon="6.13965">
        <ele>1058.2</ele>
        <time>2026-08-09T11:32:24Z</time>
      </trkpt>
      <trkpt lat="45.04739" lon="6.13968">
        <ele>1058.2</ele>
        <time>2026-08-09T11:32:25Z</time>
      </trkpt>
      <trkpt lat="45.0474" lon="6.1397">
        <ele>1058.4</ele>
        <time>2026-08-09T11:32:26Z</time>
      </trkpt>
      <trkpt lat="45.04741" lon="6.13976">
        <ele>1058.6</ele>
        <time>2026-08-09T11:32:28Z</time>
      </trkpt>
      <trkpt lat="45.04742" lon="6.13983">
        <ele>1059</ele>
        <time>2026-08-09T11:32:30Z</time>
      </trkpt>
      <trkpt lat="45.04742" lon="6.13989">
        <ele>1059.4</ele>
        <time>2026-08-09T11:32:32Z</time>
      </trkpt>
      <trkpt lat="45.04743" lon="6.13996">
        <ele>1060</ele>
        <time>2026-08-09T11:32:34Z</time>
      </trkpt>
      <trkpt lat="45.04743" lon="6.14002">
        <ele>1060.2</ele>
        <time>2026-08-09T11:32:36Z</time>
      </trkpt>
      <trkpt lat="45.04745" lon="6.14007">
        <ele>1060.6</ele>
        <time>2026-08-09T11:32:38Z</time>
      </trkpt>
      <trkpt lat="45.04745" lon="6.14011">
        <ele>1060.8</ele>
        <time>2026-08-09T11:32:39Z</time>
      </trkpt>
      <trkpt lat="45.04746" lon="6.14014">
        <ele>1061</ele>
        <time>2026-08-09T11:32:40Z</time>
      </trkpt>
      <trkpt lat="45.04747" lon="6.1402">
        <ele>1061.2</ele>
        <time>2026-08-09T11:32:42Z</time>
      </trkpt>
      <trkpt lat="45.04749" lon="6.14027">
        <ele>1061.6</ele>
        <time>2026-08-09T11:32:44Z</time>
      </trkpt>
      <trkpt lat="45.0475" lon="6.14034">
        <ele>1061.8</ele>
        <time>2026-08-09T11:32:46Z</time>
      </trkpt>
      <trkpt lat="45.04751" lon="6.14041">
        <ele>1061.8</ele>
        <time>2026-08-09T11:32:48Z</time>
      </trkpt>
      <trkpt lat="45.04751" lon="6.14048">
        <ele>1062</ele>
        <time>2026-08-09T11:32:50Z</time>
      </trkpt>
      <trkpt lat="45.04752" lon="6.14055">
        <ele>1062.4</ele>
        <time>2026-08-09T11:32:52Z</time>
      </trkpt>
      <trkpt lat="45.04752" lon="6.14063">
        <ele>1062.6</ele>
        <time>2026-08-09T11:32:54Z</time>
      </trkpt>
      <trkpt lat="45.04752" lon="6.14071">
        <ele>1062.8</ele>
        <time>2026-08-09T11:32:56Z</time>
      </trkpt>
      <trkpt lat="45.04753" lon="6.14078">
        <ele>1063.2</ele>
        <time>2026-08-09T11:32:58Z</time>
      </trkpt>
      <trkpt lat="45.04752" lon="6.14085">
        <ele>1063.4</ele>
        <time>2026-08-09T11:33:00Z</time>
      </trkpt>
      <trkpt lat="45.04752" lon="6.14091">
        <ele>1063.4</ele>
        <time>2026-08-09T11:33:02Z</time>
      </trkpt>
      <trkpt lat="45.04753" lon="6.14097">
        <ele>1063.8</ele>
        <time>2026-08-09T11:33:04Z</time>
      </trkpt>
      <trkpt lat="45.04753" lon="6.141">
        <ele>1063.8</ele>
        <time>2026-08-09T11:33:05Z</time>
      </trkpt>
      <trkpt lat="45.04754" lon="6.14103">
        <ele>1064</ele>
        <time>2026-08-09T11:33:06Z</time>
      </trkpt>
      <trkpt lat="45.04755" lon="6.14105">
        <ele>1064</ele>
        <time>2026-08-09T11:33:07Z</time>
      </trkpt>
      <trkpt lat="45.04756" lon="6.14107">
        <ele>1064.4</ele>
        <time>2026-08-09T11:33:08Z</time>
      </trkpt>
      <trkpt lat="45.04761" lon="6.14107">
        <ele>1064.8</ele>
        <time>2026-08-09T11:33:10Z</time>
      </trkpt>
      <trkpt lat="45.04763" lon="6.14106">
        <ele>1065</ele>
        <time>2026-08-09T11:33:11Z</time>
      </trkpt>
      <trkpt lat="45.04764" lon="6.14105">
        <ele>1065</ele>
        <time>2026-08-09T11:33:12Z</time>
      </trkpt>
      <trkpt lat="45.04766" lon="6.14101">
        <ele>1065.2</ele>
        <time>2026-08-09T11:33:14Z</time>
      </trkpt>
      <trkpt lat="45.04767" lon="6.14099">
        <ele>1065.2</ele>
        <time>2026-08-09T11:33:15Z</time>
      </trkpt>
      <trkpt lat="45.04767" lon="6.14096">
        <ele>1065.4</ele>
        <time>2026-08-09T11:33:16Z</time>
      </trkpt>
      <trkpt lat="45.04766" lon="6.14091">
        <ele>1065.6</ele>
        <time>2026-08-09T11:33:18Z</time>
      </trkpt>
      <trkpt lat="45.04765" lon="6.14085">
        <ele>1065.8</ele>
        <time>2026-08-09T11:33:20Z</time>
      </trkpt>
      <trkpt lat="45.04765" lon="6.14082">
        <ele>1066</ele>
        <time>2026-08-09T11:33:21Z</time>
      </trkpt>
      <trkpt lat="45.04765" lon="6.14079">
        <ele>1066.4</ele>
        <time>2026-08-09T11:33:22Z</time>
      </trkpt>
      <trkpt lat="45.04766" lon="6.14074">
        <ele>1066.6</ele>
        <time>2026-08-09T11:33:24Z</time>
      </trkpt>
      <trkpt lat="45.04767" lon="6.1407">
        <ele>1067</ele>
        <time>2026-08-09T11:33:26Z</time>
      </trkpt>
      <trkpt lat="45.04768" lon="6.14068">
        <ele>1067</ele>
        <time>2026-08-09T11:33:27Z</time>
      </trkpt>
      <trkpt lat="45.04767" lon="6.14065">
        <ele>1067.4</ele>
        <time>2026-08-09T11:33:28Z</time>
      </trkpt>
      <trkpt lat="45.04767" lon="6.14059">
        <ele>1067.8</ele>
        <time>2026-08-09T11:33:30Z</time>
      </trkpt>
      <trkpt lat="45.04767" lon="6.14055">
        <ele>1068.2</ele>
        <time>2026-08-09T11:33:32Z</time>
      </trkpt>
      <trkpt lat="45.04767" lon="6.14052">
        <ele>1068.4</ele>
        <time>2026-08-09T11:33:33Z</time>
      </trkpt>
      <trkpt lat="45.04767" lon="6.1405">
        <ele>1068.8</ele>
        <time>2026-08-09T11:33:34Z</time>
      </trkpt>
      <trkpt lat="45.04768" lon="6.14048">
        <ele>1069</ele>
        <time>2026-08-09T11:33:35Z</time>
      </trkpt>
      <trkpt lat="45.04768" lon="6.14046">
        <ele>1069.4</ele>
        <time>2026-08-09T11:33:36Z</time>
      </trkpt>
      <trkpt lat="45.04768" lon="6.14043">
        <ele>1069.6</ele>
        <time>2026-08-09T11:33:37Z</time>
      </trkpt>
      <trkpt lat="45.04768" lon="6.1404">
        <ele>1070</ele>
        <time>2026-08-09T11:33:38Z</time>
      </trkpt>
      <trkpt lat="45.04768" lon="6.14036">
        <ele>1070.4</ele>
        <time>2026-08-09T11:33:40Z</time>
      </trkpt>
      <trkpt lat="45.04768" lon="6.14031">
        <ele>1070.6</ele>
        <time>2026-08-09T11:33:42Z</time>
      </trkpt>
      <trkpt lat="45.04767" lon="6.14027">
        <ele>1071</ele>
        <time>2026-08-09T11:33:44Z</time>
      </trkpt>
      <trkpt lat="45.04767" lon="6.14025">
        <ele>1071.2</ele>
        <time>2026-08-09T11:33:45Z</time>
      </trkpt>
      <trkpt lat="45.04767" lon="6.14023">
        <ele>1071.4</ele>
        <time>2026-08-09T11:33:46Z</time>
      </trkpt>
      <trkpt lat="45.04767" lon="6.14019">
        <ele>1071.8</ele>
        <time>2026-08-09T11:33:48Z</time>
      </trkpt>
      <trkpt lat="45.04766" lon="6.14016">
        <ele>1072</ele>
        <time>2026-08-09T11:33:50Z</time>
      </trkpt>
      <trkpt lat="45.04766" lon="6.14013">
        <ele>1072.4</ele>
        <time>2026-08-09T11:33:52Z</time>
      </trkpt>
      <trkpt lat="45.04766" lon="6.14011">
        <ele>1072.6</ele>
        <time>2026-08-09T11:33:53Z</time>
      </trkpt>
      <trkpt lat="45.04766" lon="6.1401">
        <ele>1072.8</ele>
        <time>2026-08-09T11:33:54Z</time>
      </trkpt>
      <trkpt lat="45.04766" lon="6.14008">
        <ele>1072.8</ele>
        <time>2026-08-09T11:33:55Z</time>
      </trkpt>
      <trkpt lat="45.04766" lon="6.14007">
        <ele>1073</ele>
        <time>2026-08-09T11:33:56Z</time>
      </trkpt>
      <trkpt lat="45.04767" lon="6.14003">
        <ele>1073.6</ele>
        <time>2026-08-09T11:33:58Z</time>
      </trkpt>
      <trkpt lat="45.04767" lon="6.14">
        <ele>1074</ele>
        <time>2026-08-09T11:34:00Z</time>
      </trkpt>
      <trkpt lat="45.04766" lon="6.13997">
        <ele>1074.4</ele>
        <time>2026-08-09T11:34:02Z</time>
      </trkpt>
      <trkpt lat="45.04765" lon="6.13994">
        <ele>1074.8</ele>
        <time>2026-08-09T11:34:04Z</time>
      </trkpt>
      <trkpt lat="45.04766" lon="6.1399">
        <ele>1075.2</ele>
        <time>2026-08-09T11:34:06Z</time>
      </trkpt>
      <trkpt lat="45.04766" lon="6.13987">
        <ele>1075.4</ele>
        <time>2026-08-09T11:34:08Z</time>
      </trkpt>
      <trkpt lat="45.04766" lon="6.13984">
        <ele>1075.8</ele>
        <time>2026-08-09T11:34:10Z</time>
      </trkpt>
      <trkpt lat="45.04766" lon="6.13982">
        <ele>1076</ele>
        <time>2026-08-09T11:34:11Z</time>
      </trkpt>
      <trkpt lat="45.04766" lon="6.1398">
        <ele>1076</ele>
        <time>2026-08-09T11:34:12Z</time>
      </trkpt>
      <trkpt lat="45.04767" lon="6.13976">
        <ele>1076.2</ele>
        <time>2026-08-09T11:34:14Z</time>
      </trkpt>
      <trkpt lat="45.04767" lon="6.13973">
        <ele>1076.6</ele>
        <time>2026-08-09T11:34:16Z</time>
      </trkpt>
      <trkpt lat="45.04766" lon="6.13969">
        <ele>1077</ele>
        <time>2026-08-09T11:34:18Z</time>
      </trkpt>
      <trkpt lat="45.04765" lon="6.13965">
        <ele>1077.2</ele>
        <time>2026-08-09T11:34:20Z</time>
      </trkpt>
      <trkpt lat="45.04765" lon="6.13961">
        <ele>1077.6</ele>
        <time>2026-08-09T11:34:22Z</time>
      </trkpt>
      <trkpt lat="45.04765" lon="6.13958">
        <ele>1077.8</ele>
        <time>2026-08-09T11:34:24Z</time>
      </trkpt>
      <trkpt lat="45.04765" lon="6.13955">
        <ele>1078.2</ele>
        <time>2026-08-09T11:34:26Z</time>
      </trkpt>
      <trkpt lat="45.04765" lon="6.13953">
        <ele>1078.4</ele>
        <time>2026-08-09T11:34:27Z</time>
      </trkpt>
      <trkpt lat="45.04764" lon="6.13951">
        <ele>1078.6</ele>
        <time>2026-08-09T11:34:28Z</time>
      </trkpt>
      <trkpt lat="45.04765" lon="6.13949">
        <ele>1078.8</ele>
        <time>2026-08-09T11:34:30Z</time>
      </trkpt>
      <trkpt lat="45.04765" lon="6.13946">
        <ele>1079</ele>
        <time>2026-08-09T11:34:32Z</time>
      </trkpt>
      <trkpt lat="45.04765" lon="6.13944">
        <ele>1079</ele>
        <time>2026-08-09T11:34:33Z</time>
      </trkpt>
      <trkpt lat="45.04766" lon="6.13942">
        <ele>1079.2</ele>
        <time>2026-08-09T11:34:34Z</time>
      </trkpt>
      <trkpt lat="45.04766" lon="6.13939">
        <ele>1079.4</ele>
        <time>2026-08-09T11:34:36Z</time>
      </trkpt>
      <trkpt lat="45.04766" lon="6.13938">
        <ele>1079.6</ele>
        <time>2026-08-09T11:34:37Z</time>
      </trkpt>
      <trkpt lat="45.04767" lon="6.13938">
        <ele>1079.8</ele>
        <time>2026-08-09T11:34:38Z</time>
      </trkpt>
      <trkpt lat="45.04767" lon="6.13936">
        <ele>1080.2</ele>
        <time>2026-08-09T11:34:40Z</time>
      </trkpt>
      <trkpt lat="45.04767" lon="6.13935">
        <ele>1080.2</ele>
        <time>2026-08-09T11:34:41Z</time>
      </trkpt>
      <trkpt lat="45.04767" lon="6.13934">
        <ele>1080.4</ele>
        <time>2026-08-09T11:34:42Z</time>
      </trkpt>
      <trkpt lat="45.04767" lon="6.13932">
        <ele>1080.8</ele>
        <time>2026-08-09T11:34:44Z</time>
      </trkpt>
      <trkpt lat="45.04767" lon="6.13929">
        <ele>1081.2</ele>
        <time>2026-08-09T11:34:46Z</time>
      </trkpt>
      <trkpt lat="45.04767" lon="6.13927">
        <ele>1081.4</ele>
        <time>2026-08-09T11:34:47Z</time>
      </trkpt>
      <trkpt lat="45.04767" lon="6.13926">
        <ele>1081.6</ele>
        <time>2026-08-09T11:34:48Z</time>
      </trkpt>
      <trkpt lat="45.04767" lon="6.13925">
        <ele>1081.8</ele>
        <time>2026-08-09T11:34:50Z</time>
      </trkpt>
      <trkpt lat="45.04766" lon="6.13922">
        <ele>1081.8</ele>
        <time>2026-08-09T11:34:52Z</time>
      </trkpt>
      <trkpt lat="45.04766" lon="6.13921">
        <ele>1082</ele>
        <time>2026-08-09T11:34:53Z</time>
      </trkpt>
      <trkpt lat="45.04765" lon="6.13919">
        <ele>1082.4</ele>
        <time>2026-08-09T11:34:54Z</time>
      </trkpt>
      <trkpt lat="45.04765" lon="6.13916">
        <ele>1082.6</ele>
        <time>2026-08-09T11:34:56Z</time>
      </trkpt>
      <trkpt lat="45.04764" lon="6.13914">
        <ele>1082.8</ele>
        <time>2026-08-09T11:34:57Z</time>
      </trkpt>
      <trkpt lat="45.04764" lon="6.13912">
        <ele>1083</ele>
        <time>2026-08-09T11:34:58Z</time>
      </trkpt>
      <trkpt lat="45.04763" lon="6.13909">
        <ele>1083.2</ele>
        <time>2026-08-09T11:35:00Z</time>
      </trkpt>
      <trkpt lat="45.04762" lon="6.13906">
        <ele>1083.6</ele>
        <time>2026-08-09T11:35:02Z</time>
      </trkpt>
      <trkpt lat="45.04761" lon="6.13903">
        <ele>1083.8</ele>
        <time>2026-08-09T11:35:04Z</time>
      </trkpt>
      <trkpt lat="45.04761" lon="6.13902">
        <ele>1084</ele>
        <time>2026-08-09T11:35:05Z</time>
      </trkpt>
      <trkpt lat="45.04761" lon="6.139">
        <ele>1084.2</ele>
        <time>2026-08-09T11:35:06Z</time>
      </trkpt>
      <trkpt lat="45.0476" lon="6.13897">
        <ele>1084.4</ele>
        <time>2026-08-09T11:35:08Z</time>
      </trkpt>
      <trkpt lat="45.04759" lon="6.13894">
        <ele>1084.6</ele>
        <time>2026-08-09T11:35:10Z</time>
      </trkpt>
      <trkpt lat="45.04759" lon="6.1389">
        <ele>1085.2</ele>
        <time>2026-08-09T11:35:12Z</time>
      </trkpt>
      <trkpt lat="45.04759" lon="6.13889">
        <ele>1085.2</ele>
        <time>2026-08-09T11:35:13Z</time>
      </trkpt>
      <trkpt lat="45.04758" lon="6.13886">
        <ele>1085.4</ele>
        <time>2026-08-09T11:35:14Z</time>
      </trkpt>
      <trkpt lat="45.04757" lon="6.13882">
        <ele>1085.6</ele>
        <time>2026-08-09T11:35:16Z</time>
      </trkpt>
      <trkpt lat="45.04756" lon="6.13878">
        <ele>1085.6</ele>
        <time>2026-08-09T11:35:18Z</time>
      </trkpt>
      <trkpt lat="45.04755" lon="6.13874">
        <ele>1085.8</ele>
        <time>2026-08-09T11:35:20Z</time>
      </trkpt>
      <trkpt lat="45.04755" lon="6.13871">
        <ele>1086</ele>
        <time>2026-08-09T11:35:22Z</time>
      </trkpt>
      <trkpt lat="45.04756" lon="6.13867">
        <ele>1086.2</ele>
        <time>2026-08-09T11:35:24Z</time>
      </trkpt>
      <trkpt lat="45.04756" lon="6.13866">
        <ele>1086.4</ele>
        <time>2026-08-09T11:35:25Z</time>
      </trkpt>
      <trkpt lat="45.04757" lon="6.13866">
        <ele>1086.6</ele>
        <time>2026-08-09T11:35:26Z</time>
      </trkpt>
      <trkpt lat="45.04759" lon="6.13865">
        <ele>1087</ele>
        <time>2026-08-09T11:35:28Z</time>
      </trkpt>
      <trkpt lat="45.04761" lon="6.13865">
        <ele>1087.6</ele>
        <time>2026-08-09T11:35:30Z</time>
      </trkpt>
      <trkpt lat="45.04763" lon="6.13866">
        <ele>1088</ele>
        <time>2026-08-09T11:35:32Z</time>
      </trkpt>
      <trkpt lat="45.04764" lon="6.13869">
        <ele>1088.6</ele>
        <time>2026-08-09T11:35:34Z</time>
      </trkpt>
      <trkpt lat="45.04765" lon="6.13871">
        <ele>1089</ele>
        <time>2026-08-09T11:35:35Z</time>
      </trkpt>
      <trkpt lat="45.04765" lon="6.13874">
        <ele>1089.2</ele>
        <time>2026-08-09T11:35:36Z</time>
      </trkpt>
      <trkpt lat="45.04765" lon="6.13877">
        <ele>1089.6</ele>
        <time>2026-08-09T11:35:38Z</time>
      </trkpt>
      <trkpt lat="45.04766" lon="6.1388">
        <ele>1089.6</ele>
        <time>2026-08-09T11:35:40Z</time>
      </trkpt>
      <trkpt lat="45.04766" lon="6.13884">
        <ele>1089.6</ele>
        <time>2026-08-09T11:35:42Z</time>
      </trkpt>
      <trkpt lat="45.04766" lon="6.13887">
        <ele>1090</ele>
        <time>2026-08-09T11:35:44Z</time>
      </trkpt>
      <trkpt lat="45.04767" lon="6.13889">
        <ele>1090.2</ele>
        <time>2026-08-09T11:35:45Z</time>
      </trkpt>
      <trkpt lat="45.04767" lon="6.13891">
        <ele>1090.4</ele>
        <time>2026-08-09T11:35:46Z</time>
      </trkpt>
      <trkpt lat="45.04767" lon="6.13893">
        <ele>1090.6</ele>
        <time>2026-08-09T11:35:47Z</time>
      </trkpt>
      <trkpt lat="45.04766" lon="6.13895">
        <ele>1090.6</ele>
        <time>2026-08-09T11:35:48Z</time>
      </trkpt>
      <trkpt lat="45.04767" lon="6.13899">
        <ele>1090.8</ele>
        <time>2026-08-09T11:35:50Z</time>
      </trkpt>
      <trkpt lat="45.04768" lon="6.13903">
        <ele>1091</ele>
        <time>2026-08-09T11:35:52Z</time>
      </trkpt>
      <trkpt lat="45.04769" lon="6.13907">
        <ele>1091.4</ele>
        <time>2026-08-09T11:35:54Z</time>
      </trkpt>
      <trkpt lat="45.0477" lon="6.1391">
        <ele>1091.6</ele>
        <time>2026-08-09T11:35:56Z</time>
      </trkpt>
      <trkpt lat="45.0477" lon="6.13912">
        <ele>1091.8</ele>
        <time>2026-08-09T11:35:58Z</time>
      </trkpt>
      <trkpt lat="45.04771" lon="6.13914">
        <ele>1092</ele>
        <time>2026-08-09T11:36:00Z</time>
      </trkpt>
      <trkpt lat="45.04771" lon="6.13916">
        <ele>1092.2</ele>
        <time>2026-08-09T11:36:01Z</time>
      </trkpt>
      <trkpt lat="45.04772" lon="6.13917">
        <ele>1092.2</ele>
        <time>2026-08-09T11:36:02Z</time>
      </trkpt>
      <trkpt lat="45.04773" lon="6.13918">
        <ele>1092.6</ele>
        <time>2026-08-09T11:36:03Z</time>
      </trkpt>
      <trkpt lat="45.04774" lon="6.1392">
        <ele>1092.8</ele>
        <time>2026-08-09T11:36:04Z</time>
      </trkpt>
      <trkpt lat="45.04776" lon="6.13922">
        <ele>1093.2</ele>
        <time>2026-08-09T11:36:06Z</time>
      </trkpt>
      <trkpt lat="45.04776" lon="6.13923">
        <ele>1093.4</ele>
        <time>2026-08-09T11:36:07Z</time>
      </trkpt>
      <trkpt lat="45.04777" lon="6.13924">
        <ele>1093.6</ele>
        <time>2026-08-09T11:36:08Z</time>
      </trkpt>
      <trkpt lat="45.04778" lon="6.13927">
        <ele>1093.8</ele>
        <time>2026-08-09T11:36:10Z</time>
      </trkpt>
      <trkpt lat="45.0478" lon="6.1393">
        <ele>1094.2</ele>
        <time>2026-08-09T11:36:12Z</time>
      </trkpt>
      <trkpt lat="45.0478" lon="6.13931">
        <ele>1094.4</ele>
        <time>2026-08-09T11:36:13Z</time>
      </trkpt>
      <trkpt lat="45.04781" lon="6.13933">
        <ele>1094.6</ele>
        <time>2026-08-09T11:36:14Z</time>
      </trkpt>
      <trkpt lat="45.04782" lon="6.13935">
        <ele>1094.8</ele>
        <time>2026-08-09T11:36:16Z</time>
      </trkpt>
      <trkpt lat="45.04784" lon="6.13938">
        <ele>1095</ele>
        <time>2026-08-09T11:36:18Z</time>
      </trkpt>
      <trkpt lat="45.04784" lon="6.13941">
        <ele>1095.4</ele>
        <time>2026-08-09T11:36:20Z</time>
      </trkpt>
      <trkpt lat="45.04785" lon="6.13943">
        <ele>1095.6</ele>
        <time>2026-08-09T11:36:21Z</time>
      </trkpt>
      <trkpt lat="45.04785" lon="6.13944">
        <ele>1095.8</ele>
        <time>2026-08-09T11:36:22Z</time>
      </trkpt>
      <trkpt lat="45.04785" lon="6.13946">
        <ele>1095.8</ele>
        <time>2026-08-09T11:36:23Z</time>
      </trkpt>
      <trkpt lat="45.04785" lon="6.13948">
        <ele>1096</ele>
        <time>2026-08-09T11:36:24Z</time>
      </trkpt>
      <trkpt lat="45.04787" lon="6.1395">
        <ele>1096.2</ele>
        <time>2026-08-09T11:36:26Z</time>
      </trkpt>
      <trkpt lat="45.04788" lon="6.13953">
        <ele>1096.6</ele>
        <time>2026-08-09T11:36:28Z</time>
      </trkpt>
      <trkpt lat="45.04789" lon="6.13955">
        <ele>1097</ele>
        <time>2026-08-09T11:36:30Z</time>
      </trkpt>
      <trkpt lat="45.0479" lon="6.13957">
        <ele>1097.2</ele>
        <time>2026-08-09T11:36:31Z</time>
      </trkpt>
      <trkpt lat="45.0479" lon="6.13958">
        <ele>1097.4</ele>
        <time>2026-08-09T11:36:32Z</time>
      </trkpt>
      <trkpt lat="45.0479" lon="6.1396">
        <ele>1098</ele>
        <time>2026-08-09T11:36:34Z</time>
      </trkpt>
      <trkpt lat="45.0479" lon="6.13962">
        <ele>1098.2</ele>
        <time>2026-08-09T11:36:35Z</time>
      </trkpt>
      <trkpt lat="45.04791" lon="6.13963">
        <ele>1098.2</ele>
        <time>2026-08-09T11:36:36Z</time>
      </trkpt>
      <trkpt lat="45.04791" lon="6.13965">
        <ele>1098.4</ele>
        <time>2026-08-09T11:36:38Z</time>
      </trkpt>
      <trkpt lat="45.04791" lon="6.13968">
        <ele>1098.8</ele>
        <time>2026-08-09T11:36:40Z</time>
      </trkpt>
      <trkpt lat="45.04791" lon="6.13971">
        <ele>1099</ele>
        <time>2026-08-09T11:36:42Z</time>
      </trkpt>
      <trkpt lat="45.04791" lon="6.13973">
        <ele>1099.2</ele>
        <time>2026-08-09T11:36:44Z</time>
      </trkpt>
      <trkpt lat="45.04792" lon="6.13975">
        <ele>1099.4</ele>
        <time>2026-08-09T11:36:45Z</time>
      </trkpt>
      <trkpt lat="45.04792" lon="6.13976">
        <ele>1099.4</ele>
        <time>2026-08-09T11:36:46Z</time>
      </trkpt>
      <trkpt lat="45.04793" lon="6.13979">
        <ele>1099.6</ele>
        <time>2026-08-09T11:36:48Z</time>
      </trkpt>
      <trkpt lat="45.04794" lon="6.13981">
        <ele>1100</ele>
        <time>2026-08-09T11:36:50Z</time>
      </trkpt>
      <trkpt lat="45.04794" lon="6.13985">
        <ele>1100</ele>
        <time>2026-08-09T11:36:52Z</time>
      </trkpt>
      <trkpt lat="45.04795" lon="6.13987">
        <ele>1100.4</ele>
        <time>2026-08-09T11:36:54Z</time>
      </trkpt>
      <trkpt lat="45.04795" lon="6.1399">
        <ele>1100.8</ele>
        <time>2026-08-09T11:36:56Z</time>
      </trkpt>
      <trkpt lat="45.04796" lon="6.13992">
        <ele>1101.2</ele>
        <time>2026-08-09T11:36:58Z</time>
      </trkpt>
      <trkpt lat="45.04797" lon="6.13995">
        <ele>1101.4</ele>
        <time>2026-08-09T11:37:00Z</time>
      </trkpt>
      <trkpt lat="45.04798" lon="6.13997">
        <ele>1101.6</ele>
        <time>2026-08-09T11:37:02Z</time>
      </trkpt>
      <trkpt lat="45.04799" lon="6.14001">
        <ele>1101.8</ele>
        <time>2026-08-09T11:37:04Z</time>
      </trkpt>
      <trkpt lat="45.04799" lon="6.14004">
        <ele>1102</ele>
        <time>2026-08-09T11:37:06Z</time>
      </trkpt>
      <trkpt lat="45.048" lon="6.14007">
        <ele>1102.2</ele>
        <time>2026-08-09T11:37:08Z</time>
      </trkpt>
      <trkpt lat="45.04801" lon="6.14011">
        <ele>1102.4</ele>
        <time>2026-08-09T11:37:10Z</time>
      </trkpt>
      <trkpt lat="45.04801" lon="6.14015">
        <ele>1103</ele>
        <time>2026-08-09T11:37:12Z</time>
      </trkpt>
      <trkpt lat="45.04802" lon="6.14019">
        <ele>1103.4</ele>
        <time>2026-08-09T11:37:14Z</time>
      </trkpt>
      <trkpt lat="45.04803" lon="6.14022">
        <ele>1103.6</ele>
        <time>2026-08-09T11:37:16Z</time>
      </trkpt>
      <trkpt lat="45.04803" lon="6.14024">
        <ele>1103.8</ele>
        <time>2026-08-09T11:37:17Z</time>
      </trkpt>
      <trkpt lat="45.04803" lon="6.14025">
        <ele>1104</ele>
        <time>2026-08-09T11:37:18Z</time>
      </trkpt>
      <trkpt lat="45.04803" lon="6.14028">
        <ele>1104.4</ele>
        <time>2026-08-09T11:37:20Z</time>
      </trkpt>
      <trkpt lat="45.04804" lon="6.14031">
        <ele>1104.6</ele>
        <time>2026-08-09T11:37:22Z</time>
      </trkpt>
      <trkpt lat="45.04805" lon="6.14033">
        <ele>1105</ele>
        <time>2026-08-09T11:37:24Z</time>
      </trkpt>
      <trkpt lat="45.04806" lon="6.14034">
        <ele>1105</ele>
        <time>2026-08-09T11:37:25Z</time>
      </trkpt>
      <trkpt lat="45.04806" lon="6.14036">
        <ele>1105.2</ele>
        <time>2026-08-09T11:37:26Z</time>
      </trkpt>
      <trkpt lat="45.04807" lon="6.14039">
        <ele>1105.4</ele>
        <time>2026-08-09T11:37:28Z</time>
      </trkpt>
      <trkpt lat="45.04808" lon="6.14041">
        <ele>1105.8</ele>
        <time>2026-08-09T11:37:30Z</time>
      </trkpt>
      <trkpt lat="45.04808" lon="6.14044">
        <ele>1106</ele>
        <time>2026-08-09T11:37:32Z</time>
      </trkpt>
      <trkpt lat="45.04809" lon="6.14047">
        <ele>1106.2</ele>
        <time>2026-08-09T11:37:34Z</time>
      </trkpt>
      <trkpt lat="45.04809" lon="6.1405">
        <ele>1106.6</ele>
        <time>2026-08-09T11:37:36Z</time>
      </trkpt>
      <trkpt lat="45.04809" lon="6.14051">
        <ele>1106.6</ele>
        <time>2026-08-09T11:37:37Z</time>
      </trkpt>
      <trkpt lat="45.04809" lon="6.14053">
        <ele>1106.8</ele>
        <time>2026-08-09T11:37:38Z</time>
      </trkpt>
      <trkpt lat="45.04809" lon="6.14056">
        <ele>1107</ele>
        <time>2026-08-09T11:37:40Z</time>
      </trkpt>
      <trkpt lat="45.04809" lon="6.14058">
        <ele>1107.2</ele>
        <time>2026-08-09T11:37:42Z</time>
      </trkpt>
      <trkpt lat="45.04809" lon="6.14062">
        <ele>1107.4</ele>
        <time>2026-08-09T11:37:44Z</time>
      </trkpt>
      <trkpt lat="45.04809" lon="6.14065">
        <ele>1107.6</ele>
        <time>2026-08-09T11:37:46Z</time>
      </trkpt>
      <trkpt lat="45.04809" lon="6.14068">
        <ele>1108</ele>
        <time>2026-08-09T11:37:48Z</time>
      </trkpt>
      <trkpt lat="45.04809" lon="6.1407">
        <ele>1108</ele>
        <time>2026-08-09T11:37:49Z</time>
      </trkpt>
      <trkpt lat="45.04809" lon="6.14071">
        <ele>1108</ele>
        <time>2026-08-09T11:37:50Z</time>
      </trkpt>
      <trkpt lat="45.04809" lon="6.14073">
        <ele>1108.2</ele>
        <time>2026-08-09T11:37:51Z</time>
      </trkpt>
      <trkpt lat="45.04809" lon="6.14074">
        <ele>1108.4</ele>
        <time>2026-08-09T11:37:52Z</time>
      </trkpt>
      <trkpt lat="45.04809" lon="6.14077">
        <ele>1108.6</ele>
        <time>2026-08-09T11:37:54Z</time>
      </trkpt>
      <trkpt lat="45.04809" lon="6.1408">
        <ele>1109</ele>
        <time>2026-08-09T11:37:56Z</time>
      </trkpt>
      <trkpt lat="45.04809" lon="6.14083">
        <ele>1109</ele>
        <time>2026-08-09T11:37:58Z</time>
      </trkpt>
      <trkpt lat="45.04809" lon="6.14086">
        <ele>1109.2</ele>
        <time>2026-08-09T11:38:00Z</time>
      </trkpt>
      <trkpt lat="45.0481" lon="6.14087">
        <ele>1109.2</ele>
        <time>2026-08-09T11:38:01Z</time>
      </trkpt>
      <trkpt lat="45.0481" lon="6.14089">
        <ele>1109.4</ele>
        <time>2026-08-09T11:38:02Z</time>
      </trkpt>
      <trkpt lat="45.04811" lon="6.14093">
        <ele>1109.8</ele>
        <time>2026-08-09T11:38:04Z</time>
      </trkpt>
      <trkpt lat="45.04811" lon="6.14096">
        <ele>1109.8</ele>
        <time>2026-08-09T11:38:06Z</time>
      </trkpt>
      <trkpt lat="45.04811" lon="6.14099">
        <ele>1110.2</ele>
        <time>2026-08-09T11:38:08Z</time>
      </trkpt>
      <trkpt lat="45.0481" lon="6.14104">
        <ele>1110.4</ele>
        <time>2026-08-09T11:38:10Z</time>
      </trkpt>
      <trkpt lat="45.04811" lon="6.14107">
        <ele>1110.8</ele>
        <time>2026-08-09T11:38:12Z</time>
      </trkpt>
      <trkpt lat="45.04811" lon="6.1411">
        <ele>1111</ele>
        <time>2026-08-09T11:38:14Z</time>
      </trkpt>
      <trkpt lat="45.04812" lon="6.14113">
        <ele>1111.4</ele>
        <time>2026-08-09T11:38:16Z</time>
      </trkpt>
      <trkpt lat="45.04813" lon="6.14116">
        <ele>1111.6</ele>
        <time>2026-08-09T11:38:18Z</time>
      </trkpt>
      <trkpt lat="45.04814" lon="6.14119">
        <ele>1111.8</ele>
        <time>2026-08-09T11:38:20Z</time>
      </trkpt>
      <trkpt lat="45.04815" lon="6.14123">
        <ele>1112.2</ele>
        <time>2026-08-09T11:38:22Z</time>
      </trkpt>
      <trkpt lat="45.04816" lon="6.14125">
        <ele>1112.6</ele>
        <time>2026-08-09T11:38:24Z</time>
      </trkpt>
      <trkpt lat="45.04817" lon="6.14127">
        <ele>1112.6</ele>
        <time>2026-08-09T11:38:25Z</time>
      </trkpt>
      <trkpt lat="45.04817" lon="6.14129">
        <ele>1112.8</ele>
        <time>2026-08-09T11:38:26Z</time>
      </trkpt>
      <trkpt lat="45.04819" lon="6.14132">
        <ele>1113</ele>
        <time>2026-08-09T11:38:28Z</time>
      </trkpt>
      <trkpt lat="45.0482" lon="6.14135">
        <ele>1113.4</ele>
        <time>2026-08-09T11:38:30Z</time>
      </trkpt>
      <trkpt lat="45.04822" lon="6.14139">
        <ele>1113.8</ele>
        <time>2026-08-09T11:38:32Z</time>
      </trkpt>
      <trkpt lat="45.04823" lon="6.14141">
        <ele>1113.8</ele>
        <time>2026-08-09T11:38:33Z</time>
      </trkpt>
      <trkpt lat="45.04823" lon="6.14143">
        <ele>1114</ele>
        <time>2026-08-09T11:38:34Z</time>
      </trkpt>
      <trkpt lat="45.04826" lon="6.14147">
        <ele>1114.2</ele>
        <time>2026-08-09T11:38:36Z</time>
      </trkpt>
      <trkpt lat="45.04828" lon="6.14149">
        <ele>1114.6</ele>
        <time>2026-08-09T11:38:38Z</time>
      </trkpt>
      <trkpt lat="45.0483" lon="6.14153">
        <ele>1114.8</ele>
        <time>2026-08-09T11:38:40Z</time>
      </trkpt>
      <trkpt lat="45.04831" lon="6.14154">
        <ele>1115</ele>
        <time>2026-08-09T11:38:41Z</time>
      </trkpt>
      <trkpt lat="45.04832" lon="6.14155">
        <ele>1115.2</ele>
        <time>2026-08-09T11:38:42Z</time>
      </trkpt>
      <trkpt lat="45.04834" lon="6.14157">
        <ele>1115.6</ele>
        <time>2026-08-09T11:38:44Z</time>
      </trkpt>
      <trkpt lat="45.04835" lon="6.14159">
        <ele>1115.8</ele>
        <time>2026-08-09T11:38:45Z</time>
      </trkpt>
      <trkpt lat="45.04835" lon="6.14161">
        <ele>1116</ele>
        <time>2026-08-09T11:38:46Z</time>
      </trkpt>
      <trkpt lat="45.04837" lon="6.14165">
        <ele>1116.4</ele>
        <time>2026-08-09T11:38:48Z</time>
      </trkpt>
      <trkpt lat="45.04838" lon="6.14169">
        <ele>1116.6</ele>
        <time>2026-08-09T11:38:50Z</time>
      </trkpt>
      <trkpt lat="45.04839" lon="6.14172">
        <ele>1117</ele>
        <time>2026-08-09T11:38:52Z</time>
      </trkpt>
      <trkpt lat="45.0484" lon="6.14176">
        <ele>1117.6</ele>
        <time>2026-08-09T11:38:54Z</time>
      </trkpt>
      <trkpt lat="45.04841" lon="6.14178">
        <ele>1118</ele>
        <time>2026-08-09T11:38:56Z</time>
      </trkpt>
      <trkpt lat="45.04842" lon="6.1418">
        <ele>1118.2</ele>
        <time>2026-08-09T11:38:57Z</time>
      </trkpt>
      <trkpt lat="45.04843" lon="6.14182">
        <ele>1118.2</ele>
        <time>2026-08-09T11:38:58Z</time>
      </trkpt>
      <trkpt lat="45.04844" lon="6.14183">
        <ele>1118.4</ele>
        <time>2026-08-09T11:38:59Z</time>
      </trkpt>
      <trkpt lat="45.04844" lon="6.14185">
        <ele>1118.6</ele>
        <time>2026-08-09T11:39:00Z</time>
      </trkpt>
      <trkpt lat="45.04846" lon="6.14189">
        <ele>1119</ele>
        <time>2026-08-09T11:39:02Z</time>
      </trkpt>
      <trkpt lat="45.04846" lon="6.1419">
        <ele>1119.2</ele>
        <time>2026-08-09T11:39:03Z</time>
      </trkpt>
      <trkpt lat="45.04847" lon="6.14192">
        <ele>1119.4</ele>
        <time>2026-08-09T11:39:04Z</time>
      </trkpt>
      <trkpt lat="45.04848" lon="6.14193">
        <ele>1119.6</ele>
        <time>2026-08-09T11:39:05Z</time>
      </trkpt>
      <trkpt lat="45.04848" lon="6.14195">
        <ele>1119.8</ele>
        <time>2026-08-09T11:39:06Z</time>
      </trkpt>
      <trkpt lat="45.0485" lon="6.14197">
        <ele>1120.2</ele>
        <time>2026-08-09T11:39:08Z</time>
      </trkpt>
      <trkpt lat="45.0485" lon="6.14199">
        <ele>1120.2</ele>
        <time>2026-08-09T11:39:09Z</time>
      </trkpt>
      <trkpt lat="45.04851" lon="6.142">
        <ele>1120.6</ele>
        <time>2026-08-09T11:39:10Z</time>
      </trkpt>
      <trkpt lat="45.04852" lon="6.14203">
        <ele>1120.8</ele>
        <time>2026-08-09T11:39:12Z</time>
      </trkpt>
      <trkpt lat="45.04853" lon="6.14207">
        <ele>1121.6</ele>
        <time>2026-08-09T11:39:14Z</time>
      </trkpt>
      <trkpt lat="45.04854" lon="6.14211">
        <ele>1121.8</ele>
        <time>2026-08-09T11:39:16Z</time>
      </trkpt>
      <trkpt lat="45.04855" lon="6.14214">
        <ele>1122.2</ele>
        <time>2026-08-09T11:39:18Z</time>
      </trkpt>
      <trkpt lat="45.04857" lon="6.14217">
        <ele>1122.6</ele>
        <time>2026-08-09T11:39:20Z</time>
      </trkpt>
      <trkpt lat="45.04858" lon="6.14221">
        <ele>1122.8</ele>
        <time>2026-08-09T11:39:22Z</time>
      </trkpt>
      <trkpt lat="45.04859" lon="6.14224">
        <ele>1123.2</ele>
        <time>2026-08-09T11:39:24Z</time>
      </trkpt>
      <trkpt lat="45.04859" lon="6.14227">
        <ele>1123.4</ele>
        <time>2026-08-09T11:39:26Z</time>
      </trkpt>
      <trkpt lat="45.0486" lon="6.14231">
        <ele>1123.8</ele>
        <time>2026-08-09T11:39:28Z</time>
      </trkpt>
      <trkpt lat="45.04861" lon="6.14233">
        <ele>1124.2</ele>
        <time>2026-08-09T11:39:30Z</time>
      </trkpt>
      <trkpt lat="45.04861" lon="6.14235">
        <ele>1124.4</ele>
        <time>2026-08-09T11:39:31Z</time>
      </trkpt>
      <trkpt lat="45.04861" lon="6.14236">
        <ele>1124.6</ele>
        <time>2026-08-09T11:39:32Z</time>
      </trkpt>
      <trkpt lat="45.04862" lon="6.14238">
        <ele>1125</ele>
        <time>2026-08-09T11:39:34Z</time>
      </trkpt>
      <trkpt lat="45.04862" lon="6.1424">
        <ele>1125.2</ele>
        <time>2026-08-09T11:39:36Z</time>
      </trkpt>
      <trkpt lat="45.04864" lon="6.14243">
        <ele>1125.6</ele>
        <time>2026-08-09T11:39:38Z</time>
      </trkpt>
      <trkpt lat="45.04864" lon="6.14247">
        <ele>1126</ele>
        <time>2026-08-09T11:39:40Z</time>
      </trkpt>
      <trkpt lat="45.04864" lon="6.14248">
        <ele>1126</ele>
        <time>2026-08-09T11:39:41Z</time>
      </trkpt>
      <trkpt lat="45.04865" lon="6.1425">
        <ele>1126.2</ele>
        <time>2026-08-09T11:39:42Z</time>
      </trkpt>
      <trkpt lat="45.04865" lon="6.14254">
        <ele>1126.4</ele>
        <time>2026-08-09T11:39:44Z</time>
      </trkpt>
      <trkpt lat="45.04866" lon="6.14257">
        <ele>1126.8</ele>
        <time>2026-08-09T11:39:46Z</time>
      </trkpt>
      <trkpt lat="45.04867" lon="6.14259">
        <ele>1127</ele>
        <time>2026-08-09T11:39:48Z</time>
      </trkpt>
      <trkpt lat="45.04868" lon="6.14261">
        <ele>1127</ele>
        <time>2026-08-09T11:39:49Z</time>
      </trkpt>
      <trkpt lat="45.04869" lon="6.14262">
        <ele>1127.2</ele>
        <time>2026-08-09T11:39:50Z</time>
      </trkpt>
      <trkpt lat="45.0487" lon="6.14265">
        <ele>1127.4</ele>
        <time>2026-08-09T11:39:52Z</time>
      </trkpt>
      <trkpt lat="45.04871" lon="6.14268">
        <ele>1127.6</ele>
        <time>2026-08-09T11:39:54Z</time>
      </trkpt>
      <trkpt lat="45.04872" lon="6.14271">
        <ele>1127.8</ele>
        <time>2026-08-09T11:39:56Z</time>
      </trkpt>
      <trkpt lat="45.04873" lon="6.14273">
        <ele>1128</ele>
        <time>2026-08-09T11:39:57Z</time>
      </trkpt>
      <trkpt lat="45.04873" lon="6.14275">
        <ele>1128.2</ele>
        <time>2026-08-09T11:39:58Z</time>
      </trkpt>
      <trkpt lat="45.04874" lon="6.14278">
        <ele>1128.6</ele>
        <time>2026-08-09T11:40:00Z</time>
      </trkpt>
      <trkpt lat="45.04874" lon="6.14281">
        <ele>1128.8</ele>
        <time>2026-08-09T11:40:02Z</time>
      </trkpt>
      <trkpt lat="45.04873" lon="6.14284">
        <ele>1129</ele>
        <time>2026-08-09T11:40:03Z</time>
      </trkpt>
      <trkpt lat="45.04874" lon="6.14285">
        <ele>1129</ele>
        <time>2026-08-09T11:40:04Z</time>
      </trkpt>
      <trkpt lat="45.04874" lon="6.14287">
        <ele>1129.2</ele>
        <time>2026-08-09T11:40:05Z</time>
      </trkpt>
      <trkpt lat="45.04874" lon="6.14289">
        <ele>1129.2</ele>
        <time>2026-08-09T11:40:06Z</time>
      </trkpt>
      <trkpt lat="45.04875" lon="6.14292">
        <ele>1129.6</ele>
        <time>2026-08-09T11:40:08Z</time>
      </trkpt>
      <trkpt lat="45.04875" lon="6.14295">
        <ele>1129.8</ele>
        <time>2026-08-09T11:40:10Z</time>
      </trkpt>
      <trkpt lat="45.04874" lon="6.14298">
        <ele>1130</ele>
        <time>2026-08-09T11:40:12Z</time>
      </trkpt>
      <trkpt lat="45.04875" lon="6.14299">
        <ele>1130.2</ele>
        <time>2026-08-09T11:40:13Z</time>
      </trkpt>
      <trkpt lat="45.04875" lon="6.143">
        <ele>1130.4</ele>
        <time>2026-08-09T11:40:14Z</time>
      </trkpt>
      <trkpt lat="45.04875" lon="6.14302">
        <ele>1130.4</ele>
        <time>2026-08-09T11:40:15Z</time>
      </trkpt>
      <trkpt lat="45.04876" lon="6.14304">
        <ele>1130.6</ele>
        <time>2026-08-09T11:40:16Z</time>
      </trkpt>
      <trkpt lat="45.04876" lon="6.14308">
        <ele>1131</ele>
        <time>2026-08-09T11:40:18Z</time>
      </trkpt>
      <trkpt lat="45.04875" lon="6.14312">
        <ele>1131.2</ele>
        <time>2026-08-09T11:40:20Z</time>
      </trkpt>
      <trkpt lat="45.04876" lon="6.14316">
        <ele>1131.4</ele>
        <time>2026-08-09T11:40:22Z</time>
      </trkpt>
      <trkpt lat="45.04875" lon="6.14318">
        <ele>1131.6</ele>
        <time>2026-08-09T11:40:23Z</time>
      </trkpt>
      <trkpt lat="45.04874" lon="6.1432">
        <ele>1131.8</ele>
        <time>2026-08-09T11:40:24Z</time>
      </trkpt>
      <trkpt lat="45.04874" lon="6.14324">
        <ele>1132</ele>
        <time>2026-08-09T11:40:26Z</time>
      </trkpt>
      <trkpt lat="45.04874" lon="6.14329">
        <ele>1132.2</ele>
        <time>2026-08-09T11:40:28Z</time>
      </trkpt>
      <trkpt lat="45.04875" lon="6.14334">
        <ele>1132.6</ele>
        <time>2026-08-09T11:40:30Z</time>
      </trkpt>
      <trkpt lat="45.04877" lon="6.14339">
        <ele>1133</ele>
        <time>2026-08-09T11:40:32Z</time>
      </trkpt>
      <trkpt lat="45.04879" lon="6.14343">
        <ele>1133.2</ele>
        <time>2026-08-09T11:40:34Z</time>
      </trkpt>
      <trkpt lat="45.0488" lon="6.14345">
        <ele>1133.4</ele>
        <time>2026-08-09T11:40:35Z</time>
      </trkpt>
      <trkpt lat="45.04881" lon="6.14346">
        <ele>1133.6</ele>
        <time>2026-08-09T11:40:36Z</time>
      </trkpt>
      <trkpt lat="45.04885" lon="6.14348">
        <ele>1134</ele>
        <time>2026-08-09T11:40:38Z</time>
      </trkpt>
      <trkpt lat="45.04887" lon="6.14347">
        <ele>1134.2</ele>
        <time>2026-08-09T11:40:39Z</time>
      </trkpt>
      <trkpt lat="45.04888" lon="6.14347">
        <ele>1134.4</ele>
        <time>2026-08-09T11:40:40Z</time>
      </trkpt>
      <trkpt lat="45.04889" lon="6.14346">
        <ele>1134.4</ele>
        <time>2026-08-09T11:40:41Z</time>
      </trkpt>
      <trkpt lat="45.04891" lon="6.14345">
        <ele>1134.6</ele>
        <time>2026-08-09T11:40:42Z</time>
      </trkpt>
      <trkpt lat="45.04892" lon="6.14341">
        <ele>1134.8</ele>
        <time>2026-08-09T11:40:44Z</time>
      </trkpt>
      <trkpt lat="45.04893" lon="6.14339">
        <ele>1135</ele>
        <time>2026-08-09T11:40:45Z</time>
      </trkpt>
      <trkpt lat="45.04893" lon="6.14337">
        <ele>1135.2</ele>
        <time>2026-08-09T11:40:46Z</time>
      </trkpt>
      <trkpt lat="45.04894" lon="6.14335">
        <ele>1135.2</ele>
        <time>2026-08-09T11:40:47Z</time>
      </trkpt>
      <trkpt lat="45.04894" lon="6.14333">
        <ele>1135.4</ele>
        <time>2026-08-09T11:40:48Z</time>
      </trkpt>
      <trkpt lat="45.04894" lon="6.14328">
        <ele>1135.4</ele>
        <time>2026-08-09T11:40:50Z</time>
      </trkpt>
      <trkpt lat="45.04895" lon="6.14327">
        <ele>1135.6</ele>
        <time>2026-08-09T11:40:51Z</time>
      </trkpt>
      <trkpt lat="45.04895" lon="6.14325">
        <ele>1135.6</ele>
        <time>2026-08-09T11:40:52Z</time>
      </trkpt>
      <trkpt lat="45.04895" lon="6.14322">
        <ele>1135.8</ele>
        <time>2026-08-09T11:40:54Z</time>
      </trkpt>
      <trkpt lat="45.04895" lon="6.14318">
        <ele>1136</ele>
        <time>2026-08-09T11:40:56Z</time>
      </trkpt>
      <trkpt lat="45.04896" lon="6.14317">
        <ele>1136.2</ele>
        <time>2026-08-09T11:40:57Z</time>
      </trkpt>
      <trkpt lat="45.04896" lon="6.14316">
        <ele>1136.4</ele>
        <time>2026-08-09T11:40:58Z</time>
      </trkpt>
      <trkpt lat="45.04897" lon="6.14312">
        <ele>1136.6</ele>
        <time>2026-08-09T11:41:00Z</time>
      </trkpt>
      <trkpt lat="45.04898" lon="6.1431">
        <ele>1136.6</ele>
        <time>2026-08-09T11:41:01Z</time>
      </trkpt>
      <trkpt lat="45.04898" lon="6.14308">
        <ele>1136.8</ele>
        <time>2026-08-09T11:41:02Z</time>
      </trkpt>
      <trkpt lat="45.04898" lon="6.14304">
        <ele>1137.2</ele>
        <time>2026-08-09T11:41:04Z</time>
      </trkpt>
      <trkpt lat="45.04898" lon="6.14302">
        <ele>1137.6</ele>
        <time>2026-08-09T11:41:05Z</time>
      </trkpt>
      <trkpt lat="45.04898" lon="6.143">
        <ele>1137.8</ele>
        <time>2026-08-09T11:41:06Z</time>
      </trkpt>
      <trkpt lat="45.04898" lon="6.14295">
        <ele>1138.2</ele>
        <time>2026-08-09T11:41:08Z</time>
      </trkpt>
      <trkpt lat="45.04898" lon="6.14291">
        <ele>1138.6</ele>
        <time>2026-08-09T11:41:10Z</time>
      </trkpt>
      <trkpt lat="45.04898" lon="6.14286">
        <ele>1138.8</ele>
        <time>2026-08-09T11:41:12Z</time>
      </trkpt>
      <trkpt lat="45.04898" lon="6.14282">
        <ele>1139.2</ele>
        <time>2026-08-09T11:41:14Z</time>
      </trkpt>
      <trkpt lat="45.04899" lon="6.14277">
        <ele>1139.4</ele>
        <time>2026-08-09T11:41:16Z</time>
      </trkpt>
      <trkpt lat="45.049" lon="6.14273">
        <ele>1139.6</ele>
        <time>2026-08-09T11:41:18Z</time>
      </trkpt>
      <trkpt lat="45.049" lon="6.14271">
        <ele>1139.6</ele>
        <time>2026-08-09T11:41:19Z</time>
      </trkpt>
      <trkpt lat="45.049" lon="6.14269">
        <ele>1139.8</ele>
        <time>2026-08-09T11:41:20Z</time>
      </trkpt>
      <trkpt lat="45.049" lon="6.14267">
        <ele>1140</ele>
        <time>2026-08-09T11:41:21Z</time>
      </trkpt>
      <trkpt lat="45.049" lon="6.14265">
        <ele>1140.2</ele>
        <time>2026-08-09T11:41:22Z</time>
      </trkpt>
      <trkpt lat="45.049" lon="6.1426">
        <ele>1140.6</ele>
        <time>2026-08-09T11:41:24Z</time>
      </trkpt>
      <trkpt lat="45.04901" lon="6.14259">
        <ele>1140.8</ele>
        <time>2026-08-09T11:41:25Z</time>
      </trkpt>
      <trkpt lat="45.04901" lon="6.14257">
        <ele>1140.8</ele>
        <time>2026-08-09T11:41:26Z</time>
      </trkpt>
      <trkpt lat="45.04901" lon="6.14253">
        <ele>1141.2</ele>
        <time>2026-08-09T11:41:28Z</time>
      </trkpt>
      <trkpt lat="45.04901" lon="6.14249">
        <ele>1141.6</ele>
        <time>2026-08-09T11:41:30Z</time>
      </trkpt>
      <trkpt lat="45.04902" lon="6.14247">
        <ele>1141.8</ele>
        <time>2026-08-09T11:41:31Z</time>
      </trkpt>
      <trkpt lat="45.04902" lon="6.14245">
        <ele>1142.2</ele>
        <time>2026-08-09T11:41:32Z</time>
      </trkpt>
      <trkpt lat="45.04902" lon="6.14241">
        <ele>1142.8</ele>
        <time>2026-08-09T11:41:34Z</time>
      </trkpt>
      <trkpt lat="45.04902" lon="6.14238">
        <ele>1143</ele>
        <time>2026-08-09T11:41:35Z</time>
      </trkpt>
      <trkpt lat="45.04901" lon="6.14236">
        <ele>1143.2</ele>
        <time>2026-08-09T11:41:36Z</time>
      </trkpt>
      <trkpt lat="45.04899" lon="6.1423">
        <ele>1143.6</ele>
        <time>2026-08-09T11:41:38Z</time>
      </trkpt>
      <trkpt lat="45.04896" lon="6.14224">
        <ele>1144</ele>
        <time>2026-08-09T11:41:40Z</time>
      </trkpt>
      <trkpt lat="45.04896" lon="6.14223">
        <ele>1144.2</ele>
        <time>2026-08-09T11:41:41Z</time>
      </trkpt>
      <trkpt lat="45.04895" lon="6.1422">
        <ele>1144.4</ele>
        <time>2026-08-09T11:41:42Z</time>
      </trkpt>
      <trkpt lat="45.04894" lon="6.14216">
        <ele>1144.8</ele>
        <time>2026-08-09T11:41:44Z</time>
      </trkpt>
      <trkpt lat="45.04893" lon="6.14212">
        <ele>1145</ele>
        <time>2026-08-09T11:41:46Z</time>
      </trkpt>
      <trkpt lat="45.04893" lon="6.14211">
        <ele>1145.2</ele>
        <time>2026-08-09T11:41:47Z</time>
      </trkpt>
      <trkpt lat="45.04892" lon="6.14209">
        <ele>1145.4</ele>
        <time>2026-08-09T11:41:48Z</time>
      </trkpt>
      <trkpt lat="45.04892" lon="6.14205">
        <ele>1145.6</ele>
        <time>2026-08-09T11:41:50Z</time>
      </trkpt>
      <trkpt lat="45.04891" lon="6.14201">
        <ele>1146</ele>
        <time>2026-08-09T11:41:52Z</time>
      </trkpt>
      <trkpt lat="45.04891" lon="6.14199">
        <ele>1146.4</ele>
        <time>2026-08-09T11:41:54Z</time>
      </trkpt>
      <trkpt lat="45.04892" lon="6.14197">
        <ele>1146.4</ele>
        <time>2026-08-09T11:41:55Z</time>
      </trkpt>
      <trkpt lat="45.04892" lon="6.14196">
        <ele>1146.6</ele>
        <time>2026-08-09T11:41:56Z</time>
      </trkpt>
      <trkpt lat="45.04892" lon="6.14192">
        <ele>1146.8</ele>
        <time>2026-08-09T11:41:58Z</time>
      </trkpt>
      <trkpt lat="45.04892" lon="6.14188">
        <ele>1147</ele>
        <time>2026-08-09T11:42:00Z</time>
      </trkpt>
      <trkpt lat="45.04892" lon="6.14186">
        <ele>1147.4</ele>
        <time>2026-08-09T11:42:02Z</time>
      </trkpt>
      <trkpt lat="45.04892" lon="6.14182">
        <ele>1147.8</ele>
        <time>2026-08-09T11:42:04Z</time>
      </trkpt>
      <trkpt lat="45.04892" lon="6.14179">
        <ele>1148</ele>
        <time>2026-08-09T11:42:06Z</time>
      </trkpt>
      <trkpt lat="45.04892" lon="6.14175">
        <ele>1148.4</ele>
        <time>2026-08-09T11:42:08Z</time>
      </trkpt>
      <trkpt lat="45.04893" lon="6.14174">
        <ele>1148.6</ele>
        <time>2026-08-09T11:42:09Z</time>
      </trkpt>
      <trkpt lat="45.04893" lon="6.14172">
        <ele>1148.8</ele>
        <time>2026-08-09T11:42:10Z</time>
      </trkpt>
      <trkpt lat="45.04893" lon="6.14169">
        <ele>1149</ele>
        <time>2026-08-09T11:42:12Z</time>
      </trkpt>
      <trkpt lat="45.04893" lon="6.14166">
        <ele>1149.2</ele>
        <time>2026-08-09T11:42:14Z</time>
      </trkpt>
      <trkpt lat="45.04893" lon="6.14164">
        <ele>1149.2</ele>
        <time>2026-08-09T11:42:15Z</time>
      </trkpt>
      <trkpt lat="45.04893" lon="6.14162">
        <ele>1149.4</ele>
        <time>2026-08-09T11:42:16Z</time>
      </trkpt>
      <trkpt lat="45.04893" lon="6.14158">
        <ele>1149.6</ele>
        <time>2026-08-09T11:42:18Z</time>
      </trkpt>
      <trkpt lat="45.04893" lon="6.14155">
        <ele>1150</ele>
        <time>2026-08-09T11:42:20Z</time>
      </trkpt>
      <trkpt lat="45.04893" lon="6.14151">
        <ele>1150.2</ele>
        <time>2026-08-09T11:42:22Z</time>
      </trkpt>
      <trkpt lat="45.04893" lon="6.14148">
        <ele>1150.4</ele>
        <time>2026-08-09T11:42:24Z</time>
      </trkpt>
      <trkpt lat="45.04893" lon="6.14146">
        <ele>1150.6</ele>
        <time>2026-08-09T11:42:25Z</time>
      </trkpt>
      <trkpt lat="45.04893" lon="6.14144">
        <ele>1150.6</ele>
        <time>2026-08-09T11:42:26Z</time>
      </trkpt>
      <trkpt lat="45.04893" lon="6.1414">
        <ele>1151</ele>
        <time>2026-08-09T11:42:28Z</time>
      </trkpt>
      <trkpt lat="45.04889" lon="6.14133">
        <ele>1151.2</ele>
        <time>2026-08-09T11:42:30Z</time>
      </trkpt>
      <trkpt lat="45.04887" lon="6.14128">
        <ele>1151.6</ele>
        <time>2026-08-09T11:42:32Z</time>
      </trkpt>
      <trkpt lat="45.04888" lon="6.14124">
        <ele>1151.6</ele>
        <time>2026-08-09T11:42:34Z</time>
      </trkpt>
      <trkpt lat="45.04888" lon="6.14119">
        <ele>1152</ele>
        <time>2026-08-09T11:42:36Z</time>
      </trkpt>
      <trkpt lat="45.04889" lon="6.14114">
        <ele>1152.2</ele>
        <time>2026-08-09T11:42:38Z</time>
      </trkpt>
      <trkpt lat="45.0489" lon="6.14112">
        <ele>1152.4</ele>
        <time>2026-08-09T11:42:39Z</time>
      </trkpt>
      <trkpt lat="45.04891" lon="6.14111">
        <ele>1152.6</ele>
        <time>2026-08-09T11:42:40Z</time>
      </trkpt>
      <trkpt lat="45.04892" lon="6.14108">
        <ele>1152.8</ele>
        <time>2026-08-09T11:42:41Z</time>
      </trkpt>
      <trkpt lat="45.04893" lon="6.14107">
        <ele>1153</ele>
        <time>2026-08-09T11:42:42Z</time>
      </trkpt>
      <trkpt lat="45.04895" lon="6.14103">
        <ele>1153.4</ele>
        <time>2026-08-09T11:42:44Z</time>
      </trkpt>
      <trkpt lat="45.04897" lon="6.14099">
        <ele>1153.8</ele>
        <time>2026-08-09T11:42:46Z</time>
      </trkpt>
      <trkpt lat="45.04899" lon="6.14095">
        <ele>1154.2</ele>
        <time>2026-08-09T11:42:48Z</time>
      </trkpt>
      <trkpt lat="45.049" lon="6.14091">
        <ele>1154.6</ele>
        <time>2026-08-09T11:42:50Z</time>
      </trkpt>
      <trkpt lat="45.04901" lon="6.14089">
        <ele>1154.8</ele>
        <time>2026-08-09T11:42:51Z</time>
      </trkpt>
      <trkpt lat="45.04902" lon="6.14087">
        <ele>1155</ele>
        <time>2026-08-09T11:42:52Z</time>
      </trkpt>
      <trkpt lat="45.04904" lon="6.14082">
        <ele>1155.4</ele>
        <time>2026-08-09T11:42:54Z</time>
      </trkpt>
      <trkpt lat="45.04905" lon="6.14079">
        <ele>1155.6</ele>
        <time>2026-08-09T11:42:56Z</time>
      </trkpt>
      <trkpt lat="45.04905" lon="6.14078">
        <ele>1155.8</ele>
        <time>2026-08-09T11:42:57Z</time>
      </trkpt>
      <trkpt lat="45.04906" lon="6.14076">
        <ele>1156</ele>
        <time>2026-08-09T11:42:58Z</time>
      </trkpt>
      <trkpt lat="45.04907" lon="6.14074">
        <ele>1156.4</ele>
        <time>2026-08-09T11:43:00Z</time>
      </trkpt>
      <trkpt lat="45.04908" lon="6.14071">
        <ele>1156.8</ele>
        <time>2026-08-09T11:43:02Z</time>
      </trkpt>
      <trkpt lat="45.04909" lon="6.14069">
        <ele>1157.2</ele>
        <time>2026-08-09T11:43:03Z</time>
      </trkpt>
      <trkpt lat="45.04909" lon="6.14068">
        <ele>1157.2</ele>
        <time>2026-08-09T11:43:04Z</time>
      </trkpt>
      <trkpt lat="45.0491" lon="6.14064">
        <ele>1157.8</ele>
        <time>2026-08-09T11:43:06Z</time>
      </trkpt>
      <trkpt lat="45.0491" lon="6.14063">
        <ele>1157.8</ele>
        <time>2026-08-09T11:43:07Z</time>
      </trkpt>
      <trkpt lat="45.04911" lon="6.14061">
        <ele>1158</ele>
        <time>2026-08-09T11:43:08Z</time>
      </trkpt>
      <trkpt lat="45.04911" lon="6.14059">
        <ele>1158.2</ele>
        <time>2026-08-09T11:43:09Z</time>
      </trkpt>
      <trkpt lat="45.04912" lon="6.14057">
        <ele>1158.4</ele>
        <time>2026-08-09T11:43:10Z</time>
      </trkpt>
      <trkpt lat="45.04912" lon="6.14054">
        <ele>1158.6</ele>
        <time>2026-08-09T11:43:12Z</time>
      </trkpt>
      <trkpt lat="45.04913" lon="6.14052">
        <ele>1158.8</ele>
        <time>2026-08-09T11:43:13Z</time>
      </trkpt>
      <trkpt lat="45.04914" lon="6.14051">
        <ele>1159</ele>
        <time>2026-08-09T11:43:14Z</time>
      </trkpt>
      <trkpt lat="45.04916" lon="6.14049">
        <ele>1159</ele>
        <time>2026-08-09T11:43:16Z</time>
      </trkpt>
      <trkpt lat="45.04918" lon="6.14046">
        <ele>1159.2</ele>
        <time>2026-08-09T11:43:18Z</time>
      </trkpt>
      <trkpt lat="45.0492" lon="6.14044">
        <ele>1159.4</ele>
        <time>2026-08-09T11:43:20Z</time>
      </trkpt>
      <trkpt lat="45.04922" lon="6.14042">
        <ele>1159.8</ele>
        <time>2026-08-09T11:43:22Z</time>
      </trkpt>
      <trkpt lat="45.04923" lon="6.1404">
        <ele>1160.2</ele>
        <time>2026-08-09T11:43:24Z</time>
      </trkpt>
      <trkpt lat="45.04926" lon="6.14037">
        <ele>1160.6</ele>
        <time>2026-08-09T11:43:26Z</time>
      </trkpt>
      <trkpt lat="45.04928" lon="6.14036">
        <ele>1160.8</ele>
        <time>2026-08-09T11:43:28Z</time>
      </trkpt>
      <trkpt lat="45.0493" lon="6.14034">
        <ele>1161</ele>
        <time>2026-08-09T11:43:30Z</time>
      </trkpt>
      <trkpt lat="45.04932" lon="6.14031">
        <ele>1161</ele>
        <time>2026-08-09T11:43:32Z</time>
      </trkpt>
      <trkpt lat="45.04934" lon="6.1403">
        <ele>1161.4</ele>
        <time>2026-08-09T11:43:34Z</time>
      </trkpt>
      <trkpt lat="45.04936" lon="6.14028">
        <ele>1161.8</ele>
        <time>2026-08-09T11:43:36Z</time>
      </trkpt>
      <trkpt lat="45.04939" lon="6.14027">
        <ele>1162.4</ele>
        <time>2026-08-09T11:43:38Z</time>
      </trkpt>
      <trkpt lat="45.0494" lon="6.14026">
        <ele>1162.6</ele>
        <time>2026-08-09T11:43:39Z</time>
      </trkpt>
      <trkpt lat="45.0494" lon="6.14025">
        <ele>1162.6</ele>
        <time>2026-08-09T11:43:40Z</time>
      </trkpt>
      <trkpt lat="45.04941" lon="6.14024">
        <ele>1162.8</ele>
        <time>2026-08-09T11:43:41Z</time>
      </trkpt>
      <trkpt lat="45.04942" lon="6.14023">
        <ele>1163</ele>
        <time>2026-08-09T11:43:42Z</time>
      </trkpt>
      <trkpt lat="45.04944" lon="6.1402">
        <ele>1163.2</ele>
        <time>2026-08-09T11:43:44Z</time>
      </trkpt>
      <trkpt lat="45.04946" lon="6.14016">
        <ele>1163.4</ele>
        <time>2026-08-09T11:43:46Z</time>
      </trkpt>
      <trkpt lat="45.04948" lon="6.14014">
        <ele>1163.6</ele>
        <time>2026-08-09T11:43:47Z</time>
      </trkpt>
      <trkpt lat="45.04949" lon="6.14013">
        <ele>1163.8</ele>
        <time>2026-08-09T11:43:48Z</time>
      </trkpt>
      <trkpt lat="45.0495" lon="6.14011">
        <ele>1164</ele>
        <time>2026-08-09T11:43:49Z</time>
      </trkpt>
      <trkpt lat="45.0495" lon="6.14009">
        <ele>1164.2</ele>
        <time>2026-08-09T11:43:50Z</time>
      </trkpt>
      <trkpt lat="45.0495" lon="6.14005">
        <ele>1164.6</ele>
        <time>2026-08-09T11:43:52Z</time>
      </trkpt>
      <trkpt lat="45.04951" lon="6.14001">
        <ele>1165</ele>
        <time>2026-08-09T11:43:54Z</time>
      </trkpt>
      <trkpt lat="45.04953" lon="6.13998">
        <ele>1165.8</ele>
        <time>2026-08-09T11:43:56Z</time>
      </trkpt>
      <trkpt lat="45.04955" lon="6.13998">
        <ele>1165.8</ele>
        <time>2026-08-09T11:43:57Z</time>
      </trkpt>
      <trkpt lat="45.04956" lon="6.13998">
        <ele>1166.2</ele>
        <time>2026-08-09T11:43:58Z</time>
      </trkpt>
      <trkpt lat="45.04959" lon="6.14">
        <ele>1166.6</ele>
        <time>2026-08-09T11:44:00Z</time>
      </trkpt>
      <trkpt lat="45.04961" lon="6.14005">
        <ele>1166.8</ele>
        <time>2026-08-09T11:44:02Z</time>
      </trkpt>
      <trkpt lat="45.0496" lon="6.14008">
        <ele>1166.8</ele>
        <time>2026-08-09T11:44:03Z</time>
      </trkpt>
      <trkpt lat="45.04959" lon="6.14011">
        <ele>1167</ele>
        <time>2026-08-09T11:44:04Z</time>
      </trkpt>
      <trkpt lat="45.04958" lon="6.14013">
        <ele>1167</ele>
        <time>2026-08-09T11:44:05Z</time>
      </trkpt>
      <trkpt lat="45.04956" lon="6.14016">
        <ele>1167.2</ele>
        <time>2026-08-09T11:44:06Z</time>
      </trkpt>
      <trkpt lat="45.04953" lon="6.14021">
        <ele>1167.4</ele>
        <time>2026-08-09T11:44:08Z</time>
      </trkpt>
      <trkpt lat="45.04952" lon="6.14023">
        <ele>1167.4</ele>
        <time>2026-08-09T11:44:09Z</time>
      </trkpt>
      <trkpt lat="45.0495" lon="6.14025">
        <ele>1167.4</ele>
        <time>2026-08-09T11:44:10Z</time>
      </trkpt>
      <trkpt lat="45.04947" lon="6.14028">
        <ele>1167.6</ele>
        <time>2026-08-09T11:44:12Z</time>
      </trkpt>
      <trkpt lat="45.04945" lon="6.14032">
        <ele>1167.6</ele>
        <time>2026-08-09T11:44:14Z</time>
      </trkpt>
      <trkpt lat="45.04943" lon="6.14036">
        <ele>1168</ele>
        <time>2026-08-09T11:44:16Z</time>
      </trkpt>
      <trkpt lat="45.04942" lon="6.14038">
        <ele>1168.2</ele>
        <time>2026-08-09T11:44:17Z</time>
      </trkpt>
      <trkpt lat="45.04941" lon="6.1404">
        <ele>1168.2</ele>
        <time>2026-08-09T11:44:18Z</time>
      </trkpt>
      <trkpt lat="45.0494" lon="6.14042">
        <ele>1168.6</ele>
        <time>2026-08-09T11:44:20Z</time>
      </trkpt>
      <trkpt lat="45.04938" lon="6.14045">
        <ele>1169</ele>
        <time>2026-08-09T11:44:22Z</time>
      </trkpt>
      <trkpt lat="45.04937" lon="6.14048">
        <ele>1169.4</ele>
        <time>2026-08-09T11:44:24Z</time>
      </trkpt>
      <trkpt lat="45.04937" lon="6.14049">
        <ele>1169.6</ele>
        <time>2026-08-09T11:44:25Z</time>
      </trkpt>
      <trkpt lat="45.04936" lon="6.14051">
        <ele>1169.8</ele>
        <time>2026-08-09T11:44:26Z</time>
      </trkpt>
      <trkpt lat="45.04935" lon="6.14054">
        <ele>1170.2</ele>
        <time>2026-08-09T11:44:28Z</time>
      </trkpt>
      <trkpt lat="45.04934" lon="6.14057">
        <ele>1170.6</ele>
        <time>2026-08-09T11:44:30Z</time>
      </trkpt>
      <trkpt lat="45.04932" lon="6.1406">
        <ele>1170.8</ele>
        <time>2026-08-09T11:44:32Z</time>
      </trkpt>
      <trkpt lat="45.04932" lon="6.14062">
        <ele>1171</ele>
        <time>2026-08-09T11:44:33Z</time>
      </trkpt>
      <trkpt lat="45.04931" lon="6.14063">
        <ele>1171.2</ele>
        <time>2026-08-09T11:44:34Z</time>
      </trkpt>
      <trkpt lat="45.0493" lon="6.14066">
        <ele>1171.4</ele>
        <time>2026-08-09T11:44:36Z</time>
      </trkpt>
      <trkpt lat="45.0493" lon="6.14069">
        <ele>1171.6</ele>
        <time>2026-08-09T11:44:38Z</time>
      </trkpt>
      <trkpt lat="45.04929" lon="6.14072">
        <ele>1172</ele>
        <time>2026-08-09T11:44:40Z</time>
      </trkpt>
      <trkpt lat="45.04929" lon="6.14075">
        <ele>1172.2</ele>
        <time>2026-08-09T11:44:42Z</time>
      </trkpt>
      <trkpt lat="45.04928" lon="6.14079">
        <ele>1172.6</ele>
        <time>2026-08-09T11:44:44Z</time>
      </trkpt>
      <trkpt lat="45.04927" lon="6.14081">
        <ele>1172.8</ele>
        <time>2026-08-09T11:44:45Z</time>
      </trkpt>
      <trkpt lat="45.04927" lon="6.14083">
        <ele>1173</ele>
        <time>2026-08-09T11:44:46Z</time>
      </trkpt>
      <trkpt lat="45.04927" lon="6.14087">
        <ele>1173.2</ele>
        <time>2026-08-09T11:44:48Z</time>
      </trkpt>
      <trkpt lat="45.04926" lon="6.14091">
        <ele>1173.6</ele>
        <time>2026-08-09T11:44:50Z</time>
      </trkpt>
      <trkpt lat="45.04927" lon="6.14093">
        <ele>1173.6</ele>
        <time>2026-08-09T11:44:51Z</time>
      </trkpt>
      <trkpt lat="45.04927" lon="6.14095">
        <ele>1173.8</ele>
        <time>2026-08-09T11:44:52Z</time>
      </trkpt>
      <trkpt lat="45.04927" lon="6.14098">
        <ele>1174</ele>
        <time>2026-08-09T11:44:53Z</time>
      </trkpt>
      <trkpt lat="45.04926" lon="6.141">
        <ele>1174.2</ele>
        <time>2026-08-09T11:44:54Z</time>
      </trkpt>
      <trkpt lat="45.04926" lon="6.14106">
        <ele>1174.4</ele>
        <time>2026-08-09T11:44:56Z</time>
      </trkpt>
      <trkpt lat="45.04927" lon="6.1411">
        <ele>1174.8</ele>
        <time>2026-08-09T11:44:58Z</time>
      </trkpt>
      <trkpt lat="45.04927" lon="6.14114">
        <ele>1175.2</ele>
        <time>2026-08-09T11:45:00Z</time>
      </trkpt>
      <trkpt lat="45.04927" lon="6.14119">
        <ele>1175.4</ele>
        <time>2026-08-09T11:45:02Z</time>
      </trkpt>
      <trkpt lat="45.04928" lon="6.14124">
        <ele>1175.6</ele>
        <time>2026-08-09T11:45:04Z</time>
      </trkpt>
      <trkpt lat="45.0493" lon="6.14128">
        <ele>1176</ele>
        <time>2026-08-09T11:45:06Z</time>
      </trkpt>
      <trkpt lat="45.04931" lon="6.14132">
        <ele>1176.4</ele>
        <time>2026-08-09T11:45:08Z</time>
      </trkpt>
      <trkpt lat="45.04933" lon="6.14135">
        <ele>1176.6</ele>
        <time>2026-08-09T11:45:10Z</time>
      </trkpt>
      <trkpt lat="45.04934" lon="6.1414">
        <ele>1177</ele>
        <time>2026-08-09T11:45:12Z</time>
      </trkpt>
      <trkpt lat="45.04936" lon="6.14144">
        <ele>1177.2</ele>
        <time>2026-08-09T11:45:14Z</time>
      </trkpt>
      <trkpt lat="45.04936" lon="6.14146">
        <ele>1177.4</ele>
        <time>2026-08-09T11:45:15Z</time>
      </trkpt>
      <trkpt lat="45.04937" lon="6.14148">
        <ele>1177.6</ele>
        <time>2026-08-09T11:45:16Z</time>
      </trkpt>
      <trkpt lat="45.04939" lon="6.14153">
        <ele>1177.8</ele>
        <time>2026-08-09T11:45:18Z</time>
      </trkpt>
      <trkpt lat="45.04941" lon="6.14157">
        <ele>1178</ele>
        <time>2026-08-09T11:45:20Z</time>
      </trkpt>
      <trkpt lat="45.04942" lon="6.14158">
        <ele>1178</ele>
        <time>2026-08-09T11:45:21Z</time>
      </trkpt>
      <trkpt lat="45.04943" lon="6.1416">
        <ele>1178.4</ele>
        <time>2026-08-09T11:45:22Z</time>
      </trkpt>
      <trkpt lat="45.04944" lon="6.14164">
        <ele>1178.6</ele>
        <time>2026-08-09T11:45:24Z</time>
      </trkpt>
      <trkpt lat="45.04946" lon="6.14167">
        <ele>1178.6</ele>
        <time>2026-08-09T11:45:26Z</time>
      </trkpt>
      <trkpt lat="45.04947" lon="6.14169">
        <ele>1178.6</ele>
        <time>2026-08-09T11:45:27Z</time>
      </trkpt>
      <trkpt lat="45.04948" lon="6.14171">
        <ele>1178.6</ele>
        <time>2026-08-09T11:45:28Z</time>
      </trkpt>
      <trkpt lat="45.04949" lon="6.14176">
        <ele>1178.8</ele>
        <time>2026-08-09T11:45:30Z</time>
      </trkpt>
      <trkpt lat="45.04952" lon="6.14181">
        <ele>1179</ele>
        <time>2026-08-09T11:45:32Z</time>
      </trkpt>
      <trkpt lat="45.04953" lon="6.14186">
        <ele>1179</ele>
        <time>2026-08-09T11:45:34Z</time>
      </trkpt>
      <trkpt lat="45.04956" lon="6.14191">
        <ele>1179.2</ele>
        <time>2026-08-09T11:45:36Z</time>
      </trkpt>
      <trkpt lat="45.04958" lon="6.14198">
        <ele>1179.2</ele>
        <time>2026-08-09T11:45:38Z</time>
      </trkpt>
      <trkpt lat="45.04961" lon="6.14203">
        <ele>1179.4</ele>
        <time>2026-08-09T11:45:40Z</time>
      </trkpt>
      <trkpt lat="45.04962" lon="6.14206">
        <ele>1179.4</ele>
        <time>2026-08-09T11:45:41Z</time>
      </trkpt>
      <trkpt lat="45.04964" lon="6.14208">
        <ele>1179.4</ele>
        <time>2026-08-09T11:45:42Z</time>
      </trkpt>
      <trkpt lat="45.04966" lon="6.14213">
        <ele>1179.6</ele>
        <time>2026-08-09T11:45:44Z</time>
      </trkpt>
      <trkpt lat="45.04966" lon="6.14216">
        <ele>1179.6</ele>
        <time>2026-08-09T11:45:45Z</time>
      </trkpt>
      <trkpt lat="45.04967" lon="6.14219">
        <ele>1179.8</ele>
        <time>2026-08-09T11:45:46Z</time>
      </trkpt>
      <trkpt lat="45.04968" lon="6.14225">
        <ele>1180</ele>
        <time>2026-08-09T11:45:48Z</time>
      </trkpt>
      <trkpt lat="45.04972" lon="6.14231">
        <ele>1180.2</ele>
        <time>2026-08-09T11:45:50Z</time>
      </trkpt>
      <trkpt lat="45.04973" lon="6.14234">
        <ele>1180.6</ele>
        <time>2026-08-09T11:45:51Z</time>
      </trkpt>
      <trkpt lat="45.04973" lon="6.14239">
        <ele>1181</ele>
        <time>2026-08-09T11:45:52Z</time>
      </trkpt>
      <trkpt lat="45.04975" lon="6.14242">
        <ele>1181</ele>
        <time>2026-08-09T11:45:53Z</time>
      </trkpt>
      <trkpt lat="45.04978" lon="6.14245">
        <ele>1181.2</ele>
        <time>2026-08-09T11:45:54Z</time>
      </trkpt>
      <trkpt lat="45.04981" lon="6.1425">
        <ele>1181.4</ele>
        <time>2026-08-09T11:45:56Z</time>
      </trkpt>
      <trkpt lat="45.04983" lon="6.14256">
        <ele>1181.6</ele>
        <time>2026-08-09T11:45:58Z</time>
      </trkpt>
      <trkpt lat="45.04985" lon="6.14261">
        <ele>1182</ele>
        <time>2026-08-09T11:46:00Z</time>
      </trkpt>
      <trkpt lat="45.04986" lon="6.14263">
        <ele>1182.2</ele>
        <time>2026-08-09T11:46:01Z</time>
      </trkpt>
      <trkpt lat="45.04987" lon="6.14265">
        <ele>1182.4</ele>
        <time>2026-08-09T11:46:02Z</time>
      </trkpt>
      <trkpt lat="45.04989" lon="6.1427">
        <ele>1182.8</ele>
        <time>2026-08-09T11:46:04Z</time>
      </trkpt>
      <trkpt lat="45.04992" lon="6.14275">
        <ele>1183.2</ele>
        <time>2026-08-09T11:46:06Z</time>
      </trkpt>
      <trkpt lat="45.04995" lon="6.14278">
        <ele>1183.8</ele>
        <time>2026-08-09T11:46:08Z</time>
      </trkpt>
      <trkpt lat="45.04999" lon="6.14278">
        <ele>1184</ele>
        <time>2026-08-09T11:46:10Z</time>
      </trkpt>
      <trkpt lat="45.05001" lon="6.14279">
        <ele>1184.2</ele>
        <time>2026-08-09T11:46:11Z</time>
      </trkpt>
      <trkpt lat="45.05002" lon="6.14279">
        <ele>1184.2</ele>
        <time>2026-08-09T11:46:12Z</time>
      </trkpt>
      <trkpt lat="45.05004" lon="6.14281">
        <ele>1184.2</ele>
        <time>2026-08-09T11:46:14Z</time>
      </trkpt>
      <trkpt lat="45.05005" lon="6.14282">
        <ele>1184.4</ele>
        <time>2026-08-09T11:46:15Z</time>
      </trkpt>
      <trkpt lat="45.05004" lon="6.14281">
        <ele>1184.6</ele>
        <time>2026-08-09T11:46:16Z</time>
      </trkpt>
      <trkpt lat="45.05003" lon="6.1428">
        <ele>1184.8</ele>
        <time>2026-08-09T11:46:18Z</time>
      </trkpt>
      <trkpt lat="45.05002" lon="6.14281">
        <ele>1185</ele>
        <time>2026-08-09T11:46:19Z</time>
      </trkpt>
      <trkpt lat="45.05002" lon="6.14281">
        <ele>1185.2</ele>
        <time>2026-08-09T11:46:20Z</time>
      </trkpt>
      <trkpt lat="45.05002" lon="6.14281">
        <ele>1185.2</ele>
        <time>2026-08-09T11:46:21Z</time>
      </trkpt>
      <trkpt lat="45.05002" lon="6.1428">
        <ele>1185.2</ele>
        <time>2026-08-09T11:46:22Z</time>
      </trkpt>
      <trkpt lat="45.05002" lon="6.1428">
        <ele>1185.4</ele>
        <time>2026-08-09T11:46:24Z</time>
      </trkpt>
      <trkpt lat="45.05003" lon="6.14282">
        <ele>1185.4</ele>
        <time>2026-08-09T11:46:26Z</time>
      </trkpt>
      <trkpt lat="45.05003" lon="6.14283">
        <ele>1185.4</ele>
        <time>2026-08-09T11:46:28Z</time>
      </trkpt>
      <trkpt lat="45.05003" lon="6.14283">
        <ele>1185.4</ele>
        <time>2026-08-09T11:46:30Z</time>
      </trkpt>
      <trkpt lat="45.05004" lon="6.14284">
        <ele>1185.4</ele>
        <time>2026-08-09T11:46:31Z</time>
      </trkpt>
      <trkpt lat="45.05004" lon="6.14284">
        <ele>1185.2</ele>
        <time>2026-08-09T11:46:32Z</time>
      </trkpt>
      <trkpt lat="45.05004" lon="6.14285">
        <ele>1185.2</ele>
        <time>2026-08-09T11:46:34Z</time>
      </trkpt>
      <trkpt lat="45.05005" lon="6.14285">
        <ele>1185.2</ele>
        <time>2026-08-09T11:46:36Z</time>
      </trkpt>
      <trkpt lat="45.05006" lon="6.14286">
        <ele>1185.2</ele>
        <time>2026-08-09T11:46:38Z</time>
      </trkpt>
      <trkpt lat="45.05007" lon="6.14286">
        <ele>1185.2</ele>
        <time>2026-08-09T11:46:40Z</time>
      </trkpt>
      <trkpt lat="45.05007" lon="6.14286">
        <ele>1185</ele>
        <time>2026-08-09T11:46:42Z</time>
      </trkpt>
      <trkpt lat="45.05007" lon="6.14287">
        <ele>1185</ele>
        <time>2026-08-09T11:46:44Z</time>
      </trkpt>
      <trkpt lat="45.05008" lon="6.14286">
        <ele>1185</ele>
        <time>2026-08-09T11:46:46Z</time>
      </trkpt>
      <trkpt lat="45.05009" lon="6.14286">
        <ele>1185</ele>
        <time>2026-08-09T11:46:48Z</time>
      </trkpt>
      <trkpt lat="45.05009" lon="6.14285">
        <ele>1185</ele>
        <time>2026-08-09T11:46:50Z</time>
      </trkpt>
      <trkpt lat="45.05009" lon="6.14285">
        <ele>1185</ele>
        <time>2026-08-09T11:46:52Z</time>
      </trkpt>
      <trkpt lat="45.05009" lon="6.14286">
        <ele>1185</ele>
        <time>2026-08-09T11:46:53Z</time>
      </trkpt>
      <trkpt lat="45.0501" lon="6.14287">
        <ele>1185</ele>
        <time>2026-08-09T11:46:54Z</time>
      </trkpt>
      <trkpt lat="45.0501" lon="6.14286">
        <ele>1185</ele>
        <time>2026-08-09T11:46:56Z</time>
      </trkpt>
      <trkpt lat="45.05011" lon="6.14286">
        <ele>1185</ele>
        <time>2026-08-09T11:46:58Z</time>
      </trkpt>
      <trkpt lat="45.05011" lon="6.14286">
        <ele>1185</ele>
        <time>2026-08-09T11:47:00Z</time>
      </trkpt>
      <trkpt lat="45.05011" lon="6.14286">
        <ele>1185</ele>
        <time>2026-08-09T11:47:02Z</time>
      </trkpt>
      <trkpt lat="45.05012" lon="6.14286">
        <ele>1185</ele>
        <time>2026-08-09T11:47:04Z</time>
      </trkpt>
      <trkpt lat="45.05012" lon="6.14286">
        <ele>1185</ele>
        <time>2026-08-09T11:47:06Z</time>
      </trkpt>
      <trkpt lat="45.05012" lon="6.14287">
        <ele>1185</ele>
        <time>2026-08-09T11:47:08Z</time>
      </trkpt>
      <trkpt lat="45.05012" lon="6.14287">
        <ele>1185.2</ele>
        <time>2026-08-09T11:47:10Z</time>
      </trkpt>
      <trkpt lat="45.05012" lon="6.14287">
        <ele>1185.2</ele>
        <time>2026-08-09T11:47:12Z</time>
      </trkpt>
      <trkpt lat="45.05012" lon="6.14287">
        <ele>1185.2</ele>
        <time>2026-08-09T11:47:14Z</time>
      </trkpt>
      <trkpt lat="45.05012" lon="6.14287">
        <ele>1185.2</ele>
        <time>2026-08-09T11:47:15Z</time>
      </trkpt>
      <trkpt lat="45.05012" lon="6.14287">
        <ele>1185.2</ele>
        <time>2026-08-09T11:47:16Z</time>
      </trkpt>
      <trkpt lat="45.05012" lon="6.14286">
        <ele>1185.4</ele>
        <time>2026-08-09T11:47:18Z</time>
      </trkpt>
      <trkpt lat="45.05012" lon="6.14286">
        <ele>1185.4</ele>
        <time>2026-08-09T11:47:20Z</time>
      </trkpt>
      <trkpt lat="45.05012" lon="6.14286">
        <ele>1185.4</ele>
        <time>2026-08-09T11:47:22Z</time>
      </trkpt>
      <trkpt lat="45.05013" lon="6.14286">
        <ele>1185.4</ele>
        <time>2026-08-09T11:47:24Z</time>
      </trkpt>
      <trkpt lat="45.05012" lon="6.14286">
        <ele>1185.4</ele>
        <time>2026-08-09T11:47:26Z</time>
      </trkpt>
      <trkpt lat="45.05012" lon="6.14285">
        <ele>1185.4</ele>
        <time>2026-08-09T11:47:28Z</time>
      </trkpt>
      <trkpt lat="45.05012" lon="6.14284">
        <ele>1185.4</ele>
        <time>2026-08-09T11:47:30Z</time>
      </trkpt>
      <trkpt lat="45.05012" lon="6.14283">
        <ele>1185.4</ele>
        <time>2026-08-09T11:47:32Z</time>
      </trkpt>
      <trkpt lat="45.05012" lon="6.14283">
        <ele>1185.2</ele>
        <time>2026-08-09T11:47:34Z</time>
      </trkpt>
      <trkpt lat="45.05012" lon="6.14283">
        <ele>1185.2</ele>
        <time>2026-08-09T11:47:36Z</time>
      </trkpt>
      <trkpt lat="45.05012" lon="6.14282">
        <ele>1185.2</ele>
        <time>2026-08-09T11:47:38Z</time>
      </trkpt>
      <trkpt lat="45.05012" lon="6.14283">
        <ele>1185</ele>
        <time>2026-08-09T11:47:40Z</time>
      </trkpt>
      <trkpt lat="45.05012" lon="6.14283">
        <ele>1185</ele>
        <time>2026-08-09T11:47:42Z</time>
      </trkpt>
      <trkpt lat="45.05012" lon="6.14283">
        <ele>1185</ele>
        <time>2026-08-09T11:47:44Z</time>
      </trkpt>
      <trkpt lat="45.05012" lon="6.14283">
        <ele>1185</ele>
        <time>2026-08-09T11:47:46Z</time>
      </trkpt>
      <trkpt lat="45.05012" lon="6.14283">
        <ele>1185</ele>
        <time>2026-08-09T11:47:48Z</time>
      </trkpt>
      <trkpt lat="45.05012" lon="6.14283">
        <ele>1185</ele>
        <time>2026-08-09T11:47:50Z</time>
      </trkpt>
      <trkpt lat="45.05012" lon="6.14283">
        <ele>1185</ele>
        <time>2026-08-09T11:47:52Z</time>
      </trkpt>
      <trkpt lat="45.05012" lon="6.14283">
        <ele>1185</ele>
        <time>2026-08-09T11:47:54Z</time>
      </trkpt>
      <trkpt lat="45.05012" lon="6.14283">
        <ele>1185</ele>
        <time>2026-08-09T11:47:56Z</time>
      </trkpt>
      <trkpt lat="45.05012" lon="6.14283">
        <ele>1185</ele>
        <time>2026-08-09T11:47:58Z</time>
      </trkpt>
      <trkpt lat="45.05012" lon="6.14283">
        <ele>1185</ele>
        <time>2026-08-09T11:48:00Z</time>
      </trkpt>
      <trkpt lat="45.05012" lon="6.14283">
        <ele>1185</ele>
        <time>2026-08-09T11:48:02Z</time>
      </trkpt>
      <trkpt lat="45.05013" lon="6.14283">
        <ele>1185</ele>
        <time>2026-08-09T11:48:04Z</time>
      </trkpt>
      <trkpt lat="45.05013" lon="6.14282">
        <ele>1185</ele>
        <time>2026-08-09T11:48:06Z</time>
      </trkpt>
      <trkpt lat="45.05013" lon="6.14282">
        <ele>1185</ele>
        <time>2026-08-09T11:48:08Z</time>
      </trkpt>
      <trkpt lat="45.05013" lon="6.14281">
        <ele>1185</ele>
        <time>2026-08-09T11:48:10Z</time>
      </trkpt>
      <trkpt lat="45.05012" lon="6.14281">
        <ele>1185</ele>
        <time>2026-08-09T11:48:12Z</time>
      </trkpt>
      <trkpt lat="45.05012" lon="6.14281">
        <ele>1185</ele>
        <time>2026-08-09T11:48:14Z</time>
      </trkpt>
      <trkpt lat="45.05011" lon="6.14281">
        <ele>1185</ele>
        <time>2026-08-09T11:48:16Z</time>
      </trkpt>
      <trkpt lat="45.0501" lon="6.14282">
        <ele>1185</ele>
        <time>2026-08-09T11:48:18Z</time>
      </trkpt>
      <trkpt lat="45.0501" lon="6.1428">
        <ele>1185</ele>
        <time>2026-08-09T11:48:20Z</time>
      </trkpt>
      <trkpt lat="45.05011" lon="6.1428">
        <ele>1185</ele>
        <time>2026-08-09T11:48:21Z</time>
      </trkpt>
      <trkpt lat="45.0501" lon="6.14279">
        <ele>1185</ele>
        <time>2026-08-09T11:48:22Z</time>
      </trkpt>
      <trkpt lat="45.05012" lon="6.14278">
        <ele>1185</ele>
        <time>2026-08-09T11:48:24Z</time>
      </trkpt>
      <trkpt lat="45.05014" lon="6.14278">
        <ele>1185</ele>
        <time>2026-08-09T11:48:26Z</time>
      </trkpt>
      <trkpt lat="45.05015" lon="6.14279">
        <ele>1185</ele>
        <time>2026-08-09T11:48:28Z</time>
      </trkpt>
      <trkpt lat="45.05016" lon="6.14279">
        <ele>1185</ele>
        <time>2026-08-09T11:48:29Z</time>
      </trkpt>
      <trkpt lat="45.05017" lon="6.1428">
        <ele>1185</ele>
        <time>2026-08-09T11:48:30Z</time>
      </trkpt>
      <trkpt lat="45.05021" lon="6.14281">
        <ele>1185</ele>
        <time>2026-08-09T11:48:32Z</time>
      </trkpt>
      <trkpt lat="45.05026" lon="6.14285">
        <ele>1185</ele>
        <time>2026-08-09T11:48:34Z</time>
      </trkpt>
      <trkpt lat="45.05028" lon="6.14286">
        <ele>1185</ele>
        <time>2026-08-09T11:48:35Z</time>
      </trkpt>
      <trkpt lat="45.05031" lon="6.14288">
        <ele>1185</ele>
        <time>2026-08-09T11:48:36Z</time>
      </trkpt>
      <trkpt lat="45.05036" lon="6.1429">
        <ele>1185</ele>
        <time>2026-08-09T11:48:38Z</time>
      </trkpt>
      <trkpt lat="45.05042" lon="6.14293">
        <ele>1185</ele>
        <time>2026-08-09T11:48:40Z</time>
      </trkpt>
      <trkpt lat="45.05048" lon="6.14297">
        <ele>1185</ele>
        <time>2026-08-09T11:48:42Z</time>
      </trkpt>
      <trkpt lat="45.05053" lon="6.14301">
        <ele>1185</ele>
        <time>2026-08-09T11:48:44Z</time>
      </trkpt>
      <trkpt lat="45.05058" lon="6.14305">
        <ele>1185</ele>
        <time>2026-08-09T11:48:46Z</time>
      </trkpt>
      <trkpt lat="45.05061" lon="6.14306">
        <ele>1185</ele>
        <time>2026-08-09T11:48:47Z</time>
      </trkpt>
      <trkpt lat="45.05063" lon="6.14308">
        <ele>1185</ele>
        <time>2026-08-09T11:48:48Z</time>
      </trkpt>
      <trkpt lat="45.05067" lon="6.1431">
        <ele>1185.2</ele>
        <time>2026-08-09T11:48:50Z</time>
      </trkpt>
      <trkpt lat="45.05071" lon="6.14312">
        <ele>1185.4</ele>
        <time>2026-08-09T11:48:52Z</time>
      </trkpt>
      <trkpt lat="45.05074" lon="6.14312">
        <ele>1185.6</ele>
        <time>2026-08-09T11:48:53Z</time>
      </trkpt>
      <trkpt lat="45.05076" lon="6.14312">
        <ele>1185.8</ele>
        <time>2026-08-09T11:48:54Z</time>
      </trkpt>
      <trkpt lat="45.05081" lon="6.14312">
        <ele>1186</ele>
        <time>2026-08-09T11:48:56Z</time>
      </trkpt>
      <trkpt lat="45.05087" lon="6.14312">
        <ele>1186.2</ele>
        <time>2026-08-09T11:48:58Z</time>
      </trkpt>
      <trkpt lat="45.05093" lon="6.14311">
        <ele>1186.4</ele>
        <time>2026-08-09T11:49:00Z</time>
      </trkpt>
      <trkpt lat="45.051" lon="6.14309">
        <ele>1186.4</ele>
        <time>2026-08-09T11:49:02Z</time>
      </trkpt>
      <trkpt lat="45.05104" lon="6.14308">
        <ele>1186.4</ele>
        <time>2026-08-09T11:49:03Z</time>
      </trkpt>
      <trkpt lat="45.05108" lon="6.14308">
        <ele>1186.4</ele>
        <time>2026-08-09T11:49:04Z</time>
      </trkpt>
      <trkpt lat="45.05117" lon="6.14307">
        <ele>1186.4</ele>
        <time>2026-08-09T11:49:06Z</time>
      </trkpt>
      <trkpt lat="45.05121" lon="6.14306">
        <ele>1186.4</ele>
        <time>2026-08-09T11:49:07Z</time>
      </trkpt>
      <trkpt lat="45.05125" lon="6.14304">
        <ele>1186.2</ele>
        <time>2026-08-09T11:49:08Z</time>
      </trkpt>
      <trkpt lat="45.0513" lon="6.14302">
        <ele>1186.2</ele>
        <time>2026-08-09T11:49:09Z</time>
      </trkpt>
      <trkpt lat="45.05134" lon="6.14301">
        <ele>1186.2</ele>
        <time>2026-08-09T11:49:10Z</time>
      </trkpt>
      <trkpt lat="45.05141" lon="6.14299">
        <ele>1185.6</ele>
        <time>2026-08-09T11:49:12Z</time>
      </trkpt>
      <trkpt lat="45.05148" lon="6.14296">
        <ele>1185.6</ele>
        <time>2026-08-09T11:49:14Z</time>
      </trkpt>
      <trkpt lat="45.05152" lon="6.14295">
        <ele>1185.6</ele>
        <time>2026-08-09T11:49:15Z</time>
      </trkpt>
      <trkpt lat="45.05156" lon="6.14293">
        <ele>1185.6</ele>
        <time>2026-08-09T11:49:16Z</time>
      </trkpt>
      <trkpt lat="45.0516" lon="6.14292">
        <ele>1185.6</ele>
        <time>2026-08-09T11:49:17Z</time>
      </trkpt>
      <trkpt lat="45.05164" lon="6.1429">
        <ele>1185.6</ele>
        <time>2026-08-09T11:49:18Z</time>
      </trkpt>
      <trkpt lat="45.05168" lon="6.14289">
        <ele>1185.6</ele>
        <time>2026-08-09T11:49:19Z</time>
      </trkpt>
      <trkpt lat="45.05171" lon="6.14287">
        <ele>1185.6</ele>
        <time>2026-08-09T11:49:20Z</time>
      </trkpt>
      <trkpt lat="45.05178" lon="6.14283">
        <ele>1185.6</ele>
        <time>2026-08-09T11:49:22Z</time>
      </trkpt>
      <trkpt lat="45.05186" lon="6.1428">
        <ele>1185.8</ele>
        <time>2026-08-09T11:49:24Z</time>
      </trkpt>
      <trkpt lat="45.05189" lon="6.14278">
        <ele>1185.8</ele>
        <time>2026-08-09T11:49:25Z</time>
      </trkpt>
      <trkpt lat="45.05193" lon="6.14277">
        <ele>1186</ele>
        <time>2026-08-09T11:49:26Z</time>
      </trkpt>
      <trkpt lat="45.05199" lon="6.14277">
        <ele>1186.2</ele>
        <time>2026-08-09T11:49:28Z</time>
      </trkpt>
      <trkpt lat="45.05205" lon="6.14279">
        <ele>1186.6</ele>
        <time>2026-08-09T11:49:30Z</time>
      </trkpt>
      <trkpt lat="45.05208" lon="6.1428">
        <ele>1186.6</ele>
        <time>2026-08-09T11:49:31Z</time>
      </trkpt>
      <trkpt lat="45.05211" lon="6.14281">
        <ele>1186.8</ele>
        <time>2026-08-09T11:49:32Z</time>
      </trkpt>
      <trkpt lat="45.05215" lon="6.14283">
        <ele>1187.6</ele>
        <time>2026-08-09T11:49:34Z</time>
      </trkpt>
      <trkpt lat="45.05217" lon="6.14283">
        <ele>1188</ele>
        <time>2026-08-09T11:49:35Z</time>
      </trkpt>
      <trkpt lat="45.05218" lon="6.14283">
        <ele>1188.2</ele>
        <time>2026-08-09T11:49:36Z</time>
      </trkpt>
      <trkpt lat="45.05218" lon="6.14281">
        <ele>1188.6</ele>
        <time>2026-08-09T11:49:38Z</time>
      </trkpt>
      <trkpt lat="45.05217" lon="6.1428">
        <ele>1188.8</ele>
        <time>2026-08-09T11:49:39Z</time>
      </trkpt>
      <trkpt lat="45.05216" lon="6.14279">
        <ele>1189</ele>
        <time>2026-08-09T11:49:40Z</time>
      </trkpt>
      <trkpt lat="45.05214" lon="6.14277">
        <ele>1189</ele>
        <time>2026-08-09T11:49:41Z</time>
      </trkpt>
      <trkpt lat="45.05212" lon="6.14276">
        <ele>1189</ele>
        <time>2026-08-09T11:49:42Z</time>
      </trkpt>
      <trkpt lat="45.05208" lon="6.14273">
        <ele>1189</ele>
        <time>2026-08-09T11:49:44Z</time>
      </trkpt>
      <trkpt lat="45.05204" lon="6.14273">
        <ele>1189</ele>
        <time>2026-08-09T11:49:45Z</time>
      </trkpt>
      <trkpt lat="45.052" lon="6.14273">
        <ele>1189</ele>
        <time>2026-08-09T11:49:46Z</time>
      </trkpt>
      <trkpt lat="45.05192" lon="6.14276">
        <ele>1189</ele>
        <time>2026-08-09T11:49:48Z</time>
      </trkpt>
      <trkpt lat="45.05187" lon="6.14279">
        <ele>1189</ele>
        <time>2026-08-09T11:49:49Z</time>
      </trkpt>
      <trkpt lat="45.05182" lon="6.14282">
        <ele>1189</ele>
        <time>2026-08-09T11:49:50Z</time>
      </trkpt>
      <trkpt lat="45.05172" lon="6.14287">
        <ele>1188.6</ele>
        <time>2026-08-09T11:49:52Z</time>
      </trkpt>
      <trkpt lat="45.05161" lon="6.14292">
        <ele>1188</ele>
        <time>2026-08-09T11:49:54Z</time>
      </trkpt>
      <trkpt lat="45.05155" lon="6.14294">
        <ele>1187.4</ele>
        <time>2026-08-09T11:49:55Z</time>
      </trkpt>
      <trkpt lat="45.0515" lon="6.14296">
        <ele>1186.8</ele>
        <time>2026-08-09T11:49:56Z</time>
      </trkpt>
      <trkpt lat="45.0514" lon="6.143">
        <ele>1185.8</ele>
        <time>2026-08-09T11:49:58Z</time>
      </trkpt>
      <trkpt lat="45.0513" lon="6.14303">
        <ele>1185</ele>
        <time>2026-08-09T11:50:00Z</time>
      </trkpt>
      <trkpt lat="45.05125" lon="6.14304">
        <ele>1184.6</ele>
        <time>2026-08-09T11:50:01Z</time>
      </trkpt>
      <trkpt lat="45.05121" lon="6.14305">
        <ele>1184.4</ele>
        <time>2026-08-09T11:50:02Z</time>
      </trkpt>
      <trkpt lat="45.05112" lon="6.14307">
        <ele>1184.2</ele>
        <time>2026-08-09T11:50:04Z</time>
      </trkpt>
      <trkpt lat="45.05105" lon="6.1431">
        <ele>1184.2</ele>
        <time>2026-08-09T11:50:06Z</time>
      </trkpt>
      <trkpt lat="45.05098" lon="6.14311">
        <ele>1184.2</ele>
        <time>2026-08-09T11:50:08Z</time>
      </trkpt>
      <trkpt lat="45.05093" lon="6.1431">
        <ele>1184.2</ele>
        <time>2026-08-09T11:50:10Z</time>
      </trkpt>
      <trkpt lat="45.0509" lon="6.1431">
        <ele>1184.2</ele>
        <time>2026-08-09T11:50:11Z</time>
      </trkpt>
      <trkpt lat="45.05088" lon="6.1431">
        <ele>1184.6</ele>
        <time>2026-08-09T11:50:12Z</time>
      </trkpt>
      <trkpt lat="45.05083" lon="6.14311">
        <ele>1185.4</ele>
        <time>2026-08-09T11:50:14Z</time>
      </trkpt>
      <trkpt lat="45.0508" lon="6.14311">
        <ele>1185.6</ele>
        <time>2026-08-09T11:50:15Z</time>
      </trkpt>
      <trkpt lat="45.05078" lon="6.14311">
        <ele>1185.8</ele>
        <time>2026-08-09T11:50:16Z</time>
      </trkpt>
      <trkpt lat="45.05074" lon="6.14311">
        <ele>1186</ele>
        <time>2026-08-09T11:50:18Z</time>
      </trkpt>
      <trkpt lat="45.05072" lon="6.1431">
        <ele>1186.2</ele>
        <time>2026-08-09T11:50:19Z</time>
      </trkpt>
      <trkpt lat="45.05069" lon="6.1431">
        <ele>1186.2</ele>
        <time>2026-08-09T11:50:20Z</time>
      </trkpt>
      <trkpt lat="45.05062" lon="6.14308">
        <ele>1186.2</ele>
        <time>2026-08-09T11:50:22Z</time>
      </trkpt>
      <trkpt lat="45.05056" lon="6.14304">
        <ele>1186.2</ele>
        <time>2026-08-09T11:50:24Z</time>
      </trkpt>
      <trkpt lat="45.05049" lon="6.14301">
        <ele>1186.2</ele>
        <time>2026-08-09T11:50:26Z</time>
      </trkpt>
      <trkpt lat="45.05041" lon="6.14298">
        <ele>1186.2</ele>
        <time>2026-08-09T11:50:28Z</time>
      </trkpt>
      <trkpt lat="45.05034" lon="6.14295">
        <ele>1185.8</ele>
        <time>2026-08-09T11:50:30Z</time>
      </trkpt>
      <trkpt lat="45.05028" lon="6.14291">
        <ele>1185.6</ele>
        <time>2026-08-09T11:50:32Z</time>
      </trkpt>
      <trkpt lat="45.05025" lon="6.1429">
        <ele>1185.4</ele>
        <time>2026-08-09T11:50:33Z</time>
      </trkpt>
      <trkpt lat="45.05023" lon="6.14289">
        <ele>1185.4</ele>
        <time>2026-08-09T11:50:34Z</time>
      </trkpt>
      <trkpt lat="45.05018" lon="6.14289">
        <ele>1185.2</ele>
        <time>2026-08-09T11:50:36Z</time>
      </trkpt>
      <trkpt lat="45.05012" lon="6.14286">
        <ele>1185</ele>
        <time>2026-08-09T11:50:38Z</time>
      </trkpt>
      <trkpt lat="45.05008" lon="6.14282">
        <ele>1185</ele>
        <time>2026-08-09T11:50:40Z</time>
      </trkpt>
      <trkpt lat="45.05006" lon="6.1428">
        <ele>1184.8</ele>
        <time>2026-08-09T11:50:42Z</time>
      </trkpt>
      <trkpt lat="45.05007" lon="6.1428">
        <ele>1184.8</ele>
        <time>2026-08-09T11:50:44Z</time>
      </trkpt>
      <trkpt lat="45.05008" lon="6.1428">
        <ele>1184.8</ele>
        <time>2026-08-09T11:50:45Z</time>
      </trkpt>
      <trkpt lat="45.05009" lon="6.14279">
        <ele>1184.8</ele>
        <time>2026-08-09T11:50:46Z</time>
      </trkpt>
      <trkpt lat="45.05011" lon="6.14281">
        <ele>1184.8</ele>
        <time>2026-08-09T11:50:47Z</time>
      </trkpt>
      <trkpt lat="45.05012" lon="6.14282">
        <ele>1184.8</ele>
        <time>2026-08-09T11:50:48Z</time>
      </trkpt>
      <trkpt lat="45.05013" lon="6.14283">
        <ele>1185</ele>
        <time>2026-08-09T11:50:49Z</time>
      </trkpt>
      <trkpt lat="45.05016" lon="6.14285">
        <ele>1185</ele>
        <time>2026-08-09T11:50:50Z</time>
      </trkpt>
      <trkpt lat="45.05021" lon="6.1429">
        <ele>1185</ele>
        <time>2026-08-09T11:50:52Z</time>
      </trkpt>
      <trkpt lat="45.05025" lon="6.14294">
        <ele>1185.4</ele>
        <time>2026-08-09T11:50:54Z</time>
      </trkpt>
      <trkpt lat="45.05031" lon="6.14298">
        <ele>1185.6</ele>
        <time>2026-08-09T11:50:56Z</time>
      </trkpt>
      <trkpt lat="45.05038" lon="6.14303">
        <ele>1185.6</ele>
        <time>2026-08-09T11:50:58Z</time>
      </trkpt>
      <trkpt lat="45.05044" lon="6.14308">
        <ele>1185.8</ele>
        <time>2026-08-09T11:51:00Z</time>
      </trkpt>
      <trkpt lat="45.05047" lon="6.1431">
        <ele>1185.8</ele>
        <time>2026-08-09T11:51:01Z</time>
      </trkpt>
      <trkpt lat="45.0505" lon="6.14312">
        <ele>1185.8</ele>
        <time>2026-08-09T11:51:02Z</time>
      </trkpt>
      <trkpt lat="45.05058" lon="6.14314">
        <ele>1185.8</ele>
        <time>2026-08-09T11:51:04Z</time>
      </trkpt>
      <trkpt lat="45.05063" lon="6.14317">
        <ele>1186</ele>
        <time>2026-08-09T11:51:06Z</time>
      </trkpt>
      <trkpt lat="45.05069" lon="6.14317">
        <ele>1186</ele>
        <time>2026-08-09T11:51:08Z</time>
      </trkpt>
      <trkpt lat="45.05074" lon="6.14317">
        <ele>1186</ele>
        <time>2026-08-09T11:51:10Z</time>
      </trkpt>
      <trkpt lat="45.0508" lon="6.14317">
        <ele>1186.2</ele>
        <time>2026-08-09T11:51:12Z</time>
      </trkpt>
      <trkpt lat="45.05088" lon="6.14316">
        <ele>1186.4</ele>
        <time>2026-08-09T11:51:14Z</time>
      </trkpt>
      <trkpt lat="45.05092" lon="6.14316">
        <ele>1186.6</ele>
        <time>2026-08-09T11:51:15Z</time>
      </trkpt>
      <trkpt lat="45.05097" lon="6.14315">
        <ele>1186.6</ele>
        <time>2026-08-09T11:51:16Z</time>
      </trkpt>
      <trkpt lat="45.05106" lon="6.14312">
        <ele>1186.6</ele>
        <time>2026-08-09T11:51:18Z</time>
      </trkpt>
      <trkpt lat="45.05115" lon="6.1431">
        <ele>1186.6</ele>
        <time>2026-08-09T11:51:20Z</time>
      </trkpt>
      <trkpt lat="45.05125" lon="6.14308">
        <ele>1186.6</ele>
        <time>2026-08-09T11:51:22Z</time>
      </trkpt>
      <trkpt lat="45.05134" lon="6.14304">
        <ele>1186.6</ele>
        <time>2026-08-09T11:51:24Z</time>
      </trkpt>
      <trkpt lat="45.05143" lon="6.14301">
        <ele>1186.4</ele>
        <time>2026-08-09T11:51:26Z</time>
      </trkpt>
      <trkpt lat="45.0515" lon="6.14298">
        <ele>1186.2</ele>
        <time>2026-08-09T11:51:28Z</time>
      </trkpt>
      <trkpt lat="45.05154" lon="6.14297">
        <ele>1186.2</ele>
        <time>2026-08-09T11:51:29Z</time>
      </trkpt>
      <trkpt lat="45.05157" lon="6.14295">
        <ele>1186.2</ele>
        <time>2026-08-09T11:51:30Z</time>
      </trkpt>
      <trkpt lat="45.05165" lon="6.14292">
        <ele>1186</ele>
        <time>2026-08-09T11:51:32Z</time>
      </trkpt>
      <trkpt lat="45.05172" lon="6.14288">
        <ele>1186</ele>
        <time>2026-08-09T11:51:34Z</time>
      </trkpt>
      <trkpt lat="45.05176" lon="6.14286">
        <ele>1186</ele>
        <time>2026-08-09T11:51:35Z</time>
      </trkpt>
      <trkpt lat="45.0518" lon="6.14284">
        <ele>1186.2</ele>
        <time>2026-08-09T11:51:36Z</time>
      </trkpt>
      <trkpt lat="45.05188" lon="6.14281">
        <ele>1186.4</ele>
        <time>2026-08-09T11:51:38Z</time>
      </trkpt>
      <trkpt lat="45.05196" lon="6.14278">
        <ele>1186.8</ele>
        <time>2026-08-09T11:51:40Z</time>
      </trkpt>
      <trkpt lat="45.052" lon="6.14278">
        <ele>1186.8</ele>
        <time>2026-08-09T11:51:41Z</time>
      </trkpt>
      <trkpt lat="45.05203" lon="6.14278">
        <ele>1186.8</ele>
        <time>2026-08-09T11:51:42Z</time>
      </trkpt>
      <trkpt lat="45.05208" lon="6.14278">
        <ele>1187.2</ele>
        <time>2026-08-09T11:51:44Z</time>
      </trkpt>
      <trkpt lat="45.05212" lon="6.14278">
        <ele>1187.4</ele>
        <time>2026-08-09T11:51:46Z</time>
      </trkpt>
      <trkpt lat="45.05214" lon="6.14279">
        <ele>1187.6</ele>
        <time>2026-08-09T11:51:47Z</time>
      </trkpt>
      <trkpt lat="45.05216" lon="6.14279">
        <ele>1187.8</ele>
        <time>2026-08-09T11:51:48Z</time>
      </trkpt>
      <trkpt lat="45.0522" lon="6.14281">
        <ele>1188.4</ele>
        <time>2026-08-09T11:51:50Z</time>
      </trkpt>
      <trkpt lat="45.05221" lon="6.14282">
        <ele>1188.6</ele>
        <time>2026-08-09T11:51:51Z</time>
      </trkpt>
      <trkpt lat="45.05223" lon="6.14283">
        <ele>1188.8</ele>
        <time>2026-08-09T11:51:52Z</time>
      </trkpt>
      <trkpt lat="45.05224" lon="6.14284">
        <ele>1189</ele>
        <time>2026-08-09T11:51:53Z</time>
      </trkpt>
      <trkpt lat="45.05226" lon="6.14284">
        <ele>1189.2</ele>
        <time>2026-08-09T11:51:54Z</time>
      </trkpt>
      <trkpt lat="45.05228" lon="6.14284">
        <ele>1189.6</ele>
        <time>2026-08-09T11:51:56Z</time>
      </trkpt>
      <trkpt lat="45.05229" lon="6.14284">
        <ele>1189.6</ele>
        <time>2026-08-09T11:51:57Z</time>
      </trkpt>
      <trkpt lat="45.05229" lon="6.14284">
        <ele>1189.8</ele>
        <time>2026-08-09T11:51:58Z</time>
      </trkpt>
    </trkseg>
  </trk>
</gpx>